
Distance (Route):
Temperature : 8.1°C
Humidity : 72.1%
Pressure : 0hPa| Receiver | Frames | First received | Last received |
|---|---|---|---|
| IW2NTF | 621 | 2026-08-30 23:21:28 | 2026-08-31 01:55:41 |
| DO3MHA-11 | 508 | 2026-08-30 23:25:47 | 2026-08-31 02:18:06 |
| BIOWL1-15 | 359 | 2026-08-31 00:08:25 | 2026-08-31 01:18:31 |
| DM0DOS-11 | 306 | 2026-08-31 00:03:44 | 2026-08-31 01:19:42 |
| DO3MHA-12 | 285 | 2026-08-30 23:29:53 | 2026-08-31 02:17:00 |
| DB0UT-7 | 228 | 2026-08-30 23:13:28 | 2026-08-31 02:14:28 |
| HASLITAL | 172 | 2026-08-30 23:22:02 | 2026-08-31 01:27:02 |
| DK5PH-5 | 149 | 2026-08-30 23:34:00 | 2026-08-31 01:57:04 |
| DL1ZP-14 | 145 | 2026-08-30 23:38:10 | 2026-08-31 01:52:23 |
| DF7PN | 142 | 2026-08-30 23:40:48 | 2026-08-31 01:45:04 |
| DB0ND-19 | 131 | 2026-08-30 23:15:41 | 2026-08-31 02:12:03 |
| OE9MKV-15 | 124 | 2026-08-30 23:48:17 | 2026-08-31 02:20:34 |
| DF3TZ-5 | 103 | 2026-08-30 23:41:42 | 2026-08-31 01:53:40 |
| DN1GJH-1 | 97 | 2026-08-31 00:52:39 | 2026-08-31 02:18:26 |
| DF1GD-15 | 95 | 2026-08-31 01:18:56 | 2026-08-31 02:07:47 |
| BIOWL9-15 | 64 | 2026-08-31 00:06:27 | 2026-08-31 01:18:24 |
| DH7VM-15 | 58 | 2026-08-30 23:23:39 | 2026-08-31 01:56:14 |
| LOEBOVI | 33 | 2026-08-30 23:51:36 | 2026-08-31 01:34:30 |
| DL6DJ-15 | 24 | 2026-08-31 00:16:49 | 2026-08-31 01:14:50 |
| DB0NH | 23 | 2026-08-31 00:22:41 | 2026-08-31 01:50:11 |
| OE5DXL-15 | 16 | 2026-08-31 00:45:14 | 2026-08-31 01:29:22 |
| DL8DAS-14 | 9 | 2026-08-31 00:49:24 | 2026-08-31 00:58:42 |
| DK7TD | 8 | 2026-08-30 23:37:31 | 2026-08-30 23:42:27 |
| DO1YAY-16 | 5 | 2026-08-31 00:57:50 | 2026-08-31 01:05:37 |
| BIOWL7-15 | 4 | 2026-08-31 00:07:50 | 2026-08-31 00:33:15 |
| DJ2DS-15 | 2 | 2026-08-31 01:05:46 | 2026-08-31 01:06:58 |
| DL8DAS-15 | 1 | 2026-08-31 00:54:41 | 2026-08-31 00:54:41 |
| DJTTGO | 1 | 2026-08-31 01:03:38 | 2026-08-31 01:03:38 |
| Receiver | Date | Latitude | Longitude | Direction | Speed | Altitude | Climb | Temperature | Humidity | Pressure | Voltage | Killtimer | Uptime | BKT | XDATA |
|---|---|---|---|---|---|---|---|---|---|---|---|---|---|---|---|
| OE9MKV-15 | 2026-08-31 02:20:34 | 47.53077 | 9.28421 | 75° | 77km/h | 2379m | -2.6m/s | 8.1°C | 72.1% | 0hPa | 2.7V | 00:00:00 | 03:46:22 | 00:00:00 | |
| OE9MKV-15 | 2026-08-31 02:20:22 | 47.53006 | 9.28083 | 71° | 78km/h | 2413m | -2.9m/s | 7.8°C | 72.2% | 0hPa | 2.7V | 00:00:00 | 03:46:10 | 00:00:00 | |
| OE9MKV-15 | 2026-08-31 02:20:17 | 47.52977 | 9.27944 | 74° | 80km/h | 2427m | -2.9m/s | 7.7°C | 74.0% | 0hPa | 2.7V | 00:00:00 | 03:46:05 | 00:00:00 | |
| OE9MKV-15 | 2026-08-31 02:20:12 | 47.52943 | 9.27803 | 71° | 77km/h | 2441m | -2.9m/s | 7.6°C | 75.3% | 0hPa | 2.7V | 07:13:00 | 03:46:00 | 00:00:00 | |
| OE9MKV-15 | 2026-08-31 02:20:07 | 47.52914 | 9.27665 | 72° | 80km/h | 2455m | -2.9m/s | 7.4°C | 76.2% | 0hPa | 2.7V | 00:00:00 | 03:45:55 | 00:00:00 | |
| OE9MKV-15 | 2026-08-31 02:20:02 | 47.52880 | 9.27525 | 73° | 80km/h | 2470m | -3.0m/s | 7.3°C | 79.8% | 0hPa | 2.7V | 00:00:00 | 03:45:50 | 00:00:00 | |
| OE9MKV-15 | 2026-08-31 02:19:52 | 47.52814 | 9.27243 | 72° | 82km/h | 2501m | -3.0m/s | 7.0°C | 81.3% | 0hPa | 2.7V | 00:00:00 | 03:45:40 | 00:00:00 | |
| OE9MKV-15 | 2026-08-31 02:19:47 | 47.52777 | 9.27101 | 70° | 80km/h | 2517m | -3.0m/s | 6.9°C | 82.2% | 0hPa | 2.7V | 00:00:00 | 03:45:35 | 00:00:00 | |
| OE9MKV-15 | 2026-08-31 02:19:42 | 47.52743 | 9.26957 | 69° | 82km/h | 2533m | -3.2m/s | 6.7°C | 83.0% | 0hPa | 2.7V | 00:00:00 | 03:45:30 | 00:00:00 | |
| OE9MKV-15 | 2026-08-31 02:19:37 | 47.52707 | 9.26812 | 72° | 84km/h | 2548m | -3.2m/s | 6.6°C | 83.6% | 0hPa | 2.7V | 00:00:00 | 03:45:25 | 00:00:00 | |
| OE9MKV-15 | 2026-08-31 02:19:32 | 47.52670 | 9.26665 | 71° | 84km/h | 2564m | -2.8m/s | 6.5°C | 84.4% | 0hPa | 2.7V | 07:13:00 | 03:45:20 | 00:00:00 | |
| OE9MKV-15 | 2026-08-31 02:19:27 | 47.52636 | 9.26516 | 70° | 84km/h | 2580m | -3.1m/s | 6.4°C | 85.4% | 0hPa | 2.7V | 00:00:00 | 03:45:15 | 00:00:00 | |
| OE9MKV-15 | 2026-08-31 02:19:22 | 47.52600 | 9.26369 | 72° | 84km/h | 2596m | -3.4m/s | 6.3°C | 85.9% | 0hPa | 2.7V | 00:00:00 | 03:45:10 | 00:00:00 | |
| OE9MKV-15 | 2026-08-31 02:19:12 | 47.52529 | 9.26070 | 71° | 86km/h | 2629m | -3.4m/s | 6.1°C | 83.9% | 0hPa | 2.7V | 00:00:00 | 03:45:00 | 00:00:00 | |
| OE9MKV-15 | 2026-08-31 02:19:07 | 47.52495 | 9.25919 | 74° | 88km/h | 2645m | -3.4m/s | 5.9°C | 83.9% | 0hPa | 2.7V | 00:00:00 | 03:44:55 | 00:00:00 | |
| OE9MKV-15 | 2026-08-31 02:19:02 | 47.52460 | 9.25765 | 72° | 86km/h | 2662m | -3.4m/s | 5.8°C | 84.8% | 0hPa | 2.7V | 00:00:00 | 03:44:50 | 00:00:00 | |
| OE9MKV-15 | 2026-08-31 02:18:57 | 47.52427 | 9.25610 | 71° | 86km/h | 2679m | -3.3m/s | 5.7°C | 85.2% | 0hPa | 2.7V | 00:00:00 | 03:44:45 | 00:00:00 | |
| OE9MKV-15 | 2026-08-31 02:18:52 | 47.52393 | 9.25458 | 75° | 89km/h | 2697m | -3.5m/s | 5.7°C | 75.8% | 0hPa | 2.7V | 07:14:00 | 03:44:40 | 00:00:00 | |
| OE9MKV-15 | 2026-08-31 02:18:47 | 47.52361 | 9.25297 | 72° | 88km/h | 2714m | -3.4m/s | 5.8°C | 65.0% | 0hPa | 2.7V | 00:00:00 | 03:44:35 | 00:00:00 | |
| OE9MKV-15 | 2026-08-31 02:18:42 | 47.52329 | 9.25141 | 75° | 91km/h | 2731m | -3.6m/s | 5.7°C | 62.6% | 0hPa | 2.7V | 00:00:00 | 03:44:30 | 00:00:00 | |
| OE9MKV-15 | 2026-08-31 02:18:37 | 47.52295 | 9.24980 | 74° | 91km/h | 2748m | -3.5m/s | 5.6°C | 61.0% | 0hPa | 2.7V | 00:00:00 | 03:44:25 | 00:00:00 | |
| OE9MKV-15 | 2026-08-31 02:18:32 | 47.52263 | 9.24817 | 73° | 91km/h | 2765m | -3.6m/s | 5.4°C | 61.7% | 0hPa | 2.7V | 00:00:00 | 03:44:20 | 00:00:00 | |
| OE9MKV-15 | 2026-08-31 02:18:27 | 47.52233 | 9.24653 | 77° | 93km/h | 2782m | -3.5m/s | 5.4°C | 57.8% | 0hPa | 2.7V | 00:00:00 | 03:44:15 | 00:00:00 | |
| DN1GJH-1 | 2026-08-31 02:18:26 | 47.52233 | 9.24653 | 77° | 93km/h | 2782m | -3.6m/s | 5.4°C | 57.6% | 0hPa | 2.7V | 07:15:00 | 00:00:00 | 00:00:00 | |
| OE9MKV-15 | 2026-08-31 02:18:22 | 47.52203 | 9.24487 | 77° | 91km/h | 2800m | -3.4m/s | 5.3°C | 58.6% | 0hPa | 2.7V | 00:00:00 | 03:44:10 | 00:00:00 | |
| OE9MKV-15 | 2026-08-31 02:18:17 | 47.52176 | 9.24320 | 76° | 91km/h | 2818m | -3.3m/s | 5.0°C | 67.1% | 0hPa | 2.7V | 00:00:00 | 03:44:05 | 00:00:00 | |
| OE9MKV-15 | 2026-08-31 02:18:12 | 47.52150 | 9.24153 | 78° | 93km/h | 2835m | -3.3m/s | 4.9°C | 71.6% | 0hPa | 2.7V | 07:15:00 | 03:44:00 | 00:00:00 | |
| OE9MKV-15 | 2026-08-31 02:18:07 | 47.52121 | 9.23985 | 76° | 93km/h | 2852m | -3.5m/s | 4.8°C | 71.2% | 0hPa | 2.7V | 00:00:00 | 03:43:55 | 00:00:00 | |
| DO3MHA-11 | 2026-08-31 02:18:06 | 47.52116 | 9.23952 | 78° | 93km/h | 2856m | -3.5m/s | 4.9°C | 70.3% | 0hPa | 2.7V | 00:00:00 | 03:43:54 | 00:00:00 | |
| OE9MKV-15 | 2026-08-31 02:18:02 | 47.52095 | 9.23815 | 76° | 95km/h | 2870m | -3.4m/s | 4.8°C | 64.7% | 0hPa | 2.7V | 00:00:00 | 03:43:50 | 00:00:00 | |
| DO3MHA-11 | 2026-08-31 02:18:01 | 47.52089 | 9.23780 | 76° | 95km/h | 2874m | -3.5m/s | 4.8°C | 64.3% | 0hPa | 2.7V | 00:00:00 | 03:43:49 | 00:00:00 | |
| OE9MKV-15 | 2026-08-31 02:17:56 | 47.52062 | 9.23609 | 77° | 95km/h | 2891m | -3.5m/s | 4.6°C | 64.5% | 0hPa | 2.7V | 00:00:00 | 03:43:44 | 00:00:00 | |
| DO3MHA-11 | 2026-08-31 02:17:54 | 47.52049 | 9.23539 | 75° | 95km/h | 2898m | -3.4m/s | 4.5°C | 65.3% | 0hPa | 2.7V | 00:00:00 | 03:43:42 | 00:00:00 | |
| OE9MKV-15 | 2026-08-31 02:17:51 | 47.52031 | 9.23438 | 77° | 97km/h | 2908m | -3.4m/s | 4.5°C | 64.6% | 0hPa | 2.7V | 00:00:00 | 03:43:39 | 00:00:00 | |
| DO3MHA-11 | 2026-08-31 02:17:49 | 47.52020 | 9.23368 | 77° | 95km/h | 2915m | -3.4m/s | 4.5°C | 62.0% | 0hPa | 2.7V | 00:00:00 | 03:43:37 | 00:00:00 | |
| OE9MKV-15 | 2026-08-31 02:17:46 | 47.52002 | 9.23263 | 75° | 93km/h | 2925m | -3.2m/s | 4.5°C | 54.3% | 0hPa | 2.7V | 00:00:00 | 03:43:34 | 00:00:00 | |
| DN1GJH-1 | 2026-08-31 02:17:45 | 47.52002 | 9.23263 | 75° | 95km/h | 2925m | -3.3m/s | 4.5°C | 54.0% | 0hPa | 2.7V | 07:15:00 | 00:00:00 | 00:00:00 | |
| DO3MHA-11 | 2026-08-31 02:17:44 | 47.51990 | 9.23196 | 77° | 95km/h | 2932m | -3.3m/s | 4.4°C | 54.6% | 0hPa | 2.7V | 07:15:00 | 03:43:32 | 00:00:00 | |
| OE9MKV-15 | 2026-08-31 02:17:41 | 47.51974 | 9.23094 | 78° | 95km/h | 2942m | -3.2m/s | 4.3°C | 61.4% | 0hPa | 2.7V | 00:00:00 | 03:43:29 | 00:00:00 | |
| DO3MHA-11 | 2026-08-31 02:17:39 | 47.51962 | 9.23024 | 75° | 93km/h | 2949m | -3.1m/s | 4.3°C | 64.9% | 0hPa | 2.7V | 00:00:00 | 03:43:27 | 00:00:00 | |
| OE9MKV-15 | 2026-08-31 02:17:36 | 47.51943 | 9.22922 | 76° | 95km/h | 2959m | -3.2m/s | 4.2°C | 67.7% | 0hPa | 2.7V | 00:00:00 | 03:43:24 | 00:00:00 | |
| DO3MHA-11 | 2026-08-31 02:17:34 | 47.51932 | 9.22854 | 78° | 97km/h | 2965m | -3.2m/s | 4.2°C | 67.7% | 0hPa | 2.7V | 00:00:00 | 03:43:22 | 00:00:00 | |
| OE9MKV-15 | 2026-08-31 02:17:31 | 47.51915 | 9.22749 | 75° | 95km/h | 2975m | -3.2m/s | 4.1°C | 68.4% | 0hPa | 2.7V | 07:15:00 | 03:43:19 | 00:00:00 | |
| DO3MHA-11 | 2026-08-31 02:17:28 | 47.51895 | 9.22645 | 76° | 97km/h | 2984m | -3.2m/s | 4.0°C | 69.7% | 0hPa | 2.7V | 00:00:00 | 03:43:16 | 00:00:00 | |
| OE9MKV-15 | 2026-08-31 02:17:26 | 47.51884 | 9.22576 | 77° | 99km/h | 2991m | -3.3m/s | 4.0°C | 70.2% | 0hPa | 2.7V | 00:00:00 | 03:43:14 | 00:00:00 | |
| DN1GJH-1 | 2026-08-31 02:17:24 | 47.51878 | 9.22540 | 77° | 99km/h | 2994m | -3.0m/s | 4.0°C | 69.7% | 0hPa | 2.7V | 07:16:00 | 00:00:00 | 00:00:00 | |
| DO3MHA-11 | 2026-08-31 02:17:23 | 47.51866 | 9.22469 | 75° | 97km/h | 3000m | -3.1m/s | 3.9°C | 70.3% | 0hPa | 2.7V | 00:00:00 | 03:43:11 | 00:00:00 | |
| OE9MKV-15 | 2026-08-31 02:17:21 | 47.51853 | 9.22399 | 76° | 97km/h | 3007m | -3.1m/s | 3.8°C | 70.5% | 0hPa | 2.7V | 00:00:00 | 03:43:09 | 00:00:00 | |
| DO3MHA-11 | 2026-08-31 02:17:18 | 47.51837 | 9.22294 | 78° | 99km/h | 3016m | -3.2m/s | 3.7°C | 70.9% | 0hPa | 2.7V | 00:00:00 | 03:43:06 | 00:00:00 | |
| OE9MKV-15 | 2026-08-31 02:17:16 | 47.51825 | 9.22221 | 76° | 99km/h | 3022m | -3.2m/s | 3.7°C | 71.1% | 0hPa | 2.7V | 00:00:00 | 03:43:04 | 00:00:00 | |
| DO3MHA-11 | 2026-08-31 02:17:13 | 47.51806 | 9.22114 | 77° | 99km/h | 3032m | -2.9m/s | 3.6°C | 71.9% | 0hPa | 2.7V | 00:00:00 | 03:43:01 | 00:00:00 | |
| OE9MKV-15 | 2026-08-31 02:17:11 | 47.51795 | 9.22044 | 78° | 100km/h | 3038m | -3.0m/s | 3.6°C | 72.3% | 0hPa | 2.7V | 00:00:00 | 03:42:59 | 00:00:00 | |
| DO3MHA-11 | 2026-08-31 02:17:08 | 47.51778 | 9.21935 | 76° | 99km/h | 3047m | -2.8m/s | 3.5°C | 72.6% | 0hPa | 2.7V | 00:00:00 | 03:42:56 | 00:00:00 | |
| OE9MKV-15 | 2026-08-31 02:17:06 | 47.51766 | 9.21863 | 76° | 99km/h | 3053m | -3.0m/s | 3.5°C | 72.7% | 0hPa | 2.7V | 00:00:00 | 03:42:54 | 00:00:00 | |
| DN1GJH-1 | 2026-08-31 02:17:04 | 47.51760 | 9.21828 | 78° | 97km/h | 3056m | -3.0m/s | 3.5°C | 72.2% | 0hPa | 2.7V | 07:16:00 | 00:00:00 | 00:00:00 | |
| DO3MHA-11 | 2026-08-31 02:17:03 | 47.51749 | 9.21756 | 79° | 100km/h | 3062m | -3.0m/s | 3.4°C | 72.6% | 0hPa | 2.7V | 07:16:00 | 03:42:51 | 00:00:00 | |
| OE9MKV-15 | 2026-08-31 02:17:01 | 47.51738 | 9.21682 | 77° | 100km/h | 3068m | -3.1m/s | 3.4°C | 72.6% | 0hPa | 2.7V | 00:00:00 | 03:42:49 | 00:00:00 | |
| DO3MHA-12 | 2026-08-31 02:17:00 | 47.51732 | 9.21646 | 76° | 99km/h | 3071m | -2.9m/s | 3.4°C | 72.9% | 0hPa | 2.7V | 00:00:00 | 03:42:48 | 00:00:00 | |
| DO3MHA-11 | 2026-08-31 02:16:58 | 47.51720 | 9.21573 | 77° | 100km/h | 3076m | -2.9m/s | 3.3°C | 72.9% | 0hPa | 2.7V | 00:00:00 | 03:42:46 | 00:00:00 | |
| OE9MKV-15 | 2026-08-31 02:16:56 | 47.51709 | 9.21502 | 79° | 100km/h | 3082m | -2.8m/s | 3.3°C | 72.0% | 0hPa | 2.7V | 00:00:00 | 03:42:44 | 00:00:00 | |
| DO3MHA-12 | 2026-08-31 02:16:55 | 47.51703 | 9.21465 | 78° | 100km/h | 3085m | -3.0m/s | 3.3°C | 71.5% | 0hPa | 2.7V | 00:00:00 | 03:42:43 | 00:00:00 | |
| DO3MHA-11 | 2026-08-31 02:16:53 | 47.51692 | 9.21390 | 77° | 100km/h | 3091m | -2.8m/s | 3.3°C | 70.3% | 0hPa | 2.7V | 00:00:00 | 03:42:41 | 00:00:00 | |
| OE9MKV-15 | 2026-08-31 02:16:51 | 47.51679 | 9.21318 | 77° | 100km/h | 3096m | -2.8m/s | 3.2°C | 70.5% | 0hPa | 2.7V | 07:16:00 | 03:42:39 | 00:00:00 | |
| DO3MHA-12 | 2026-08-31 02:16:50 | 47.51674 | 9.21282 | 78° | 99km/h | 3099m | -2.7m/s | 3.2°C | 70.6% | 0hPa | 2.7V | 00:00:00 | 03:42:38 | 00:00:00 | |
| DO3MHA-11 | 2026-08-31 02:16:48 | 47.51664 | 9.21209 | 79° | 102km/h | 3104m | -2.8m/s | 3.2°C | 70.8% | 0hPa | 2.7V | 00:00:00 | 03:42:36 | 00:00:00 | |
| OE9MKV-15 | 2026-08-31 02:16:46 | 47.51653 | 9.21134 | 78° | 102km/h | 3110m | -2.7m/s | 3.1°C | 71.0% | 0hPa | 2.7V | 00:00:00 | 03:42:34 | 00:00:00 | |
| DO3MHA-12 | 2026-08-31 02:16:45 | 47.51647 | 9.21096 | 77° | 102km/h | 3113m | -2.7m/s | 3.1°C | 70.9% | 0hPa | 2.7V | 00:00:00 | 03:42:33 | 00:00:00 | |
| DN1GJH-1 | 2026-08-31 02:16:44 | 47.51647 | 9.21096 | 77° | 102km/h | 3113m | -2.8m/s | 3.1°C | 70.4% | 0hPa | 2.7V | 07:17:00 | 00:00:00 | 00:00:00 | |
| DO3MHA-11 | 2026-08-31 02:16:43 | 47.51635 | 9.21023 | 77° | 100km/h | 3118m | -2.6m/s | 3.0°C | 71.0% | 0hPa | 2.7V | 00:00:00 | 03:42:31 | 00:00:00 | |
| OE9MKV-15 | 2026-08-31 02:16:41 | 47.51624 | 9.20950 | 79° | 100km/h | 3123m | -2.8m/s | 3.0°C | 71.0% | 0hPa | 2.7V | 00:00:00 | 03:42:29 | 00:00:00 | |
| DO3MHA-12 | 2026-08-31 02:16:40 | 47.51619 | 9.20912 | 79° | 102km/h | 3126m | -2.7m/s | 3.0°C | 70.8% | 0hPa | 2.7V | 00:00:00 | 03:42:28 | 00:00:00 | |
| DO3MHA-11 | 2026-08-31 02:16:38 | 47.51607 | 9.20837 | 77° | 100km/h | 3131m | -2.6m/s | 2.9°C | 70.8% | 0hPa | 2.7V | 00:00:00 | 03:42:26 | 00:00:00 | |
| OE9MKV-15 | 2026-08-31 02:16:36 | 47.51595 | 9.20763 | 77° | 100km/h | 3136m | -2.6m/s | 2.9°C | 71.2% | 0hPa | 2.7V | 00:00:00 | 03:42:24 | 00:00:00 | |
| DO3MHA-12 | 2026-08-31 02:16:35 | 47.51589 | 9.20727 | 77° | 102km/h | 3139m | -2.6m/s | 2.9°C | 71.1% | 0hPa | 2.6V | 00:00:00 | 03:42:23 | 00:00:00 | |
| DO3MHA-11 | 2026-08-31 02:16:33 | 47.51579 | 9.20654 | 79° | 102km/h | 3144m | -2.6m/s | 2.8°C | 71.1% | 0hPa | 2.7V | 00:00:00 | 03:42:21 | 00:00:00 | |
| OE9MKV-15 | 2026-08-31 02:16:31 | 47.51568 | 9.20579 | 78° | 100km/h | 3149m | -2.5m/s | 2.8°C | 71.3% | 0hPa | 2.7V | 00:00:00 | 03:42:19 | 00:00:00 | |
| DO3MHA-12 | 2026-08-31 02:16:30 | 47.51562 | 9.20541 | 77° | 100km/h | 3152m | -2.5m/s | 2.8°C | 71.4% | 0hPa | 2.7V | 00:00:00 | 03:42:18 | 00:00:00 | |
| DO3MHA-11 | 2026-08-31 02:16:28 | 47.51550 | 9.20468 | 77° | 100km/h | 3157m | -2.5m/s | 2.8°C | 71.6% | 0hPa | 2.7V | 00:00:00 | 03:42:16 | 00:00:00 | |
| OE9MKV-15 | 2026-08-31 02:16:26 | 47.51539 | 9.20395 | 79° | 102km/h | 3162m | -2.4m/s | 2.8°C | 72.4% | 0hPa | 2.7V | 00:00:00 | 03:42:14 | 00:00:00 | |
| DO3MHA-12 | 2026-08-31 02:16:25 | 47.51534 | 9.20358 | 79° | 102km/h | 3164m | -2.5m/s | 2.7°C | 72.6% | 0hPa | 2.7V | 07:16:00 | 03:42:13 | 00:00:00 | |
| DO3MHA-11 | 2026-08-31 02:16:23 | 47.51523 | 9.20282 | 77° | 100km/h | 3169m | -2.4m/s | 2.7°C | 73.3% | 0hPa | 2.7V | 07:16:00 | 03:42:11 | 00:00:00 | |
| OE9MKV-15 | 2026-08-31 02:16:21 | 47.51511 | 9.20208 | 77° | 100km/h | 3174m | -2.5m/s | 2.7°C | 74.0% | 0hPa | 2.7V | 00:00:00 | 03:42:09 | 00:00:00 | |
| DO3MHA-12 | 2026-08-31 02:16:20 | 47.51505 | 9.20172 | 77° | 102km/h | 3177m | -2.4m/s | 2.6°C | 74.1% | 0hPa | 2.6V | 00:00:00 | 03:42:08 | 00:00:00 | |
| DO3MHA-11 | 2026-08-31 02:16:18 | 47.51495 | 9.20099 | 79° | 102km/h | 3182m | -2.4m/s | 2.6°C | 74.2% | 0hPa | 2.7V | 00:00:00 | 03:42:06 | 00:00:00 | |
| OE9MKV-15 | 2026-08-31 02:16:16 | 47.51484 | 9.20025 | 78° | 100km/h | 3186m | -2.2m/s | 2.5°C | 74.5% | 0hPa | 2.7V | 00:00:00 | 03:42:04 | 00:00:00 | |
| DO3MHA-11 | 2026-08-31 02:16:13 | 47.51466 | 9.19913 | 77° | 100km/h | 3193m | -2.3m/s | 2.5°C | 75.2% | 0hPa | 2.7V | 00:00:00 | 03:42:01 | 00:00:00 | |
| OE9MKV-15 | 2026-08-31 02:16:11 | 47.51456 | 9.19841 | 79° | 100km/h | 3198m | -2.2m/s | 2.4°C | 75.2% | 0hPa | 2.7V | 07:17:00 | 03:41:59 | 00:00:00 | |
| DO3MHA-11 | 2026-08-31 02:16:08 | 47.51440 | 9.19730 | 78° | 100km/h | 3204m | -2.3m/s | 2.4°C | 75.5% | 0hPa | 2.7V | 00:00:00 | 03:41:56 | 00:00:00 | |
| OE9MKV-15 | 2026-08-31 02:16:06 | 47.51428 | 9.19657 | 77° | 100km/h | 3209m | -2.1m/s | 2.3°C | 76.8% | 0hPa | 2.7V | 00:00:00 | 03:41:54 | 00:00:00 | |
| DO3MHA-11 | 2026-08-31 02:16:03 | 47.51411 | 9.19549 | 78° | 102km/h | 3216m | -2.0m/s | 2.3°C | 77.0% | 0hPa | 2.6V | 00:00:00 | 03:41:51 | 00:00:00 | |
| DO3MHA-12 | 2026-08-31 02:16:01 | 47.51400 | 9.19474 | 77° | 100km/h | 3220m | -2.0m/s | 2.2°C | 77.3% | 0hPa | 2.6V | 00:00:00 | 03:41:49 | 00:00:00 | |
| DO3MHA-11 | 2026-08-31 02:15:58 | 47.51380 | 9.19364 | 77° | 100km/h | 3226m | -2.0m/s | 2.2°C | 77.4% | 0hPa | 2.6V | 00:00:00 | 03:41:46 | 00:00:00 | |
| OE9MKV-15 | 2026-08-31 02:15:56 | 47.51369 | 9.19292 | 79° | 100km/h | 3230m | -2.0m/s | 2.1°C | 78.1% | 0hPa | 2.6V | 00:00:00 | 03:41:44 | 00:00:00 | |
| DO3MHA-12 | 2026-08-31 02:15:55 | 47.51364 | 9.19255 | 79° | 102km/h | 3232m | -1.9m/s | 2.1°C | 78.4% | 0hPa | 2.6V | 00:00:00 | 03:41:43 | 00:00:00 | |
| DO3MHA-11 | 2026-08-31 02:15:53 | 47.51353 | 9.19180 | 77° | 99km/h | 3236m | -1.9m/s | 2.1°C | 79.3% | 0hPa | 2.7V | 00:00:00 | 03:41:41 | 00:00:00 | |
| OE9MKV-15 | 2026-08-31 02:15:51 | 47.51341 | 9.19108 | 76° | 99km/h | 3240m | -1.8m/s | 2.1°C | 80.3% | 0hPa | 2.7V | 00:00:00 | 03:41:39 | 00:00:00 | |
| DO3MHA-12 | 2026-08-31 02:15:50 | 47.51335 | 9.19072 | 77° | 97km/h | 3242m | -1.7m/s | 2.1°C | 80.5% | 0hPa | 2.7V | 00:00:00 | 03:41:38 | 00:00:00 | |
| DO3MHA-11 | 2026-08-31 02:15:48 | 47.51324 | 9.19001 | 78° | 99km/h | 3246m | -1.9m/s | 2.0°C | 80.9% | 0hPa | 2.7V | 00:00:00 | 03:41:36 | 00:00:00 | |
| OE9MKV-15 | 2026-08-31 02:15:46 | 47.51313 | 9.18928 | 77° | 100km/h | 3249m | -1.7m/s | 2.0°C | 81.1% | 0hPa | 2.7V | 00:00:00 | 03:41:34 | 00:00:00 | |
| DN1GJH-1 | 2026-08-31 02:15:42 | 47.51294 | 9.18818 | 76° | 99km/h | 3255m | -1.8m/s | 2.0°C | 80.6% | 0hPa | 2.7V | 07:18:00 | 00:00:00 | 00:00:00 | |
| DO3MHA-11 | 2026-08-31 02:15:41 | 47.51282 | 9.18747 | 78° | 100km/h | 3258m | -1.7m/s | 1.9°C | 81.4% | 0hPa | 2.7V | 07:17:00 | 03:41:29 | 00:00:00 | |
| DO3MHA-11 | 2026-08-31 02:15:36 | 47.51254 | 9.18562 | 76° | 99km/h | 3267m | -1.6m/s | 1.8°C | 81.8% | 0hPa | 2.7V | 00:00:00 | 03:41:24 | 00:00:00 | |
| DO3MHA-12 | 2026-08-31 02:15:33 | 47.51235 | 9.18455 | 78° | 100km/h | 3272m | -1.7m/s | 1.8°C | 82.0% | 0hPa | 2.7V | 00:00:00 | 03:41:21 | 00:00:00 | |
| DO3MHA-11 | 2026-08-31 02:15:31 | 47.51225 | 9.18382 | 78° | 102km/h | 3275m | -1.5m/s | 1.8°C | 82.2% | 0hPa | 2.7V | 00:00:00 | 03:41:19 | 00:00:00 | |
| DO3MHA-11 | 2026-08-31 02:15:26 | 47.51193 | 9.18199 | 77° | 100km/h | 3283m | -1.6m/s | 1.7°C | 82.9% | 0hPa | 2.7V | 00:00:00 | 03:41:14 | 00:00:00 | |
| DO3MHA-12 | 2026-08-31 02:15:23 | 47.51177 | 9.18090 | 78° | 102km/h | 3287m | -1.6m/s | 1.7°C | 83.2% | 0hPa | 2.7V | 07:17:00 | 03:41:11 | 00:00:00 | |
| DO3MHA-11 | 2026-08-31 02:15:21 | 47.51166 | 9.18015 | 76° | 100km/h | 3290m | -1.6m/s | 1.6°C | 83.4% | 0hPa | 2.7V | 00:00:00 | 03:41:09 | 00:00:00 | |
| DO3MHA-12 | 2026-08-31 02:15:18 | 47.51146 | 9.17906 | 77° | 100km/h | 3295m | -1.4m/s | 1.6°C | 83.5% | 0hPa | 2.6V | 00:00:00 | 03:41:06 | 00:00:00 | |
| DO3MHA-11 | 2026-08-31 02:15:16 | 47.51134 | 9.17832 | 77° | 102km/h | 3298m | -1.4m/s | 1.6°C | 83.6% | 0hPa | 2.6V | 00:00:00 | 03:41:04 | 00:00:00 | |
| DO3MHA-11 | 2026-08-31 02:15:11 | 47.51101 | 9.17647 | 76° | 100km/h | 3305m | -1.4m/s | 1.5°C | 84.1% | 0hPa | 2.6V | 00:00:00 | 03:40:59 | 00:00:00 | |
| DO3MHA-11 | 2026-08-31 02:15:06 | 47.51071 | 9.17463 | 76° | 100km/h | 3313m | -1.4m/s | 1.5°C | 84.4% | 0hPa | 2.6V | 00:00:00 | 03:40:54 | 00:00:00 | |
| DO3MHA-11 | 2026-08-31 02:15:01 | 47.51041 | 9.17279 | 77° | 102km/h | 3320m | -1.5m/s | 1.4°C | 84.4% | 0hPa | 2.7V | 07:18:00 | 03:40:49 | 00:00:00 | |
| DO3MHA-11 | 2026-08-31 02:14:56 | 47.51008 | 9.17093 | 76° | 102km/h | 3327m | -1.4m/s | 1.4°C | 84.7% | 0hPa | 2.7V | 00:00:00 | 03:40:44 | 00:00:00 | |
| DO3MHA-11 | 2026-08-31 02:14:51 | 47.50978 | 9.16907 | 75° | 102km/h | 3334m | -1.4m/s | 1.3°C | 85.4% | 0hPa | 2.7V | 00:00:00 | 03:40:39 | 00:00:00 | |
| DO3MHA-11 | 2026-08-31 02:14:46 | 47.50943 | 9.16723 | 77° | 104km/h | 3341m | -1.3m/s | 1.3°C | 85.6% | 0hPa | 2.7V | 00:00:00 | 03:40:34 | 00:00:00 | |
| DO3MHA-11 | 2026-08-31 02:14:41 | 47.50911 | 9.16532 | 74° | 104km/h | 3348m | -1.3m/s | 1.3°C | 85.7% | 0hPa | 2.7V | 00:00:00 | 03:40:29 | 00:00:00 | |
| DN1GJH-1 | 2026-08-31 02:14:40 | 47.50911 | 9.16532 | 75° | 106km/h | 3348m | -1.4m/s | 1.3°C | 84.8% | 0hPa | 2.7V | 00:00:00 | 00:00:00 | 00:00:00 | |
| OE9MKV-15 | 2026-08-31 02:14:36 | 47.50877 | 9.16345 | 77° | 106km/h | 3355m | -1.3m/s | 1.2°C | 85.9% | 0hPa | 2.7V | 00:00:00 | 03:40:24 | 00:00:00 | |
| DO3MHA-11 | 2026-08-31 02:14:31 | 47.50843 | 9.16155 | 76° | 106km/h | 3362m | -1.3m/s | 1.2°C | 85.9% | 0hPa | 2.7V | 00:00:00 | 03:40:19 | 00:00:00 | |
| DB0UT-7 | 2026-08-31 02:14:28 | 47.50824 | 9.16040 | 76° | 102km/h | 3366m | -1.4m/s | 1.3°C | 85.0% | 0hPa | 2.7V | 00:00:00 | 03:40:16 | 00:00:00 | |
| DO3MHA-11 | 2026-08-31 02:14:26 | 47.50810 | 9.15962 | 75° | 104km/h | 3369m | -1.5m/s | 1.2°C | 85.1% | 0hPa | 2.7V | 00:00:00 | 03:40:14 | 00:00:00 | |
| DO3MHA-11 | 2026-08-31 02:14:21 | 47.50776 | 9.15773 | 76° | 106km/h | 3376m | -1.5m/s | 1.2°C | 85.1% | 0hPa | 2.7V | 07:18:00 | 03:40:09 | 00:00:00 | |
| DO3MHA-11 | 2026-08-31 02:14:16 | 47.50741 | 9.15585 | 76° | 102km/h | 3383m | -1.7m/s | 1.2°C | 85.2% | 0hPa | 2.7V | 00:00:00 | 03:40:04 | 00:00:00 | |
| DO3MHA-11 | 2026-08-31 02:14:11 | 47.50708 | 9.15399 | 74° | 100km/h | 3392m | -1.8m/s | 1.2°C | 83.7% | 0hPa | 2.7V | 00:00:00 | 03:39:59 | 00:00:00 | |
| DO3MHA-11 | 2026-08-31 02:14:06 | 47.50674 | 9.15218 | 75° | 100km/h | 3400m | -1.6m/s | 1.2°C | 82.5% | 0hPa | 2.7V | 00:00:00 | 03:39:54 | 00:00:00 | |
| DB0UT-7 | 2026-08-31 02:13:58 | 47.50616 | 9.14930 | 73° | 99km/h | 3413m | -1.5m/s | 1.2°C | 80.4% | 0hPa | 2.7V | 00:00:00 | 00:00:00 | 00:00:00 | |
| DO3MHA-11 | 2026-08-31 02:13:56 | 47.50601 | 9.14858 | 73° | 99km/h | 3417m | -1.9m/s | 1.2°C | 78.7% | 0hPa | 2.7V | 00:00:00 | 03:39:44 | 00:00:00 | |
| DO3MHA-11 | 2026-08-31 02:13:51 | 47.50566 | 9.14681 | 74° | 99km/h | 3426m | -1.8m/s | 1.2°C | 78.3% | 0hPa | 2.7V | 00:00:00 | 03:39:39 | 00:00:00 | |
| DO3MHA-11 | 2026-08-31 02:13:46 | 47.50530 | 9.14506 | 75° | 99km/h | 3435m | -1.9m/s | 1.7°C | 68.3% | 0hPa | 2.6V | 00:00:00 | 03:39:34 | 00:00:00 | |
| DO3MHA-11 | 2026-08-31 02:13:41 | 47.50494 | 9.14328 | 72° | 97km/h | 3445m | -2.1m/s | 1.8°C | 65.8% | 0hPa | 2.6V | 07:19:00 | 03:39:29 | 00:00:00 | |
| DO3MHA-12 | 2026-08-31 02:13:39 | 47.50479 | 9.14260 | 73° | 97km/h | 3449m | -2.1m/s | 1.8°C | 65.5% | 0hPa | 2.6V | 00:00:00 | 03:39:27 | 00:00:00 | |
| DO3MHA-11 | 2026-08-31 02:13:36 | 47.50458 | 9.14156 | 74° | 99km/h | 3455m | -2.1m/s | 1.9°C | 63.8% | 0hPa | 2.7V | 00:00:00 | 03:39:24 | 00:00:00 | |
| DO3MHA-12 | 2026-08-31 02:13:34 | 47.50443 | 9.14084 | 72° | 97km/h | 3459m | -2.1m/s | 1.9°C | 64.5% | 0hPa | 2.7V | 00:00:00 | 03:39:22 | 00:00:00 | |
| DO3MHA-11 | 2026-08-31 02:13:31 | 47.50419 | 9.13981 | 73° | 97km/h | 3466m | -2.1m/s | 1.9°C | 62.9% | 0hPa | 2.7V | 00:00:00 | 03:39:19 | 00:00:00 | |
| DO3MHA-12 | 2026-08-31 02:13:28 | 47.50398 | 9.13877 | 73° | 97km/h | 3472m | -2.1m/s | 1.8°C | 62.2% | 0hPa | 2.7V | 00:00:00 | 03:39:16 | 00:00:00 | |
| DO3MHA-11 | 2026-08-31 02:13:26 | 47.50382 | 9.13807 | 71° | 95km/h | 3476m | -2.1m/s | 1.8°C | 62.4% | 0hPa | 2.7V | 00:00:00 | 03:39:14 | 00:00:00 | |
| OE9MKV-15 | 2026-08-31 02:13:16 | 47.50303 | 9.13469 | 73° | 97km/h | 3499m | -2.4m/s | 1.7°C | 62.9% | 0hPa | 2.7V | 00:00:00 | 03:39:04 | 00:00:00 | |
| DO3MHA-11 | 2026-08-31 02:13:11 | 47.50264 | 9.13297 | 70° | 95km/h | 3511m | -2.4m/s | 1.6°C | 61.9% | 0hPa | 2.7V | 00:00:00 | 03:38:59 | 00:00:00 | |
| DO3MHA-11 | 2026-08-31 02:13:06 | 47.50226 | 9.13130 | 73° | 95km/h | 3523m | -2.4m/s | 1.6°C | 62.7% | 0hPa | 2.7V | 00:00:00 | 03:38:54 | 00:00:00 | |
| DO3MHA-11 | 2026-08-31 02:13:01 | 47.50184 | 9.12965 | 70° | 93km/h | 3535m | -2.5m/s | 1.5°C | 63.1% | 0hPa | 2.7V | 07:20:00 | 03:38:49 | 00:00:00 | |
| DB0UT-7 | 2026-08-31 02:12:58 | 47.50160 | 9.12867 | 70° | 93km/h | 3543m | -2.6m/s | 1.4°C | 63.4% | 0hPa | 2.7V | 00:00:00 | 00:00:00 | 00:00:00 | |
| DO3MHA-11 | 2026-08-31 02:12:56 | 47.50142 | 9.12801 | 68° | 91km/h | 3548m | -2.8m/s | 1.4°C | 63.0% | 0hPa | 2.7V | 00:00:00 | 03:38:44 | 00:00:00 | |
| DO3MHA-11 | 2026-08-31 02:12:51 | 47.50101 | 9.12641 | 71° | 93km/h | 3561m | -2.6m/s | 1.3°C | 62.9% | 0hPa | 2.7V | 00:00:00 | 03:38:39 | 00:00:00 | |
| DO3MHA-11 | 2026-08-31 02:12:46 | 47.50057 | 9.12479 | 69° | 93km/h | 3575m | -2.8m/s | 1.2°C | 62.5% | 0hPa | 2.7V | 00:00:00 | 03:38:34 | 00:00:00 | |
| DO3MHA-12 | 2026-08-31 02:12:44 | 47.50041 | 9.12415 | 70° | 91km/h | 3581m | -2.9m/s | 1.2°C | 62.5% | 0hPa | 2.7V | 00:00:00 | 03:38:32 | 00:00:00 | |
| DO3MHA-11 | 2026-08-31 02:12:41 | 47.50014 | 9.12317 | 67° | 91km/h | 3590m | -2.8m/s | 1.2°C | 61.9% | 0hPa | 2.7V | 00:00:00 | 03:38:29 | 00:00:00 | |
| DO3MHA-12 | 2026-08-31 02:12:38 | 47.49987 | 9.12224 | 70° | 91km/h | 3598m | -2.6m/s | 1.2°C | 60.3% | 0hPa | 2.7V | 00:00:00 | 03:38:26 | 00:00:00 | |
| DO3MHA-11 | 2026-08-31 02:12:36 | 47.49971 | 9.12160 | 70° | 93km/h | 3604m | -3.0m/s | 1.2°C | 60.2% | 0hPa | 2.7V | 00:00:00 | 03:38:24 | 00:00:00 | |
| DO3MHA-11 | 2026-08-31 02:12:31 | 47.49927 | 9.12001 | 68° | 91km/h | 3618m | -2.9m/s | 1.1°C | 60.8% | 0hPa | 2.7V | 00:00:00 | 03:38:19 | 00:00:00 | |
| DO3MHA-12 | 2026-08-31 02:12:30 | 47.49919 | 9.11969 | 69° | 91km/h | 3621m | -3.0m/s | 1.1°C | 60.9% | 0hPa | 2.7V | 07:20:00 | 03:38:18 | 00:00:00 | |
| DB0UT-7 | 2026-08-31 02:12:28 | 47.49902 | 9.11905 | 69° | 91km/h | 3627m | -2.9m/s | 1.0°C | 61.2% | 0hPa | 2.7V | 00:00:00 | 03:38:16 | 00:00:00 | |
| DO3MHA-11 | 2026-08-31 02:12:26 | 47.49884 | 9.11842 | 66° | 91km/h | 3633m | -3.0m/s | 1.0°C | 61.5% | 0hPa | 2.7V | 00:00:00 | 03:38:14 | 00:00:00 | |
| DO3MHA-12 | 2026-08-31 02:12:25 | 47.49874 | 9.11810 | 66° | 91km/h | 3636m | -3.1m/s | 1.0°C | 61.7% | 0hPa | 2.7V | 00:00:00 | 03:38:13 | 00:00:00 | |
| DO3MHA-11 | 2026-08-31 02:12:21 | 47.49840 | 9.11685 | 69° | 93km/h | 3648m | -3.0m/s | 0.9°C | 62.2% | 0hPa | 2.7V | 07:20:00 | 03:38:09 | 00:00:00 | |
| DO3MHA-12 | 2026-08-31 02:12:20 | 47.49831 | 9.11653 | 68° | 91km/h | 3652m | -3.2m/s | 0.8°C | 62.1% | 0hPa | 2.7V | 00:00:00 | 03:38:08 | 00:00:00 | |
| DO3MHA-11 | 2026-08-31 02:12:16 | 47.49794 | 9.11525 | 68° | 91km/h | 3664m | -3.1m/s | 0.7°C | 62.5% | 0hPa | 2.7V | 00:00:00 | 03:38:04 | 00:00:00 | |
| DO3MHA-12 | 2026-08-31 02:12:15 | 47.49786 | 9.11494 | 69° | 91km/h | 3667m | -3.0m/s | 0.7°C | 62.5% | 0hPa | 2.7V | 00:00:00 | 03:38:03 | 00:00:00 | |
| DO3MHA-11 | 2026-08-31 02:12:11 | 47.49750 | 9.11367 | 66° | 89km/h | 3680m | -3.3m/s | 0.6°C | 62.5% | 0hPa | 2.7V | 00:00:00 | 03:37:59 | 00:00:00 | |
| DO3MHA-12 | 2026-08-31 02:12:10 | 47.49741 | 9.11336 | 66° | 88km/h | 3684m | -3.4m/s | 0.6°C | 62.5% | 0hPa | 2.7V | 00:00:00 | 03:37:58 | 00:00:00 | |
| DO3MHA-11 | 2026-08-31 02:12:06 | 47.49706 | 9.11214 | 70° | 91km/h | 3697m | -3.3m/s | 0.5°C | 62.5% | 0hPa | 2.7V | 00:00:00 | 03:37:54 | 00:00:00 | |
| DO3MHA-12 | 2026-08-31 02:12:05 | 47.49698 | 9.11182 | 69° | 91km/h | 3700m | -3.3m/s | 0.5°C | 62.8% | 0hPa | 2.7V | 00:00:00 | 03:37:53 | 00:00:00 | |
| DB0ND-19 | 2026-08-31 02:12:03 | 47.49645 | 9.10997 | 68° | 88km/h | 3721m | -3.4m/s | 0.5°C | 60.9% | -1.0hPa | 2.7V | 00:00:00 | 00:00:00 | 00:00:00 | |
| OE9MKV-15 | 2026-08-31 02:12:01 | 47.49662 | 9.11058 | 67° | 89km/h | 3714m | -3.3m/s | 0.5°C | 62.5% | 0hPa | 2.7V | 00:00:00 | 03:37:49 | 00:00:00 | |
| DO3MHA-12 | 2026-08-31 02:12:00 | 47.49653 | 9.11027 | 68° | 89km/h | 3717m | -3.4m/s | 0.5°C | 62.2% | 0hPa | 2.7V | 00:00:00 | 03:37:48 | 00:00:00 | |
| DB0UT-7 | 2026-08-31 02:11:58 | 47.49636 | 9.10966 | 68° | 91km/h | 3724m | -3.4m/s | 0.5°C | 61.4% | 0hPa | 2.7V | 00:00:00 | 00:00:00 | 00:00:00 | |
| OE9MKV-15 | 2026-08-31 02:11:56 | 47.49618 | 9.10903 | 66° | 89km/h | 3731m | -3.5m/s | 0.4°C | 61.4% | 0hPa | 2.7V | 00:00:00 | 03:37:44 | 00:00:00 | |
| DO3MHA-12 | 2026-08-31 02:11:55 | 47.49609 | 9.10873 | 66° | 89km/h | 3734m | -3.4m/s | 0°C | 0% | 0hPa | 2.7V | 00:00:00 | 03:37:43 | 00:00:00 | |
| DO3MHA-11 | 2026-08-31 02:11:51 | 47.49573 | 9.10751 | 67° | 91km/h | 3749m | -3.6m/s | 0.3°C | 60.8% | 0hPa | 2.7V | 00:00:00 | 03:37:39 | 00:00:00 | |
| DO3MHA-12 | 2026-08-31 02:11:50 | 47.49564 | 9.10720 | 66° | 89km/h | 3752m | -3.6m/s | 0.3°C | 60.7% | 0hPa | 2.7V | 07:21:00 | 03:37:38 | 00:00:00 | |
| DO3MHA-11 | 2026-08-31 02:11:46 | 47.49525 | 9.10598 | 67° | 91km/h | 3767m | -3.7m/s | 0.3°C | 58.0% | 0hPa | 2.7V | 00:00:00 | 03:37:34 | 00:00:00 | |
| DO3MHA-12 | 2026-08-31 02:11:45 | 47.49516 | 9.10567 | 67° | 91km/h | 3770m | -3.6m/s | 0.3°C | 57.2% | 0hPa | 2.7V | 00:00:00 | 03:37:33 | 00:00:00 | |
| DO3MHA-11 | 2026-08-31 02:11:41 | 47.49477 | 9.10443 | 65° | 89km/h | 3785m | -3.7m/s | 0.3°C | 52.3% | 0hPa | 2.7V | 07:21:00 | 03:37:29 | 00:00:00 | |
| DO3MHA-12 | 2026-08-31 02:11:40 | 47.49467 | 9.10413 | 66° | 91km/h | 3789m | -3.5m/s | 0.2°C | 52.1% | 0hPa | 2.7V | 00:00:00 | 03:37:28 | 00:00:00 | |
| DO3MHA-11 | 2026-08-31 02:11:36 | 47.49431 | 9.10288 | 66° | 91km/h | 3804m | -3.8m/s | 0.2°C | 51.7% | 0hPa | 2.7V | 00:00:00 | 03:37:24 | 00:00:00 | |
| DO3MHA-12 | 2026-08-31 02:11:35 | 47.49421 | 9.10257 | 65° | 91km/h | 3808m | -3.9m/s | 0.1°C | 51.3% | 0hPa | 2.7V | 00:00:00 | 03:37:23 | 00:00:00 | |
| DO3MHA-11 | 2026-08-31 02:11:31 | 47.49382 | 9.10135 | 66° | 91km/h | 3823m | -3.9m/s | 0.1°C | 50.0% | 0hPa | 2.7V | 00:00:00 | 03:37:19 | 00:00:00 | |
| DO3MHA-12 | 2026-08-31 02:11:30 | 47.49372 | 9.10104 | 66° | 91km/h | 3827m | -3.8m/s | 0.1°C | 49.7% | 0hPa | 2.7V | 00:00:00 | 03:37:18 | 00:00:00 | |
| DB0UT-7 | 2026-08-31 02:11:28 | 47.49352 | 9.10040 | 65° | 88km/h | 3835m | -4.0m/s | 0.0°C | 49.5% | 0hPa | 2.7V | 07:21:00 | 03:37:16 | 00:00:00 | |
| DO3MHA-11 | 2026-08-31 02:11:26 | 47.49332 | 9.09979 | 63° | 89km/h | 3843m | -3.5m/s | 0.0°C | 49.4% | 0hPa | 2.7V | 00:00:00 | 03:37:14 | 00:00:00 | |
| DO3MHA-12 | 2026-08-31 02:11:25 | 47.49321 | 9.09949 | 64° | 89km/h | 3847m | -3.8m/s | -0.0°C | 49.7% | 0hPa | 2.7V | 00:00:00 | 03:37:13 | 00:00:00 | |
| DO3MHA-11 | 2026-08-31 02:11:21 | 47.49281 | 9.09831 | 62° | 88km/h | 3863m | -4.2m/s | -0.1°C | 50.3% | 0hPa | 2.7V | 00:00:00 | 03:37:09 | 00:00:00 | |
| DO3MHA-12 | 2026-08-31 02:11:20 | 47.49270 | 9.09802 | 62° | 88km/h | 3868m | -4.5m/s | -0.1°C | 50.5% | 0hPa | 2.7V | 00:00:00 | 03:37:08 | 00:00:00 | |
| DO3MHA-11 | 2026-08-31 02:11:16 | 47.49229 | 9.09687 | 63° | 88km/h | 3884m | -3.9m/s | -0.3°C | 51.4% | 0hPa | 2.7V | 00:00:00 | 03:37:04 | 00:00:00 | |
| DO3MHA-12 | 2026-08-31 02:11:15 | 47.49219 | 9.09657 | 63° | 88km/h | 3888m | -3.7m/s | -0.3°C | 51.5% | 0hPa | 2.7V | 00:00:00 | 03:37:03 | 00:00:00 | |
| DO3MHA-11 | 2026-08-31 02:11:11 | 47.49175 | 9.09543 | 62° | 86km/h | 3904m | -4.3m/s | -0.4°C | 54.0% | 0hPa | 2.7V | 00:00:00 | 03:36:59 | 00:00:00 | |
| DO3MHA-12 | 2026-08-31 02:11:10 | 47.49165 | 9.09515 | 63° | 86km/h | 3909m | -4.2m/s | -0.5°C | 55.4% | 0hPa | 2.7V | 07:22:00 | 03:36:58 | 00:00:00 | |
| DO3MHA-11 | 2026-08-31 02:11:06 | 47.49123 | 9.09401 | 61° | 84km/h | 3926m | -4.2m/s | -0.6°C | 56.6% | 0hPa | 2.7V | 00:00:00 | 03:36:54 | 00:00:00 | |
| DO3MHA-12 | 2026-08-31 02:11:05 | 47.49113 | 9.09374 | 61° | 84km/h | 3930m | -4.2m/s | -0.7°C | 55.9% | 0hPa | 2.7V | 00:00:00 | 03:36:53 | 00:00:00 | |
| DO3MHA-11 | 2026-08-31 02:11:01 | 47.49073 | 9.09263 | 62° | 86km/h | 3946m | -4.0m/s | -0.6°C | 61.8% | 0hPa | 2.7V | 07:22:00 | 03:36:49 | 00:00:00 | |
| DO3MHA-12 | 2026-08-31 02:11:00 | 47.49063 | 9.09235 | 61° | 84km/h | 3951m | -4.3m/s | -0.6°C | 63.7% | 0hPa | 2.7V | 00:00:00 | 03:36:48 | 00:00:00 | |
| DB0UT-7 | 2026-08-31 02:10:58 | 47.49040 | 9.09180 | 59° | 80km/h | 3960m | -4.3m/s | -0.7°C | 63.9% | 0hPa | 2.7V | 00:00:00 | 00:00:00 | 00:00:00 | |
| DO3MHA-11 | 2026-08-31 02:10:56 | 47.49019 | 9.09127 | 60° | 82km/h | 3968m | -4.3m/s | -0.7°C | 65.1% | 0hPa | 2.7V | 00:00:00 | 03:36:44 | 00:00:00 | |
| DO3MHA-12 | 2026-08-31 02:10:55 | 47.49008 | 9.09101 | 61° | 82km/h | 3973m | -4.2m/s | -0.7°C | 66.0% | 0hPa | 2.7V | 00:00:00 | 03:36:43 | 00:00:00 | |
| DO3MHA-11 | 2026-08-31 02:10:51 | 47.48966 | 9.08996 | 59° | 80km/h | 3990m | -4.1m/s | -0.8°C | 68.4% | 0hPa | 2.7V | 00:00:00 | 03:36:39 | 00:00:00 | |
| DO3MHA-12 | 2026-08-31 02:10:50 | 47.48956 | 9.08971 | 58° | 80km/h | 3994m | -4.4m/s | -0.8°C | 68.4% | 0hPa | 2.7V | 00:00:00 | 03:36:38 | 00:00:00 | |
| DO3MHA-11 | 2026-08-31 02:10:46 | 47.48914 | 9.08869 | 59° | 78km/h | 4011m | -4.2m/s | -1.0°C | 69.8% | 0hPa | 2.7V | 00:00:00 | 03:36:34 | 00:00:00 | |
| DO3MHA-12 | 2026-08-31 02:10:45 | 47.48903 | 9.08843 | 58° | 78km/h | 4015m | -4.1m/s | -1.0°C | 69.5% | 0hPa | 2.7V | 00:00:00 | 03:36:33 | 00:00:00 | |
| DO3MHA-11 | 2026-08-31 02:10:41 | 47.48860 | 9.08745 | 60° | 80km/h | 4032m | -4.3m/s | -1.1°C | 71.1% | 0hPa | 2.6V | 00:00:00 | 03:36:29 | 00:00:00 | |
| DO3MHA-12 | 2026-08-31 02:10:40 | 47.48850 | 9.08720 | 60° | 80km/h | 4036m | -4.0m/s | -1.2°C | 71.2% | 0hPa | 2.6V | 00:00:00 | 03:36:28 | 00:00:00 | |
| DO3MHA-11 | 2026-08-31 02:10:36 | 47.48807 | 9.08619 | 58° | 78km/h | 4053m | -3.9m/s | -1.2°C | 72.4% | 0hPa | 2.6V | 00:00:00 | 03:36:24 | 00:00:00 | |
| DO3MHA-12 | 2026-08-31 02:10:35 | 47.48797 | 9.08594 | 59° | 78km/h | 4057m | -3.9m/s | -1.3°C | 72.6% | 0hPa | 2.7V | 00:00:00 | 03:36:23 | 00:00:00 | |
| DO3MHA-11 | 2026-08-31 02:10:31 | 47.48756 | 9.08494 | 58° | 77km/h | 4073m | -4.2m/s | -1.3°C | 73.8% | 0hPa | 2.7V | 00:00:00 | 03:36:19 | 00:00:00 | |
| DO3MHA-12 | 2026-08-31 02:10:30 | 47.48745 | 9.08469 | 57° | 77km/h | 4078m | -4.4m/s | -1.3°C | 74.9% | 0hPa | 2.7V | 07:22:00 | 03:36:18 | 00:00:00 | |
| DB0UT-7 | 2026-08-31 02:10:28 | 47.48724 | 9.08421 | 59° | 75km/h | 4086m | -4.1m/s | -1.4°C | 75.2% | 0hPa | 2.6V | 00:00:00 | 03:36:16 | 00:00:00 | |
| DO3MHA-11 | 2026-08-31 02:10:26 | 47.48704 | 9.08371 | 61° | 77km/h | 4095m | -4.0m/s | -1.5°C | 75.4% | 0hPa | 2.6V | 00:00:00 | 03:36:14 | 00:00:00 | |
| DO3MHA-12 | 2026-08-31 02:10:25 | 47.48694 | 9.08346 | 60° | 77km/h | 4099m | -4.1m/s | -1.5°C | 76.1% | 0hPa | 2.6V | 00:00:00 | 03:36:13 | 00:00:00 | |
| DO3MHA-11 | 2026-08-31 02:10:21 | 47.48654 | 9.08249 | 59° | 77km/h | 4115m | -3.8m/s | -1.6°C | 76.7% | 0hPa | 2.6V | 07:22:00 | 03:36:09 | 00:00:00 | |
| DO3MHA-12 | 2026-08-31 02:10:20 | 47.48645 | 9.08225 | 60° | 77km/h | 4119m | -4.1m/s | -1.7°C | 77.0% | 0hPa | 2.7V | 00:00:00 | 03:36:08 | 00:00:00 | |
| DO3MHA-11 | 2026-08-31 02:10:16 | 47.48603 | 9.08129 | 56° | 73km/h | 4135m | -4.2m/s | -1.8°C | 77.7% | 0hPa | 2.7V | 00:00:00 | 03:36:04 | 00:00:00 | |
| DO3MHA-12 | 2026-08-31 02:10:15 | 47.48592 | 9.08106 | 56° | 73km/h | 4140m | -4.4m/s | -1.8°C | 77.8% | 0hPa | 2.7V | 00:00:00 | 03:36:03 | 00:00:00 | |
| DO3MHA-11 | 2026-08-31 02:10:11 | 47.48553 | 9.08012 | 59° | 73km/h | 4157m | -4.1m/s | -2.0°C | 78.7% | 0hPa | 2.7V | 00:00:00 | 03:35:59 | 00:00:00 | |
| DO3MHA-12 | 2026-08-31 02:10:10 | 47.48543 | 9.07989 | 58° | 73km/h | 4161m | -4.1m/s | -2.1°C | 79.0% | 0hPa | 2.7V | 00:00:00 | 03:35:58 | 00:00:00 | |
| DO3MHA-11 | 2026-08-31 02:10:06 | 47.48503 | 9.07897 | 59° | 73km/h | 4177m | -4.0m/s | -2.2°C | 79.6% | 0hPa | 2.7V | 00:00:00 | 03:35:54 | 00:00:00 | |
| DO3MHA-12 | 2026-08-31 02:10:05 | 47.48494 | 9.07874 | 60° | 75km/h | 4181m | -4.1m/s | -2.2°C | 80.4% | 0hPa | 2.6V | 00:00:00 | 03:35:53 | 00:00:00 | |
| DB0ND-19 | 2026-08-31 02:09:59 | 47.48434 | 9.07736 | 58° | 69km/h | 4206m | -4.2m/s | 0°C | -1.0% | -1.0hPa | 2.6V | 00:00:00 | 00:00:00 | 00:00:00 | |
| DB0UT-7 | 2026-08-31 02:09:58 | 47.48425 | 9.07713 | 60° | 73km/h | 4210m | -4.0m/s | -2.5°C | 82.0% | 0hPa | 2.6V | 00:00:00 | 00:00:00 | 00:00:00 | |
| DO3MHA-11 | 2026-08-31 02:09:56 | 47.48406 | 9.07666 | 60° | 73km/h | 4218m | -4.0m/s | -2.5°C | 82.6% | 0hPa | 2.6V | 00:00:00 | 03:35:44 | 00:00:00 | |
| DO3MHA-12 | 2026-08-31 02:09:55 | 47.48396 | 9.07642 | 59° | 71km/h | 4223m | -4.2m/s | -2.5°C | 82.7% | 0hPa | 2.6V | 00:00:00 | 03:35:43 | 00:00:00 | |
| DO3MHA-11 | 2026-08-31 02:09:51 | 47.48358 | 9.07551 | 60° | 73km/h | 4239m | -4.2m/s | -2.6°C | 83.8% | 0hPa | 2.6V | 00:00:00 | 03:35:39 | 00:00:00 | |
| DO3MHA-12 | 2026-08-31 02:09:50 | 47.48349 | 9.07529 | 61° | 73km/h | 4243m | -4.2m/s | -2.6°C | 84.1% | 0hPa | 2.6V | 07:23:00 | 03:35:38 | 00:00:00 | |
| DO3MHA-11 | 2026-08-31 02:09:46 | 47.48309 | 9.07435 | 57° | 71km/h | 4260m | -4.1m/s | -2.8°C | 84.8% | 0hPa | 2.6V | 00:00:00 | 03:35:34 | 00:00:00 | |
| DO3MHA-12 | 2026-08-31 02:09:45 | 47.48299 | 9.07413 | 58° | 71km/h | 4264m | -4.0m/s | -2.8°C | 85.5% | 0hPa | 2.6V | 00:00:00 | 03:35:33 | 00:00:00 | |
| DO3MHA-11 | 2026-08-31 02:09:41 | 47.48263 | 9.07320 | 60° | 73km/h | 4280m | -4.0m/s | -2.9°C | 86.9% | 0hPa | 2.6V | 07:23:00 | 03:35:29 | 00:00:00 | |
| DO3MHA-12 | 2026-08-31 02:09:40 | 47.48253 | 9.07296 | 58° | 73km/h | 4284m | -4.0m/s | -3.0°C | 87.2% | 0hPa | 2.6V | 00:00:00 | 03:35:28 | 00:00:00 | |
| DO3MHA-12 | 2026-08-31 02:09:35 | 47.48204 | 9.07181 | 60° | 75km/h | 4303m | -3.7m/s | -3.1°C | 88.1% | 0hPa | 2.6V | 00:00:00 | 03:35:23 | 00:00:00 | |
| DO3MHA-11 | 2026-08-31 02:09:31 | 47.48163 | 9.07087 | 56° | 71km/h | 4319m | -3.6m/s | -3.2°C | 88.3% | 0hPa | 2.6V | 00:00:00 | 03:35:19 | 00:00:00 | |
| DO3MHA-12 | 2026-08-31 02:09:30 | 47.48153 | 9.07065 | 56° | 73km/h | 4322m | -3.9m/s | -3.3°C | 88.5% | 0hPa | 2.6V | 00:00:00 | 03:35:18 | 00:00:00 | |
| DB0UT-7 | 2026-08-31 02:09:28 | 47.48133 | 9.07021 | 58° | 73km/h | 4330m | -3.7m/s | -3.3°C | 89.1% | 0hPa | 2.7V | 00:00:00 | 03:35:16 | 00:00:00 | |
| DO3MHA-11 | 2026-08-31 02:09:26 | 47.48113 | 9.06974 | 57° | 73km/h | 4338m | -3.7m/s | -3.4°C | 89.0% | 0hPa | 2.7V | 00:00:00 | 03:35:14 | 00:00:00 | |
| DO3MHA-12 | 2026-08-31 02:09:25 | 47.48102 | 9.06951 | 55° | 73km/h | 4341m | -3.8m/s | -3.4°C | 89.2% | 0hPa | 2.7V | 00:00:00 | 03:35:13 | 00:00:00 | |
| DN1GJH-1 | 2026-08-31 02:09:22 | 47.48080 | 9.06906 | 55° | 71km/h | 4349m | -4.0m/s | -3.5°C | 87.9% | 0hPa | 2.7V | 00:00:00 | 00:00:00 | 00:00:00 | |
| DO3MHA-11 | 2026-08-31 02:09:21 | 47.48060 | 9.06862 | 58° | 75km/h | 4357m | -3.9m/s | -3.5°C | 89.8% | 0hPa | 2.7V | 00:00:00 | 03:35:09 | 00:00:00 | |
| DO3MHA-12 | 2026-08-31 02:09:20 | 47.48050 | 9.06840 | 59° | 75km/h | 4361m | -3.8m/s | -3.6°C | 89.7% | 0hPa | 2.7V | 00:00:00 | 03:35:08 | 00:00:00 | |
| DO3MHA-11 | 2026-08-31 02:09:16 | 47.48007 | 9.06746 | 54° | 73km/h | 4376m | -3.8m/s | -3.7°C | 90.2% | 0hPa | 2.7V | 00:00:00 | 03:35:04 | 00:00:00 | |
| DO3MHA-12 | 2026-08-31 02:09:15 | 47.47996 | 9.06724 | 55° | 75km/h | 4380m | -3.7m/s | -3.7°C | 90.6% | 0hPa | 2.7V | 00:00:00 | 03:35:03 | 00:00:00 | |
| DO3MHA-11 | 2026-08-31 02:09:11 | 47.47954 | 9.06632 | 56° | 75km/h | 4395m | -3.8m/s | -3.8°C | 90.7% | 0hPa | 2.7V | 00:00:00 | 03:34:59 | 00:00:00 | |
| DO3MHA-12 | 2026-08-31 02:09:10 | 47.47943 | 9.06609 | 54° | 73km/h | 4399m | -3.7m/s | -3.8°C | 90.7% | 0hPa | 2.7V | 07:24:00 | 03:34:58 | 00:00:00 | |
| DO3MHA-11 | 2026-08-31 02:09:06 | 47.47900 | 9.06520 | 57° | 75km/h | 4414m | -3.8m/s | -3.8°C | 91.0% | 0hPa | 2.7V | 00:00:00 | 03:34:54 | 00:00:00 | |
| DO3MHA-12 | 2026-08-31 02:09:05 | 47.47890 | 9.06497 | 57° | 75km/h | 4418m | -4.1m/s | -3.8°C | 90.8% | 0hPa | 2.7V | 00:00:00 | 03:34:53 | 00:00:00 | |
| DO3MHA-11 | 2026-08-31 02:09:01 | 47.47844 | 9.06407 | 52° | 71km/h | 4435m | -4.0m/s | -4.0°C | 91.5% | 0hPa | 2.7V | 07:24:00 | 03:34:49 | 00:00:00 | |
| DO3MHA-12 | 2026-08-31 02:09:00 | 47.47833 | 9.06386 | 53° | 73km/h | 4438m | -3.9m/s | -4.0°C | 91.7% | 0hPa | 2.7V | 00:00:00 | 03:34:48 | 00:00:00 | |
| DB0UT-7 | 2026-08-31 02:08:58 | 47.47812 | 9.06343 | 56° | 73km/h | 4446m | -3.7m/s | -4.0°C | 92.0% | 0hPa | 2.6V | 00:00:00 | 00:00:00 | 00:00:00 | |
| DO3MHA-11 | 2026-08-31 02:08:56 | 47.47791 | 9.06297 | 56° | 75km/h | 4454m | -3.8m/s | -4.1°C | 91.9% | 0hPa | 2.6V | 00:00:00 | 03:34:44 | 00:00:00 | |
| DO3MHA-12 | 2026-08-31 02:08:55 | 47.47780 | 9.06274 | 54° | 73km/h | 4457m | -3.7m/s | -4.1°C | 92.2% | 0hPa | 2.6V | 00:00:00 | 03:34:43 | 00:00:00 | |
| DO3MHA-11 | 2026-08-31 02:08:51 | 47.47735 | 9.06186 | 56° | 75km/h | 4473m | -3.7m/s | -4.3°C | 92.9% | 0hPa | 2.6V | 00:00:00 | 03:34:39 | 00:00:00 | |
| DO3MHA-12 | 2026-08-31 02:08:50 | 47.47725 | 9.06164 | 57° | 75km/h | 4476m | -3.5m/s | -4.3°C | 92.9% | 0hPa | 2.6V | 00:00:00 | 03:34:38 | 00:00:00 | |
| DO3MHA-11 | 2026-08-31 02:08:46 | 47.47682 | 9.06072 | 54° | 73km/h | 4492m | -3.8m/s | -4.4°C | 93.8% | 0hPa | 2.6V | 00:00:00 | 03:34:34 | 00:00:00 | |
| DO3MHA-12 | 2026-08-31 02:08:45 | 47.47671 | 9.06051 | 55° | 73km/h | 4495m | -3.7m/s | -4.5°C | 93.9% | 0hPa | 2.6V | 00:00:00 | 03:34:33 | 00:00:00 | |
| DO3MHA-11 | 2026-08-31 02:08:41 | 47.47630 | 9.05960 | 56° | 73km/h | 4510m | -3.6m/s | -4.6°C | 94.5% | 0hPa | 2.7V | 00:00:00 | 03:34:29 | 00:00:00 | |
| DO3MHA-12 | 2026-08-31 02:08:40 | 47.47619 | 9.05938 | 54° | 71km/h | 4514m | -3.5m/s | -4.6°C | 94.8% | 0hPa | 2.7V | 00:00:00 | 03:34:28 | 00:00:00 | |
| DO3MHA-11 | 2026-08-31 02:08:36 | 47.47576 | 9.05851 | 58° | 73km/h | 4528m | -3.8m/s | -4.7°C | 94.0% | 0hPa | 2.7V | 00:00:00 | 03:34:24 | 00:00:00 | |
| DO3MHA-12 | 2026-08-31 02:08:35 | 47.47567 | 9.05828 | 59° | 73km/h | 4532m | -3.5m/s | -4.7°C | 93.9% | 0hPa | 2.7V | 00:00:00 | 03:34:23 | 00:00:00 | |
| DO3MHA-11 | 2026-08-31 02:08:31 | 47.47525 | 9.05735 | 55° | 71km/h | 4546m | -3.6m/s | -4.7°C | 91.6% | 0hPa | 2.7V | 00:00:00 | 03:34:19 | 00:00:00 | |
| DO3MHA-12 | 2026-08-31 02:08:30 | 47.47515 | 9.05713 | 56° | 71km/h | 4550m | -3.6m/s | -4.7°C | 91.4% | 0hPa | 2.7V | 07:24:00 | 03:34:18 | 00:00:00 | |
| DB0UT-7 | 2026-08-31 02:08:28 | 47.47495 | 9.05669 | 58° | 71km/h | 4557m | -3.6m/s | -4.8°C | 91.3% | 0hPa | 2.7V | 00:00:00 | 03:34:16 | 00:00:00 | |
| DO3MHA-11 | 2026-08-31 02:08:26 | 47.47475 | 9.05623 | 57° | 71km/h | 4565m | -3.7m/s | -4.8°C | 90.7% | 0hPa | 2.7V | 00:00:00 | 03:34:14 | 00:00:00 | |
| DO3MHA-12 | 2026-08-31 02:08:25 | 47.47465 | 9.05601 | 56° | 71km/h | 4568m | -3.5m/s | -4.8°C | 90.7% | 0hPa | 2.7V | 00:00:00 | 03:34:13 | 00:00:00 | |
| DO3MHA-11 | 2026-08-31 02:08:21 | 47.47425 | 9.05514 | 59° | 73km/h | 4583m | -3.7m/s | -4.9°C | 91.2% | 0hPa | 2.7V | 07:24:00 | 03:34:09 | 00:00:00 | |
| DO3MHA-12 | 2026-08-31 02:08:20 | 47.47416 | 9.05491 | 58° | 71km/h | 4587m | -3.5m/s | -4.9°C | 91.3% | 0hPa | 2.7V | 00:00:00 | 03:34:08 | 00:00:00 | |
| DO3MHA-11 | 2026-08-31 02:08:16 | 47.47373 | 9.05403 | 54° | 69km/h | 4601m | -3.6m/s | -5.0°C | 90.7% | 0hPa | 2.7V | 00:00:00 | 03:34:04 | 00:00:00 | |
| DO3MHA-12 | 2026-08-31 02:08:15 | 47.47363 | 9.05382 | 56° | 71km/h | 4604m | -3.6m/s | -5.0°C | 90.8% | 0hPa | 2.7V | 00:00:00 | 03:34:03 | 00:00:00 | |
| DO3MHA-11 | 2026-08-31 02:08:11 | 47.47325 | 9.05293 | 57° | 71km/h | 4619m | -3.7m/s | -5.1°C | 90.8% | 0hPa | 2.6V | 00:00:00 | 03:33:59 | 00:00:00 | |
| DO3MHA-12 | 2026-08-31 02:08:10 | 47.47314 | 9.05270 | 55° | 69km/h | 4622m | -3.6m/s | -5.1°C | 90.2% | 0hPa | 2.6V | 00:00:00 | 03:33:58 | 00:00:00 | |
| DO3MHA-11 | 2026-08-31 02:08:06 | 47.47273 | 9.05185 | 56° | 71km/h | 4637m | -3.8m/s | -5.2°C | 89.5% | 0hPa | 2.6V | 00:00:00 | 03:33:54 | 00:00:00 | |
| DO3MHA-12 | 2026-08-31 02:08:05 | 47.47263 | 9.05163 | 56° | 71km/h | 4641m | -3.7m/s | -5.2°C | 89.5% | 0hPa | 2.6V | 00:00:00 | 03:33:53 | 00:00:00 | |
| DO3MHA-11 | 2026-08-31 02:08:01 | 47.47221 | 9.05076 | 55° | 71km/h | 4657m | -3.6m/s | -5.3°C | 89.6% | 0hPa | 2.6V | 00:00:00 | 03:33:49 | 00:00:00 | |
| DO3MHA-12 | 2026-08-31 02:08:00 | 47.47211 | 9.05054 | 58° | 73km/h | 4660m | -4.0m/s | -5.3°C | 89.4% | 0hPa | 2.6V | 00:00:00 | 03:33:48 | 00:00:00 | |
| DB0UT-7 | 2026-08-31 02:07:58 | 47.47192 | 9.05009 | 60° | 68km/h | 4668m | -4.3m/s | -5.4°C | 89.9% | 0hPa | 2.7V | 00:00:00 | 00:00:00 | 00:00:00 | |
| DO3MHA-11 | 2026-08-31 02:07:56 | 47.47173 | 9.04962 | 56° | 71km/h | 4677m | -4.2m/s | -5.4°C | 89.9% | 0hPa | 2.7V | 00:00:00 | 03:33:44 | 00:00:00 | |
| DO3MHA-12 | 2026-08-31 02:07:55 | 47.47162 | 9.04940 | 54° | 69km/h | 4681m | -4.2m/s | -5.5°C | 89.6% | 0hPa | 2.7V | 00:00:00 | 03:33:43 | 00:00:00 | |
| DO3MHA-11 | 2026-08-31 02:07:51 | 47.47120 | 9.04858 | 54° | 66km/h | 4698m | -4.7m/s | -5.6°C | 89.4% | 0hPa | 2.7V | 00:00:00 | 03:33:39 | 00:00:00 | |
| DO3MHA-12 | 2026-08-31 02:07:50 | 47.47110 | 9.04838 | 55° | 68km/h | 4702m | -4.1m/s | -5.6°C | 90.0% | 0hPa | 2.7V | 07:25:00 | 03:33:38 | 00:00:00 | |
| DF1GD-15 | 2026-08-31 02:07:47 | 47.47091 | 9.04797 | 59° | 66km/h | 4710m | -4.2m/s | -5.7°C | 88.3% | 0hPa | 2.7V | 00:00:00 | 00:00:00 | 00:00:00 | |
| DO3MHA-12 | 2026-08-31 02:07:43 | 47.47044 | 9.04691 | 55° | 66km/h | 4729m | -3.6m/s | -5.8°C | 89.7% | 0hPa | 2.7V | 00:00:00 | 03:33:31 | 00:00:00 | |
| DO3MHA-11 | 2026-08-31 02:07:41 | 47.47026 | 9.04650 | 58° | 68km/h | 4737m | -3.9m/s | -5.8°C | 88.9% | 0hPa | 2.7V | 07:25:00 | 03:33:29 | 00:00:00 | |
| DO3MHA-12 | 2026-08-31 02:07:37 | 47.46990 | 9.04566 | 57° | 66km/h | 4751m | -3.3m/s | -5.9°C | 89.3% | 0hPa | 2.7V | 00:00:00 | 03:33:25 | 00:00:00 | |
| DO3MHA-11 | 2026-08-31 02:07:36 | 47.46980 | 9.04545 | 57° | 66km/h | 4754m | -3.3m/s | -5.9°C | 89.1% | 0hPa | 2.7V | 00:00:00 | 03:33:24 | 00:00:00 | |
| DO3MHA-11 | 2026-08-31 02:07:31 | 47.46936 | 9.04438 | 60° | 69km/h | 4771m | -3.9m/s | -6.0°C | 89.6% | 0hPa | 2.7V | 00:00:00 | 03:33:19 | 00:00:00 | |
| DB0UT-7 | 2026-08-31 02:07:28 | 47.46908 | 9.04373 | 57° | 69km/h | 4782m | -3.2m/s | -5.7°C | 83.3% | 0hPa | 2.7V | 07:25:00 | 03:33:16 | 00:00:00 | |
| DO3MHA-11 | 2026-08-31 02:07:26 | 47.46890 | 9.04331 | 60° | 69km/h | 4788m | -3.2m/s | -5.8°C | 83.8% | 0hPa | 2.7V | 00:00:00 | 03:33:14 | 00:00:00 | |
| DF1GD-15 | 2026-08-31 02:07:24 | 47.46881 | 9.04309 | 62° | 69km/h | 4792m | -3.5m/s | -5.8°C | 82.0% | 0hPa | 2.7V | 07:26:00 | 00:00:00 | 00:00:00 | |
| DO3MHA-11 | 2026-08-31 02:07:21 | 47.46845 | 9.04218 | 59° | 68km/h | 4807m | -3.6m/s | -5.9°C | 83.9% | 0hPa | 2.7V | 00:00:00 | 03:33:09 | 00:00:00 | |
| DO3MHA-12 | 2026-08-31 02:07:16 | 47.46803 | 9.04108 | 60° | 73km/h | 4825m | -3.4m/s | -5.9°C | 81.9% | 0hPa | 2.7V | 00:00:00 | 03:33:04 | 00:00:00 | |
| DO3MHA-11 | 2026-08-31 02:07:11 | 47.46758 | 9.03997 | 63° | 71km/h | 4842m | -3.5m/s | -6.1°C | 83.2% | 0hPa | 2.7V | 00:00:00 | 03:32:59 | 00:00:00 | |
| DO3MHA-11 | 2026-08-31 02:07:06 | 47.46715 | 9.03882 | 58° | 68km/h | 4859m | -3.5m/s | -6.2°C | 82.6% | 0hPa | 2.7V | 00:00:00 | 03:32:54 | 00:00:00 | |
| DO3MHA-11 | 2026-08-31 02:07:01 | 47.46673 | 9.03773 | 64° | 71km/h | 4876m | -3.3m/s | -6.0°C | 73.5% | 0hPa | 2.6V | 07:26:00 | 03:32:49 | 00:00:00 | |
| DB0UT-7 | 2026-08-31 02:06:58 | 47.46647 | 9.03703 | 58° | 75km/h | 4887m | -3.3m/s | -6.1°C | 74.5% | 0hPa | 2.6V | 00:00:00 | 00:00:00 | 00:00:00 | |
| DO3MHA-11 | 2026-08-31 02:06:56 | 47.46628 | 9.03660 | 58° | 73km/h | 4893m | -3.1m/s | -6.1°C | 73.9% | 0hPa | 2.6V | 00:00:00 | 03:32:44 | 00:00:00 | |
| DF1GD-15 | 2026-08-31 02:06:54 | 47.46618 | 9.03637 | 60° | 71km/h | 4896m | -3.3m/s | -6.2°C | 71.4% | 0hPa | 2.6V | 07:26:00 | 00:00:00 | 00:00:00 | |
| DO3MHA-11 | 2026-08-31 02:06:51 | 47.46580 | 9.03541 | 61° | 71km/h | 4909m | -3.5m/s | -6.3°C | 73.4% | 0hPa | 2.6V | 00:00:00 | 03:32:39 | 00:00:00 | |
| DO3MHA-11 | 2026-08-31 02:06:46 | 47.46542 | 9.03421 | 67° | 75km/h | 4923m | -2.6m/s | -6.4°C | 73.0% | 0hPa | 2.7V | 00:00:00 | 03:32:34 | 00:00:00 | |
| DO3MHA-11 | 2026-08-31 02:06:41 | 47.46500 | 9.03296 | 62° | 75km/h | 4937m | -2.5m/s | -6.6°C | 74.9% | 0hPa | 2.7V | 00:00:00 | 03:32:29 | 00:00:00 | |
| DO3MHA-11 | 2026-08-31 02:06:36 | 47.46457 | 9.03170 | 65° | 77km/h | 4947m | -2.1m/s | -6.7°C | 75.5% | 0hPa | 2.7V | 00:00:00 | 03:32:24 | 00:00:00 | |
| DF1GD-15 | 2026-08-31 02:06:33 | 47.46439 | 9.03118 | 63° | 78km/h | 4951m | -2.1m/s | -6.8°C | 74.3% | 0hPa | 2.6V | 00:00:00 | 00:00:00 | 00:00:00 | |
| DO3MHA-11 | 2026-08-31 02:06:31 | 47.46412 | 9.03043 | 64° | 78km/h | 4957m | -1.8m/s | -6.8°C | 76.1% | 0hPa | 2.6V | 00:00:00 | 03:32:19 | 00:00:00 | |
| DB0UT-7 | 2026-08-31 02:06:28 | 47.46386 | 9.02965 | 64° | 80km/h | 4962m | -1.7m/s | -6.7°C | 72.9% | 0hPa | 2.6V | 00:00:00 | 03:32:16 | 00:00:00 | |
| DO3MHA-11 | 2026-08-31 02:06:26 | 47.46368 | 9.02912 | 63° | 77km/h | 4966m | -2.0m/s | -6.7°C | 72.7% | 0hPa | 2.6V | 00:00:00 | 03:32:14 | 00:00:00 | |
| DO3MHA-11 | 2026-08-31 02:06:21 | 47.46326 | 9.02781 | 65° | 80km/h | 4975m | -1.6m/s | -6.6°C | 68.1% | 0hPa | 2.6V | 07:26:00 | 03:32:09 | 00:00:00 | |
| DO3MHA-11 | 2026-08-31 02:06:16 | 47.46281 | 9.02647 | 66° | 82km/h | 4983m | -1.4m/s | -6.5°C | 62.3% | 0hPa | 2.7V | 00:00:00 | 03:32:04 | 00:00:00 | |
| DF1GD-15 | 2026-08-31 02:06:12 | 47.46255 | 9.02564 | 64° | 84km/h | 4988m | -1.5m/s | -6.6°C | 57.4% | 0hPa | 2.7V | 00:00:00 | 00:00:00 | 00:00:00 | |
| DO3MHA-11 | 2026-08-31 02:06:11 | 47.46236 | 9.02509 | 63° | 80km/h | 4991m | -1.7m/s | -6.5°C | 58.9% | 0hPa | 2.7V | 00:00:00 | 03:31:59 | 00:00:00 | |
| DO3MHA-11 | 2026-08-31 02:06:06 | 47.46193 | 9.02373 | 66° | 82km/h | 4999m | -1.7m/s | -6.6°C | 56.9% | 0hPa | 2.7V | 00:00:00 | 03:31:54 | 00:00:00 | |
| DB0UT-7 | 2026-08-31 02:05:58 | 47.46123 | 9.02151 | 67° | 78km/h | 5012m | -1.6m/s | -6.6°C | 54.7% | 0hPa | 2.7V | 00:00:00 | 00:00:00 | 00:00:00 | |
| DF1GD-15 | 2026-08-31 02:05:51 | 47.46070 | 9.01989 | 66° | 80km/h | 5021m | -2.1m/s | -6.8°C | 54.9% | 0hPa | 2.7V | 00:00:00 | 00:00:00 | 00:00:00 | |
| DO3MHA-11 | 2026-08-31 02:05:48 | 47.46034 | 9.01880 | 63° | 77km/h | 5029m | -2.0m/s | -6.7°C | 53.6% | 0hPa | 2.7V | 00:00:00 | 03:31:36 | 00:00:00 | |
| DO3MHA-11 | 2026-08-31 02:05:35 | 47.45920 | 9.01545 | 65° | 77km/h | 5052m | -2.1m/s | -6.9°C | 53.5% | 0hPa | 2.7V | 00:00:00 | 03:31:23 | 00:00:00 | |
| DF1GD-15 | 2026-08-31 02:05:31 | 47.45892 | 9.01467 | 62° | 78km/h | 5058m | -2.1m/s | -6.9°C | 54.1% | 0hPa | 2.6V | 07:28:00 | 00:00:00 | 00:00:00 | |
| DB0UT-7 | 2026-08-31 02:05:28 | 47.45856 | 9.01367 | 64° | 75km/h | 5067m | -2.3m/s | -6.9°C | 58.3% | 0hPa | 2.6V | 00:00:00 | 03:31:16 | 00:00:00 | |
| DO3MHA-12 | 2026-08-31 02:05:27 | 47.45848 | 9.01342 | 64° | 77km/h | 5069m | -2.0m/s | -7.0°C | 58.3% | 0hPa | 2.6V | 00:00:00 | 03:31:15 | 00:00:00 | |
| DO3MHA-11 | 2026-08-31 02:05:25 | 47.45829 | 9.01290 | 61° | 77km/h | 5073m | -2.0m/s | -7.0°C | 59.5% | 0hPa | 2.6V | 00:00:00 | 03:31:13 | 00:00:00 | |
| DO3MHA-12 | 2026-08-31 02:05:17 | 47.45756 | 9.01089 | 60° | 73km/h | 5089m | -2.2m/s | -6.9°C | 59.8% | 0hPa | 2.6V | 07:27:00 | 03:31:05 | 00:00:00 | |
| DO3MHA-11 | 2026-08-31 02:05:15 | 47.45737 | 9.01042 | 61° | 75km/h | 5094m | -2.2m/s | -6.9°C | 58.7% | 0hPa | 2.6V | 07:28:00 | 03:31:03 | 00:00:00 | |
| DF1GD-15 | 2026-08-31 02:05:11 | 47.45711 | 9.00970 | 64° | 75km/h | 5100m | -2.4m/s | -7.0°C | 55.4% | 0hPa | 2.6V | 07:28:00 | 00:00:00 | 00:00:00 | |
| DO3MHA-11 | 2026-08-31 02:05:05 | 47.45646 | 9.00798 | 63° | 77km/h | 5114m | -2.0m/s | -7.0°C | 55.7% | 0hPa | 2.6V | 00:00:00 | 03:30:53 | 00:00:00 | |
| DB0UT-7 | 2026-08-31 02:04:58 | 47.45581 | 9.00626 | 63° | 75km/h | 5129m | -2.2m/s | -7.2°C | 56.5% | 0hPa | 2.6V | 00:00:00 | 00:00:00 | 00:00:00 | |
| DO3MHA-11 | 2026-08-31 02:04:55 | 47.45553 | 9.00550 | 61° | 75km/h | 5135m | -2.0m/s | -7.2°C | 56.7% | 0hPa | 2.6V | 00:00:00 | 03:30:43 | 00:00:00 | |
| DF1GD-15 | 2026-08-31 02:04:51 | 47.45525 | 9.00477 | 61° | 73km/h | 5141m | -2.3m/s | -7.3°C | 55.4% | 0hPa | 2.6V | 07:29:00 | 00:00:00 | 00:00:00 | |
| DO3MHA-11 | 2026-08-31 02:04:45 | 47.45459 | 9.00311 | 61° | 75km/h | 5157m | -2.4m/s | -7.4°C | 56.9% | 0hPa | 2.6V | 00:00:00 | 03:30:33 | 00:00:00 | |
| DF1GD-15 | 2026-08-31 02:04:30 | 47.45325 | 8.99974 | 59° | 73km/h | 5188m | -2.3m/s | -7.6°C | 56.2% | 0hPa | 2.6V | 07:29:00 | 00:00:00 | 00:00:00 | |
| DB0UT-7 | 2026-08-31 02:04:28 | 47.45297 | 8.99906 | 61° | 73km/h | 5194m | -2.0m/s | -7.6°C | 57.0% | 0hPa | 2.6V | 00:00:00 | 03:30:16 | 00:00:00 | |
| DO3MHA-11 | 2026-08-31 02:04:23 | 47.45248 | 8.99789 | 57° | 73km/h | 5207m | -2.4m/s | -7.7°C | 60.4% | 0hPa | 2.6V | 00:00:00 | 03:30:11 | 00:00:00 | |
| DO3MHA-11 | 2026-08-31 02:04:13 | 47.45154 | 8.99557 | 62° | 71km/h | 5232m | -2.5m/s | -7.9°C | 50.8% | 0hPa | 2.6V | 00:00:00 | 03:30:01 | 00:00:00 | |
| DF1GD-15 | 2026-08-31 02:04:10 | 47.45135 | 8.99509 | 60° | 75km/h | 5237m | -2.6m/s | -8.0°C | 50.4% | 0hPa | 2.6V | 07:29:00 | 00:00:00 | 00:00:00 | |
| DO3MHA-11 | 2026-08-31 02:04:03 | 47.45061 | 8.99327 | 60° | 71km/h | 5258m | -2.5m/s | -8.2°C | 52.4% | 0hPa | 2.6V | 00:00:00 | 03:29:51 | 00:00:00 | |
| DN1GJH-1 | 2026-08-31 02:04:00 | 47.45042 | 8.99280 | 57° | 71km/h | 5263m | -2.6m/s | -8.3°C | 50.8% | 0hPa | 2.7V | 00:00:00 | 00:00:00 | 00:00:00 | |
| DB0UT-7 | 2026-08-31 02:03:58 | 47.45013 | 8.99215 | 60° | 69km/h | 5271m | -2.6m/s | -8.4°C | 60.1% | 0hPa | 2.7V | 00:00:00 | 00:00:00 | 00:00:00 | |
| DO3MHA-11 | 2026-08-31 02:03:50 | 47.44938 | 8.99033 | 60° | 69km/h | 5293m | -2.8m/s | -8.6°C | 76.7% | 0hPa | 2.7V | 07:29:00 | 03:29:38 | 00:00:00 | |
| DN1GJH-1 | 2026-08-31 02:03:37 | 47.44830 | 8.98762 | 62° | 71km/h | 5327m | -2.7m/s | -8.8°C | 61.2% | 0hPa | 2.7V | 00:00:00 | 00:00:00 | 00:00:00 | |
| DO3MHA-11 | 2026-08-31 02:03:32 | 47.44778 | 8.98628 | 64° | 69km/h | 5344m | -3.1m/s | -8.8°C | 53.6% | 0hPa | 2.7V | 00:00:00 | 03:29:20 | 00:00:00 | |
| DF1GD-15 | 2026-08-31 02:03:30 | 47.44770 | 8.98605 | 63° | 71km/h | 5347m | -3.0m/s | -8.8°C | 46.7% | 0hPa | 2.7V | 07:29:00 | 00:00:00 | 00:00:00 | |
| DB0UT-7 | 2026-08-31 02:03:28 | 47.44742 | 8.98537 | 57° | 66km/h | 5355m | -3.0m/s | -8.9°C | 47.0% | 0hPa | 2.7V | 07:29:00 | 03:29:16 | 00:00:00 | |
| DO3MHA-11 | 2026-08-31 02:03:22 | 47.44691 | 8.98407 | 60° | 68km/h | 5373m | -3.2m/s | -9.0°C | 38.4% | 0hPa | 2.7V | 00:00:00 | 03:29:10 | 00:00:00 | |
| DO3MHA-11 | 2026-08-31 02:03:12 | 47.44606 | 8.98190 | 59° | 66km/h | 5405m | -3.5m/s | -9.1°C | 26.7% | 0hPa | 2.6V | 00:00:00 | 03:29:00 | 00:00:00 | |
| DF1GD-15 | 2026-08-31 02:03:10 | 47.44597 | 8.98169 | 60° | 64km/h | 5408m | -3.2m/s | -9.2°C | 24.9% | 0hPa | 2.6V | 07:30:00 | 00:00:00 | 00:00:00 | |
| DO3MHA-11 | 2026-08-31 02:03:02 | 47.44519 | 8.97981 | 61° | 66km/h | 5437m | -3.0m/s | -9.3°C | 52.7% | 0hPa | 2.6V | 00:00:00 | 03:28:50 | 00:00:00 | |
| DB0UT-7 | 2026-08-31 02:02:58 | 47.44487 | 8.97894 | 61° | 68km/h | 5451m | -3.7m/s | -9.4°C | 54.7% | 0hPa | 2.6V | 00:00:00 | 00:00:00 | 00:00:00 | |
| DO3MHA-11 | 2026-08-31 02:02:52 | 47.44443 | 8.97765 | 64° | 68km/h | 5471m | -3.4m/s | -9.5°C | 71.6% | 0hPa | 2.6V | 00:00:00 | 03:28:40 | 00:00:00 | |
| DF1GD-15 | 2026-08-31 02:02:49 | 47.44427 | 8.97720 | 62° | 68km/h | 5478m | -3.0m/s | -9.6°C | 71.1% | 0hPa | 2.6V | 07:30:00 | 00:00:00 | 00:00:00 | |
| DB0ND-19 | 2026-08-31 02:02:45 | 47.44383 | 8.97586 | 64° | 69km/h | 5496m | -3.4m/s | -9.6°C | 73.0% | -1.0hPa | 2.6V | 00:00:00 | 00:00:00 | 00:00:00 | |
| DO3MHA-11 | 2026-08-31 02:02:32 | 47.44290 | 8.97304 | 64° | 71km/h | 5537m | -3.4m/s | -8.6°C | 27.4% | 0hPa | 2.6V | 00:00:00 | 03:28:20 | 00:00:00 | |
| DB0UT-7 | 2026-08-31 02:02:28 | 47.44262 | 8.97208 | 67° | 69km/h | 5551m | -3.6m/s | -8.6°C | 18.4% | 0hPa | 2.6V | 00:00:00 | 03:28:16 | 00:00:00 | |
| DO3MHA-11 | 2026-08-31 02:02:22 | 47.44215 | 8.97067 | 66° | 69km/h | 5572m | -3.4m/s | -8.5°C | 6.4% | 0hPa | 2.7V | 07:30:00 | 03:28:10 | 00:00:00 | |
| DO3MHA-11 | 2026-08-31 02:02:12 | 47.44142 | 8.96827 | 68° | 69km/h | 5606m | -3.7m/s | -8.5°C | 3.3% | 0hPa | 2.6V | 00:00:00 | 03:28:00 | 00:00:00 | |
| DF1GD-15 | 2026-08-31 02:02:07 | 47.44112 | 8.96734 | 65° | 66km/h | 5620m | -3.7m/s | -8.7°C | 2.9% | 0hPa | 2.6V | 07:31:00 | 00:00:00 | 00:00:00 | |
| DO3MHA-12 | 2026-08-31 02:02:03 | 47.44077 | 8.96616 | 64° | 69km/h | 5637m | -3.3m/s | -8.7°C | 3.2% | 0hPa | 2.6V | 00:00:00 | 03:27:51 | 00:00:00 | |
| DO3MHA-11 | 2026-08-31 02:02:02 | 47.44068 | 8.96592 | 62° | 68km/h | 5640m | -3.1m/s | -8.7°C | 3.2% | 0hPa | 2.6V | 00:00:00 | 03:27:50 | 00:00:00 | |
| DB0UT-7 | 2026-08-31 02:01:58 | 47.44038 | 8.96505 | 67° | 66km/h | 5653m | -3.3m/s | -8.8°C | 3.3% | 0hPa | 2.6V | 00:00:00 | 00:00:00 | 00:00:00 | |
| DO3MHA-11 | 2026-08-31 02:01:52 | 47.43994 | 8.96366 | 62° | 66km/h | 5671m | -3.3m/s | -8.8°C | 4.3% | 0hPa | 2.6V | 00:00:00 | 03:27:40 | 00:00:00 | |
| DF1GD-15 | 2026-08-31 02:01:46 | 47.43959 | 8.96258 | 68° | 68km/h | 5688m | -3.4m/s | -8.9°C | 4.5% | 0hPa | 2.6V | 07:31:00 | 00:00:00 | 00:00:00 | |
| DO3MHA-12 | 2026-08-31 02:01:42 | 47.43921 | 8.96148 | 63° | 64km/h | 5704m | -3.3m/s | -9.0°C | 4.8% | 0hPa | 2.6V | 00:00:00 | 03:27:30 | 00:00:00 | |
| DO3MHA-11 | 2026-08-31 02:01:32 | 47.43852 | 8.95934 | 65° | 66km/h | 5736m | -3.4m/s | -9.3°C | 5.2% | 0hPa | 2.6V | 00:00:00 | 03:27:20 | 00:00:00 | |
| DO3MHA-12 | 2026-08-31 02:01:30 | 47.43837 | 8.95890 | 63° | 64km/h | 5742m | -3.4m/s | -9.3°C | 5.9% | 0hPa | 2.6V | 00:00:00 | 03:27:18 | 00:00:00 | |
| DB0UT-7 | 2026-08-31 02:01:28 | 47.43823 | 8.95848 | 65° | 66km/h | 5749m | -3.1m/s | -9.4°C | 6.3% | 0hPa | 2.6V | 00:00:00 | 03:27:16 | 00:00:00 | |
| DF1GD-15 | 2026-08-31 02:01:26 | 47.43816 | 8.95827 | 68° | 62km/h | 5752m | -3.3m/s | -9.4°C | 6.1% | 0hPa | 2.6V | 07:32:00 | 00:00:00 | 00:00:00 | |
| DO3MHA-11 | 2026-08-31 02:01:22 | 47.43782 | 8.95714 | 63° | 66km/h | 5768m | -3.2m/s | -9.5°C | 7.8% | 0hPa | 2.6V | 00:00:00 | 03:27:10 | 00:00:00 | |
| DO3MHA-11 | 2026-08-31 02:01:12 | 47.43712 | 8.95495 | 68° | 66km/h | 5801m | -3.3m/s | -9.7°C | 8.4% | 0hPa | 2.6V | 00:00:00 | 03:27:00 | 00:00:00 | |
| DO3MHA-12 | 2026-08-31 02:01:10 | 47.43699 | 8.95450 | 67° | 66km/h | 5808m | -3.3m/s | -9.8°C | 8.4% | 0hPa | 2.6V | 00:00:00 | 03:26:58 | 00:00:00 | |
| DF1GD-15 | 2026-08-31 02:01:06 | 47.43677 | 8.95383 | 64° | 64km/h | 5817m | -3.1m/s | -9.9°C | 8.1% | 0hPa | 2.6V | 07:32:00 | 00:00:00 | 00:00:00 | |
| DO3MHA-11 | 2026-08-31 02:01:02 | 47.43644 | 8.95273 | 66° | 68km/h | 5833m | -3.2m/s | -10.0°C | 8.6% | 0hPa | 2.6V | 07:32:00 | 03:26:50 | 00:00:00 | |
| DO3MHA-12 | 2026-08-31 02:01:00 | 47.43630 | 8.95227 | 64° | 66km/h | 5840m | -3.4m/s | -10.1°C | 8.5% | 0hPa | 2.6V | 00:00:00 | 03:26:48 | 00:00:00 | |
| DB0UT-7 | 2026-08-31 02:00:58 | 47.43616 | 8.95184 | 67° | 69km/h | 5846m | -3.1m/s | -10.1°C | 8.6% | 0hPa | 2.6V | 00:00:00 | 00:00:00 | 00:00:00 | |
| DO3MHA-11 | 2026-08-31 02:00:52 | 47.43575 | 8.95045 | 64° | 68km/h | 5867m | -3.1m/s | -10.3°C | 8.7% | 0hPa | 2.6V | 00:00:00 | 03:26:40 | 00:00:00 | |
| DO3MHA-12 | 2026-08-31 02:00:50 | 47.43561 | 8.95001 | 67° | 68km/h | 5873m | -3.4m/s | -10.4°C | 8.8% | 0hPa | 2.5V | 07:32:00 | 03:26:38 | 00:00:00 | |
| DF1GD-15 | 2026-08-31 02:00:45 | 47.43536 | 8.94908 | 68° | 71km/h | 5886m | -3.6m/s | -10.6°C | 8.4% | 0hPa | 2.6V | 07:32:00 | 00:00:00 | 00:00:00 | |
| DO3MHA-11 | 2026-08-31 02:00:42 | 47.43508 | 8.94814 | 68° | 71km/h | 5900m | -3.4m/s | -10.6°C | 8.4% | 0hPa | 2.6V | 00:00:00 | 03:26:30 | 00:00:00 | |
| DO3MHA-12 | 2026-08-31 02:00:40 | 47.43495 | 8.94766 | 69° | 71km/h | 5907m | -3.4m/s | -10.6°C | 7.9% | 0hPa | 2.6V | 00:00:00 | 03:26:28 | 00:00:00 | |
| DO3MHA-11 | 2026-08-31 02:00:32 | 47.43438 | 8.94569 | 70° | 73km/h | 5934m | -3.2m/s | -10.8°C | 7.9% | 0hPa | 2.6V | 00:00:00 | 03:26:20 | 00:00:00 | |
| DO3MHA-12 | 2026-08-31 02:00:30 | 47.43424 | 8.94517 | 67° | 73km/h | 5940m | -3.6m/s | -10.8°C | 8.0% | 0hPa | 2.6V | 00:00:00 | 03:26:18 | 00:00:00 | |
| DB0UT-7 | 2026-08-31 02:00:28 | 47.43409 | 8.94468 | 66° | 73km/h | 5947m | -3.4m/s | -10.8°C | 8.0% | 0hPa | 2.6V | 00:00:00 | 03:26:16 | 00:00:00 | |
| DF1GD-15 | 2026-08-31 02:00:25 | 47.43395 | 8.94419 | 69° | 69km/h | 5954m | -3.3m/s | -10.9°C | 7.2% | 0hPa | 2.6V | 07:33:00 | 00:00:00 | 00:00:00 | |
| DO3MHA-11 | 2026-08-31 02:00:22 | 47.43368 | 8.94333 | 67° | 73km/h | 5967m | -3.2m/s | -10.7°C | 20.1% | 0hPa | 2.6V | 00:00:00 | 03:26:10 | 00:00:00 | |
| DO3MHA-12 | 2026-08-31 02:00:20 | 47.43352 | 8.94266 | 66° | 73km/h | 5974m | -3.3m/s | -10.7°C | 24.1% | 0hPa | 2.5V | 00:00:00 | 03:26:08 | 00:00:00 | |
| DN1GJH-1 | 2026-08-31 02:00:17 | 47.43338 | 8.94218 | 69° | 71km/h | 5980m | -3.5m/s | -10.8°C | 29.3% | 0hPa | 2.6V | 07:33:00 | 00:00:00 | 00:00:00 | |
| DO3MHA-11 | 2026-08-31 02:00:12 | 47.43294 | 8.94065 | 66° | 73km/h | 6000m | -3.5m/s | -11.0°C | 30.3% | 0hPa | 2.6V | 00:00:00 | 03:26:00 | 00:00:00 | |
| DO3MHA-12 | 2026-08-31 02:00:10 | 47.43280 | 8.94016 | 70° | 73km/h | 6007m | -3.3m/s | -11.0°C | 31.9% | 0hPa | 2.6V | 00:00:00 | 03:25:58 | 00:00:00 | |
| DF1GD-15 | 2026-08-31 02:00:05 | 47.43254 | 8.93914 | 67° | 75km/h | 6021m | -3.4m/s | -11.2°C | 29.8% | 0hPa | 2.6V | 07:33:00 | 00:00:00 | 00:00:00 | |
| DO3MHA-12 | 2026-08-31 02:00:00 | 47.43211 | 8.93763 | 67° | 73km/h | 6041m | -3.5m/s | -11.4°C | 32.8% | 0hPa | 2.6V | 00:00:00 | 03:25:48 | 00:00:00 | |
| DB0UT-7 | 2026-08-31 01:59:58 | 47.43195 | 8.93712 | 66° | 73km/h | 6048m | -3.7m/s | -11.4°C | 33.1% | 0hPa | 2.6V | 00:00:00 | 00:00:00 | 00:00:00 | |
| DN1GJH-1 | 2026-08-31 01:59:57 | 47.43195 | 8.93712 | 66° | 73km/h | 6048m | -3.7m/s | -11.5°C | 32.0% | 0hPa | 2.6V | 07:33:00 | 00:00:00 | 00:00:00 | |
| DO3MHA-11 | 2026-08-31 01:59:52 | 47.43153 | 8.93562 | 67° | 73km/h | 6069m | -3.7m/s | -11.6°C | 33.8% | 0hPa | 2.6V | 00:00:00 | 03:25:40 | 00:00:00 | |
| DO3MHA-12 | 2026-08-31 01:59:50 | 47.43138 | 8.93511 | 67° | 73km/h | 6076m | -3.7m/s | -11.7°C | 36.9% | 0hPa | 2.6V | 00:00:00 | 03:25:38 | 00:00:00 | |
| DF1GD-15 | 2026-08-31 01:59:45 | 47.43111 | 8.93409 | 70° | 75km/h | 6091m | -3.8m/s | -11.9°C | 37.4% | 0hPa | 2.6V | 07:34:00 | 00:00:00 | 00:00:00 | |
| DO3MHA-11 | 2026-08-31 01:59:42 | 47.43084 | 8.93310 | 70° | 73km/h | 6105m | -3.2m/s | -12.0°C | 40.9% | 0hPa | 2.6V | 07:33:00 | 03:25:30 | 00:00:00 | |
| DO3MHA-12 | 2026-08-31 01:59:40 | 47.43071 | 8.93260 | 68° | 73km/h | 6112m | -3.5m/s | -12.1°C | 42.7% | 0hPa | 2.6V | 00:00:00 | 03:25:28 | 00:00:00 | |
| DN1GJH-1 | 2026-08-31 01:59:36 | 47.43048 | 8.93185 | 67° | 71km/h | 6122m | -3.8m/s | -12.3°C | 43.4% | 0hPa | 2.6V | 07:34:00 | 00:00:00 | 00:00:00 | |
| DO3MHA-11 | 2026-08-31 01:59:32 | 47.43014 | 8.93059 | 67° | 73km/h | 6140m | -3.6m/s | -12.4°C | 46.3% | 0hPa | 2.6V | 00:00:00 | 03:25:20 | 00:00:00 | |
| DO3MHA-12 | 2026-08-31 01:59:30 | 47.42999 | 8.93010 | 67° | 71km/h | 6147m | -3.3m/s | -12.5°C | 48.1% | 0hPa | 2.6V | 07:33:00 | 03:25:18 | 00:00:00 | |
| DB0UT-7 | 2026-08-31 01:59:28 | 47.42986 | 8.92961 | 70° | 71km/h | 6154m | -3.6m/s | -12.5°C | 46.1% | 0hPa | 2.6V | 07:33:00 | 03:25:16 | 00:00:00 | |
| DF1GD-15 | 2026-08-31 01:59:24 | 47.42968 | 8.92884 | 70° | 75km/h | 6165m | -4.0m/s | -12.7°C | 47.3% | 0hPa | 2.6V | 07:34:00 | 00:00:00 | 00:00:00 | |
| DO3MHA-11 | 2026-08-31 01:59:22 | 47.42945 | 8.92809 | 66° | 71km/h | 6176m | -3.7m/s | -12.7°C | 47.4% | 0hPa | 2.6V | 00:00:00 | 03:25:10 | 00:00:00 | |
| DO3MHA-12 | 2026-08-31 01:59:20 | 47.42932 | 8.92761 | 70° | 71km/h | 6183m | -3.9m/s | -12.8°C | 49.6% | 0hPa | 2.5V | 00:00:00 | 03:25:08 | 00:00:00 | |
| DN1GJH-1 | 2026-08-31 01:59:13 | 47.42891 | 8.92610 | 67° | 69km/h | 6205m | -3.8m/s | -13.1°C | 51.3% | 0hPa | 2.5V | 07:34:00 | 00:00:00 | 00:00:00 | |
| DO3MHA-11 | 2026-08-31 01:59:12 | 47.42878 | 8.92563 | 70° | 71km/h | 6213m | -3.6m/s | -13.1°C | 52.9% | 0hPa | 2.5V | 00:00:00 | 03:25:00 | 00:00:00 | |
| DO3MHA-12 | 2026-08-31 01:59:10 | 47.42865 | 8.92514 | 70° | 71km/h | 6220m | -3.8m/s | -13.2°C | 54.0% | 0hPa | 2.5V | 00:00:00 | 03:24:58 | 00:00:00 | |
| DF1GD-15 | 2026-08-31 01:59:04 | 47.42832 | 8.92392 | 71° | 68km/h | 6239m | -4.1m/s | -13.4°C | 52.8% | 0hPa | 2.5V | 07:34:00 | 00:00:00 | 00:00:00 | |
| DO3MHA-11 | 2026-08-31 01:59:02 | 47.42814 | 8.92316 | 70° | 71km/h | 6250m | -3.9m/s | -13.5°C | 55.2% | 0hPa | 2.5V | 00:00:00 | 03:24:50 | 00:00:00 | |
| DO3MHA-12 | 2026-08-31 01:59:00 | 47.42799 | 8.92264 | 66° | 71km/h | 6257m | -3.8m/s | -13.6°C | 55.3% | 0hPa | 2.5V | 00:00:00 | 03:24:48 | 00:00:00 | |
| DB0UT-7 | 2026-08-31 01:58:58 | 47.42785 | 8.92216 | 67° | 71km/h | 6265m | -4.0m/s | -13.6°C | 55.9% | 0hPa | 2.5V | 00:00:00 | 00:00:00 | 00:00:00 | |
| DN1GJH-1 | 2026-08-31 01:58:53 | 47.42761 | 8.92118 | 72° | 73km/h | 6280m | -3.9m/s | -13.8°C | 55.0% | 0hPa | 2.5V | 00:00:00 | 00:00:00 | 00:00:00 | |
| DO3MHA-11 | 2026-08-31 01:58:52 | 47.42748 | 8.92067 | 68° | 71km/h | 6288m | -3.8m/s | -13.9°C | 57.6% | 0hPa | 2.5V | 00:00:00 | 03:24:40 | 00:00:00 | |
| DO3MHA-12 | 2026-08-31 01:58:50 | 47.42734 | 8.92019 | 68° | 71km/h | 6295m | -3.9m/s | -13.9°C | 58.1% | 0hPa | 2.5V | 00:00:00 | 03:24:38 | 00:00:00 | |
| DF1GD-15 | 2026-08-31 01:58:44 | 47.42702 | 8.91894 | 68° | 73km/h | 6315m | -4.2m/s | -14.2°C | 56.7% | 0hPa | 2.6V | 07:35:00 | 00:00:00 | 00:00:00 | |
| DO3MHA-11 | 2026-08-31 01:58:42 | 47.42681 | 8.91821 | 69° | 71km/h | 6326m | -3.9m/s | -14.2°C | 59.1% | 0hPa | 2.6V | 00:00:00 | 03:24:30 | 00:00:00 | |
| DO3MHA-12 | 2026-08-31 01:58:40 | 47.42669 | 8.91772 | 71° | 71km/h | 6334m | -4.0m/s | -14.3°C | 59.0% | 0hPa | 2.6V | 00:00:00 | 03:24:28 | 00:00:00 | |
| DB0ND-19 | 2026-08-31 01:58:37 | 47.42642 | 8.91672 | 67° | 69km/h | 6349m | -3.9m/s | 0°C | -1.0% | -1.0hPa | 2.6V | 00:00:00 | 00:00:00 | 00:00:00 | |
| DO3MHA-11 | 2026-08-31 01:58:32 | 47.42617 | 8.91572 | 70° | 71km/h | 6365m | -3.8m/s | -14.6°C | 59.8% | 0hPa | 2.6V | 00:00:00 | 03:24:20 | 00:00:00 | |
| DO3MHA-12 | 2026-08-31 01:58:30 | 47.42603 | 8.91522 | 68° | 71km/h | 6373m | -3.5m/s | -14.7°C | 60.6% | 0hPa | 2.6V | 00:00:00 | 03:24:18 | 00:00:00 | |
| DB0UT-7 | 2026-08-31 01:58:28 | 47.42590 | 8.91473 | 70° | 71km/h | 6380m | -3.8m/s | -14.8°C | 60.9% | 0hPa | 2.6V | 00:00:00 | 03:24:16 | 00:00:00 | |
| DF1GD-15 | 2026-08-31 01:58:23 | 47.42564 | 8.91372 | 68° | 73km/h | 6395m | -3.7m/s | -14.9°C | 59.4% | 0hPa | 2.6V | 07:35:00 | 00:00:00 | 00:00:00 | |
| DO3MHA-11 | 2026-08-31 01:58:22 | 47.42550 | 8.91323 | 68° | 71km/h | 6402m | -3.7m/s | -15.0°C | 62.1% | 0hPa | 2.6V | 07:34:00 | 03:24:10 | 00:00:00 | |
| DO3MHA-12 | 2026-08-31 01:58:20 | 47.42537 | 8.91275 | 71° | 71km/h | 6409m | -3.4m/s | -15.0°C | 62.5% | 0hPa | 2.5V | 00:00:00 | 03:24:08 | 00:00:00 | |
| DO3MHA-11 | 2026-08-31 01:58:12 | 47.42482 | 8.91076 | 69° | 71km/h | 6437m | -3.4m/s | -15.3°C | 62.8% | 0hPa | 2.6V | 00:00:00 | 03:24:00 | 00:00:00 | |
| DO3MHA-12 | 2026-08-31 01:58:10 | 47.42469 | 8.91025 | 69° | 71km/h | 6445m | -3.6m/s | -15.4°C | 63.1% | 0hPa | 2.6V | 07:35:00 | 03:23:58 | 00:00:00 | |
| DN1GJH-1 | 2026-08-31 01:58:07 | 47.42454 | 8.90975 | 67° | 73km/h | 6452m | -3.6m/s | -15.5°C | 61.1% | 0hPa | 2.6V | 07:35:00 | 00:00:00 | 00:00:00 | |
| DF1GD-15 | 2026-08-31 01:58:03 | 47.42429 | 8.90878 | 73° | 71km/h | 6466m | -3.9m/s | -15.6°C | 62.7% | 0hPa | 2.6V | 07:35:00 | 00:00:00 | 00:00:00 | |
| DO3MHA-11 | 2026-08-31 01:58:02 | 47.42416 | 8.90827 | 69° | 71km/h | 6474m | -3.7m/s | -15.7°C | 65.5% | 0hPa | 2.6V | 00:00:00 | 03:23:50 | 00:00:00 | |
| DO3MHA-12 | 2026-08-31 01:58:00 | 47.42401 | 8.90777 | 66° | 71km/h | 6481m | -3.7m/s | -15.7°C | 65.7% | 0hPa | 2.6V | 00:00:00 | 03:23:48 | 00:00:00 | |
| DB0UT-7 | 2026-08-31 01:57:58 | 47.42387 | 8.90730 | 68° | 71km/h | 6488m | -3.6m/s | -15.8°C | 66.1% | 0hPa | 2.6V | 00:00:00 | 00:00:00 | 00:00:00 | |
| DO3MHA-11 | 2026-08-31 01:57:52 | 47.42347 | 8.90582 | 69° | 71km/h | 6510m | -3.4m/s | -16.0°C | 67.7% | 0hPa | 2.6V | 00:00:00 | 03:23:40 | 00:00:00 | |
| DO3MHA-12 | 2026-08-31 01:57:50 | 47.42335 | 8.90533 | 71° | 71km/h | 6517m | -3.4m/s | -16.1°C | 68.3% | 0hPa | 2.6V | 00:00:00 | 03:23:38 | 00:00:00 | |
| DN1GJH-1 | 2026-08-31 01:57:46 | 47.42316 | 8.90457 | 68° | 73km/h | 6527m | -3.4m/s | -16.2°C | 66.8% | 0hPa | 2.6V | 07:35:00 | 00:00:00 | 00:00:00 | |
| DO3MHA-11 | 2026-08-31 01:57:42 | 47.42282 | 8.90336 | 71° | 71km/h | 6545m | -3.6m/s | -16.4°C | 70.1% | 0hPa | 2.6V | 00:00:00 | 03:23:30 | 00:00:00 | |
| DO3MHA-12 | 2026-08-31 01:57:40 | 47.42269 | 8.90286 | 69° | 71km/h | 6552m | -3.4m/s | -16.4°C | 70.4% | 0hPa | 2.6V | 00:00:00 | 03:23:28 | 00:00:00 | |
| DO3MHA-12 | 2026-08-31 01:57:30 | 47.42201 | 8.90039 | 68° | 69km/h | 6586m | -3.2m/s | -16.8°C | 71.8% | 0hPa | 2.6V | 00:00:00 | 03:23:18 | 00:00:00 | |
| DB0UT-7 | 2026-08-31 01:57:28 | 47.42188 | 8.89990 | 71° | 69km/h | 6593m | -3.2m/s | -16.8°C | 72.7% | 0hPa | 2.6V | 00:00:00 | 03:23:16 | 00:00:00 | |
| DN1GJH-1 | 2026-08-31 01:57:26 | 47.42182 | 8.89965 | 71° | 71km/h | 6596m | -3.5m/s | -16.9°C | 70.2% | 0hPa | 2.6V | 07:35:00 | 00:00:00 | 00:00:00 | |
| DO3MHA-11 | 2026-08-31 01:57:22 | 47.42148 | 8.89845 | 69° | 69km/h | 6612m | -3.5m/s | -17.0°C | 73.7% | 0hPa | 2.6V | 00:00:00 | 03:23:10 | 00:00:00 | |
| DF1GD-15 | 2026-08-31 01:57:21 | 47.42148 | 8.89845 | 70° | 69km/h | 6612m | -3.5m/s | -17.1°C | 71.1% | 0hPa | 2.5V | 07:35:00 | 00:00:00 | 00:00:00 | |
| DO3MHA-12 | 2026-08-31 01:57:20 | 47.42135 | 8.89796 | 67° | 69km/h | 6619m | -3.3m/s | -17.1°C | 73.8% | 0hPa | 2.5V | 00:00:00 | 03:23:08 | 00:00:00 | |
| DO3MHA-11 | 2026-08-31 01:57:12 | 47.42083 | 8.89605 | 67° | 69km/h | 6647m | -3.3m/s | -17.4°C | 76.4% | 0hPa | 2.5V | 00:00:00 | 03:23:00 | 00:00:00 | |
| DO3MHA-12 | 2026-08-31 01:57:10 | 47.42069 | 8.89559 | 68° | 69km/h | 6654m | -3.5m/s | -17.4°C | 76.7% | 0hPa | 2.5V | 00:00:00 | 03:22:58 | 00:00:00 | |
| DN1GJH-1 | 2026-08-31 01:57:06 | 47.42051 | 8.89487 | 68° | 71km/h | 6664m | -3.6m/s | -17.6°C | 74.6% | 0hPa | 2.5V | 07:36:00 | 00:00:00 | 00:00:00 | |
| DK5PH-5 | 2026-08-31 01:57:04 | 47.42028 | 8.89414 | 66° | 73km/h | 6675m | -3.7m/s | -17.6°C | 77.6% | 0hPa | 2.5V | 00:00:00 | 03:22:52 | 00:00:00 | |
| DB0ND-19 | 2026-08-31 01:57:03 | 47.42021 | 8.89392 | 67° | 66km/h | 6679m | -3.2m/s | 0°C | -1.0% | -1.0hPa | 2.5V | 00:00:00 | 00:00:00 | 00:00:00 | |
| DO3MHA-11 | 2026-08-31 01:57:02 | 47.42015 | 8.89368 | 70° | 69km/h | 6682m | -3.5m/s | -17.7°C | 77.2% | 0hPa | 2.5V | 07:36:00 | 03:22:50 | 00:00:00 | |
| DO3MHA-12 | 2026-08-31 01:57:00 | 47.42003 | 8.89320 | 71° | 71km/h | 6689m | -3.6m/s | -17.7°C | 77.5% | 0hPa | 2.5V | 00:00:00 | 03:22:48 | 00:00:00 | |
| DB0UT-7 | 2026-08-31 01:56:58 | 47.41990 | 8.89271 | 68° | 73km/h | 6696m | -3.2m/s | -17.8°C | 78.6% | 0hPa | 2.5V | 00:00:00 | 00:00:00 | 00:00:00 | |
| DO3MHA-11 | 2026-08-31 01:56:52 | 47.41949 | 8.89125 | 66° | 73km/h | 6716m | -3.6m/s | -18.0°C | 78.9% | 0hPa | 2.5V | 00:00:00 | 03:22:40 | 00:00:00 | |
| DO3MHA-12 | 2026-08-31 01:56:50 | 47.41934 | 8.89075 | 67° | 73km/h | 6723m | -3.2m/s | -18.0°C | 81.3% | 0hPa | 2.6V | 07:36:00 | 03:22:38 | 00:00:00 | |
| DN1GJH-1 | 2026-08-31 01:56:45 | 47.41907 | 8.88973 | 69° | 73km/h | 6735m | -3.5m/s | -18.1°C | 76.8% | 0hPa | 2.6V | 07:36:00 | 00:00:00 | 00:00:00 | |
| DO3MHA-11 | 2026-08-31 01:56:42 | 47.41880 | 8.88874 | 71° | 73km/h | 6749m | -3.6m/s | -18.2°C | 79.1% | 0hPa | 2.6V | 00:00:00 | 03:22:30 | 00:00:00 | |
| DO3MHA-12 | 2026-08-31 01:56:40 | 47.41867 | 8.88823 | 68° | 73km/h | 6756m | -3.3m/s | -18.2°C | 76.0% | 0hPa | 2.6V | 00:00:00 | 03:22:28 | 00:00:00 | |
| DO3MHA-11 | 2026-08-31 01:56:32 | 47.41811 | 8.88620 | 68° | 73km/h | 6783m | -3.3m/s | -18.0°C | 60.7% | 0hPa | 2.6V | 00:00:00 | 03:22:20 | 00:00:00 | |
| DO3MHA-12 | 2026-08-31 01:56:30 | 47.41796 | 8.88569 | 68° | 73km/h | 6789m | -3.2m/s | -18.1°C | 60.9% | 0hPa | 2.6V | 00:00:00 | 03:22:18 | 00:00:00 | |
| DB0UT-7 | 2026-08-31 01:56:28 | 47.41783 | 8.88519 | 71° | 73km/h | 6796m | -3.2m/s | -18.0°C | 54.9% | 0hPa | 2.6V | 00:00:00 | 03:22:16 | 00:00:00 | |
| DO3MHA-11 | 2026-08-31 01:56:22 | 47.41741 | 8.88366 | 69° | 73km/h | 6815m | -3.4m/s | -18.1°C | 52.5% | 0hPa | 2.6V | 00:00:00 | 03:22:10 | 00:00:00 | |
| DO3MHA-12 | 2026-08-31 01:56:20 | 47.41728 | 8.88314 | 70° | 73km/h | 6822m | -3.3m/s | 0°C | 0% | 0hPa | 2.5V | 00:00:00 | 03:22:08 | 00:00:00 | |
| DN1GJH-1 | 2026-08-31 01:56:19 | 47.41728 | 8.88314 | 71° | 75km/h | 6822m | -3.4m/s | -18.2°C | 50.1% | 0hPa | 2.6V | 07:37:00 | 00:00:00 | 00:00:00 | |
| DH7VM-15 | 2026-08-31 01:56:14 | 47.41693 | 8.88186 | 71° | 73km/h | 6838m | -3.3m/s | -18.3°C | 49.6% | 0hPa | 2.6V | 00:00:00 | 00:00:00 | 00:00:00 | |
| DO3MHA-11 | 2026-08-31 01:56:12 | 47.41673 | 8.88110 | 67° | 73km/h | 6848m | -3.6m/s | -18.3°C | 50.9% | 0hPa | 2.6V | 00:00:00 | 03:22:00 | 00:00:00 | |
| DO3MHA-12 | 2026-08-31 01:56:10 | 47.41658 | 8.88060 | 67° | 73km/h | 6855m | -3.3m/s | -18.4°C | 51.2% | 0hPa | 2.6V | 00:00:00 | 03:21:58 | 00:00:00 | |
| DO3MHA-11 | 2026-08-31 01:56:02 | 47.41601 | 8.87858 | 69° | 73km/h | 6882m | -3.2m/s | -18.5°C | 47.8% | 0hPa | 2.6V | 00:00:00 | 03:21:50 | 00:00:00 | |
| DO3MHA-12 | 2026-08-31 01:56:00 | 47.41588 | 8.87808 | 70° | 73km/h | 6888m | -3.3m/s | -18.6°C | 46.6% | 0hPa | 2.6V | 00:00:00 | 03:21:48 | 00:00:00 | |
| DN1GJH-1 | 2026-08-31 01:55:59 | 47.41588 | 8.87808 | 71° | 73km/h | 6888m | -3.3m/s | -18.6°C | 44.5% | 0hPa | 2.6V | 07:37:00 | 00:00:00 | 00:00:00 | |
| DB0UT-7 | 2026-08-31 01:55:58 | 47.41575 | 8.87756 | 69° | 73km/h | 6895m | -3.3m/s | -18.6°C | 46.5% | 0hPa | 2.6V | 00:00:00 | 00:00:00 | 00:00:00 | |
| DH7VM-15 | 2026-08-31 01:55:54 | 47.41555 | 8.87681 | 71° | 71km/h | 6905m | -3.2m/s | -18.7°C | 44.7% | 0hPa | 2.6V | 00:00:00 | 00:00:00 | 00:00:00 | |
| DO3MHA-11 | 2026-08-31 01:55:52 | 47.41535 | 8.87603 | 67° | 73km/h | 6915m | -3.6m/s | -18.7°C | 46.5% | 0hPa | 2.6V | 00:00:00 | 03:21:40 | 00:00:00 | |
| DO3MHA-12 | 2026-08-31 01:55:50 | 47.41520 | 8.87554 | 68° | 71km/h | 6922m | -3.5m/s | -18.8°C | 48.4% | 0hPa | 2.6V | 00:00:00 | 03:21:38 | 00:00:00 | |
| DK5PH-5 | 2026-08-31 01:55:49 | 47.41514 | 8.87530 | 69° | 73km/h | 6925m | -3.3m/s | -18.8°C | 49.9% | 0hPa | 2.5V | 00:00:00 | 03:21:37 | 00:00:00 | |
| DO3MHA-11 | 2026-08-31 01:55:42 | 47.41466 | 8.87354 | 69° | 73km/h | 6948m | -3.5m/s | -19.0°C | 49.2% | 0hPa | 2.5V | 07:37:00 | 03:21:30 | 00:00:00 | |
| IW2NTF | 2026-08-31 01:55:41 | 47.41423 | 8.87203 | 67° | 71km/h | 6969m | -3.4m/s | -19.1°C | 45.7% | 0hPa | 2.5V | 07:37:39 | 03:21:24 | 00:00:00 | |
| DO3MHA-12 | 2026-08-31 01:55:40 | 47.41452 | 8.87303 | 68° | 73km/h | 6955m | -3.6m/s | -19.0°C | 46.3% | 0hPa | 2.6V | 00:00:00 | 03:21:28 | 00:00:00 | |
| DN1GJH-1 | 2026-08-31 01:55:38 | 47.41445 | 8.87277 | 67° | 75km/h | 6959m | -3.8m/s | -19.0°C | 43.7% | 0hPa | 2.6V | 07:37:00 | 00:00:00 | 00:00:00 | |
| DF1GD-15 | 2026-08-31 01:55:37 | 47.41437 | 8.87252 | 66° | 73km/h | 6962m | -3.4m/s | -19.1°C | 43.4% | 0hPa | 2.6V | 07:38:00 | 00:00:00 | 00:00:00 | |
| DO3MHA-11 | 2026-08-31 01:55:32 | 47.41396 | 8.87100 | 69° | 73km/h | 6983m | -3.5m/s | -19.2°C | 45.4% | 0hPa | 2.6V | 00:00:00 | 03:21:20 | 00:00:00 | |
| IW2NTF | 2026-08-31 01:55:31 | 47.41357 | 8.86944 | 67° | 75km/h | 7003m | -3.6m/s | -19.4°C | 45.9% | 0hPa | 2.6V | 07:37:49 | 03:21:14 | 00:00:00 | |
| DO3MHA-12 | 2026-08-31 01:55:30 | 47.41383 | 8.87049 | 71° | 75km/h | 6989m | -3.4m/s | -19.3°C | 45.2% | 0hPa | 2.5V | 07:37:00 | 03:21:18 | 00:00:00 | |
| DB0UT-7 | 2026-08-31 01:55:28 | 47.41371 | 8.86997 | 72° | 77km/h | 6996m | -3.5m/s | -19.3°C | 44.8% | 0hPa | 2.5V | 07:37:00 | 03:21:16 | 00:00:00 | |
| DO3MHA-11 | 2026-08-31 01:55:22 | 47.41330 | 8.86843 | 70° | 77km/h | 7017m | -2.9m/s | -19.4°C | 47.6% | 0hPa | 2.5V | 00:00:00 | 03:21:10 | 00:00:00 | |
| DO3MHA-12 | 2026-08-31 01:55:20 | 47.41317 | 8.86790 | 70° | 77km/h | 7024m | -3.3m/s | -19.4°C | 48.4% | 0hPa | 2.6V | 00:00:00 | 03:21:08 | 00:00:00 | |
| DK5PH-5 | 2026-08-31 01:55:19 | 47.41310 | 8.86764 | 69° | 80km/h | 7027m | -3.5m/s | -19.4°C | 48.5% | 0hPa | 2.5V | 00:00:00 | 03:21:07 | 00:00:00 | |
| DN1GJH-1 | 2026-08-31 01:55:18 | 47.41310 | 8.86764 | 70° | 75km/h | 7027m | -3.5m/s | -19.4°C | 46.4% | 0hPa | 2.5V | 07:38:00 | 00:00:00 | 00:00:00 | |
| DF1GD-15 | 2026-08-31 01:55:17 | 47.41303 | 8.86738 | 71° | 75km/h | 7030m | -3.2m/s | -19.5°C | 46.5% | 0hPa | 2.5V | 07:38:00 | 00:00:00 | 00:00:00 | |
| DO3MHA-11 | 2026-08-31 01:55:12 | 47.41263 | 8.86577 | 68° | 78km/h | 7051m | -3.3m/s | -19.6°C | 49.4% | 0hPa | 2.5V | 00:00:00 | 03:21:00 | 00:00:00 | |
| DO3MHA-12 | 2026-08-31 01:55:10 | 47.41249 | 8.86525 | 71° | 80km/h | 7058m | -4.1m/s | -19.7°C | 49.7% | 0hPa | 2.5V | 00:00:00 | 03:20:58 | 00:00:00 | |
| DO3MHA-11 | 2026-08-31 01:55:02 | 47.41192 | 8.86301 | 70° | 84km/h | 7088m | -3.5m/s | -19.9°C | 50.2% | 0hPa | 2.5V | 00:00:00 | 03:20:50 | 00:00:00 | |
| DO3MHA-12 | 2026-08-31 01:55:00 | 47.41176 | 8.86243 | 69° | 82km/h | 7095m | -4.1m/s | -19.9°C | 50.1% | 0hPa | 2.5V | 00:00:00 | 03:20:48 | 00:00:00 | |
| DB0UT-7 | 2026-08-31 01:54:58 | 47.41160 | 8.86186 | 69° | 86km/h | 7103m | -3.7m/s | -20.0°C | 50.4% | 0hPa | 2.5V | 00:00:00 | 00:00:00 | 00:00:00 | |
| DN1GJH-1 | 2026-08-31 01:54:57 | 47.41160 | 8.86186 | 69° | 80km/h | 7103m | -3.7m/s | -20.0°C | 48.2% | 0hPa | 2.5V | 07:38:00 | 00:00:00 | 00:00:00 | |
| DF1GD-15 | 2026-08-31 01:54:56 | 47.41153 | 8.86158 | 71° | 80km/h | 7107m | -3.6m/s | -20.1°C | 48.3% | 0hPa | 2.5V | 07:38:00 | 00:00:00 | 00:00:00 | |
| DO3MHA-11 | 2026-08-31 01:54:52 | 47.41118 | 8.86012 | 70° | 86km/h | 7126m | -3.7m/s | -20.0°C | 50.4% | 0hPa | 2.5V | 00:00:00 | 03:20:40 | 00:00:00 | |
| DO3MHA-12 | 2026-08-31 01:54:49 | 47.41097 | 8.85924 | 72° | 88km/h | 7135m | -2.8m/s | -20.0°C | 50.0% | 0hPa | 2.6V | 00:00:00 | 03:20:37 | 00:00:00 | |
| DO3MHA-11 | 2026-08-31 01:54:42 | 47.41042 | 8.85710 | 71° | 89km/h | 7159m | -3.6m/s | -20.1°C | 49.5% | 0hPa | 2.5V | 00:00:00 | 03:20:30 | 00:00:00 | |
| DO3MHA-12 | 2026-08-31 01:54:36 | 47.40997 | 8.85525 | 73° | 89km/h | 7181m | -3.6m/s | -20.4°C | 50.5% | 0hPa | 2.5V | 00:00:00 | 03:20:24 | 00:00:00 | |
| DF1GD-15 | 2026-08-31 01:54:35 | 47.40997 | 8.85525 | 73° | 88km/h | 7181m | -3.6m/s | -20.4°C | 48.2% | 0hPa | 2.5V | 07:39:00 | 00:00:00 | 00:00:00 | |
| DO3MHA-11 | 2026-08-31 01:54:32 | 47.40968 | 8.85399 | 70° | 89km/h | 7196m | -3.8m/s | -20.4°C | 49.9% | 0hPa | 2.5V | 00:00:00 | 03:20:20 | 00:00:00 | |
| DB0UT-7 | 2026-08-31 01:54:28 | 47.40940 | 8.85274 | 73° | 91km/h | 7210m | -3.6m/s | -20.4°C | 49.7% | 0hPa | 2.5V | 00:00:00 | 03:20:16 | 00:00:00 | |
| DO3MHA-12 | 2026-08-31 01:54:25 | 47.40917 | 8.85177 | 71° | 89km/h | 7221m | -3.9m/s | -20.5°C | 50.4% | 0hPa | 2.5V | 00:00:00 | 03:20:13 | 00:00:00 | |
| IW2NTF | 2026-08-31 01:54:22 | 47.40860 | 8.84922 | 72° | 86km/h | 7250m | -3.4m/s | -20.9°C | 52.9% | 0hPa | 2.5V | 07:38:58 | 03:20:05 | 00:00:00 | |
| DO3MHA-11 | 2026-08-31 01:54:22 | 47.40896 | 8.85081 | 73° | 89km/h | 7232m | -3.3m/s | -20.6°C | 52.1% | 0hPa | 2.5V | 07:38:00 | 03:20:10 | 00:00:00 | |
| DN1GJH-1 | 2026-08-31 01:54:16 | 47.40860 | 8.84922 | 74° | 86km/h | 7250m | -3.4m/s | -20.9°C | 50.5% | 0hPa | 2.5V | 07:39:00 | 00:00:00 | 00:00:00 | |
| DO3MHA-12 | 2026-08-31 01:54:15 | 47.40848 | 8.84859 | 74° | 91km/h | 7258m | -3.5m/s | -20.9°C | 53.3% | 0hPa | 2.5V | 00:00:00 | 03:20:03 | 00:00:00 | |
| IW2NTF | 2026-08-31 01:54:12 | 47.40792 | 8.84601 | 72° | 95km/h | 7286m | -3.6m/s | -21.2°C | 56.3% | 0hPa | 2.6V | 07:39:08 | 03:19:55 | 00:00:00 | |
| DO3MHA-11 | 2026-08-31 01:54:12 | 47.40827 | 8.84762 | 72° | 91km/h | 7269m | -3.3m/s | -21.0°C | 54.4% | 0hPa | 2.5V | 00:00:00 | 03:20:00 | 00:00:00 | |
| DK5PH-5 | 2026-08-31 01:54:06 | 47.40785 | 8.84568 | 72° | 93km/h | 7290m | -3.6m/s | -21.1°C | 56.7% | 0hPa | 2.5V | 00:00:00 | 03:19:54 | 00:00:00 | |
| DO3MHA-12 | 2026-08-31 01:54:05 | 47.40777 | 8.84535 | 70° | 93km/h | 7294m | -3.6m/s | -21.2°C | 57.0% | 0hPa | 2.5V | 07:39:00 | 03:19:53 | 00:00:00 | |
| IW2NTF | 2026-08-31 01:54:02 | 47.40714 | 8.84273 | 69° | 91km/h | 7322m | -3.9m/s | -21.4°C | 55.1% | 0hPa | 2.5V | 07:39:18 | 03:19:45 | 00:00:00 | |
| DO3MHA-11 | 2026-08-31 01:54:02 | 47.40754 | 8.84438 | 72° | 95km/h | 7305m | -3.7m/s | -21.2°C | 56.4% | 0hPa | 2.5V | 00:00:00 | 03:19:50 | 00:00:00 | |
| DB0UT-7 | 2026-08-31 01:53:58 | 47.40722 | 8.84305 | 69° | 93km/h | 7319m | -3.4m/s | -21.3°C | 55.1% | 0hPa | 2.5V | 00:00:00 | 00:00:00 | 00:00:00 | |
| DO3MHA-12 | 2026-08-31 01:53:55 | 47.40698 | 8.84207 | 73° | 95km/h | 7330m | -3.4m/s | -21.3°C | 53.9% | 0hPa | 2.5V | 00:00:00 | 03:19:43 | 00:00:00 | |
| DF1GD-15 | 2026-08-31 01:53:54 | 47.40698 | 8.84207 | 73° | 95km/h | 7330m | -3.4m/s | -21.4°C | 51.4% | 0hPa | 2.5V | 07:40:00 | 00:00:00 | 00:00:00 | |
| IW2NTF | 2026-08-31 01:53:52 | 47.40639 | 8.83942 | 73° | 95km/h | 7359m | -3.8m/s | -21.5°C | 49.8% | 0hPa | 2.5V | 07:39:28 | 03:19:35 | 00:00:00 | |
| DO3MHA-11 | 2026-08-31 01:53:52 | 47.40675 | 8.84105 | 71° | 93km/h | 7340m | -3.9m/s | -21.3°C | 51.5% | 0hPa | 2.5V | 00:00:00 | 03:19:40 | 00:00:00 | |
| DO3MHA-12 | 2026-08-31 01:53:45 | 47.40623 | 8.83874 | 71° | 95km/h | 7366m | -3.6m/s | -21.4°C | 48.3% | 0hPa | 2.5V | 00:00:00 | 03:19:33 | 00:00:00 | |
| IW2NTF | 2026-08-31 01:53:42 | 47.40561 | 8.83609 | 69° | 99km/h | 7395m | -3.7m/s | -21.6°C | 52.8% | 0hPa | 2.6V | 07:39:38 | 03:19:25 | 00:00:00 | |
| DO3MHA-11 | 2026-08-31 01:53:42 | 47.40599 | 8.83776 | 71° | 93km/h | 7377m | -3.8m/s | -21.5°C | 47.7% | 0hPa | 2.5V | 00:00:00 | 03:19:30 | 00:00:00 | |
| DF3TZ-5 | 2026-08-31 01:53:40 | 47.40584 | 8.83711 | 72° | 91km/h | 7384m | -3.9m/s | -21.6°C | 47.7% | -1.0hPa | 2.5V | 00:00:00 | 00:00:00 | 00:00:00 | |
| DF1GD-15 | 2026-08-31 01:53:35 | 47.40544 | 8.83542 | 69° | 93km/h | 7403m | -3.8m/s | -21.7°C | 51.4% | 0hPa | 2.5V | 07:40:00 | 00:00:00 | 00:00:00 | |
| DN1GJH-1 | 2026-08-31 01:53:34 | 47.40544 | 8.83542 | 69° | 93km/h | 7403m | -3.8m/s | -21.7°C | 51.4% | 0hPa | 2.5V | 07:40:00 | 00:00:00 | 00:00:00 | |
| IW2NTF | 2026-08-31 01:53:32 | 47.40476 | 8.83282 | 68° | 93km/h | 7435m | -3.9m/s | -22°C | 58.9% | 0hPa | 2.5V | 07:39:48 | 03:19:15 | 00:00:00 | |
| DO3MHA-11 | 2026-08-31 01:53:32 | 47.40519 | 8.83447 | 71° | 95km/h | 7415m | -4.0m/s | -21.8°C | 56.0% | 0hPa | 2.5V | 00:00:00 | 03:19:20 | 00:00:00 | |
| DB0UT-7 | 2026-08-31 01:53:28 | 47.40485 | 8.83314 | 68° | 97km/h | 7431m | -3.8m/s | -21.9°C | 58.8% | 0hPa | 2.5V | 00:00:00 | 03:19:16 | 00:00:00 | |
| IW2NTF | 2026-08-31 01:53:22 | 47.40392 | 8.82951 | 70° | 91km/h | 7473m | -4m/s | -22.3°C | 56.8% | 0hPa | 2.5V | 07:39:58 | 03:19:05 | 00:00:00 | |
| DO3MHA-11 | 2026-08-31 01:53:22 | 47.40436 | 8.83114 | 70° | 95km/h | 7454m | -3.9m/s | -22.1°C | 57.7% | 0hPa | 2.5V | 00:00:00 | 03:19:10 | 00:00:00 | |
| DN1GJH-1 | 2026-08-31 01:53:13 | 47.40367 | 8.82852 | 69° | 97km/h | 7485m | -4.0m/s | -22.4°C | 53.9% | 0hPa | 2.5V | 07:40:00 | 00:00:00 | 00:00:00 | |
| DO3MHA-11 | 2026-08-31 01:53:12 | 47.40348 | 8.82786 | 67° | 97km/h | 7493m | -3.9m/s | -22.4°C | 56.4% | 0hPa | 2.5V | 00:00:00 | 03:19:00 | 00:00:00 | |
| IW2NTF | 2026-08-31 01:53:10 | 47.40286 | 8.82549 | 66° | 99km/h | 7520m | -3.7m/s | -22.6°C | 55.3% | 0hPa | 2.5V | 07:40:10 | 03:18:53 | 00:00:00 | |
| DK5PH-5 | 2026-08-31 01:53:05 | 47.40286 | 8.82549 | 67° | 100km/h | 7520m | -3.7m/s | -22.6°C | 55.3% | 0hPa | 2.5V | 00:00:00 | 03:18:53 | 00:00:00 | |
| DO3MHA-11 | 2026-08-31 01:53:02 | 47.40258 | 8.82449 | 70° | 97km/h | 7532m | -3.7m/s | -22.7°C | 54.0% | 0hPa | 2.6V | 07:40:00 | 03:18:50 | 00:00:00 | |
| IW2NTF | 2026-08-31 01:53:00 | 47.40191 | 8.82213 | 67° | 93km/h | 7559m | -3.9m/s | -22.9°C | 53.8% | 0hPa | 2.6V | 07:40:20 | 03:18:43 | 00:00:00 | |
| DB0UT-7 | 2026-08-31 01:52:58 | 47.40221 | 8.82310 | 66° | 100km/h | 7547m | -4.2m/s | -22.8°C | 54.1% | 0hPa | 2.6V | 00:00:00 | 00:00:00 | 00:00:00 | |
| DN1GJH-1 | 2026-08-31 01:52:53 | 47.40182 | 8.82181 | 70° | 95km/h | 7563m | -4.1m/s | -22.9°C | 50.5% | 0hPa | 2.6V | 07:41:00 | 00:00:00 | 00:00:00 | |
| DO3MHA-11 | 2026-08-31 01:52:52 | 47.40165 | 8.82113 | 69° | 100km/h | 7572m | -3.7m/s | -22.8°C | 51.0% | 0hPa | 2.6V | 00:00:00 | 03:18:40 | 00:00:00 | |
| IW2NTF | 2026-08-31 01:52:51 | 47.40098 | 8.81871 | 69° | 102km/h | 7599m | -4m/s | -23°C | 48.8% | 0hPa | 2.5V | 07:40:30 | 03:18:33 | 00:00:00 | |
| DO3MHA-11 | 2026-08-31 01:52:42 | 47.40069 | 8.81783 | 68° | 100km/h | 7611m | -4.0m/s | -23.1°C | 48.8% | 0hPa | 2.5V | 00:00:00 | 03:18:30 | 00:00:00 | |
| IW2NTF | 2026-08-31 01:52:40 | 47.40003 | 8.81524 | 64° | 102km/h | 7639m | -4.1m/s | -23.3°C | 50.5% | 0hPa | 2.5V | 07:40:40 | 03:18:23 | 00:00:00 | |
| DF3TZ-5 | 2026-08-31 01:52:38 | 47.40034 | 8.81630 | 69° | 102km/h | 7626m | -4.2m/s | -23.3°C | 46.7% | -1.0hPa | 2.6V | 00:00:00 | 00:00:00 | 00:00:00 | |
| DO3MHA-11 | 2026-08-31 01:52:32 | 47.39971 | 8.81421 | 68° | 102km/h | 7651m | -3.8m/s | -23.3°C | 48.7% | 0hPa | 2.6V | 00:00:00 | 03:18:20 | 00:00:00 | |
| IW2NTF | 2026-08-31 01:52:30 | 47.39901 | 8.81173 | 68° | 102km/h | 7679m | -3.6m/s | -23.5°C | 46.2% | 0hPa | 2.6V | 07:40:50 | 03:18:13 | 00:00:00 | |
| DB0UT-7 | 2026-08-31 01:52:28 | 47.39932 | 8.81278 | 67° | 104km/h | 7667m | -3.9m/s | -23.4°C | 46.8% | 0hPa | 2.5V | 00:00:00 | 03:18:16 | 00:00:00 | |
| DL1ZP-14 | 2026-08-31 01:52:23 | 47.39873 | 8.81064 | 67° | 106km/h | 7690m | -4.2m/s | -23.5°C | 39.4% | -1.0hPa | 2.5V | 00:00:00 | 00:00:00 | 00:00:00 | |
| DO3MHA-11 | 2026-08-31 01:52:22 | 47.39873 | 8.81064 | 68° | 104km/h | 7691m | -4.2m/s | -23.4°C | 41.8% | 0hPa | 2.5V | 00:00:00 | 03:18:10 | 00:00:00 | |
| IW2NTF | 2026-08-31 01:52:20 | 47.39801 | 8.80813 | 67° | 108km/h | 7719m | -4m/s | -23.5°C | 35.3% | 0hPa | 2.5V | 07:41:00 | 03:18:03 | 00:00:00 | |
| DN1GJH-1 | 2026-08-31 01:52:12 | 47.39768 | 8.80704 | 66° | 106km/h | 7731m | -4.1m/s | -23.6°C | 33.3% | 0hPa | 2.5V | 07:41:00 | 00:00:00 | 00:00:00 | |
| IW2NTF | 2026-08-31 01:52:10 | 47.39693 | 8.80448 | 65° | 104km/h | 7760m | -4.2m/s | -23.9°C | 36.6% | 0hPa | 2.5V | 07:41:10 | 03:17:53 | 00:00:00 | |
| DF3TZ-5 | 2026-08-31 01:52:07 | 47.39716 | 8.80521 | 66° | 108km/h | 7751m | -4.0m/s | -23.8°C | 34.1% | -1.0hPa | 2.6V | 00:00:00 | 00:00:00 | 00:00:00 | |
| DK5PH-5 | 2026-08-31 01:52:02 | 47.39663 | 8.80343 | 69° | 104km/h | 7772m | -4.0m/s | -23.9°C | 36.7% | 0hPa | 2.6V | 00:00:00 | 03:17:50 | 00:00:00 | |
| IW2NTF | 2026-08-31 01:52:00 | 47.39590 | 8.80092 | 68° | 106km/h | 7800m | -3.9m/s | -24.2°C | 36.7% | 0hPa | 2.6V | 07:41:20 | 03:17:43 | 00:00:00 | |
| DL1ZP-14 | 2026-08-31 01:51:52 | 47.39548 | 8.79944 | 64° | 106km/h | 7817m | -4.3m/s | -24.4°C | 35.1% | -1.0hPa | 2.6V | 00:00:00 | 00:00:00 | 00:00:00 | |
| DF1GD-15 | 2026-08-31 01:51:51 | 47.39559 | 8.79980 | 67° | 108km/h | 7813m | -4.4m/s | -24.3°C | 35.0% | 0hPa | 2.6V | 07:41:00 | 00:00:00 | 00:00:00 | |
| IW2NTF | 2026-08-31 01:51:50 | 47.39485 | 8.79730 | 67° | 110km/h | 7841m | -4.1m/s | -24.6°C | 36.9% | 0hPa | 2.6V | 07:41:30 | 03:17:33 | 00:00:00 | |
| DO3MHA-11 | 2026-08-31 01:51:45 | 47.39485 | 8.79730 | 68° | 106km/h | 7841m | -4.1m/s | -24.5°C | 36.9% | 0hPa | 2.6V | 00:00:00 | 03:17:33 | 00:00:00 | |
| IW2NTF | 2026-08-31 01:51:40 | 47.39377 | 8.79368 | 64° | 104km/h | 7882m | -4.3m/s | -24.8°C | 33.3% | 0hPa | 2.6V | 07:41:40 | 03:17:23 | 00:00:00 | |
| DF3TZ-5 | 2026-08-31 01:51:36 | 47.39388 | 8.79404 | 65° | 106km/h | 7878m | -4.1m/s | -24.8°C | 31.2% | -1.0hPa | 2.6V | 00:00:00 | 00:00:00 | 00:00:00 | |
| DO3MHA-11 | 2026-08-31 01:51:34 | 47.39366 | 8.79333 | 66° | 106km/h | 7887m | -4.3m/s | -24.8°C | 33.2% | 0hPa | 2.6V | 07:41:00 | 03:17:22 | 00:00:00 | |
| IW2NTF | 2026-08-31 01:51:30 | 47.39271 | 8.79010 | 67° | 108km/h | 7924m | -4.4m/s | -25.2°C | 32.5% | 0hPa | 2.6V | 07:41:50 | 03:17:13 | 00:00:00 | |
| DN1GJH-1 | 2026-08-31 01:51:29 | 47.39324 | 8.79189 | 67° | 108km/h | 7903m | -4.1m/s | -25.0°C | 30.7% | 0hPa | 2.6V | 07:41:00 | 00:00:00 | 00:00:00 | |
| DB0UT-7 | 2026-08-31 01:51:28 | 47.39302 | 8.79118 | 66° | 108km/h | 7912m | -4.2m/s | -25.0°C | 32.6% | 0hPa | 2.6V | 07:41:00 | 03:17:16 | 00:00:00 | |
| DK5PH-5 | 2026-08-31 01:51:25 | 47.39271 | 8.79010 | 68° | 108km/h | 7924m | -4.3m/s | -25.1°C | 32.5% | 0hPa | 2.6V | 00:00:00 | 03:17:13 | 00:00:00 | |
| DO3MHA-11 | 2026-08-31 01:51:24 | 47.39260 | 8.78973 | 67° | 108km/h | 7928m | -4.2m/s | -25.2°C | 32.7% | 0hPa | 2.6V | 00:00:00 | 03:17:12 | 00:00:00 | |
| DL1ZP-14 | 2026-08-31 01:51:21 | 47.39216 | 8.78830 | 66° | 102km/h | 7945m | -4.3m/s | -25.3°C | 31.0% | -1.0hPa | 2.6V | 00:00:00 | 00:00:00 | 00:00:00 | |
| IW2NTF | 2026-08-31 01:51:20 | 47.39161 | 8.78644 | 65° | 110km/h | 7966m | -4.1m/s | -25.5°C | 33.5% | 0hPa | 2.6V | 07:42:00 | 03:17:03 | 00:00:00 | |
| DO3MHA-12 | 2026-08-31 01:51:17 | 47.39184 | 8.78719 | 67° | 108km/h | 7958m | -4.2m/s | -25.4°C | 33.8% | 0hPa | 2.5V | 00:00:00 | 03:17:05 | 00:00:00 | |
| DO3MHA-11 | 2026-08-31 01:51:14 | 47.39150 | 8.78608 | 66° | 108km/h | 7971m | -4.2m/s | -25.5°C | 33.3% | 0hPa | 2.5V | 00:00:00 | 03:17:02 | 00:00:00 | |
| IW2NTF | 2026-08-31 01:51:10 | 47.39053 | 8.78278 | 65° | 104km/h | 8008m | -4.3m/s | -25.8°C | 31.5% | 0hPa | 2.6V | 07:42:10 | 03:16:53 | 00:00:00 | |
| DN1GJH-1 | 2026-08-31 01:51:09 | 47.39098 | 8.78423 | 67° | 111km/h | 7992m | -4.5m/s | -25.7°C | 29.4% | 0hPa | 2.5V | 00:00:00 | 00:00:00 | 00:00:00 | |
| DO3MHA-12 | 2026-08-31 01:51:07 | 47.39075 | 8.78349 | 65° | 108km/h | 8000m | -4.4m/s | -25.7°C | 31.4% | 0hPa | 2.5V | 00:00:00 | 03:16:55 | 00:00:00 | |
| DF3TZ-5 | 2026-08-31 01:51:05 | 47.39053 | 8.78278 | 65° | 102km/h | 8008m | -4.3m/s | -25.8°C | 29.3% | -1.0hPa | 2.5V | 00:00:00 | 00:00:00 | 00:00:00 | |
| DO3MHA-11 | 2026-08-31 01:51:04 | 47.39042 | 8.78242 | 68° | 108km/h | 8013m | -4.3m/s | -25.8°C | 31.5% | 0hPa | 2.5V | 00:00:00 | 03:16:52 | 00:00:00 | |
| IW2NTF | 2026-08-31 01:51:00 | 47.38945 | 8.77912 | 67° | 108km/h | 8051m | -4.4m/s | -26.2°C | 35.6% | 0hPa | 2.5V | 07:42:20 | 03:16:43 | 00:00:00 | |
| DB0UT-7 | 2026-08-31 01:50:58 | 47.38976 | 8.78021 | 66° | 108km/h | 8038m | -4.3m/s | -26.0°C | 33.3% | 0hPa | 2.6V | 00:00:00 | 00:00:00 | 00:00:00 | |
| DO3MHA-12 | 2026-08-31 01:50:57 | 47.38966 | 8.77985 | 67° | 106km/h | 8042m | -4.4m/s | -26.1°C | 33.5% | 0hPa | 2.6V | 00:00:00 | 03:16:45 | 00:00:00 | |
| DK5PH-5 | 2026-08-31 01:50:55 | 47.38945 | 8.77912 | 68° | 108km/h | 8051m | -4.4m/s | -26.1°C | 35.6% | 0hPa | 2.6V | 00:00:00 | 03:16:43 | 00:00:00 | |
| DO3MHA-11 | 2026-08-31 01:50:54 | 47.38935 | 8.77875 | 67° | 108km/h | 8056m | -4.3m/s | -26.1°C | 36.4% | 0hPa | 2.6V | 00:00:00 | 03:16:42 | 00:00:00 | |
| IW2NTF | 2026-08-31 01:50:50 | 47.38834 | 8.77549 | 64° | 104km/h | 8094m | -4.4m/s | -26.4°C | 37.6% | 0hPa | 2.6V | 07:42:30 | 03:16:33 | 00:00:00 | |
| DL1ZP-14 | 2026-08-31 01:50:50 | 47.38881 | 8.77694 | 66° | 108km/h | 8077m | -4.4m/s | -26.3°C | 34.6% | -1.0hPa | 2.6V | 00:00:00 | 00:00:00 | 00:00:00 | |
| DO3MHA-12 | 2026-08-31 01:50:47 | 47.38858 | 8.77620 | 65° | 108km/h | 8086m | -4.3m/s | -26.3°C | 37.4% | 0hPa | 2.6V | 00:00:00 | 03:16:35 | 00:00:00 | |
| DO3MHA-11 | 2026-08-31 01:50:44 | 47.38823 | 8.77513 | 66° | 108km/h | 8099m | -4.3m/s | -26.4°C | 37.7% | 0hPa | 2.6V | 00:00:00 | 03:16:32 | 00:00:00 | |
| IW2NTF | 2026-08-31 01:50:40 | 47.38723 | 8.77182 | 65° | 111km/h | 8137m | -4.4m/s | -26.7°C | 36.7% | 0hPa | 2.5V | 07:42:40 | 03:16:23 | 00:00:00 | |
| DO3MHA-12 | 2026-08-31 01:50:35 | 47.38723 | 8.77182 | 66° | 111km/h | 8137m | -4.3m/s | -26.7°C | 36.7% | 0hPa | 2.5V | 07:42:00 | 03:16:23 | 00:00:00 | |
| DO3MHA-11 | 2026-08-31 01:50:34 | 47.38711 | 8.77145 | 65° | 110km/h | 8141m | -4.4m/s | -26.7°C | 36.6% | 0hPa | 2.6V | 00:00:00 | 03:16:22 | 00:00:00 | |
| DF1GD-15 | 2026-08-31 01:50:30 | 47.38675 | 8.77036 | 66° | 110km/h | 8154m | -4.5m/s | -26.8°C | 32.3% | 0hPa | 2.6V | 07:43:00 | 00:00:00 | 00:00:00 | |
| IW2NTF | 2026-08-31 01:50:30 | 47.38602 | 8.76812 | 65° | 110km/h | 8180m | -4.3m/s | -26.8°C | 32.7% | 0hPa | 2.5V | 07:42:50 | 03:16:13 | 00:00:00 | |
| DB0UT-7 | 2026-08-31 01:50:28 | 47.38639 | 8.76923 | 64° | 113km/h | 8167m | -4.2m/s | -26.8°C | 34.0% | 0hPa | 2.6V | 00:00:00 | 03:16:16 | 00:00:00 | |
| DK5PH-5 | 2026-08-31 01:50:25 | 47.38602 | 8.76812 | 66° | 113km/h | 8180m | -4.2m/s | -26.8°C | 32.7% | 0hPa | 2.5V | 07:42:00 | 03:16:13 | 00:00:00 | |
| DO3MHA-11 | 2026-08-31 01:50:24 | 47.38590 | 8.76774 | 67° | 113km/h | 8185m | -4.5m/s | -26.8°C | 32.4% | 0hPa | 2.5V | 00:00:00 | 03:16:12 | 00:00:00 | |
| DO3MHA-12 | 2026-08-31 01:50:23 | 47.38579 | 8.76736 | 67° | 113km/h | 8189m | -4.4m/s | -26.8°C | 31.9% | 0hPa | 2.5V | 00:00:00 | 03:16:11 | 00:00:00 | |
| IW2NTF | 2026-08-31 01:50:20 | 47.38485 | 8.76430 | 67° | 113km/h | 8223m | -4.4m/s | -27°C | 30.5% | 0hPa | 2.5V | 07:43:00 | 03:16:03 | 00:00:00 | |
| DL1ZP-14 | 2026-08-31 01:50:18 | 47.38518 | 8.76543 | 64° | 108km/h | 8210m | -4.4m/s | -26.9°C | 28.7% | -1.0hPa | 2.5V | 00:00:00 | 00:00:00 | 00:00:00 | |
| DO3MHA-11 | 2026-08-31 01:50:14 | 47.38473 | 8.76391 | 67° | 115km/h | 8228m | -4.4m/s | -26.9°C | 30.3% | 0hPa | 2.5V | 07:43:00 | 03:16:02 | 00:00:00 | |
| DB0NH | 2026-08-31 01:50:11 | 47.38435 | 8.76275 | 63° | 117km/h | 8241m | -4.5m/s | -27.0°C | 30.6% | 0hPa | 2.6V | 00:00:00 | 03:15:59 | 00:00:00 | |
| IW2NTF | 2026-08-31 01:50:10 | 47.38361 | 8.76042 | 64° | 117km/h | 8267m | -4.6m/s | -27.3°C | 29.8% | 0hPa | 2.6V | 07:43:10 | 03:15:53 | 00:00:00 | |
| DF1GD-15 | 2026-08-31 01:50:09 | 47.38422 | 8.76237 | 65° | 113km/h | 8245m | -4.5m/s | -27.1°C | 28.2% | 0hPa | 2.6V | 07:43:00 | 00:00:00 | 00:00:00 | |
| DO3MHA-11 | 2026-08-31 01:50:04 | 47.38348 | 8.76003 | 65° | 115km/h | 8271m | -4.4m/s | -27.3°C | 29.7% | 0hPa | 2.6V | 00:00:00 | 03:15:52 | 00:00:00 | |
| DF3TZ-5 | 2026-08-31 01:50:03 | 47.38336 | 8.75965 | 64° | 113km/h | 8276m | -4.4m/s | -27.4°C | 27.3% | -1.0hPa | 2.6V | 00:00:00 | 00:00:00 | 00:00:00 | |
| IW2NTF | 2026-08-31 01:50:00 | 47.38237 | 8.75656 | 66° | 113km/h | 8311m | -4.5m/s | -27.6°C | 27.8% | 0hPa | 2.6V | 07:43:20 | 03:15:43 | 00:00:00 | |
| DO3MHA-12 | 2026-08-31 01:50:00 | 47.38299 | 8.75847 | 65° | 115km/h | 8289m | -4.4m/s | -27.4°C | 29.3% | 0hPa | 2.5V | 00:00:00 | 03:15:48 | 00:00:00 | |
| DB0UT-7 | 2026-08-31 01:49:58 | 47.38273 | 8.75770 | 64° | 117km/h | 8298m | -4.4m/s | -27.5°C | 28.7% | 0hPa | 2.6V | 00:00:00 | 00:00:00 | 00:00:00 | |
| DK5PH-5 | 2026-08-31 01:49:55 | 47.38237 | 8.75656 | 67° | 117km/h | 8311m | -4.4m/s | -27.6°C | 27.8% | 0hPa | 2.6V | 00:00:00 | 03:15:43 | 00:00:00 | |
| IW2NTF | 2026-08-31 01:49:50 | 47.38113 | 8.75262 | 65° | 119km/h | 8355m | -4.3m/s | -28°C | 27.1% | 0hPa | 2.6V | 07:43:30 | 03:15:33 | 00:00:00 | |
| DO3MHA-12 | 2026-08-31 01:49:50 | 47.38173 | 8.75459 | 64° | 115km/h | 8333m | -4.1m/s | -27.7°C | 26.9% | 0hPa | 2.5V | 00:00:00 | 03:15:38 | 00:00:00 | |
| DF1GD-15 | 2026-08-31 01:49:49 | 47.38174 | 8.75459 | 65° | 115km/h | 8333m | -4.2m/s | -27.8°C | 24.8% | 0hPa | 2.5V | 07:43:00 | 00:00:00 | 00:00:00 | |
| DO3MHA-11 | 2026-08-31 01:49:44 | 47.38101 | 8.75222 | 65° | 117km/h | 8359m | -4.5m/s | -28.0°C | 27.1% | 0hPa | 2.5V | 00:00:00 | 03:15:32 | 00:00:00 | |
| IW2NTF | 2026-08-31 01:49:40 | 47.37989 | 8.74868 | 65° | 117km/h | 8399m | -4.5m/s | -28.4°C | 29% | 0hPa | 2.5V | 07:43:40 | 03:15:23 | 00:00:00 | |
| DO3MHA-12 | 2026-08-31 01:49:40 | 47.38051 | 8.75068 | 67° | 119km/h | 8377m | -4.4m/s | -28.1°C | 27.7% | 0hPa | 2.5V | 00:00:00 | 03:15:28 | 00:00:00 | |
| DO3MHA-11 | 2026-08-31 01:49:34 | 47.37977 | 8.74829 | 67° | 119km/h | 8404m | -4.3m/s | -28.4°C | 29.3% | 0hPa | 2.5V | 00:00:00 | 03:15:22 | 00:00:00 | |
| DF3TZ-5 | 2026-08-31 01:49:32 | 47.37954 | 8.74748 | 66° | 120km/h | 8412m | -4.3m/s | -28.5°C | 27.6% | -1.0hPa | 2.5V | 00:00:00 | 00:00:00 | 00:00:00 | |
| IW2NTF | 2026-08-31 01:49:30 | 47.37866 | 8.74464 | 66° | 120km/h | 8443m | -4.5m/s | -28.7°C | 30.6% | 0hPa | 2.5V | 07:43:50 | 03:15:13 | 00:00:00 | |
| DO3MHA-12 | 2026-08-31 01:49:30 | 47.37928 | 8.74665 | 65° | 119km/h | 8421m | -4.3m/s | -28.5°C | 30.5% | 0hPa | 2.5V | 00:00:00 | 03:15:18 | 00:00:00 | |
| DB0UT-7 | 2026-08-31 01:49:28 | 47.37902 | 8.74585 | 65° | 119km/h | 8430m | -4.3m/s | -28.6°C | 30.7% | 0hPa | 2.5V | 00:00:00 | 03:15:16 | 00:00:00 | |
| DK5PH-5 | 2026-08-31 01:49:25 | 47.37866 | 8.74464 | 67° | 119km/h | 8443m | -4.5m/s | -28.7°C | 30.6% | 0hPa | 2.5V | 00:00:00 | 03:15:13 | 00:00:00 | |
| DO3MHA-11 | 2026-08-31 01:49:24 | 47.37854 | 8.74423 | 67° | 119km/h | 8448m | -4.3m/s | -28.7°C | 30.7% | 0hPa | 2.5V | 00:00:00 | 03:15:12 | 00:00:00 | |
| DB0NH | 2026-08-31 01:49:21 | 47.37815 | 8.74301 | 65° | 119km/h | 8461m | -4.3m/s | -28.8°C | 30.5% | 0hPa | 2.5V | 00:00:00 | 03:15:09 | 00:00:00 | |
| IW2NTF | 2026-08-31 01:49:20 | 47.37743 | 8.74059 | 65° | 120km/h | 8487m | -4.4m/s | -29.1°C | 31.6% | 0hPa | 2.5V | 07:44:00 | 03:15:03 | 00:00:00 | |
| DO3MHA-12 | 2026-08-31 01:49:19 | 47.37790 | 8.74222 | 67° | 119km/h | 8469m | -4.4m/s | -28.9°C | 30.4% | 0hPa | 2.6V | 00:00:00 | 03:15:07 | 00:00:00 | |
| DO3MHA-11 | 2026-08-31 01:49:14 | 47.37731 | 8.74019 | 66° | 119km/h | 8491m | -4.2m/s | -29.1°C | 31.8% | 0hPa | 2.6V | 00:00:00 | 03:15:02 | 00:00:00 | |
| IW2NTF | 2026-08-31 01:49:10 | 47.37624 | 8.73653 | 67° | 117km/h | 8531m | -4.5m/s | -29.5°C | 32.6% | 0hPa | 2.5V | 07:44:10 | 03:14:53 | 00:00:00 | |
| DO3MHA-12 | 2026-08-31 01:49:09 | 47.37672 | 8.73814 | 67° | 119km/h | 8513m | -4.5m/s | -29.3°C | 32.9% | 0hPa | 2.6V | 07:44:00 | 03:14:57 | 00:00:00 | |
| DF1GD-15 | 2026-08-31 01:49:08 | 47.37672 | 8.73814 | 67° | 120km/h | 8513m | -4.6m/s | -29.4°C | 30.3% | 0hPa | 2.6V | 07:44:00 | 00:00:00 | 00:00:00 | |
| DO3MHA-11 | 2026-08-31 01:49:04 | 47.37612 | 8.73612 | 68° | 120km/h | 8535m | -4.4m/s | -29.5°C | 32.6% | 0hPa | 2.6V | 00:00:00 | 03:14:52 | 00:00:00 | |
| DF3TZ-5 | 2026-08-31 01:49:01 | 47.37574 | 8.73489 | 64° | 119km/h | 8548m | -4.5m/s | -29.6°C | 31.0% | -1.0hPa | 2.6V | 00:00:00 | 00:00:00 | 00:00:00 | |
| IW2NTF | 2026-08-31 01:49:00 | 47.37504 | 8.73244 | 66° | 122km/h | 8575m | -4.5m/s | -29.9°C | 34.8% | 0hPa | 2.6V | 07:44:20 | 03:14:43 | 00:00:00 | |
| DO3MHA-12 | 2026-08-31 01:48:59 | 47.37549 | 8.73409 | 67° | 119km/h | 8557m | -4.3m/s | -29.7°C | 34.3% | 0hPa | 2.5V | 00:00:00 | 03:14:47 | 00:00:00 | |
| DB0UT-7 | 2026-08-31 01:48:58 | 47.37538 | 8.73369 | 68° | 120km/h | 8562m | -4.3m/s | -29.7°C | 34.5% | 0hPa | 2.5V | 00:00:00 | 00:00:00 | 00:00:00 | |
| DK5PH-5 | 2026-08-31 01:48:55 | 47.37504 | 8.73244 | 67° | 120km/h | 8575m | -4.4m/s | -29.8°C | 34.8% | 0hPa | 2.6V | 00:00:00 | 03:14:43 | 00:00:00 | |
| DO3MHA-11 | 2026-08-31 01:48:54 | 47.37492 | 8.73203 | 67° | 120km/h | 8579m | -4.3m/s | -29.8°C | 34.9% | 0hPa | 2.6V | 07:44:00 | 03:14:42 | 00:00:00 | |
| DB0NH | 2026-08-31 01:48:51 | 47.37456 | 8.73082 | 68° | 126km/h | 8593m | -4.6m/s | 0°C | 0% | 0hPa | 2.6V | 07:44:00 | 03:14:39 | 00:00:00 | |
| IW2NTF | 2026-08-31 01:48:50 | 47.37379 | 8.72836 | 64° | 117km/h | 8619m | -4.3m/s | -30.1°C | 33.2% | 0hPa | 2.6V | 07:44:30 | 03:14:33 | 00:00:00 | |
| DL1ZP-14 | 2026-08-31 01:48:45 | 47.37380 | 8.72836 | 64° | 115km/h | 8619m | -4.3m/s | -30.2°C | 30.5% | -1.0hPa | 2.6V | 00:00:00 | 00:00:00 | 00:00:00 | |
| DO3MHA-11 | 2026-08-31 01:48:44 | 47.37367 | 8.72797 | 67° | 119km/h | 8623m | -4.4m/s | -30.1°C | 33.9% | 0hPa | 2.6V | 00:00:00 | 03:14:32 | 00:00:00 | |
| IW2NTF | 2026-08-31 01:48:40 | 47.37260 | 8.72428 | 67° | 119km/h | 8663m | -4.3m/s | -30.5°C | 36.8% | 0hPa | 2.5V | 07:44:40 | 03:14:23 | 00:00:00 | |
| DO3MHA-12 | 2026-08-31 01:48:39 | 47.37310 | 8.72590 | 67° | 120km/h | 8645m | -4.5m/s | -30.3°C | 35.0% | 0hPa | 2.6V | 00:00:00 | 03:14:27 | 00:00:00 | |
| DO3MHA-11 | 2026-08-31 01:48:34 | 47.37248 | 8.72386 | 68° | 122km/h | 8667m | -4.4m/s | -30.5°C | 36.6% | 0hPa | 2.6V | 00:00:00 | 03:14:22 | 00:00:00 | |
| IW2NTF | 2026-08-31 01:48:30 | 47.37136 | 8.72014 | 64° | 122km/h | 8707m | -4.4m/s | -30.8°C | 32.8% | 0hPa | 2.6V | 07:44:50 | 03:14:13 | 00:00:00 | |
| DF3TZ-5 | 2026-08-31 01:48:30 | 47.37199 | 8.72222 | 66° | 119km/h | 8684m | -4.4m/s | -30.6°C | 31.9% | -1.0hPa | 2.5V | 00:00:00 | 00:00:00 | 00:00:00 | |
| DO3MHA-12 | 2026-08-31 01:48:29 | 47.37186 | 8.72182 | 67° | 122km/h | 8689m | -4.4m/s | -30.6°C | 34.4% | 0hPa | 2.5V | 00:00:00 | 03:14:17 | 00:00:00 | |
| DB0UT-7 | 2026-08-31 01:48:28 | 47.37174 | 8.72140 | 67° | 122km/h | 8693m | -4.4m/s | -30.6°C | 34.0% | 0hPa | 2.6V | 00:00:00 | 03:14:16 | 00:00:00 | |
| DN1GJH-1 | 2026-08-31 01:48:26 | 47.37162 | 8.72098 | 67° | 124km/h | 8698m | -4.7m/s | -30.7°C | 30.8% | 0hPa | 2.6V | 07:45:00 | 00:00:00 | 00:00:00 | |
| DK5PH-5 | 2026-08-31 01:48:25 | 47.37136 | 8.72014 | 65° | 122km/h | 8707m | -4.3m/s | -30.7°C | 32.8% | 0hPa | 2.6V | 00:00:00 | 03:14:13 | 00:00:00 | |
| DO3MHA-11 | 2026-08-31 01:48:24 | 47.37123 | 8.71973 | 65° | 120km/h | 8711m | -4.3m/s | -30.7°C | 32.5% | 0hPa | 2.5V | 00:00:00 | 03:14:12 | 00:00:00 | |
| IW2NTF | 2026-08-31 01:48:20 | 47.37011 | 8.71604 | 65° | 119km/h | 8751m | -4.5m/s | -31°C | 27.2% | 0hPa | 2.5V | 07:45:00 | 03:14:03 | 00:00:00 | |
| DO3MHA-11 | 2026-08-31 01:48:14 | 47.36999 | 8.71563 | 67° | 122km/h | 8755m | -4.2m/s | -31.0°C | 26.7% | 0hPa | 2.5V | 00:00:00 | 03:14:02 | 00:00:00 | |
| IW2NTF | 2026-08-31 01:48:10 | 47.36887 | 8.71185 | 66° | 126km/h | 8794m | -4.3m/s | -31.4°C | 22.4% | 0hPa | 2.5V | 07:45:10 | 03:13:53 | 00:00:00 | |
| DF1GD-15 | 2026-08-31 01:48:06 | 47.36912 | 8.71271 | 68° | 122km/h | 8786m | -4.2m/s | -31.3°C | 21.3% | 0hPa | 2.5V | 07:45:00 | 00:00:00 | 00:00:00 | |
| DO3MHA-12 | 2026-08-31 01:48:04 | 47.36873 | 8.71143 | 66° | 124km/h | 8799m | -4.7m/s | -31.4°C | 21.7% | 0hPa | 2.5V | 00:00:00 | 03:13:52 | 00:00:00 | |
| DN1GJH-1 | 2026-08-31 01:48:03 | 47.36873 | 8.71143 | 67° | 124km/h | 8799m | -4.7m/s | -31.4°C | 19.5% | 0hPa | 2.5V | 07:45:00 | 00:00:00 | 00:00:00 | |
| IW2NTF | 2026-08-31 01:48:00 | 47.36761 | 8.70762 | 66° | 120km/h | 8838m | -4.2m/s | -31.7°C | 15.8% | 0hPa | 2.5V | 07:45:20 | 03:13:43 | 00:00:00 | |
| DF3TZ-5 | 2026-08-31 01:47:59 | 47.36813 | 8.70930 | 66° | 126km/h | 8821m | -4.5m/s | -31.6°C | 15.6% | -1.0hPa | 2.5V | 00:00:00 | 00:00:00 | 00:00:00 | |
| DB0UT-7 | 2026-08-31 01:47:58 | 47.36800 | 8.70887 | 66° | 126km/h | 8825m | -4.4m/s | -31.6°C | 16.9% | 0hPa | 2.5V | 00:00:00 | 00:00:00 | 00:00:00 | |
| DK5PH-5 | 2026-08-31 01:47:55 | 47.36761 | 8.70762 | 67° | 126km/h | 8838m | -4.2m/s | -31.7°C | 15.8% | 0hPa | 2.5V | 00:00:00 | 03:13:43 | 00:00:00 | |
| DO3MHA-11 | 2026-08-31 01:47:54 | 47.36749 | 8.70720 | 68° | 126km/h | 8842m | -4.4m/s | -31.7°C | 15.5% | 0hPa | 2.5V | 00:00:00 | 03:13:42 | 00:00:00 | |
| IW2NTF | 2026-08-31 01:47:50 | 47.36634 | 8.70335 | 67° | 128km/h | 8881m | -4.5m/s | -32°C | 13.4% | 0hPa | 2.5V | 07:45:30 | 03:13:33 | 00:00:00 | |
| DB0ND-19 | 2026-08-31 01:47:45 | 47.36622 | 8.70291 | 66° | 128km/h | 8885m | -4.4m/s | -32.0°C | 11.6% | -1.0hPa | 2.6V | 00:00:00 | 00:00:00 | 00:00:00 | |
| DO3MHA-11 | 2026-08-31 01:47:44 | 47.36622 | 8.70291 | 67° | 128km/h | 8885m | -4.4m/s | -32.0°C | 13.4% | 0hPa | 2.6V | 00:00:00 | 03:13:32 | 00:00:00 | |
| DN1GJH-1 | 2026-08-31 01:47:42 | 47.36608 | 8.70248 | 66° | 128km/h | 8889m | -4.5m/s | -32.1°C | 11.7% | 0hPa | 2.5V | 07:46:00 | 00:00:00 | 00:00:00 | |
| IW2NTF | 2026-08-31 01:47:40 | 47.36507 | 8.69900 | 66° | 126km/h | 8925m | -4.4m/s | -32.3°C | 13% | 0hPa | 2.5V | 07:45:40 | 03:13:23 | 00:00:00 | |
| DO3MHA-11 | 2026-08-31 01:47:34 | 47.36494 | 8.69857 | 68° | 128km/h | 8929m | -4.3m/s | -32.3°C | 12.9% | 0hPa | 2.6V | 07:45:00 | 03:13:22 | 00:00:00 | |
| DO3MHA-12 | 2026-08-31 01:47:33 | 47.36482 | 8.69814 | 69° | 82km/h | 8934m | -4.3m/s | -32.3°C | 12.8% | 0hPa | 2.6V | 07:45:00 | 03:13:21 | 00:00:00 | |
| IW2NTF | 2026-08-31 01:47:30 | 47.36382 | 8.69462 | 66° | 124km/h | 8968m | -4.5m/s | -32.6°C | 14.3% | 0hPa | 2.6V | 07:45:50 | 03:13:13 | 00:00:00 | |
| DB0UT-7 | 2026-08-31 01:47:28 | 47.36422 | 8.69591 | 66° | 128km/h | 8955m | -4.0m/s | -32.5°C | 13.6% | 0hPa | 2.5V | 07:45:00 | 03:13:16 | 00:00:00 | |
| DK5PH-5 | 2026-08-31 01:47:25 | 47.36382 | 8.69462 | 67° | 128km/h | 8968m | -4.4m/s | -32.6°C | 14.3% | 0hPa | 2.5V | 00:00:00 | 03:13:13 | 00:00:00 | |
| DB0NH | 2026-08-31 01:47:24 | 47.36369 | 8.69419 | 68° | 130km/h | 8972m | -4.3m/s | 0°C | 0% | 0hPa | 2.5V | 00:00:00 | 03:13:12 | 00:00:00 | |
| DN1GJH-1 | 2026-08-31 01:47:22 | 47.36357 | 8.69375 | 69° | 128km/h | 8976m | -4.3m/s | -32.7°C | 12.9% | 0hPa | 2.5V | 07:46:00 | 00:00:00 | 00:00:00 | |
| IW2NTF | 2026-08-31 01:47:20 | 47.36259 | 8.69022 | 68° | 130km/h | 9011m | -4.4m/s | -32.9°C | 15.4% | 0hPa | 2.5V | 07:46:00 | 03:13:03 | 00:00:00 | |
| DO3MHA-11 | 2026-08-31 01:47:14 | 47.36247 | 8.68977 | 68° | 128km/h | 9015m | -4.2m/s | -32.9°C | 15.6% | 0hPa | 2.5V | 00:00:00 | 03:13:02 | 00:00:00 | |
| IW2NTF | 2026-08-31 01:47:10 | 47.36135 | 8.68581 | 66° | 128km/h | 9054m | -4.6m/s | -33.3°C | 16.4% | 0hPa | 2.5V | 07:46:10 | 03:12:53 | 00:00:00 | |
| DO3MHA-11 | 2026-08-31 01:47:04 | 47.36122 | 8.68538 | 67° | 128km/h | 9058m | -4.2m/s | -33.3°C | 16.5% | 0hPa | 2.5V | 00:00:00 | 03:12:52 | 00:00:00 | |
| DN1GJH-1 | 2026-08-31 01:47:01 | 47.36099 | 8.68451 | 70° | 126km/h | 9067m | -4.2m/s | -33.4°C | 15.1% | 0hPa | 2.5V | 07:46:00 | 00:00:00 | 00:00:00 | |
| IW2NTF | 2026-08-31 01:47:00 | 47.36016 | 8.68138 | 70° | 128km/h | 9096m | -4.4m/s | -33.6°C | 21.4% | 0hPa | 2.5V | 07:46:20 | 03:12:43 | 00:00:00 | |
| DF3TZ-5 | 2026-08-31 01:46:57 | 47.36039 | 8.68227 | 68° | 126km/h | 9088m | -4.3m/s | -33.5°C | 18.3% | -1.0hPa | 2.5V | 00:00:00 | 00:00:00 | 00:00:00 | |
| DO3MHA-11 | 2026-08-31 01:46:54 | 47.36005 | 8.68092 | 71° | 130km/h | 9101m | -4.3m/s | -33.6°C | 21.6% | 0hPa | 2.5V | 00:00:00 | 03:12:42 | 00:00:00 | |
| IW2NTF | 2026-08-31 01:46:50 | 47.35896 | 8.67687 | 68° | 131km/h | 9139m | -4.4m/s | -33.9°C | 21.6% | 0hPa | 2.5V | 07:46:30 | 03:12:33 | 00:00:00 | |
| DB0NH | 2026-08-31 01:46:48 | 47.35931 | 8.67822 | 69° | 128km/h | 9126m | -4.2m/s | 0°C | 0% | 0hPa | 2.5V | 00:00:00 | 03:12:36 | 00:00:00 | |
| DF1GD-15 | 2026-08-31 01:46:45 | 47.35895 | 8.67686 | 69° | 131km/h | 9139m | -4.4m/s | -33.9°C | 19.3% | 0hPa | 2.5V | 07:46:00 | 00:00:00 | 00:00:00 | |
| DO3MHA-11 | 2026-08-31 01:46:44 | 47.35883 | 8.67641 | 68° | 131km/h | 9143m | -4.3m/s | -33.9°C | 21.6% | 0hPa | 2.5V | 00:00:00 | 03:12:32 | 00:00:00 | |
| DB0ND-19 | 2026-08-31 01:46:43 | 47.35859 | 8.67552 | 68° | 128km/h | 9151m | -4.0m/s | -34.0°C | 18.9% | -1.0hPa | 2.4V | 00:00:00 | 00:00:00 | 00:00:00 | |
| DN1GJH-1 | 2026-08-31 01:46:41 | 47.35859 | 8.67552 | 70° | 128km/h | 9151m | -4.0m/s | -34.0°C | 19.0% | 0hPa | 2.4V | 07:46:00 | 00:00:00 | 00:00:00 | |
| IW2NTF | 2026-08-31 01:46:40 | 47.35771 | 8.67241 | 66° | 122km/h | 9181m | -4.3m/s | -34.2°C | 21.5% | 0hPa | 2.4V | 07:46:40 | 03:12:23 | 00:00:00 | |
| IW2NTF | 2026-08-31 01:46:30 | 47.35645 | 8.66802 | 67° | 128km/h | 9223m | -4m/s | -34.5°C | 21.8% | 0hPa | 2.5V | 07:46:50 | 03:12:13 | 00:00:00 | |
| DB0UT-7 | 2026-08-31 01:46:28 | 47.35684 | 8.66932 | 66° | 128km/h | 9210m | -4.2m/s | -34.4°C | 21.8% | 0hPa | 2.5V | 00:00:00 | 03:12:16 | 00:00:00 | |
| DF3TZ-5 | 2026-08-31 01:46:26 | 47.35645 | 8.66802 | 67° | 126km/h | 9223m | -4.0m/s | -34.5°C | 19.3% | -1.0hPa | 2.5V | 00:00:00 | 00:00:00 | 00:00:00 | |
| DK5PH-5 | 2026-08-31 01:46:25 | 47.35645 | 8.66802 | 68° | 126km/h | 9223m | -4.0m/s | -34.5°C | 21.8% | 0hPa | 2.5V | 07:46:00 | 03:12:13 | 00:00:00 | |
| DF1GD-15 | 2026-08-31 01:46:24 | 47.35645 | 8.66802 | 69° | 128km/h | 9223m | -4.0m/s | -34.5°C | 19.4% | 0hPa | 2.5V | 07:46:00 | 00:00:00 | 00:00:00 | |
| DN1GJH-1 | 2026-08-31 01:46:21 | 47.35607 | 8.66669 | 67° | 130km/h | 9235m | -4.3m/s | -34.6°C | 19.4% | 0hPa | 2.5V | 07:46:00 | 00:00:00 | 00:00:00 | |
| IW2NTF | 2026-08-31 01:46:20 | 47.35517 | 8.66365 | 66° | 128km/h | 9263m | -4.1m/s | -34.8°C | 22% | 0hPa | 2.5V | 07:47:00 | 03:12:03 | 00:00:00 | |
| DB0NH | 2026-08-31 01:46:18 | 47.35555 | 8.66497 | 68° | 126km/h | 9251m | -4.2m/s | 0°C | 0% | 0hPa | 2.4V | 00:00:00 | 03:12:06 | 00:00:00 | |
| DB0ND-19 | 2026-08-31 01:46:12 | 47.35468 | 8.66192 | 69° | 126km/h | 9280m | -4.3m/s | -34.9°C | 19.8% | -1.0hPa | 2.4V | 00:00:00 | 00:00:00 | 00:00:00 | |
| IW2NTF | 2026-08-31 01:46:10 | 47.35395 | 8.65927 | 68° | 124km/h | 9304m | -4.1m/s | -35.1°C | 23.9% | 0hPa | 2.4V | 07:47:10 | 03:11:53 | 00:00:00 | |
| DL1ZP-14 | 2026-08-31 01:46:10 | 47.35457 | 8.66148 | 69° | 128km/h | 9284m | -4.1m/s | -35.0°C | 20.0% | -1.0hPa | 2.5V | 00:00:00 | 00:00:00 | 00:00:00 | |
| DF1GD-15 | 2026-08-31 01:46:03 | 47.35384 | 8.65884 | 70° | 126km/h | 9308m | -4.0m/s | -35.1°C | 21.5% | 0hPa | 2.4V | 07:47:00 | 00:00:00 | 00:00:00 | |
| DN1GJH-1 | 2026-08-31 01:46:01 | 47.35360 | 8.65796 | 68° | 128km/h | 9316m | -4.1m/s | -35.2°C | 22.4% | 0hPa | 2.4V | 07:47:00 | 00:00:00 | 00:00:00 | |
| IW2NTF | 2026-08-31 01:46:00 | 47.35275 | 8.65494 | 69° | 130km/h | 9345m | -4m/s | -35.4°C | 24.9% | 0hPa | 2.4V | 07:47:20 | 03:11:43 | 00:00:00 | |
| DF3TZ-5 | 2026-08-31 01:45:55 | 47.35263 | 8.65449 | 67° | 131km/h | 9349m | -4.2m/s | -35.4°C | 21.9% | -1.0hPa | 2.4V | 00:00:00 | 00:00:00 | 00:00:00 | |
| IW2NTF | 2026-08-31 01:45:50 | 47.35154 | 8.65053 | 67° | 131km/h | 9384m | -4.2m/s | -35.7°C | 26.1% | 0hPa | 2.4V | 07:47:30 | 03:11:33 | 00:00:00 | |
| DB0NH | 2026-08-31 01:45:48 | 47.35189 | 8.65188 | 70° | 124km/h | 9373m | -3.8m/s | 0°C | 0% | 0hPa | 2.5V | 00:00:00 | 03:11:36 | 00:00:00 | |
| DF1GD-15 | 2026-08-31 01:45:43 | 47.35140 | 8.65009 | 67° | 130km/h | 9389m | -4.1m/s | -35.8°C | 23.7% | 0hPa | 2.5V | 07:47:00 | 00:00:00 | 00:00:00 | |
| DN1GJH-1 | 2026-08-31 01:45:41 | 47.35115 | 8.64923 | 68° | 124km/h | 9396m | -3.8m/s | -35.8°C | 24.8% | 0hPa | 2.5V | 07:47:00 | 00:00:00 | 00:00:00 | |
| IW2NTF | 2026-08-31 01:45:39 | 47.35019 | 8.64575 | 68° | 124km/h | 9428m | -3.9m/s | -36.1°C | 29.1% | 0hPa | 2.5V | 07:47:41 | 03:11:22 | 00:00:00 | |
| DO3MHA-11 | 2026-08-31 01:45:38 | 47.35068 | 8.64748 | 68° | 141km/h | 9413m | -4.3m/s | -35.9°C | 28.6% | 0hPa | 2.4V | 00:00:00 | 03:11:26 | 00:00:00 | |
| OE9MKV-15 | 2026-08-31 01:45:37 | 47.35056 | 8.64704 | 67° | 126km/h | 9416m | -3.7m/s | -35.9°C | 28.7% | 0hPa | 2.4V | 00:00:00 | 03:11:25 | 00:00:00 | |
| IW2NTF | 2026-08-31 01:45:29 | 47.34899 | 8.64136 | 69° | 130km/h | 9467m | -4m/s | -36.5°C | 31.6% | 0hPa | 2.4V | 07:47:51 | 03:11:12 | 00:00:00 | |
| DB0UT-7 | 2026-08-31 01:45:28 | 47.34945 | 8.64310 | 67° | 126km/h | 9452m | -3.9m/s | -36.3°C | 30.9% | 0hPa | 2.4V | 00:00:00 | 03:11:16 | 00:00:00 | |
| DK5PH-5 | 2026-08-31 01:45:25 | 47.34910 | 8.64180 | 70° | 126km/h | 9463m | -3.9m/s | 0°C | 0% | 0hPa | 2.4V | 00:00:00 | 03:11:13 | 00:00:00 | |
| DF3TZ-5 | 2026-08-31 01:45:24 | 47.34887 | 8.64091 | 67° | 128km/h | 9471m | -4.0m/s | -36.5°C | 28.3% | -1.0hPa | 2.4V | 00:00:00 | 00:00:00 | 00:00:00 | |
| DF1GD-15 | 2026-08-31 01:45:22 | 47.34887 | 8.64091 | 69° | 130km/h | 9471m | -4.0m/s | -36.5°C | 28.4% | 0hPa | 2.4V | 07:48:00 | 00:00:00 | 00:00:00 | |
| DN1GJH-1 | 2026-08-31 01:45:20 | 47.34862 | 8.64003 | 67° | 126km/h | 9479m | -3.9m/s | -36.6°C | 28.7% | 0hPa | 2.4V | 07:48:00 | 00:00:00 | 00:00:00 | |
| IW2NTF | 2026-08-31 01:45:17 | 47.34752 | 8.63615 | 68° | 122km/h | 9515m | -4.1m/s | -36.9°C | 34% | 0hPa | 2.4V | 07:48:03 | 03:11:00 | 00:00:00 | |
| DB0ND-19 | 2026-08-31 01:45:10 | 47.34705 | 8.63443 | 66° | 122km/h | 9530m | -3.8m/s | -37.1°C | 33.7% | -1.0hPa | 2.4V | 00:00:00 | 00:00:00 | 00:00:00 | |
| DL1ZP-14 | 2026-08-31 01:45:08 | 47.34705 | 8.63443 | 66° | 122km/h | 9530m | -3.8m/s | -37.1°C | 33.7% | -1.0hPa | 2.4V | 00:00:00 | 00:00:00 | 00:00:00 | |
| IW2NTF | 2026-08-31 01:45:07 | 47.34633 | 8.63185 | 66° | 130km/h | 9554m | -3.8m/s | -37.3°C | 41.5% | 0hPa | 2.4V | 07:48:13 | 03:10:50 | 00:00:00 | |
| OE9MKV-15 | 2026-08-31 01:45:06 | 47.34681 | 8.63359 | 68° | 128km/h | 9539m | -4.0m/s | -37.1°C | 39.3% | 0hPa | 2.4V | 00:00:00 | 03:10:54 | 00:00:00 | |
| DF7PN | 2026-08-31 01:45:04 | 47.34658 | 8.63273 | 68° | 126km/h | 9546m | -3.9m/s | -37.2°C | 36.7% | -1.0hPa | 2.4V | 00:00:00 | 00:00:00 | 00:00:00 | |
| DF1GD-15 | 2026-08-31 01:45:01 | 47.34633 | 8.63185 | 67° | 130km/h | 9554m | -3.8m/s | -37.3°C | 37.6% | 0hPa | 2.4V | 07:48:00 | 00:00:00 | 00:00:00 | |
| DN1GJH-1 | 2026-08-31 01:45:00 | 47.34620 | 8.63142 | 67° | 126km/h | 9558m | -4.0m/s | -37.3°C | 37.8% | 0hPa | 2.4V | 07:48:00 | 00:00:00 | 00:00:00 | |
| DB0UT-7 | 2026-08-31 01:44:58 | 47.34583 | 8.63015 | 69° | 130km/h | 9570m | -3.5m/s | -37.4°C | 42.3% | 0hPa | 2.4V | 00:00:00 | 00:00:00 | 00:00:00 | |
| IW2NTF | 2026-08-31 01:44:57 | 47.34512 | 8.62753 | 67° | 124km/h | 9593m | -3.7m/s | -37.6°C | 42.2% | 0hPa | 2.4V | 07:48:23 | 03:10:40 | 00:00:00 | |
| DF3TZ-5 | 2026-08-31 01:44:53 | 47.34512 | 8.62753 | 67° | 124km/h | 9593m | -3.7m/s | -37.6°C | 38.0% | -1.0hPa | 2.4V | 00:00:00 | 00:00:00 | 00:00:00 | |
| IW2NTF | 2026-08-31 01:44:47 | 47.34393 | 8.62311 | 70° | 126km/h | 9631m | -3.7m/s | -37.9°C | 38.1% | 0hPa | 2.4V | 07:48:33 | 03:10:30 | 00:00:00 | |
| DN1GJH-1 | 2026-08-31 01:44:40 | 47.34382 | 8.62266 | 71° | 130km/h | 9635m | -4.1m/s | -37.9°C | 33.7% | 0hPa | 2.5V | 07:48:00 | 00:00:00 | 00:00:00 | |
| DB0ND-19 | 2026-08-31 01:44:39 | 47.34347 | 8.62129 | 68° | 130km/h | 9647m | -4.0m/s | -38.0°C | 31.3% | -1.0hPa | 2.5V | 00:00:00 | 00:00:00 | 00:00:00 | |
| IW2NTF | 2026-08-31 01:44:37 | 47.34231 | 8.61668 | 69° | 130km/h | 9685m | -4m/s | -38.1°C | 27.2% | 0hPa | 2.5V | 07:48:47 | 03:10:16 | 00:00:00 | |
| OE9MKV-15 | 2026-08-31 01:44:36 | 47.34324 | 8.62038 | 71° | 133km/h | 9655m | -3.9m/s | -37.9°C | 32.8% | 0hPa | 2.4V | 07:48:00 | 03:10:24 | 00:00:00 | |
| IW2NTF | 2026-08-31 01:44:31 | 47.34158 | 8.61391 | 69° | 131km/h | 9708m | -4m/s | -38.1°C | 23.7% | 0hPa | 2.5V | 07:48:53 | 03:10:10 | 00:00:00 | |
| DB0UT-7 | 2026-08-31 01:44:28 | 47.34231 | 8.61668 | 70° | 135km/h | 9685m | -3.9m/s | -38.0°C | 27.2% | 0hPa | 2.5V | 00:00:00 | 03:10:16 | 00:00:00 | |
| DK5PH-5 | 2026-08-31 01:44:25 | 47.34195 | 8.61529 | 69° | 135km/h | 9697m | -3.7m/s | -38.0°C | 24.7% | 0hPa | 2.5V | 00:00:00 | 03:10:13 | 00:00:00 | |
| DB0NH | 2026-08-31 01:44:24 | 47.34183 | 8.61482 | 69° | 89km/h | 9701m | -4.1m/s | 0°C | 0% | 0hPa | 2.5V | 00:00:00 | 03:10:12 | 00:00:00 | |
| DF3TZ-5 | 2026-08-31 01:44:22 | 47.34147 | 8.61345 | 70° | 131km/h | 9712m | -3.8m/s | -38.1°C | 20.6% | -1.0hPa | 2.5V | 00:00:00 | 00:00:00 | 00:00:00 | |
| DN1GJH-1 | 2026-08-31 01:44:19 | 47.34135 | 8.61298 | 72° | 135km/h | 9716m | -3.8m/s | -38.2°C | 20.8% | 0hPa | 2.5V | 07:49:00 | 00:00:00 | 00:00:00 | |
| IW2NTF | 2026-08-31 01:44:17 | 47.34036 | 8.60923 | 70° | 137km/h | 9747m | -3.6m/s | -38.4°C | 24.2% | 0hPa | 2.5V | 07:49:03 | 03:10:00 | 00:00:00 | |
| IW2NTF | 2026-08-31 01:44:07 | 47.33915 | 8.60443 | 68° | 141km/h | 9785m | -3.8m/s | -38.6°C | 22.4% | 0hPa | 2.5V | 07:49:13 | 03:09:50 | 00:00:00 | |
| OE9MKV-15 | 2026-08-31 01:44:06 | 47.33962 | 8.60637 | 71° | 137km/h | 9770m | -3.6m/s | -38.5°C | 23.6% | 0hPa | 2.4V | 00:00:00 | 03:09:54 | 00:00:00 | |
| DF7PN | 2026-08-31 01:44:02 | 47.33902 | 8.60395 | 68° | 137km/h | 9789m | -3.9m/s | -38.6°C | 19.2% | -1.0hPa | 2.4V | 00:00:00 | 00:00:00 | 00:00:00 | |
| DF1GD-15 | 2026-08-31 01:43:58 | 47.33876 | 8.60301 | 70° | 133km/h | 9797m | -3.9m/s | -38.7°C | 19.0% | 0hPa | 2.4V | 07:49:00 | 00:00:00 | 00:00:00 | |
| IW2NTF | 2026-08-31 01:43:57 | 47.33794 | 8.59966 | 69° | 135km/h | 9823m | -4m/s | -38.8°C | 21% | 0hPa | 2.4V | 07:49:23 | 03:09:40 | 00:00:00 | |
| DF3TZ-5 | 2026-08-31 01:43:50 | 47.33771 | 8.59872 | 71° | 133km/h | 9832m | -3.7m/s | -38.9°C | 18.0% | -1.0hPa | 2.4V | 00:00:00 | 00:00:00 | 00:00:00 | |
| IW2NTF | 2026-08-31 01:43:47 | 47.33682 | 8.59485 | 72° | 139km/h | 9862m | -4.2m/s | -39.1°C | 20.8% | 0hPa | 2.4V | 07:49:33 | 03:09:30 | 00:00:00 | |
| DN1GJH-1 | 2026-08-31 01:43:38 | 47.33647 | 8.59338 | 70° | 137km/h | 9874m | -3.8m/s | -39.2°C | 18.2% | 0hPa | 2.4V | 07:50:00 | 00:00:00 | 00:00:00 | |
| IW2NTF | 2026-08-31 01:43:37 | 47.33568 | 8.59004 | 69° | 135km/h | 9901m | -3.9m/s | -39.5°C | 21.4% | 0hPa | 2.4V | 07:49:43 | 03:09:20 | 00:00:00 | |
| OE9MKV-15 | 2026-08-31 01:43:36 | 47.33613 | 8.59196 | 72° | 135km/h | 9886m | -4.0m/s | -39.3°C | 21.2% | 0hPa | 2.4V | 00:00:00 | 03:09:24 | 00:00:00 | |
| DF7PN | 2026-08-31 01:43:31 | 47.33546 | 8.58910 | 71° | 130km/h | 9909m | -4.1m/s | -39.5°C | 18.5% | -1.0hPa | 2.4V | 00:00:00 | 00:00:00 | 00:00:00 | |
| DH7VM-15 | 2026-08-31 01:43:29 | 47.33546 | 8.58910 | 73° | 131km/h | 9909m | -4.1m/s | -39.5°C | 18.6% | 0hPa | 2.4V | 00:00:00 | 00:00:00 | 00:00:00 | |
| DB0UT-7 | 2026-08-31 01:43:28 | 47.33526 | 8.58816 | 74° | 135km/h | 9917m | -4.1m/s | -39.6°C | 21.7% | 0hPa | 2.4V | 07:49:00 | 03:09:16 | 00:00:00 | |
| IW2NTF | 2026-08-31 01:43:27 | 47.33463 | 8.58525 | 73° | 137km/h | 9941m | -3.9m/s | -39.8°C | 22.1% | 0hPa | 2.4V | 07:49:53 | 03:09:10 | 00:00:00 | |
| DK5PH-5 | 2026-08-31 01:43:25 | 47.33494 | 8.58670 | 72° | 135km/h | 9929m | -3.9m/s | -39.7°C | 21.9% | 0hPa | 2.5V | 00:00:00 | 03:09:13 | 00:00:00 | |
| DF3TZ-5 | 2026-08-31 01:43:19 | 47.33431 | 8.58377 | 71° | 139km/h | 9953m | -4.2m/s | -39.9°C | 19.3% | -1.0hPa | 2.5V | 00:00:00 | 00:00:00 | 00:00:00 | |
| IW2NTF | 2026-08-31 01:43:17 | 47.33356 | 8.58040 | 71° | 137km/h | 9981m | -4.3m/s | -40.2°C | 23% | 0hPa | 2.5V | 07:50:03 | 03:09:00 | 00:00:00 | |
| IW2NTF | 2026-08-31 01:43:06 | 47.33241 | 8.57515 | 74° | 133km/h | 10026m | -4.2m/s | -40.6°C | 23.9% | 0hPa | 2.5V | 07:50:14 | 03:08:49 | 00:00:00 | |
| OE9MKV-15 | 2026-08-31 01:43:06 | 47.33293 | 8.57753 | 73° | 135km/h | 10006m | -3.9m/s | -40.4°C | 23.4% | 0hPa | 2.4V | 00:00:00 | 03:08:54 | 00:00:00 | |
| DF7PN | 2026-08-31 01:43:00 | 47.33222 | 8.57418 | 73° | 137km/h | 10034m | -4.2m/s | -40.7°C | 20.8% | -1.0hPa | 2.4V | 00:00:00 | 00:00:00 | 00:00:00 | |
| DB0UT-7 | 2026-08-31 01:42:58 | 47.33212 | 8.57369 | 73° | 137km/h | 10039m | -4.1m/s | -40.7°C | 24.4% | 0hPa | 2.4V | 00:00:00 | 00:00:00 | 00:00:00 | |
| DF1GD-15 | 2026-08-31 01:42:57 | 47.33212 | 8.57369 | 74° | 139km/h | 10039m | -4.1m/s | -40.7°C | 21.2% | 0hPa | 2.5V | 07:50:00 | 00:00:00 | 00:00:00 | |
| IW2NTF | 2026-08-31 01:42:56 | 47.33139 | 8.57034 | 71° | 139km/h | 10067m | -4.3m/s | -41°C | 25.2% | 0hPa | 2.5V | 07:50:24 | 03:08:39 | 00:00:00 | |
| DF3TZ-5 | 2026-08-31 01:42:48 | 47.33106 | 8.56889 | 72° | 133km/h | 10080m | -4.1m/s | -41.1°C | 22.0% | -1.0hPa | 2.4V | 00:00:00 | 00:00:00 | 00:00:00 | |
| IW2NTF | 2026-08-31 01:42:46 | 47.33034 | 8.56549 | 70° | 133km/h | 10109m | -4.2m/s | -41.4°C | 26.1% | 0hPa | 2.4V | 07:50:34 | 03:08:29 | 00:00:00 | |
| DN1GJH-1 | 2026-08-31 01:42:37 | 47.33002 | 8.56407 | 73° | 137km/h | 10122m | -4.3m/s | -41.5°C | 23.0% | 0hPa | 2.4V | 07:51:00 | 00:00:00 | 00:00:00 | |
| IW2NTF | 2026-08-31 01:42:36 | 47.32924 | 8.56068 | 72° | 139km/h | 10152m | -4.2m/s | -41.8°C | 26.8% | 0hPa | 2.4V | 07:50:44 | 03:08:19 | 00:00:00 | |
| OE9MKV-15 | 2026-08-31 01:42:36 | 47.32979 | 8.56309 | 71° | 139km/h | 10131m | -4.1m/s | -41.5°C | 26.5% | 0hPa | 2.4V | 00:00:00 | 03:08:24 | 00:00:00 | |
| DB0ND-19 | 2026-08-31 01:42:34 | 47.32924 | 8.56068 | 72° | 139km/h | 10152m | -4.2m/s | -41.8°C | 23.1% | -1.0hPa | 2.4V | 00:00:00 | 00:00:00 | 00:00:00 | |
| DF7PN | 2026-08-31 01:42:29 | 47.32891 | 8.55920 | 70° | 137km/h | 10164m | -4.1m/s | -41.9°C | 23.6% | -1.0hPa | 2.4V | 00:00:00 | 00:00:00 | 00:00:00 | |
| DB0UT-7 | 2026-08-31 01:42:28 | 47.32891 | 8.55920 | 71° | 141km/h | 10164m | -4.1m/s | -41.8°C | 27.4% | 0hPa | 2.4V | 00:00:00 | 03:08:16 | 00:00:00 | |
| IW2NTF | 2026-08-31 01:42:27 | 47.32811 | 8.55579 | 70° | 141km/h | 10193m | -4.4m/s | -42.1°C | 28.1% | 0hPa | 2.4V | 07:50:54 | 03:08:09 | 00:00:00 | |
| DK5PH-5 | 2026-08-31 01:42:25 | 47.32857 | 8.55777 | 72° | 141km/h | 10177m | -4.2m/s | -41.9°C | 27.9% | 0hPa | 2.4V | 07:50:00 | 03:08:13 | 00:00:00 | |
| DF3TZ-5 | 2026-08-31 01:42:17 | 47.32770 | 8.55383 | 75° | 141km/h | 10210m | -4.6m/s | -42.3°C | 24.5% | -1.0hPa | 2.5V | 00:00:00 | 00:00:00 | 00:00:00 | |
| DN1GJH-1 | 2026-08-31 01:42:16 | 47.32770 | 8.55383 | 76° | 141km/h | 10210m | -4.6m/s | -42.3°C | 24.7% | 0hPa | 2.5V | 07:51:00 | 00:00:00 | 00:00:00 | |
| IW2NTF | 2026-08-31 01:42:16 | 47.32703 | 8.55079 | 68° | 139km/h | 10238m | -4.6m/s | -42.5°C | 28.9% | 0hPa | 2.4V | 07:51:04 | 03:07:59 | 00:00:00 | |
| IW2NTF | 2026-08-31 01:42:06 | 47.32587 | 8.54582 | 69° | 142km/h | 10284m | -4.6m/s | -42.9°C | 29.3% | 0hPa | 2.5V | 07:51:14 | 03:07:49 | 00:00:00 | |
| DB0ND-19 | 2026-08-31 01:42:03 | 47.32613 | 8.54683 | 69° | 146km/h | 10275m | -4.7m/s | -42.9°C | 25.1% | -1.0hPa | 2.4V | 00:00:00 | 00:00:00 | 00:00:00 | |
| DF7PN | 2026-08-31 01:41:57 | 47.32507 | 8.54228 | 71° | 142km/h | 10315m | -4.5m/s | -43.3°C | 25.9% | -1.0hPa | 2.4V | 00:00:00 | 00:00:00 | 00:00:00 | |
| IW2NTF | 2026-08-31 01:41:56 | 47.32473 | 8.54075 | 71° | 148km/h | 10329m | -4.5m/s | -43.4°C | 30.2% | 0hPa | 2.4V | 07:51:24 | 03:07:39 | 00:00:00 | |
| DK5PH-5 | 2026-08-31 01:41:55 | 47.32518 | 8.54279 | 72° | 146km/h | 10311m | -4.5m/s | -43.1°C | 29.9% | 0hPa | 2.4V | 00:00:00 | 03:07:43 | 00:00:00 | |
| IW2NTF | 2026-08-31 01:41:46 | 47.32356 | 8.53557 | 69° | 146km/h | 10375m | -4.5m/s | -43.7°C | 29.6% | 0hPa | 2.4V | 07:51:34 | 03:07:29 | 00:00:00 | |
| IW2NTF | 2026-08-31 01:41:36 | 47.32238 | 8.53043 | 71° | 141km/h | 10422m | -4.7m/s | -44°C | 28.8% | 0hPa | 2.4V | 07:51:44 | 03:07:19 | 00:00:00 | |
| DH7VM-15 | 2026-08-31 01:41:36 | 47.32298 | 8.53302 | 74° | 150km/h | 10399m | -4.6m/s | -43.9°C | 25.0% | 0hPa | 2.4V | 00:00:00 | 00:00:00 | 00:00:00 | |
| DF1GD-15 | 2026-08-31 01:41:35 | 47.32298 | 8.53302 | 74° | 150km/h | 10399m | -4.6m/s | -43.9°C | 25.0% | 0hPa | 2.4V | 07:52:00 | 00:00:00 | 00:00:00 | |
| DN1GJH-1 | 2026-08-31 01:41:34 | 47.32287 | 8.53249 | 73° | 151km/h | 10403m | -4.7m/s | -43.9°C | 25.0% | 0hPa | 2.4V | 07:52:00 | 00:00:00 | 00:00:00 | |
| DB0ND-19 | 2026-08-31 01:41:32 | 47.32205 | 8.52890 | 73° | 148km/h | 10436m | -4.7m/s | -44.1°C | 24.8% | -1.0hPa | 2.4V | 00:00:00 | 00:00:00 | 00:00:00 | |
| DB0UT-7 | 2026-08-31 01:41:28 | 47.32205 | 8.52890 | 74° | 148km/h | 10436m | -4.7m/s | -44.1°C | 29.0% | 0hPa | 2.4V | 00:00:00 | 03:07:16 | 00:00:00 | |
| IW2NTF | 2026-08-31 01:41:26 | 47.32121 | 8.52526 | 71° | 148km/h | 10468m | -4.6m/s | -44.4°C | 29.3% | 0hPa | 2.5V | 07:51:54 | 03:07:09 | 00:00:00 | |
| DK5PH-5 | 2026-08-31 01:41:25 | 47.32169 | 8.52731 | 71° | 148km/h | 10450m | -4.8m/s | -44.2°C | 29.1% | 0hPa | 2.4V | 00:00:00 | 03:07:13 | 00:00:00 | |
| IW2NTF | 2026-08-31 01:41:16 | 47.32001 | 8.52005 | 70° | 151km/h | 10516m | -4.9m/s | -44.8°C | 29% | 0hPa | 2.4V | 07:52:04 | 03:06:59 | 00:00:00 | |
| DF3TZ-5 | 2026-08-31 01:41:15 | 47.32047 | 8.52215 | 72° | 142km/h | 10497m | -4.8m/s | -44.7°C | 25.0% | -1.0hPa | 2.4V | 00:00:00 | 00:00:00 | 00:00:00 | |
| DF1GD-15 | 2026-08-31 01:41:14 | 47.32047 | 8.52215 | 73° | 144km/h | 10497m | -4.8m/s | -44.6°C | 25.2% | 0hPa | 2.4V | 07:52:00 | 00:00:00 | 00:00:00 | |
| DN1GJH-1 | 2026-08-31 01:41:13 | 47.32036 | 8.52164 | 74° | 146km/h | 10502m | -4.8m/s | -44.7°C | 25.1% | 0hPa | 2.4V | 07:52:00 | 00:00:00 | 00:00:00 | |
| IW2NTF | 2026-08-31 01:41:07 | 47.31886 | 8.51484 | 73° | 146km/h | 10564m | -4.8m/s | -45.1°C | 27.8% | 0hPa | 2.4V | 07:52:14 | 03:06:49 | 00:00:00 | |
| OE9MKV-15 | 2026-08-31 01:41:06 | 47.31941 | 8.51748 | 74° | 150km/h | 10540m | -4.8m/s | -44.9°C | 28.6% | 0hPa | 2.4V | 00:00:00 | 03:06:54 | 00:00:00 | |
| DB0ND-19 | 2026-08-31 01:41:01 | 47.31844 | 8.51271 | 73° | 150km/h | 10584m | -5.0m/s | -45.3°C | 23.2% | -1.0hPa | 2.4V | 00:00:00 | 00:00:00 | 00:00:00 | |
| DB0UT-7 | 2026-08-31 01:40:58 | 47.31855 | 8.51324 | 74° | 150km/h | 10579m | -5.0m/s | -45.2°C | 27.5% | 0hPa | 2.4V | 00:00:00 | 00:00:00 | 00:00:00 | |
| IW2NTF | 2026-08-31 01:40:56 | 47.31781 | 8.50957 | 73° | 150km/h | 10613m | -5.1m/s | -45.5°C | 26.8% | 0hPa | 2.4V | 07:52:24 | 03:06:39 | 00:00:00 | |
| DK5PH-5 | 2026-08-31 01:40:55 | 47.31822 | 8.51166 | 73° | 150km/h | 10594m | -4.9m/s | -45.3°C | 27.1% | 0hPa | 2.4V | 00:00:00 | 03:06:43 | 00:00:00 | |
| DF1GD-15 | 2026-08-31 01:40:54 | 47.31822 | 8.51166 | 74° | 144km/h | 10594m | -5.0m/s | -45.3°C | 23.1% | 0hPa | 2.5V | 07:52:00 | 00:00:00 | 00:00:00 | |
| DN1GJH-1 | 2026-08-31 01:40:52 | 47.31801 | 8.51063 | 75° | 146km/h | 10604m | -5.0m/s | -45.4°C | 23.0% | 0hPa | 2.5V | 07:52:00 | 00:00:00 | 00:00:00 | |
| IW2NTF | 2026-08-31 01:40:47 | 47.31669 | 8.50419 | 72° | 150km/h | 10663m | -4.9m/s | -45.8°C | 26.2% | 0hPa | 2.5V | 07:52:34 | 03:06:29 | 00:00:00 | |
| DF3TZ-5 | 2026-08-31 01:40:44 | 47.31703 | 8.50582 | 73° | 153km/h | 10648m | -5.2m/s | -45.8°C | 22.0% | -1.0hPa | 2.4V | 00:00:00 | 00:00:00 | 00:00:00 | |
| DO3MHA-11 | 2026-08-31 01:40:37 | 47.31626 | 8.50205 | 73° | 151km/h | 10683m | -5.0m/s | -45.9°C | 26.2% | 0hPa | 2.4V | 07:52:00 | 03:06:25 | 00:00:00 | |
| IW2NTF | 2026-08-31 01:40:36 | 47.31556 | 8.49885 | 73° | 153km/h | 10713m | -4.9m/s | -46.2°C | 26.6% | 0hPa | 2.4V | 07:52:44 | 03:06:19 | 00:00:00 | |
| OE9MKV-15 | 2026-08-31 01:40:36 | 47.31614 | 8.50151 | 72° | 151km/h | 10688m | -4.8m/s | -45.9°C | 26.3% | 0hPa | 2.4V | 07:52:00 | 03:06:24 | 00:00:00 | |
| DF1GD-15 | 2026-08-31 01:40:33 | 47.31590 | 8.50045 | 73° | 148km/h | 10698m | -5.3m/s | -46.1°C | 22.4% | 0hPa | 2.4V | 07:52:00 | 00:00:00 | 00:00:00 | |
| DN1GJH-1 | 2026-08-31 01:40:31 | 47.31567 | 8.49939 | 74° | 150km/h | 10708m | -5.0m/s | -46.1°C | 22.5% | 0hPa | 2.4V | 07:52:00 | 00:00:00 | 00:00:00 | |
| DB0UT-7 | 2026-08-31 01:40:28 | 47.31521 | 8.49722 | 72° | 153km/h | 10728m | -5.2m/s | -46.3°C | 26.9% | 0hPa | 2.4V | 00:00:00 | 03:06:16 | 00:00:00 | |
| DO3MHA-11 | 2026-08-31 01:40:27 | 47.31509 | 8.49669 | 72° | 151km/h | 10734m | -5.1m/s | -46.3°C | 26.9% | 0hPa | 2.4V | 00:00:00 | 03:06:15 | 00:00:00 | |
| DK5PH-5 | 2026-08-31 01:40:25 | 47.31487 | 8.49563 | 75° | 153km/h | 10744m | -5.0m/s | -46.4°C | 27.0% | 0hPa | 2.4V | 00:00:00 | 03:06:13 | 00:00:00 | |
| IW2NTF | 2026-08-31 01:40:24 | 47.31421 | 8.49235 | 72° | 150km/h | 10774m | -5.1m/s | -46.8°C | 27.4% | 0hPa | 2.4V | 07:52:56 | 03:06:07 | 00:00:00 | |
| DO3MHA-11 | 2026-08-31 01:40:17 | 47.31399 | 8.49128 | 75° | 153km/h | 10784m | -5.0m/s | -46.8°C | 27.4% | 0hPa | 2.4V | 00:00:00 | 03:06:05 | 00:00:00 | |
| IW2NTF | 2026-08-31 01:40:14 | 47.31308 | 8.48690 | 73° | 151km/h | 10825m | -5.1m/s | -47.1°C | 27.7% | 0hPa | 2.4V | 07:53:06 | 03:05:57 | 00:00:00 | |
| DF3TZ-5 | 2026-08-31 01:40:13 | 47.31342 | 8.48852 | 71° | 151km/h | 10809m | -5.1m/s | -47.0°C | 23.1% | -1.0hPa | 2.4V | 00:00:00 | 00:00:00 | 00:00:00 | |
| DN1GJH-1 | 2026-08-31 01:40:10 | 47.31330 | 8.48798 | 74° | 150km/h | 10815m | -5.1m/s | -47.0°C | 23.4% | 0hPa | 2.4V | 07:53:00 | 00:00:00 | 00:00:00 | |
| DO3MHA-11 | 2026-08-31 01:40:07 | 47.31286 | 8.48581 | 73° | 155km/h | 10835m | -4.9m/s | -47.1°C | 27.8% | 0hPa | 2.4V | 00:00:00 | 03:05:55 | 00:00:00 | |
| OE9MKV-15 | 2026-08-31 01:40:06 | 47.31274 | 8.48527 | 73° | 157km/h | 10840m | -5.2m/s | -47.2°C | 27.8% | 0hPa | 2.5V | 00:00:00 | 03:05:54 | 00:00:00 | |
| IW2NTF | 2026-08-31 01:40:04 | 47.31195 | 8.48146 | 73° | 153km/h | 10876m | -5.3m/s | -47.5°C | 27.9% | 0hPa | 2.5V | 07:53:16 | 03:05:47 | 00:00:00 | |
| DB0ND-19 | 2026-08-31 01:39:59 | 47.31103 | 8.47699 | 74° | 157km/h | 10917m | -5.1m/s | -47.8°C | 23.3% | -1.0hPa | 2.4V | 00:00:00 | 00:00:00 | 00:00:00 | |
| DB0UT-7 | 2026-08-31 01:39:58 | 47.31184 | 8.48091 | 74° | 157km/h | 10881m | -5.3m/s | -47.5°C | 27.9% | 0hPa | 2.4V | 00:00:00 | 00:00:00 | 00:00:00 | |
| DO3MHA-11 | 2026-08-31 01:39:55 | 47.31150 | 8.47923 | 73° | 159km/h | 10897m | -5.3m/s | 0°C | 0% | 0hPa | 2.4V | 00:00:00 | 03:05:43 | 00:00:00 | |
| IW2NTF | 2026-08-31 01:39:54 | 47.31081 | 8.47584 | 73° | 161km/h | 10927m | -5.3m/s | -47.8°C | 28.2% | 0hPa | 2.4V | 07:53:26 | 03:05:37 | 00:00:00 | |
| DF7PN | 2026-08-31 01:39:53 | 47.31126 | 8.47811 | 72° | 155km/h | 10907m | -5.3m/s | -47.7°C | 23.5% | -1.0hPa | 2.4V | 00:00:00 | 00:00:00 | 00:00:00 | |
| DF1GD-15 | 2026-08-31 01:39:52 | 47.31125 | 8.47811 | 74° | 155km/h | 10907m | -5.3m/s | -47.7°C | 23.7% | 0hPa | 2.4V | 07:53:00 | 00:00:00 | 00:00:00 | |
| DN1GJH-1 | 2026-08-31 01:39:49 | 47.31092 | 8.47642 | 75° | 161km/h | 10922m | -5.1m/s | -47.8°C | 23.6% | 0hPa | 2.4V | 07:53:00 | 00:00:00 | 00:00:00 | |
| DO3MHA-11 | 2026-08-31 01:39:45 | 47.31036 | 8.47359 | 75° | 157km/h | 10948m | -5.3m/s | -47.9°C | 28.2% | 0hPa | 2.4V | 00:00:00 | 03:05:33 | 00:00:00 | |
| IW2NTF | 2026-08-31 01:39:42 | 47.30970 | 8.47023 | 74° | 155km/h | 10978m | -5.3m/s | -48.2°C | 28.4% | 0hPa | 2.4V | 07:53:36 | 03:05:27 | 00:00:00 | |
| DF3TZ-5 | 2026-08-31 01:39:42 | 47.31004 | 8.47190 | 73° | 157km/h | 10963m | -5.1m/s | -48.1°C | 23.6% | -1.0hPa | 2.5V | 00:00:00 | 00:00:00 | 00:00:00 | |
| OE9MKV-15 | 2026-08-31 01:39:36 | 47.30940 | 8.46852 | 76° | 157km/h | 10994m | -5.1m/s | -48.3°C | 28.5% | 0hPa | 2.5V | 00:00:00 | 03:05:24 | 00:00:00 | |
| IW2NTF | 2026-08-31 01:39:34 | 47.30865 | 8.46458 | 73° | 161km/h | 11029m | -5m/s | -48.6°C | 28.6% | 0hPa | 2.5V | 07:53:46 | 03:05:17 | 00:00:00 | |
| DO3MHA-11 | 2026-08-31 01:39:33 | 47.30907 | 8.46682 | 74° | 155km/h | 11009m | -4.9m/s | -48.4°C | 28.7% | 0hPa | 2.4V | 00:00:00 | 03:05:21 | 00:00:00 | |
| DF1GD-15 | 2026-08-31 01:39:32 | 47.30907 | 8.46682 | 74° | 155km/h | 11009m | -5.0m/s | -48.4°C | 24.1% | 0hPa | 2.4V | 07:53:00 | 00:00:00 | 00:00:00 | |
| DN1GJH-1 | 2026-08-31 01:39:29 | 47.30875 | 8.46515 | 76° | 159km/h | 11024m | -5.1m/s | -48.6°C | 24.0% | 0hPa | 2.4V | 07:53:00 | 00:00:00 | 00:00:00 | |
| DB0UT-7 | 2026-08-31 01:39:28 | 47.30853 | 8.46400 | 73° | 157km/h | 11034m | -4.9m/s | -48.6°C | 28.6% | 0hPa | 2.4V | 07:53:00 | 03:05:16 | 00:00:00 | |
| DK5PH-5 | 2026-08-31 01:39:25 | 47.30817 | 8.46233 | 74° | 157km/h | 11050m | -5.1m/s | -48.7°C | 28.5% | 0hPa | 2.4V | 00:00:00 | 03:05:13 | 00:00:00 | |
| IW2NTF | 2026-08-31 01:39:24 | 47.30755 | 8.45895 | 74° | 157km/h | 11079m | -5m/s | -49°C | 28.6% | 0hPa | 2.4V | 07:53:56 | 03:05:07 | 00:00:00 | |
| DF7PN | 2026-08-31 01:39:23 | 47.30787 | 8.46066 | 75° | 157km/h | 11064m | -5.1m/s | -48.9°C | 23.7% | -1.0hPa | 2.4V | 00:00:00 | 00:00:00 | 00:00:00 | |
| IW2NTF | 2026-08-31 01:39:14 | 47.30653 | 8.45326 | 76° | 161km/h | 11129m | -5m/s | -49.4°C | 28.1% | 0hPa | 2.4V | 07:54:06 | 03:04:57 | 00:00:00 | |
| DF1GD-15 | 2026-08-31 01:39:12 | 47.30693 | 8.45553 | 75° | 157km/h | 11109m | -5.1m/s | -49.2°C | 23.7% | 0hPa | 2.5V | 07:54:00 | 00:00:00 | 00:00:00 | |
| DF3TZ-5 | 2026-08-31 01:39:11 | 47.30672 | 8.45441 | 75° | 155km/h | 11119m | -5.0m/s | -49.3°C | 23.2% | -1.0hPa | 2.5V | 00:00:00 | 00:00:00 | 00:00:00 | |
| DN1GJH-1 | 2026-08-31 01:39:08 | 47.30653 | 8.45326 | 77° | 161km/h | 11129m | -5.0m/s | -49.4°C | 23.5% | 0hPa | 2.5V | 07:54:00 | 00:00:00 | 00:00:00 | |
| OE9MKV-15 | 2026-08-31 01:39:06 | 47.30620 | 8.45154 | 73° | 157km/h | 11144m | -4.8m/s | -49.4°C | 28.2% | 0hPa | 2.5V | 00:00:00 | 03:04:54 | 00:00:00 | |
| IW2NTF | 2026-08-31 01:39:00 | 47.30546 | 8.44763 | 74° | 157km/h | 11178m | -5m/s | -49.7°C | 28% | 0hPa | 2.5V | 07:54:16 | 03:04:47 | 00:00:00 | |
| DB0ND-19 | 2026-08-31 01:38:57 | 47.30526 | 8.44651 | 75° | 155km/h | 11188m | -5.1m/s | -49.8°C | 22.7% | -1.0hPa | 2.5V | 00:00:00 | 00:00:00 | 00:00:00 | |
| DK5PH-5 | 2026-08-31 01:38:55 | 47.30506 | 8.44536 | 76° | 159km/h | 11198m | -4.7m/s | -49.8°C | 27.3% | 0hPa | 2.5V | 00:00:00 | 03:04:43 | 00:00:00 | |
| IW2NTF | 2026-08-31 01:38:52 | 47.30421 | 8.44086 | 76° | 159km/h | 11236m | -4.7m/s | -50°C | 26.1% | 0hPa | 2.5V | 07:54:28 | 03:04:35 | 00:00:00 | |
| DF7PN | 2026-08-31 01:38:51 | 47.30460 | 8.44307 | 72° | 153km/h | 11218m | -4.9m/s | -50.0°C | 21.8% | -1.0hPa | 2.4V | 00:00:00 | 00:00:00 | 00:00:00 | |
| DN1GJH-1 | 2026-08-31 01:38:48 | 47.30439 | 8.44198 | 77° | 151km/h | 11227m | -4.7m/s | -50.0°C | 21.8% | 0hPa | 2.4V | 07:54:00 | 00:00:00 | 00:00:00 | |
| IW2NTF | 2026-08-31 01:38:42 | 47.30313 | 8.43518 | 73° | 161km/h | 11283m | -4.5m/s | -50.3°C | 26.9% | 0hPa | 2.4V | 07:54:38 | 03:04:25 | 00:00:00 | |
| DF3TZ-5 | 2026-08-31 01:38:40 | 47.30335 | 8.43632 | 75° | 157km/h | 11274m | -4.6m/s | -50.2°C | 21.8% | -1.0hPa | 2.5V | 00:00:00 | 00:00:00 | 00:00:00 | |
| OE9MKV-15 | 2026-08-31 01:38:36 | 47.30302 | 8.43460 | 74° | 162km/h | 11288m | -4.7m/s | -50.3°C | 26.9% | 0hPa | 2.5V | 00:00:00 | 03:04:24 | 00:00:00 | |
| IW2NTF | 2026-08-31 01:38:32 | 47.30204 | 8.42940 | 74° | 157km/h | 11329m | -4.4m/s | -50.5°C | 27.5% | 0hPa | 2.4V | 07:54:48 | 03:04:15 | 00:00:00 | |
| DF1GD-15 | 2026-08-31 01:38:31 | 47.30258 | 8.43232 | 77° | 162km/h | 11307m | -4.4m/s | -50.4°C | 22.3% | 0hPa | 2.4V | 07:55:00 | 00:00:00 | 00:00:00 | |
| DH7VM-15 | 2026-08-31 01:38:30 | 47.30248 | 8.43173 | 77° | 164km/h | 11311m | -4.6m/s | -50.4°C | 22.1% | 0hPa | 2.4V | 00:00:00 | 00:00:00 | 00:00:00 | |
| DB0UT-7 | 2026-08-31 01:38:28 | 47.30215 | 8.42997 | 74° | 162km/h | 11325m | -4.4m/s | -50.5°C | 27.5% | 0hPa | 2.4V | 00:00:00 | 03:04:16 | 00:00:00 | |
| DB0ND-19 | 2026-08-31 01:38:26 | 47.30194 | 8.42883 | 75° | 157km/h | 11334m | -4.5m/s | -50.6°C | 22.4% | -1.0hPa | 2.5V | 00:00:00 | 00:00:00 | 00:00:00 | |
| DK5PH-5 | 2026-08-31 01:38:25 | 47.30184 | 8.42826 | 76° | 162km/h | 11339m | -4.6m/s | -50.6°C | 27.5% | 0hPa | 2.5V | 07:54:00 | 03:04:13 | 00:00:00 | |
| IW2NTF | 2026-08-31 01:38:22 | 47.30098 | 8.42358 | 74° | 166km/h | 11374m | -4.5m/s | -50.9°C | 27.9% | 0hPa | 2.5V | 07:54:58 | 03:04:05 | 00:00:00 | |
| DF7PN | 2026-08-31 01:38:20 | 47.30129 | 8.42535 | 74° | 161km/h | 11361m | -4.5m/s | -50.8°C | 22.7% | -1.0hPa | 2.4V | 00:00:00 | 00:00:00 | 00:00:00 | |
| IW2NTF | 2026-08-31 01:38:12 | 47.29987 | 8.41776 | 73° | 162km/h | 11418m | -4.4m/s | -51.2°C | 28.6% | 0hPa | 2.4V | 07:55:08 | 03:03:55 | 00:00:00 | |
| DF1GD-15 | 2026-08-31 01:38:10 | 47.30031 | 8.42012 | 77° | 162km/h | 11401m | -4.4m/s | -51.1°C | 23.4% | 0hPa | 2.4V | 07:55:00 | 00:00:00 | 00:00:00 | |
| DF3TZ-5 | 2026-08-31 01:38:09 | 47.29998 | 8.41834 | 73° | 164km/h | 11414m | -4.6m/s | -51.2°C | 23.3% | -1.0hPa | 2.4V | 00:00:00 | 00:00:00 | 00:00:00 | |
| DN1GJH-1 | 2026-08-31 01:38:07 | 47.29998 | 8.41834 | 75° | 164km/h | 11414m | -4.6m/s | -51.2°C | 23.5% | 0hPa | 2.4V | 07:55:00 | 00:00:00 | 00:00:00 | |
| IW2NTF | 2026-08-31 01:38:02 | 47.29881 | 8.41195 | 75° | 159km/h | 11461m | -4.4m/s | -51.5°C | 29.4% | 0hPa | 2.4V | 07:55:18 | 03:03:45 | 00:00:00 | |
| DB0ND-19 | 2026-08-31 01:37:55 | 47.29861 | 8.41078 | 76° | 162km/h | 11470m | -4.2m/s | -51.6°C | 24.1% | -1.0hPa | 2.4V | 00:00:00 | 00:00:00 | 00:00:00 | |
| DL1ZP-14 | 2026-08-31 01:37:53 | 47.29810 | 8.40786 | 76° | 161km/h | 11491m | -4.4m/s | -51.7°C | 24.2% | -1.0hPa | 2.4V | 00:00:00 | 00:00:00 | 00:00:00 | |
| IW2NTF | 2026-08-31 01:37:52 | 47.29779 | 8.40607 | 74° | 166km/h | 11504m | -4.2m/s | -51.8°C | 29.9% | 0hPa | 2.5V | 07:55:28 | 03:03:35 | 00:00:00 | |
| DF7PN | 2026-08-31 01:37:49 | 47.29800 | 8.40727 | 76° | 164km/h | 11496m | -4.4m/s | -51.7°C | 24.3% | -1.0hPa | 2.5V | 00:00:00 | 00:00:00 | 00:00:00 | |
| DN1GJH-1 | 2026-08-31 01:37:46 | 47.29779 | 8.40606 | 76° | 168km/h | 11504m | -4.2m/s | -51.8°C | 24.7% | 0hPa | 2.5V | 07:56:00 | 00:00:00 | 00:00:00 | |
| DO3MHA-11 | 2026-08-31 01:37:44 | 47.29745 | 8.40432 | 76° | 162km/h | 11517m | -4.1m/s | -51.8°C | 30.0% | 0hPa | 2.5V | 07:55:00 | 03:03:32 | 00:00:00 | |
| IW2NTF | 2026-08-31 01:37:40 | 47.29653 | 8.39904 | 77° | 164km/h | 11553m | -3.8m/s | -52.1°C | 30.3% | 0hPa | 2.5V | 07:55:40 | 03:03:23 | 00:00:00 | |
| DF3TZ-5 | 2026-08-31 01:37:38 | 47.29673 | 8.40021 | 75° | 161km/h | 11545m | -4.2m/s | -52.0°C | 24.5% | -1.0hPa | 2.4V | 00:00:00 | 00:00:00 | 00:00:00 | |
| DO3MHA-11 | 2026-08-31 01:37:34 | 47.29643 | 8.39844 | 78° | 166km/h | 11557m | -4.0m/s | -52.1°C | 30.3% | 0hPa | 2.4V | 00:00:00 | 03:03:22 | 00:00:00 | |
| IW2NTF | 2026-08-31 01:37:30 | 47.29552 | 8.39312 | 75° | 164km/h | 11594m | -4.2m/s | -52.5°C | 30.2% | 0hPa | 2.4V | 07:55:50 | 03:03:13 | 00:00:00 | |
| DB0UT-7 | 2026-08-31 01:37:28 | 47.29583 | 8.39490 | 77° | 162km/h | 11582m | -4.0m/s | -52.3°C | 30.3% | 0hPa | 2.4V | 00:00:00 | 03:03:16 | 00:00:00 | |
| DH7VM-15 | 2026-08-31 01:37:26 | 47.29573 | 8.39431 | 77° | 166km/h | 11586m | -4.2m/s | -52.4°C | 24.8% | 0hPa | 2.4V | 00:00:00 | 00:00:00 | 00:00:00 | |
| DK5PH-5 | 2026-08-31 01:37:25 | 47.29553 | 8.39312 | 76° | 162km/h | 11595m | -4.2m/s | -52.4°C | 30.2% | 0hPa | 2.4V | 00:00:00 | 03:03:13 | 00:00:00 | |
| DO3MHA-11 | 2026-08-31 01:37:24 | 47.29542 | 8.39254 | 76° | 153km/h | 11599m | -4.0m/s | -52.4°C | 30.2% | 0hPa | 2.4V | 00:00:00 | 03:03:12 | 00:00:00 | |
| IW2NTF | 2026-08-31 01:37:20 | 47.29456 | 8.38728 | 76° | 161km/h | 11635m | -4.3m/s | -52.7°C | 30% | 0hPa | 2.4V | 07:56:00 | 03:03:03 | 00:00:00 | |
| DF7PN | 2026-08-31 01:37:18 | 47.29485 | 8.38900 | 75° | 161km/h | 11623m | -3.9m/s | -52.6°C | 24.2% | -1.0hPa | 2.5V | 00:00:00 | 00:00:00 | 00:00:00 | |
| IW2NTF | 2026-08-31 01:37:10 | 47.29357 | 8.38135 | 75° | 166km/h | 11677m | -4.3m/s | -53°C | 29.6% | 0hPa | 2.5V | 07:56:10 | 03:02:53 | 00:00:00 | |
| DF1GD-15 | 2026-08-31 01:37:08 | 47.29394 | 8.38374 | 78° | 162km/h | 11660m | -4.0m/s | -52.9°C | 24.3% | 0hPa | 2.4V | 07:56:00 | 00:00:00 | 00:00:00 | |
| DF3TZ-5 | 2026-08-31 01:37:07 | 47.29367 | 8.38196 | 76° | 166km/h | 11673m | -4.3m/s | -52.9°C | 23.9% | -1.0hPa | 2.4V | 00:00:00 | 00:00:00 | 00:00:00 | |
| DN1GJH-1 | 2026-08-31 01:37:05 | 47.29367 | 8.38195 | 78° | 166km/h | 11673m | -4.3m/s | -52.9°C | 24.2% | 0hPa | 2.4V | 07:56:00 | 00:00:00 | 00:00:00 | |
| OE9MKV-15 | 2026-08-31 01:37:04 | 47.29347 | 8.38076 | 76° | 162km/h | 11681m | -4.1m/s | -52.9°C | 29.5% | 0hPa | 2.4V | 00:00:00 | 03:02:52 | 00:00:00 | |
| IW2NTF | 2026-08-31 01:37:00 | 47.29259 | 8.37544 | 76° | 161km/h | 11719m | -4m/s | -53.2°C | 29.4% | 0hPa | 2.4V | 07:56:20 | 03:02:43 | 00:00:00 | |
| DB0ND-19 | 2026-08-31 01:36:53 | 47.29242 | 8.37427 | 78° | 162km/h | 11727m | -4.4m/s | 0°C | -1.0% | -1.0hPa | 2.4V | 00:00:00 | 00:00:00 | 00:00:00 | |
| IW2NTF | 2026-08-31 01:36:50 | 47.29168 | 8.36953 | 77° | 164km/h | 11762m | -4.3m/s | -53.4°C | 28.9% | 0hPa | 2.4V | 07:56:30 | 03:02:33 | 00:00:00 | |
| DF7PN | 2026-08-31 01:36:47 | 47.29177 | 8.37013 | 77° | 162km/h | 11757m | -4.2m/s | -53.3°C | 23.1% | -1.0hPa | 2.5V | 00:00:00 | 00:00:00 | 00:00:00 | |
| DN1GJH-1 | 2026-08-31 01:36:44 | 47.29168 | 8.36953 | 78° | 164km/h | 11762m | -4.3m/s | -53.4°C | 23.5% | 0hPa | 2.5V | 07:57:00 | 00:00:00 | 00:00:00 | |
| IW2NTF | 2026-08-31 01:36:40 | 47.29073 | 8.36360 | 74° | 161km/h | 11806m | -4.3m/s | -53.6°C | 28.8% | 0hPa | 2.5V | 07:56:40 | 03:02:23 | 00:00:00 | |
| DF3TZ-5 | 2026-08-31 01:36:36 | 47.29073 | 8.36360 | 74° | 159km/h | 11806m | -4.3m/s | -53.6°C | 23.0% | -1.0hPa | 2.4V | 00:00:00 | 00:00:00 | 00:00:00 | |
| OE9MKV-15 | 2026-08-31 01:36:35 | 47.29026 | 8.36068 | 77° | 157km/h | 11828m | -4.5m/s | -53.7°C | 28.9% | 0hPa | 2.4V | 00:00:00 | 03:02:18 | 00:00:00 | |
| IW2NTF | 2026-08-31 01:36:30 | 47.28983 | 8.35780 | 78° | 161km/h | 11850m | -4.8m/s | -53.8°C | 29% | 0hPa | 2.4V | 07:56:50 | 03:02:13 | 00:00:00 | |
| DB0UT-7 | 2026-08-31 01:36:28 | 47.29007 | 8.35952 | 77° | 159km/h | 11837m | -4.2m/s | -53.7°C | 28.7% | 0hPa | 2.4V | 00:00:00 | 03:02:16 | 00:00:00 | |
| DF1GD-15 | 2026-08-31 01:36:27 | 47.29007 | 8.35952 | 78° | 157km/h | 11837m | -4.3m/s | -53.8°C | 23.2% | 0hPa | 2.4V | 07:57:00 | 00:00:00 | 00:00:00 | |
| DK5PH-5 | 2026-08-31 01:36:25 | 47.28982 | 8.35780 | 79° | 157km/h | 11850m | -4.8m/s | -53.8°C | 29.0% | 0hPa | 2.4V | 00:00:00 | 03:02:13 | 00:00:00 | |
| DH7VM-15 | 2026-08-31 01:36:22 | 47.28965 | 8.35662 | 78° | 164km/h | 11859m | -4.3m/s | -53.9°C | 23.4% | 0hPa | 2.5V | 00:00:00 | 00:00:00 | 00:00:00 | |
| IW2NTF | 2026-08-31 01:36:20 | 47.28887 | 8.35197 | 75° | 157km/h | 11896m | -4.9m/s | -54°C | 28.7% | 0hPa | 2.5V | 07:57:00 | 03:02:03 | 00:00:00 | |
| DF7PN | 2026-08-31 01:36:16 | 47.28887 | 8.35197 | 75° | 157km/h | 11896m | -4.9m/s | -54.0°C | 22.8% | -1.0hPa | 2.4V | 00:00:00 | 00:00:00 | 00:00:00 | |
| IW2NTF | 2026-08-31 01:36:10 | 47.28795 | 8.34629 | 77° | 157km/h | 11943m | -4.7m/s | -54.3°C | 28.6% | 0hPa | 2.4V | 07:57:10 | 03:01:53 | 00:00:00 | |
| DF1GD-15 | 2026-08-31 01:36:07 | 47.28823 | 8.34797 | 76° | 155km/h | 11929m | -4.8m/s | -54.2°C | 23.3% | 0hPa | 2.4V | 07:57:00 | 00:00:00 | 00:00:00 | |
| DF3TZ-5 | 2026-08-31 01:36:05 | 47.28786 | 8.34571 | 76° | 157km/h | 11948m | -4.9m/s | -54.3°C | 22.5% | -1.0hPa | 2.4V | 00:00:00 | 00:00:00 | 00:00:00 | |
| DN1GJH-1 | 2026-08-31 01:36:02 | 47.28776 | 8.34514 | 76° | 157km/h | 11952m | -4.8m/s | -54.3°C | 22.7% | 0hPa | 2.4V | 07:58:00 | 00:00:00 | 00:00:00 | |
| IW2NTF | 2026-08-31 01:36:00 | 47.28688 | 8.34073 | 71° | 155km/h | 11991m | -5.5m/s | -54.2°C | 26.7% | 0hPa | 2.4V | 07:57:20 | 03:01:43 | 00:00:00 | |
| DB0UT-7 | 2026-08-31 01:35:58 | 47.28724 | 8.34240 | 74° | 155km/h | 11977m | -4.6m/s | -54.3°C | 27.3% | 0hPa | 2.5V | 00:00:00 | 00:00:00 | 00:00:00 | |
| DK5PH-5 | 2026-08-31 01:35:55 | 47.28688 | 8.34073 | 72° | 151km/h | 11992m | -5.5m/s | -54.2°C | 26.7% | 0hPa | 2.5V | 00:00:00 | 03:01:43 | 00:00:00 | |
| IW2NTF | 2026-08-31 01:35:50 | 47.28571 | 8.33509 | 68° | 157km/h | 12044m | -5.6m/s | -54.2°C | 25.7% | 0hPa | 2.5V | 07:57:30 | 03:01:33 | 00:00:00 | |
| DL1ZP-14 | 2026-08-31 01:35:49 | 47.28612 | 8.33679 | 72° | 164km/h | 12027m | -5.9m/s | -54.2°C | 20.1% | -1.0hPa | 2.4V | 00:00:00 | 00:00:00 | 00:00:00 | |
| DF1GD-15 | 2026-08-31 01:35:46 | 47.28599 | 8.33621 | 72° | 162km/h | 12033m | -5.3m/s | -54.2°C | 20.5% | 0hPa | 2.4V | 07:58:00 | 00:00:00 | 00:00:00 | |
| DF7PN | 2026-08-31 01:35:45 | 47.28557 | 8.33455 | 68° | 151km/h | 12050m | -5.8m/s | -54.2°C | 19.9% | -1.0hPa | 2.4V | 00:00:00 | 00:00:00 | 00:00:00 | |
| DN1GJH-1 | 2026-08-31 01:35:42 | 47.28543 | 8.33403 | 70° | 148km/h | 12055m | -5.6m/s | -54.2°C | 20.1% | 0hPa | 2.4V | 07:58:00 | 00:00:00 | 00:00:00 | |
| IW2NTF | 2026-08-31 01:35:40 | 47.28461 | 8.32988 | 75° | 159km/h | 12098m | -5.4m/s | -54.1°C | 23.6% | 0hPa | 2.4V | 07:57:40 | 03:01:23 | 00:00:00 | |
| DF3TZ-5 | 2026-08-31 01:35:34 | 47.28439 | 8.32872 | 73° | 162km/h | 12109m | -5.8m/s | -54.1°C | 18.3% | -1.0hPa | 2.5V | 00:00:00 | 00:00:00 | 00:00:00 | |
| IW2NTF | 2026-08-31 01:35:30 | 47.28339 | 8.32449 | 71° | 135km/h | 12154m | -6m/s | -54°C | 22.5% | 0hPa | 2.5V | 07:57:50 | 03:01:13 | 00:00:00 | |
| DB0UT-7 | 2026-08-31 01:35:28 | 47.28375 | 8.32595 | 70° | 144km/h | 12137m | -5.5m/s | -54.1°C | 23.4% | 0hPa | 2.4V | 07:57:00 | 03:01:16 | 00:00:00 | |
| DF1GD-15 | 2026-08-31 01:35:26 | 47.28362 | 8.32546 | 70° | 141km/h | 12143m | -5.6m/s | -54.1°C | 18.0% | 0hPa | 2.4V | 07:58:00 | 00:00:00 | 00:00:00 | |
| DK5PH-5 | 2026-08-31 01:35:25 | 47.28339 | 8.32449 | 72° | 144km/h | 12155m | -5.9m/s | -53.9°C | 22.5% | 0hPa | 2.4V | 00:00:00 | 03:01:13 | 00:00:00 | |
| DN1GJH-1 | 2026-08-31 01:35:21 | 47.28308 | 8.32300 | 75° | 144km/h | 12171m | -5.7m/s | -54.0°C | 17.3% | 0hPa | 2.4V | 07:58:00 | 00:00:00 | 00:00:00 | |
| IW2NTF | 2026-08-31 01:35:20 | 47.28231 | 8.31939 | 73° | 144km/h | 12210m | -5.7m/s | -54°C | 21.8% | 0hPa | 2.4V | 07:58:00 | 03:01:03 | 00:00:00 | |
| DB0ND-19 | 2026-08-31 01:35:20 | 47.28288 | 8.32196 | 72° | 148km/h | 12182m | -5.3m/s | 0°C | -1.0% | -1.0hPa | 2.4V | 00:00:00 | 00:00:00 | 00:00:00 | |
| DH7VM-15 | 2026-08-31 01:35:17 | 47.28264 | 8.32091 | 72° | 146km/h | 12193m | -5.3m/s | -54.0°C | 17.0% | 0hPa | 2.4V | 00:00:00 | 00:00:00 | 00:00:00 | |
| DF7PN | 2026-08-31 01:35:14 | 47.28211 | 8.31835 | 73° | 146km/h | 12220m | -5.5m/s | -54.1°C | 16.6% | -1.0hPa | 2.4V | 00:00:00 | 00:00:00 | 00:00:00 | |
| IW2NTF | 2026-08-31 01:35:10 | 47.28116 | 8.31424 | 70° | 142km/h | 12265m | -6.1m/s | -54.2°C | 21.3% | 0hPa | 2.4V | 07:58:10 | 03:00:53 | 00:00:00 | |
| DF1GD-15 | 2026-08-31 01:35:05 | 47.28129 | 8.31474 | 71° | 146km/h | 12259m | -6.0m/s | -54.2°C | 16.5% | 0hPa | 2.5V | 07:58:00 | 00:00:00 | 00:00:00 | |
| DF3TZ-5 | 2026-08-31 01:35:03 | 47.28084 | 8.31273 | 74° | 142km/h | 12282m | -5.8m/s | -54.3°C | 16.2% | -1.0hPa | 2.5V | 00:00:00 | 00:00:00 | 00:00:00 | |
| IW2NTF | 2026-08-31 01:35:00 | 47.28007 | 8.30906 | 72° | 142km/h | 12322m | -5.6m/s | -54.5°C | 21.2% | 0hPa | 2.5V | 07:58:20 | 03:00:43 | 00:00:00 | |
| DB0ND-19 | 2026-08-31 01:34:49 | 47.27919 | 8.30493 | 73° | 144km/h | 12368m | -5.6m/s | 0°C | -1.0% | -1.0hPa | 2.4V | 00:00:00 | 00:00:00 | 00:00:00 | |
| IW2NTF | 2026-08-31 01:34:48 | 47.27873 | 8.30287 | 71° | 142km/h | 12391m | -5.8m/s | -54.9°C | 21.3% | 0hPa | 2.4V | 07:58:32 | 03:00:31 | 00:00:00 | |
| DF1GD-15 | 2026-08-31 01:34:44 | 47.27897 | 8.30388 | 73° | 146km/h | 12379m | -6.0m/s | -54.8°C | 16.4% | 0hPa | 2.4V | 07:58:00 | 00:00:00 | 00:00:00 | |
| DF7PN | 2026-08-31 01:34:43 | 47.27862 | 8.30237 | 72° | 141km/h | 12397m | -5.9m/s | -54.9°C | 16.2% | -1.0hPa | 2.4V | 00:00:00 | 00:00:00 | 00:00:00 | |
| DN1GJH-1 | 2026-08-31 01:34:39 | 47.27840 | 8.30135 | 73° | 146km/h | 12409m | -5.8m/s | -55.0°C | 16.6% | 0hPa | 2.4V | 07:58:00 | 00:00:00 | 00:00:00 | |
| IW2NTF | 2026-08-31 01:34:38 | 47.27756 | 8.29785 | 69° | 139km/h | 12449m | -5.8m/s | -55.3°C | 21.5% | 0hPa | 2.4V | 07:58:42 | 03:00:21 | 00:00:00 | |
| DF3TZ-5 | 2026-08-31 01:34:31 | 47.27732 | 8.29691 | 69° | 130km/h | 12461m | -6.5m/s | -55.4°C | 16.3% | -1.0hPa | 2.5V | 00:00:00 | 00:00:00 | 00:00:00 | |
| LOEBOVI | 2026-08-31 01:34:30 | 47.27732 | 8.29691 | 71° | 131km/h | 12461m | -6.5m/s | -55.4°C | 16.5% | 0hPa | 2.5V | 00:00:00 | 00:00:00 | 00:00:00 | |
| OE9MKV-15 | 2026-08-31 01:34:29 | 47.27711 | 8.29600 | 74° | 135km/h | 12474m | -6.0m/s | -55.4°C | 21.7% | 0hPa | 2.5V | 07:58:00 | 03:00:17 | 00:00:00 | |
| IW2NTF | 2026-08-31 01:34:28 | 47.27656 | 8.29303 | 72° | 151km/h | 12510m | -5.8m/s | -55.6°C | 21% | 0hPa | 2.5V | 07:58:52 | 03:00:11 | 00:00:00 | |
| DB0UT-7 | 2026-08-31 01:34:28 | 47.27702 | 8.29554 | 75° | 137km/h | 12480m | -6.1m/s | -55.4°C | 21.6% | 0hPa | 2.5V | 00:00:00 | 03:00:16 | 00:00:00 | |
| DF1GD-15 | 2026-08-31 01:34:24 | 47.27677 | 8.29408 | 76° | 142km/h | 12499m | -5.5m/s | -55.6°C | 16.3% | 0hPa | 2.5V | 07:58:00 | 00:00:00 | 00:00:00 | |
| DB0ND-19 | 2026-08-31 01:34:18 | 47.27588 | 8.29048 | 66° | 139km/h | 12541m | -6.0m/s | 0°C | -1.0% | -1.0hPa | 2.5V | 00:00:00 | 00:00:00 | 00:00:00 | |
| IW2NTF | 2026-08-31 01:34:16 | 47.27502 | 8.28732 | 71° | 124km/h | 12585m | -6.4m/s | -56°C | 21.2% | 0hPa | 2.5V | 07:59:04 | 02:59:59 | 00:00:00 | |
| DF7PN | 2026-08-31 01:34:12 | 47.27503 | 8.28732 | 71° | 124km/h | 12585m | -6.4m/s | -56.0°C | 15.8% | -1.0hPa | 2.4V | 00:00:00 | 00:00:00 | 00:00:00 | |
| IW2NTF | 2026-08-31 01:34:06 | 47.27412 | 8.28251 | 71° | 141km/h | 12646m | -5.8m/s | -56.5°C | 21.8% | 0hPa | 2.4V | 07:59:14 | 02:59:49 | 00:00:00 | |
| DF1GD-15 | 2026-08-31 01:34:05 | 47.27453 | 8.28454 | 77° | 139km/h | 12623m | -5.7m/s | -56.3°C | 16.4% | 0hPa | 2.5V | 07:59:00 | 00:00:00 | 00:00:00 | |
| DK5PH-5 | 2026-08-31 01:34:00 | 47.27401 | 8.28202 | 71° | 124km/h | 12653m | -6.1m/s | -56.4°C | 21.8% | 0hPa | 2.5V | 07:59:00 | 02:59:48 | 00:00:00 | |
| DB0UT-7 | 2026-08-31 01:33:58 | 47.27379 | 8.28107 | 72° | 128km/h | 12664m | -5.8m/s | -56.4°C | 21.6% | 0hPa | 2.5V | 00:00:00 | 00:00:00 | 00:00:00 | |
| IW2NTF | 2026-08-31 01:33:56 | 47.27313 | 8.27768 | 70° | 141km/h | 12707m | -5.4m/s | -56.5°C | 20.7% | 0hPa | 2.5V | 07:59:24 | 02:59:39 | 00:00:00 | |
| OE9MKV-15 | 2026-08-31 01:33:54 | 47.27343 | 8.27918 | 77° | 124km/h | 12688m | -6.0m/s | -56.4°C | 20.6% | 0hPa | 2.4V | 00:00:00 | 02:59:42 | 00:00:00 | |
| IW2NTF | 2026-08-31 01:33:46 | 47.27207 | 8.27336 | 78° | 124km/h | 12767m | -6.1m/s | -56.5°C | 20.1% | 0hPa | 2.4V | 07:59:34 | 02:59:29 | 00:00:00 | |
| DL1ZP-14 | 2026-08-31 01:33:45 | 47.27229 | 8.27464 | 72° | 113km/h | 12749m | -6.3m/s | -56.4°C | 15.1% | -1.0hPa | 2.4V | 00:00:00 | 00:00:00 | 00:00:00 | |
| DF1GD-15 | 2026-08-31 01:33:43 | 47.27229 | 8.27464 | 74° | 115km/h | 12750m | -6.3m/s | -56.4°C | 15.4% | 0hPa | 2.4V | 07:59:00 | 00:00:00 | 00:00:00 | |
| DF7PN | 2026-08-31 01:33:40 | 47.27201 | 8.27290 | 78° | 128km/h | 12774m | -6.5m/s | -56.5°C | 14.6% | -1.0hPa | 2.4V | 00:00:00 | 00:00:00 | 00:00:00 | |
| DN1GJH-1 | 2026-08-31 01:33:38 | 47.27194 | 8.27243 | 79° | 131km/h | 12780m | -6.3m/s | -56.5°C | 14.9% | 0hPa | 2.4V | 07:59:00 | 00:00:00 | 00:00:00 | |
| IW2NTF | 2026-08-31 01:33:36 | 47.27106 | 8.26880 | 66° | 117km/h | 12828m | -6.2m/s | -56.9°C | 20.3% | 0hPa | 2.4V | 07:59:44 | 02:59:19 | 00:00:00 | |
| DF3TZ-5 | 2026-08-31 01:33:29 | 47.27085 | 8.26802 | 70° | 108km/h | 12840m | -6.1m/s | -57.0°C | 14.6% | -1.0hPa | 2.5V | 00:00:00 | 00:00:00 | 00:00:00 | |
| DB0UT-7 | 2026-08-31 01:33:28 | 47.27077 | 8.26764 | 73° | 122km/h | 12847m | -6.7m/s | -57.0°C | 20.0% | 0hPa | 2.5V | 00:00:00 | 02:59:16 | 00:00:00 | |
| IW2NTF | 2026-08-31 01:33:26 | 47.27026 | 8.26461 | 73° | 133km/h | 12889m | -6.2m/s | -57.1°C | 19.2% | 0hPa | 2.5V | 07:59:54 | 02:59:09 | 00:00:00 | |
| DK5PH-5 | 2026-08-31 01:33:26 | 47.27062 | 8.26685 | 77° | 124km/h | 12859m | -5.9m/s | -57.0°C | 19.8% | 0hPa | 2.4V | 00:00:00 | 02:59:14 | 00:00:00 | |
| OE9MKV-15 | 2026-08-31 01:33:23 | 47.27042 | 8.26555 | 78° | 122km/h | 12877m | -6.1m/s | -57.1°C | 19.5% | 0hPa | 2.4V | 00:00:00 | 02:59:11 | 00:00:00 | |
| DF1GD-15 | 2026-08-31 01:33:22 | 47.27042 | 8.26555 | 78° | 126km/h | 12877m | -6.1m/s | -57.1°C | 14.5% | 0hPa | 2.4V | 08:00:00 | 00:00:00 | 00:00:00 | |
| IW2NTF | 2026-08-31 01:33:17 | 47.26924 | 8.26046 | 76° | 113km/h | 12949m | -5.7m/s | -57.5°C | 18.6% | 0hPa | 2.4V | 08:00:04 | 02:58:59 | 00:00:00 | |
| DL1ZP-14 | 2026-08-31 01:33:14 | 47.26938 | 8.26125 | 73° | 106km/h | 12937m | -6.0m/s | -57.4°C | 13.4% | -1.0hPa | 2.5V | 00:00:00 | 00:00:00 | 00:00:00 | |
| DF7PN | 2026-08-31 01:33:10 | 47.26911 | 8.25960 | 77° | 122km/h | 12961m | -6.1m/s | -57.6°C | 13.3% | -1.0hPa | 2.5V | 00:00:00 | 00:00:00 | 00:00:00 | |
| IW2NTF | 2026-08-31 01:33:06 | 47.26826 | 8.25592 | 64° | 128km/h | 13011m | -6.5m/s | -57.8°C | 18.9% | 0hPa | 2.5V | 08:00:14 | 02:58:49 | 00:00:00 | |
| DH7VM-15 | 2026-08-31 01:33:02 | 47.26839 | 8.25635 | 67° | 131km/h | 13005m | -6.3m/s | -57.8°C | 13.7% | 0hPa | 2.4V | 00:00:00 | 00:00:00 | 00:00:00 | |
| DF1GD-15 | 2026-08-31 01:33:01 | 47.26839 | 8.25635 | 67° | 131km/h | 13005m | -6.3m/s | -57.8°C | 13.8% | 0hPa | 2.4V | 08:00:00 | 00:00:00 | 00:00:00 | |
| DB0UT-7 | 2026-08-31 01:32:58 | 47.26785 | 8.25469 | 65° | 122km/h | 13030m | -6.4m/s | -57.9°C | 18.6% | 0hPa | 2.4V | 00:00:00 | 00:00:00 | 00:00:00 | |
| IW2NTF | 2026-08-31 01:32:56 | 47.26715 | 8.25180 | 69° | 128km/h | 13071m | -5.9m/s | -58.2°C | 18.3% | 0hPa | 2.4V | 08:00:24 | 02:58:39 | 00:00:00 | |
| OE9MKV-15 | 2026-08-31 01:32:53 | 47.26735 | 8.25268 | 74° | 120km/h | 13059m | -6.0m/s | -58.0°C | 18.3% | 0hPa | 2.4V | 00:00:00 | 02:58:41 | 00:00:00 | |
| IW2NTF | 2026-08-31 01:32:46 | 47.26596 | 8.24764 | 74° | 117km/h | 13129m | -6.3m/s | -58.5°C | 17.8% | 0hPa | 2.4V | 08:00:34 | 02:58:29 | 00:00:00 | |
| DK5PH-5 | 2026-08-31 01:32:45 | 47.26635 | 8.24925 | 66° | 119km/h | 13107m | -5.3m/s | -58.4°C | 17.9% | 0hPa | 2.4V | 00:00:00 | 02:58:33 | 00:00:00 | |
| DF1GD-15 | 2026-08-31 01:32:40 | 47.26596 | 8.24764 | 76° | 117km/h | 13130m | -6.3m/s | -58.5°C | 12.7% | 0hPa | 2.4V | 08:01:00 | 00:00:00 | 00:00:00 | |
| DF7PN | 2026-08-31 01:32:38 | 47.26572 | 8.24633 | 73° | 126km/h | 13149m | -6.0m/s | -58.4°C | 12.3% | -1.0hPa | 2.4V | 00:00:00 | 00:00:00 | 00:00:00 | |
| IW2NTF | 2026-08-31 01:32:36 | 47.26482 | 8.24320 | 62° | 122km/h | 13191m | -5.8m/s | -58.6°C | 17.7% | 0hPa | 2.4V | 08:00:44 | 02:58:19 | 00:00:00 | |
| DB0UT-7 | 2026-08-31 01:32:28 | 47.26442 | 8.24206 | 65° | 122km/h | 13210m | -6.3m/s | -58.7°C | 18.1% | 0hPa | 2.4V | 00:00:00 | 02:58:16 | 00:00:00 | |
| DF3TZ-5 | 2026-08-31 01:32:27 | 47.26431 | 8.24169 | 67° | 108km/h | 13216m | -5.4m/s | -58.8°C | 12.6% | -1.0hPa | 2.4V | 00:00:00 | 00:00:00 | 00:00:00 | |
| IW2NTF | 2026-08-31 01:32:26 | 47.26380 | 8.23923 | 74° | 128km/h | 13251m | -6.1m/s | -58.9°C | 18.2% | 0hPa | 2.4V | 08:00:54 | 02:58:09 | 00:00:00 | |
| OE9MKV-15 | 2026-08-31 01:32:23 | 47.26397 | 8.24011 | 75° | 124km/h | 13240m | -5.9m/s | -58.8°C | 18.2% | 0hPa | 2.5V | 00:00:00 | 02:58:11 | 00:00:00 | |
| DF1GD-15 | 2026-08-31 01:32:20 | 47.26380 | 8.23923 | 75° | 128km/h | 13251m | -6.1m/s | -58.9°C | 13.0% | 0hPa | 2.5V | 08:01:00 | 00:00:00 | 00:00:00 | |
| IW2NTF | 2026-08-31 01:32:16 | 47.26252 | 8.23491 | 64° | 111km/h | 13312m | -6m/s | -59.3°C | 18.3% | 0hPa | 2.5V | 08:01:04 | 02:57:59 | 00:00:00 | |
| DK5PH-5 | 2026-08-31 01:32:14 | 47.26293 | 8.23606 | 63° | 124km/h | 13294m | -5.9m/s | -59.1°C | 18.3% | 0hPa | 2.5V | 00:00:00 | 02:58:02 | 00:00:00 | |
| DL1ZP-14 | 2026-08-31 01:32:11 | 47.26252 | 8.23491 | 64° | 110km/h | 13312m | -6.0m/s | -59.3°C | 12.7% | -1.0hPa | 2.5V | 00:00:00 | 00:00:00 | 00:00:00 | |
| IW2NTF | 2026-08-31 01:32:06 | 47.26147 | 8.23063 | 66° | 137km/h | 13373m | -5.7m/s | -59.4°C | 18.4% | 0hPa | 2.4V | 08:01:14 | 02:57:49 | 00:00:00 | |
| DF1GD-15 | 2026-08-31 01:31:59 | 47.26133 | 8.23017 | 65° | 135km/h | 13379m | -6.0m/s | -59.4°C | 12.9% | 0hPa | 2.4V | 08:01:00 | 00:00:00 | 00:00:00 | |
| DB0UT-7 | 2026-08-31 01:31:58 | 47.26103 | 8.22929 | 62° | 124km/h | 13392m | -6.2m/s | -59.5°C | 17.9% | 0hPa | 2.4V | 00:00:00 | 00:00:00 | 00:00:00 | |
| IW2NTF | 2026-08-31 01:31:56 | 47.26014 | 8.22651 | 73° | 119km/h | 13433m | -5.7m/s | -59.7°C | 17.6% | 0hPa | 2.4V | 08:01:24 | 02:57:39 | 00:00:00 | |
| DF3TZ-5 | 2026-08-31 01:31:56 | 47.26072 | 8.22848 | 60° | 119km/h | 13404m | -6.3m/s | -59.6°C | 12.2% | -1.0hPa | 2.5V | 00:00:00 | 00:00:00 | 00:00:00 | |
| OE9MKV-15 | 2026-08-31 01:31:53 | 47.26033 | 8.22732 | 68° | 122km/h | 13423m | -5.3m/s | -59.6°C | 17.8% | 0hPa | 2.5V | 00:00:00 | 02:57:41 | 00:00:00 | |
| IW2NTF | 2026-08-31 01:31:46 | 47.25897 | 8.22197 | 64° | 120km/h | 13494m | -5.1m/s | -59.9°C | 17.1% | 0hPa | 2.4V | 08:01:34 | 02:57:29 | 00:00:00 | |
| DK5PH-5 | 2026-08-31 01:31:44 | 47.25940 | 8.22325 | 66° | 117km/h | 13477m | -5.8m/s | -59.8°C | 17.1% | 0hPa | 2.5V | 00:00:00 | 02:57:32 | 00:00:00 | |
| DN1GJH-1 | 2026-08-31 01:31:42 | 47.25925 | 8.22280 | 65° | 131km/h | 13483m | -5.9m/s | -59.8°C | 11.9% | 0hPa | 2.5V | 08:02:00 | 00:00:00 | 00:00:00 | |
| DL1ZP-14 | 2026-08-31 01:31:40 | 47.25874 | 8.22119 | 68° | 110km/h | 13505m | -5.9m/s | -59.8°C | 11.4% | -1.0hPa | 2.5V | 00:00:00 | 00:00:00 | 00:00:00 | |
| DF1GD-15 | 2026-08-31 01:31:38 | 47.25874 | 8.22119 | 69° | 111km/h | 13505m | -5.9m/s | -59.8°C | 11.7% | 0hPa | 2.4V | 08:02:00 | 00:00:00 | 00:00:00 | |
| IW2NTF | 2026-08-31 01:31:36 | 47.25806 | 8.21775 | 71° | 135km/h | 13552m | -5.6m/s | -59.7°C | 15.8% | 0hPa | 2.4V | 08:01:44 | 02:57:19 | 00:00:00 | |
| DF7PN | 2026-08-31 01:31:36 | 47.25848 | 8.22001 | 75° | 115km/h | 13523m | -5.9m/s | -59.6°C | 11.0% | -1.0hPa | 2.5V | 00:00:00 | 00:00:00 | 00:00:00 | |
| DB0UT-7 | 2026-08-31 01:31:28 | 47.25769 | 8.21639 | 67° | 113km/h | 13569m | -5.4m/s | -59.7°C | 15.7% | 0hPa | 2.5V | 00:00:00 | 02:57:16 | 00:00:00 | |
| IW2NTF | 2026-08-31 01:31:27 | 47.25708 | 8.21366 | 78° | 113km/h | 13610m | -5.9m/s | -59.5°C | 14.8% | 0hPa | 2.5V | 08:01:54 | 02:57:09 | 00:00:00 | |
| DF3TZ-5 | 2026-08-31 01:31:25 | 47.25737 | 8.21521 | 70° | 106km/h | 13586m | -6.1m/s | -59.6°C | 10.1% | -1.0hPa | 2.4V | 00:00:00 | 00:00:00 | 00:00:00 | |
| OE9MKV-15 | 2026-08-31 01:31:23 | 47.25721 | 8.21445 | 75° | 113km/h | 13598m | -5.7m/s | -59.5°C | 15.0% | 0hPa | 2.4V | 00:00:00 | 02:57:11 | 00:00:00 | |
| DF1GD-15 | 2026-08-31 01:31:18 | 47.25695 | 8.21281 | 77° | 122km/h | 13622m | -5.4m/s | -59.6°C | 9.9% | 0hPa | 2.4V | 08:02:00 | 00:00:00 | 00:00:00 | |
| DN1GJH-1 | 2026-08-31 01:31:17 | 47.25686 | 8.21236 | 74° | 126km/h | 13628m | -5.4m/s | -59.6°C | 9.7% | 0hPa | 2.4V | 08:02:00 | 00:00:00 | 00:00:00 | |
| IW2NTF | 2026-08-31 01:31:16 | 47.25599 | 8.20940 | 62° | 113km/h | 13670m | -6.5m/s | -59.6°C | 14.3% | 0hPa | 2.4V | 08:02:04 | 02:56:59 | 00:00:00 | |
| DK5PH-5 | 2026-08-31 01:31:14 | 47.25640 | 8.21059 | 66° | 108km/h | 13651m | -6.0m/s | -59.6°C | 14.4% | 0hPa | 2.4V | 00:00:00 | 02:57:02 | 00:00:00 | |
| IW2NTF | 2026-08-31 01:31:06 | 47.25513 | 8.20577 | 75° | 113km/h | 13731m | -6.2m/s | -59.6°C | 13.7% | 0hPa | 2.4V | 08:02:14 | 02:56:49 | 00:00:00 | |
| DF7PN | 2026-08-31 01:31:05 | 47.25539 | 8.20730 | 75° | 99km/h | 13706m | -5.7m/s | -59.5°C | 8.8% | -1.0hPa | 2.5V | 00:00:00 | 00:00:00 | 00:00:00 | |
| DH7VM-15 | 2026-08-31 01:31:03 | 47.25532 | 8.20693 | 78° | 104km/h | 13713m | -6.9m/s | -59.6°C | 9.0% | 0hPa | 2.5V | 00:00:00 | 00:00:00 | 00:00:00 | |
| DB0UT-7 | 2026-08-31 01:30:58 | 47.25485 | 8.20453 | 67° | 104km/h | 13748m | -5.5m/s | -59.4°C | 13.2% | 0hPa | 2.5V | 08:02:00 | 00:00:00 | 00:00:00 | |
| DN1GJH-1 | 2026-08-31 01:30:56 | 47.25472 | 8.20414 | 64° | 117km/h | 13753m | -5.8m/s | -59.5°C | 8.5% | 0hPa | 2.4V | 08:03:00 | 00:00:00 | 00:00:00 | |
| IW2NTF | 2026-08-31 01:30:55 | 47.25379 | 8.20146 | 71° | 99km/h | 13800m | -5.3m/s | -59.2°C | 12.3% | 0hPa | 2.4V | 08:02:26 | 02:56:37 | 00:00:00 | |
| DF3TZ-5 | 2026-08-31 01:30:54 | 47.25432 | 8.20307 | 60° | 100km/h | 13770m | -5.4m/s | -59.5°C | 8.0% | -1.0hPa | 2.5V | 00:00:00 | 00:00:00 | 00:00:00 | |
| OE9MKV-15 | 2026-08-31 01:30:53 | 47.25419 | 8.20275 | 61° | 104km/h | 13776m | -6.2m/s | -59.4°C | 12.6% | 0hPa | 2.5V | 00:00:00 | 02:56:41 | 00:00:00 | |
| IW2NTF | 2026-08-31 01:30:44 | 47.25258 | 8.19774 | 56° | 100km/h | 13863m | -6.2m/s | -59°C | 11.8% | 0hPa | 2.5V | 08:02:36 | 02:56:27 | 00:00:00 | |
| DO3MHA-11 | 2026-08-31 01:30:42 | 47.25302 | 8.19876 | 60° | 75km/h | 13845m | -7.3m/s | -59.3°C | 12.3% | 0hPa | 2.5V | 00:00:00 | 02:56:30 | 00:00:00 | |
| DB0ND-19 | 2026-08-31 01:30:41 | 47.25245 | 8.19744 | 56° | 93km/h | 13869m | -5.7m/s | 0°C | -1.0% | -1.0hPa | 2.5V | 00:00:00 | 00:00:00 | 00:00:00 | |
| DL1ZP-14 | 2026-08-31 01:30:38 | 47.25245 | 8.19744 | 56° | 93km/h | 13869m | -5.7m/s | -59.1°C | 7.3% | -1.0hPa | 2.5V | 00:00:00 | 00:00:00 | 00:00:00 | |
| DF1GD-15 | 2026-08-31 01:30:37 | 47.25245 | 8.19743 | 58° | 95km/h | 13869m | -5.7m/s | -59.1°C | 7.5% | 0hPa | 2.5V | 08:03:00 | 00:00:00 | 00:00:00 | |
| DN1GJH-1 | 2026-08-31 01:30:36 | 47.25232 | 8.19715 | 59° | 89km/h | 13875m | -5.8m/s | -59.1°C | 7.5% | 0hPa | 2.5V | 08:03:00 | 00:00:00 | 00:00:00 | |
| IW2NTF | 2026-08-31 01:30:34 | 47.25154 | 8.19462 | 67° | 113km/h | 13927m | -6.5m/s | -59.6°C | 11.4% | 0hPa | 2.5V | 08:02:46 | 02:56:17 | 00:00:00 | |
| DB0UT-7 | 2026-08-31 01:30:28 | 47.25142 | 8.19423 | 65° | 104km/h | 13934m | -6.7m/s | -59.5°C | 11.6% | 0hPa | 2.5V | 00:00:00 | 02:56:16 | 00:00:00 | |
| IW2NTF | 2026-08-31 01:30:24 | 47.25003 | 8.19119 | 54° | 91km/h | 13990m | -6.4m/s | -60°C | 11.8% | 0hPa | 2.5V | 08:02:56 | 02:56:07 | 00:00:00 | |
| OE9MKV-15 | 2026-08-31 01:30:23 | 47.25066 | 8.19237 | 54° | 104km/h | 13966m | -5.9m/s | -59.8°C | 11.8% | 0hPa | 2.5V | 08:02:00 | 02:56:11 | 00:00:00 | |
| LOEBOVI | 2026-08-31 01:30:19 | 47.25017 | 8.19146 | 53° | 95km/h | 13984m | -6.0m/s | -60.0°C | 7.2% | 0hPa | 2.5V | 00:00:00 | 00:00:00 | 00:00:00 | |
| DF1GD-15 | 2026-08-31 01:30:17 | 47.24990 | 8.19091 | 58° | 89km/h | 13996m | -6.3m/s | -60.1°C | 7.3% | 0hPa | 2.5V | 08:03:00 | 00:00:00 | 00:00:00 | |
| DN1GJH-1 | 2026-08-31 01:30:16 | 47.24979 | 8.19062 | 61° | 89km/h | 14002m | -5.7m/s | -60.2°C | 7.3% | 0hPa | 2.5V | 08:03:00 | 00:00:00 | 00:00:00 | |
| IW2NTF | 2026-08-31 01:30:14 | 47.24876 | 8.18778 | 54° | 117km/h | 14051m | -6.1m/s | -60.5°C | 11.8% | 0hPa | 2.5V | 08:03:06 | 02:55:57 | 00:00:00 | |
| DK5PH-5 | 2026-08-31 01:30:12 | 47.24923 | 8.18890 | 63° | 102km/h | 14031m | -5.9m/s | -60.4°C | 11.7% | 0hPa | 2.5V | 00:00:00 | 02:56:00 | 00:00:00 | |
| DB0ND-19 | 2026-08-31 01:30:10 | 47.24737 | 8.18436 | 69° | 104km/h | 14122m | -6.5m/s | 0°C | -1.0% | -1.0hPa | 2.5V | 00:00:00 | 00:00:00 | 00:00:00 | |
| DL1ZP-14 | 2026-08-31 01:30:07 | 47.24625 | 8.18145 | 54° | 102km/h | 14174m | -6.9m/s | -60.0°C | 5.5% | -1.0hPa | 2.5V | 00:00:00 | 00:00:00 | 00:00:00 | |
| IW2NTF | 2026-08-31 01:30:04 | 47.24746 | 8.18472 | 68° | 100km/h | 14116m | -6.3m/s | -59.8°C | 10.5% | 0hPa | 2.5V | 08:03:16 | 02:55:47 | 00:00:00 | |
| DH7VM-15 | 2026-08-31 01:30:00 | 47.24764 | 8.18538 | 68° | 91km/h | 14102m | -6.8m/s | -59.8°C | 6.2% | 0hPa | 2.6V | 00:00:00 | 00:00:00 | 00:00:00 | |
| IW2NTF | 2026-08-31 01:29:58 | 47.24548 | 8.17915 | 69° | 111km/h | 14219m | -7.1m/s | -60.2°C | 10% | 0hPa | 2.6V | 08:03:32 | 02:55:31 | 00:00:00 | |
| DF3TZ-5 | 2026-08-31 01:29:52 | 47.24641 | 8.18177 | 53° | 108km/h | 14167m | -6.7m/s | -59.9°C | 5.6% | -1.0hPa | 2.5V | 00:00:00 | 00:00:00 | 00:00:00 | |
| IW2NTF | 2026-08-31 01:29:49 | 47.24467 | 8.17678 | 56° | 117km/h | 14259m | -5.9m/s | -60.4°C | 9.7% | 0hPa | 2.5V | 08:03:38 | 02:55:25 | 00:00:00 | |
| DK5PH-5 | 2026-08-31 01:29:42 | 47.24538 | 8.17876 | 69° | 113km/h | 14227m | -7.0m/s | -60.1°C | 10.1% | 0hPa | 2.5V | 08:03:00 | 02:55:30 | 00:00:00 | |
| DL1ZP-14 | 2026-08-31 01:29:36 | 47.24451 | 8.17643 | 54° | 111km/h | 14265m | -6.2m/s | -60.4°C | 5.3% | -1.0hPa | 2.5V | 00:00:00 | 00:00:00 | 00:00:00 | |
| IW2NTF | 2026-08-31 01:29:32 | 47.24346 | 8.17339 | 71° | 111km/h | 14325m | -6.5m/s | -60.3°C | 9.5% | 0hPa | 2.5V | 08:03:48 | 02:55:15 | 00:00:00 | |
| DF7PN | 2026-08-31 01:29:32 | 47.24393 | 8.17515 | 61° | 95km/h | 14292m | -6.5m/s | -60.6°C | 5.1% | -1.0hPa | 2.5V | 00:00:00 | 00:00:00 | 00:00:00 | |
| DB0UT-7 | 2026-08-31 01:29:28 | 47.24354 | 8.17377 | 72° | 108km/h | 14319m | -7.2m/s | -60.3°C | 9.6% | 0hPa | 2.5V | 00:00:00 | 02:55:16 | 00:00:00 | |
| IW2NTF | 2026-08-31 01:29:22 | 47.24210 | 8.16928 | 58° | 117km/h | 14391m | -6.2m/s | -60.4°C | 9% | 0hPa | 2.5V | 08:03:58 | 02:55:05 | 00:00:00 | |
| OE5DXL-15 | 2026-08-31 01:29:22 | 47.24288 | 8.17129 | 64° | 106km/h | 14358m | -6.1m/s | -60.3°C | 9.1% | 0hPa | 2.5V | 00:00:00 | 00:00:00 | 00:00:00 | |
| DF3TZ-5 | 2026-08-31 01:29:21 | 47.24274 | 8.17086 | 61° | 128km/h | 14364m | -7.3m/s | -60.4°C | 4.7% | -1.0hPa | 2.6V | 00:00:00 | 00:00:00 | 00:00:00 | |
| DF1GD-15 | 2026-08-31 01:29:15 | 47.24196 | 8.16892 | 61° | 110km/h | 14398m | -5.9m/s | -60.4°C | 4.8% | 0hPa | 2.6V | 08:04:00 | 00:00:00 | 00:00:00 | |
| IW2NTF | 2026-08-31 01:29:12 | 47.24102 | 8.16582 | 67° | 99km/h | 14454m | -6.2m/s | -60.4°C | 8.7% | 0hPa | 2.6V | 08:04:08 | 02:54:55 | 00:00:00 | |
| DK5PH-5 | 2026-08-31 01:29:12 | 47.24150 | 8.16753 | 69° | 102km/h | 14422m | -6.5m/s | -60.3°C | 8.7% | 0hPa | 2.4V | 00:00:00 | 02:55:00 | 00:00:00 | |
| DL1ZP-14 | 2026-08-31 01:29:05 | 47.24083 | 8.16514 | 67° | 97km/h | 14467m | -6.3m/s | -60.4°C | 4.3% | -1.0hPa | 2.4V | 00:00:00 | 00:00:00 | 00:00:00 | |
| IW2NTF | 2026-08-31 01:29:03 | 47.24026 | 8.16240 | 79° | 102km/h | 14519m | -6.4m/s | -59.8°C | 7.7% | 0hPa | 2.5V | 08:04:18 | 02:54:45 | 00:00:00 | |
| DF7PN | 2026-08-31 01:29:01 | 47.24049 | 8.16381 | 72° | 95km/h | 14493m | -6.6m/s | -60.0°C | 4.0% | -1.0hPa | 2.5V | 00:00:00 | 00:00:00 | 00:00:00 | |
| DB0UT-7 | 2026-08-31 01:28:58 | 47.24031 | 8.16277 | 79° | 104km/h | 14513m | -6.9m/s | -59.7°C | 7.8% | 0hPa | 2.5V | 00:00:00 | 00:00:00 | 00:00:00 | |
| LOEBOVI | 2026-08-31 01:28:57 | 47.24026 | 8.16240 | 81° | 102km/h | 14519m | -6.4m/s | -59.8°C | 3.9% | 0hPa | 2.5V | 00:00:00 | 00:00:00 | 00:00:00 | |
| DF1GD-15 | 2026-08-31 01:28:55 | 47.24018 | 8.16163 | 82° | 110km/h | 14533m | -6.4m/s | -59.8°C | 3.9% | 0hPa | 2.5V | 08:04:00 | 00:00:00 | 00:00:00 | |
| DH7VM-15 | 2026-08-31 01:28:54 | 47.24018 | 8.16163 | 82° | 110km/h | 14533m | -6.4m/s | -59.8°C | 3.9% | 0hPa | 2.5V | 00:00:00 | 00:00:00 | 00:00:00 | |
| IW2NTF | 2026-08-31 01:28:53 | 47.23962 | 8.15829 | 66° | 110km/h | 14581m | -5.9m/s | -60.2°C | 7.6% | 0hPa | 2.5V | 08:04:28 | 02:54:35 | 00:00:00 | |
| DF3TZ-5 | 2026-08-31 01:28:50 | 47.23991 | 8.15950 | 75° | 119km/h | 14564m | -6.1m/s | -60.1°C | 3.6% | -1.0hPa | 2.6V | 00:00:00 | 00:00:00 | 00:00:00 | |
| IW2NTF | 2026-08-31 01:28:42 | 47.23901 | 8.15497 | 82° | 97km/h | 14645m | -6.2m/s | -60.1°C | 7.4% | 0hPa | 2.6V | 08:04:38 | 02:54:25 | 00:00:00 | |
| DK5PH-5 | 2026-08-31 01:28:42 | 47.23918 | 8.15663 | 76° | 93km/h | 14614m | -6.5m/s | -60.0°C | 7.6% | 0hPa | 2.5V | 00:00:00 | 02:54:30 | 00:00:00 | |
| DL1ZP-14 | 2026-08-31 01:28:34 | 47.23886 | 8.15384 | 75° | 108km/h | 14663m | -5.6m/s | -60.1°C | 0% | -1.0hPa | 2.5V | 00:00:00 | 00:00:00 | 00:00:00 | |
| IW2NTF | 2026-08-31 01:28:32 | 47.23824 | 8.15109 | 68° | 111km/h | 14705m | -6.3m/s | -59.9°C | 7.2% | 0hPa | 2.5V | 08:04:48 | 02:54:15 | 00:00:00 | |
| DF7PN | 2026-08-31 01:28:30 | 47.23853 | 8.15226 | 70° | 111km/h | 14687m | -5.8m/s | -60.0°C | 3.3% | -1.0hPa | 2.5V | 00:00:00 | 00:00:00 | 00:00:00 | |
| DB0UT-7 | 2026-08-31 01:28:28 | 47.23834 | 8.15148 | 70° | 97km/h | 14699m | -6.3m/s | -59.9°C | 7.3% | 0hPa | 2.5V | 00:00:00 | 02:54:16 | 00:00:00 | |
| IW2NTF | 2026-08-31 01:28:22 | 47.23711 | 8.14775 | 60° | 89km/h | 14768m | -6.9m/s | -59.6°C | 7.1% | 0hPa | 2.5V | 08:04:58 | 02:54:05 | 00:00:00 | |
| OE5DXL-15 | 2026-08-31 01:28:22 | 47.23769 | 8.14928 | 64° | 73km/h | 14737m | -6.1m/s | -59.7°C | 7.3% | 0hPa | 2.6V | 00:00:00 | 00:00:00 | 00:00:00 | |
| DF3TZ-5 | 2026-08-31 01:28:19 | 47.23722 | 8.14804 | 60° | 89km/h | 14762m | -6.2m/s | -59.6°C | -1.0% | -1.0hPa | 2.6V | 00:00:00 | 00:00:00 | 00:00:00 | |
| OE9MKV-15 | 2026-08-31 01:28:15 | 47.23690 | 8.14719 | 62° | 95km/h | 14782m | -6.5m/s | -59.5°C | 7.2% | 0hPa | 2.6V | 00:00:00 | 02:54:03 | 00:00:00 | |
| DF1GD-15 | 2026-08-31 01:28:13 | 47.23680 | 8.14692 | 64° | 80km/h | 14788m | -6.5m/s | -59.5°C | 3.5% | 0hPa | 2.6V | 08:05:00 | 00:00:00 | 00:00:00 | |
| IW2NTF | 2026-08-31 01:28:12 | 47.23637 | 8.14482 | 78° | 93km/h | 14831m | -6.6m/s | -58.8°C | 6.7% | 0hPa | 2.6V | 08:05:08 | 02:53:55 | 00:00:00 | |
| IW2NTF | 2026-08-31 01:28:03 | 47.23541 | 8.14113 | 59° | 106km/h | 14896m | -6.1m/s | -58.9°C | 6.6% | 0hPa | 2.5V | 08:05:18 | 02:53:45 | 00:00:00 | |
| DF7PN | 2026-08-31 01:27:59 | 47.23568 | 8.14184 | 62° | 111km/h | 14883m | -6.7m/s | -58.8°C | 2.9% | -1.0hPa | 2.5V | 00:00:00 | 00:00:00 | 00:00:00 | |
| DB0UT-7 | 2026-08-31 01:27:58 | 47.23555 | 8.14148 | 61° | 95km/h | 14890m | -6.3m/s | -58.8°C | 6.6% | 0hPa | 2.5V | 00:00:00 | 00:00:00 | 00:00:00 | |
| DF1GD-15 | 2026-08-31 01:27:53 | 47.23502 | 8.14020 | 60° | 89km/h | 14914m | -5.7m/s | -59.0°C | 3.1% | 0hPa | 2.5V | 08:05:00 | 00:00:00 | 00:00:00 | |
| IW2NTF | 2026-08-31 01:27:52 | 47.23450 | 8.13810 | 78° | 95km/h | 14959m | -6.1m/s | -59°C | 6.8% | 0hPa | 2.5V | 08:05:28 | 02:53:35 | 00:00:00 | |
| DH7VM-15 | 2026-08-31 01:27:50 | 47.23473 | 8.13936 | 69° | 84km/h | 14933m | -6.2m/s | -59.1°C | 3.1% | 0hPa | 2.6V | 00:00:00 | 00:00:00 | 00:00:00 | |
| OE9MKV-15 | 2026-08-31 01:27:43 | 47.23426 | 8.13660 | 74° | 91km/h | 14984m | -5.9m/s | -58.9°C | 6.6% | 0hPa | 2.6V | 00:00:00 | 02:53:31 | 00:00:00 | |
| IW2NTF | 2026-08-31 01:27:42 | 47.23361 | 8.13431 | 62° | 102km/h | 15021m | -5.6m/s | -59.1°C | 6.6% | 0hPa | 2.6V | 08:05:38 | 02:53:25 | 00:00:00 | |
| DK5PH-5 | 2026-08-31 01:27:42 | 47.23417 | 8.13619 | 72° | 93km/h | 14990m | -6.5m/s | -59.0°C | 6.7% | 0hPa | 2.6V | 00:00:00 | 02:53:30 | 00:00:00 | |
| LOEBOVI | 2026-08-31 01:27:33 | 47.23328 | 8.13340 | 63° | 86km/h | 15040m | -7.5m/s | -59.2°C | 3.0% | 0hPa | 2.6V | 00:00:00 | 00:00:00 | 00:00:00 | |
| DL1ZP-14 | 2026-08-31 01:27:32 | 47.23301 | 8.13257 | 68° | 78km/h | 15059m | -6.8m/s | -59.2°C | 2.9% | -1.0hPa | 2.6V | 00:00:00 | 00:00:00 | 00:00:00 | |
| IW2NTF | 2026-08-31 01:27:30 | 47.23274 | 8.13088 | 82° | 80km/h | 15100m | -7.3m/s | -58.8°C | 6.3% | 0hPa | 2.6V | 08:05:50 | 02:53:13 | 00:00:00 | |
| DB0UT-7 | 2026-08-31 01:27:28 | 47.23284 | 8.13175 | 78° | 86km/h | 15079m | -7.7m/s | -59.0°C | 6.5% | 0hPa | 2.5V | 00:00:00 | 02:53:16 | 00:00:00 | |
| IW2NTF | 2026-08-31 01:27:19 | 47.23195 | 8.12730 | 60° | 82km/h | 15172m | -6.7m/s | -59°C | 6.5% | 0hPa | 2.5V | 08:06:01 | 02:53:02 | 00:00:00 | |
| OE9MKV-15 | 2026-08-31 01:27:13 | 47.23185 | 8.12704 | 62° | 78km/h | 15179m | -6.8m/s | -59.0°C | 6.5% | 0hPa | 2.6V | 00:00:00 | 02:53:01 | 00:00:00 | |
| DK5PH-5 | 2026-08-31 01:27:12 | 47.23177 | 8.12680 | 64° | 64km/h | 15186m | -6.6m/s | -58.9°C | 6.5% | 0hPa | 2.5V | 00:00:00 | 02:53:00 | 00:00:00 | |
| IW2NTF | 2026-08-31 01:27:08 | 47.23140 | 8.12435 | 78° | 97km/h | 15245m | -6.3m/s | -59°C | 6.4% | 0hPa | 2.5V | 08:06:12 | 02:52:51 | 00:00:00 | |
| HASLITAL | 2026-08-31 01:27:02 | 47.23140 | 8.12435 | 79° | 97km/h | 15245m | -6.3m/s | -59.0°C | 3.0% | 0hPa | 2.6V | 08:06:00 | 00:00:00 | 00:00:00 | |
| DL1ZP-14 | 2026-08-31 01:27:01 | 47.23121 | 8.12328 | 73° | 100km/h | 15266m | -7.2m/s | -59.1°C | 2.7% | -1.0hPa | 2.6V | 00:00:00 | 00:00:00 | 00:00:00 | |
| DF7PN | 2026-08-31 01:26:57 | 47.23086 | 8.12191 | 64° | 93km/h | 15294m | -6.9m/s | -59.4°C | 2.7% | -1.0hPa | 2.5V | 00:00:00 | 00:00:00 | 00:00:00 | |
| DF3TZ-5 | 2026-08-31 01:26:46 | 47.23000 | 8.11926 | 74° | 58km/h | 15369m | -7.1m/s | -59.2°C | -1.0% | -1.0hPa | 2.5V | 00:00:00 | 00:00:00 | 00:00:00 | |
| OE9MKV-15 | 2026-08-31 01:26:43 | 47.22993 | 8.11882 | 80° | 78km/h | 15384m | -7.0m/s | -59.2°C | 6.4% | 0hPa | 2.5V | 00:00:00 | 02:52:31 | 00:00:00 | |
| HASLITAL | 2026-08-31 01:26:40 | 47.22988 | 8.11834 | 83° | 69km/h | 15398m | -7.1m/s | -59.3°C | 2.9% | 0hPa | 2.5V | 08:07:00 | 00:00:00 | 00:00:00 | |
| DL1ZP-14 | 2026-08-31 01:26:30 | 47.22894 | 8.11517 | 52° | 73km/h | 15484m | -7.5m/s | -59.7°C | 2.6% | -1.0hPa | 2.5V | 00:00:00 | 00:00:00 | 00:00:00 | |
| IW2NTF | 2026-08-31 01:26:29 | 47.22842 | 8.11422 | 54° | 57km/h | 15521m | -7.4m/s | -59.8°C | 6.7% | 0hPa | 2.5V | 08:06:51 | 02:52:12 | 00:00:00 | |
| DB0UT-7 | 2026-08-31 01:26:28 | 47.22882 | 8.11496 | 52° | 73km/h | 15491m | -7.5m/s | -59.7°C | 6.5% | 0hPa | 2.5V | 08:06:00 | 02:52:16 | 00:00:00 | |
| DF7PN | 2026-08-31 01:26:26 | 47.22851 | 8.11439 | 51° | 60km/h | 15513m | -7.2m/s | -59.8°C | 2.7% | -1.0hPa | 2.6V | 00:00:00 | 00:00:00 | 00:00:00 | |
| DN1GJH-1 | 2026-08-31 01:26:24 | 47.22851 | 8.11439 | 53° | 60km/h | 15513m | -7.2m/s | -59.8°C | 2.9% | 0hPa | 2.6V | 00:00:00 | 00:00:00 | 00:00:00 | |
| DK5PH-5 | 2026-08-31 01:26:20 | 47.22818 | 8.11351 | 74° | 78km/h | 15550m | -7.1m/s | -59.7°C | 6.6% | 0hPa | 2.6V | 00:00:00 | 02:52:08 | 00:00:00 | |
| IW2NTF | 2026-08-31 01:26:19 | 47.22787 | 8.11196 | 66° | 86km/h | 15594m | -7.5m/s | -59.9°C | 6.7% | 0hPa | 2.6V | 08:07:01 | 02:52:02 | 00:00:00 | |
| DF3TZ-5 | 2026-08-31 01:26:14 | 47.22787 | 8.11196 | 66° | 86km/h | 15594m | -7.5m/s | -59.9°C | -1.0% | -1.0hPa | 2.5V | 00:00:00 | 00:00:00 | 00:00:00 | |
| LOEBOVI | 2026-08-31 01:26:10 | 47.22755 | 8.11108 | 58° | 89km/h | 15616m | -8.3m/s | -59.4°C | 2.7% | 0hPa | 2.5V | 00:00:00 | 00:00:00 | 00:00:00 | |
| IW2NTF | 2026-08-31 01:26:09 | 47.22660 | 8.10943 | 48° | 73km/h | 15669m | -6.8m/s | -58.6°C | 5.9% | 0hPa | 2.5V | 08:07:11 | 02:51:52 | 00:00:00 | |
| DL1ZP-14 | 2026-08-31 01:25:59 | 47.22609 | 8.10808 | 69° | 75km/h | 15711m | -7.4m/s | -58.3°C | 2.1% | -1.0hPa | 2.5V | 00:00:00 | 00:00:00 | 00:00:00 | |
| DF7PN | 2026-08-31 01:25:55 | 47.22583 | 8.10701 | 72° | 77km/h | 15740m | -7.5m/s | -58.4°C | 2.1% | -1.0hPa | 2.6V | 00:00:00 | 00:00:00 | 00:00:00 | |
| DN1GJH-1 | 2026-08-31 01:25:52 | 47.22577 | 8.10673 | 74° | 80km/h | 15747m | -7.3m/s | -58.3°C | 2.3% | 0hPa | 2.6V | 00:00:00 | 00:00:00 | 00:00:00 | |
| DF1GD-15 | 2026-08-31 01:25:48 | 47.22553 | 8.10552 | 74° | 91km/h | 15777m | -7.8m/s | -58.2°C | 2.2% | 0hPa | 2.6V | 08:08:00 | 00:00:00 | 00:00:00 | |
| DK5PH-5 | 2026-08-31 01:25:45 | 47.22521 | 8.10416 | 68° | 95km/h | 15806m | -6.9m/s | -58.0°C | 5.4% | 0hPa | 2.6V | 00:00:00 | 02:51:33 | 00:00:00 | |
| DH7VM-15 | 2026-08-31 01:25:42 | 47.22500 | 8.10347 | 66° | 102km/h | 15820m | -7.0m/s | -57.9°C | 2.0% | 0hPa | 2.6V | 00:00:00 | 00:00:00 | 00:00:00 | |
| HASLITAL | 2026-08-31 01:25:37 | 47.22443 | 8.10187 | 62° | 91km/h | 15856m | -7.1m/s | -57.7°C | 2.1% | 0hPa | 2.6V | 08:08:00 | 00:00:00 | 00:00:00 | |
| DN1GJH-1 | 2026-08-31 01:25:29 | 47.22376 | 8.09965 | 79° | 80km/h | 15915m | -7.5m/s | -57.7°C | 1.6% | 0hPa | 2.6V | 00:00:00 | 00:00:00 | 00:00:00 | |
| DB0UT-7 | 2026-08-31 01:25:28 | 47.22369 | 8.09906 | 84° | 91km/h | 15929m | -6.9m/s | -57.7°C | 5.2% | 0hPa | 2.6V | 00:00:00 | 02:51:16 | 00:00:00 | |
| DL1ZP-14 | 2026-08-31 01:25:27 | 47.22368 | 8.09874 | 85° | 86km/h | 15936m | -7.9m/s | -57.7°C | 1.7% | -1.0hPa | 2.6V | 00:00:00 | 00:00:00 | 00:00:00 | |
| DF7PN | 2026-08-31 01:25:24 | 47.22366 | 8.09733 | 90° | 104km/h | 15967m | -7.8m/s | -57.5°C | 1.7% | -1.0hPa | 2.5V | 00:00:00 | 00:00:00 | 00:00:00 | |
| HASLITAL | 2026-08-31 01:25:16 | 47.22355 | 8.09482 | 81° | 113km/h | 16012m | -6.8m/s | -57.4°C | 1.9% | 0hPa | 2.5V | 08:08:00 | 00:00:00 | 00:00:00 | |
| DK5PH-5 | 2026-08-31 01:25:15 | 47.22343 | 8.09403 | 77° | 77km/h | 16026m | -7.3m/s | -57.2°C | 5.1% | 0hPa | 2.5V | 00:00:00 | 02:51:03 | 00:00:00 | |
| DF3TZ-5 | 2026-08-31 01:25:12 | 47.22323 | 8.09273 | 78° | 80km/h | 16056m | -8.4m/s | -56.6°C | -1.0% | -1.0hPa | 2.5V | 00:00:00 | 00:00:00 | 00:00:00 | |
| DF1GD-15 | 2026-08-31 01:25:07 | 47.22313 | 8.09188 | 85° | 73km/h | 16080m | -8.3m/s | -56.3°C | 1.7% | 0hPa | 2.5V | 08:08:00 | 00:00:00 | 00:00:00 | |
| DL1ZP-14 | 2026-08-31 01:24:56 | 47.22334 | 8.08842 | 89° | 82km/h | 16174m | -7.7m/s | -56.1°C | 1.4% | -1.0hPa | 2.5V | 00:00:00 | 00:00:00 | 00:00:00 | |
| DF7PN | 2026-08-31 01:24:53 | 47.22325 | 8.08733 | 79° | 66km/h | 16205m | -7.5m/s | -55.9°C | 1.4% | -1.0hPa | 2.5V | 00:00:00 | 00:00:00 | 00:00:00 | |
| LOEBOVI | 2026-08-31 01:24:47 | 47.22312 | 8.08640 | 79° | 62km/h | 16236m | -7.9m/s | -56.1°C | 1.6% | 0hPa | 2.5V | 00:00:00 | 00:00:00 | 00:00:00 | |
| DK5PH-5 | 2026-08-31 01:24:45 | 47.22302 | 8.08575 | 75° | 46km/h | 16260m | -8.0m/s | -56.1°C | 4.5% | 0hPa | 2.5V | 08:08:00 | 02:50:33 | 00:00:00 | |
| DH7VM-15 | 2026-08-31 01:24:37 | 47.22277 | 8.08447 | 75° | 44km/h | 16316m | -7.3m/s | -56.5°C | 1.6% | 0hPa | 2.5V | 00:00:00 | 00:00:00 | 00:00:00 | |
| HASLITAL | 2026-08-31 01:24:34 | 47.22270 | 8.08405 | 83° | 31km/h | 16340m | -8.8m/s | -56.3°C | 1.6% | 0hPa | 2.5V | 08:09:00 | 00:00:00 | 00:00:00 | |
| DB0UT-7 | 2026-08-31 01:24:28 | 47.22284 | 8.08316 | 108° | 40km/h | 16394m | -6.8m/s | -56.2°C | 4.5% | 0hPa | 2.5V | 00:00:00 | 02:50:16 | 00:00:00 | |
| DF1GD-15 | 2026-08-31 01:24:26 | 47.22287 | 8.08299 | 106° | 49km/h | 16402m | -7.8m/s | -56.3°C | 1.6% | 0hPa | 2.5V | 08:09:00 | 00:00:00 | 00:00:00 | |
| DL1ZP-14 | 2026-08-31 01:24:25 | 47.22292 | 8.08262 | 98° | 51km/h | 16417m | -7.5m/s | -56.4°C | 1.4% | -1.0hPa | 2.5V | 00:00:00 | 00:00:00 | 00:00:00 | |
| DF7PN | 2026-08-31 01:24:21 | 47.22295 | 8.08184 | 85° | 53km/h | 16448m | -7.9m/s | -56.3°C | 1.4% | -1.0hPa | 2.6V | 00:00:00 | 00:00:00 | 00:00:00 | |
| DK5PH-5 | 2026-08-31 01:24:15 | 47.22273 | 8.08077 | 61° | 27km/h | 16495m | -7.8m/s | -56.4°C | 4.6% | 0hPa | 2.6V | 00:00:00 | 02:50:03 | 00:00:00 | |
| HASLITAL | 2026-08-31 01:24:14 | 47.22273 | 8.08077 | 62° | 46km/h | 16495m | -7.9m/s | -56.5°C | 1.6% | 0hPa | 2.6V | 08:09:00 | 00:00:00 | 00:00:00 | |
| DF1GD-15 | 2026-08-31 01:24:06 | 47.22218 | 8.07992 | 36° | 35km/h | 16558m | -7.6m/s | -56.4°C | 1.6% | 0hPa | 2.6V | 08:09:00 | 00:00:00 | 00:00:00 | |
| DL1ZP-14 | 2026-08-31 01:23:54 | 47.22157 | 8.07952 | 57° | 11km/h | 16655m | -7.7m/s | -55.4°C | 1.2% | -1.0hPa | 2.6V | 00:00:00 | 00:00:00 | 00:00:00 | |
| DF7PN | 2026-08-31 01:23:50 | 47.22154 | 8.07928 | 84° | 24km/h | 16687m | -8.2m/s | -55.4°C | 1.2% | -1.0hPa | 2.5V | 00:00:00 | 00:00:00 | 00:00:00 | |
| DK5PH-5 | 2026-08-31 01:23:45 | 47.22145 | 8.07869 | 69° | 42km/h | 16727m | -7.9m/s | -55.7°C | 4.2% | 0hPa | 2.5V | 00:00:00 | 02:49:33 | 00:00:00 | |
| HASLITAL | 2026-08-31 01:23:33 | 47.22060 | 8.07773 | 11° | 31km/h | 16816m | -8.0m/s | -56.6°C | 1.5% | 0hPa | 2.5V | 08:09:00 | 00:00:00 | 00:00:00 | |
| DB0UT-7 | 2026-08-31 01:23:28 | 47.22032 | 8.07766 | 57° | 37km/h | 16866m | -8.4m/s | -57.0°C | 4.5% | 0hPa | 2.5V | 00:00:00 | 02:49:16 | 00:00:00 | |
| DF1GD-15 | 2026-08-31 01:23:25 | 47.22029 | 8.07755 | 82° | 20km/h | 16882m | -8.1m/s | -57.2°C | 1.5% | 0hPa | 2.5V | 08:09:00 | 00:00:00 | 00:00:00 | |
| LOEBOVI | 2026-08-31 01:23:24 | 47.22028 | 8.07746 | 81° | 27km/h | 16890m | -7.8m/s | -57.2°C | 1.5% | 0hPa | 2.5V | 00:00:00 | 00:00:00 | 00:00:00 | |
| DL1ZP-14 | 2026-08-31 01:23:23 | 47.22024 | 8.07723 | 71° | 37km/h | 16906m | -8.2m/s | -57.2°C | 1.3% | -1.0hPa | 2.5V | 00:00:00 | 00:00:00 | 00:00:00 | |
| DF7PN | 2026-08-31 01:23:19 | 47.22002 | 8.07667 | 48° | 49km/h | 16938m | -7.9m/s | -57.1°C | 1.3% | -1.0hPa | 2.6V | 00:00:00 | 00:00:00 | 00:00:00 | |
| DK5PH-5 | 2026-08-31 01:23:15 | 47.21960 | 8.07620 | 28° | 49km/h | 16970m | -7.9m/s | -57.1°C | 4.4% | 0hPa | 2.6V | 00:00:00 | 02:49:03 | 00:00:00 | |
| HASLITAL | 2026-08-31 01:23:13 | 47.21948 | 8.07612 | 23° | 49km/h | 16978m | -7.9m/s | -57.2°C | 1.5% | 0hPa | 2.6V | 08:10:00 | 00:00:00 | 00:00:00 | |
| DF1GD-15 | 2026-08-31 01:23:04 | 47.21867 | 8.07578 | 24° | 26km/h | 17048m | -7.7m/s | -57.8°C | 1.6% | 0hPa | 2.6V | 08:10:00 | 00:00:00 | 00:00:00 | |
| DL1ZP-14 | 2026-08-31 01:22:52 | 47.21787 | 8.07411 | 49° | 60km/h | 17154m | -7.9m/s | -56.7°C | 1.2% | -1.0hPa | 2.6V | 00:00:00 | 00:00:00 | 00:00:00 | |
| DF7PN | 2026-08-31 01:22:48 | 47.21740 | 8.07353 | 33° | 58km/h | 17186m | -8.2m/s | -57.0°C | 1.3% | -1.0hPa | 2.5V | 00:00:00 | 00:00:00 | 00:00:00 | |
| OE9MKV-15 | 2026-08-31 01:22:45 | 47.21704 | 8.07318 | 34° | 53km/h | 17211m | -8.1m/s | -57.0°C | 4.7% | 0hPa | 2.5V | 00:00:00 | 02:48:33 | 00:00:00 | |
| DF1GD-15 | 2026-08-31 01:22:44 | 47.21704 | 8.07318 | 34° | 53km/h | 17211m | -8.1m/s | -57.0°C | 1.5% | 0hPa | 2.5V | 08:10:00 | 00:00:00 | 00:00:00 | |
| HASLITAL | 2026-08-31 01:22:31 | 47.21590 | 8.07187 | 45° | 38km/h | 17318m | -8.7m/s | -55.7°C | 1.3% | 0hPa | 2.5V | 08:10:00 | 00:00:00 | 00:00:00 | |
| DK5PH-5 | 2026-08-31 01:22:30 | 47.21577 | 8.07166 | 53° | 51km/h | 17335m | -8.0m/s | -55.6°C | 4.2% | 0hPa | 2.5V | 00:00:00 | 02:48:18 | 00:00:00 | |
| DB0UT-7 | 2026-08-31 01:22:28 | 47.21567 | 8.07142 | 64° | 51km/h | 17351m | -8.4m/s | -55.7°C | 4.2% | 0hPa | 2.5V | 00:00:00 | 02:48:16 | 00:00:00 | |
| DF1GD-15 | 2026-08-31 01:22:23 | 47.21553 | 8.07079 | 76° | 53km/h | 17385m | -8.2m/s | -56.1°C | 1.3% | 0hPa | 2.5V | 08:11:00 | 00:00:00 | 00:00:00 | |
| DL1ZP-14 | 2026-08-31 01:22:21 | 47.21541 | 8.07015 | 74° | 66km/h | 17410m | -8.4m/s | -56.2°C | 1.2% | -1.0hPa | 2.5V | 00:00:00 | 00:00:00 | 00:00:00 | |
| DO3MHA-11 | 2026-08-31 01:22:18 | 47.21524 | 8.06941 | 68° | 71km/h | 17436m | -8.5m/s | -56.3°C | 4.5% | 0hPa | 2.5V | 00:00:00 | 02:48:06 | 00:00:00 | |
| DF7PN | 2026-08-31 01:22:17 | 47.21516 | 8.06916 | 64° | 73km/h | 17444m | -8.6m/s | -56.4°C | 1.2% | -1.0hPa | 2.5V | 00:00:00 | 00:00:00 | 00:00:00 | |
| OE9MKV-15 | 2026-08-31 01:22:15 | 47.21499 | 8.06868 | 58° | 46km/h | 17461m | -8.0m/s | -56.2°C | 4.5% | 0hPa | 2.5V | 00:00:00 | 02:48:03 | 00:00:00 | |
| HASLITAL | 2026-08-31 01:22:11 | 47.21469 | 8.06809 | 51° | 60km/h | 17486m | -8.3m/s | -56.0°C | 1.4% | 0hPa | 2.5V | 08:11:00 | 00:00:00 | 00:00:00 | |
| DO3MHA-11 | 2026-08-31 01:22:06 | 47.21423 | 8.06734 | 50° | 47km/h | 17536m | -8.7m/s | -55.9°C | 4.3% | 0hPa | 2.5V | 00:00:00 | 02:47:54 | 00:00:00 | |
| DF1GD-15 | 2026-08-31 01:22:02 | 47.21411 | 8.06705 | 72° | 27km/h | 17563m | -8.8m/s | -55.9°C | 1.3% | 0hPa | 2.5V | 08:11:00 | 00:00:00 | 00:00:00 | |
| DB0ND-19 | 2026-08-31 01:21:53 | 47.21333 | 8.06445 | 42° | 47km/h | 17702m | -8.0m/s | -55.7°C | 1.1% | -1.0hPa | 2.5V | 00:00:00 | 00:00:00 | 00:00:00 | |
| DF7PN | 2026-08-31 01:21:46 | 47.21325 | 8.06433 | 41° | 42km/h | 17709m | -7.6m/s | -55.7°C | 1.1% | -1.0hPa | 2.5V | 00:00:00 | 00:00:00 | 00:00:00 | |
| DL1ZP-14 | 2026-08-31 01:21:45 | 47.21317 | 8.06424 | 43° | 35km/h | 17717m | -8.2m/s | -55.7°C | 1.1% | -1.0hPa | 2.5V | 00:00:00 | 00:00:00 | 00:00:00 | |
| DO3MHA-11 | 2026-08-31 01:21:43 | 47.21306 | 8.06406 | 52° | 27km/h | 17734m | -8.2m/s | -55.8°C | 4.4% | 0hPa | 2.5V | 00:00:00 | 02:47:31 | 00:00:00 | |
| DF1GD-15 | 2026-08-31 01:21:42 | 47.21306 | 8.06406 | 52° | 29km/h | 17734m | -8.2m/s | -55.8°C | 1.4% | 0hPa | 2.5V | 08:11:00 | 00:00:00 | 00:00:00 | |
| DO3MHA-11 | 2026-08-31 01:21:33 | 47.21282 | 8.06323 | 97° | 44km/h | 17821m | -8.9m/s | -55.3°C | 4.2% | 0hPa | 2.5V | 00:00:00 | 02:47:21 | 00:00:00 | |
| DK5PH-5 | 2026-08-31 01:21:30 | 47.21285 | 8.06287 | 94° | 42km/h | 17847m | -8.8m/s | -55.2°C | 4.1% | 0hPa | 2.5V | 00:00:00 | 02:47:18 | 00:00:00 | |
| DB0UT-7 | 2026-08-31 01:21:28 | 47.21284 | 8.06256 | 83° | 42km/h | 17864m | -8.3m/s | -55.2°C | 4.1% | 0hPa | 2.5V | 00:00:00 | 02:47:16 | 00:00:00 | |
| OE9MKV-15 | 2026-08-31 01:21:26 | 47.21279 | 8.06222 | 72° | 42km/h | 17881m | -8.0m/s | -55.0°C | 4.0% | 0hPa | 2.5V | 00:00:00 | 02:47:14 | 00:00:00 | |
| DH7VM-15 | 2026-08-31 01:21:24 | 47.21274 | 8.06205 | 67° | 49km/h | 17889m | -8.9m/s | -55.0°C | 1.2% | 0hPa | 2.5V | 00:00:00 | 00:00:00 | 00:00:00 | |
| DB0ND-19 | 2026-08-31 01:21:22 | 47.21257 | 8.06159 | 59° | 46km/h | 17915m | -8.6m/s | -55.0°C | 1.0% | -1.0hPa | 2.5V | 00:00:00 | 00:00:00 | 00:00:00 | |
| DF1GD-15 | 2026-08-31 01:21:21 | 47.21257 | 8.06158 | 60° | 46km/h | 17916m | -8.6m/s | -55.0°C | 1.2% | 0hPa | 2.5V | 08:12:00 | 00:00:00 | 00:00:00 | |
| DO3MHA-11 | 2026-08-31 01:21:18 | 47.21234 | 8.06105 | 55° | 42km/h | 17950m | -8.3m/s | -54.9°C | 4.0% | 0hPa | 2.5V | 00:00:00 | 02:47:06 | 00:00:00 | |
| DF7PN | 2026-08-31 01:21:15 | 47.21217 | 8.06068 | 55° | 40km/h | 17975m | -8.6m/s | -55.1°C | 1.0% | -1.0hPa | 2.5V | 00:00:00 | 00:00:00 | 00:00:00 | |
| DL1ZP-14 | 2026-08-31 01:21:14 | 47.21211 | 8.06055 | 57° | 42km/h | 17984m | -8.7m/s | -55.2°C | 1.0% | -1.0hPa | 2.5V | 00:00:00 | 00:00:00 | 00:00:00 | |
| HASLITAL | 2026-08-31 01:21:10 | 47.21194 | 8.06014 | 59° | 44km/h | 18010m | -9.1m/s | -55.3°C | 1.3% | 0hPa | 2.5V | 08:12:00 | 00:00:00 | 00:00:00 | |
| DO3MHA-11 | 2026-08-31 01:21:08 | 47.21176 | 8.05975 | 52° | 53km/h | 18036m | -8.8m/s | -55.0°C | 4.0% | 0hPa | 2.5V | 00:00:00 | 02:46:56 | 00:00:00 | |
| DB0ND-19 | 2026-08-31 01:20:51 | 47.21051 | 8.05845 | 27° | 31km/h | 18187m | -9.2m/s | -55.8°C | 1.1% | -1.0hPa | 2.5V | 00:00:00 | 00:00:00 | 00:00:00 | |
| HASLITAL | 2026-08-31 01:20:50 | 47.21051 | 8.05845 | 28° | 33km/h | 18187m | -9.2m/s | -55.8°C | 1.3% | 0hPa | 2.5V | 08:12:00 | 00:00:00 | 00:00:00 | |
| DF7PN | 2026-08-31 01:20:44 | 47.21011 | 8.05805 | 54° | 20km/h | 18250m | -9.3m/s | -56.0°C | 1.1% | -1.0hPa | 2.5V | 00:00:00 | 00:00:00 | 00:00:00 | |
| DL1ZP-14 | 2026-08-31 01:20:43 | 47.21008 | 8.05798 | 64° | 20km/h | 18259m | -8.8m/s | -56.0°C | 1.1% | -1.0hPa | 2.5V | 00:00:00 | 00:00:00 | 00:00:00 | |
| DF1GD-15 | 2026-08-31 01:20:40 | 47.21006 | 8.05783 | 83° | 22km/h | 18277m | -9.0m/s | -56.0°C | 1.3% | 0hPa | 2.5V | 08:13:00 | 00:00:00 | 00:00:00 | |
| LOEBOVI | 2026-08-31 01:20:38 | 47.21005 | 8.05765 | 98° | 29km/h | 18296m | -9.5m/s | -56.0°C | 1.3% | 0hPa | 2.5V | 00:00:00 | 00:00:00 | 00:00:00 | |
| IW2NTF | 2026-08-31 01:20:31 | 47.20977 | 8.05537 | 57° | 51km/h | 18405m | -9m/s | -55°C | 4% | 0hPa | 2.5V | 08:12:48 | 02:46:15 | 00:00:00 | |
| DK5PH-5 | 2026-08-31 01:20:30 | 47.20997 | 8.05593 | 68° | 31km/h | 18378m | -9.1m/s | -55.3°C | 4.2% | 0hPa | 2.5V | 00:00:00 | 02:46:18 | 00:00:00 | |
| HASLITAL | 2026-08-31 01:20:29 | 47.20996 | 8.05593 | 69° | 62km/h | 18378m | -9.2m/s | -55.3°C | 1.3% | 0hPa | 2.5V | 08:13:00 | 00:00:00 | 00:00:00 | |
| DO3MHA-11 | 2026-08-31 01:20:28 | 47.20983 | 8.05554 | 61° | 38km/h | 18396m | -9.4m/s | -55.1°C | 4.1% | 0hPa | 2.5V | 00:00:00 | 02:46:16 | 00:00:00 | |
| DB0ND-19 | 2026-08-31 01:20:20 | 47.20940 | 8.05464 | 53° | 22km/h | 18468m | -9.1m/s | -54.7°C | 1.0% | -1.0hPa | 2.5V | 00:00:00 | 00:00:00 | 00:00:00 | |
| DF1GD-15 | 2026-08-31 01:20:19 | 47.20940 | 8.05464 | 55° | 22km/h | 18468m | -9.1m/s | -54.7°C | 1.2% | 0hPa | 2.5V | 08:13:00 | 00:00:00 | 00:00:00 | |
| DO3MHA-11 | 2026-08-31 01:20:18 | 47.20934 | 8.05452 | 50° | 22km/h | 18487m | -8.7m/s | -54.7°C | 4.0% | 0hPa | 2.5V | 08:12:00 | 02:46:06 | 00:00:00 | |
| DF7PN | 2026-08-31 01:20:13 | 47.20916 | 8.05429 | 35° | 18km/h | 18532m | -9.1m/s | -55.0°C | 1.0% | -1.0hPa | 2.5V | 00:00:00 | 00:00:00 | 00:00:00 | |
| DL1ZP-14 | 2026-08-31 01:20:12 | 47.20912 | 8.05425 | 36° | 20km/h | 18541m | -8.8m/s | -55.0°C | 1.1% | -1.0hPa | 2.5V | 00:00:00 | 00:00:00 | 00:00:00 | |
| HASLITAL | 2026-08-31 01:20:09 | 47.20903 | 8.05415 | 40° | 26km/h | 18559m | -8.8m/s | -55.1°C | 1.2% | 0hPa | 2.5V | 08:13:00 | 00:00:00 | 00:00:00 | |
| DO3MHA-11 | 2026-08-31 01:20:08 | 47.20893 | 8.05401 | 46° | 35km/h | 18577m | -8.8m/s | -55.0°C | 4.0% | 0hPa | 2.5V | 00:00:00 | 02:45:56 | 00:00:00 | |
| IW2NTF | 2026-08-31 01:20:07 | 47.20872 | 8.05364 | 49° | 35km/h | 18612m | -9.1m/s | -55.2°C | 4% | 0hPa | 2.5V | 08:13:11 | 02:45:52 | 00:00:00 | |
| DB0ND-19 | 2026-08-31 01:19:49 | 47.20806 | 8.05292 | 195° | 2km/h | 18752m | -9.7m/s | -55.4°C | 1.1% | -1.0hPa | 2.5V | 00:00:00 | 00:00:00 | 00:00:00 | |
| DO3MHA-11 | 2026-08-31 01:19:48 | 47.20807 | 8.05292 | 180° | 24km/h | 18761m | -9.4m/s | -55.3°C | 4.1% | 0hPa | 2.5V | 00:00:00 | 02:45:36 | 00:00:00 | |
| DM0DOS-11 | 2026-08-31 01:19:42 | 47.20838 | 8.05249 | 113° | 35km/h | 18837m | -9.3m/s | -55.5°C | 4.2% | 0hPa | 2.6V | 08:13:35 | 02:45:28 | 00:00:00 | |
| DF7PN | 2026-08-31 01:19:42 | 47.20829 | 8.05270 | 130° | 29km/h | 18818m | -9.4m/s | -55.4°C | 1.0% | -1.0hPa | 2.6V | 00:00:00 | 00:00:00 | 00:00:00 | |
| DL1ZP-14 | 2026-08-31 01:19:41 | 47.20838 | 8.05249 | 113° | 35km/h | 18837m | -9.4m/s | -55.5°C | 1.1% | -1.0hPa | 2.6V | 00:00:00 | 00:00:00 | 00:00:00 | |
| DO3MHA-11 | 2026-08-31 01:19:38 | 47.20843 | 8.05223 | 97° | 42km/h | 18855m | -8.8m/s | -55.5°C | 4.2% | 0hPa | 2.6V | 00:00:00 | 02:45:26 | 00:00:00 | |
| DM0DOS-11 | 2026-08-31 01:19:35 | 47.20810 | 8.05106 | 42° | 40km/h | 18931m | -9.6m/s | -55.4°C | 4.1% | 0hPa | 2.6V | 08:13:45 | 02:45:18 | 00:00:00 | |
| DK5PH-5 | 2026-08-31 01:19:30 | 47.20810 | 8.05106 | 43° | 26km/h | 18931m | -9.6m/s | -55.4°C | 4.1% | 0hPa | 2.5V | 00:00:00 | 02:45:18 | 00:00:00 | |
| DB0UT-7 | 2026-08-31 01:19:28 | 47.20796 | 8.05090 | 29° | 24km/h | 18950m | -9.1m/s | -55.5°C | 4.2% | 0hPa | 2.5V | 00:00:00 | 02:45:16 | 00:00:00 | |
| DM0DOS-11 | 2026-08-31 01:19:25 | 47.20780 | 8.05081 | 151° | 18km/h | 19027m | -9.7m/s | -55.5°C | 4.1% | 0hPa | 2.5V | 08:13:55 | 02:45:08 | 00:00:00 | |
| OE9MKV-15 | 2026-08-31 01:19:23 | 47.20775 | 8.05084 | 331° | 26km/h | 18998m | -10.4m/s | -55.5°C | 4.1% | 0hPa | 2.6V | 00:00:00 | 02:45:11 | 00:00:00 | |
| DO3MHA-11 | 2026-08-31 01:19:18 | 47.20790 | 8.05070 | 137° | 35km/h | 19046m | -9.3m/s | -55.3°C | 4.0% | 0hPa | 2.6V | 00:00:00 | 02:45:06 | 00:00:00 | |
| DF1GD-15 | 2026-08-31 01:19:17 | 47.20790 | 8.05070 | 137° | 31km/h | 19046m | -9.3m/s | -55.4°C | 0% | 0hPa | 2.5V | 08:14:00 | 00:00:00 | 00:00:00 | |
| LOEBOVI | 2026-08-31 01:19:15 | 47.20801 | 8.05048 | 122° | 42km/h | 19066m | -9.4m/s | -55.3°C | 1.1% | 0hPa | 2.5V | 00:00:00 | 00:00:00 | 00:00:00 | |
| DM0DOS-11 | 2026-08-31 01:19:11 | 47.20802 | 8.04943 | 52° | 37km/h | 19132m | -9.7m/s | -55.5°C | 4% | 0hPa | 2.5V | 08:14:06 | 02:44:57 | 00:00:00 | |
| DL1ZP-14 | 2026-08-31 01:19:10 | 47.20802 | 8.04943 | 52° | 35km/h | 19132m | -9.7m/s | -55.5°C | 1.0% | -1.0hPa | 2.5V | 00:00:00 | 00:00:00 | 00:00:00 | |
| HASLITAL | 2026-08-31 01:19:07 | 47.20796 | 8.04933 | 44° | 33km/h | 19142m | -9.6m/s | -55.6°C | 1.2% | 0hPa | 2.5V | 08:14:00 | 00:00:00 | 00:00:00 | |
| DO3MHA-11 | 2026-08-31 01:19:05 | 47.20778 | 8.04919 | 11° | 18km/h | 19171m | -9.6m/s | -55.7°C | 4.2% | 0hPa | 2.5V | 00:00:00 | 02:44:53 | 00:00:00 | |
| DM0DOS-11 | 2026-08-31 01:19:01 | 47.20771 | 8.04922 | 156° | 13km/h | 19229m | -9.2m/s | -56.1°C | 4.3% | 0hPa | 2.5V | 08:14:16 | 02:44:47 | 00:00:00 | |
| DK5PH-5 | 2026-08-31 01:19:00 | 47.20768 | 8.04923 | 180° | 27km/h | 19220m | -9.6m/s | -55.9°C | 4.2% | 0hPa | 2.5V | 00:00:00 | 02:44:48 | 00:00:00 | |
| DB0UT-7 | 2026-08-31 01:18:58 | 47.20774 | 8.04919 | 148° | 27km/h | 19238m | -8.7m/s | -56.1°C | 4.3% | 0hPa | 2.5V | 00:00:00 | 00:00:00 | 00:00:00 | |
| DF1GD-15 | 2026-08-31 01:18:56 | 47.20779 | 8.04914 | 141° | 26km/h | 19248m | -9.1m/s | 0°C | 0% | 0hPa | 2.5V | 00:00:00 | 00:00:00 | 00:00:00 | |
| OE9MKV-15 | 2026-08-31 01:18:53 | 47.20800 | 8.04877 | 120° | 27km/h | 19287m | -10.3m/s | -56.1°C | 4.3% | 0hPa | 2.5V | 00:00:00 | 02:44:41 | 00:00:00 | |
| DM0DOS-11 | 2026-08-31 01:18:51 | 47.20801 | 8.04781 | 57° | 38km/h | 19357m | -10.3m/s | -56.2°C | 4.5% | 0hPa | 2.6V | 08:14:29 | 02:44:34 | 00:00:00 | |
| HASLITAL | 2026-08-31 01:18:47 | 47.20808 | 8.04808 | 79° | 40km/h | 19338m | -9.8m/s | -56.2°C | 1.3% | 0hPa | 2.5V | 08:15:00 | 00:00:00 | 00:00:00 | |
| DF7PN | 2026-08-31 01:18:40 | 47.20756 | 8.04752 | 334° | 18km/h | 19429m | -10.3m/s | -55.6°C | 1.1% | -1.0hPa | 2.5V | 00:00:00 | 00:00:00 | 00:00:00 | |
| DL1ZP-14 | 2026-08-31 01:18:39 | 47.20752 | 8.04756 | 315° | 15km/h | 19439m | -9.9m/s | -55.6°C | 1.1% | -1.0hPa | 2.5V | 00:00:00 | 00:00:00 | 00:00:00 | |
| DM0DOS-11 | 2026-08-31 01:18:35 | 47.20766 | 8.04755 | 123° | 24km/h | 19509m | -10.5m/s | -55.6°C | 4.3% | 0hPa | 2.5V | 08:14:44 | 02:44:19 | 00:00:00 | |
| BIOWL1-15 | 2026-08-31 01:18:31 | 47.20769 | 8.04716 | 72° | 33km/h | 19549m | -10m/s | -54.8°C | 0.3% | 0hPa | 2.5V | 08:15:00 | 02:44:15 | 00:00:00 | |
| DK5PH-5 | 2026-08-31 01:18:30 | 47.20769 | 8.04747 | 112° | 24km/h | 19520m | -10.0m/s | -55.5°C | 4.3% | 0hPa | 2.6V | 00:00:00 | 02:44:18 | 00:00:00 | |
| DB0UT-7 | 2026-08-31 01:18:28 | 47.20771 | 8.04727 | 84° | 27km/h | 19540m | -9.6m/s | -55.0°C | 4.1% | 0hPa | 2.5V | 00:00:00 | 02:44:16 | 00:00:00 | |
| HASLITAL | 2026-08-31 01:18:26 | 47.20769 | 8.04716 | 73° | 33km/h | 19549m | -10.0m/s | -54.8°C | 1.2% | 0hPa | 2.5V | 08:15:00 | 00:00:00 | 00:00:00 | |
| BIOWL9-15 | 2026-08-31 01:18:24 | 47.20755 | 8.04683 | 45° | 37km/h | 19579m | -9.8m/s | -54.5°C | 0.9% | -1.0hPa | 2.5V | 00:00:00 | 00:00:00 | 00:00:00 | |
| DM0DOS-11 | 2026-08-31 01:18:22 | 47.20731 | 8.04658 | 24° | 38km/h | 19610m | -10.3m/s | -54.4°C | 3.8% | 0hPa | 2.5V | 08:14:54 | 02:44:09 | 00:00:00 | |
| BIOWL1-15 | 2026-08-31 01:18:20 | 47.20722 | 8.04654 | 17° | 35km/h | 19620m | -10.9m/s | -54.5°C | 0.2% | 0hPa | 2.5V | 08:15:00 | 02:44:08 | 00:00:00 | |
| BIOWL1-15 | 2026-08-31 01:18:10 | 47.20691 | 8.04675 | 195° | 11km/h | 19722m | -10.6m/s | -55.4°C | 0.4% | 0hPa | 2.5V | 08:15:51 | 02:43:58 | 00:00:00 | |
| OE5DXL-15 | 2026-08-31 01:18:10 | 47.20691 | 8.04675 | 196° | 27km/h | 19722m | -10.6m/s | -55.3°C | 4.1% | 0hPa | 2.5V | 08:15:00 | 00:00:00 | 00:00:00 | |
| DF7PN | 2026-08-31 01:18:09 | 47.20697 | 8.04673 | 147° | 16km/h | 19743m | -10.4m/s | -55.5°C | 1.0% | -1.0hPa | 2.6V | 00:00:00 | 00:00:00 | 00:00:00 | |
| DL1ZP-14 | 2026-08-31 01:18:08 | 47.20701 | 8.04668 | 128° | 20km/h | 19754m | -10.3m/s | -55.5°C | 1.0% | -1.0hPa | 2.6V | 00:00:00 | 00:00:00 | 00:00:00 | |
| DM0DOS-11 | 2026-08-31 01:18:06 | 47.20704 | 8.04628 | 74° | 37km/h | 19795m | -9.9m/s | -55.4°C | 4.2% | 0hPa | 2.6V | 08:15:12 | 02:43:51 | 00:00:00 | |
| BIOWL1-15 | 2026-08-31 01:17:59 | 47.20665 | 8.04572 | 14° | 37km/h | 19857m | -10.1m/s | -55.3°C | 0.4% | 0hPa | 2.6V | 08:15:51 | 02:43:45 | 00:00:00 | |
| DB0UT-7 | 2026-08-31 01:17:58 | 47.20674 | 8.04576 | 24° | 27km/h | 19847m | -10.1m/s | -55.3°C | 4.2% | 0hPa | 2.6V | 00:00:00 | 00:00:00 | 00:00:00 | |
| OE9MKV-15 | 2026-08-31 01:17:53 | 47.20631 | 8.04575 | 337° | 27km/h | 19898m | -10.3m/s | -55.4°C | 4.2% | 0hPa | 2.6V | 00:00:00 | 02:43:41 | 00:00:00 | |
| DM0DOS-11 | 2026-08-31 01:17:51 | 47.20614 | 8.04615 | 214° | 13km/h | 19972m | -10.5m/s | -54.8°C | 4% | 0hPa | 2.6V | 08:15:29 | 02:43:34 | 00:00:00 | |
| BIOWL1-15 | 2026-08-31 01:17:46 | 47.20614 | 8.04615 | 215° | 13km/h | 19972m | -10.5m/s | -54.8°C | 0.3% | 0hPa | 2.6V | 08:15:51 | 02:43:34 | 00:00:00 | |
| DB0ND-19 | 2026-08-31 01:17:45 | 47.20617 | 8.04616 | 180° | 13km/h | 19983m | -10.8m/s | -54.7°C | 1.0% | -1.0hPa | 2.6V | 00:00:00 | 00:00:00 | 00:00:00 | |
| DM0DOS-11 | 2026-08-31 01:17:41 | 47.20610 | 8.04546 | 34° | 37km/h | 20077m | -10.4m/s | -54.8°C | 4% | 0hPa | 2.6V | 08:15:39 | 02:43:24 | 00:00:00 | |
| BIOWL1-15 | 2026-08-31 01:17:35 | 47.20602 | 8.04539 | 23° | 37km/h | 20088m | -10.8m/s | -54.8°C | 0.4% | 0hPa | 2.6V | 08:15:51 | 02:43:23 | 00:00:00 | |
| DK5PH-5 | 2026-08-31 01:17:30 | 47.20561 | 8.04542 | 328° | 27km/h | 20140m | -10.0m/s | -54.9°C | 4.1% | 0hPa | 2.5V | 00:00:00 | 02:43:18 | 00:00:00 | |
| DB0UT-7 | 2026-08-31 01:17:28 | 47.20550 | 8.04557 | 305° | 26km/h | 20161m | -11.2m/s | -54.8°C | 4.2% | 0hPa | 2.5V | 08:15:00 | 02:43:16 | 00:00:00 | |
| DF3TZ-5 | 2026-08-31 01:17:27 | 47.20543 | 8.04576 | 291° | 27km/h | 20183m | -10.9m/s | -54.9°C | -1.0% | -1.0hPa | 2.5V | 00:00:00 | 00:00:00 | 00:00:00 | |
| DM0DOS-11 | 2026-08-31 01:17:26 | 47.20544 | 8.04611 | 217° | 9km/h | 20237m | -10.5m/s | -55°C | 4.2% | 0hPa | 2.5V | 08:15:54 | 02:43:09 | 00:00:00 | |
| BIOWL1-15 | 2026-08-31 01:17:24 | 47.20541 | 8.04595 | 273° | 24km/h | 20205m | -10.8m/s | -54.8°C | 0.3% | 0hPa | 2.6V | 08:15:51 | 02:43:12 | 00:00:00 | |
| BIOWL1-15 | 2026-08-31 01:17:13 | 47.20534 | 8.04568 | 42° | 33km/h | 20323m | -10.5m/s | -54.3°C | 0.3% | 0hPa | 2.6V | 08:16:42 | 02:43:01 | 00:00:00 | |
| BIOWL1-15 | 2026-08-31 01:17:05 | 47.20438 | 8.04561 | 283° | 13km/h | 20465m | -11.6m/s | -54.5°C | 0.3% | 0hPa | 2.5V | 08:16:42 | 02:42:48 | 00:00:00 | |
| HASLITAL | 2026-08-31 01:17:04 | 47.20462 | 8.04538 | 352° | 35km/h | 20409m | -11.1m/s | -54.3°C | 1.1% | 0hPa | 2.6V | 08:16:00 | 00:00:00 | 00:00:00 | |
| BIOWL1-15 | 2026-08-31 01:16:52 | 47.20469 | 8.04451 | 65° | 38km/h | 20609m | -10.8m/s | -54.4°C | 0.3% | 0hPa | 2.6V | 08:16:42 | 02:42:35 | 00:00:00 | |
| BIOWL1-15 | 2026-08-31 01:16:40 | 47.20428 | 8.04438 | 289° | 24km/h | 20700m | -11.2m/s | -54.1°C | 0.2% | 0hPa | 2.5V | 08:16:42 | 02:42:27 | 00:00:00 | |
| BIOWL1-15 | 2026-08-31 01:16:29 | 47.20444 | 8.04425 | 21° | 27km/h | 20868m | -11.1m/s | -54.9°C | 0.5% | 0hPa | 2.5V | 08:17:33 | 02:42:12 | 00:00:00 | |
| DB0UT-7 | 2026-08-31 01:16:28 | 47.20460 | 8.04450 | 79° | 20km/h | 20822m | -12.0m/s | -54.7°C | 4.2% | 0hPa | 2.5V | 00:00:00 | 02:42:16 | 00:00:00 | |
| LOEBOVI | 2026-08-31 01:16:27 | 47.20460 | 8.04450 | 80° | 22km/h | 20822m | -12.0m/s | -54.7°C | 1.1% | 0hPa | 2.5V | 00:00:00 | 00:00:00 | 00:00:00 | |
| DM0DOS-11 | 2026-08-31 01:16:24 | 47.20430 | 8.04422 | 356° | 29km/h | 20891m | -11.7m/s | -54.6°C | 4.1% | 0hPa | 2.5V | 08:16:53 | 02:42:10 | 00:00:00 | |
| BIOWL1-15 | 2026-08-31 01:16:18 | 47.20404 | 8.04439 | 312° | 29km/h | 20935m | -11.2m/s | -54.2°C | 0.3% | 0hPa | 2.5V | 08:17:33 | 02:42:06 | 00:00:00 | |
| DM0DOS-11 | 2026-08-31 01:16:13 | 47.20396 | 8.04487 | 236° | 15km/h | 21004m | -11m/s | -54°C | 3.9% | 0hPa | 2.5V | 08:17:03 | 02:42:00 | 00:00:00 | |
| DH7VM-15 | 2026-08-31 01:16:09 | 47.20401 | 8.04492 | 185° | 11km/h | 21026m | -10.9m/s | -54.1°C | 1.1% | 0hPa | 2.5V | 00:00:00 | 00:00:00 | 00:00:00 | |
| DM0DOS-11 | 2026-08-31 01:16:07 | 47.20399 | 8.04463 | 41° | 16km/h | 21114m | -11m/s | -54.1°C | 3.9% | 0hPa | 2.5V | 08:17:13 | 02:41:50 | 00:00:00 | |
| DF7PN | 2026-08-31 01:16:05 | 47.20405 | 8.04472 | 57° | 15km/h | 21092m | -11.2m/s | -54.2°C | 1.0% | -1.0hPa | 2.5V | 00:00:00 | 00:00:00 | 00:00:00 | |
| DL1ZP-14 | 2026-08-31 01:16:03 | 47.20402 | 8.04468 | 48° | 16km/h | 21103m | -11.2m/s | -54.1°C | 0.9% | -1.0hPa | 2.5V | 00:00:00 | 00:00:00 | 00:00:00 | |
| DK5PH-5 | 2026-08-31 01:16:00 | 47.20392 | 8.04455 | 33° | 27km/h | 21137m | -11.0m/s | -54.1°C | 3.9% | 0hPa | 2.6V | 00:00:00 | 02:41:48 | 00:00:00 | |
| DB0UT-7 | 2026-08-31 01:15:58 | 47.20384 | 8.04448 | 35° | 29km/h | 21159m | -11.2m/s | -54.2°C | 4.0% | 0hPa | 2.6V | 00:00:00 | 00:00:00 | 00:00:00 | |
| DM0DOS-11 | 2026-08-31 01:15:56 | 47.20367 | 8.04421 | 51° | 20km/h | 21227m | -11.3m/s | -54.1°C | 3.9% | 0hPa | 2.5V | 08:17:23 | 02:41:40 | 00:00:00 | |
| BIOWL9-15 | 2026-08-31 01:15:49 | 47.20351 | 8.04396 | 38° | 27km/h | 21273m | -11.8m/s | -54.1°C | 0.9% | -1.0hPa | 2.6V | 00:00:00 | 00:00:00 | 00:00:00 | |
| DM0DOS-11 | 2026-08-31 01:15:45 | 47.20304 | 8.04370 | 3° | 38km/h | 21342m | -11.1m/s | -54.4°C | 3.9% | 0hPa | 2.6V | 08:17:33 | 02:41:30 | 00:00:00 | |
| BIOWL1-15 | 2026-08-31 01:15:45 | 47.20227 | 8.04389 | 339° | 31km/h | 21436m | -11.7m/s | -54.7°C | 0.4% | 0hPa | 2.5V | 08:18:24 | 02:41:22 | 00:00:00 | |
| OE5DXL-15 | 2026-08-31 01:15:43 | 47.20313 | 8.04371 | 10° | 20km/h | 21331m | -11.2m/s | -54.3°C | 3.9% | 0hPa | 2.6V | 00:00:00 | 00:00:00 | 00:00:00 | |
| DB0ND-19 | 2026-08-31 01:15:41 | 47.20283 | 8.04370 | 355° | 40km/h | 21366m | -11.5m/s | -54.4°C | 0.9% | -1.0hPa | 2.6V | 00:00:00 | 00:00:00 | 00:00:00 | |
| DM0DOS-11 | 2026-08-31 01:15:35 | 47.20213 | 8.04398 | 333° | 26km/h | 21458m | -11.1m/s | -54.9°C | 4.1% | 0hPa | 2.6V | 08:17:43 | 02:41:20 | 00:00:00 | |
| DO3MHA-11 | 2026-08-31 01:15:34 | 47.20227 | 8.04389 | 339° | 22km/h | 21436m | -11.6m/s | -54.7°C | 4.1% | 0hPa | 2.6V | 00:00:00 | 02:41:22 | 00:00:00 | |
| DF7PN | 2026-08-31 01:15:33 | 47.20219 | 8.04393 | 337° | 27km/h | 21447m | -11.2m/s | -54.8°C | 1.0% | -1.0hPa | 2.6V | 00:00:00 | 00:00:00 | 00:00:00 | |
| DL1ZP-14 | 2026-08-31 01:15:32 | 47.20213 | 8.04398 | 333° | 26km/h | 21458m | -11.1m/s | -54.9°C | 1.0% | -1.0hPa | 2.6V | 00:00:00 | 00:00:00 | 00:00:00 | |
| DO3MHA-12 | 2026-08-31 01:15:30 | 47.20203 | 8.04406 | 331° | 15km/h | 21481m | -11.4m/s | -55.0°C | 4.1% | 0hPa | 2.5V | 00:00:00 | 02:41:18 | 00:00:00 | |
| DB0UT-7 | 2026-08-31 01:15:28 | 47.20194 | 8.04414 | 328° | 16km/h | 21504m | -11.4m/s | -55.0°C | 4.1% | 0hPa | 2.6V | 00:00:00 | 02:41:16 | 00:00:00 | |
| DM0DOS-11 | 2026-08-31 01:15:23 | 47.20180 | 8.04435 | 267° | 9km/h | 21574m | -11.5m/s | -55°C | 4.1% | 0hPa | 2.6V | 08:17:53 | 02:41:10 | 00:00:00 | |
| OE9MKV-15 | 2026-08-31 01:15:23 | 47.20180 | 8.04432 | 291° | 18km/h | 21563m | -11.9m/s | -54.9°C | 4.1% | 0hPa | 2.5V | 00:00:00 | 02:41:11 | 00:00:00 | |
| HASLITAL | 2026-08-31 01:15:22 | 47.20180 | 8.04432 | 292° | 11km/h | 21563m | -11.9m/s | -55.0°C | 1.1% | 0hPa | 2.5V | 08:18:00 | 00:00:00 | 00:00:00 | |
| BIOWL1-15 | 2026-08-31 01:15:21 | 47.20225 | 8.04411 | 144° | 20km/h | 21778m | -12.4m/s | -54.8°C | 0.3% | 0hPa | 2.5V | 08:18:24 | 02:40:53 | 00:00:00 | |
| BIOWL1-15 | 2026-08-31 01:15:10 | 47.20246 | 8.04405 | 195° | 24km/h | 21829m | -12.7m/s | -54.6°C | 0.3% | 0hPa | 2.5V | 08:18:24 | 02:40:49 | 00:00:00 | |
| BIOWL1-15 | 2026-08-31 01:14:51 | 47.20243 | 8.04513 | 325° | 26km/h | 21977m | -12.3m/s | -54.6°C | 0.3% | 0hPa | 2.5V | 08:19:15 | 02:40:37 | 00:00:00 | |
| DL6DJ-15 | 2026-08-31 01:14:50 | 47.20238 | 8.04517 | 332° | 22km/h | 21989m | -12.2m/s | -54.6°C | 1.0% | -1.0hPa | 2.6V | 00:00:00 | 00:00:00 | 00:00:00 | |
| BIOWL9-15 | 2026-08-31 01:14:47 | 47.20229 | 8.04521 | 356° | 16km/h | 22013m | -12.2m/s | 0°C | -1.0% | -1.0hPa | 2.6V | 00:00:00 | 00:00:00 | 00:00:00 | |
| BIOWL1-15 | 2026-08-31 01:14:41 | 47.20208 | 8.04516 | 11° | 18km/h | 22075m | -12.6m/s | -54.9°C | 0.3% | 0hPa | 2.6V | 08:19:15 | 02:40:29 | 00:00:00 | |
| BIOWL1-15 | 2026-08-31 01:14:30 | 47.20153 | 8.04577 | 282° | 38km/h | 22214m | -12.6m/s | -55.3°C | 0.5% | 0hPa | 2.6V | 08:19:15 | 02:40:18 | 00:00:00 | |
| DO3MHA-12 | 2026-08-31 01:14:30 | 47.20153 | 8.04577 | 282° | 31km/h | 22215m | -12.6m/s | -55.2°C | 4.2% | 0hPa | 2.6V | 00:00:00 | 02:40:18 | 00:00:00 | |
| DB0UT-7 | 2026-08-31 01:14:28 | 47.20151 | 8.04605 | 270° | 22km/h | 22240m | -12.8m/s | -55.2°C | 4.2% | 0hPa | 2.5V | 00:00:00 | 02:40:16 | 00:00:00 | |
| DO3MHA-11 | 2026-08-31 01:14:24 | 47.20157 | 8.04654 | 246° | 18km/h | 22292m | -12.6m/s | -55.1°C | 4.1% | 0hPa | 2.5V | 08:18:00 | 02:40:12 | 00:00:00 | |
| DM0DOS-11 | 2026-08-31 01:14:23 | 47.20171 | 8.04675 | 200° | 16km/h | 22342m | -12.4m/s | -55.3°C | 4.2% | 0hPa | 2.6V | 08:18:55 | 02:40:08 | 00:00:00 | |
| BIOWL1-15 | 2026-08-31 01:14:19 | 47.20179 | 8.04678 | 184° | 16km/h | 22367m | -12.6m/s | -55.2°C | 0.5% | 0hPa | 2.6V | 08:19:15 | 02:40:06 | 00:00:00 | |
| BIOWL1-15 | 2026-08-31 01:14:07 | 47.20220 | 8.04703 | 235° | 20km/h | 22507m | -12.8m/s | -54.5°C | 0.3% | 0hPa | 2.6V | 08:19:15 | 02:39:55 | 00:00:00 | |
| DM0DOS-11 | 2026-08-31 01:14:07 | 47.20234 | 8.04728 | 225° | 22km/h | 22560m | -13m/s | -54.5°C | 4% | 0hPa | 2.6V | 08:19:12 | 02:39:51 | 00:00:00 | |
| BIOWL1-15 | 2026-08-31 01:13:57 | 47.20264 | 8.04744 | 174° | 24km/h | 22638m | -13.4m/s | -54.6°C | 0.4% | 0hPa | 2.6V | 08:20:06 | 02:39:45 | 00:00:00 | |
| DM0DOS-11 | 2026-08-31 01:13:56 | 47.20289 | 8.04724 | 121° | 22km/h | 22707m | -14m/s | -54.6°C | 4.1% | 0hPa | 2.6V | 08:19:23 | 02:39:40 | 00:00:00 | |
| BIOWL1-15 | 2026-08-31 01:13:46 | 47.20275 | 8.04687 | 5° | 29km/h | 22791m | -14.4m/s | -54.2°C | 0.3% | 0hPa | 2.5V | 08:20:06 | 02:39:34 | 00:00:00 | |
| BIOWL1-15 | 2026-08-31 01:13:35 | 47.20230 | 8.04818 | 245° | 37km/h | 22944m | -14.3m/s | -54.2°C | 0.3% | 0hPa | 2.5V | 08:20:06 | 02:39:23 | 00:00:00 | |
| DM0DOS-11 | 2026-08-31 01:13:34 | 47.20248 | 8.04840 | 118° | 11km/h | 23013m | -14m/s | -54.4°C | 4% | 0hPa | 2.5V | 08:19:45 | 02:39:18 | 00:00:00 | |
| BIOWL1-15 | 2026-08-31 01:13:25 | 47.20231 | 8.04807 | 27° | 38km/h | 23084m | -14.5m/s | -54.3°C | 0.4% | 0hPa | 2.5V | 08:20:06 | 02:39:13 | 00:00:00 | |
| DM0DOS-11 | 2026-08-31 01:13:23 | 47.20180 | 8.04807 | 330° | 40km/h | 23155m | -13.5m/s | -54.4°C | 4.1% | 0hPa | 2.5V | 08:19:55 | 02:39:08 | 00:00:00 | |
| HASLITAL | 2026-08-31 01:13:18 | 47.20172 | 8.04815 | 318° | 38km/h | 23168m | -12.9m/s | -54.3°C | 1.1% | 0hPa | 2.5V | 08:20:00 | 00:00:00 | 00:00:00 | |
| DL6DJ-15 | 2026-08-31 01:13:16 | 47.20159 | 8.04848 | 284° | 29km/h | 23211m | -14.0m/s | -54.1°C | 0.9% | -1.0hPa | 2.5V | 00:00:00 | 00:00:00 | 00:00:00 | |
| BIOWL9-15 | 2026-08-31 01:13:14 | 47.20162 | 8.04874 | 227° | 18km/h | 23252m | -14.1m/s | -53.8°C | 0.9% | -1.0hPa | 2.5V | 00:00:00 | 00:00:00 | 00:00:00 | |
| DM0DOS-11 | 2026-08-31 01:13:13 | 47.20175 | 8.04879 | 166° | 22km/h | 23294m | -13.8m/s | -53.8°C | 3.9% | 0hPa | 2.5V | 08:20:05 | 02:38:58 | 00:00:00 | |
| BIOWL1-15 | 2026-08-31 01:13:06 | 47.20192 | 8.04854 | 109° | 27km/h | 23350m | -13.9m/s | -53.9°C | 0.3% | 0hPa | 2.5V | 08:20:57 | 02:38:54 | 00:00:00 | |
| DM0DOS-11 | 2026-08-31 01:13:03 | 47.20176 | 8.04802 | 20° | 29km/h | 23435m | -14.6m/s | -53.7°C | 3.9% | 0hPa | 2.5V | 08:20:15 | 02:38:48 | 00:00:00 | |
| BIOWL1-15 | 2026-08-31 01:12:55 | 47.20128 | 8.04845 | 288° | 40km/h | 23536m | -14.6m/s | -53.4°C | 0.3% | 0hPa | 2.6V | 08:20:57 | 02:38:41 | 00:00:00 | |
| DM0DOS-11 | 2026-08-31 01:12:53 | 47.20128 | 8.04889 | 253° | 38km/h | 23581m | -14.5m/s | -53.3°C | 3.8% | 0hPa | 2.5V | 08:20:25 | 02:38:38 | 00:00:00 | |
| DF3TZ-5 | 2026-08-31 01:12:47 | 47.20148 | 8.04922 | 193° | 22km/h | 23640m | -14.6m/s | 0°C | -1.0% | -1.0hPa | 2.6V | 00:00:00 | 00:00:00 | 00:00:00 | |
| DL6DJ-15 | 2026-08-31 01:12:45 | 47.20153 | 8.04922 | 169° | 18km/h | 23654m | -14.9m/s | -53.4°C | 0.8% | -1.0hPa | 2.6V | 00:00:00 | 00:00:00 | 00:00:00 | |
| BIOWL1-15 | 2026-08-31 01:12:43 | 47.20160 | 8.04914 | 112° | 20km/h | 23684m | -14.5m/s | -53.3°C | 0.2% | 0hPa | 2.6V | 08:20:57 | 02:38:31 | 00:00:00 | |
| BIOWL1-15 | 2026-08-31 01:12:32 | 47.20075 | 8.04866 | 328° | 42km/h | 23850m | -15.8m/s | -53°C | 0.1% | 0hPa | 2.6V | 08:20:57 | 02:38:20 | 00:00:00 | |
| DK5PH-5 | 2026-08-31 01:12:30 | 47.20062 | 8.04886 | 297° | 35km/h | 23881m | -15.6m/s | -53.0°C | 3.7% | 0hPa | 2.5V | 00:00:00 | 02:38:18 | 00:00:00 | |
| DB0UT-7 | 2026-08-31 01:12:28 | 47.20060 | 8.04906 | 252° | 35km/h | 23912m | -14.3m/s | -53.1°C | 3.7% | 0hPa | 2.5V | 00:00:00 | 02:38:16 | 00:00:00 | |
| DF7PN | 2026-08-31 01:12:27 | 47.20064 | 8.04913 | 222° | 26km/h | 23926m | -14.6m/s | -53.1°C | 0.8% | -1.0hPa | 2.5V | 00:00:00 | 00:00:00 | 00:00:00 | |
| DL1ZP-14 | 2026-08-31 01:12:26 | 47.20077 | 8.04920 | 181° | 31km/h | 23955m | -14.3m/s | -53.1°C | 0.8% | -1.0hPa | 2.5V | 00:00:00 | 00:00:00 | 00:00:00 | |
| DM0DOS-11 | 2026-08-31 01:12:23 | 47.20113 | 8.04895 | 134° | 46km/h | 24015m | -16.1m/s | -53.1°C | 3.8% | 0hPa | 2.5V | 08:20:54 | 02:38:09 | 00:00:00 | |
| BIOWL1-15 | 2026-08-31 01:12:21 | 47.20130 | 8.04843 | 85° | 31km/h | 24078m | -14.9m/s | -53.2°C | 0.2% | 0hPa | 2.6V | 08:21:48 | 02:38:05 | 00:00:00 | |
| LOEBOVI | 2026-08-31 01:12:17 | 47.20129 | 8.04855 | 103° | 38km/h | 24063m | -15.1m/s | -53.1°C | 0.9% | 0hPa | 2.5V | 08:20:00 | 00:00:00 | 00:00:00 | |
| HASLITAL | 2026-08-31 01:12:16 | 47.20130 | 8.04842 | 86° | 31km/h | 24078m | -14.9m/s | -53.2°C | 1.0% | 0hPa | 2.5V | 08:21:00 | 00:00:00 | 00:00:00 | |
| DL6DJ-15 | 2026-08-31 01:12:14 | 47.20119 | 8.04822 | 3° | 22km/h | 24121m | -15.4m/s | -53.1°C | 0.8% | -1.0hPa | 2.5V | 00:00:00 | 00:00:00 | 00:00:00 | |
| DM0DOS-11 | 2026-08-31 01:12:13 | 47.20103 | 8.04837 | 300° | 31km/h | 24167m | -15.4m/s | -53°C | 3.8% | 0hPa | 2.5V | 08:21:04 | 02:37:59 | 00:00:00 | |
| BIOWL1-15 | 2026-08-31 01:12:10 | 47.20100 | 8.04848 | 287° | 35km/h | 24183m | -16m/s | -52.9°C | 0.2% | 0hPa | 2.5V | 08:21:48 | 02:37:58 | 00:00:00 | |
| DB0ND-19 | 2026-08-31 01:12:03 | 47.20126 | 8.04926 | 191° | 33km/h | 24290m | -16.0m/s | -52.9°C | 0.8% | -1.0hPa | 2.5V | 00:00:00 | 00:00:00 | 00:00:00 | |
| DK5PH-5 | 2026-08-31 01:12:00 | 47.20149 | 8.04919 | 139° | 35km/h | 24337m | -15.9m/s | -52.6°C | 3.8% | 0hPa | 2.5V | 00:00:00 | 02:37:48 | 00:00:00 | |
| IW2NTF | 2026-08-31 01:11:59 | 47.20155 | 8.04878 | 61° | 31km/h | 24400m | -15.2m/s | -52.3°C | 3.6% | 0hPa | 2.5V | 08:21:19 | 02:37:44 | 00:00:00 | |
| BIOWL1-15 | 2026-08-31 01:11:59 | 47.20154 | 8.04911 | 120° | 31km/h | 24353m | -16m/s | -52.5°C | 0.1% | 0hPa | 2.5V | 08:21:48 | 02:37:47 | 00:00:00 | |
| DM0DOS-11 | 2026-08-31 01:11:58 | 47.20150 | 8.04870 | 41° | 29km/h | 24414m | -15.1m/s | -52.3°C | 3.7% | 0hPa | 2.5V | 08:21:20 | 02:37:43 | 00:00:00 | |
| BIOWL1-15 | 2026-08-31 01:11:49 | 47.20105 | 8.04923 | 267° | 44km/h | 24539m | -15.8m/s | -51.6°C | 0% | 0hPa | 2.6V | 08:21:48 | 02:37:35 | 00:00:00 | |
| BIOWL1-15 | 2026-08-31 01:11:36 | 47.20094 | 8.04990 | 316° | 49km/h | 24856m | -16m/s | -51.9°C | 0% | 0hPa | 2.5V | 08:21:48 | 02:37:15 | 00:00:00 | |
| HASLITAL | 2026-08-31 01:11:35 | 47.20171 | 8.04981 | 87° | 18km/h | 24712m | -15.6m/s | -52.0°C | 0.9% | 0hPa | 2.5V | 08:21:00 | 00:00:00 | 00:00:00 | |
| IW2NTF | 2026-08-31 01:11:34 | 47.20115 | 8.04969 | 335° | 51km/h | 24823m | -16.9m/s | -51.8°C | 3.5% | 0hPa | 2.5V | 08:21:46 | 02:37:17 | 00:00:00 | |
| DM0DOS-11 | 2026-08-31 01:11:32 | 47.20149 | 8.04961 | 6° | 40km/h | 24775m | -16.3m/s | -51.7°C | 3.5% | 0hPa | 2.6V | 08:21:43 | 02:37:20 | 00:00:00 | |
| DK5PH-5 | 2026-08-31 01:11:30 | 47.20127 | 8.04963 | 346° | 40km/h | 24807m | -15.9m/s | -51.7°C | 3.5% | 0hPa | 2.5V | 00:00:00 | 02:37:18 | 00:00:00 | |
| DB0UT-7 | 2026-08-31 01:11:28 | 47.20104 | 8.04978 | 328° | 40km/h | 24840m | -16.3m/s | -51.8°C | 3.5% | 0hPa | 2.5V | 00:00:00 | 02:37:16 | 00:00:00 | |
| DM0DOS-11 | 2026-08-31 01:11:26 | 47.20092 | 8.05068 | 186° | 26km/h | 24973m | -15.8m/s | -51.8°C | 3.5% | 0hPa | 2.6V | 08:21:55 | 02:37:08 | 00:00:00 | |
| BIOWL1-15 | 2026-08-31 01:11:24 | 47.20078 | 8.05033 | 278° | 40km/h | 24906m | -16.3m/s | -51.9°C | 0.1% | 0hPa | 2.5V | 08:22:39 | 02:37:12 | 00:00:00 | |
| DL1ZP-14 | 2026-08-31 01:11:24 | 47.20078 | 8.05046 | 259° | 33km/h | 24923m | -16.7m/s | -51.9°C | 0.7% | -1.0hPa | 2.5V | 00:00:00 | 00:00:00 | 00:00:00 | |
| IW2NTF | 2026-08-31 01:11:19 | 47.20117 | 8.05018 | 92° | 47km/h | 25053m | -17.3m/s | -51.7°C | 3.5% | 0hPa | 2.6V | 08:22:00 | 02:37:03 | 00:00:00 | |
| BIOWL1-15 | 2026-08-31 01:11:13 | 47.20113 | 8.04983 | 70° | 51km/h | 25087m | -17.2m/s | -51.7°C | 0% | 0hPa | 2.5V | 08:22:39 | 02:37:01 | 00:00:00 | |
| DL6DJ-15 | 2026-08-31 01:11:12 | 47.20100 | 8.04952 | 43° | 47km/h | 25122m | -17.0m/s | -51.8°C | 0.7% | -1.0hPa | 2.5V | 00:00:00 | 00:00:00 | 00:00:00 | |
| OE5DXL-15 | 2026-08-31 01:11:11 | 47.20099 | 8.04952 | 44° | 40km/h | 25122m | -16.9m/s | -51.7°C | 3.5% | 0hPa | 2.5V | 00:00:00 | 00:00:00 | 00:00:00 | |
| DM0DOS-11 | 2026-08-31 01:11:10 | 47.20054 | 8.04949 | 309° | 35km/h | 25204m | -16.3m/s | -51.6°C | 3.4% | 0hPa | 2.5V | 08:22:09 | 02:36:54 | 00:00:00 | |
| IW2NTF | 2026-08-31 01:11:09 | 47.20050 | 8.04960 | 286° | 35km/h | 25220m | -16.6m/s | -51.4°C | 3.4% | 0hPa | 2.5V | 08:22:10 | 02:36:53 | 00:00:00 | |
| BIOWL1-15 | 2026-08-31 01:11:03 | 47.20051 | 8.04986 | 250° | 38km/h | 25254m | -16.8m/s | -51.5°C | 0% | 0hPa | 2.6V | 08:22:39 | 02:36:51 | 00:00:00 | |
| DN1GJH-1 | 2026-08-31 01:11:02 | 47.20051 | 8.04986 | 251° | 38km/h | 25254m | -16.8m/s | -51.5°C | 0.8% | 0hPa | 2.6V | 00:00:00 | 00:00:00 | 00:00:00 | |
| DB0ND-19 | 2026-08-31 01:11:01 | 47.20063 | 8.05009 | 217° | 40km/h | 25287m | -16.7m/s | -51.7°C | 0.7% | -1.0hPa | 2.6V | 00:00:00 | 00:00:00 | 00:00:00 | |
| DM0DOS-11 | 2026-08-31 01:11:00 | 47.20110 | 8.05008 | 138° | 38km/h | 25371m | -17.2m/s | -51.9°C | 3.6% | 0hPa | 2.6V | 08:22:19 | 02:36:44 | 00:00:00 | |
| DK5PH-5 | 2026-08-31 01:11:00 | 47.20072 | 8.05016 | 203° | 40km/h | 25304m | -16.7m/s | -51.8°C | 3.5% | 0hPa | 2.5V | 08:22:00 | 02:36:48 | 00:00:00 | |
| IW2NTF | 2026-08-31 01:10:59 | 47.20116 | 8.04997 | 122° | 37km/h | 25388m | -16.9m/s | -51.8°C | 3.5% | 0hPa | 2.5V | 08:22:20 | 02:36:43 | 00:00:00 | |
| DF7PN | 2026-08-31 01:10:54 | 47.20120 | 8.04974 | 84° | 31km/h | 25422m | -17.6m/s | -51.8°C | 0.7% | -1.0hPa | 2.6V | 00:00:00 | 00:00:00 | 00:00:00 | |
| DL1ZP-14 | 2026-08-31 01:10:52 | 47.20118 | 8.04963 | 63° | 29km/h | 25440m | -17.6m/s | -51.8°C | 0.7% | -1.0hPa | 2.6V | 00:00:00 | 00:00:00 | 00:00:00 | |
| IW2NTF | 2026-08-31 01:10:49 | 47.20068 | 8.04991 | 292° | 53km/h | 25560m | -17.7m/s | -51.4°C | 3.5% | 0hPa | 2.6V | 08:22:30 | 02:36:33 | 00:00:00 | |
| BIOWL1-15 | 2026-08-31 01:10:49 | 47.20099 | 8.04948 | 353° | 35km/h | 25491m | -16.9m/s | -51.7°C | 0% | 0hPa | 2.5V | 08:22:39 | 02:36:37 | 00:00:00 | |
| BIOWL1-15 | 2026-08-31 01:10:38 | 47.20092 | 8.05102 | 199° | 37km/h | 25683m | -17.4m/s | -51.5°C | 0.1% | 0hPa | 2.5V | 08:22:39 | 02:36:26 | 00:00:00 | |
| BIOWL9-15 | 2026-08-31 01:10:38 | 47.20092 | 8.05102 | 198° | 35km/h | 25683m | -17.4m/s | -51.5°C | 0.7% | -1.0hPa | 2.5V | 00:00:00 | 00:00:00 | 00:00:00 | |
| IW2NTF | 2026-08-31 01:10:37 | 47.20112 | 8.05095 | 125° | 27km/h | 25735m | -17.1m/s | -51.3°C | 3.5% | 0hPa | 2.5V | 08:22:40 | 02:36:23 | 00:00:00 | |
| HASLITAL | 2026-08-31 01:10:34 | 47.20115 | 8.05085 | 100° | 31km/h | 25752m | -17.4m/s | -51.3°C | 0.8% | 0hPa | 2.5V | 08:23:00 | 00:00:00 | 00:00:00 | |
| IW2NTF | 2026-08-31 01:10:30 | 47.20042 | 8.05054 | 309° | 51km/h | 25912m | -17.3m/s | -51.2°C | 3.5% | 0hPa | 2.5V | 08:22:50 | 02:36:13 | 00:00:00 | |
| BIOWL1-15 | 2026-08-31 01:10:27 | 47.20062 | 8.05035 | 343° | 49km/h | 25877m | -17.8m/s | -51.2°C | 0% | 0hPa | 2.6V | 08:23:30 | 02:36:15 | 00:00:00 | |
| DN1GJH-1 | 2026-08-31 01:10:24 | 47.20042 | 8.05054 | 311° | 51km/h | 25913m | -17.3m/s | -51.2°C | 0.8% | 0hPa | 2.6V | 08:23:00 | 00:00:00 | 00:00:00 | |
| DM0DOS-11 | 2026-08-31 01:10:23 | 47.20031 | 8.05108 | 264° | 53km/h | 25964m | -17.7m/s | -51.2°C | 3.5% | 0hPa | 2.6V | 08:22:53 | 02:36:10 | 00:00:00 | |
| DF7PN | 2026-08-31 01:10:23 | 47.20031 | 8.05108 | 264° | 53km/h | 25964m | -17.7m/s | -51.3°C | 0.7% | -1.0hPa | 2.5V | 00:00:00 | 00:00:00 | 00:00:00 | |
| IW2NTF | 2026-08-31 01:10:21 | 47.20087 | 8.05185 | 168° | 29km/h | 26091m | -18.1m/s | -51.1°C | 3.5% | 0hPa | 2.5V | 08:23:00 | 02:36:03 | 00:00:00 | |
| BIOWL1-15 | 2026-08-31 01:10:16 | 47.20095 | 8.05175 | 104° | 18km/h | 26126m | -17.3m/s | -51.1°C | 0% | 0hPa | 2.6V | 08:23:30 | 02:36:01 | 00:00:00 | |
| HASLITAL | 2026-08-31 01:10:13 | 47.20092 | 8.05181 | 144° | 22km/h | 26109m | -17.6m/s | -51.1°C | 0.8% | 0hPa | 2.5V | 08:23:00 | 00:00:00 | 00:00:00 | |
| IW2NTF | 2026-08-31 01:10:11 | 47.20023 | 8.05176 | 321° | 62km/h | 26270m | -18.1m/s | -50.4°C | 3.3% | 0hPa | 2.5V | 08:23:10 | 02:35:53 | 00:00:00 | |
| BIOWL1-15 | 2026-08-31 01:10:05 | 47.20015 | 8.05312 | 182° | 31km/h | 26439m | -18m/s | -50.1°C | 0% | 0hPa | 2.6V | 08:23:30 | 02:35:44 | 00:00:00 | |
| DN1GJH-1 | 2026-08-31 01:10:04 | 47.20023 | 8.05176 | 323° | 62km/h | 26271m | -18.1m/s | -50.4°C | 0.8% | 0hPa | 2.6V | 08:23:00 | 00:00:00 | 00:00:00 | |
| IW2NTF | 2026-08-31 01:10:00 | 47.20023 | 8.05309 | 152° | 31km/h | 26457m | -18.4m/s | -50.1°C | 3.2% | 0hPa | 2.6V | 08:23:20 | 02:35:43 | 00:00:00 | |
| BIOWL1-15 | 2026-08-31 01:09:52 | 47.20035 | 8.05276 | 90° | 42km/h | 26511m | -18.8m/s | -50.2°C | 0% | 0hPa | 2.5V | 08:23:30 | 02:35:40 | 00:00:00 | |
| DF7PN | 2026-08-31 01:09:52 | 47.20033 | 8.05260 | 77° | 44km/h | 26530m | -19.0m/s | -50.2°C | 0.6% | -1.0hPa | 2.5V | 00:00:00 | 00:00:00 | 00:00:00 | |
| DL1ZP-14 | 2026-08-31 01:09:50 | 47.20030 | 8.05244 | 64° | 47km/h | 26549m | -18.7m/s | -50.2°C | 0.6% | -1.0hPa | 2.5V | 00:00:00 | 00:00:00 | 00:00:00 | |
| BIOWL1-15 | 2026-08-31 01:09:41 | 47.19968 | 8.05256 | 261° | 42km/h | 26720m | -20.2m/s | -50.2°C | 0% | 0hPa | 2.6V | 08:24:21 | 02:35:29 | 00:00:00 | |
| DL6DJ-15 | 2026-08-31 01:09:39 | 47.19984 | 8.05293 | 209° | 38km/h | 26777m | -18.9m/s | -50.3°C | -1.0% | -1.0hPa | 2.6V | 00:00:00 | 00:00:00 | 00:00:00 | |
| IW2NTF | 2026-08-31 01:09:38 | 47.20020 | 8.05276 | 108° | 31km/h | 26874m | -19.6m/s | -50.3°C | 3.4% | 0hPa | 2.6V | 08:23:42 | 02:35:21 | 00:00:00 | |
| BIOWL1-15 | 2026-08-31 01:09:32 | 47.20013 | 8.05242 | 41° | 37km/h | 26931m | -19.6m/s | -50.3°C | 0% | 0hPa | 2.5V | 08:24:21 | 02:35:18 | 00:00:00 | |
| LOEBOVI | 2026-08-31 01:09:31 | 47.20021 | 8.05264 | 89° | 33km/h | 26893m | -18.5m/s | -50.3°C | 0.7% | 0hPa | 2.5V | 00:00:00 | 00:00:00 | 00:00:00 | |
| DK5PH-5 | 2026-08-31 01:09:30 | 47.20013 | 8.05242 | 42° | 44km/h | 26931m | -19.6m/s | -50.3°C | 3.4% | 0hPa | 2.5V | 00:00:00 | 02:35:18 | 00:00:00 | |
| IW2NTF | 2026-08-31 01:09:28 | 47.19946 | 8.05277 | 295° | 53km/h | 27063m | -19.3m/s | -50.1°C | 3.2% | 0hPa | 2.5V | 08:23:52 | 02:35:11 | 00:00:00 | |
| BIOWL1-15 | 2026-08-31 01:09:20 | 47.19979 | 8.05367 | 135° | 31km/h | 27241m | -19.3m/s | -49.8°C | 0% | 0hPa | 2.6V | 08:24:21 | 02:35:02 | 00:00:00 | |
| DL1ZP-14 | 2026-08-31 01:09:19 | 47.19944 | 8.05348 | 245° | 42km/h | 27142m | -20.5m/s | -50.0°C | 0.6% | -1.0hPa | 2.6V | 00:00:00 | 00:00:00 | 00:00:00 | |
| DM0DOS-11 | 2026-08-31 01:09:13 | 47.19984 | 8.05344 | 85° | 35km/h | 27282m | -20.7m/s | -49.8°C | 3.2% | 0hPa | 2.6V | 08:24:03 | 02:35:00 | 00:00:00 | |
| HASLITAL | 2026-08-31 01:09:12 | 47.19983 | 8.05356 | 108° | 33km/h | 27262m | -20.7m/s | -49.8°C | 0.7% | 0hPa | 2.5V | 08:24:00 | 00:00:00 | 00:00:00 | |
| OE5DXL-15 | 2026-08-31 01:09:09 | 47.19967 | 8.05308 | 29° | 37km/h | 27341m | -20.8m/s | -49.6°C | 3.2% | 0hPa | 2.5V | 00:00:00 | 00:00:00 | 00:00:00 | |
| IW2NTF | 2026-08-31 01:09:08 | 47.19901 | 8.05333 | 298° | 46km/h | 27464m | -20.2m/s | -49.5°C | 3.2% | 0hPa | 2.5V | 08:24:12 | 02:34:51 | 00:00:00 | |
| BIOWL1-15 | 2026-08-31 01:09:03 | 47.19918 | 8.05385 | 181° | 38km/h | 27565m | -20.2m/s | -49.4°C | 0% | 0hPa | 2.6V | 08:24:21 | 02:34:46 | 00:00:00 | |
| DM0DOS-11 | 2026-08-31 01:09:03 | 47.19898 | 8.05362 | 255° | 37km/h | 27505m | -20.6m/s | -49.6°C | 3.2% | 0hPa | 2.5V | 08:24:14 | 02:34:49 | 00:00:00 | |
| DN1GJH-1 | 2026-08-31 01:09:02 | 47.19901 | 8.05332 | 300° | 46km/h | 27465m | -20.2m/s | -49.5°C | 0.7% | 0hPa | 2.6V | 08:24:00 | 00:00:00 | 00:00:00 | |
| DK5PH-5 | 2026-08-31 01:09:00 | 47.19902 | 8.05373 | 233° | 44km/h | 27526m | -19.4m/s | -49.5°C | 3.2% | 0hPa | 2.6V | 00:00:00 | 02:34:48 | 00:00:00 | |
| IW2NTF | 2026-08-31 01:08:58 | 47.19952 | 8.05330 | 94° | 51km/h | 27665m | -19.7m/s | -49.2°C | 3.1% | 0hPa | 2.6V | 08:24:22 | 02:34:41 | 00:00:00 | |
| DB0ND-19 | 2026-08-31 01:08:57 | 47.19936 | 8.05375 | 142° | 42km/h | 27605m | -19.7m/s | -49.3°C | 0.6% | -1.0hPa | 2.6V | 00:00:00 | 00:00:00 | 00:00:00 | |
| DM0DOS-11 | 2026-08-31 01:08:53 | 47.19946 | 8.05294 | 60° | 49km/h | 27706m | -20.7m/s | -49.3°C | 3.1% | 0hPa | 2.6V | 08:24:24 | 02:34:39 | 00:00:00 | |
| BIOWL1-15 | 2026-08-31 01:08:50 | 47.19939 | 8.05280 | 44° | 47km/h | 27726m | -20.3m/s | -49.4°C | 0% | 0hPa | 2.5V | 08:25:12 | 02:34:38 | 00:00:00 | |
| DF7PN | 2026-08-31 01:08:49 | 47.19929 | 8.05270 | 25° | 46km/h | 27747m | -20.1m/s | -49.4°C | 0.6% | -1.0hPa | 2.5V | 00:00:00 | 00:00:00 | 00:00:00 | |
| IW2NTF | 2026-08-31 01:08:48 | 47.19876 | 8.05316 | 280° | 49km/h | 27866m | -21.2m/s | -49.6°C | 3.2% | 0hPa | 2.5V | 08:24:32 | 02:34:31 | 00:00:00 | |
| DL1ZP-14 | 2026-08-31 01:08:48 | 47.19918 | 8.05266 | 6° | 46km/h | 27767m | -19.8m/s | -49.5°C | 0.6% | -1.0hPa | 2.5V | 00:00:00 | 00:00:00 | 00:00:00 | |
| BIOWL1-15 | 2026-08-31 01:08:40 | 47.19884 | 8.05366 | 232° | 46km/h | 27930m | -20.8m/s | -49.8°C | 0% | 0hPa | 2.5V | 08:25:12 | 02:34:28 | 00:00:00 | |
| DF3TZ-5 | 2026-08-31 01:08:39 | 47.19892 | 8.05376 | 212° | 40km/h | 27951m | -20.1m/s | 0°C | -1.0% | -1.0hPa | 2.6V | 00:00:00 | 00:00:00 | 00:00:00 | |
| IW2NTF | 2026-08-31 01:08:38 | 47.19926 | 8.05338 | 77° | 42km/h | 28073m | -20.9m/s | -49.9°C | 3.3% | 0hPa | 2.6V | 08:24:42 | 02:34:21 | 00:00:00 | |
| DM0DOS-11 | 2026-08-31 01:08:35 | 47.19927 | 8.05353 | 97° | 38km/h | 28052m | -20.7m/s | -49.9°C | 3.3% | 0hPa | 2.5V | 08:24:41 | 02:34:22 | 00:00:00 | |
| BIOWL1-15 | 2026-08-31 01:08:29 | 47.19893 | 8.05295 | 11° | 49km/h | 28159m | -21.5m/s | -49.7°C | 0% | 0hPa | 2.5V | 08:25:12 | 02:34:17 | 00:00:00 | |
| IW2NTF | 2026-08-31 01:08:28 | 47.19847 | 8.05356 | 266° | 47km/h | 28283m | -19.6m/s | -49.7°C | 3.3% | 0hPa | 2.6V | 08:24:52 | 02:34:11 | 00:00:00 | |
| DB0UT-7 | 2026-08-31 01:08:28 | 47.19881 | 8.05294 | 353° | 46km/h | 28181m | -21.7m/s | -49.7°C | 3.3% | 0hPa | 2.6V | 08:24:00 | 02:34:16 | 00:00:00 | |
| DB0ND-19 | 2026-08-31 01:08:27 | 47.19859 | 8.05309 | 317° | 49km/h | 28222m | -20.3m/s | -49.7°C | 0.7% | -1.0hPa | 2.5V | 00:00:00 | 00:00:00 | 00:00:00 | |
| DM0DOS-11 | 2026-08-31 01:08:20 | 47.19863 | 8.05402 | 223° | 47km/h | 28344m | -21.4m/s | -49.4°C | 3.3% | 0hPa | 2.5V | 08:24:55 | 02:34:08 | 00:00:00 | |
| IW2NTF | 2026-08-31 01:08:18 | 47.19906 | 8.05395 | 62° | 33km/h | 28498m | -20.2m/s | -48.9°C | 3.2% | 0hPa | 2.5V | 08:25:02 | 02:34:01 | 00:00:00 | |
| BIOWL1-15 | 2026-08-31 01:08:18 | 47.19864 | 8.05369 | 358° | 57km/h | 28587m | -22.5m/s | -48.5°C | 0% | 0hPa | 2.6V | 08:25:12 | 02:33:57 | 00:00:00 | |
| DL1ZP-14 | 2026-08-31 01:08:17 | 47.19891 | 8.05421 | 181° | 35km/h | 28412m | -23.6m/s | -49.3°C | 0.6% | -1.0hPa | 2.5V | 00:00:00 | 00:00:00 | 00:00:00 | |
| HASLITAL | 2026-08-31 01:08:09 | 47.19878 | 8.05371 | 12° | 53km/h | 28565m | -23.7m/s | -48.6°C | 0.7% | 0hPa | 2.5V | 08:25:00 | 00:00:00 | 00:00:00 | |
| IW2NTF | 2026-08-31 01:08:08 | 47.19807 | 8.05450 | 269° | 49km/h | 28722m | -22.8m/s | -48.2°C | 3% | 0hPa | 2.5V | 08:25:12 | 02:33:51 | 00:00:00 | |
| BIOWL1-15 | 2026-08-31 01:08:02 | 47.19814 | 8.05481 | 232° | 38km/h | 28766m | -21.8m/s | -48.1°C | 0% | 0hPa | 2.6V | 08:26:03 | 02:33:49 | 00:00:00 | |
| DN1GJH-1 | 2026-08-31 01:08:01 | 47.19809 | 8.05467 | 252° | 44km/h | 28744m | -21.5m/s | -48.2°C | 0.7% | 0hPa | 2.6V | 08:26:00 | 00:00:00 | 00:00:00 | |
| DK5PH-5 | 2026-08-31 01:08:00 | 47.19820 | 8.05489 | 206° | 44km/h | 28789m | -24.1m/s | -47.9°C | 3.0% | 0hPa | 2.6V | 00:00:00 | 02:33:48 | 00:00:00 | |
| IW2NTF | 2026-08-31 01:07:58 | 47.19820 | 8.05427 | 41° | 60km/h | 28946m | -22.4m/s | -48°C | 3.1% | 0hPa | 2.5V | 08:25:22 | 02:33:41 | 00:00:00 | |
| DM0DOS-11 | 2026-08-31 01:07:58 | 47.19836 | 8.05482 | 112° | 27km/h | 28857m | -22m/s | -47.8°C | 3% | 0hPa | 2.5V | 08:25:18 | 02:33:45 | 00:00:00 | |
| BIOWL1-15 | 2026-08-31 01:07:52 | 47.19776 | 8.05401 | 6° | 66km/h | 29016m | -23.2m/s | -47.8°C | 0% | 0hPa | 2.6V | 08:26:03 | 02:33:38 | 00:00:00 | |
| IW2NTF | 2026-08-31 01:07:48 | 47.19717 | 8.05477 | 247° | 40km/h | 29178m | -23.6m/s | -46.9°C | 2.9% | 0hPa | 2.5V | 08:25:32 | 02:33:31 | 00:00:00 | |
| DM0DOS-11 | 2026-08-31 01:07:48 | 47.19733 | 8.05417 | 324° | 57km/h | 29086m | -22.8m/s | -47.5°C | 3.1% | 0hPa | 2.5V | 08:25:28 | 02:33:35 | 00:00:00 | |
| DF7PN | 2026-08-31 01:07:47 | 47.19733 | 8.05417 | 324° | 55km/h | 29087m | -22.8m/s | -47.5°C | 0.6% | -1.0hPa | 2.6V | 00:00:00 | 00:00:00 | 00:00:00 | |
| DL1ZP-14 | 2026-08-31 01:07:46 | 47.19723 | 8.05431 | 306° | 49km/h | 29109m | -23.2m/s | -47.3°C | 0.5% | -1.0hPa | 2.6V | 00:00:00 | 00:00:00 | 00:00:00 | |
| DM0DOS-11 | 2026-08-31 01:07:43 | 47.19755 | 8.05493 | 107° | 29km/h | 29323m | -23m/s | -46.1°C | 2.8% | 0hPa | 2.6V | 08:25:38 | 02:33:25 | 00:00:00 | |
| DN1GJH-1 | 2026-08-31 01:07:41 | 47.19723 | 8.05490 | 231° | 42km/h | 29202m | -23.3m/s | -46.8°C | 0.6% | 0hPa | 2.5V | 08:26:00 | 00:00:00 | 00:00:00 | |
| BIOWL1-15 | 2026-08-31 01:07:41 | 47.19730 | 8.05500 | 212° | 38km/h | 29225m | -23.9m/s | -46.6°C | 0% | 0hPa | 2.5V | 08:26:03 | 02:33:29 | 00:00:00 | |
| IW2NTF | 2026-08-31 01:07:38 | 47.19732 | 8.05447 | 20° | 57km/h | 29416m | -25.4m/s | -45.6°C | 2.7% | 0hPa | 2.5V | 08:25:42 | 02:33:21 | 00:00:00 | |
| DM0DOS-11 | 2026-08-31 01:07:32 | 47.19653 | 8.05480 | 308° | 58km/h | 29558m | -23.6m/s | -45.1°C | 2.6% | 0hPa | 2.5V | 08:25:48 | 02:33:15 | 00:00:00 | |
| BIOWL1-15 | 2026-08-31 01:07:30 | 47.19645 | 8.05497 | 297° | 55km/h | 29582m | -23.6m/s | -45.1°C | 0% | 0hPa | 2.6V | 08:26:03 | 02:33:14 | 00:00:00 | |
| DK5PH-5 | 2026-08-31 01:07:30 | 47.19689 | 8.05443 | 347° | 37km/h | 29488m | -22.1m/s | -45.2°C | 2.6% | 0hPa | 2.5V | 00:00:00 | 02:33:18 | 00:00:00 | |
| IW2NTF | 2026-08-31 01:07:28 | 47.19640 | 8.05546 | 258° | 37km/h | 29653m | -23.5m/s | -44.9°C | 2.6% | 0hPa | 2.5V | 08:25:52 | 02:33:11 | 00:00:00 | |
| BIOWL1-15 | 2026-08-31 01:07:20 | 47.19652 | 8.05568 | 187° | 22km/h | 29723m | -23.8m/s | -44.9°C | 0% | 0hPa | 2.6V | 08:26:03 | 02:33:08 | 00:00:00 | |
| IW2NTF | 2026-08-31 01:07:18 | 47.19674 | 8.05499 | 75° | 37km/h | 29892m | -25m/s | -44.1°C | 2.6% | 0hPa | 2.5V | 08:26:02 | 02:33:01 | 00:00:00 | |
| DF7PN | 2026-08-31 01:07:16 | 47.19671 | 8.05540 | 110° | 37km/h | 29818m | -24.6m/s | -44.6°C | 0.4% | -1.0hPa | 2.5V | 00:00:00 | 00:00:00 | 00:00:00 | |
| DL1ZP-14 | 2026-08-31 01:07:15 | 47.19674 | 8.05527 | 101° | 38km/h | 29843m | -24.7m/s | -44.4°C | 0.4% | -1.0hPa | 2.5V | 00:00:00 | 00:00:00 | 00:00:00 | |
| DM0DOS-11 | 2026-08-31 01:07:11 | 47.19642 | 8.05470 | 348° | 35km/h | 30015m | -27.9m/s | -43.3°C | 2.4% | 0hPa | 2.5V | 08:26:07 | 02:32:56 | 00:00:00 | |
| BIOWL1-15 | 2026-08-31 01:07:10 | 47.19650 | 8.05469 | 4° | 33km/h | 29989m | -25.5m/s | -43.5°C | 0% | 0hPa | 2.5V | 08:26:54 | 02:32:57 | 00:00:00 | |
| IW2NTF | 2026-08-31 01:07:08 | 47.19615 | 8.05506 | 293° | 33km/h | 30142m | -28.2m/s | -42.7°C | 2.3% | 0hPa | 2.5V | 08:26:12 | 02:32:51 | 00:00:00 | |
| HASLITAL | 2026-08-31 01:07:07 | 47.19642 | 8.05470 | 349° | 35km/h | 30015m | -27.9m/s | -43.3°C | 0.4% | 0hPa | 2.6V | 08:26:00 | 00:00:00 | 00:00:00 | |
| BIOWL9-15 | 2026-08-31 01:07:01 | 47.19591 | 8.05539 | 11° | 18km/h | 30262m | -22.8m/s | -42.7°C | 0.4% | -1.0hPa | 2.6V | 00:00:00 | 00:00:00 | 00:00:00 | |
| DM0DOS-11 | 2026-08-31 01:06:59 | 47.19591 | 8.05539 | 11° | 20km/h | 30262m | -22.8m/s | -42.6°C | 2.3% | 0hPa | 2.6V | 08:26:17 | 02:32:46 | 00:00:00 | |
| IW2NTF | 2026-08-31 01:06:58 | 47.19573 | 8.05540 | 288° | 13km/h | 30397m | -27.4m/s | -42.2°C | 2.2% | 0hPa | 2.6V | 08:26:22 | 02:32:41 | 00:00:00 | |
| BIOWL1-15 | 2026-08-31 01:06:58 | 47.19573 | 8.05543 | 263° | 9km/h | 30425m | -29m/s | -42.1°C | 0% | 0hPa | 2.5V | 08:26:54 | 02:32:40 | 00:00:00 | |
| DJ2DS-15 | 2026-08-31 01:06:58 | 47.19575 | 8.05536 | 331° | 11km/h | 30369m | -28.6m/s | -42.2°C | 0.3% | -1.0hPa | 2.5V | 00:00:00 | 00:00:00 | 00:00:00 | |
| DB0ND-19 | 2026-08-31 01:06:53 | 47.19573 | 8.05539 | 288° | 11km/h | 30397m | -27.4m/s | -42.2°C | 0.3% | -1.0hPa | 2.5V | 00:00:00 | 00:00:00 | 00:00:00 | |
| OE5DXL-15 | 2026-08-31 01:06:51 | 47.19573 | 8.05548 | 248° | 18km/h | 30454m | -29.1m/s | -42.1°C | 2.1% | 0hPa | 2.5V | 08:26:00 | 00:00:00 | 00:00:00 | |
| DM0DOS-11 | 2026-08-31 01:06:49 | 47.19580 | 8.05554 | 167° | 15km/h | 30533m | -24.3m/s | -42.3°C | 2.2% | 0hPa | 2.6V | 08:26:27 | 02:32:36 | 00:00:00 | |
| IW2NTF | 2026-08-31 01:06:48 | 47.19593 | 8.05522 | 97° | 22km/h | 30665m | -28.4m/s | -42.5°C | 2.2% | 0hPa | 2.5V | 08:26:32 | 02:32:31 | 00:00:00 | |
| BIOWL1-15 | 2026-08-31 01:06:48 | 47.19586 | 8.05545 | 128° | 20km/h | 30583m | -26m/s | -42.4°C | 0% | 0hPa | 2.5V | 08:26:54 | 02:32:34 | 00:00:00 | |
| DF7PN | 2026-08-31 01:06:45 | 47.19589 | 8.05539 | 123° | 24km/h | 30610m | -26.6m/s | -42.4°C | 0.3% | -1.0hPa | 2.5V | 00:00:00 | 00:00:00 | 00:00:00 | |
| DL1ZP-14 | 2026-08-31 01:06:44 | 47.19593 | 8.05522 | 97° | 20km/h | 30665m | -28.4m/s | -42.5°C | 0.3% | -1.0hPa | 2.5V | 00:00:00 | 00:00:00 | 00:00:00 | |
| IW2NTF | 2026-08-31 01:06:37 | 47.19469 | 8.05529 | 350° | 55km/h | 30948m | -24.9m/s | -42.6°C | 2.4% | 0hPa | 2.5V | 08:26:43 | 02:32:20 | 00:00:00 | |
| BIOWL1-15 | 2026-08-31 01:06:36 | 47.19469 | 8.05529 | 351° | 57km/h | 30948m | -24.9m/s | -42.6°C | 0% | 0hPa | 2.5V | 08:26:54 | 02:32:20 | 00:00:00 | |
| DK5PH-5 | 2026-08-31 01:06:30 | 47.19444 | 8.05529 | 7° | 42km/h | 30997m | -23.7m/s | -42.4°C | 2.4% | 0hPa | 2.5V | 08:26:00 | 02:32:18 | 00:00:00 | |
| DB0UT-7 | 2026-08-31 01:06:28 | 47.19427 | 8.05521 | 32° | 40km/h | 31043m | -24.8m/s | -42.2°C | 2.4% | 0hPa | 2.6V | 00:00:00 | 02:32:16 | 00:00:00 | |
| IW2NTF | 2026-08-31 01:06:25 | 47.19395 | 8.05513 | 302° | 20km/h | 31209m | -32m/s | -40.9°C | 2.1% | 0hPa | 2.6V | 08:26:53 | 02:32:10 | 00:00:00 | |
| BIOWL1-15 | 2026-08-31 01:06:22 | 47.19395 | 8.05513 | 302° | 20km/h | 31209m | -32m/s | -40.9°C | 0% | 0hPa | 2.6V | 08:26:54 | 02:32:10 | 00:00:00 | |
| IW2NTF | 2026-08-31 01:06:15 | 47.19305 | 8.05509 | 27° | 69km/h | 31491m | -27.7m/s | -40°C | 2% | 0hPa | 2.6V | 08:27:03 | 02:32:00 | 00:00:00 | |
| BIOWL1-15 | 2026-08-31 01:06:12 | 47.19305 | 8.05508 | 28° | 69km/h | 31491m | -27.7m/s | -40°C | 0% | 0hPa | 2.6V | 08:27:45 | 02:32:00 | 00:00:00 | |
| DN1GJH-1 | 2026-08-31 01:06:09 | 47.19275 | 8.05481 | 34° | 68km/h | 31547m | -29.4m/s | -40.1°C | 0.3% | 0hPa | 2.6V | 08:27:00 | 00:00:00 | 00:00:00 | |
| HASLITAL | 2026-08-31 01:06:04 | 47.19239 | 8.05403 | 96° | 53km/h | 31683m | -28.4m/s | -40.0°C | 0.3% | 0hPa | 2.6V | 08:27:00 | 00:00:00 | 00:00:00 | |
| DM0DOS-11 | 2026-08-31 01:06:03 | 47.19248 | 8.05352 | 110° | 42km/h | 31766m | -26.2m/s | -40°C | 2% | 0hPa | 2.6V | 08:27:13 | 02:31:50 | 00:00:00 | |
| BIOWL1-15 | 2026-08-31 01:06:03 | 47.19253 | 8.05339 | 122° | 37km/h | 31791m | -24.1m/s | -40.1°C | 0% | 0hPa | 2.6V | 08:27:45 | 02:31:49 | 00:00:00 | |
| BIOWL9-15 | 2026-08-31 01:05:59 | 47.19263 | 8.05316 | 119° | 15km/h | 31868m | -27.8m/s | -40.1°C | 0.3% | -1.0hPa | 2.5V | 00:00:00 | 00:00:00 | 00:00:00 | |
| DB0UT-7 | 2026-08-31 01:05:58 | 47.19263 | 8.05316 | 120° | 27km/h | 31868m | -27.8m/s | -40.1°C | 2.1% | 0hPa | 2.5V | 00:00:00 | 00:00:00 | 00:00:00 | |
| DM0DOS-11 | 2026-08-31 01:05:52 | 47.19257 | 8.05293 | 69° | 20km/h | 32035m | -29m/s | -39.3°C | 1.9% | 0hPa | 2.5V | 08:27:23 | 02:31:40 | 00:00:00 | |
| BIOWL1-15 | 2026-08-31 01:05:51 | 47.19256 | 8.05286 | 85° | 22km/h | 32064m | -28.3m/s | -39.2°C | 0% | 0hPa | 2.5V | 08:27:45 | 02:31:39 | 00:00:00 | |
| DJ2DS-15 | 2026-08-31 01:05:46 | 47.19278 | 8.05221 | 128° | 57km/h | 32205m | -27.9m/s | -38.9°C | 0.2% | -1.0hPa | 2.5V | 00:00:00 | 00:00:00 | 00:00:00 | |
| IW2NTF | 2026-08-31 01:05:45 | 47.19310 | 8.05158 | 120° | 44km/h | 32329m | -31.3m/s | -39.1°C | 1.9% | 0hPa | 2.5V | 08:27:33 | 02:31:30 | 00:00:00 | |
| BIOWL1-15 | 2026-08-31 01:05:40 | 47.19317 | 8.05137 | 115° | 24km/h | 32388m | -26.6m/s | -39.3°C | 0% | 0hPa | 2.6V | 08:27:45 | 02:31:28 | 00:00:00 | |
| DO1YAY-16 | 2026-08-31 01:05:37 | 47.19316 | 8.05121 | 97° | 5km/h | 32506m | -32.6m/s | -39.0°C | 0.2% | -1.0hPa | 2.6V | 00:00:00 | 00:00:00 | 00:00:00 | |
| IW2NTF | 2026-08-31 01:05:36 | 47.19328 | 8.05101 | 133° | 31km/h | 32638m | -32m/s | -38.6°C | 1.9% | 0hPa | 2.6V | 08:27:43 | 02:31:20 | 00:00:00 | |
| BIOWL1-15 | 2026-08-31 01:05:30 | 47.19333 | 8.05037 | 40° | 31km/h | 32928m | -31.1m/s | -37.8°C | 0% | 0hPa | 2.5V | 08:28:36 | 02:31:11 | 00:00:00 | |
| OE5DXL-15 | 2026-08-31 01:05:29 | 47.19342 | 8.05076 | 126° | 26km/h | 32737m | -35.0m/s | -38.6°C | 1.9% | 0hPa | 2.6V | 00:00:00 | 00:00:00 | 00:00:00 | |
| BIOWL9-15 | 2026-08-31 01:05:28 | 47.19347 | 8.05064 | 98° | 15km/h | 32799m | -31.3m/s | -38.1°C | 0.2% | -1.0hPa | 2.6V | 00:00:00 | 00:00:00 | 00:00:00 | |
| IW2NTF | 2026-08-31 01:05:25 | 47.19326 | 8.05028 | 42° | 42km/h | 32960m | -33.2m/s | -37.9°C | 1.7% | 0hPa | 2.6V | 08:27:53 | 02:31:10 | 00:00:00 | |
| DM0DOS-11 | 2026-08-31 01:05:23 | 47.19313 | 8.05006 | 53° | 33km/h | 33030m | -39.2m/s | -38°C | 1.7% | 0hPa | 2.6V | 08:27:55 | 02:31:08 | 00:00:00 | |
| BIOWL1-15 | 2026-08-31 01:05:20 | 47.19307 | 8.04985 | 82° | 27km/h | 33106m | -34.1m/s | -38.3°C | 0% | 0hPa | 2.5V | 08:28:36 | 02:31:06 | 00:00:00 | |
| BIOWL1-15 | 2026-08-31 01:05:12 | 47.19298 | 8.04988 | 29° | 69km/h | 33577m | -32.6m/s | -38.7°C | 0% | 0hPa | 2.6V | 08:28:36 | 02:30:50 | 00:00:00 | |
| DL1ZP-14 | 2026-08-31 01:05:11 | 47.19365 | 8.04996 | 248° | 35km/h | 33358m | -33.9m/s | -38.7°C | 0.2% | -1.0hPa | 2.5V | 00:00:00 | 00:00:00 | 00:00:00 | |
| DN1GJH-1 | 2026-08-31 01:05:08 | 47.19367 | 8.05008 | 266° | 31km/h | 33390m | -31.0m/s | -38.9°C | 0.3% | 0hPa | 2.6V | 08:28:00 | 00:00:00 | 00:00:00 | |
| IW2NTF | 2026-08-31 01:05:07 | 47.19298 | 8.04988 | 28° | 69km/h | 33577m | -32.6m/s | -38.7°C | 1.9% | 0hPa | 2.6V | 08:28:13 | 02:30:50 | 00:00:00 | |
| BIOWL1-15 | 2026-08-31 01:04:57 | 47.19241 | 8.04945 | 32° | 18km/h | 33730m | -26.7m/s | -38.8°C | 0% | 0hPa | 2.6V | 08:28:36 | 02:30:45 | 00:00:00 | |
| BIOWL9-15 | 2026-08-31 01:04:57 | 47.19239 | 8.04943 | 139° | 2km/h | 33757m | -26.2m/s | -38.6°C | 0.2% | -1.0hPa | 2.5V | 00:00:00 | 00:00:00 | 00:00:00 | |
| IW2NTF | 2026-08-31 01:04:55 | 47.19267 | 8.04956 | 190° | 46km/h | 33876m | -32.6m/s | -38.1°C | 1.9% | 0hPa | 2.5V | 08:28:23 | 02:30:40 | 00:00:00 | |
| DM0DOS-11 | 2026-08-31 01:04:53 | 47.19315 | 8.04938 | 145° | 57km/h | 34009m | -30.5m/s | -37.5°C | 1.8% | 0hPa | 2.6V | 08:28:27 | 02:30:36 | 00:00:00 | |
| DB0ND-19 | 2026-08-31 01:04:49 | 47.19304 | 8.04949 | 154° | 53km/h | 33977m | -33.2m/s | -37.6°C | 0.2% | -1.0hPa | 2.5V | 00:00:00 | 00:00:00 | 00:00:00 | |
| BIOWL1-15 | 2026-08-31 01:04:47 | 47.19312 | 8.04755 | 55° | 78km/h | 34246m | -33.4m/s | -36.4°C | 0% | 0hPa | 2.5V | 08:28:36 | 02:30:28 | 00:00:00 | |
| DH7VM-15 | 2026-08-31 01:04:46 | 47.19326 | 8.04924 | 132° | 60km/h | 34040m | -31.0m/s | -37.5°C | 0.2% | 0hPa | 2.6V | 00:00:00 | 00:00:00 | 00:00:00 | |
| IW2NTF | 2026-08-31 01:04:45 | 47.19332 | 8.04807 | 66° | 80km/h | 34184m | -29.8m/s | -36.9°C | 1.7% | 0hPa | 2.6V | 08:28:33 | 02:30:30 | 00:00:00 | |
| DM0DOS-11 | 2026-08-31 01:04:42 | 47.19288 | 8.04714 | 44° | 64km/h | 34316m | -36.1m/s | -36°C | 1.6% | 0hPa | 2.5V | 08:28:37 | 02:30:26 | 00:00:00 | |
| DF7PN | 2026-08-31 01:04:41 | 47.19323 | 8.04780 | 59° | 80km/h | 34214m | -31.3m/s | -36.7°C | 0.2% | -1.0hPa | 2.5V | 00:00:00 | 00:00:00 | 00:00:00 | |
| DL1ZP-14 | 2026-08-31 01:04:40 | 47.19300 | 8.04733 | 51° | 73km/h | 34281m | -35.9m/s | -36.2°C | 0.2% | -1.0hPa | 2.5V | 00:00:00 | 00:00:00 | 00:00:00 | |
| IW2NTF | 2026-08-31 01:04:35 | 47.19268 | 8.04692 | 203° | 38km/h | 34518m | -30.4m/s | -36.3°C | 1.6% | 0hPa | 2.6V | 08:28:43 | 02:30:20 | 00:00:00 | |
| BIOWL1-15 | 2026-08-31 01:04:34 | 47.19260 | 8.04685 | 358° | 5km/h | 34458m | -30.7m/s | -36.2°C | 0% | 0hPa | 2.5V | 08:29:27 | 02:30:22 | 00:00:00 | |
| BIOWL1-15 | 2026-08-31 01:04:28 | 47.19400 | 8.04556 | 61° | 44km/h | 34937m | -33.2m/s | -35.9°C | 0% | 0hPa | 2.6V | 08:29:27 | 02:30:07 | 00:00:00 | |
| BIOWL9-15 | 2026-08-31 01:04:26 | 47.19385 | 8.04673 | 141° | 77km/h | 34753m | -28.0m/s | -36.8°C | 0.2% | -1.0hPa | 2.5V | 00:00:00 | 00:00:00 | 00:00:00 | |
| IW2NTF | 2026-08-31 01:04:25 | 47.19408 | 8.04611 | 95° | 58km/h | 34840m | -31.6m/s | -36.5°C | 1.8% | 0hPa | 2.5V | 08:28:53 | 02:30:10 | 00:00:00 | |
| HASLITAL | 2026-08-31 01:04:21 | 47.19408 | 8.04611 | 96° | 58km/h | 34841m | -31.6m/s | -36.5°C | 0.2% | 0hPa | 2.5V | 08:29:00 | 00:00:00 | 00:00:00 | |
| DB0ND-19 | 2026-08-31 01:04:18 | 47.19386 | 8.04525 | 60° | 20km/h | 35037m | -34.3m/s | -35.8°C | 0.1% | -1.0hPa | 2.5V | 00:00:00 | 00:00:00 | 00:00:00 | |
| IW2NTF | 2026-08-31 01:04:15 | 47.19394 | 8.04509 | 153° | 29km/h | 35173m | -37m/s | -35.5°C | 1.7% | 0hPa | 2.5V | 08:29:03 | 02:30:00 | 00:00:00 | |
| BIOWL1-15 | 2026-08-31 01:04:13 | 47.19389 | 8.04513 | 160° | 22km/h | 35137m | -34.6m/s | -35.6°C | 0% | 0hPa | 2.6V | 08:29:27 | 02:30:01 | 00:00:00 | |
| DM0DOS-11 | 2026-08-31 01:04:13 | 47.19430 | 8.04487 | 164° | 38km/h | 35311m | -33.9m/s | -35°C | 1.6% | 0hPa | 2.5V | 08:29:07 | 02:29:56 | 00:00:00 | |
| DF7PN | 2026-08-31 01:04:10 | 47.19420 | 8.04492 | 158° | 38km/h | 35278m | -32.0m/s | -35.1°C | 0.2% | -1.0hPa | 2.5V | 00:00:00 | 00:00:00 | 00:00:00 | |
| DL1ZP-14 | 2026-08-31 01:04:08 | 47.19430 | 8.04487 | 164° | 37km/h | 35311m | -33.9m/s | -35.0°C | 0.1% | -1.0hPa | 2.5V | 00:00:00 | 00:00:00 | 00:00:00 | |
| DN1GJH-1 | 2026-08-31 01:04:06 | 47.19438 | 8.04484 | 164° | 37km/h | 35344m | -31.8m/s | -34.8°C | 0.2% | 0hPa | 2.5V | 08:29:00 | 00:00:00 | 00:00:00 | |
| IW2NTF | 2026-08-31 01:04:05 | 47.19463 | 8.04458 | 97° | 18km/h | 35498m | -31.3m/s | -34.7°C | 1.6% | 0hPa | 2.5V | 08:29:13 | 02:29:50 | 00:00:00 | |
| DM0DOS-11 | 2026-08-31 01:04:03 | 47.19459 | 8.04422 | 76° | 27km/h | 35631m | -35.8m/s | -34°C | 1.6% | 0hPa | 2.6V | 08:29:17 | 02:29:46 | 00:00:00 | |
| BIOWL1-15 | 2026-08-31 01:04:02 | 47.19463 | 8.04442 | 74° | 24km/h | 35563m | -35m/s | -34.5°C | 0% | 0hPa | 2.6V | 08:29:27 | 02:29:48 | 00:00:00 | |
| DL6DJ-15 | 2026-08-31 01:03:57 | 47.19526 | 8.04345 | 181° | 77km/h | 35952m | -35.2m/s | -31.1°C | 0.1% | -1.0hPa | 2.6V | 00:00:00 | 00:00:00 | 00:00:00 | |
| IW2NTF | 2026-08-31 01:03:55 | 47.19479 | 8.04359 | 154° | 51km/h | 35850m | -34.9m/s | -31.8°C | 1.3% | 0hPa | 2.6V | 08:29:23 | 02:29:40 | 00:00:00 | |
| BIOWL1-15 | 2026-08-31 01:03:51 | 47.19526 | 8.04345 | 181° | 77km/h | 35952m | -35.2m/s | -31.1°C | 0% | 0hPa | 2.5V | 08:29:27 | 02:29:37 | 00:00:00 | |
| LOEBOVI | 2026-08-31 01:03:50 | 47.19492 | 8.04352 | 164° | 60km/h | 35885m | -33.9m/s | -31.4°C | 0.1% | 0hPa | 2.5V | 00:00:00 | 00:00:00 | 00:00:00 | |
| DM0DOS-11 | 2026-08-31 01:03:48 | 47.19545 | 8.04347 | 187° | 78km/h | 35986m | -33.1m/s | -31.4°C | 1.3% | 0hPa | 2.5V | 08:29:27 | 02:29:36 | 00:00:00 | |
| DB0ND-19 | 2026-08-31 01:03:47 | 47.19564 | 8.04353 | 196° | 78km/h | 36020m | -34.5m/s | -31.4°C | 0.1% | -1.0hPa | 2.6V | 00:00:00 | 00:00:00 | 00:00:00 | |
| IW2NTF | 2026-08-31 01:03:45 | 47.19627 | 8.04415 | 243° | 37km/h | 36183m | -30.7m/s | -31.4°C | 1.3% | 0hPa | 2.6V | 08:30:00 | 02:29:30 | 00:00:00 | |
| BIOWL1-15 | 2026-08-31 01:03:40 | 47.19630 | 8.04435 | 260° | 18km/h | 36247m | -31.6m/s | -31.2°C | 0% | 0hPa | 2.5V | 18:12:15 | 02:29:28 | 00:00:00 | |
| HASLITAL | 2026-08-31 01:03:39 | 47.19630 | 8.04435 | 261° | 18km/h | 36247m | -31.6m/s | -31.2°C | 0.1% | 0hPa | 2.6V | 00:00:00 | 00:00:00 | 00:00:00 | |
| DJTTGO | 2026-08-31 01:03:38 | 47.19633 | 8.04440 | 207° | 16km/h | 36282m | -37.1m/s | 0°C | 0% | 0hPa | 2.6V | 00:00:00 | 00:00:00 | 00:00:00 | |
| DL1ZP-14 | 2026-08-31 01:03:37 | 47.19648 | 8.04444 | 185° | 40km/h | 36358m | -35.0m/s | -31.2°C | 0.1% | -1.0hPa | 2.6V | 00:00:00 | 00:00:00 | 00:00:00 | |
| IW2NTF | 2026-08-31 01:03:36 | 47.19715 | 8.04509 | 234° | 78km/h | 36536m | -34.2m/s | -31.6°C | 1.3% | 0hPa | 2.6V | 08:30:00 | 02:29:20 | 00:00:00 | |
| BIOWL1-15 | 2026-08-31 01:03:31 | 47.19718 | 8.04809 | 292° | 93km/h | 36847m | -34.2m/s | -32.6°C | 0% | 0hPa | 2.5V | 18:12:15 | 02:29:10 | 00:00:00 | |
| DK5PH-5 | 2026-08-31 01:03:31 | 47.19734 | 8.04560 | 251° | 51km/h | 36602m | -32.0m/s | -31.9°C | 1.3% | 0hPa | 2.5V | 00:00:00 | 02:29:18 | 00:00:00 | |
| DB0UT-7 | 2026-08-31 01:03:28 | 47.19744 | 8.04619 | 265° | 49km/h | 36663m | -29.3m/s | -32.2°C | 1.4% | 0hPa | 2.5V | 00:00:00 | 02:29:16 | 00:00:00 | |
| DL6DJ-15 | 2026-08-31 01:03:26 | 47.19739 | 8.04712 | 281° | 88km/h | 36752m | -30.7m/s | -32.5°C | 0.1% | -1.0hPa | 2.5V | 00:00:00 | 00:00:00 | 00:00:00 | |
| IW2NTF | 2026-08-31 01:03:25 | 47.19718 | 8.04809 | 291° | 93km/h | 36847m | -34.2m/s | -32.6°C | 1.5% | 0hPa | 2.5V | 08:30:00 | 02:29:10 | 00:00:00 | |
| DN1GJH-1 | 2026-08-31 01:03:24 | 47.19739 | 8.04712 | 283° | 89km/h | 36752m | -30.7m/s | -32.5°C | 0.2% | 0hPa | 2.6V | 00:00:00 | 00:00:00 | 00:00:00 | |
| DM0DOS-11 | 2026-08-31 01:03:23 | 47.19700 | 8.04873 | 292° | 89km/h | 36914m | -34.3m/s | -32.5°C | 1.5% | 0hPa | 2.6V | 08:30:00 | 02:29:08 | 00:00:00 | |
| HASLITAL | 2026-08-31 01:03:19 | 47.19700 | 8.04873 | 294° | 89km/h | 36915m | -34.3m/s | -32.5°C | 0.1% | 0hPa | 2.6V | 00:00:00 | 00:00:00 | 00:00:00 | |
| IW2NTF | 2026-08-31 01:03:15 | 47.19636 | 8.05018 | 308° | 22km/h | 37197m | -37.6m/s | -31.1°C | 1.4% | 0hPa | 2.6V | 08:30:00 | 02:29:00 | 00:00:00 | |
| BIOWL1-15 | 2026-08-31 01:03:15 | 47.19654 | 8.04989 | 310° | 51km/h | 37090m | -35.1m/s | -31.9°C | 0% | 0hPa | 2.5V | 18:12:15 | 02:29:03 | 00:00:00 | |
| DH7VM-15 | 2026-08-31 01:03:14 | 47.19654 | 8.04989 | 311° | 51km/h | 37091m | -35.1m/s | -31.9°C | 0.1% | 0hPa | 2.5V | 00:00:00 | 00:00:00 | 00:00:00 | |
| DF7PN | 2026-08-31 01:03:08 | 47.19624 | 8.05026 | 39° | 5km/h | 37393m | -39.6m/s | -29.8°C | 0.1% | -1.0hPa | 2.5V | 00:00:00 | 00:00:00 | 00:00:00 | |
| DL1ZP-14 | 2026-08-31 01:03:06 | 47.19623 | 8.05023 | 79° | 9km/h | 37433m | -40.8m/s | -29.5°C | 0.1% | -1.0hPa | 2.5V | 00:00:00 | 00:00:00 | 00:00:00 | |
| IW2NTF | 2026-08-31 01:03:05 | 47.19622 | 8.05027 | 271° | 22km/h | 37601m | -42.1m/s | -28.5°C | 1.1% | 0hPa | 2.6V | 08:30:00 | 02:28:50 | 00:00:00 | |
| BIOWL1-15 | 2026-08-31 01:03:03 | 47.19620 | 8.05077 | 282° | 66km/h | 37735m | -51m/s | -27.7°C | 0% | 0hPa | 2.6V | 18:12:15 | 02:28:47 | 00:00:00 | |
| DO1YAY-16 | 2026-08-31 01:03:01 | 47.19622 | 8.05039 | 273° | 38km/h | 37645m | -44.2m/s | -28.4°C | 0.0% | -1.0hPa | 2.5V | 00:00:00 | 00:00:00 | 00:00:00 | |
| DK5PH-5 | 2026-08-31 01:03:00 | 47.19621 | 8.05056 | 273° | 35km/h | 37689m | -42.3m/s | 0°C | 0% | 0hPa | 2.5V | 00:00:00 | 02:28:48 | 00:00:00 | |
| DB0UT-7 | 2026-08-31 01:02:58 | 47.19615 | 8.05101 | 289° | 37km/h | 37790m | -57.7m/s | -27.4°C | 1.0% | 0hPa | 2.5V | 00:00:00 | 00:00:00 | 00:00:00 | |
| IW2NTF | 2026-08-31 01:02:55 | 47.19551 | 8.05080 | 43° | 60km/h | 38187m | -52.3m/s | -28°C | 1.1% | 0hPa | 2.5V | 08:30:00 | 02:28:40 | 00:00:00 | |
| BIOWL1-15 | 2026-08-31 01:02:52 | 47.19551 | 8.05080 | 44° | 60km/h | 38187m | -52.3m/s | -28°C | 0% | 0hPa | 2.5V | 18:12:15 | 02:28:40 | 00:00:00 | |
| IW2NTF | 2026-08-31 01:02:44 | 47.19497 | 8.04980 | 7° | 55km/h | 38335m | 5.9m/s | -27.7°C | 1% | 0hPa | 2.5V | 08:30:00 | 02:28:27 | 00:00:00 | |
| DN1GJH-1 | 2026-08-31 01:02:42 | 47.19528 | 8.04979 | 310° | 2km/h | 38357m | 2.8m/s | -27.7°C | 0.1% | 0hPa | 2.6V | 00:00:00 | 00:00:00 | 00:00:00 | |
| HASLITAL | 2026-08-31 01:02:38 | 47.19497 | 8.04980 | 9° | 55km/h | 38335m | 5.9m/s | -27.7°C | 0.1% | 0hPa | 2.6V | 00:00:00 | 00:00:00 | 00:00:00 | |
| BIOWL1-15 | 2026-08-31 01:02:38 | 47.19483 | 8.04976 | 15° | 58km/h | 38330m | 4.4m/s | -27.8°C | 0% | 0hPa | 2.5V | 18:12:15 | 02:28:26 | 00:00:00 | |
| DF7PN | 2026-08-31 01:02:36 | 47.19458 | 8.04960 | 32° | 46km/h | 38323m | 3.3m/s | -27.8°C | 0.0% | -1.0hPa | 2.6V | 00:00:00 | 00:00:00 | 00:00:00 | |
| DL1ZP-14 | 2026-08-31 01:02:35 | 47.19450 | 8.04951 | 45° | 35km/h | 38319m | 4.3m/s | -27.9°C | 0.0% | -1.0hPa | 2.6V | 00:00:00 | 00:00:00 | 00:00:00 | |
| IW2NTF | 2026-08-31 01:02:34 | 47.19453 | 8.04935 | 279° | 15km/h | 38290m | 3m/s | -28.3°C | 1.1% | 0hPa | 2.5V | 08:30:00 | 02:28:17 | 00:00:00 | |
| BIOWL1-15 | 2026-08-31 01:02:28 | 47.19435 | 8.04947 | 353° | 44km/h | 38277m | 6.2m/s | -28.6°C | 0% | 0hPa | 2.6V | 18:12:15 | 02:28:14 | 00:00:00 | |
| DK5PH-5 | 2026-08-31 01:02:25 | 47.19423 | 8.04948 | 4° | 35km/h | 38271m | 6.5m/s | -28.5°C | 1.1% | 0hPa | 2.6V | 00:00:00 | 02:28:13 | 00:00:00 | |
| IW2NTF | 2026-08-31 01:02:24 | 47.19357 | 8.04909 | 34° | 15km/h | 38244m | 5.5m/s | -28.9°C | 1.1% | 0hPa | 2.6V | 08:30:00 | 02:28:07 | 00:00:00 | |
| BIOWL1-15 | 2026-08-31 01:02:17 | 47.19355 | 8.04912 | 261° | 16km/h | 38232m | 6.6m/s | -29°C | 0% | 0hPa | 2.6V | 18:12:15 | 02:28:05 | 00:00:00 | |
| HASLITAL | 2026-08-31 01:02:16 | 47.19355 | 8.04912 | 262° | 16km/h | 38232m | 6.6m/s | -29.0°C | 0.1% | 0hPa | 2.5V | 00:00:00 | 00:00:00 | 00:00:00 | |
| IW2NTF | 2026-08-31 01:02:14 | 47.19305 | 8.04963 | 26° | 53km/h | 38194m | 6.4m/s | -29.3°C | 1.1% | 0hPa | 2.5V | 08:30:00 | 02:27:57 | 00:00:00 | |
| DH7VM-15 | 2026-08-31 01:02:09 | 47.19317 | 8.04969 | 12° | 51km/h | 38201m | 6.2m/s | -29.3°C | 0.1% | 0hPa | 2.5V | 00:00:00 | 00:00:00 | 00:00:00 | |
| DM0DOS-11 | 2026-08-31 01:02:07 | 47.19273 | 8.04916 | 60° | 24km/h | 38177m | 3.1m/s | -29.3°C | 1.2% | 0hPa | 2.5V | 08:30:00 | 02:27:53 | 00:00:00 | |
| BIOWL1-15 | 2026-08-31 01:02:07 | 47.19284 | 8.04939 | 49° | 49km/h | 38184m | 4m/s | -29.3°C | 0% | 0hPa | 2.6V | 18:12:15 | 02:27:55 | 00:00:00 | |
| DF7PN | 2026-08-31 01:02:05 | 47.19273 | 8.04916 | 60° | 24km/h | 38177m | 3.1m/s | -29.3°C | 0.1% | -1.0hPa | 2.5V | 00:00:00 | 00:00:00 | 00:00:00 | |
| IW2NTF | 2026-08-31 01:02:04 | 47.19250 | 8.04964 | 310° | 60km/h | 38145m | 4.5m/s | -29.2°C | 1.1% | 0hPa | 2.5V | 08:30:00 | 02:27:47 | 00:00:00 | |
| BIOWL1-15 | 2026-08-31 01:01:57 | 47.19226 | 8.04992 | 335° | 62km/h | 38136m | 4.1m/s | -29.2°C | 0% | 0hPa | 2.5V | 18:12:15 | 02:27:45 | 00:00:00 | |
| HASLITAL | 2026-08-31 01:01:56 | 47.19226 | 8.04992 | 336° | 62km/h | 38137m | 4.1m/s | -29.2°C | 0.1% | 0hPa | 2.6V | 00:00:00 | 00:00:00 | 00:00:00 | |
| IW2NTF | 2026-08-31 01:01:54 | 47.19158 | 8.04973 | 287° | 11km/h | 38096m | 4.9m/s | -29.1°C | 1.1% | 0hPa | 2.6V | 08:30:00 | 02:27:37 | 00:00:00 | |
| BIOWL1-15 | 2026-08-31 01:01:47 | 47.19149 | 8.05007 | 298° | 53km/h | 38080m | 5.6m/s | -29.1°C | 0% | 0hPa | 2.5V | 18:12:15 | 02:27:34 | 00:00:00 | |
| IW2NTF | 2026-08-31 01:01:42 | 47.19049 | 8.05055 | 35° | 18km/h | 38034m | 4.4m/s | -29°C | 1.1% | 0hPa | 2.6V | 08:30:00 | 02:27:25 | 00:00:00 | |
| BIOWL1-15 | 2026-08-31 01:01:35 | 47.19046 | 8.05055 | 278° | 13km/h | 38026m | 4.8m/s | -29°C | 0% | 0hPa | 2.5V | 18:12:15 | 02:27:23 | 00:00:00 | |
| DF7PN | 2026-08-31 01:01:34 | 47.19046 | 8.05062 | 275° | 26km/h | 38021m | 5.2m/s | -29.1°C | 0.1% | -1.0hPa | 2.5V | 00:00:00 | 00:00:00 | 00:00:00 | |
| IW2NTF | 2026-08-31 01:01:33 | 47.18991 | 8.05163 | 341° | 53km/h | 37984m | 4.7m/s | -29.2°C | 1.1% | 0hPa | 2.5V | 08:30:00 | 02:27:15 | 00:00:00 | |
| DM0DOS-11 | 2026-08-31 01:01:33 | 47.19036 | 8.05107 | 299° | 57km/h | 38004m | 5.5m/s | -29.2°C | 1.1% | 0hPa | 2.6V | 08:30:00 | 02:27:19 | 00:00:00 | |
| DB0UT-7 | 2026-08-31 01:01:28 | 47.19004 | 8.05154 | 331° | 42km/h | 37990m | 4.5m/s | -29.1°C | 1.1% | 0hPa | 2.5V | 00:00:00 | 02:27:16 | 00:00:00 | |
| HASLITAL | 2026-08-31 01:01:27 | 47.19004 | 8.05154 | 331° | 58km/h | 37990m | 4.5m/s | -29.1°C | 0.1% | 0hPa | 2.5V | 00:00:00 | 00:00:00 | 00:00:00 | |
| DM0DOS-11 | 2026-08-31 01:01:26 | 47.18956 | 8.05169 | 264° | 15km/h | 37956m | 4.5m/s | -29.1°C | 1.1% | 0hPa | 2.5V | 08:30:00 | 02:27:09 | 00:00:00 | |
| BIOWL1-15 | 2026-08-31 01:01:24 | 47.18956 | 8.05169 | 265° | 15km/h | 37956m | 4.5m/s | -29.1°C | 0% | 0hPa | 2.5V | 18:12:15 | 02:27:09 | 00:00:00 | |
| DK5PH-5 | 2026-08-31 01:01:22 | 47.18956 | 8.05165 | 302° | 38km/h | 37961m | 4.5m/s | -29.0°C | 1.1% | 0hPa | 2.6V | 00:00:00 | 02:27:10 | 00:00:00 | |
| DL6DJ-15 | 2026-08-31 01:01:21 | 47.18956 | 8.05169 | 264° | 15km/h | 37956m | 4.5m/s | -29.1°C | 0.1% | -1.0hPa | 2.6V | 00:00:00 | 00:00:00 | 00:00:00 | |
| DN1GJH-1 | 2026-08-31 01:01:20 | 47.18956 | 8.05169 | 266° | 15km/h | 37956m | 4.5m/s | -29.1°C | 0.1% | 0hPa | 2.6V | 00:00:00 | 00:00:00 | 00:00:00 | |
| BIOWL9-15 | 2026-08-31 01:01:19 | 47.18953 | 8.05203 | 288° | 46km/h | 37942m | 5.0m/s | -29.0°C | 0.1% | -1.0hPa | 2.6V | 00:00:00 | 00:00:00 | 00:00:00 | |
| DM0DOS-11 | 2026-08-31 01:01:16 | 47.18893 | 8.05276 | 359° | 22km/h | 37908m | 4.9m/s | -29°C | 1.1% | 0hPa | 2.6V | 08:30:00 | 02:26:59 | 00:00:00 | |
| BIOWL1-15 | 2026-08-31 01:01:12 | 47.18888 | 8.05277 | 240° | 5km/h | 37898m | 5m/s | -29°C | 0% | 0hPa | 2.5V | 18:12:15 | 02:26:57 | 00:00:00 | |
| IW2NTF | 2026-08-31 01:01:12 | 47.18896 | 8.05302 | 254° | 44km/h | 37883m | 5m/s | -29.1°C | 1.1% | 0hPa | 2.5V | 08:30:00 | 02:26:54 | 00:00:00 | |
| DH7VM-15 | 2026-08-31 01:01:07 | 47.18890 | 8.05280 | 234° | 20km/h | 37893m | 4.9m/s | -29.0°C | 0.1% | 0hPa | 2.5V | 00:00:00 | 00:00:00 | 00:00:00 | |
| DM0DOS-11 | 2026-08-31 01:01:05 | 47.18872 | 8.05407 | 317° | 69km/h | 37857m | 4.8m/s | -29.2°C | 1.1% | 0hPa | 2.5V | 08:30:00 | 02:26:49 | 00:00:00 | |
| BIOWL1-15 | 2026-08-31 01:01:03 | 47.18872 | 8.05407 | 318° | 69km/h | 37857m | 4.8m/s | -29.2°C | 0% | 0hPa | 2.5V | 18:12:15 | 02:26:49 | 00:00:00 | |
| DO1YAY-16 | 2026-08-31 01:00:57 | 47.18823 | 8.05433 | 11° | 29km/h | 37840m | 4.0m/s | -29.2°C | 0.0% | -1.0hPa | 2.5V | 00:00:00 | 00:00:00 | 00:00:00 | |
| IW2NTF | 2026-08-31 01:00:55 | 47.18830 | 8.05452 | 244° | 51km/h | 37817m | 5.2m/s | -29.3°C | 1.1% | 0hPa | 2.5V | 08:30:00 | 02:26:40 | 00:00:00 | |
| DK5PH-5 | 2026-08-31 01:00:52 | 47.18830 | 8.05452 | 245° | 42km/h | 37817m | 5.2m/s | -29.2°C | 1.1% | 0hPa | 2.5V | 00:00:00 | 02:26:40 | 00:00:00 | |
| DM0DOS-11 | 2026-08-31 01:00:49 | 47.18831 | 8.05550 | 289° | 75km/h | 37797m | 3.8m/s | -29.3°C | 1.1% | 0hPa | 2.5V | 08:30:00 | 02:26:36 | 00:00:00 | |
| BIOWL1-15 | 2026-08-31 01:00:48 | 47.18831 | 8.05550 | 290° | 75km/h | 37797m | 3.8m/s | -29.3°C | 0% | 0hPa | 2.5V | 18:12:15 | 02:26:36 | 00:00:00 | |
| BIOWL9-15 | 2026-08-31 01:00:48 | 47.18831 | 8.05550 | 289° | 75km/h | 37798m | 3.8m/s | -29.3°C | 0.1% | -1.0hPa | 2.6V | 00:00:00 | 00:00:00 | 00:00:00 | |
| IW2NTF | 2026-08-31 01:00:45 | 47.18785 | 8.05612 | 41° | 9km/h | 37770m | 5m/s | -29.3°C | 1.1% | 0hPa | 2.6V | 08:30:00 | 02:26:30 | 00:00:00 | |
| HASLITAL | 2026-08-31 01:00:45 | 47.18814 | 8.05592 | 315° | 58km/h | 37791m | 3.9m/s | -29.3°C | 0.1% | 0hPa | 2.5V | 00:00:00 | 00:00:00 | 00:00:00 | |
| DM0DOS-11 | 2026-08-31 01:00:39 | 47.18795 | 8.05626 | 247° | 38km/h | 37754m | 4.7m/s | -29.3°C | 1.1% | 0hPa | 2.5V | 08:30:00 | 02:26:26 | 00:00:00 | |
| BIOWL1-15 | 2026-08-31 01:00:38 | 47.18795 | 8.05626 | 248° | 38km/h | 37754m | 4.7m/s | -29.3°C | 0% | 0hPa | 2.5V | 18:12:15 | 02:26:26 | 00:00:00 | |
| IW2NTF | 2026-08-31 01:00:35 | 47.18776 | 8.05756 | 306° | 57km/h | 37725m | 1.8m/s | -29.4°C | 1.1% | 0hPa | 2.5V | 08:30:00 | 02:26:20 | 00:00:00 | |
| BIOWL1-15 | 2026-08-31 01:00:27 | 47.18771 | 8.05774 | 171° | 31km/h | 37695m | 3.1m/s | -29.6°C | 0% | 0hPa | 2.5V | 18:12:15 | 02:26:14 | 00:00:00 | |
| DO1YAY-16 | 2026-08-31 01:00:26 | 47.18779 | 8.05774 | 191° | 31km/h | 37693m | 1.4m/s | -29.6°C | 0.1% | -1.0hPa | 2.6V | 00:00:00 | 00:00:00 | 00:00:00 | |
| IW2NTF | 2026-08-31 01:00:25 | 47.18793 | 8.05802 | 268° | 40km/h | 37684m | 5.7m/s | -29.6°C | 1.2% | 0hPa | 2.6V | 08:30:00 | 02:26:10 | 00:00:00 | |
| BIOWL1-15 | 2026-08-31 01:00:17 | 47.18749 | 8.05905 | 205° | 15km/h | 37651m | 6.5m/s | -29.6°C | 0% | 0hPa | 2.6V | 18:12:15 | 02:26:02 | 00:00:00 | |
| IW2NTF | 2026-08-31 01:00:16 | 47.18765 | 8.05909 | 185° | 47km/h | 37636m | 7.2m/s | -29.5°C | 1.1% | 0hPa | 2.5V | 08:30:00 | 02:26:00 | 00:00:00 | |
| BIOWL1-15 | 2026-08-31 01:00:06 | 47.18797 | 8.05987 | 348° | 42km/h | 37595m | 3.6m/s | -29.6°C | 0% | 0hPa | 2.5V | 18:12:15 | 02:25:51 | 00:00:00 | |
| DM0DOS-11 | 2026-08-31 01:00:06 | 47.18797 | 8.05987 | 348° | 42km/h | 37595m | 3.6m/s | -29.6°C | 1.2% | 0hPa | 2.5V | 08:30:00 | 02:25:51 | 00:00:00 | |
| IW2NTF | 2026-08-31 01:00:05 | 47.18788 | 8.05988 | 358° | 33km/h | 37593m | 1.3m/s | -29.6°C | 1.1% | 0hPa | 2.6V | 08:30:00 | 02:25:50 | 00:00:00 | |
| DL1ZP-14 | 2026-08-31 01:00:00 | 47.18779 | 8.05986 | 68° | 4km/h | 37590m | 2.7m/s | -29.7°C | 0.1% | -1.0hPa | 2.6V | 00:00:00 | 00:00:00 | 00:00:00 | |
| DB0UT-7 | 2026-08-31 00:59:58 | 47.18786 | 8.05986 | 191° | 31km/h | 37580m | 7.3m/s | -29.8°C | 1.2% | 0hPa | 2.6V | 00:00:00 | 00:00:00 | 00:00:00 | |
| DM0DOS-11 | 2026-08-31 00:59:56 | 47.18840 | 8.06031 | 232° | 40km/h | 37556m | 1.8m/s | -30.1°C | 1.2% | 0hPa | 2.6V | 08:30:00 | 02:25:41 | 00:00:00 | |
| IW2NTF | 2026-08-31 00:59:55 | 47.18844 | 8.06042 | 253° | 27km/h | 37553m | 3.7m/s | -30.2°C | 1.2% | 0hPa | 2.5V | 08:30:00 | 02:25:40 | 00:00:00 | |
| BIOWL1-15 | 2026-08-31 00:59:54 | 47.18832 | 8.06019 | 221° | 53km/h | 37557m | 1.8m/s | -30.1°C | 0% | 0hPa | 2.6V | 18:12:15 | 02:25:42 | 00:00:00 | |
| DF3TZ-5 | 2026-08-31 00:59:51 | 47.18817 | 8.06046 | 36° | 35km/h | 37525m | 2.6m/s | -30.4°C | 0.1% | -1.0hPa | 2.5V | 00:00:00 | 00:00:00 | 00:00:00 | |
| DM0DOS-11 | 2026-08-31 00:59:46 | 47.18816 | 8.06024 | 174° | 27km/h | 37508m | 7.2m/s | -30.7°C | 1.2% | 0hPa | 2.5V | 08:30:00 | 02:25:31 | 00:00:00 | |
| IW2NTF | 2026-08-31 00:59:45 | 47.18825 | 8.06025 | 189° | 38km/h | 37501m | 6.9m/s | -30.8°C | 1.2% | 0hPa | 2.5V | 08:30:00 | 02:25:30 | 00:00:00 | |
| BIOWL1-15 | 2026-08-31 00:59:43 | 47.18835 | 8.06029 | 198° | 44km/h | 37495m | 5m/s | -30.8°C | 0% | 0hPa | 2.6V | 18:12:15 | 02:25:29 | 00:00:00 | |
| BIOWL1-15 | 2026-08-31 00:59:31 | 47.18828 | 8.06023 | 56° | 13km/h | 37457m | 3m/s | -31°C | 0% | 0hPa | 2.5V | 18:12:15 | 02:25:19 | 00:00:00 | |
| DF7PN | 2026-08-31 00:59:30 | 47.18828 | 8.06020 | 144° | 5km/h | 37453m | 5.5m/s | -31.0°C | 0.1% | -1.0hPa | 2.5V | 00:00:00 | 00:00:00 | 00:00:00 | |
| DL1ZP-14 | 2026-08-31 00:59:29 | 47.18837 | 8.06024 | 207° | 33km/h | 37439m | 7.0m/s | -31.2°C | 0.1% | -1.0hPa | 2.5V | 00:00:00 | 00:00:00 | 00:00:00 | |
| DB0UT-7 | 2026-08-31 00:59:28 | 47.18837 | 8.06024 | 208° | 29km/h | 37439m | 7.0m/s | -31.1°C | 1.2% | 0hPa | 2.5V | 00:00:00 | 02:25:16 | 08:30:00 | |
| IW2NTF | 2026-08-31 00:59:25 | 47.18856 | 8.06066 | 354° | 24km/h | 37414m | 7m/s | -31.6°C | 1.3% | 0hPa | 2.5V | 08:30:00 | 02:25:10 | 00:00:00 | |
| BIOWL1-15 | 2026-08-31 00:59:20 | 47.18818 | 8.06044 | 44° | 15km/h | 37393m | 3.2m/s | -31.8°C | 0% | 0hPa | 2.5V | 18:12:15 | 02:25:05 | 00:00:00 | |
| DL6DJ-15 | 2026-08-31 00:59:18 | 47.18818 | 8.06044 | 43° | 15km/h | 37393m | 3.2m/s | -31.8°C | 0.1% | -1.0hPa | 2.6V | 00:00:00 | 00:00:00 | 00:00:00 | |
| IW2NTF | 2026-08-31 00:59:15 | 47.18837 | 8.06062 | 229° | 35km/h | 37368m | 2.3m/s | -31.9°C | 1.3% | 0hPa | 2.6V | 08:30:00 | 02:25:00 | 00:00:00 | |
| BIOWL1-15 | 2026-08-31 00:59:09 | 47.18840 | 8.06088 | 318° | 26km/h | 37358m | 5.8m/s | -32°C | 0% | 0hPa | 2.5V | 18:12:15 | 02:24:57 | 00:00:00 | |
| HASLITAL | 2026-08-31 00:59:05 | 47.18811 | 8.06095 | 6° | 51km/h | 37339m | 4.9m/s | -32.0°C | 0.1% | 0hPa | 2.5V | 00:00:00 | 00:00:00 | 00:00:00 | |
| IW2NTF | 2026-08-31 00:59:04 | 47.18777 | 8.06090 | 331° | 11km/h | 37324m | 6.3m/s | -32°C | 1.3% | 0hPa | 2.5V | 08:30:00 | 02:24:50 | 00:00:00 | |
| BIOWL1-15 | 2026-08-31 00:58:59 | 47.18783 | 8.06108 | 236° | 33km/h | 37305m | 4.2m/s | -32.1°C | 0% | 0hPa | 2.6V | 18:12:15 | 02:24:47 | 00:00:00 | |
| DF7PN | 2026-08-31 00:58:59 | 47.18783 | 8.06108 | 236° | 31km/h | 37305m | 4.2m/s | -32.1°C | 0.1% | -1.0hPa | 2.5V | 00:00:00 | 00:00:00 | 00:00:00 | |
| DM0DOS-11 | 2026-08-31 00:58:58 | 47.18786 | 8.06139 | 304° | 27km/h | 37296m | 4m/s | -32.2°C | 1.3% | 0hPa | 2.5V | 08:30:00 | 02:24:44 | 00:00:00 | |
| DL1ZP-14 | 2026-08-31 00:58:58 | 47.18788 | 8.06129 | 271° | 27km/h | 37300m | 2.3m/s | -32.2°C | 0.1% | -1.0hPa | 2.5V | 00:00:00 | 00:00:00 | 00:00:00 | |
| DN1GJH-1 | 2026-08-31 00:58:56 | 47.18788 | 8.06129 | 273° | 27km/h | 37300m | 2.3m/s | -32.2°C | 0.1% | 0hPa | 2.5V | 00:00:00 | 00:00:00 | 00:00:00 | |
| IW2NTF | 2026-08-31 00:58:54 | 47.18727 | 8.06155 | 1° | 57km/h | 37269m | 2.7m/s | -32.7°C | 1.3% | 0hPa | 2.5V | 08:30:00 | 02:24:39 | 00:00:00 | |
| BIOWL1-15 | 2026-08-31 00:58:51 | 47.18705 | 8.06155 | 355° | 31km/h | 37262m | 4.1m/s | -32.9°C | 0% | 0hPa | 2.6V | 18:12:15 | 02:24:37 | 00:00:00 | |
| DK5PH-5 | 2026-08-31 00:58:51 | 47.18727 | 8.06155 | 2° | 40km/h | 37269m | 2.7m/s | -32.7°C | 1.3% | 0hPa | 2.5V | 00:00:00 | 02:24:39 | 00:00:00 | |
| DM0DOS-11 | 2026-08-31 00:58:48 | 47.18697 | 8.06165 | 243° | 20km/h | 37244m | 6.3m/s | -33.1°C | 1.4% | 0hPa | 2.6V | 08:30:00 | 02:24:34 | 00:00:00 | |
| DL6DJ-15 | 2026-08-31 00:58:47 | 47.18698 | 8.06165 | 243° | 18km/h | 37244m | 6.3m/s | -33.1°C | 0.1% | -1.0hPa | 2.5V | 00:00:00 | 00:00:00 | 00:00:00 | |
| IW2NTF | 2026-08-31 00:58:44 | 47.18688 | 8.06207 | 333° | 46km/h | 37224m | 7m/s | -33.1°C | 1.4% | 0hPa | 2.5V | 08:30:00 | 02:24:29 | 00:00:00 | |
| BIOWL1-15 | 2026-08-31 00:58:43 | 47.18660 | 8.06220 | 348° | 71km/h | 37209m | 6.3m/s | -33.1°C | 0% | 0hPa | 2.6V | 18:12:15 | 02:24:27 | 00:00:00 | |
| DL8DAS-14 | 2026-08-31 00:58:42 | 47.18624 | 8.06229 | 349° | 66km/h | 37203m | 1.1m/s | -33.1°C | 0.1% | -1.0hPa | 2.5V | 00:00:00 | 00:00:00 | 00:00:00 | |
| DN1GJH-1 | 2026-08-31 00:58:35 | 47.18609 | 8.06234 | 346° | 53km/h | 37201m | 2.1m/s | -33.1°C | 0.2% | 0hPa | 2.5V | 00:00:00 | 00:00:00 | 00:00:00 | |
| IW2NTF | 2026-08-31 00:58:34 | 47.18596 | 8.06285 | 253° | 31km/h | 37165m | 1.6m/s | -33.2°C | 1.4% | 0hPa | 2.5V | 08:30:00 | 02:24:18 | 00:00:00 | |
| BIOWL1-15 | 2026-08-31 00:58:28 | 47.18593 | 8.06305 | 309° | 33km/h | 37160m | 4.8m/s | -33.3°C | 0% | 0hPa | 2.6V | 18:12:15 | 02:24:16 | 00:00:00 | |
| DB0UT-7 | 2026-08-31 00:58:28 | 47.18593 | 8.06305 | 310° | 37km/h | 37161m | 4.7m/s | -33.2°C | 1.4% | 0hPa | 2.5V | 00:00:00 | 02:24:16 | 00:00:00 | |
| DL1ZP-14 | 2026-08-31 00:58:27 | 47.18575 | 8.06321 | 342° | 55km/h | 37147m | 8.0m/s | -33.4°C | 0.1% | -1.0hPa | 2.5V | 00:00:00 | 00:00:00 | 00:00:00 | |
| IW2NTF | 2026-08-31 00:58:24 | 47.18501 | 8.06346 | 304° | 18km/h | 37119m | 7.5m/s | -33.4°C | 1.4% | 0hPa | 2.6V | 08:30:00 | 02:24:08 | 00:00:00 | |
| BIOWL1-15 | 2026-08-31 00:58:17 | 47.18510 | 8.06368 | 226° | 35km/h | 37098m | 4.4m/s | -33.4°C | 0% | 0hPa | 2.5V | 18:12:15 | 02:24:05 | 00:00:00 | |
| IW2NTF | 2026-08-31 00:58:15 | 47.18480 | 8.06415 | 353° | 55km/h | 37062m | 3.8m/s | -33.5°C | 1.5% | 0hPa | 2.5V | 08:30:00 | 02:23:58 | 00:00:00 | |
| BIOWL9-15 | 2026-08-31 00:58:13 | 47.18505 | 8.06408 | 342° | 42km/h | 37074m | 7.8m/s | -33.4°C | 0.1% | -1.0hPa | 2.5V | 00:00:00 | 00:00:00 | 00:00:00 | |
| DM0DOS-11 | 2026-08-31 00:58:08 | 47.18454 | 8.06441 | 224° | 33km/h | 37030m | 6.6m/s | -33.4°C | 1.4% | 0hPa | 2.5V | 08:30:00 | 02:23:52 | 00:00:00 | |
| BIOWL1-15 | 2026-08-31 00:58:08 | 47.18448 | 8.06427 | 280° | 13km/h | 37045m | 7.5m/s | -33.5°C | 0% | 0hPa | 2.5V | 18:12:15 | 02:23:54 | 00:00:00 | |
| DB0ND-19 | 2026-08-31 00:58:05 | 47.18454 | 8.06441 | 224° | 31km/h | 37030m | 6.6m/s | -33.4°C | 0.1% | -1.0hPa | 2.6V | 00:00:00 | 00:00:00 | 00:00:00 | |
| HASLITAL | 2026-08-31 00:58:02 | 47.18460 | 8.06450 | 229° | 37km/h | 37025m | 3.7m/s | -33.4°C | 0.2% | 0hPa | 2.6V | 00:00:00 | 00:00:00 | 00:00:00 | |
| DM0DOS-11 | 2026-08-31 00:57:58 | 47.18403 | 8.06523 | 328° | 35km/h | 36984m | 3.2m/s | -33.4°C | 1.4% | 0hPa | 2.6V | 08:30:00 | 02:23:42 | 00:00:00 | |
| BIOWL1-15 | 2026-08-31 00:57:56 | 47.18425 | 8.06511 | 344° | 57km/h | 36988m | 2.9m/s | -33.4°C | 0% | 0hPa | 2.5V | 18:12:15 | 02:23:44 | 00:00:00 | |
| DL1ZP-14 | 2026-08-31 00:57:56 | 47.18413 | 8.06516 | 339° | 46km/h | 36986m | 1.5m/s | -33.4°C | 0.1% | -1.0hPa | 2.5V | 00:00:00 | 00:00:00 | 00:00:00 | |
| IW2NTF | 2026-08-31 00:57:55 | 47.18406 | 8.06559 | 224° | 46km/h | 36955m | 6.6m/s | -33.6°C | 1.5% | 0hPa | 2.5V | 08:30:00 | 02:23:38 | 00:00:00 | |
| DO1YAY-16 | 2026-08-31 00:57:50 | 47.18406 | 8.06559 | 224° | 44km/h | 36955m | 6.6m/s | 0°C | -1.0% | -1.0hPa | 2.5V | 00:00:00 | 00:00:00 | 00:00:00 | |
| DM0DOS-11 | 2026-08-31 00:57:48 | 47.18391 | 8.06642 | 338° | 51km/h | 36913m | 4.1m/s | -33.5°C | 1.5% | 0hPa | 2.5V | 08:30:00 | 02:23:30 | 00:00:00 | |
| BIOWL1-15 | 2026-08-31 00:57:45 | 47.18422 | 8.06617 | 311° | 37km/h | 36933m | 7.7m/s | -33.6°C | 0% | 0hPa | 2.5V | 18:12:15 | 02:23:33 | 00:00:00 | |
| IW2NTF | 2026-08-31 00:57:44 | 47.18372 | 8.06655 | 324° | 29km/h | 36906m | 4.1m/s | -33.5°C | 1.5% | 0hPa | 2.6V | 08:30:00 | 02:23:28 | 00:00:00 | |
| BIOWL1-15 | 2026-08-31 00:57:34 | 47.18391 | 8.06725 | 286° | 27km/h | 36861m | 6m/s | -33.3°C | 0% | 0hPa | 2.5V | 18:12:15 | 02:23:20 | 00:00:00 | |
| DM0DOS-11 | 2026-08-31 00:57:32 | 47.18391 | 8.06725 | 285° | 27km/h | 36861m | 6m/s | -33.3°C | 1.4% | 0hPa | 2.5V | 08:30:00 | 02:23:20 | 00:00:00 | |
| DB0UT-7 | 2026-08-31 00:57:28 | 47.18364 | 8.06761 | 325° | 33km/h | 36836m | 4.9m/s | -33.2°C | 1.5% | 0hPa | 2.6V | 00:00:00 | 02:23:16 | 00:00:00 | |
| DF7PN | 2026-08-31 00:57:26 | 47.18350 | 8.06781 | 303° | 33km/h | 36826m | 5.2m/s | -33.2°C | 0.1% | -1.0hPa | 2.6V | 00:00:00 | 00:00:00 | 00:00:00 | |
| IW2NTF | 2026-08-31 00:57:25 | 47.18356 | 8.06841 | 253° | 18km/h | 36793m | 4.1m/s | -33.1°C | 1.4% | 0hPa | 2.6V | 08:30:00 | 02:23:08 | 00:00:00 | |
| BIOWL1-15 | 2026-08-31 00:57:21 | 47.18331 | 8.06867 | 331° | 42km/h | 36764m | 3.7m/s | -32.9°C | 0% | 0hPa | 2.6V | 18:12:15 | 02:23:03 | 00:00:00 | |
| DK5PH-5 | 2026-08-31 00:57:21 | 47.18354 | 8.06833 | 241° | 33km/h | 36798m | 3.8m/s | -33.0°C | 1.4% | 0hPa | 2.5V | 00:00:00 | 02:23:09 | 08:30:00 | |
| IW2NTF | 2026-08-31 00:57:14 | 47.18322 | 8.06942 | 231° | 42km/h | 36730m | 4.7m/s | -32.7°C | 1.4% | 0hPa | 2.6V | 08:30:00 | 02:22:57 | 00:00:00 | |
| DM0DOS-11 | 2026-08-31 00:57:12 | 47.18312 | 8.06914 | 260° | 40km/h | 36744m | 8m/s | -32.8°C | 1.4% | 0hPa | 2.5V | 08:30:00 | 02:22:59 | 00:00:00 | |
| BIOWL9-15 | 2026-08-31 00:57:11 | 47.18316 | 8.06928 | 243° | 44km/h | 36736m | 7.1m/s | -32.8°C | 0.1% | -1.0hPa | 2.5V | 00:00:00 | 00:00:00 | 00:00:00 | |
| DL8DAS-14 | 2026-08-31 00:57:09 | 47.18322 | 8.06942 | 231° | 42km/h | 36731m | 4.7m/s | -32.7°C | 0.1% | -1.0hPa | 2.5V | 00:00:00 | 00:00:00 | 00:00:00 | |
| DN1GJH-1 | 2026-08-31 00:57:08 | 47.18321 | 8.06942 | 232° | 44km/h | 36731m | 4.7m/s | -32.7°C | 0.2% | 0hPa | 2.5V | 00:00:00 | 00:00:00 | 00:00:00 | |
| DM0DOS-11 | 2026-08-31 00:57:07 | 47.18300 | 8.06978 | 331° | 46km/h | 36689m | 2.5m/s | -32.6°C | 1.4% | 0hPa | 2.5V | 08:30:00 | 02:22:49 | 00:00:00 | |
| BIOWL1-15 | 2026-08-31 00:57:06 | 47.18336 | 8.06965 | 245° | 9km/h | 36719m | 5.3m/s | -32.6°C | 0% | 0hPa | 2.5V | 18:12:15 | 02:22:54 | 00:00:00 | |
| IW2NTF | 2026-08-31 00:57:04 | 47.18286 | 8.07000 | 293° | 40km/h | 36681m | 6.2m/s | -32.5°C | 1.4% | 0hPa | 2.5V | 08:30:00 | 02:22:47 | 00:00:00 | |
| BIOWL1-15 | 2026-08-31 00:56:55 | 47.18300 | 8.07058 | 222° | 44km/h | 36655m | 3.9m/s | -32.5°C | 0% | 0hPa | 2.5V | 18:12:15 | 02:22:43 | 00:00:00 | |
| DF7PN | 2026-08-31 00:56:55 | 47.18307 | 8.07067 | 214° | 31km/h | 36652m | 3.5m/s | -32.4°C | 0.1% | -1.0hPa | 2.6V | 00:00:00 | 00:00:00 | 00:00:00 | |
| DM0DOS-11 | 2026-08-31 00:56:53 | 47.18312 | 8.07074 | 6° | 16km/h | 36636m | 6.8m/s | -32.3°C | 1.4% | 0hPa | 2.6V | 08:30:00 | 02:22:39 | 00:00:00 | |
| BIOWL1-15 | 2026-08-31 00:56:45 | 47.18266 | 8.07108 | 281° | 38km/h | 36605m | 6m/s | -32.1°C | 0% | 0hPa | 2.6V | 18:12:15 | 02:22:33 | 00:00:00 | |
| DM0DOS-11 | 2026-08-31 00:56:42 | 47.18283 | 8.07158 | 216° | 37km/h | 36581m | 4.5m/s | -31.9°C | 1.3% | 0hPa | 2.5V | 08:30:00 | 02:22:29 | 00:00:00 | |
| BIOWL1-15 | 2026-08-31 00:56:36 | 47.18275 | 8.07189 | 319° | 35km/h | 36543m | 4.6m/s | -31.8°C | 0% | 0hPa | 2.6V | 18:12:15 | 02:22:22 | 00:00:00 | |
| IW2NTF | 2026-08-31 00:56:35 | 47.18275 | 8.07238 | 219° | 33km/h | 36515m | 6m/s | -31.8°C | 1.3% | 0hPa | 2.5V | 08:30:00 | 02:22:17 | 00:00:00 | |
| DM0DOS-11 | 2026-08-31 00:56:32 | 47.18267 | 8.07220 | 257° | 29km/h | 36528m | 5.8m/s | -31.8°C | 1.3% | 0hPa | 2.5V | 08:30:00 | 02:22:19 | 00:00:00 | |
| DB0UT-7 | 2026-08-31 00:56:28 | 47.18282 | 8.07245 | 211° | 27km/h | 36510m | 5.2m/s | -31.7°C | 1.3% | 0hPa | 2.6V | 00:00:00 | 02:22:16 | 00:00:00 | |
| DN1GJH-1 | 2026-08-31 00:56:25 | 47.18294 | 8.07254 | 212° | 20km/h | 36500m | 5.0m/s | -31.7°C | 0.2% | 0hPa | 2.5V | 00:00:00 | 00:00:00 | 00:00:00 | |
| IW2NTF | 2026-08-31 00:56:24 | 47.18285 | 8.07301 | 264° | 26km/h | 36461m | 5.4m/s | -31.8°C | 1.3% | 0hPa | 2.5V | 08:30:00 | 02:22:07 | 00:00:00 | |
| BIOWL1-15 | 2026-08-31 00:56:24 | 47.18297 | 8.07262 | 284° | 13km/h | 36488m | 6.3m/s | -31.7°C | 0% | 0hPa | 2.5V | 18:12:15 | 02:22:12 | 00:00:00 | |
| DM0DOS-11 | 2026-08-31 00:56:22 | 47.18289 | 8.07283 | 298° | 27km/h | 36471m | 4.8m/s | -31.8°C | 1.3% | 0hPa | 2.6V | 08:30:00 | 02:22:09 | 00:00:00 | |
| DL1ZP-14 | 2026-08-31 00:56:22 | 47.18292 | 8.07274 | 305° | 24km/h | 36476m | 5.5m/s | -31.8°C | 0.1% | -1.0hPa | 2.6V | 00:00:00 | 00:00:00 | 00:00:00 | |
| DK5PH-5 | 2026-08-31 00:56:21 | 47.18289 | 8.07282 | 299° | 29km/h | 36471m | 4.7m/s | -31.7°C | 1.3% | 0hPa | 2.5V | 00:00:00 | 02:22:09 | 00:00:00 | |
| HASLITAL | 2026-08-31 00:56:18 | 47.18285 | 8.07301 | 266° | 26km/h | 36461m | 5.4m/s | -31.8°C | 0.2% | 0hPa | 2.5V | 00:00:00 | 00:00:00 | 00:00:00 | |
| DM0DOS-11 | 2026-08-31 00:56:16 | 47.18318 | 8.07336 | 315° | 16km/h | 36418m | 7.3m/s | -31.7°C | 1.3% | 0hPa | 2.5V | 08:30:00 | 02:21:59 | 00:00:00 | |
| BIOWL1-15 | 2026-08-31 00:56:14 | 47.18319 | 8.07332 | 259° | 7km/h | 36424m | 5.6m/s | -31.7°C | 0% | 0hPa | 2.5V | 18:12:15 | 02:22:00 | 00:00:00 | |
| IW2NTF | 2026-08-31 00:56:11 | 47.18289 | 8.07395 | 257° | 29km/h | 36388m | 6.2m/s | -31.7°C | 1.3% | 0hPa | 2.5V | 08:30:00 | 02:21:53 | 00:00:00 | |
| BIOWL1-15 | 2026-08-31 00:56:03 | 47.18326 | 8.07414 | 171° | 22km/h | 36360m | 2.1m/s | -31.6°C | 0% | 0hPa | 2.5V | 18:12:15 | 02:21:48 | 00:00:00 | |
| BIOWL1-15 | 2026-08-31 00:55:50 | 47.18304 | 8.07483 | 187° | 44km/h | 36299m | 6.9m/s | -31.5°C | 0% | 0hPa | 2.5V | 18:12:15 | 02:21:37 | 00:00:00 | |
| DN1GJH-1 | 2026-08-31 00:55:44 | 47.18334 | 8.07472 | 95° | 9km/h | 36284m | 5.3m/s | -31.5°C | 0.2% | 0hPa | 2.6V | 00:00:00 | 00:00:00 | 00:00:00 | |
| IW2NTF | 2026-08-31 00:55:40 | 47.18310 | 8.07549 | 184° | 40km/h | 36224m | 6.6m/s | -31.7°C | 1.3% | 0hPa | 2.6V | 08:30:00 | 02:21:23 | 00:00:00 | |
| BIOWL1-15 | 2026-08-31 00:55:40 | 47.18298 | 8.07500 | 308° | 47km/h | 36253m | 2.9m/s | -31.6°C | 0% | 0hPa | 2.6V | 18:12:15 | 02:21:28 | 00:00:00 | |
| DL6DJ-15 | 2026-08-31 00:55:40 | 47.18291 | 8.07527 | 263° | 33km/h | 36245m | 5.4m/s | -31.6°C | -1.0% | -1.0hPa | 2.5V | 00:00:00 | 00:00:00 | 00:00:00 | |
| DL8DAS-14 | 2026-08-31 00:55:37 | 47.18301 | 8.07546 | 204° | 37km/h | 36231m | 7.8m/s | -31.7°C | 0.1% | -1.0hPa | 2.5V | 00:00:00 | 00:00:00 | 00:00:00 | |
| HASLITAL | 2026-08-31 00:55:33 | 47.18320 | 8.07548 | 171° | 38km/h | 36218m | 5.0m/s | -31.7°C | 0.2% | 0hPa | 2.5V | 00:00:00 | 00:00:00 | 00:00:00 | |
| IW2NTF | 2026-08-31 00:55:30 | 47.18303 | 8.07593 | 274° | 44km/h | 36168m | 4.7m/s | -31.7°C | 1.3% | 0hPa | 2.5V | 08:30:00 | 02:21:13 | 00:00:00 | |
| BIOWL1-15 | 2026-08-31 00:55:30 | 47.18331 | 8.07538 | 347° | 18km/h | 36198m | 6.9m/s | -31.7°C | 0% | 0hPa | 2.6V | 18:12:15 | 02:21:18 | 00:00:00 | |
| DB0UT-7 | 2026-08-31 00:55:28 | 47.18318 | 8.07550 | 319° | 26km/h | 36184m | 6.4m/s | -31.6°C | 1.3% | 0hPa | 2.5V | 00:00:00 | 02:21:16 | 00:00:00 | |
| LOEBOVI | 2026-08-31 00:55:25 | 47.18305 | 8.07577 | 293° | 47km/h | 36173m | 4.4m/s | -31.7°C | 0.1% | 0hPa | 2.5V | 00:00:00 | 00:00:00 | 00:00:00 | |
| DM0DOS-11 | 2026-08-31 00:55:23 | 47.18332 | 8.07638 | 179° | 35km/h | 36137m | 5.9m/s | -31.7°C | 1.3% | 0hPa | 2.5V | 08:30:00 | 02:21:08 | 00:00:00 | |
| DN1GJH-1 | 2026-08-31 00:55:23 | 47.18303 | 8.07608 | 255° | 40km/h | 36164m | 5.6m/s | -31.7°C | 0.2% | 0hPa | 2.5V | 00:00:00 | 00:00:00 | 00:00:00 | |
| DF7PN | 2026-08-31 00:55:22 | 47.18323 | 8.07636 | 194° | 37km/h | 36144m | 6.5m/s | -31.7°C | 0.1% | -1.0hPa | 2.5V | 00:00:00 | 00:00:00 | 00:00:00 | |
| DK5PH-5 | 2026-08-31 00:55:21 | 47.18323 | 8.07636 | 195° | 20km/h | 36144m | 6.5m/s | -31.6°C | 1.3% | 0hPa | 2.5V | 00:00:00 | 02:21:09 | 00:00:00 | |
| IW2NTF | 2026-08-31 00:55:20 | 47.18344 | 8.07629 | 352° | 15km/h | 36108m | 6.4m/s | -31.7°C | 1.3% | 0hPa | 2.5V | 08:30:00 | 02:21:03 | 00:00:00 | |
| BIOWL1-15 | 2026-08-31 00:55:19 | 47.18348 | 8.07631 | 118° | 7km/h | 36120m | 6m/s | -31.7°C | 0% | 0hPa | 2.6V | 18:12:15 | 02:21:05 | 00:00:00 | |
| DH7VM-15 | 2026-08-31 00:55:17 | 47.18347 | 8.07629 | 27° | 7km/h | 36115m | 6.4m/s | -31.7°C | 0.1% | 0hPa | 2.6V | 00:00:00 | 00:00:00 | 00:00:00 | |
| HASLITAL | 2026-08-31 00:55:13 | 47.18340 | 8.07631 | 337° | 20km/h | 36102m | 6.0m/s | -31.7°C | 0.2% | 0hPa | 2.6V | 00:00:00 | 00:00:00 | 00:00:00 | |
| IW2NTF | 2026-08-31 00:55:11 | 47.18364 | 8.07698 | 204° | 27km/h | 36052m | 4.6m/s | -31.5°C | 1.3% | 0hPa | 2.6V | 08:30:00 | 02:20:53 | 00:00:00 | |
| DM0DOS-11 | 2026-08-31 00:55:09 | 47.18370 | 8.07701 | 204° | 20km/h | 36047m | 5.4m/s | -31.5°C | 1.3% | 0hPa | 2.5V | 08:30:00 | 02:20:52 | 00:00:00 | |
| BIOWL1-15 | 2026-08-31 00:55:08 | 47.18357 | 8.07693 | 207° | 35km/h | 36057m | 4.5m/s | -31.6°C | 0% | 0hPa | 2.6V | 18:12:15 | 02:20:54 | 00:00:00 | |
| BIOWL9-15 | 2026-08-31 00:55:07 | 47.18357 | 8.07693 | 207° | 35km/h | 36057m | 4.5m/s | -31.6°C | 0.1% | -1.0hPa | 2.6V | 00:00:00 | 00:00:00 | 00:00:00 | |
| DL8DAS-14 | 2026-08-31 00:55:05 | 47.18364 | 8.07698 | 204° | 27km/h | 36052m | 4.6m/s | -31.5°C | 0.1% | -1.0hPa | 2.6V | 00:00:00 | 00:00:00 | 00:00:00 | |
| DN1GJH-1 | 2026-08-31 00:55:02 | 47.18373 | 8.07704 | 209° | 11km/h | 36042m | 6.1m/s | -31.5°C | 0.2% | 0hPa | 2.6V | 00:00:00 | 00:00:00 | 00:00:00 | |
| IW2NTF | 2026-08-31 00:55:00 | 47.18385 | 8.07705 | 189° | 24km/h | 35996m | 5.4m/s | -31.6°C | 1.3% | 0hPa | 2.6V | 08:30:00 | 02:20:43 | 00:00:00 | |
| DB0UT-7 | 2026-08-31 00:54:58 | 47.18373 | 8.07704 | 168° | 20km/h | 36014m | 5.7m/s | -31.5°C | 1.3% | 0hPa | 2.5V | 00:00:00 | 00:00:00 | 08:30:00 | |
| DM0DOS-11 | 2026-08-31 00:54:57 | 47.18396 | 8.07710 | 207° | 22km/h | 35986m | 4.3m/s | -31.7°C | 1.3% | 0hPa | 2.5V | 08:30:00 | 02:20:41 | 00:00:00 | |
| BIOWL1-15 | 2026-08-31 00:54:55 | 47.18385 | 8.07705 | 190° | 24km/h | 35996m | 5.4m/s | -31.6°C | 0% | 0hPa | 2.6V | 18:12:15 | 02:20:43 | 00:00:00 | |
| HASLITAL | 2026-08-31 00:54:52 | 47.18396 | 8.07710 | 208° | 22km/h | 35987m | 4.3m/s | -31.7°C | 0.2% | 0hPa | 2.6V | 00:00:00 | 00:00:00 | 00:00:00 | |
| DK5PH-5 | 2026-08-31 00:54:51 | 47.18402 | 8.07719 | 259° | 22km/h | 35976m | 6.0m/s | -31.6°C | 1.3% | 0hPa | 2.6V | 00:00:00 | 02:20:39 | 00:00:00 | |
| IW2NTF | 2026-08-31 00:54:50 | 47.18391 | 8.07738 | 165° | 7km/h | 35944m | 5.4m/s | -31.7°C | 1.3% | 0hPa | 2.6V | 08:30:00 | 02:20:33 | 00:00:00 | |
| DL1ZP-14 | 2026-08-31 00:54:49 | 47.18399 | 8.07729 | 314° | 16km/h | 35963m | 6.2m/s | -31.7°C | 0.1% | -1.0hPa | 2.5V | 00:00:00 | 00:00:00 | 00:00:00 | |
| BIOWL1-15 | 2026-08-31 00:54:44 | 47.18394 | 8.07737 | 166° | 18km/h | 35938m | 7.1m/s | -31.8°C | 0% | 0hPa | 2.6V | 18:12:15 | 02:20:32 | 00:00:00 | |
| DN1GJH-1 | 2026-08-31 00:54:42 | 47.18399 | 8.07735 | 168° | 29km/h | 35931m | 7.4m/s | -31.9°C | 0.2% | 0hPa | 2.5V | 00:00:00 | 00:00:00 | 00:00:00 | |
| DL8DAS-15 | 2026-08-31 00:54:41 | 47.18407 | 8.07732 | 168° | 37km/h | 35925m | 5.7m/s | 0°C | 0% | 0hPa | 2.5V | 00:00:00 | 00:00:00 | 00:00:00 | |
| IW2NTF | 2026-08-31 00:54:40 | 47.18414 | 8.07717 | 7° | 35km/h | 35885m | 4.9m/s | -32.5°C | 1.3% | 0hPa | 2.5V | 08:30:00 | 02:20:23 | 00:00:00 | |
| BIOWL1-15 | 2026-08-31 00:54:36 | 47.18394 | 8.07710 | 125° | 7km/h | 35866m | 6.9m/s | -32.8°C | 0% | 0hPa | 2.5V | 18:12:15 | 02:20:19 | 00:00:00 | |
| BIOWL9-15 | 2026-08-31 00:54:36 | 47.18413 | 8.07717 | 7° | 35km/h | 35885m | 4.9m/s | -32.5°C | 0.1% | -1.0hPa | 2.5V | 00:00:00 | 00:00:00 | 00:00:00 | |
| DL8DAS-14 | 2026-08-31 00:54:34 | 47.18405 | 8.07715 | 7° | 31km/h | 35881m | 3.2m/s | -32.6°C | 0.2% | -1.0hPa | 2.5V | 00:00:00 | 00:00:00 | 00:00:00 | |
| HASLITAL | 2026-08-31 00:54:31 | 47.18394 | 8.07712 | 28° | 11km/h | 35873m | 5.7m/s | -32.7°C | 0.2% | 0hPa | 2.5V | 00:00:00 | 00:00:00 | 00:00:00 | |
| IW2NTF | 2026-08-31 00:54:30 | 47.18416 | 8.07678 | 67° | 20km/h | 35835m | 6m/s | -33.4°C | 1.4% | 0hPa | 2.5V | 08:30:00 | 02:20:13 | 00:00:00 | |
| DB0UT-7 | 2026-08-31 00:54:28 | 47.18408 | 8.07698 | 148° | 27km/h | 35849m | 4.0m/s | -33.1°C | 1.4% | 0hPa | 2.5V | 00:00:00 | 02:20:16 | 00:00:00 | |
| DM0DOS-11 | 2026-08-31 00:54:25 | 47.18377 | 8.07660 | 359° | 31km/h | 35805m | 4.8m/s | -33.9°C | 1.5% | 0hPa | 2.5V | 08:30:00 | 02:20:08 | 00:00:00 | |
| BIOWL1-15 | 2026-08-31 00:54:23 | 47.18386 | 8.07660 | 4° | 38km/h | 35810m | 4.6m/s | -33.8°C | 0% | 0hPa | 2.5V | 18:12:15 | 02:20:09 | 00:00:00 | |
| DK5PH-5 | 2026-08-31 00:54:21 | 47.18386 | 8.07660 | 5° | 29km/h | 35811m | 4.5m/s | -33.7°C | 1.4% | 0hPa | 2.5V | 00:00:00 | 02:20:09 | 00:00:00 | |
| IW2NTF | 2026-08-31 00:54:20 | 47.18368 | 8.07661 | 133° | 13km/h | 35776m | 5.4m/s | -34.2°C | 1.5% | 0hPa | 2.5V | 08:30:00 | 02:20:03 | 00:00:00 | |
| BIOWL1-15 | 2026-08-31 00:54:13 | 47.18368 | 8.07639 | 68° | 33km/h | 35759m | 6m/s | -34.3°C | 0% | 0hPa | 2.6V | 18:12:15 | 02:20:00 | 00:00:00 | |
| DF3TZ-5 | 2026-08-31 00:54:09 | 47.18322 | 8.07573 | 34° | 33km/h | 35724m | 5.9m/s | -34.4°C | 0.2% | -1.0hPa | 2.5V | 00:00:00 | 00:00:00 | 00:00:00 | |
| DM0DOS-11 | 2026-08-31 00:54:08 | 47.18305 | 8.07557 | 31° | 22km/h | 35706m | 5.5m/s | -34.5°C | 1.5% | 0hPa | 2.5V | 08:30:00 | 02:19:51 | 00:00:00 | |
| BIOWL1-15 | 2026-08-31 00:54:03 | 47.18305 | 8.07557 | 32° | 22km/h | 35706m | 5.6m/s | -34.5°C | 0% | 0hPa | 2.5V | 18:12:15 | 02:19:51 | 00:00:00 | |
| LOEBOVI | 2026-08-31 00:54:02 | 47.18300 | 8.07553 | 35° | 22km/h | 35701m | 5.8m/s | -34.5°C | 0.2% | 0hPa | 2.5V | 00:00:00 | 00:00:00 | 00:00:00 | |
| DN1GJH-1 | 2026-08-31 00:54:01 | 47.18300 | 8.07553 | 35° | 22km/h | 35701m | 5.8m/s | -34.5°C | 0% | 0hPa | 2.5V | 00:00:00 | 00:00:00 | 00:00:00 | |
| IW2NTF | 2026-08-31 00:53:58 | 47.18251 | 8.07498 | 38° | 35km/h | 35661m | 6m/s | -34.6°C | 1.5% | 0hPa | 2.5V | 08:30:00 | 02:19:43 | 00:00:00 | |
| DB0ND-19 | 2026-08-31 00:53:57 | 47.18227 | 8.07480 | 6° | 27km/h | 35638m | 4.8m/s | -34.7°C | 0.2% | -1.0hPa | 2.5V | 00:00:00 | 00:00:00 | 00:00:00 | |
| DM0DOS-11 | 2026-08-31 00:53:56 | 47.18220 | 8.07479 | 2° | 33km/h | 35633m | 5.5m/s | -34.7°C | 1.5% | 0hPa | 2.5V | 08:30:00 | 02:19:38 | 00:00:00 | |
| BIOWL1-15 | 2026-08-31 00:53:54 | 47.18220 | 8.07479 | 3° | 33km/h | 35633m | 5.5m/s | -34.7°C | 0% | 0hPa | 2.5V | 18:12:15 | 02:19:38 | 00:00:00 | |
| DK5PH-5 | 2026-08-31 00:53:51 | 47.18227 | 8.07480 | 7° | 35km/h | 35639m | 4.8m/s | -34.6°C | 1.5% | 0hPa | 2.5V | 00:00:00 | 02:19:39 | 00:00:00 | |
| IW2NTF | 2026-08-31 00:53:48 | 47.18163 | 8.07467 | 18° | 46km/h | 35605m | 4.3m/s | -34.9°C | 1.6% | 0hPa | 2.5V | 08:30:00 | 02:19:33 | 00:00:00 | |
| DL1ZP-14 | 2026-08-31 00:53:47 | 47.18187 | 8.07475 | 9° | 51km/h | 35615m | 5.8m/s | -34.8°C | 0.2% | -1.0hPa | 2.6V | 00:00:00 | 00:00:00 | 00:00:00 | |
| BIOWL1-15 | 2026-08-31 00:53:41 | 47.18133 | 8.07446 | 340° | 16km/h | 35571m | 3.7m/s | -35.1°C | 0% | 0hPa | 2.5V | 18:12:15 | 02:19:27 | 00:00:00 | |
| DN1GJH-1 | 2026-08-31 00:53:41 | 47.18140 | 8.07450 | 42° | 18km/h | 35587m | 7.2m/s | -35.2°C | 0% | 0hPa | 2.5V | 00:00:00 | 00:00:00 | 00:00:00 | |
| IW2NTF | 2026-08-31 00:53:40 | 47.18094 | 8.07462 | 348° | 64km/h | 35545m | 6.6m/s | -35.1°C | 1.6% | 0hPa | 2.5V | 08:30:00 | 02:19:23 | 00:00:00 | |
| OE5DXL-15 | 2026-08-31 00:53:39 | 47.18128 | 8.07449 | 340° | 29km/h | 35567m | 5.2m/s | -35.1°C | 1.6% | 0hPa | 2.5V | 00:00:00 | 00:00:00 | 00:00:00 | |
| BIOWL9-15 | 2026-08-31 00:53:34 | 47.18062 | 8.07469 | 355° | 60km/h | 35536m | 3.1m/s | -35.1°C | 0.2% | -1.0hPa | 2.5V | 00:00:00 | 00:00:00 | 00:00:00 | |
| DM0DOS-11 | 2026-08-31 00:53:33 | 47.18029 | 8.07467 | 15° | 24km/h | 35520m | 7.7m/s | -34.9°C | 1.6% | 0hPa | 2.5V | 08:30:00 | 02:19:18 | 00:00:00 | |
| BIOWL1-15 | 2026-08-31 00:53:29 | 47.18021 | 8.07460 | 350° | 18km/h | 35491m | 5.4m/s | -34.8°C | 0% | 0hPa | 2.5V | 18:12:15 | 02:19:13 | 00:00:00 | |
| DB0UT-7 | 2026-08-31 00:53:28 | 47.18025 | 8.07462 | 91° | 22km/h | 35506m | 5.8m/s | -34.8°C | 1.6% | 0hPa | 2.5V | 00:00:00 | 02:19:16 | 00:00:00 | |
| HASLITAL | 2026-08-31 00:53:27 | 47.18025 | 8.07460 | 99° | 4km/h | 35500m | 4.1m/s | -34.8°C | 0.2% | 0hPa | 2.5V | 00:00:00 | 00:00:00 | 00:00:00 | |
| DM0DOS-11 | 2026-08-31 00:53:23 | 47.17966 | 8.07474 | 351° | 51km/h | 35461m | 4.3m/s | -34.6°C | 1.5% | 0hPa | 2.5V | 08:30:00 | 02:19:08 | 00:00:00 | |
| DK5PH-5 | 2026-08-31 00:53:21 | 47.17980 | 8.07471 | 352° | 22km/h | 35466m | 4.8m/s | -34.6°C | 1.5% | 0hPa | 2.5V | 00:00:00 | 02:19:09 | 00:00:00 | |
| IW2NTF | 2026-08-31 00:53:20 | 47.17937 | 8.07478 | 60° | 2km/h | 35431m | 5.8m/s | -34.6°C | 1.5% | 0hPa | 2.5V | 08:30:00 | 02:19:03 | 00:00:00 | |
| BIOWL1-15 | 2026-08-31 00:53:15 | 47.17918 | 8.07471 | 5° | 38km/h | 35403m | 6.5m/s | -34.7°C | 0% | 0hPa | 2.5V | 18:12:15 | 02:18:58 | 00:00:00 | |
| DH7VM-15 | 2026-08-31 00:53:12 | 47.17935 | 8.07476 | 27° | 9km/h | 35421m | 5.0m/s | -34.7°C | 0.2% | 0hPa | 2.6V | 00:00:00 | 00:00:00 | 00:00:00 | |
| DM0DOS-11 | 2026-08-31 00:53:08 | 47.17887 | 8.07470 | 358° | 37km/h | 35387m | 4.7m/s | -34.8°C | 1.5% | 0hPa | 2.6V | 08:30:00 | 02:18:55 | 00:00:00 | |
| BIOWL1-15 | 2026-08-31 00:53:04 | 47.17865 | 8.07479 | 4° | 20km/h | 35333m | 6.2m/s | -35.1°C | 0% | 0hPa | 2.5V | 18:12:15 | 02:18:46 | 00:00:00 | |
| DM0DOS-11 | 2026-08-31 00:53:03 | 47.17860 | 8.07478 | 6° | 26km/h | 35327m | 5.7m/s | -35.1°C | 1.6% | 0hPa | 2.6V | 08:30:00 | 02:18:45 | 00:00:00 | |
| BIOWL9-15 | 2026-08-31 00:53:02 | 47.17871 | 8.07477 | 220° | 5km/h | 35356m | 5.3m/s | -34.9°C | 0.2% | -1.0hPa | 2.5V | 00:00:00 | 00:00:00 | 00:00:00 | |
| IW2NTF | 2026-08-31 00:53:01 | 47.17847 | 8.07476 | 5° | 24km/h | 35317m | 5.7m/s | -35.2°C | 1.5% | 0hPa | 2.5V | 08:30:00 | 02:18:43 | 00:00:00 | |
| BIOWL1-15 | 2026-08-31 00:52:51 | 47.17836 | 8.07478 | 250° | 4km/h | 35288m | 5.5m/s | -35.4°C | 0% | 0hPa | 2.5V | 18:12:15 | 02:18:38 | 00:00:00 | |
| DK5PH-5 | 2026-08-31 00:52:51 | 47.17836 | 8.07477 | 269° | 11km/h | 35294m | 5.3m/s | -35.3°C | 1.6% | 0hPa | 2.6V | 00:00:00 | 02:18:39 | 08:30:00 | |
| IW2NTF | 2026-08-31 00:52:50 | 47.17829 | 8.07480 | 18° | 11km/h | 35258m | 5.4m/s | -35.4°C | 1.6% | 0hPa | 2.5V | 08:30:00 | 02:18:33 | 00:00:00 | |
| DF7PN | 2026-08-31 00:52:46 | 47.17832 | 8.07480 | 9° | 9km/h | 35264m | 5.8m/s | -35.4°C | 0.2% | -1.0hPa | 2.5V | 00:00:00 | 00:00:00 | 00:00:00 | |
| DL1ZP-14 | 2026-08-31 00:52:45 | 47.17827 | 8.07478 | 29° | 9km/h | 35253m | 5.8m/s | -35.5°C | 0.2% | -1.0hPa | 2.5V | 00:00:00 | 00:00:00 | 00:00:00 | |
| HASLITAL | 2026-08-31 00:52:42 | 47.17825 | 8.07476 | 44° | 7km/h | 35247m | 6.3m/s | -35.5°C | 0.2% | 0hPa | 2.5V | 00:00:00 | 00:00:00 | 00:00:00 | |
| IW2NTF | 2026-08-31 00:52:40 | 47.17807 | 8.07477 | 353° | 13km/h | 35200m | 4.8m/s | -35.7°C | 1.6% | 0hPa | 2.5V | 08:30:00 | 02:18:23 | 00:00:00 | |
| BIOWL1-15 | 2026-08-31 00:52:40 | 47.17804 | 8.07476 | 80° | 4km/h | 35189m | 6.8m/s | -35.6°C | 0% | 0hPa | 2.5V | 18:12:15 | 02:18:21 | 00:00:00 | |
| DN1GJH-1 | 2026-08-31 00:52:39 | 47.17823 | 8.07473 | 9° | 4km/h | 35230m | 4.9m/s | 0°C | 0% | 0hPa | 2.6V | 00:00:00 | 00:00:00 | 00:00:00 | |
| LOEBOVI | 2026-08-31 00:52:37 | 47.17819 | 8.07473 | 348° | 13km/h | 35218m | 6.8m/s | -35.7°C | 0.2% | 0hPa | 2.6V | 00:00:00 | 00:00:00 | 00:00:00 | |
| OE5DXL-15 | 2026-08-31 00:52:33 | 47.17805 | 8.07475 | 143° | 15km/h | 35183m | 6.8m/s | -35.6°C | 1.6% | 0hPa | 2.6V | 00:00:00 | 00:00:00 | 00:00:00 | |
| BIOWL9-15 | 2026-08-31 00:52:31 | 47.17807 | 8.07472 | 148° | 13km/h | 35176m | 5.9m/s | -35.6°C | 0.2% | -1.0hPa | 2.5V | 00:00:00 | 00:00:00 | 00:00:00 | |
| IW2NTF | 2026-08-31 00:52:30 | 47.17802 | 8.07466 | 348° | 26km/h | 35142m | 5.5m/s | -35.7°C | 1.6% | 0hPa | 2.5V | 08:30:00 | 02:18:13 | 00:00:00 | |
| BIOWL1-15 | 2026-08-31 00:52:28 | 47.17802 | 8.07466 | 349° | 26km/h | 35142m | 5.5m/s | -35.7°C | 0% | 0hPa | 2.5V | 18:12:15 | 02:18:13 | 00:00:00 | |
| DB0UT-7 | 2026-08-31 00:52:28 | 47.17813 | 8.07465 | 66° | 15km/h | 35162m | 5.5m/s | -35.6°C | 1.6% | 0hPa | 2.5V | 00:00:00 | 02:18:16 | 00:00:00 | |
| HASLITAL | 2026-08-31 00:52:22 | 47.17790 | 8.07470 | 343° | 16km/h | 35133m | 4.2m/s | -35.7°C | 0.2% | 0hPa | 2.5V | 00:00:00 | 00:00:00 | 00:00:00 | |
| DK5PH-5 | 2026-08-31 00:52:21 | 47.17787 | 8.07473 | 194° | 16km/h | 35122m | 6.7m/s | -35.7°C | 1.6% | 0hPa | 2.5V | 00:00:00 | 02:18:09 | 00:00:00 | |
| IW2NTF | 2026-08-31 00:52:20 | 47.17812 | 8.07470 | 197° | 4km/h | 35086m | 6.4m/s | -35.7°C | 1.6% | 0hPa | 2.5V | 08:30:00 | 02:18:03 | 00:00:00 | |
| BIOWL1-15 | 2026-08-31 00:52:17 | 47.17813 | 8.07470 | 197° | 4km/h | 35086m | 6.4m/s | -35.7°C | 0% | 0hPa | 2.5V | 18:12:15 | 02:18:03 | 00:00:00 | |
| BIOWL1-15 | 2026-08-31 00:52:04 | 47.17830 | 8.07468 | 203° | 18km/h | 35024m | 6.2m/s | -35.7°C | 0% | 0hPa | 2.5V | 18:12:15 | 02:17:52 | 00:00:00 | |
| HASLITAL | 2026-08-31 00:52:01 | 47.17836 | 8.07475 | 254° | 15km/h | 35011m | 6.2m/s | -35.7°C | 0.3% | 0hPa | 2.5V | 00:00:00 | 00:00:00 | 00:00:00 | |
| IW2NTF | 2026-08-31 00:52:00 | 47.17857 | 8.07480 | 164° | 33km/h | 34972m | 5m/s | -35.7°C | 1.6% | 0hPa | 2.5V | 08:30:00 | 02:17:43 | 00:00:00 | |
| BIOWL1-15 | 2026-08-31 00:51:54 | 47.17881 | 8.07484 | 274° | 15km/h | 34943m | 6.7m/s | -35.9°C | 0% | 0hPa | 2.5V | 18:12:15 | 02:17:38 | 00:00:00 | |
| DB0ND-19 | 2026-08-31 00:51:53 | 47.17878 | 8.07496 | 292° | 13km/h | 34933m | 3.8m/s | -35.9°C | 0.2% | -1.0hPa | 2.5V | 00:00:00 | 00:00:00 | 00:00:00 | |
| DK5PH-5 | 2026-08-31 00:51:51 | 47.17880 | 8.07480 | 234° | 20km/h | 34951m | 7.2m/s | -35.8°C | 1.6% | 0hPa | 2.5V | 00:00:00 | 02:17:39 | 00:00:00 | |
| IW2NTF | 2026-08-31 00:51:50 | 47.17881 | 8.07499 | 153° | 18km/h | 34917m | 6.7m/s | -35.9°C | 1.6% | 0hPa | 2.5V | 08:30:00 | 02:17:33 | 00:00:00 | |
| DM0DOS-11 | 2026-08-31 00:51:44 | 47.17910 | 8.07467 | 134° | 22km/h | 34888m | 5.7m/s | -36°C | 1.6% | 0hPa | 2.5V | 08:30:00 | 02:17:28 | 00:00:00 | |
| BIOWL1-15 | 2026-08-31 00:51:41 | 47.17930 | 8.07458 | 177° | 26km/h | 34848m | 5.6m/s | -36.5°C | 0% | 0hPa | 2.5V | 18:12:15 | 02:17:21 | 00:00:00 | |
| IW2NTF | 2026-08-31 00:51:40 | 47.17920 | 8.07458 | 188° | 11km/h | 34860m | 6.2m/s | -36.4°C | 1.7% | 0hPa | 2.5V | 08:30:00 | 02:17:23 | 00:00:00 | |
| DM0DOS-11 | 2026-08-31 00:51:36 | 47.17950 | 8.07452 | 162° | 27km/h | 34832m | 5.5m/s | -36.5°C | 1.7% | 0hPa | 2.5V | 08:30:00 | 02:17:18 | 00:00:00 | |
| OE5DXL-15 | 2026-08-31 00:51:31 | 47.17951 | 8.07452 | 163° | 24km/h | 34832m | 5.5m/s | -36.5°C | 1.7% | 0hPa | 2.5V | 00:00:00 | 00:00:00 | 00:00:00 | |
| IW2NTF | 2026-08-31 00:51:30 | 47.17975 | 8.07440 | 169° | 22km/h | 34804m | 5.6m/s | -36.6°C | 1.7% | 0hPa | 2.5V | 08:30:00 | 02:17:13 | 00:00:00 | |
| BIOWL1-15 | 2026-08-31 00:51:28 | 47.17970 | 8.07441 | 165° | 18km/h | 34809m | 4.7m/s | -36.6°C | 0% | 0hPa | 2.6V | 18:12:15 | 02:17:14 | 00:00:00 | |
| DB0UT-7 | 2026-08-31 00:51:28 | 47.17961 | 8.07446 | 156° | 27km/h | 34820m | 5.9m/s | -36.6°C | 1.7% | 0hPa | 2.5V | 00:00:00 | 02:17:16 | 00:00:00 | |
| BIOWL1-15 | 2026-08-31 00:51:21 | 47.18088 | 8.07367 | 155° | 31km/h | 34715m | 5m/s | -36.8°C | 0% | 0hPa | 2.5V | 18:12:15 | 02:16:57 | 00:00:00 | |
| IW2NTF | 2026-08-31 00:51:17 | 47.18045 | 8.07411 | 132° | 27km/h | 34748m | 5.3m/s | -36.7°C | 1.7% | 0hPa | 2.5V | 08:30:00 | 02:17:03 | 00:00:00 | |
| DM0DOS-11 | 2026-08-31 00:51:14 | 47.18081 | 8.07372 | 153° | 37km/h | 34719m | 4.5m/s | -36.8°C | 1.8% | 0hPa | 2.5V | 08:30:00 | 02:16:58 | 00:00:00 | |
| LOEBOVI | 2026-08-31 00:51:14 | 47.18045 | 8.07411 | 134° | 27km/h | 34748m | 5.3m/s | -36.7°C | 0.3% | 0hPa | 2.6V | 00:00:00 | 00:00:00 | 00:00:00 | |
| DF7PN | 2026-08-31 00:51:13 | 47.18057 | 8.07395 | 140° | 35km/h | 34735m | 6.4m/s | -36.8°C | 0.2% | -1.0hPa | 2.6V | 00:00:00 | 00:00:00 | 00:00:00 | |
| DH7VM-15 | 2026-08-31 00:51:12 | 47.18057 | 8.07395 | 142° | 37km/h | 34735m | 6.4m/s | -36.8°C | 0.2% | 0hPa | 2.6V | 00:00:00 | 00:00:00 | 00:00:00 | |
| DL1ZP-14 | 2026-08-31 00:51:11 | 47.18073 | 8.07379 | 149° | 38km/h | 34724m | 4.6m/s | -36.8°C | 0.2% | -1.0hPa | 2.6V | 00:00:00 | 00:00:00 | 00:00:00 | |
| IW2NTF | 2026-08-31 00:51:10 | 47.18105 | 8.07356 | 146° | 11km/h | 34689m | 5.4m/s | -36.7°C | 1.7% | 0hPa | 2.5V | 08:30:00 | 02:16:53 | 00:00:00 | |
| BIOWL1-15 | 2026-08-31 00:51:05 | 47.18105 | 8.07356 | 147° | 11km/h | 34689m | 5.4m/s | -36.7°C | 0% | 0hPa | 2.5V | 18:12:15 | 02:16:53 | 00:00:00 | |
| DM0DOS-11 | 2026-08-31 00:51:03 | 47.18133 | 8.07329 | 146° | 44km/h | 34660m | 5.5m/s | -36.8°C | 1.7% | 0hPa | 2.5V | 08:30:00 | 02:16:48 | 00:00:00 | |
| DF3TZ-5 | 2026-08-31 00:51:03 | 47.18111 | 8.07349 | 145° | 22km/h | 34680m | 5.3m/s | -36.7°C | 0.2% | -1.0hPa | 2.5V | 00:00:00 | 00:00:00 | 00:00:00 | |
| OE5DXL-15 | 2026-08-31 00:51:01 | 47.18133 | 8.07329 | 147° | 24km/h | 34661m | 5.4m/s | -36.7°C | 1.7% | 0hPa | 2.5V | 00:00:00 | 00:00:00 | 00:00:00 | |
| IW2NTF | 2026-08-31 00:51:00 | 47.18160 | 8.07287 | 93° | 18km/h | 34633m | 5.7m/s | -36.7°C | 1.7% | 0hPa | 2.5V | 08:30:00 | 02:16:43 | 00:00:00 | |
| BIOWL9-15 | 2026-08-31 00:50:58 | 47.18149 | 8.07311 | 138° | 37km/h | 34651m | 5.1m/s | -36.7°C | 0.2% | -1.0hPa | 2.5V | 00:00:00 | 00:00:00 | 00:00:00 | |
| DL8DAS-14 | 2026-08-31 00:50:57 | 47.18160 | 8.07281 | 80° | 16km/h | 34627m | 5.4m/s | -36.7°C | 0.2% | -1.0hPa | 2.5V | 00:00:00 | 00:00:00 | 00:00:00 | |
| DM0DOS-11 | 2026-08-31 00:50:55 | 47.18163 | 8.07257 | 129° | 22km/h | 34603m | 5.8m/s | -36.7°C | 1.7% | 0hPa | 2.5V | 08:30:00 | 02:16:38 | 00:00:00 | |
| BIOWL1-15 | 2026-08-31 00:50:54 | 47.18160 | 8.07281 | 81° | 16km/h | 34627m | 5.4m/s | -36.7°C | 0% | 0hPa | 2.5V | 18:12:15 | 02:16:42 | 00:00:00 | |
| IW2NTF | 2026-08-31 00:50:51 | 47.18182 | 8.07229 | 112° | 13km/h | 34575m | 6.3m/s | -36.7°C | 1.8% | 0hPa | 2.5V | 08:30:00 | 02:16:33 | 00:00:00 | |
| BIOWL1-15 | 2026-08-31 00:50:44 | 47.18182 | 8.07221 | 81° | 13km/h | 34563m | 5.3m/s | -36.7°C | 0% | 0hPa | 2.5V | 18:12:15 | 02:16:31 | 00:00:00 | |
| DM0DOS-11 | 2026-08-31 00:50:43 | 47.18183 | 8.07202 | 107° | 20km/h | 34546m | 6.5m/s | -36.6°C | 1.7% | 0hPa | 2.5V | 08:30:00 | 02:16:28 | 00:00:00 | |
| DF7PN | 2026-08-31 00:50:42 | 47.18182 | 8.07215 | 85° | 15km/h | 34558m | 5.3m/s | -36.7°C | 0.2% | -1.0hPa | 2.5V | 00:00:00 | 00:00:00 | 00:00:00 | |
| IW2NTF | 2026-08-31 00:50:40 | 47.18191 | 8.07161 | 79° | 20km/h | 34516m | 6.5m/s | -36.5°C | 1.7% | 0hPa | 2.5V | 08:30:00 | 02:16:23 | 00:00:00 | |
| DM0DOS-11 | 2026-08-31 00:50:35 | 47.18182 | 8.07130 | 90° | 16km/h | 34488m | 6.7m/s | -36.4°C | 1.7% | 0hPa | 2.5V | 08:30:00 | 02:16:18 | 00:00:00 | |
| BIOWL1-15 | 2026-08-31 00:50:33 | 47.18184 | 8.07109 | 91° | 20km/h | 34470m | 5.6m/s | -36.3°C | 0% | 0hPa | 2.6V | 18:12:15 | 02:16:15 | 00:00:00 | |
| DF3TZ-5 | 2026-08-31 00:50:32 | 47.18183 | 8.07136 | 74° | 16km/h | 34494m | 6.4m/s | -36.4°C | 0.2% | -1.0hPa | 2.5V | 00:00:00 | 00:00:00 | 00:00:00 | |
| OE5DXL-15 | 2026-08-31 00:50:31 | 47.18182 | 8.07130 | 91° | 27km/h | 34488m | 6.6m/s | -36.3°C | 1.7% | 0hPa | 2.5V | 00:00:00 | 00:00:00 | 08:30:00 | |
| IW2NTF | 2026-08-31 00:50:30 | 47.18182 | 8.07095 | 63° | 22km/h | 34457m | 6.5m/s | -36.2°C | 1.7% | 0hPa | 2.5V | 08:30:00 | 02:16:13 | 00:00:00 | |
| DB0UT-7 | 2026-08-31 00:50:28 | 47.18184 | 8.07117 | 100° | 31km/h | 34476m | 5.1m/s | -36.3°C | 1.7% | 0hPa | 2.5V | 00:00:00 | 02:16:16 | 08:30:00 | |
| BIOWL9-15 | 2026-08-31 00:50:27 | 47.18184 | 8.07109 | 90° | 18km/h | 34470m | 5.6m/s | -36.3°C | 0.2% | -1.0hPa | 2.5V | 00:00:00 | 00:00:00 | 00:00:00 | |
| DL8DAS-14 | 2026-08-31 00:50:26 | 47.18182 | 8.07095 | 63° | 22km/h | 34458m | 6.5m/s | -36.2°C | 0.2% | -1.0hPa | 2.5V | 00:00:00 | 00:00:00 | 00:00:00 | |
| DM0DOS-11 | 2026-08-31 00:50:23 | 47.18166 | 8.07050 | 75° | 29km/h | 34427m | 6.6m/s | -36.1°C | 1.6% | 0hPa | 2.5V | 08:30:00 | 02:16:08 | 00:00:00 | |
| BIOWL1-15 | 2026-08-31 00:50:22 | 47.18120 | 8.06923 | 76° | 40km/h | 34350m | 5.7m/s | -36.7°C | 0% | 0hPa | 2.6V | 18:12:15 | 02:15:55 | 00:00:00 | |
| DK5PH-5 | 2026-08-31 00:50:21 | 47.18168 | 8.07060 | 69° | 33km/h | 34434m | 7.0m/s | -36.1°C | 1.6% | 0hPa | 2.5V | 00:00:00 | 02:16:09 | 00:00:00 | |
| IW2NTF | 2026-08-31 00:50:20 | 47.18151 | 8.07003 | 39° | 29km/h | 34397m | 6.8m/s | -36.1°C | 1.6% | 0hPa | 2.5V | 08:30:00 | 02:16:03 | 00:00:00 | |
| DB0ND-19 | 2026-08-31 00:50:20 | 47.18145 | 8.06996 | 34° | 31km/h | 34391m | 5.5m/s | -36.2°C | 0.2% | -1.0hPa | 2.5V | 00:00:00 | 00:00:00 | 00:00:00 | |
| DM0DOS-11 | 2026-08-31 00:50:12 | 47.18125 | 8.06962 | 73° | 31km/h | 34368m | 6.9m/s | -36.5°C | 1.7% | 0hPa | 2.5V | 08:30:00 | 02:15:58 | 00:00:00 | |
| IW2NTF | 2026-08-31 00:50:11 | 47.18112 | 8.06895 | 57° | 42km/h | 34338m | 6.2m/s | -36.7°C | 1.7% | 0hPa | 2.5V | 08:30:00 | 02:15:53 | 00:00:00 | |
| DL1ZP-14 | 2026-08-31 00:50:09 | 47.18123 | 8.06950 | 81° | 35km/h | 34362m | 5.9m/s | -36.5°C | 0.2% | -1.0hPa | 2.5V | 00:00:00 | 00:00:00 | 00:00:00 | |
| DM0DOS-11 | 2026-08-31 00:50:02 | 47.18078 | 8.06838 | 53° | 33km/h | 34309m | 6.4m/s | -36.9°C | 1.7% | 0hPa | 2.5V | 08:30:00 | 02:15:48 | 00:00:00 | |
| BIOWL1-15 | 2026-08-31 00:50:01 | 47.18049 | 8.06754 | 74° | 37km/h | 34262m | 6m/s | -37.2°C | 0% | 0hPa | 2.6V | 18:12:15 | 02:15:40 | 00:00:00 | |
| IW2NTF | 2026-08-31 00:50:00 | 47.18060 | 8.06790 | 61° | 33km/h | 34279m | 6m/s | -37.1°C | 1.7% | 0hPa | 2.5V | 08:30:00 | 02:15:43 | 00:00:00 | |
| BIOWL9-15 | 2026-08-31 00:49:56 | 47.18064 | 8.06800 | 61° | 29km/h | 34286m | 6.7m/s | -37.1°C | 0.2% | -1.0hPa | 2.5V | 00:00:00 | 00:00:00 | 00:00:00 | |
| DL8DAS-14 | 2026-08-31 00:49:55 | 47.18060 | 8.06790 | 61° | 33km/h | 34279m | 6.0m/s | -37.1°C | 0.2% | -1.0hPa | 2.5V | 00:00:00 | 00:00:00 | 00:00:00 | |
| DM0DOS-11 | 2026-08-31 00:49:52 | 47.18047 | 8.06728 | 88° | 35km/h | 34249m | 6.2m/s | -37.3°C | 1.7% | 0hPa | 2.5V | 08:30:00 | 02:15:38 | 00:00:00 | |
| DK5PH-5 | 2026-08-31 00:49:51 | 47.18047 | 8.06741 | 83° | 26km/h | 34256m | 6.8m/s | -37.2°C | 1.7% | 0hPa | 2.6V | 00:00:00 | 02:15:39 | 00:00:00 | |
| IW2NTF | 2026-08-31 00:49:50 | 47.18037 | 8.06677 | 39° | 29km/h | 34221m | 7.6m/s | -37.5°C | 1.8% | 0hPa | 2.5V | 08:30:00 | 02:15:33 | 00:00:00 | |
| DB0ND-19 | 2026-08-31 00:49:49 | 47.18042 | 8.06684 | 55° | 26km/h | 34228m | 7.2m/s | -37.5°C | 0.2% | -1.0hPa | 2.5V | 00:00:00 | 00:00:00 | 00:00:00 | |
| BIOWL1-15 | 2026-08-31 00:49:44 | 47.18023 | 8.06665 | 25° | 33km/h | 34208m | 5.3m/s | -37.5°C | 0% | 0hPa | 2.5V | 18:12:15 | 02:15:31 | 00:00:00 | |
| DM0DOS-11 | 2026-08-31 00:49:42 | 47.18007 | 8.06649 | 59° | 20km/h | 34191m | 7m/s | -37.6°C | 1.8% | 0hPa | 2.5V | 08:30:00 | 02:15:28 | 00:00:00 | |
| HASLITAL | 2026-08-31 00:49:39 | 47.18007 | 8.06649 | 60° | 20km/h | 34191m | 7.0m/s | -37.6°C | 0.3% | 0hPa | 2.5V | 00:00:00 | 00:00:00 | 00:00:00 | |
| IW2NTF | 2026-08-31 00:49:38 | 47.18004 | 8.06604 | 68° | 29km/h | 34161m | 6.8m/s | -37.9°C | 1.8% | 0hPa | 2.5V | 08:30:00 | 02:15:23 | 00:00:00 | |
| DO3MHA-11 | 2026-08-31 00:49:35 | 47.18004 | 8.06604 | 69° | 22km/h | 34161m | 6.7m/s | -37.9°C | 1.8% | 0hPa | 2.5V | 00:00:00 | 02:15:23 | 00:00:00 | |
| DM0DOS-11 | 2026-08-31 00:49:30 | 47.17978 | 8.06555 | 108° | 16km/h | 34111m | 5.8m/s | -37.8°C | 1.8% | 0hPa | 2.6V | 08:30:00 | 02:15:15 | 00:00:00 | |
| BIOWL1-15 | 2026-08-31 00:49:29 | 47.17977 | 8.06565 | 66° | 13km/h | 34123m | 6.6m/s | -37.8°C | 0% | 0hPa | 2.5V | 18:12:15 | 02:15:17 | 00:00:00 | |
| IW2NTF | 2026-08-31 00:49:28 | 47.17980 | 8.06541 | 92° | 24km/h | 34099m | 6.7m/s | -37.8°C | 1.8% | 0hPa | 2.5V | 08:30:00 | 02:15:13 | 00:00:00 | |
| DL6DJ-15 | 2026-08-31 00:49:28 | 47.17979 | 8.06549 | 103° | 20km/h | 34105m | 5.9m/s | 0°C | -1.0% | -1.0hPa | 2.5V | 00:00:00 | 00:00:00 | 00:00:00 | |
| BIOWL9-15 | 2026-08-31 00:49:26 | 47.17980 | 8.06541 | 92° | 22km/h | 34099m | 6.7m/s | -37.8°C | 0.3% | -1.0hPa | 2.5V | 00:00:00 | 00:00:00 | 00:00:00 | |
| DO3MHA-11 | 2026-08-31 00:49:25 | 47.17980 | 8.06541 | 93° | 20km/h | 34099m | 6.6m/s | -37.8°C | 1.8% | 0hPa | 2.5V | 00:00:00 | 02:15:13 | 00:00:00 | |
| DL8DAS-14 | 2026-08-31 00:49:24 | 47.17979 | 8.06531 | 79° | 26km/h | 34092m | 6.6m/s | -37.8°C | -1.0% | -1.0hPa | 2.5V | 00:00:00 | 00:00:00 | 00:00:00 | |
| IW2NTF | 2026-08-31 00:49:21 | 47.17951 | 8.06477 | 357° | 16km/h | 34036m | 6.8m/s | -37.6°C | 1.8% | 0hPa | 2.5V | 08:30:00 | 02:15:03 | 00:00:00 | |
| BIOWL1-15 | 2026-08-31 00:49:19 | 47.17964 | 8.06485 | 54° | 20km/h | 34061m | 6.3m/s | -37.6°C | 0% | 0hPa | 2.5V | 18:12:15 | 02:15:07 | 00:00:00 | |
| DM0DOS-11 | 2026-08-31 00:49:15 | 47.17939 | 8.06471 | 55° | 18km/h | 34019m | 5.2m/s | -37.6°C | 1.8% | 0hPa | 2.6V | 08:30:00 | 02:15:00 | 00:00:00 | |
| DO3MHA-11 | 2026-08-31 00:49:13 | 47.17942 | 8.06475 | 26° | 27km/h | 34025m | 4.8m/s | -37.5°C | 1.8% | 0hPa | 2.5V | 00:00:00 | 02:15:01 | 00:00:00 | |
| IW2NTF | 2026-08-31 00:49:10 | 47.17945 | 8.06394 | 73° | 27km/h | 33976m | 6.8m/s | -37.7°C | 1.8% | 0hPa | 2.5V | 08:30:00 | 02:14:53 | 00:00:00 | |
| BIOWL1-15 | 2026-08-31 00:49:08 | 47.17945 | 8.06394 | 73° | 27km/h | 33976m | 6.8m/s | -37.7°C | 0% | 0hPa | 2.5V | 18:12:15 | 02:14:53 | 00:00:00 | |
| DL1ZP-14 | 2026-08-31 00:49:07 | 47.17945 | 8.06418 | 102° | 37km/h | 33988m | 4.2m/s | -37.6°C | 0.3% | -1.0hPa | 2.6V | 00:00:00 | 00:00:00 | 00:00:00 | |
| DO3MHA-11 | 2026-08-31 00:49:03 | 47.17938 | 8.06382 | 19° | 24km/h | 33963m | 6.2m/s | -37.7°C | 1.8% | 0hPa | 2.5V | 00:00:00 | 02:14:51 | 08:30:00 | |
| IW2NTF | 2026-08-31 00:48:59 | 47.17943 | 8.06338 | 97° | 44km/h | 33909m | 6.2m/s | -38.3°C | 1.8% | 0hPa | 2.5V | 08:30:00 | 02:14:42 | 00:00:00 | |
| BIOWL1-15 | 2026-08-31 00:48:56 | 47.17936 | 8.06366 | 122° | 37km/h | 33921m | 5.9m/s | -38.2°C | 0% | 0hPa | 2.6V | 18:12:15 | 02:14:44 | 00:00:00 | |
| DK5PH-5 | 2026-08-31 00:48:51 | 47.17938 | 8.06298 | 57° | 22km/h | 33892m | 5.4m/s | -38.3°C | 1.8% | 0hPa | 2.6V | 00:00:00 | 02:14:39 | 00:00:00 | |
| DM0DOS-11 | 2026-08-31 00:48:50 | 47.17942 | 8.06286 | 156° | 27km/h | 33856m | 5.2m/s | -38.6°C | 1.8% | 0hPa | 2.6V | 08:30:00 | 02:14:33 | 00:00:00 | |
| BIOWL1-15 | 2026-08-31 00:48:45 | 47.17942 | 8.06286 | 157° | 27km/h | 33856m | 5.2m/s | -38.6°C | 0% | 0hPa | 2.6V | 18:12:15 | 02:14:33 | 00:00:00 | |
| BIOWL1-15 | 2026-08-31 00:48:35 | 47.17946 | 8.06165 | 74° | 16km/h | 33761m | 6.9m/s | -38.9°C | 0% | 0hPa | 2.6V | 18:12:15 | 02:14:17 | 00:00:00 | |
| DM0DOS-11 | 2026-08-31 00:48:33 | 47.17945 | 8.06178 | 119° | 22km/h | 33772m | 4.7m/s | -38.9°C | 1.9% | 0hPa | 2.5V | 08:30:00 | 02:14:19 | 00:00:00 | |
| IW2NTF | 2026-08-31 00:48:28 | 47.17927 | 8.06139 | 61° | 22km/h | 33730m | 6.1m/s | -39°C | 1.9% | 0hPa | 2.6V | 08:30:00 | 02:14:12 | 00:00:00 | |
| DB0UT-7 | 2026-08-31 00:48:28 | 47.17944 | 8.06159 | 48° | 27km/h | 33754m | 7.1m/s | -38.9°C | 1.9% | 0hPa | 2.5V | 00:00:00 | 02:14:16 | 00:00:00 | |
| DM0DOS-11 | 2026-08-31 00:48:26 | 47.17931 | 8.06096 | 107° | 37km/h | 33704m | 4.7m/s | -39°C | 1.9% | 0hPa | 2.5V | 08:30:00 | 02:14:08 | 00:00:00 | |
| BIOWL1-15 | 2026-08-31 00:48:19 | 47.17933 | 8.06083 | 101° | 33km/h | 33699m | 5.9m/s | -39°C | 0% | 0hPa | 2.6V | 18:12:15 | 02:14:07 | 00:00:00 | |
| IW2NTF | 2026-08-31 00:48:19 | 47.17917 | 8.06031 | 57° | 22km/h | 33661m | 6.4m/s | -39°C | 1.9% | 0hPa | 2.6V | 08:30:00 | 02:14:01 | 00:00:00 | |
| HASLITAL | 2026-08-31 00:48:18 | 47.17933 | 8.06083 | 102° | 33km/h | 33700m | 5.9m/s | -39.0°C | 0.4% | 0hPa | 2.5V | 00:00:00 | 00:00:00 | 00:00:00 | |
| DO3MHA-11 | 2026-08-31 00:48:17 | 47.17932 | 8.06062 | 69° | 26km/h | 33686m | 6.7m/s | -39.0°C | 1.9% | 0hPa | 2.5V | 00:00:00 | 02:14:05 | 00:00:00 | |
| DM0DOS-11 | 2026-08-31 00:48:13 | 47.17916 | 8.06009 | 110° | 24km/h | 33640m | 6.6m/s | -39°C | 1.9% | 0hPa | 2.5V | 08:30:00 | 02:13:58 | 00:00:00 | |
| BIOWL1-15 | 2026-08-31 00:48:09 | 47.17921 | 8.05992 | 110° | 24km/h | 33629m | 5.2m/s | -39°C | 0% | 0hPa | 2.6V | 18:12:15 | 02:13:56 | 00:00:00 | |
| IW2NTF | 2026-08-31 00:48:08 | 47.17913 | 8.05948 | 59° | 33km/h | 33597m | 5.9m/s | -39°C | 1.9% | 0hPa | 2.6V | 08:30:00 | 02:13:51 | 00:00:00 | |
| DF7PN | 2026-08-31 00:48:07 | 47.17922 | 8.05975 | 78° | 22km/h | 33617m | 7.2m/s | -39.1°C | 0.3% | -1.0hPa | 2.5V | 00:00:00 | 00:00:00 | 00:00:00 | |
| DM0DOS-11 | 2026-08-31 00:48:05 | 47.17904 | 8.05915 | 79° | 29km/h | 33579m | 5.5m/s | -39°C | 1.9% | 0hPa | 2.5V | 08:30:00 | 02:13:48 | 00:00:00 | |
| IW2NTF | 2026-08-31 00:47:58 | 47.17896 | 8.05873 | 73° | 15km/h | 33537m | 5.6m/s | -39.1°C | 1.9% | 0hPa | 2.6V | 08:30:00 | 02:13:41 | 00:00:00 | |
| BIOWL1-15 | 2026-08-31 00:47:58 | 47.17897 | 8.05878 | 57° | 11km/h | 33542m | 5.1m/s | -39.1°C | 0% | 0hPa | 2.5V | 18:12:15 | 02:13:42 | 00:00:00 | |
| DF3TZ-5 | 2026-08-31 00:47:57 | 47.17896 | 8.05859 | 94° | 24km/h | 33524m | 7.1m/s | -39.1°C | 0.3% | -1.0hPa | 2.5V | 00:00:00 | 00:00:00 | 00:00:00 | |
| OE5DXL-15 | 2026-08-31 00:47:56 | 47.17899 | 8.05881 | 51° | 20km/h | 33548m | 5.6m/s | 0°C | 0% | 0hPa | 2.5V | 00:00:00 | 00:00:00 | 00:00:00 | |
| DM0DOS-11 | 2026-08-31 00:47:53 | 47.17896 | 8.05849 | 94° | 31km/h | 33517m | 6.1m/s | -39.1°C | 2% | 0hPa | 2.5V | 08:30:00 | 02:13:38 | 00:00:00 | |
| BIOWL9-15 | 2026-08-31 00:47:52 | 47.17896 | 8.05859 | 94° | 24km/h | 33524m | 7.1m/s | -39.1°C | 0.3% | -1.0hPa | 2.5V | 00:00:00 | 00:00:00 | 00:00:00 | |
| DK5PH-5 | 2026-08-31 00:47:51 | 47.17895 | 8.05859 | 95° | 18km/h | 33524m | 7.1m/s | -39.0°C | 1.9% | 0hPa | 2.5V | 00:00:00 | 02:13:39 | 00:00:00 | |
| DM0DOS-11 | 2026-08-31 00:47:45 | 47.17888 | 8.05782 | 129° | 15km/h | 33450m | 4.7m/s | -39.1°C | 2% | 0hPa | 2.5V | 08:30:00 | 02:13:27 | 00:00:00 | |
| BIOWL1-15 | 2026-08-31 00:47:44 | 47.17883 | 8.05792 | 41° | 7km/h | 33476m | 6.2m/s | -39.2°C | 0% | 0hPa | 2.5V | 18:12:15 | 02:13:31 | 00:00:00 | |
| DO3MHA-11 | 2026-08-31 00:47:43 | 47.17883 | 8.05792 | 41° | 16km/h | 33476m | 6.1m/s | -39.2°C | 2.0% | 0hPa | 2.5V | 00:00:00 | 02:13:31 | 00:00:00 | |
| HASLITAL | 2026-08-31 00:47:36 | 47.17890 | 8.05772 | 77° | 15km/h | 33441m | 5.9m/s | -39.1°C | 0.3% | 0hPa | 2.5V | 00:00:00 | 00:00:00 | 00:00:00 | |
| IW2NTF | 2026-08-31 00:47:35 | 47.17870 | 8.05749 | 31° | 33km/h | 33413m | 4.8m/s | -39°C | 2% | 0hPa | 2.5V | 08:30:00 | 02:13:21 | 00:00:00 | |
| DL1ZP-14 | 2026-08-31 00:47:34 | 47.17877 | 8.05756 | 30° | 31km/h | 33419m | 6.3m/s | -39.1°C | 0.3% | -1.0hPa | 2.5V | 00:00:00 | 00:00:00 | 00:00:00 | |
| DM0DOS-11 | 2026-08-31 00:47:33 | 47.17856 | 8.05727 | 75° | 22km/h | 33396m | 6.6m/s | -39°C | 1.9% | 0hPa | 2.6V | 08:30:00 | 02:13:18 | 00:00:00 | |
| BIOWL1-15 | 2026-08-31 00:47:32 | 47.17857 | 8.05714 | 122° | 15km/h | 33383m | 6m/s | -39°C | 0% | 0hPa | 2.5V | 18:12:15 | 02:13:16 | 00:00:00 | |
| IW2NTF | 2026-08-31 00:47:28 | 47.17860 | 8.05707 | 28° | 11km/h | 33354m | 5.3m/s | -38.9°C | 1.9% | 0hPa | 2.5V | 08:30:00 | 02:13:11 | 00:00:00 | |
| DB0UT-7 | 2026-08-31 00:47:28 | 47.17857 | 8.05714 | 123° | 18km/h | 33384m | 5.9m/s | -38.9°C | 1.9% | 0hPa | 2.5V | 00:00:00 | 02:13:16 | 00:00:00 | |
| DF3TZ-5 | 2026-08-31 00:47:26 | 47.17862 | 8.05708 | 229° | 0km/h | 33364m | 5.6m/s | -38.9°C | 0.3% | -1.0hPa | 2.6V | 00:00:00 | 00:00:00 | 00:00:00 | |
| DM0DOS-11 | 2026-08-31 00:47:23 | 47.17850 | 8.05691 | 58° | 29km/h | 33334m | 6.7m/s | -38.9°C | 1.9% | 0hPa | 2.6V | 08:30:00 | 02:13:08 | 00:00:00 | |
| BIOWL1-15 | 2026-08-31 00:47:20 | 47.17850 | 8.05691 | 59° | 29km/h | 33334m | 6.7m/s | -38.9°C | 0% | 0hPa | 2.6V | 18:12:15 | 02:13:08 | 00:00:00 | |
| IW2NTF | 2026-08-31 00:47:18 | 47.17823 | 8.05645 | 354° | 9km/h | 33291m | 6.1m/s | -39°C | 1.9% | 0hPa | 2.6V | 08:30:00 | 02:13:01 | 00:00:00 | |
| DO3MHA-12 | 2026-08-31 00:47:15 | 47.17830 | 8.05647 | 31° | 18km/h | 33305m | 7.2m/s | -38.9°C | 1.9% | 0hPa | 2.6V | 00:00:00 | 02:13:03 | 00:00:00 | |
| DB0ND-19 | 2026-08-31 00:47:14 | 47.17823 | 8.05645 | 354° | 9km/h | 33291m | 6.1m/s | -39.0°C | 0.3% | -1.0hPa | 2.5V | 00:00:00 | 00:00:00 | 00:00:00 | |
| DM0DOS-11 | 2026-08-31 00:47:13 | 47.17822 | 8.05642 | 113° | 11km/h | 33271m | 6.1m/s | -39.1°C | 2% | 0hPa | 2.5V | 08:30:00 | 02:12:58 | 00:00:00 | |
| BIOWL1-15 | 2026-08-31 00:47:10 | 47.17799 | 8.05593 | 40° | 24km/h | 33224m | 5.8m/s | -39.2°C | 0% | 0hPa | 2.6V | 18:12:15 | 02:12:50 | 00:00:00 | |
| IW2NTF | 2026-08-31 00:47:07 | 47.17804 | 8.05599 | 32° | 26km/h | 33230m | 4.8m/s | -39.2°C | 2% | 0hPa | 2.6V | 08:30:00 | 02:12:51 | 00:00:00 | |
| DM0DOS-11 | 2026-08-31 00:47:05 | 47.17794 | 8.05582 | 80° | 16km/h | 33211m | 6.7m/s | -39.2°C | 2% | 0hPa | 2.5V | 08:30:00 | 02:12:48 | 00:00:00 | |
| LOEBOVI | 2026-08-31 00:47:04 | 47.17815 | 8.05610 | 41° | 26km/h | 33242m | 6.6m/s | -39.2°C | 0.3% | 0hPa | 2.5V | 00:00:00 | 00:00:00 | 00:00:00 | |
| DO3MHA-11 | 2026-08-31 00:47:03 | 47.17804 | 8.05599 | 33° | 16km/h | 33230m | 4.8m/s | -39.2°C | 2.0% | 0hPa | 2.5V | 00:00:00 | 02:12:51 | 00:00:00 | |
| DF3TZ-5 | 2026-08-31 00:46:55 | 47.17794 | 8.05555 | 64° | 15km/h | 33175m | 5.4m/s | -39.1°C | 0.3% | -1.0hPa | 2.5V | 00:00:00 | 00:00:00 | 00:00:00 | |
| OE5DXL-15 | 2026-08-31 00:46:54 | 47.17792 | 8.05549 | 67° | 24km/h | 33169m | 6.4m/s | 0°C | 0% | 0hPa | 2.5V | 00:00:00 | 00:00:00 | 00:00:00 | |
| DM0DOS-11 | 2026-08-31 00:46:53 | 47.17785 | 8.05521 | 63° | 33km/h | 33150m | 5.5m/s | -38.9°C | 2% | 0hPa | 2.5V | 08:30:00 | 02:12:38 | 00:00:00 | |
| BIOWL1-15 | 2026-08-31 00:46:52 | 47.17788 | 8.05532 | 69° | 31km/h | 33156m | 6m/s | -39°C | 0% | 0hPa | 2.5V | 18:12:15 | 02:12:39 | 00:00:00 | |
| BIOWL9-15 | 2026-08-31 00:46:50 | 47.17781 | 8.05511 | 57° | 31km/h | 33144m | 5.9m/s | -38.9°C | 0.3% | -1.0hPa | 2.5V | 00:00:00 | 00:00:00 | 00:00:00 | |
| DO3MHA-12 | 2026-08-31 00:46:49 | 47.17781 | 8.05511 | 58° | 20km/h | 33144m | 5.9m/s | -38.9°C | 2.0% | 0hPa | 2.5V | 00:00:00 | 02:12:37 | 00:00:00 | |
| IW2NTF | 2026-08-31 00:46:47 | 47.17764 | 8.05476 | 116° | 13km/h | 33107m | 7m/s | -38.8°C | 1.9% | 0hPa | 2.5V | 08:30:00 | 02:12:31 | 00:00:00 | |
| DM0DOS-11 | 2026-08-31 00:46:43 | 47.17770 | 8.05460 | 101° | 18km/h | 33091m | 4.8m/s | -38.7°C | 1.9% | 0hPa | 2.6V | 08:30:00 | 02:12:28 | 00:00:00 | |
| BIOWL1-15 | 2026-08-31 00:46:42 | 47.17767 | 8.05447 | 54° | 22km/h | 33078m | 7.1m/s | -38.8°C | 0% | 0hPa | 2.5V | 18:12:15 | 02:12:26 | 00:00:00 | |
| DH7VM-15 | 2026-08-31 00:46:40 | 47.17769 | 8.05460 | 102° | 18km/h | 33092m | 4.8m/s | -38.7°C | 0.3% | 0hPa | 2.6V | 00:00:00 | 00:00:00 | 00:00:00 | |
| DM0DOS-11 | 2026-08-31 00:46:34 | 47.17738 | 8.05369 | 94° | 24km/h | 33031m | 5.4m/s | -38.7°C | 1.9% | 0hPa | 2.6V | 08:30:00 | 02:12:18 | 00:00:00 | |
| BIOWL1-15 | 2026-08-31 00:46:29 | 47.17731 | 8.05334 | 73° | 22km/h | 32996m | 6.5m/s | -38.7°C | 0% | 0hPa | 2.6V | 18:12:15 | 02:12:12 | 00:00:00 | |
| BIOWL1-15 | 2026-08-31 00:46:18 | 47.17724 | 8.05272 | 64° | 26km/h | 32962m | 6.4m/s | -39°C | 0% | 0hPa | 2.5V | 18:12:15 | 02:12:06 | 00:00:00 | |
| IW2NTF | 2026-08-31 00:46:17 | 47.17715 | 8.05236 | 98° | 22km/h | 32934m | 6.2m/s | -39.1°C | 1.9% | 0hPa | 2.5V | 08:30:00 | 02:12:01 | 00:00:00 | |
| DO3MHA-11 | 2026-08-31 00:46:15 | 47.17716 | 8.05251 | 69° | 18km/h | 32946m | 5.4m/s | -39.0°C | 1.9% | 0hPa | 2.5V | 00:00:00 | 02:12:03 | 00:00:00 | |
| DM0DOS-11 | 2026-08-31 00:46:14 | 47.17719 | 8.05213 | 98° | 18km/h | 32917m | 5.4m/s | -39.3°C | 1.9% | 0hPa | 2.5V | 08:30:00 | 02:11:58 | 00:00:00 | |
| BIOWL1-15 | 2026-08-31 00:46:10 | 47.17717 | 8.05202 | 54° | 15km/h | 32905m | 6.4m/s | -39.4°C | 0% | 0hPa | 2.5V | 18:12:15 | 02:11:56 | 00:00:00 | |
| IW2NTF | 2026-08-31 00:46:05 | 47.17705 | 8.05175 | 83° | 22km/h | 32876m | 5.6m/s | -39.6°C | 2% | 0hPa | 2.5V | 08:30:00 | 02:11:51 | 00:00:00 | |
| DO3MHA-11 | 2026-08-31 00:46:05 | 47.17708 | 8.05189 | 54° | 11km/h | 32889m | 5.7m/s | -39.4°C | 1.9% | 0hPa | 2.5V | 00:00:00 | 02:11:53 | 00:00:00 | |
| DM0DOS-11 | 2026-08-31 00:46:03 | 47.17706 | 8.05151 | 97° | 16km/h | 32860m | 6.1m/s | -39.8°C | 2% | 0hPa | 2.6V | 08:30:00 | 02:11:48 | 00:00:00 | |
| BIOWL1-15 | 2026-08-31 00:45:58 | 47.17708 | 8.05141 | 156° | 5km/h | 32837m | 5.6m/s | -39.8°C | 0% | 0hPa | 2.5V | 18:12:15 | 02:11:44 | 00:00:00 | |
| IW2NTF | 2026-08-31 00:45:55 | 47.17713 | 8.05135 | 127° | 11km/h | 32818m | 5.6m/s | -39.8°C | 2% | 0hPa | 2.6V | 08:30:00 | 02:11:41 | 00:00:00 | |
| HASLITAL | 2026-08-31 00:45:54 | 47.17709 | 8.05140 | 148° | 7km/h | 32832m | 6.7m/s | -39.8°C | 0.4% | 0hPa | 2.5V | 00:00:00 | 00:00:00 | 00:00:00 | |
| DM0DOS-11 | 2026-08-31 00:45:53 | 47.17716 | 8.05126 | 108° | 7km/h | 32801m | 5.6m/s | -39.8°C | 2.1% | 0hPa | 2.5V | 08:30:00 | 02:11:38 | 00:00:00 | |
| DF3TZ-5 | 2026-08-31 00:45:52 | 47.17714 | 8.05132 | 119° | 9km/h | 32813m | 5.6m/s | -39.8°C | 0.3% | -1.0hPa | 2.5V | 00:00:00 | 00:00:00 | 00:00:00 | |
| BIOWL9-15 | 2026-08-31 00:45:48 | 47.17720 | 8.05115 | 129° | 16km/h | 32786m | 6.4m/s | -39.8°C | 0.3% | -1.0hPa | 2.5V | 00:00:00 | 00:00:00 | 00:00:00 | |
| BIOWL1-15 | 2026-08-31 00:45:45 | 47.17741 | 8.05083 | 99° | 7km/h | 32745m | 4.5m/s | -39.7°C | 0% | 0hPa | 2.5V | 18:12:15 | 02:11:28 | 00:00:00 | |
| DM0DOS-11 | 2026-08-31 00:45:43 | 47.17741 | 8.05083 | 99° | 7km/h | 32745m | 4.5m/s | -39.7°C | 2% | 0hPa | 2.5V | 08:30:00 | 02:11:28 | 00:00:00 | |
| DO3MHA-11 | 2026-08-31 00:45:43 | 47.17736 | 8.05092 | 139° | 22km/h | 32763m | 5.8m/s | -39.7°C | 2.0% | 0hPa | 2.5V | 00:00:00 | 02:11:31 | 00:00:00 | |
| DB0ND-19 | 2026-08-31 00:45:41 | 47.17742 | 8.05080 | 91° | 9km/h | 32741m | 4.4m/s | -39.7°C | 0.3% | -1.0hPa | 2.5V | 00:00:00 | 00:00:00 | 00:00:00 | |
| IW2NTF | 2026-08-31 00:45:36 | 47.17755 | 8.05029 | 119° | 29km/h | 32707m | 5.9m/s | -39.7°C | 1.9% | 0hPa | 2.5V | 08:30:00 | 02:11:21 | 00:00:00 | |
| DH7VM-15 | 2026-08-31 00:45:36 | 47.17744 | 8.05060 | 111° | 29km/h | 32724m | 6.1m/s | -39.6°C | 0.3% | 0hPa | 2.6V | 00:00:00 | 00:00:00 | 00:00:00 | |
| DO3MHA-12 | 2026-08-31 00:45:35 | 47.17747 | 8.05049 | 115° | 26km/h | 32718m | 5.1m/s | -39.6°C | 1.9% | 0hPa | 2.6V | 00:00:00 | 02:11:23 | 00:00:00 | |
| DM0DOS-11 | 2026-08-31 00:45:33 | 47.17762 | 8.05009 | 107° | 15km/h | 32690m | 5m/s | -40°C | 2% | 0hPa | 2.6V | 08:30:00 | 02:11:18 | 00:00:00 | |
| BIOWL1-15 | 2026-08-31 00:45:32 | 47.17763 | 8.04997 | 98° | 20km/h | 32680m | 4.8m/s | -40.1°C | 0% | 0hPa | 2.5V | 18:12:15 | 02:11:16 | 00:00:00 | |
| DF7PN | 2026-08-31 00:45:31 | 47.17760 | 8.05014 | 117° | 16km/h | 32696m | 5.9m/s | -39.9°C | 0.3% | -1.0hPa | 2.6V | 00:00:00 | 00:00:00 | 00:00:00 | |
| DO3MHA-11 | 2026-08-31 00:45:30 | 47.17762 | 8.05009 | 108° | 29km/h | 32690m | 4.9m/s | -40.0°C | 2.0% | 0hPa | 2.6V | 00:00:00 | 02:11:18 | 08:30:00 | |
| DB0UT-7 | 2026-08-31 00:45:28 | 47.17763 | 8.04997 | 99° | 33km/h | 32681m | 4.8m/s | -40.1°C | 2.0% | 0hPa | 2.5V | 00:00:00 | 02:11:16 | 00:00:00 | |
| IW2NTF | 2026-08-31 00:45:25 | 47.17775 | 8.04935 | 113° | 42km/h | 32652m | 4.8m/s | -40.4°C | 2.1% | 0hPa | 2.5V | 08:30:00 | 02:11:11 | 00:00:00 | |
| DM0DOS-11 | 2026-08-31 00:45:23 | 47.17788 | 8.04903 | 132° | 26km/h | 32634m | 5.9m/s | -40.6°C | 2.1% | 0hPa | 2.6V | 08:30:00 | 02:11:08 | 00:00:00 | |
| BIOWL1-15 | 2026-08-31 00:45:19 | 47.17812 | 8.04786 | 83° | 33km/h | 32579m | 4.6m/s | -40.9°C | 0% | 0hPa | 2.6V | 18:12:15 | 02:10:58 | 00:00:00 | |
| BIOWL9-15 | 2026-08-31 00:45:17 | 47.17807 | 8.04869 | 116° | 37km/h | 32612m | 5.4m/s | -40.9°C | 0.3% | -1.0hPa | 2.5V | 00:00:00 | 00:00:00 | 00:00:00 | |
| IW2NTF | 2026-08-31 00:45:16 | 47.17814 | 8.04827 | 92° | 40km/h | 32595m | 6.5m/s | -40.9°C | 2.2% | 0hPa | 2.5V | 08:30:00 | 02:11:01 | 00:00:00 | |
| OE5DXL-15 | 2026-08-31 00:45:14 | 47.17814 | 8.04827 | 93° | 29km/h | 32596m | 6.4m/s | 0°C | 0% | 0hPa | 2.6V | 00:00:00 | 00:00:00 | 00:00:00 | |
| DM0DOS-11 | 2026-08-31 00:45:13 | 47.17812 | 8.04786 | 82° | 33km/h | 32579m | 4.5m/s | -40.9°C | 2.2% | 0hPa | 2.6V | 08:30:00 | 02:10:58 | 00:00:00 | |
| BIOWL1-15 | 2026-08-31 00:45:11 | 47.17811 | 8.04774 | 87° | 31km/h | 32574m | 4.9m/s | -40.8°C | 0% | 0hPa | 2.5V | 18:12:15 | 02:10:57 | 00:00:00 | |
| DO3MHA-11 | 2026-08-31 00:45:10 | 47.17812 | 8.04786 | 83° | 29km/h | 32579m | 4.5m/s | -40.8°C | 2.2% | 0hPa | 2.5V | 00:00:00 | 02:10:58 | 00:00:00 | |
| IW2NTF | 2026-08-31 00:45:05 | 47.17820 | 8.04705 | 94° | 24km/h | 32540m | 7m/s | -40.6°C | 2.1% | 0hPa | 2.5V | 08:30:00 | 02:10:51 | 00:00:00 | |
| DM0DOS-11 | 2026-08-31 00:45:03 | 47.17817 | 8.04682 | 75° | 24km/h | 32522m | 5.2m/s | -40.6°C | 2.1% | 0hPa | 2.6V | 08:30:00 | 02:10:48 | 00:00:00 | |
| BIOWL1-15 | 2026-08-31 00:44:59 | 47.17815 | 8.04651 | 94° | 35km/h | 32504m | 5.2m/s | -40.6°C | 0% | 0hPa | 2.5V | 18:12:15 | 02:10:45 | 00:00:00 | |
| IW2NTF | 2026-08-31 00:44:59 | 47.17816 | 8.04600 | 81° | 31km/h | 32482m | 6m/s | -40.6°C | 2.1% | 0hPa | 2.5V | 08:30:00 | 02:10:41 | 00:00:00 | |
| DB0UT-7 | 2026-08-31 00:44:58 | 47.17815 | 8.04662 | 90° | 26km/h | 32511m | 6.1m/s | -40.6°C | 2.1% | 0hPa | 2.6V | 00:00:00 | 00:00:00 | 00:00:00 | |
| DM0DOS-11 | 2026-08-31 00:44:54 | 47.17813 | 8.04565 | 86° | 33km/h | 32466m | 6.3m/s | -40.6°C | 2.1% | 0hPa | 2.6V | 08:30:00 | 02:10:38 | 00:00:00 | |
| BIOWL1-15 | 2026-08-31 00:44:49 | 47.17815 | 8.04529 | 100° | 31km/h | 32448m | 4.9m/s | -40.6°C | 0% | 0hPa | 2.5V | 18:12:15 | 02:10:35 | 00:00:00 | |
| IW2NTF | 2026-08-31 00:44:45 | 47.17815 | 8.04497 | 72° | 15km/h | 32425m | 5.1m/s | -40.5°C | 2.1% | 0hPa | 2.5V | 08:30:00 | 02:10:31 | 00:00:00 | |
| DM0DOS-11 | 2026-08-31 00:44:43 | 47.17814 | 8.04478 | 98° | 22km/h | 32408m | 6.9m/s | -40.5°C | 2.1% | 0hPa | 2.5V | 08:30:00 | 02:10:28 | 00:00:00 | |
| BIOWL1-15 | 2026-08-31 00:44:36 | 47.17820 | 8.04438 | 95° | 26km/h | 32385m | 6.3m/s | -40.4°C | 0% | 0hPa | 2.5V | 18:12:15 | 02:10:24 | 00:00:00 | |
| IW2NTF | 2026-08-31 00:44:35 | 47.17818 | 8.04417 | 69° | 13km/h | 32367m | 4.8m/s | -40.3°C | 2.1% | 0hPa | 2.6V | 08:30:00 | 02:10:21 | 00:00:00 | |
| DM0DOS-11 | 2026-08-31 00:44:33 | 47.17817 | 8.04402 | 100° | 18km/h | 32350m | 6.4m/s | -40.3°C | 2.1% | 0hPa | 2.5V | 08:30:00 | 02:10:18 | 00:00:00 | |
| BIOWL1-15 | 2026-08-31 00:44:26 | 47.17807 | 8.04341 | 80° | 18km/h | 32299m | 6.6m/s | -40.4°C | 0% | 0hPa | 2.5V | 18:12:15 | 02:10:09 | 00:00:00 | |
| IW2NTF | 2026-08-31 00:44:24 | 47.17811 | 8.04353 | 47° | 18km/h | 32310m | 5m/s | -40.3°C | 2% | 0hPa | 2.6V | 08:30:00 | 02:10:11 | 00:00:00 | |
| DM0DOS-11 | 2026-08-31 00:44:22 | 47.17807 | 8.04334 | 100° | 20km/h | 32292m | 7.1m/s | -40.4°C | 2.1% | 0hPa | 2.5V | 08:30:00 | 02:10:08 | 00:00:00 | |
| DO3MHA-12 | 2026-08-31 00:44:22 | 47.17808 | 8.04347 | 61° | 18km/h | 32305m | 5.0m/s | -40.3°C | 2.1% | 0hPa | 2.6V | 00:00:00 | 02:10:10 | 00:00:00 | |
| DK5PH-5 | 2026-08-31 00:44:21 | 47.17806 | 8.04341 | 80° | 24km/h | 32300m | 6.6m/s | -40.3°C | 2.1% | 0hPa | 2.6V | 00:00:00 | 02:10:09 | 00:00:00 | |
| DO3MHA-11 | 2026-08-31 00:44:20 | 47.17807 | 8.04334 | 101° | 20km/h | 32293m | 7.0m/s | -40.4°C | 2.1% | 0hPa | 2.6V | 00:00:00 | 02:10:08 | 00:00:00 | |
| IW2NTF | 2026-08-31 00:44:19 | 47.17809 | 8.04293 | 49° | 22km/h | 32251m | 5.7m/s | -40.5°C | 2.1% | 0hPa | 2.6V | 08:30:00 | 02:10:01 | 00:00:00 | |
| BIOWL1-15 | 2026-08-31 00:44:13 | 47.17800 | 8.04277 | 59° | 33km/h | 32237m | 7m/s | -40.5°C | 0% | 0hPa | 2.5V | 18:12:15 | 02:09:59 | 00:00:00 | |
| DO3MHA-12 | 2026-08-31 00:44:11 | 47.17800 | 8.04277 | 59° | 15km/h | 32238m | 6.9m/s | -40.5°C | 2.1% | 0hPa | 2.5V | 00:00:00 | 02:09:59 | 00:00:00 | |
| DO3MHA-11 | 2026-08-31 00:44:10 | 47.17796 | 8.04266 | 63° | 18km/h | 32231m | 5.8m/s | -40.4°C | 2.1% | 0hPa | 2.5V | 00:00:00 | 02:09:58 | 00:00:00 | |
| DM0DOS-11 | 2026-08-31 00:44:09 | 47.17780 | 8.04227 | 3° | 4km/h | 32197m | 5m/s | -40.8°C | 2.1% | 0hPa | 2.5V | 08:30:00 | 02:09:52 | 00:00:00 | |
| DB0ND-19 | 2026-08-31 00:44:08 | 47.17781 | 8.04227 | 29° | 7km/h | 32203m | 6.3m/s | -40.7°C | 0.4% | -1.0hPa | 2.6V | 00:00:00 | 00:00:00 | 00:00:00 | |
| IW2NTF | 2026-08-31 00:44:03 | 47.17780 | 8.04224 | 110° | 7km/h | 32187m | 5.5m/s | -40.8°C | 2.1% | 0hPa | 2.6V | 08:30:00 | 02:09:50 | 00:00:00 | |
| BIOWL1-15 | 2026-08-31 00:44:01 | 47.17754 | 8.04144 | 22° | 31km/h | 32139m | 6.2m/s | -41.1°C | 0% | 0hPa | 2.5V | 18:12:15 | 02:09:42 | 00:00:00 | |
| DO3MHA-11 | 2026-08-31 00:44:00 | 47.17781 | 8.04212 | 91° | 29km/h | 32175m | 6.8m/s | -40.9°C | 2.1% | 0hPa | 2.5V | 00:00:00 | 02:09:48 | 08:30:00 | |
| DM0DOS-11 | 2026-08-31 00:43:59 | 47.17754 | 8.04144 | 21° | 31km/h | 32139m | 6.2m/s | -41.1°C | 2.1% | 0hPa | 2.5V | 08:30:00 | 02:09:42 | 00:00:00 | |
| DB0UT-7 | 2026-08-31 00:43:58 | 47.17778 | 8.04186 | 72° | 27km/h | 32163m | 4.9m/s | -41.0°C | 2.1% | 0hPa | 2.6V | 00:00:00 | 00:00:00 | 00:00:00 | |
| IW2NTF | 2026-08-31 00:43:57 | 47.17743 | 8.04140 | 8° | 13km/h | 32129m | 4.3m/s | -41.2°C | 2.2% | 0hPa | 2.6V | 08:30:00 | 02:09:40 | 00:00:00 | |
| DL1ZP-14 | 2026-08-31 00:43:57 | 47.17768 | 8.04160 | 50° | 38km/h | 32152m | 6.3m/s | -41.1°C | 0.4% | -1.0hPa | 2.5V | 00:00:00 | 00:00:00 | 00:00:00 | |
| DK5PH-5 | 2026-08-31 00:43:51 | 47.17741 | 8.04139 | 61° | 27km/h | 32125m | 5.2m/s | -41.2°C | 2.2% | 0hPa | 2.6V | 00:00:00 | 02:09:39 | 08:30:00 | |
| DO3MHA-11 | 2026-08-31 00:43:50 | 47.17741 | 8.04136 | 122° | 31km/h | 32119m | 6.8m/s | -41.2°C | 2.2% | 0hPa | 2.5V | 00:00:00 | 02:09:38 | 00:00:00 | |
| DM0DOS-11 | 2026-08-31 00:43:48 | 47.17751 | 8.04068 | 63° | 33km/h | 32083m | 5.8m/s | -41.2°C | 2.1% | 0hPa | 2.5V | 08:30:00 | 02:09:32 | 00:00:00 | |
| DF3TZ-5 | 2026-08-31 00:43:48 | 47.17748 | 8.04121 | 116° | 33km/h | 32105m | 6.4m/s | -41.2°C | 0.4% | -1.0hPa | 2.5V | 00:00:00 | 00:00:00 | 00:00:00 | |
| BIOWL1-15 | 2026-08-31 00:43:45 | 47.17746 | 8.04059 | 43° | 29km/h | 32077m | 6.4m/s | -41.2°C | 0% | 0hPa | 2.5V | 18:12:15 | 02:09:31 | 00:00:00 | |
| BIOWL9-15 | 2026-08-31 00:43:43 | 47.17746 | 8.04059 | 42° | 27km/h | 32077m | 6.4m/s | -41.2°C | 0.4% | -1.0hPa | 2.5V | 00:00:00 | 00:00:00 | 00:00:00 | |
| IW2NTF | 2026-08-31 00:43:43 | 47.17740 | 8.04053 | 23° | 27km/h | 32070m | 6.4m/s | -41.2°C | 2.2% | 0hPa | 2.6V | 08:30:00 | 02:09:30 | 00:00:00 | |
| DO3MHA-11 | 2026-08-31 00:43:40 | 47.17728 | 8.04049 | 10° | 26km/h | 32059m | 5.6m/s | -41.3°C | 2.2% | 0hPa | 2.5V | 00:00:00 | 02:09:28 | 00:00:00 | |
| DM0DOS-11 | 2026-08-31 00:43:38 | 47.17710 | 8.04005 | 77° | 31km/h | 32022m | 6.2m/s | -41.4°C | 2.2% | 0hPa | 2.5V | 08:30:00 | 02:09:22 | 00:00:00 | |
| BIOWL1-15 | 2026-08-31 00:43:35 | 47.17709 | 8.03994 | 73° | 29km/h | 32016m | 6.2m/s | -41.4°C | 0% | 0hPa | 2.5V | 18:12:15 | 02:09:21 | 00:00:00 | |
| IW2NTF | 2026-08-31 00:43:33 | 47.17706 | 8.03985 | 64° | 27km/h | 32009m | 6.3m/s | -41.4°C | 2.2% | 0hPa | 2.5V | 08:30:00 | 02:09:20 | 00:00:00 | |
| BIOWL1-15 | 2026-08-31 00:43:24 | 47.17676 | 8.03921 | 51° | 35km/h | 31962m | 5.7m/s | -41.5°C | 0% | 0hPa | 2.5V | 18:12:15 | 02:09:12 | 00:00:00 | |
| IW2NTF | 2026-08-31 00:43:23 | 47.17662 | 8.03902 | 37° | 38km/h | 31948m | 6.9m/s | -41.5°C | 2.2% | 0hPa | 2.5V | 08:30:00 | 02:09:10 | 00:00:00 | |
| BIOWL1-15 | 2026-08-31 00:43:14 | 47.17588 | 8.03798 | 39° | 38km/h | 31867m | 6.2m/s | -41.6°C | 0% | 0hPa | 2.6V | 18:12:15 | 02:08:57 | 00:00:00 | |
| IW2NTF | 2026-08-31 00:43:13 | 47.17610 | 8.03817 | 23° | 29km/h | 31886m | 5.5m/s | -41.6°C | 2.2% | 0hPa | 2.5V | 08:30:00 | 02:09:00 | 00:00:00 | |
| BIOWL9-15 | 2026-08-31 00:43:12 | 47.17610 | 8.03817 | 23° | 27km/h | 31886m | 5.5m/s | -41.6°C | 0.4% | -1.0hPa | 2.5V | 00:00:00 | 00:00:00 | 00:00:00 | |
| DM0DOS-11 | 2026-08-31 00:43:12 | 47.17596 | 8.03806 | 31° | 35km/h | 31874m | 7.1m/s | -41.6°C | 2.3% | 0hPa | 2.6V | 08:30:00 | 02:08:58 | 00:00:00 | |
| DO3MHA-11 | 2026-08-31 00:43:10 | 47.17595 | 8.03806 | 32° | 37km/h | 31874m | 7.1m/s | -41.5°C | 2.3% | 0hPa | 2.5V | 00:00:00 | 02:08:58 | 00:00:00 | |
| HASLITAL | 2026-08-31 00:43:08 | 47.17588 | 8.03798 | 40° | 38km/h | 31867m | 6.2m/s | -41.6°C | 0.4% | 0hPa | 2.5V | 00:00:00 | 00:00:00 | 00:00:00 | |
| DO3MHA-12 | 2026-08-31 00:43:07 | 47.17572 | 8.03778 | 44° | 33km/h | 31856m | 5.4m/s | -41.5°C | 2.2% | 0hPa | 2.5V | 00:00:00 | 02:08:55 | 08:30:00 | |
| IW2NTF | 2026-08-31 00:43:03 | 47.17535 | 8.03732 | 43° | 27km/h | 31825m | 6.1m/s | -41.6°C | 2.2% | 0hPa | 2.5V | 08:30:00 | 02:08:50 | 00:00:00 | |
| DM0DOS-11 | 2026-08-31 00:43:02 | 47.17528 | 8.03717 | 68° | 24km/h | 31811m | 7m/s | -41.6°C | 2.2% | 0hPa | 2.6V | 08:30:00 | 02:08:48 | 00:00:00 | |
| BIOWL1-15 | 2026-08-31 00:43:01 | 47.17531 | 8.03725 | 55° | 24km/h | 31818m | 7m/s | -41.6°C | 0% | 0hPa | 2.5V | 18:12:15 | 02:08:49 | 00:00:00 | |
| DF7PN | 2026-08-31 00:42:56 | 47.17513 | 8.03682 | 37° | 37km/h | 31791m | 7.1m/s | -41.6°C | 0.4% | -1.0hPa | 2.5V | 00:00:00 | 00:00:00 | 00:00:00 | |
| LOEBOVI | 2026-08-31 00:42:54 | 47.17505 | 8.03674 | 29° | 44km/h | 31783m | 8.0m/s | -41.6°C | 0.4% | 0hPa | 2.5V | 00:00:00 | 00:00:00 | 00:00:00 | |
| IW2NTF | 2026-08-31 00:42:53 | 47.17470 | 8.03650 | 27° | 53km/h | 31763m | 5.8m/s | -41.7°C | 2.2% | 0hPa | 2.5V | 08:30:00 | 02:08:40 | 00:00:00 | |
| DM0DOS-11 | 2026-08-31 00:42:52 | 47.17451 | 8.03631 | 44° | 37km/h | 31751m | 5.6m/s | -41.6°C | 2.2% | 0hPa | 2.5V | 08:30:00 | 02:08:38 | 00:00:00 | |
| BIOWL1-15 | 2026-08-31 00:42:50 | 47.17445 | 8.03622 | 55° | 29km/h | 31746m | 5.6m/s | -41.6°C | 0% | 0hPa | 2.6V | 18:12:15 | 02:08:37 | 00:00:00 | |
| DF3TZ-5 | 2026-08-31 00:42:46 | 47.17439 | 8.03605 | 47° | 9km/h | 31728m | 6.9m/s | -41.6°C | 0.4% | -1.0hPa | 2.5V | 00:00:00 | 00:00:00 | 00:00:00 | |
| DO3MHA-12 | 2026-08-31 00:42:45 | 47.17437 | 8.03603 | 15° | 33km/h | 31721m | 6.0m/s | -41.6°C | 2.2% | 0hPa | 2.5V | 00:00:00 | 02:08:33 | 00:00:00 | |
| IW2NTF | 2026-08-31 00:42:43 | 47.17413 | 8.03590 | 33° | 40km/h | 31698m | 6.4m/s | -41.5°C | 2.2% | 0hPa | 2.5V | 08:30:00 | 02:08:29 | 00:00:00 | |
| DM0DOS-11 | 2026-08-31 00:42:43 | 47.17404 | 8.03580 | 41° | 46km/h | 31691m | 6.8m/s | -41.4°C | 2.2% | 0hPa | 2.5V | 08:30:00 | 02:08:28 | 00:00:00 | |
| BIOWL1-15 | 2026-08-31 00:42:42 | 47.17404 | 8.03580 | 41° | 46km/h | 31691m | 6.8m/s | -41.4°C | 0% | 0hPa | 2.5V | 18:12:15 | 02:08:28 | 00:00:00 | |
| BIOWL9-15 | 2026-08-31 00:42:41 | 47.17413 | 8.03590 | 33° | 38km/h | 31698m | 6.4m/s | -41.5°C | 0.4% | -1.0hPa | 2.5V | 00:00:00 | 00:00:00 | 00:00:00 | |
| DO3MHA-11 | 2026-08-31 00:42:40 | 47.17404 | 8.03580 | 42° | 38km/h | 31692m | 6.8m/s | -41.4°C | 2.2% | 0hPa | 2.5V | 00:00:00 | 02:08:28 | 00:00:00 | |
| DO3MHA-12 | 2026-08-31 00:42:35 | 47.17366 | 8.03529 | 21° | 35km/h | 31663m | 7.3m/s | -41.4°C | 2.2% | 0hPa | 2.5V | 00:00:00 | 02:08:23 | 00:00:00 | |
| DB0ND-19 | 2026-08-31 00:42:34 | 47.17358 | 8.03526 | 2° | 29km/h | 31656m | 6.8m/s | -41.5°C | 0.4% | -1.0hPa | 2.5V | 00:00:00 | 00:00:00 | 00:00:00 | |
| IW2NTF | 2026-08-31 00:42:32 | 47.17333 | 8.03528 | 4° | 35km/h | 31640m | 5.1m/s | -41.5°C | 2.2% | 0hPa | 2.5V | 08:30:00 | 02:08:19 | 00:00:00 | |
| DM0DOS-11 | 2026-08-31 00:42:32 | 47.17324 | 8.03526 | 17° | 35km/h | 31634m | 6.5m/s | -41.5°C | 2.2% | 0hPa | 2.5V | 08:30:00 | 02:08:18 | 00:00:00 | |
| BIOWL1-15 | 2026-08-31 00:42:29 | 47.17316 | 8.03520 | 33° | 38km/h | 31627m | 6.9m/s | -41.5°C | 0% | 0hPa | 2.5V | 18:12:15 | 02:08:17 | 00:00:00 | |
| DB0UT-7 | 2026-08-31 00:42:28 | 47.17308 | 8.03510 | 44° | 42km/h | 31621m | 6.2m/s | -41.5°C | 2.2% | 0hPa | 2.5V | 00:00:00 | 02:08:16 | 00:00:00 | |
| IW2NTF | 2026-08-31 00:42:27 | 47.17244 | 8.03464 | 358° | 40km/h | 31579m | 6.7m/s | -41.7°C | 2.3% | 0hPa | 2.5V | 08:30:00 | 02:08:09 | 00:00:00 | |
| DO3MHA-12 | 2026-08-31 00:42:25 | 47.17283 | 8.03477 | 36° | 42km/h | 31605m | 6.1m/s | -41.8°C | 2.3% | 0hPa | 2.6V | 00:00:00 | 02:08:13 | 00:00:00 | |
| DL1ZP-14 | 2026-08-31 00:42:23 | 47.17264 | 8.03465 | 10° | 38km/h | 31592m | 6.5m/s | -41.8°C | 0.4% | -1.0hPa | 2.6V | 00:00:00 | 00:00:00 | 00:00:00 | |
| DM0DOS-11 | 2026-08-31 00:42:22 | 47.17233 | 8.03464 | 358° | 42km/h | 31572m | 6.5m/s | -41.7°C | 2.2% | 0hPa | 2.5V | 08:30:00 | 02:08:08 | 00:00:00 | |
| BIOWL1-15 | 2026-08-31 00:42:21 | 47.17223 | 8.03464 | 1° | 42km/h | 31566m | 5.8m/s | -41.7°C | 0% | 0hPa | 2.5V | 18:12:15 | 02:08:07 | 00:00:00 | |
| DK5PH-5 | 2026-08-31 00:42:21 | 47.17243 | 8.03464 | 359° | 40km/h | 31579m | 6.6m/s | -41.7°C | 2.3% | 0hPa | 2.5V | 00:00:00 | 02:08:09 | 00:00:00 | |
| DO3MHA-11 | 2026-08-31 00:42:20 | 47.17233 | 8.03464 | 359° | 46km/h | 31573m | 6.5m/s | -41.7°C | 2.2% | 0hPa | 2.6V | 00:00:00 | 02:08:08 | 00:00:00 | |
| DO3MHA-12 | 2026-08-31 00:42:15 | 47.17178 | 8.03459 | 10° | 42km/h | 31543m | 5.3m/s | -41.7°C | 2.2% | 0hPa | 2.6V | 00:00:00 | 02:08:03 | 00:00:00 | |
| IW2NTF | 2026-08-31 00:42:13 | 47.17134 | 8.03431 | 37° | 46km/h | 31519m | 6.1m/s | -41.7°C | 2.2% | 0hPa | 2.6V | 08:30:00 | 02:07:59 | 00:00:00 | |
| BIOWL1-15 | 2026-08-31 00:42:09 | 47.17117 | 8.03413 | 30° | 35km/h | 31509m | 5m/s | -41.7°C | 0% | 0hPa | 2.5V | 18:12:15 | 02:07:57 | 00:00:00 | |
| DM0DOS-11 | 2026-08-31 00:42:08 | 47.17068 | 8.03415 | 1° | 38km/h | 31475m | 6.2m/s | -41.6°C | 2.2% | 0hPa | 2.5V | 08:30:00 | 02:07:51 | 00:00:00 | |
| BIOWL1-15 | 2026-08-31 00:41:59 | 47.17025 | 8.03392 | 28° | 49km/h | 31450m | 5.7m/s | -41.7°C | 0% | 0hPa | 2.5V | 18:12:15 | 02:07:47 | 00:00:00 | |
| DB0UT-7 | 2026-08-31 00:41:58 | 47.17014 | 8.03384 | 26° | 31km/h | 31444m | 5.9m/s | -41.7°C | 2.2% | 0hPa | 2.5V | 00:00:00 | 00:00:00 | 00:00:00 | |
| DM0DOS-11 | 2026-08-31 00:41:56 | 47.16972 | 8.03365 | 16° | 22km/h | 31415m | 7m/s | -41.8°C | 2.2% | 0hPa | 2.5V | 08:30:00 | 02:07:41 | 00:00:00 | |
| BIOWL1-15 | 2026-08-31 00:41:49 | 47.16927 | 8.03362 | 6° | 38km/h | 31375m | 4.5m/s | -41.9°C | 0% | 0hPa | 2.6V | 18:12:15 | 02:07:34 | 00:00:00 | |
| DM0DOS-11 | 2026-08-31 00:41:46 | 47.16901 | 8.03345 | 42° | 38km/h | 31357m | 6.5m/s | -41.9°C | 2.2% | 0hPa | 2.5V | 08:30:00 | 02:07:31 | 00:00:00 | |
| DO3MHA-12 | 2026-08-31 00:41:45 | 47.16918 | 8.03359 | 18° | 27km/h | 31371m | 5.3m/s | -41.9°C | 2.2% | 0hPa | 2.6V | 00:00:00 | 02:07:33 | 00:00:00 | |
| DF3TZ-5 | 2026-08-31 00:41:44 | 47.16909 | 8.03353 | 29° | 38km/h | 31364m | 7.1m/s | -41.9°C | 0.4% | -1.0hPa | 2.6V | 00:00:00 | 00:00:00 | 00:00:00 | |
| IW2NTF | 2026-08-31 00:41:42 | 47.16890 | 8.03325 | 55° | 29km/h | 31347m | 4.7m/s | -42°C | 2.2% | 0hPa | 2.6V | 08:30:00 | 02:07:29 | 00:00:00 | |
| BIOWL1-15 | 2026-08-31 00:41:37 | 47.16870 | 8.03321 | 329° | 26km/h | 31319m | 4m/s | -42.3°C | 0% | 0hPa | 2.5V | 18:12:15 | 02:07:24 | 00:00:00 | |
| IW2NTF | 2026-08-31 00:41:37 | 47.16829 | 8.03314 | 29° | 47km/h | 31290m | 5.8m/s | -42.9°C | 2.3% | 0hPa | 2.5V | 08:30:00 | 02:07:19 | 00:00:00 | |
| DM0DOS-11 | 2026-08-31 00:41:34 | 47.16848 | 8.03327 | 12° | 35km/h | 31302m | 6.4m/s | -42.6°C | 2.3% | 0hPa | 2.5V | 08:30:00 | 02:07:21 | 00:00:00 | |
| LOEBOVI | 2026-08-31 00:41:30 | 47.16819 | 8.03306 | 31° | 49km/h | 31285m | 5.1m/s | -42.9°C | 0.5% | 0hPa | 2.5V | 00:00:00 | 00:00:00 | 00:00:00 | |
| DM0DOS-11 | 2026-08-31 00:41:28 | 47.16769 | 8.03277 | 17° | 13km/h | 31243m | 5.6m/s | -43°C | 2.4% | 0hPa | 2.5V | 08:30:00 | 02:07:11 | 00:00:00 | |
| DB0UT-7 | 2026-08-31 00:41:28 | 47.16798 | 8.03290 | 23° | 27km/h | 31273m | 5.5m/s | -42.9°C | 2.4% | 0hPa | 2.5V | 00:00:00 | 02:07:16 | 08:30:00 | |
| IW2NTF | 2026-08-31 00:41:27 | 47.16761 | 8.03275 | 3° | 22km/h | 31234m | 5m/s | -43°C | 2.4% | 0hPa | 2.5V | 08:30:00 | 02:07:09 | 00:00:00 | |
| BIOWL1-15 | 2026-08-31 00:41:26 | 47.16761 | 8.03275 | 4° | 22km/h | 31234m | 5m/s | -43°C | 0% | 0hPa | 2.5V | 18:12:15 | 02:07:09 | 00:00:00 | |
| DO3MHA-12 | 2026-08-31 00:41:25 | 47.16776 | 8.03280 | 13° | 29km/h | 31257m | 6.7m/s | -42.9°C | 2.4% | 0hPa | 2.5V | 00:00:00 | 02:07:13 | 00:00:00 | |
| DF7PN | 2026-08-31 00:41:23 | 47.16765 | 8.03276 | 10° | 15km/h | 31239m | 4.3m/s | -43.0°C | 0.4% | -1.0hPa | 2.5V | 00:00:00 | 00:00:00 | 00:00:00 | |
| DK5PH-5 | 2026-08-31 00:41:21 | 47.16760 | 8.03275 | 4° | 27km/h | 31234m | 4.9m/s | -43.0°C | 2.4% | 0hPa | 2.5V | 00:00:00 | 02:07:09 | 00:00:00 | |
| DO3MHA-11 | 2026-08-31 00:41:20 | 47.16754 | 8.03275 | 1° | 37km/h | 31228m | 6.9m/s | -43.0°C | 2.4% | 0hPa | 2.5V | 00:00:00 | 02:07:08 | 00:00:00 | |
| DH7VM-15 | 2026-08-31 00:41:16 | 47.16723 | 8.03272 | 13° | 46km/h | 31211m | 4.3m/s | -43.0°C | 0.5% | 0hPa | 2.5V | 00:00:00 | 00:00:00 | 00:00:00 | |
| DO3MHA-12 | 2026-08-31 00:41:15 | 47.16703 | 8.03260 | 34° | 29km/h | 31199m | 6.7m/s | -43.0°C | 2.4% | 0hPa | 2.5V | 00:00:00 | 02:07:03 | 00:00:00 | |
| DM0DOS-11 | 2026-08-31 00:41:14 | 47.16683 | 8.03215 | 44° | 18km/h | 31171m | 5.6m/s | -43.1°C | 2.3% | 0hPa | 2.5V | 08:30:00 | 02:06:58 | 00:00:00 | |
| BIOWL1-15 | 2026-08-31 00:41:13 | 47.16679 | 8.03212 | 17° | 20km/h | 31165m | 6m/s | -43.1°C | 0% | 0hPa | 2.6V | 18:12:15 | 02:06:57 | 00:00:00 | |
| IW2NTF | 2026-08-31 00:41:13 | 47.16686 | 8.03221 | 65° | 22km/h | 31176m | 4.8m/s | -43.1°C | 2.4% | 0hPa | 2.5V | 08:30:00 | 02:06:59 | 00:00:00 | |
| DO3MHA-11 | 2026-08-31 00:41:10 | 47.16683 | 8.03215 | 45° | 24km/h | 31172m | 5.6m/s | -43.1°C | 2.3% | 0hPa | 2.5V | 00:00:00 | 02:06:58 | 00:00:00 | |
| BIOWL9-15 | 2026-08-31 00:41:08 | 47.16658 | 8.03211 | 1° | 33km/h | 31148m | 5.3m/s | -43.1°C | 0.4% | -1.0hPa | 2.5V | 00:00:00 | 00:00:00 | 00:00:00 | |
| IW2NTF | 2026-08-31 00:41:06 | 47.16632 | 8.03193 | 61° | 15km/h | 31119m | 6.3m/s | -43.1°C | 2.4% | 0hPa | 2.5V | 08:30:00 | 02:06:49 | 00:00:00 | |
| DO3MHA-12 | 2026-08-31 00:41:05 | 47.16650 | 8.03209 | 10° | 20km/h | 31143m | 5.2m/s | -43.0°C | 2.4% | 0hPa | 2.5V | 00:00:00 | 02:06:53 | 00:00:00 | |
| DM0DOS-11 | 2026-08-31 00:41:03 | 47.16626 | 8.03181 | 39° | 16km/h | 31102m | 5.3m/s | -43.1°C | 2.4% | 0hPa | 2.6V | 08:30:00 | 02:06:46 | 00:00:00 | |
| BIOWL1-15 | 2026-08-31 00:41:02 | 47.16630 | 8.03189 | 63° | 13km/h | 31113m | 6.1m/s | -43.1°C | 0% | 0hPa | 2.5V | 18:12:15 | 02:06:48 | 00:00:00 | |
| DB0ND-19 | 2026-08-31 00:41:01 | 47.16632 | 8.03193 | 61° | 15km/h | 31120m | 6.3m/s | -43.1°C | 0.4% | -1.0hPa | 2.5V | 00:00:00 | 00:00:00 | 00:00:00 | |
| DO3MHA-11 | 2026-08-31 00:41:00 | 47.16630 | 8.03189 | 64° | 22km/h | 31114m | 6.1m/s | -43.0°C | 2.4% | 0hPa | 2.5V | 00:00:00 | 02:06:48 | 08:30:00 | |
| DB0UT-7 | 2026-08-31 00:40:58 | 47.16626 | 8.03181 | 40° | 26km/h | 31102m | 5.2m/s | -43.0°C | 2.4% | 0hPa | 2.5V | 00:00:00 | 00:00:00 | 00:00:00 | |
| DO3MHA-12 | 2026-08-31 00:40:55 | 47.16613 | 8.03167 | 36° | 24km/h | 31086m | 6.0m/s | -43.1°C | 2.4% | 0hPa | 2.5V | 00:00:00 | 02:06:43 | 00:00:00 | |
| IW2NTF | 2026-08-31 00:40:52 | 47.16590 | 8.03148 | 9° | 24km/h | 31064m | 6.1m/s | -43.3°C | 2.4% | 0hPa | 2.5V | 08:30:00 | 02:06:39 | 00:00:00 | |
| BIOWL1-15 | 2026-08-31 00:40:52 | 47.16584 | 8.03148 | 352° | 22km/h | 31057m | 7.6m/s | -43.3°C | 0% | 0hPa | 2.5V | 18:12:15 | 02:06:38 | 00:00:00 | |
| DF7PN | 2026-08-31 00:40:52 | 47.16590 | 8.03148 | 9° | 22km/h | 31064m | 6.1m/s | -43.3°C | 0.5% | -1.0hPa | 2.5V | 00:00:00 | 00:00:00 | 00:00:00 | |
| DL1ZP-14 | 2026-08-31 00:40:51 | 47.16584 | 8.03148 | 352° | 22km/h | 31057m | 7.6m/s | -43.3°C | 0.4% | -1.0hPa | 2.5V | 00:00:00 | 00:00:00 | 00:00:00 | |
| DO3MHA-11 | 2026-08-31 00:40:50 | 47.16584 | 8.03147 | 353° | 24km/h | 31058m | 7.5m/s | -43.2°C | 2.4% | 0hPa | 2.6V | 00:00:00 | 02:06:38 | 00:00:00 | |
| DO3MHA-12 | 2026-08-31 00:40:45 | 47.16558 | 8.03153 | 28° | 27km/h | 31028m | 6.2m/s | -43.4°C | 2.4% | 0hPa | 2.6V | 00:00:00 | 02:06:33 | 00:00:00 | |
| IW2NTF | 2026-08-31 00:40:43 | 47.16536 | 8.03132 | 23° | 27km/h | 31003m | 5.8m/s | -43.5°C | 2.4% | 0hPa | 2.6V | 08:30:00 | 02:06:29 | 00:00:00 | |
| BIOWL1-15 | 2026-08-31 00:40:41 | 47.16536 | 8.03132 | 24° | 27km/h | 31004m | 5.8m/s | -43.6°C | 0% | 0hPa | 2.6V | 18:12:15 | 02:06:29 | 00:00:00 | |
| DO3MHA-11 | 2026-08-31 00:40:40 | 47.16530 | 8.03129 | 15° | 29km/h | 30998m | 4.8m/s | -43.5°C | 2.4% | 0hPa | 2.5V | 00:00:00 | 02:06:28 | 00:00:00 | |
| DM0DOS-11 | 2026-08-31 00:40:38 | 47.16494 | 8.03122 | 0° | 29km/h | 30970m | 5m/s | -43.5°C | 2.5% | 0hPa | 2.5V | 08:30:00 | 02:06:23 | 00:00:00 | |
| BIOWL9-15 | 2026-08-31 00:40:37 | 47.16509 | 8.03124 | 8° | 29km/h | 30982m | 6.4m/s | -43.5°C | 0.4% | -1.0hPa | 2.5V | 00:00:00 | 00:00:00 | 00:00:00 | |
| DO3MHA-12 | 2026-08-31 00:40:35 | 47.16494 | 8.03122 | 1° | 29km/h | 30971m | 5.0m/s | -43.5°C | 2.5% | 0hPa | 2.5V | 00:00:00 | 02:06:23 | 00:00:00 | |
| IW2NTF | 2026-08-31 00:40:32 | 47.16464 | 8.03133 | 338° | 31km/h | 30947m | 4.7m/s | -43.6°C | 2.5% | 0hPa | 2.6V | 08:30:00 | 02:06:19 | 00:00:00 | |
| BIOWL1-15 | 2026-08-31 00:40:30 | 47.16457 | 8.03137 | 346° | 29km/h | 30943m | 4.3m/s | -43.7°C | 0% | 0hPa | 2.6V | 18:12:15 | 02:06:18 | 00:00:00 | |
| DO3MHA-11 | 2026-08-31 00:40:30 | 47.16457 | 8.03137 | 346° | 26km/h | 30943m | 4.2m/s | -43.6°C | 2.5% | 0hPa | 2.6V | 00:00:00 | 02:06:18 | 00:00:00 | |
| DB0UT-7 | 2026-08-31 00:40:28 | 47.16443 | 8.03137 | 17° | 31km/h | 30932m | 6.5m/s | -43.6°C | 2.5% | 0hPa | 2.5V | 00:00:00 | 02:06:16 | 00:00:00 | |
| DM0DOS-11 | 2026-08-31 00:40:24 | 47.16418 | 8.03113 | 359° | 16km/h | 30905m | 6.5m/s | -43.6°C | 2.5% | 0hPa | 2.5V | 08:30:00 | 02:06:11 | 00:00:00 | |
| IW2NTF | 2026-08-31 00:40:22 | 47.16409 | 8.03121 | 322° | 33km/h | 30892m | 6.4m/s | -43.6°C | 2.4% | 0hPa | 2.6V | 08:30:00 | 02:06:09 | 00:00:00 | |
| BIOWL1-15 | 2026-08-31 00:40:19 | 47.16326 | 8.03173 | 13° | 20km/h | 30838m | 7.1m/s | -43.5°C | 0% | 0hPa | 2.5V | 18:12:15 | 02:06:00 | 00:00:00 | |
| DO3MHA-12 | 2026-08-31 00:40:15 | 47.16347 | 8.03167 | 341° | 24km/h | 30857m | 6.1m/s | -43.5°C | 2.5% | 0hPa | 2.5V | 00:00:00 | 02:06:03 | 00:00:00 | |
| IW2NTF | 2026-08-31 00:40:13 | 47.16322 | 8.03170 | 28° | 18km/h | 30831m | 6.7m/s | -43.5°C | 2.4% | 0hPa | 2.5V | 08:30:00 | 02:05:59 | 00:00:00 | |
| DF3TZ-5 | 2026-08-31 00:40:11 | 47.16322 | 8.03170 | 28° | 16km/h | 30831m | 6.7m/s | -43.5°C | 0.5% | -1.0hPa | 2.6V | 00:00:00 | 00:00:00 | 00:00:00 | |
| DO3MHA-11 | 2026-08-31 00:40:10 | 47.16318 | 8.03167 | 31° | 33km/h | 30826m | 4.7m/s | -43.5°C | 2.5% | 0hPa | 2.6V | 00:00:00 | 02:05:58 | 00:00:00 | |
| BIOWL9-15 | 2026-08-31 00:40:06 | 47.16306 | 8.03181 | 301° | 33km/h | 30803m | 5.8m/s | -43.5°C | 0.5% | -1.0hPa | 2.6V | 00:00:00 | 00:00:00 | 00:00:00 | |
| DO3MHA-12 | 2026-08-31 00:40:05 | 47.16300 | 8.03192 | 308° | 31km/h | 30798m | 4.8m/s | -43.4°C | 2.4% | 0hPa | 2.6V | 00:00:00 | 02:05:53 | 08:30:00 | |
| HASLITAL | 2026-08-31 00:40:03 | 47.16292 | 8.03205 | 315° | 47km/h | 30793m | 5.9m/s | -43.4°C | 0.5% | 0hPa | 2.5V | 00:00:00 | 00:00:00 | 00:00:00 | |
| IW2NTF | 2026-08-31 00:40:02 | 47.16264 | 8.03230 | 346° | 40km/h | 30775m | 4.8m/s | -43.3°C | 2.5% | 0hPa | 2.5V | 08:30:00 | 02:05:49 | 00:00:00 | |
| BIOWL1-15 | 2026-08-31 00:40:01 | 47.16254 | 8.03233 | 356° | 33km/h | 30770m | 5.2m/s | -43.3°C | 0% | 0hPa | 2.5V | 18:12:15 | 02:05:48 | 00:00:00 | |
| DB0ND-19 | 2026-08-31 00:39:59 | 47.16240 | 8.03232 | 7° | 5km/h | 30751m | 6.2m/s | -43.3°C | 0.5% | -1.0hPa | 2.6V | 00:00:00 | 00:00:00 | 00:00:00 | |
| DB0UT-7 | 2026-08-31 00:39:58 | 47.16242 | 8.03232 | 6° | 20km/h | 30758m | 6.8m/s | -43.2°C | 2.4% | 0hPa | 2.6V | 00:00:00 | 00:00:00 | 00:00:00 | |
| DO3MHA-12 | 2026-08-31 00:39:55 | 47.16238 | 8.03233 | 304° | 24km/h | 30741m | 5.1m/s | -43.1°C | 2.4% | 0hPa | 2.5V | 00:00:00 | 02:05:43 | 00:00:00 | |
| DM0DOS-11 | 2026-08-31 00:39:52 | 47.16225 | 8.03248 | 322° | 31km/h | 30717m | 6m/s | -43.1°C | 2.4% | 0hPa | 2.5V | 08:30:00 | 02:05:39 | 00:00:00 | |
| BIOWL1-15 | 2026-08-31 00:39:50 | 47.16218 | 8.03255 | 320° | 37km/h | 30711m | 5.7m/s | -43.1°C | 0% | 0hPa | 2.5V | 18:12:15 | 02:05:38 | 00:00:00 | |
| DF7PN | 2026-08-31 00:39:50 | 47.16211 | 8.03265 | 316° | 37km/h | 30705m | 6.6m/s | -43.1°C | 0.4% | -1.0hPa | 2.6V | 00:00:00 | 00:00:00 | 00:00:00 | |
| DL1ZP-14 | 2026-08-31 00:39:48 | 47.16205 | 8.03274 | 312° | 35km/h | 30699m | 5.6m/s | -43.1°C | 0.5% | -1.0hPa | 2.6V | 00:00:00 | 00:00:00 | 00:00:00 | |
| BIOWL1-15 | 2026-08-31 00:39:40 | 47.16160 | 8.03285 | 315° | 22km/h | 30636m | 6.4m/s | -42.9°C | 0% | 0hPa | 2.6V | 18:12:15 | 02:05:25 | 00:00:00 | |
| DO3MHA-12 | 2026-08-31 00:39:35 | 47.16150 | 8.03297 | 324° | 18km/h | 30623m | 5.9m/s | -42.8°C | 2.4% | 0hPa | 2.5V | 00:00:00 | 02:05:23 | 00:00:00 | |
| IW2NTF | 2026-08-31 00:39:33 | 47.16129 | 8.03317 | 327° | 15km/h | 30602m | 6.5m/s | -42.7°C | 2.4% | 0hPa | 2.5V | 08:30:00 | 02:05:19 | 00:00:00 | |
| BIOWL1-15 | 2026-08-31 00:39:26 | 47.16119 | 8.03312 | 32° | 18km/h | 30572m | 6.4m/s | -42.6°C | 0% | 0hPa | 2.6V | 18:12:15 | 02:05:14 | 00:00:00 | |
| DO3MHA-12 | 2026-08-31 00:39:25 | 47.16114 | 8.03309 | 25° | 16km/h | 30566m | 5.0m/s | -42.5°C | 2.4% | 0hPa | 2.6V | 00:00:00 | 02:05:13 | 00:00:00 | |
| IW2NTF | 2026-08-31 00:39:24 | 47.16099 | 8.03309 | 301° | 13km/h | 30543m | 6m/s | -42.5°C | 2.3% | 0hPa | 2.6V | 08:30:00 | 02:05:09 | 00:00:00 | |
| BIOWL1-15 | 2026-08-31 00:39:15 | 47.16082 | 8.03335 | 357° | 18km/h | 30510m | 5m/s | -42.6°C | 0% | 0hPa | 2.6V | 18:12:15 | 02:05:03 | 00:00:00 | |
| DO3MHA-12 | 2026-08-31 00:39:15 | 47.16082 | 8.03335 | 358° | 11km/h | 30510m | 4.9m/s | -42.5°C | 2.3% | 0hPa | 2.6V | 00:00:00 | 02:05:03 | 00:00:00 | |
| IW2NTF | 2026-08-31 00:39:14 | 47.16071 | 8.03329 | 61° | 5km/h | 30486m | 5.3m/s | -42.6°C | 2.3% | 0hPa | 2.6V | 08:30:00 | 02:04:59 | 00:00:00 | |
| BIOWL1-15 | 2026-08-31 00:39:05 | 47.16055 | 8.03335 | 207° | 2km/h | 30435m | 5.3m/s | -42.8°C | 0% | 0hPa | 2.5V | 18:12:15 | 02:04:50 | 00:00:00 | |
| IW2NTF | 2026-08-31 00:39:04 | 47.16056 | 8.03335 | 92° | 4km/h | 30430m | 4.3m/s | -42.9°C | 2.4% | 0hPa | 2.5V | 08:30:00 | 02:04:49 | 00:00:00 | |
| DB0ND-19 | 2026-08-31 00:38:57 | 47.16039 | 8.03313 | 38° | 26km/h | 30400m | 4.8m/s | -42.9°C | 0.5% | -1.0hPa | 2.5V | 00:00:00 | 00:00:00 | 00:00:00 | |
| DO3MHA-12 | 2026-08-31 00:38:55 | 47.16034 | 8.03307 | 42° | 9km/h | 30395m | 5.8m/s | -42.9°C | 2.4% | 0hPa | 2.5V | 00:00:00 | 02:04:43 | 00:00:00 | |
| IW2NTF | 2026-08-31 00:38:53 | 47.16028 | 8.03298 | 293° | 4km/h | 30372m | 5.7m/s | -43°C | 2.4% | 0hPa | 2.5V | 08:30:00 | 02:04:39 | 00:00:00 | |
| BIOWL1-15 | 2026-08-31 00:38:53 | 47.16028 | 8.03298 | 294° | 4km/h | 30372m | 5.7m/s | -43°C | 0% | 0hPa | 2.5V | 18:12:15 | 02:04:39 | 00:00:00 | |
| DF7PN | 2026-08-31 00:38:48 | 47.16023 | 8.03310 | 301° | 9km/h | 30349m | 5.6m/s | -43.1°C | 0.5% | -1.0hPa | 2.5V | 00:00:00 | 00:00:00 | 00:00:00 | |
| DL1ZP-14 | 2026-08-31 00:38:47 | 47.16021 | 8.03314 | 353° | 4km/h | 30337m | 5.5m/s | -43.2°C | 0.5% | -1.0hPa | 2.5V | 00:00:00 | 00:00:00 | 00:00:00 | |
| DO3MHA-12 | 2026-08-31 00:38:45 | 47.16021 | 8.03314 | 354° | 18km/h | 30337m | 5.4m/s | -43.1°C | 2.4% | 0hPa | 2.5V | 00:00:00 | 02:04:33 | 00:00:00 | |
| IW2NTF | 2026-08-31 00:38:43 | 47.16010 | 8.03295 | 48° | 31km/h | 30312m | 6.3m/s | -43.1°C | 2.4% | 0hPa | 2.5V | 08:30:00 | 02:04:29 | 00:00:00 | |
| BIOWL1-15 | 2026-08-31 00:38:42 | 47.16005 | 8.03287 | 50° | 29km/h | 30307m | 4.5m/s | -43.1°C | 0% | 0hPa | 2.5V | 18:12:15 | 02:04:28 | 00:00:00 | |
| DM0DOS-11 | 2026-08-31 00:38:41 | 47.16005 | 8.03287 | 50° | 29km/h | 30307m | 4.5m/s | -43.1°C | 2.4% | 0hPa | 2.5V | 08:30:00 | 02:04:28 | 00:00:00 | |
| DB0NH | 2026-08-31 00:38:40 | 47.16005 | 8.03287 | 51° | 18km/h | 30307m | 4.4m/s | -43.1°C | 2.4% | 0hPa | 2.5V | 00:00:00 | 02:04:28 | 00:00:00 | |
| DF3TZ-5 | 2026-08-31 00:38:38 | 47.15997 | 8.03266 | 96° | 11km/h | 30291m | 6.7m/s | -43.1°C | 0.5% | -1.0hPa | 2.5V | 00:00:00 | 00:00:00 | 00:00:00 | |
| DO3MHA-12 | 2026-08-31 00:38:35 | 47.16000 | 8.03262 | 184° | 13km/h | 30279m | 5.0m/s | -43.0°C | 2.4% | 0hPa | 2.5V | 00:00:00 | 02:04:23 | 08:30:00 | |
| DM0DOS-11 | 2026-08-31 00:38:34 | 47.15998 | 8.03267 | 15° | 15km/h | 30251m | 5.2m/s | -43°C | 2.4% | 0hPa | 2.5V | 08:30:00 | 02:04:18 | 00:00:00 | |
| IW2NTF | 2026-08-31 00:38:31 | 47.16001 | 8.03267 | 355° | 11km/h | 30256m | 4.7m/s | -43°C | 2.4% | 0hPa | 2.5V | 08:30:00 | 02:04:19 | 00:00:00 | |
| BIOWL1-15 | 2026-08-31 00:38:31 | 47.15998 | 8.03267 | 16° | 15km/h | 30251m | 5.2m/s | -43.1°C | 0% | 0hPa | 2.5V | 18:12:15 | 02:04:18 | 00:00:00 | |
| DO3MHA-11 | 2026-08-31 00:38:30 | 47.15998 | 8.03267 | 16° | 18km/h | 30251m | 5.2m/s | -43.0°C | 2.4% | 0hPa | 2.5V | 00:00:00 | 02:04:18 | 00:00:00 | |
| DB0UT-7 | 2026-08-31 00:38:28 | 47.15992 | 8.03260 | 51° | 16km/h | 30240m | 6.0m/s | -43.0°C | 2.4% | 0hPa | 2.6V | 00:00:00 | 02:04:16 | 00:00:00 | |
| DB0ND-19 | 2026-08-31 00:38:26 | 47.15987 | 8.03247 | 63° | 22km/h | 30228m | 5.3m/s | -43.0°C | 0.5% | -1.0hPa | 2.6V | 00:00:00 | 00:00:00 | 00:00:00 | |
| DO3MHA-12 | 2026-08-31 00:38:25 | 47.15984 | 8.03240 | 61° | 13km/h | 30222m | 5.6m/s | -43.0°C | 2.4% | 0hPa | 2.6V | 00:00:00 | 02:04:13 | 00:00:00 | |
| IW2NTF | 2026-08-31 00:38:23 | 47.15971 | 8.03216 | 55° | 13km/h | 30199m | 6.1m/s | -43°C | 2.4% | 0hPa | 2.6V | 08:30:00 | 02:04:09 | 00:00:00 | |
| BIOWL1-15 | 2026-08-31 00:38:21 | 47.15963 | 8.03209 | 16° | 18km/h | 30158m | 4.6m/s | -43°C | 0% | 0hPa | 2.5V | 18:12:15 | 02:04:02 | 00:00:00 | |
| DM0DOS-11 | 2026-08-31 00:38:21 | 47.15970 | 8.03212 | 76° | 7km/h | 30192m | 7.1m/s | -43°C | 2.4% | 0hPa | 2.5V | 08:30:00 | 02:04:08 | 00:00:00 | |
| BIOWL1-15 | 2026-08-31 00:38:15 | 47.15952 | 8.03196 | 61° | 20km/h | 30141m | 6.5m/s | -43.1°C | 0% | 0hPa | 2.6V | 18:12:15 | 02:03:59 | 00:00:00 | |
| DO3MHA-12 | 2026-08-31 00:38:15 | 47.15967 | 8.03210 | 3° | 18km/h | 30164m | 5.3m/s | -43.0°C | 2.4% | 0hPa | 2.6V | 00:00:00 | 02:04:03 | 00:00:00 | |
| IW2NTF | 2026-08-31 00:38:13 | 47.15952 | 8.03196 | 61° | 20km/h | 30141m | 6.5m/s | -43.1°C | 2.4% | 0hPa | 2.6V | 08:30:00 | 02:03:59 | 00:00:00 | |
| DM0DOS-11 | 2026-08-31 00:38:13 | 47.15948 | 8.03174 | 76° | 20km/h | 30126m | 4.4m/s | -43.3°C | 2.4% | 0hPa | 2.5V | 08:30:00 | 02:03:56 | 00:00:00 | |
| DO3MHA-11 | 2026-08-31 00:38:10 | 47.15950 | 8.03188 | 76° | 20km/h | 30136m | 5.4m/s | -43.1°C | 2.4% | 0hPa | 2.5V | 00:00:00 | 02:03:58 | 00:00:00 | |
| DB0NH | 2026-08-31 00:38:09 | 47.15949 | 8.03181 | 82° | 16km/h | 30131m | 4.7m/s | -43.2°C | 2.4% | 0hPa | 2.5V | 00:00:00 | 02:03:57 | 00:00:00 | |
| DF3TZ-5 | 2026-08-31 00:38:07 | 47.15943 | 8.03162 | 41° | 18km/h | 30116m | 6.7m/s | -43.3°C | 0.5% | -1.0hPa | 2.6V | 00:00:00 | 00:00:00 | 00:00:00 | |
| DO3MHA-12 | 2026-08-31 00:38:05 | 47.15938 | 8.03158 | 22° | 16km/h | 30109m | 6.7m/s | -43.3°C | 2.4% | 0hPa | 2.6V | 00:00:00 | 02:03:53 | 00:00:00 | |
| IW2NTF | 2026-08-31 00:38:03 | 47.15919 | 8.03157 | 354° | 11km/h | 30085m | 6.3m/s | -43.4°C | 2.4% | 0hPa | 2.6V | 08:30:00 | 02:03:49 | 00:00:00 | |
| BIOWL1-15 | 2026-08-31 00:38:03 | 47.15919 | 8.03157 | 354° | 11km/h | 30085m | 6.3m/s | -43.4°C | 0% | 0hPa | 2.6V | 18:12:15 | 02:03:49 | 00:00:00 | |
| BIOWL9-15 | 2026-08-31 00:38:02 | 47.15919 | 8.03157 | 354° | 9km/h | 30086m | 6.3m/s | -43.4°C | 0.5% | -1.0hPa | 2.5V | 00:00:00 | 00:00:00 | 00:00:00 | |
| DM0DOS-11 | 2026-08-31 00:38:01 | 47.15915 | 8.03151 | 70° | 15km/h | 30069m | 6.2m/s | -43.5°C | 2.4% | 0hPa | 2.5V | 08:30:00 | 02:03:46 | 00:00:00 | |
| DO3MHA-11 | 2026-08-31 00:38:00 | 47.15917 | 8.03157 | 26° | 16km/h | 30080m | 5.2m/s | -43.4°C | 2.4% | 0hPa | 2.6V | 00:00:00 | 02:03:48 | 08:30:00 | |
| DB0UT-7 | 2026-08-31 00:37:58 | 47.15915 | 8.03151 | 71° | 16km/h | 30069m | 6.2m/s | -43.4°C | 2.4% | 0hPa | 2.5V | 00:00:00 | 00:00:00 | 00:00:00 | |
| DO3MHA-12 | 2026-08-31 00:37:55 | 47.15908 | 8.03130 | 62° | 22km/h | 30052m | 5.0m/s | -43.5°C | 2.4% | 0hPa | 2.5V | 00:00:00 | 02:03:43 | 00:00:00 | |
| IW2NTF | 2026-08-31 00:37:53 | 47.15895 | 8.03110 | 5° | 16km/h | 30028m | 5.7m/s | -43.7°C | 2.4% | 0hPa | 2.5V | 08:30:00 | 02:03:39 | 00:00:00 | |
| DM0DOS-11 | 2026-08-31 00:37:52 | 47.15879 | 8.03114 | 348° | 26km/h | 30009m | 5.3m/s | -43.8°C | 2.5% | 0hPa | 2.5V | 08:30:00 | 02:03:36 | 00:00:00 | |
| BIOWL1-15 | 2026-08-31 00:37:50 | 47.15891 | 8.03110 | 351° | 20km/h | 30022m | 6.1m/s | -43.7°C | 0% | 0hPa | 2.6V | 18:12:15 | 02:03:38 | 00:00:00 | |
| DO3MHA-11 | 2026-08-31 00:37:50 | 47.15891 | 8.03110 | 351° | 18km/h | 30022m | 6.1m/s | -43.7°C | 2.4% | 0hPa | 2.5V | 00:00:00 | 02:03:38 | 00:00:00 | |
| DO3MHA-12 | 2026-08-31 00:37:45 | 47.15864 | 8.03115 | 18° | 15km/h | 29995m | 7.0m/s | -43.8°C | 2.4% | 0hPa | 2.5V | 00:00:00 | 02:03:33 | 00:00:00 | |
| IW2NTF | 2026-08-31 00:37:43 | 47.15864 | 8.03097 | 88° | 20km/h | 29970m | 6.4m/s | -43.8°C | 2.5% | 0hPa | 2.5V | 08:30:00 | 02:03:29 | 00:00:00 | |
| BIOWL1-15 | 2026-08-31 00:37:39 | 47.15851 | 8.03081 | 313° | 9km/h | 29936m | 5.3m/s | -44.1°C | 0% | 0hPa | 2.5V | 18:12:15 | 02:03:23 | 00:00:00 | |
| DF3TZ-5 | 2026-08-31 00:37:36 | 47.15851 | 8.03081 | 313° | 9km/h | 29936m | 5.3m/s | -44.1°C | 0.5% | -1.0hPa | 2.5V | 00:00:00 | 00:00:00 | 00:00:00 | |
| DB0NH | 2026-08-31 00:37:35 | 47.15851 | 8.03081 | 314° | 13km/h | 29936m | 5.2m/s | -44.0°C | 2.5% | 0hPa | 2.5V | 00:00:00 | 02:03:23 | 00:00:00 | |
| IW2NTF | 2026-08-31 00:37:33 | 47.15833 | 8.03080 | 34° | 18km/h | 29903m | 4.8m/s | -44.2°C | 2.5% | 0hPa | 2.5V | 08:30:00 | 02:03:17 | 00:00:00 | |
| BIOWL9-15 | 2026-08-31 00:37:31 | 47.15837 | 8.03083 | 27° | 18km/h | 29909m | 5.1m/s | -44.2°C | 0.5% | -1.0hPa | 2.5V | 00:00:00 | 00:00:00 | 00:00:00 | |
| DO3MHA-11 | 2026-08-31 00:37:30 | 47.15837 | 8.03083 | 28° | 13km/h | 29909m | 5.1m/s | -44.2°C | 2.5% | 0hPa | 2.5V | 00:00:00 | 02:03:18 | 00:00:00 | |
| DB0UT-7 | 2026-08-31 00:37:28 | 47.15829 | 8.03076 | 40° | 13km/h | 29898m | 6.3m/s | -44.2°C | 2.5% | 0hPa | 2.6V | 00:00:00 | 02:03:16 | 00:00:00 | |
| DM0DOS-11 | 2026-08-31 00:37:27 | 47.15818 | 8.03060 | 29° | 15km/h | 29862m | 5.2m/s | -44.4°C | 2.5% | 0hPa | 2.6V | 08:30:00 | 02:03:10 | 00:00:00 | |
| BIOWL1-15 | 2026-08-31 00:37:24 | 47.15823 | 8.03065 | 44° | 9km/h | 29874m | 6.3m/s | -44.3°C | 0% | 0hPa | 2.5V | 18:12:15 | 02:03:12 | 00:00:00 | |
| IW2NTF | 2026-08-31 00:37:24 | 47.15809 | 8.03056 | 359° | 9km/h | 29845m | 6.6m/s | -44.5°C | 2.5% | 0hPa | 2.5V | 08:30:00 | 02:03:07 | 00:00:00 | |
| BIOWL1-15 | 2026-08-31 00:37:14 | 47.15789 | 8.03043 | 40° | 22km/h | 29811m | 5m/s | -44.6°C | 0% | 0hPa | 2.5V | 18:12:15 | 02:03:01 | 00:00:00 | |
| IW2NTF | 2026-08-31 00:37:14 | 47.15776 | 8.03027 | 36° | 11km/h | 29788m | 4.8m/s | -44.7°C | 2.6% | 0hPa | 2.5V | 08:30:00 | 02:02:57 | 00:00:00 | |
| DM0DOS-11 | 2026-08-31 00:37:11 | 47.15779 | 8.03029 | 43° | 13km/h | 29793m | 5.4m/s | -44.7°C | 2.7% | 0hPa | 2.6V | 08:30:00 | 02:02:58 | 00:00:00 | |
| DO3MHA-12 | 2026-08-31 00:37:11 | 47.15781 | 8.03033 | 45° | 11km/h | 29799m | 6.4m/s | -44.7°C | 2.7% | 0hPa | 2.6V | 00:00:00 | 02:02:59 | 00:00:00 | |
| DO3MHA-11 | 2026-08-31 00:37:10 | 47.15779 | 8.03029 | 44° | 15km/h | 29793m | 5.3m/s | -44.7°C | 2.7% | 0hPa | 2.6V | 00:00:00 | 02:02:58 | 00:00:00 | |
| DF3TZ-5 | 2026-08-31 00:37:05 | 47.15758 | 8.03008 | 36° | 20km/h | 29762m | 4.0m/s | -44.7°C | 0.5% | -1.0hPa | 2.6V | 00:00:00 | 00:00:00 | 00:00:00 | |
| BIOWL1-15 | 2026-08-31 00:37:03 | 47.15680 | 8.03004 | 352° | 16km/h | 29649m | 6.7m/s | -44.5°C | 0% | 0hPa | 2.6V | 18:12:15 | 02:02:32 | 00:00:00 | |
| DM0DOS-11 | 2026-08-31 00:37:01 | 47.15749 | 8.02995 | 69° | 2km/h | 29739m | 5.3m/s | -44.6°C | 2.6% | 0hPa | 2.6V | 08:30:00 | 02:02:48 | 00:00:00 | |
| BIOWL9-15 | 2026-08-31 00:37:00 | 47.15749 | 8.02995 | 28° | 2km/h | 29734m | 4.2m/s | -44.6°C | 0.5% | -1.0hPa | 2.6V | 00:00:00 | 00:00:00 | 00:00:00 | |
| BIOWL1-15 | 2026-08-31 00:36:56 | 47.15676 | 8.03004 | 350° | 16km/h | 29643m | 6m/s | -44.4°C | 0% | 0hPa | 2.6V | 18:12:15 | 02:02:31 | 00:00:00 | |
| DB0ND-19 | 2026-08-31 00:36:53 | 47.15703 | 8.02996 | 329° | 16km/h | 29679m | 5.5m/s | -44.6°C | 0.5% | -1.0hPa | 2.6V | 00:00:00 | 00:00:00 | 00:00:00 | |
| IW2NTF | 2026-08-31 00:36:51 | 47.15703 | 8.02995 | 329° | 18km/h | 29679m | 5.5m/s | -44.6°C | 2.6% | 0hPa | 2.6V | 08:30:00 | 02:02:37 | 00:00:00 | |
| DM0DOS-11 | 2026-08-31 00:36:51 | 47.15707 | 8.02992 | 330° | 18km/h | 29684m | 5.2m/s | -44.6°C | 2.6% | 0hPa | 2.5V | 08:30:00 | 02:02:38 | 00:00:00 | |
| DK5PH-5 | 2026-08-31 00:36:51 | 47.15711 | 8.02989 | 340° | 18km/h | 29690m | 5.5m/s | -44.6°C | 2.7% | 0hPa | 2.5V | 00:00:00 | 02:02:39 | 00:00:00 | |
| DO3MHA-11 | 2026-08-31 00:36:50 | 47.15707 | 8.02992 | 331° | 18km/h | 29684m | 5.2m/s | -44.6°C | 2.6% | 0hPa | 2.5V | 00:00:00 | 02:02:38 | 00:00:00 | |
| DO3MHA-12 | 2026-08-31 00:36:48 | 47.15699 | 8.02999 | 338° | 20km/h | 29673m | 6.5m/s | -44.5°C | 2.6% | 0hPa | 2.5V | 00:00:00 | 02:02:36 | 00:00:00 | |
| IW2NTF | 2026-08-31 00:36:44 | 47.15655 | 8.03009 | 354° | 29km/h | 29620m | 6.2m/s | -44.4°C | 2.5% | 0hPa | 2.5V | 08:30:00 | 02:02:27 | 00:00:00 | |
| DF7PN | 2026-08-31 00:36:43 | 47.15676 | 8.03004 | 349° | 15km/h | 29643m | 6.0m/s | -44.4°C | 0.5% | -1.0hPa | 2.5V | 00:00:00 | 00:00:00 | 00:00:00 | |
| DM0DOS-11 | 2026-08-31 00:36:42 | 47.15661 | 8.03008 | 353° | 26km/h | 29627m | 6.8m/s | -44.4°C | 2.6% | 0hPa | 2.5V | 08:30:00 | 02:02:28 | 00:00:00 | |
| BIOWL1-15 | 2026-08-31 00:36:33 | 47.15625 | 8.03025 | 15° | 9km/h | 29577m | 6.1m/s | -44.3°C | 0% | 0hPa | 2.5V | 18:12:15 | 02:02:19 | 00:00:00 | |
| IW2NTF | 2026-08-31 00:36:31 | 47.15617 | 8.03021 | 17° | 26km/h | 29565m | 5.7m/s | -44.4°C | 2.5% | 0hPa | 2.5V | 08:30:00 | 02:02:17 | 00:00:00 | |
| DM0DOS-11 | 2026-08-31 00:36:31 | 47.15622 | 8.03023 | 20° | 18km/h | 29571m | 6.3m/s | -44.4°C | 2.5% | 0hPa | 2.5V | 08:30:00 | 02:02:18 | 00:00:00 | |
| DO3MHA-11 | 2026-08-31 00:36:30 | 47.15622 | 8.03023 | 21° | 18km/h | 29571m | 6.3m/s | -44.3°C | 2.5% | 0hPa | 2.5V | 00:00:00 | 02:02:18 | 08:30:00 | |
| BIOWL9-15 | 2026-08-31 00:36:29 | 47.15611 | 8.03018 | 12° | 27km/h | 29560m | 5.0m/s | -44.4°C | 0.5% | -1.0hPa | 2.5V | 00:00:00 | 00:00:00 | 00:00:00 | |
| DO3MHA-12 | 2026-08-31 00:36:28 | 47.15610 | 8.03018 | 13° | 15km/h | 29560m | 5.0m/s | -44.4°C | 2.6% | 0hPa | 2.5V | 00:00:00 | 02:02:16 | 00:00:00 | |
| DB0NH | 2026-08-31 00:36:27 | 47.15603 | 8.03016 | 8° | 16km/h | 29554m | 6.1m/s | -44.4°C | 2.5% | 0hPa | 2.6V | 00:00:00 | 02:02:15 | 08:30:00 | |
| IW2NTF | 2026-08-31 00:36:22 | 47.15574 | 8.03016 | 7° | 7km/h | 29511m | 4.8m/s | -44.5°C | 2.5% | 0hPa | 2.5V | 08:30:00 | 02:02:07 | 00:00:00 | |
| DM0DOS-11 | 2026-08-31 00:36:22 | 47.15576 | 8.03017 | 16° | 9km/h | 29516m | 5.1m/s | -44.5°C | 2.5% | 0hPa | 2.5V | 08:30:00 | 02:02:08 | 00:00:00 | |
| BIOWL1-15 | 2026-08-31 00:36:22 | 47.15574 | 8.03016 | 8° | 7km/h | 29511m | 4.8m/s | -44.5°C | 0% | 0hPa | 2.5V | 18:12:15 | 02:02:07 | 00:00:00 | |
| DK5PH-5 | 2026-08-31 00:36:21 | 47.15578 | 8.03018 | 11° | 11km/h | 29521m | 5.6m/s | -44.5°C | 2.6% | 0hPa | 2.6V | 00:00:00 | 02:02:09 | 00:00:00 | |
| DO3MHA-11 | 2026-08-31 00:36:20 | 47.15575 | 8.03017 | 17° | 11km/h | 29516m | 5.1m/s | -44.5°C | 2.5% | 0hPa | 2.6V | 00:00:00 | 02:02:08 | 00:00:00 | |
| DO3MHA-12 | 2026-08-31 00:36:18 | 47.15572 | 8.03016 | 352° | 11km/h | 29505m | 6.5m/s | -44.5°C | 2.6% | 0hPa | 2.6V | 00:00:00 | 02:02:06 | 00:00:00 | |
| HASLITAL | 2026-08-31 00:36:17 | 47.15571 | 8.03016 | 352° | 7km/h | 29505m | 6.6m/s | -44.6°C | 0.6% | 0hPa | 2.6V | 00:00:00 | 00:00:00 | 00:00:00 | |
| DM0DOS-11 | 2026-08-31 00:36:11 | 47.15549 | 8.03008 | 13° | 13km/h | 29460m | 6.5m/s | -44.8°C | 2.6% | 0hPa | 2.6V | 08:30:00 | 02:01:58 | 00:00:00 | |
| DL1ZP-14 | 2026-08-31 00:36:11 | 47.15549 | 8.03008 | 13° | 11km/h | 29460m | 6.5m/s | -44.8°C | 0.5% | -1.0hPa | 2.6V | 00:00:00 | 00:00:00 | 00:00:00 | |
| DO3MHA-11 | 2026-08-31 00:36:10 | 47.15549 | 8.03008 | 14° | 11km/h | 29460m | 6.5m/s | -44.7°C | 2.6% | 0hPa | 2.6V | 00:00:00 | 02:01:58 | 00:00:00 | |
| BIOWL1-15 | 2026-08-31 00:36:10 | 47.15531 | 8.03013 | 352° | 13km/h | 29414m | 6.6m/s | -45°C | 0% | 0hPa | 2.5V | 18:12:15 | 02:01:50 | 00:00:00 | |
| DO3MHA-12 | 2026-08-31 00:36:08 | 47.15545 | 8.03009 | 322° | 11km/h | 29448m | 5.6m/s | -44.8°C | 2.6% | 0hPa | 2.6V | 00:00:00 | 02:01:56 | 00:00:00 | |
| DF3TZ-5 | 2026-08-31 00:36:02 | 47.15531 | 8.03013 | 352° | 13km/h | 29414m | 6.6m/s | -45.0°C | 0.5% | -1.0hPa | 2.6V | 00:00:00 | 00:00:00 | 00:00:00 | |
| IW2NTF | 2026-08-31 00:36:01 | 47.15520 | 8.03018 | 348° | 15km/h | 29396m | 5.2m/s | -45°C | 2.6% | 0hPa | 2.6V | 08:30:00 | 02:01:47 | 00:00:00 | |
| DM0DOS-11 | 2026-08-31 00:36:01 | 47.15524 | 8.03016 | 340° | 15km/h | 29401m | 5.5m/s | -45°C | 2.6% | 0hPa | 2.6V | 08:30:00 | 02:01:48 | 00:00:00 | |
| BIOWL1-15 | 2026-08-31 00:35:56 | 47.15505 | 8.03015 | 344° | 9km/h | 29366m | 6.7m/s | -45.2°C | 0% | 0hPa | 2.6V | 18:12:15 | 02:01:42 | 00:00:00 | |
| DH7VM-15 | 2026-08-31 00:35:53 | 47.15503 | 8.03016 | 319° | 9km/h | 29360m | 5.6m/s | -45.1°C | 0.6% | 0hPa | 2.5V | 00:00:00 | 00:00:00 | 00:00:00 | |
| DM0DOS-11 | 2026-08-31 00:35:51 | 47.15497 | 8.03023 | 345° | 11km/h | 29343m | 6.6m/s | -45.2°C | 2.6% | 0hPa | 2.5V | 08:30:00 | 02:01:38 | 00:00:00 | |
| DB0ND-19 | 2026-08-31 00:35:51 | 47.15499 | 8.03021 | 326° | 9km/h | 29349m | 5.9m/s | -45.2°C | 0.5% | -1.0hPa | 2.6V | 00:00:00 | 00:00:00 | 00:00:00 | |
| IW2NTF | 2026-08-31 00:35:50 | 47.15494 | 8.03024 | 354° | 15km/h | 29337m | 5.7m/s | -45.2°C | 2.6% | 0hPa | 2.6V | 08:30:00 | 02:01:37 | 00:00:00 | |
| DO3MHA-11 | 2026-08-31 00:35:50 | 47.15497 | 8.03023 | 346° | 16km/h | 29343m | 6.5m/s | -45.2°C | 2.6% | 0hPa | 2.5V | 00:00:00 | 02:01:38 | 00:00:00 | |
| DO3MHA-12 | 2026-08-31 00:35:48 | 47.15490 | 8.03024 | 353° | 18km/h | 29332m | 5.0m/s | -45.2°C | 2.6% | 0hPa | 2.5V | 00:00:00 | 02:01:36 | 00:00:00 | |
| IW2NTF | 2026-08-31 00:35:45 | 47.15453 | 8.03037 | 349° | 11km/h | 29281m | 6.7m/s | -45.4°C | 2.6% | 0hPa | 2.5V | 08:30:00 | 02:01:27 | 00:00:00 | |
| DM0DOS-11 | 2026-08-31 00:35:44 | 47.15455 | 8.03037 | 4° | 13km/h | 29286m | 5m/s | -45.4°C | 2.6% | 0hPa | 2.5V | 08:30:00 | 02:01:28 | 00:00:00 | |
| BIOWL1-15 | 2026-08-31 00:35:43 | 47.15449 | 8.03040 | 318° | 7km/h | 29269m | 5.2m/s | -45.5°C | 0% | 0hPa | 2.6V | 18:12:15 | 02:01:25 | 00:00:00 | |
| DF7PN | 2026-08-31 00:35:41 | 47.15459 | 8.03037 | 6° | 15km/h | 29292m | 4.8m/s | -45.4°C | 0.6% | -1.0hPa | 2.5V | 00:00:00 | 00:00:00 | 00:00:00 | |
| DL1ZP-14 | 2026-08-31 00:35:40 | 47.15453 | 8.03037 | 349° | 9km/h | 29281m | 6.7m/s | -45.4°C | 0.5% | -1.0hPa | 2.5V | 00:00:00 | 00:00:00 | 00:00:00 | |
| HASLITAL | 2026-08-31 00:35:35 | 47.15447 | 8.03041 | 328° | 5km/h | 29264m | 4.9m/s | -45.5°C | 0.6% | 0hPa | 2.5V | 00:00:00 | 00:00:00 | 00:00:00 | |
| IW2NTF | 2026-08-31 00:35:34 | 47.15434 | 8.03040 | 317° | 15km/h | 29223m | 5.9m/s | -45.6°C | 2.7% | 0hPa | 2.5V | 08:30:00 | 02:01:17 | 00:00:00 | |
| BIOWL1-15 | 2026-08-31 00:35:33 | 47.15417 | 8.03055 | 195° | 7km/h | 29177m | 5.9m/s | -45.8°C | 0% | 0hPa | 2.6V | 18:12:15 | 02:01:09 | 00:00:00 | |
| DM0DOS-11 | 2026-08-31 00:35:31 | 47.15436 | 8.03037 | 331° | 11km/h | 29229m | 6.8m/s | -45.6°C | 2.6% | 0hPa | 2.5V | 08:30:00 | 02:01:18 | 00:00:00 | |
| DF3TZ-5 | 2026-08-31 00:35:31 | 47.15439 | 8.03036 | 0° | 7km/h | 29236m | 6.0m/s | -45.6°C | 0.5% | -1.0hPa | 2.5V | 00:00:00 | 00:00:00 | 00:00:00 | |
| DO3MHA-11 | 2026-08-31 00:35:30 | 47.15436 | 8.03037 | 332° | 11km/h | 29229m | 6.7m/s | -45.5°C | 2.6% | 0hPa | 2.5V | 00:00:00 | 02:01:18 | 00:00:00 | |
| DB0UT-7 | 2026-08-31 00:35:28 | 47.15430 | 8.03044 | 318° | 9km/h | 29218m | 4.9m/s | -45.6°C | 2.7% | 0hPa | 2.5V | 00:00:00 | 02:01:16 | 00:00:00 | |
| BIOWL9-15 | 2026-08-31 00:35:26 | 47.15424 | 8.03051 | 336° | 15km/h | 29206m | 6.1m/s | -45.7°C | 0.5% | -1.0hPa | 2.5V | 00:00:00 | 00:00:00 | 00:00:00 | |
| DB0NH | 2026-08-31 00:35:25 | 47.15420 | 8.03053 | 349° | 11km/h | 29201m | 5.1m/s | -45.6°C | 2.7% | 0hPa | 2.5V | 00:00:00 | 02:01:13 | 00:00:00 | |
| IW2NTF | 2026-08-31 00:35:24 | 47.15421 | 8.03055 | 159° | 9km/h | 29166m | 6.1m/s | -45.8°C | 2.6% | 0hPa | 2.5V | 08:30:00 | 02:01:07 | 00:00:00 | |
| DM0DOS-11 | 2026-08-31 00:35:24 | 47.15419 | 8.03055 | 176° | 9km/h | 29171m | 5.2m/s | -45.8°C | 2.7% | 0hPa | 2.6V | 08:30:00 | 02:01:08 | 00:00:00 | |
| DK5PH-5 | 2026-08-31 00:35:21 | 47.15417 | 8.03055 | 196° | 7km/h | 29177m | 5.8m/s | -45.7°C | 2.6% | 0hPa | 2.6V | 00:00:00 | 02:01:09 | 00:00:00 | |
| DO3MHA-11 | 2026-08-31 00:35:20 | 47.15419 | 8.03055 | 177° | 7km/h | 29171m | 5.2m/s | -45.7°C | 2.7% | 0hPa | 2.6V | 00:00:00 | 02:01:08 | 00:00:00 | |
| DO3MHA-12 | 2026-08-31 00:35:18 | 47.15423 | 8.03053 | 133° | 7km/h | 29160m | 6.2m/s | -45.8°C | 2.7% | 0hPa | 2.6V | 00:00:00 | 02:01:06 | 00:00:00 | |
| BIOWL1-15 | 2026-08-31 00:35:15 | 47.15398 | 8.03050 | 14° | 16km/h | 29049m | 5.5m/s | -46.8°C | 0% | 0hPa | 2.6V | 18:12:15 | 02:00:46 | 00:00:00 | |
| DM0DOS-11 | 2026-08-31 00:35:12 | 47.15419 | 8.03057 | 344° | 5km/h | 29114m | 6.4m/s | -46.2°C | 2.7% | 0hPa | 2.6V | 08:30:00 | 02:00:58 | 00:00:00 | |
| DO3MHA-11 | 2026-08-31 00:35:10 | 47.15419 | 8.03057 | 345° | 5km/h | 29115m | 6.3m/s | -46.2°C | 2.7% | 0hPa | 2.5V | 00:00:00 | 02:00:58 | 00:00:00 | |
| DO3MHA-12 | 2026-08-31 00:35:08 | 47.15417 | 8.03056 | 45° | 9km/h | 29104m | 4.6m/s | -46.3°C | 2.7% | 0hPa | 2.5V | 00:00:00 | 02:00:56 | 00:00:00 | |
| DM0DOS-11 | 2026-08-31 00:35:02 | 47.15406 | 8.03055 | 26° | 16km/h | 29059m | 5.7m/s | -46.6°C | 2.8% | 0hPa | 2.5V | 08:30:00 | 02:00:48 | 00:00:00 | |
| DF3TZ-5 | 2026-08-31 00:35:00 | 47.15406 | 8.03055 | 26° | 16km/h | 29059m | 5.7m/s | -46.7°C | 0.6% | -1.0hPa | 2.5V | 00:00:00 | 00:00:00 | 00:00:00 | |
| DL6DJ-15 | 2026-08-31 00:34:57 | 47.15389 | 8.03052 | 326° | 9km/h | 29031m | 5.6m/s | -46.9°C | 0.6% | -1.0hPa | 2.5V | 00:00:00 | 00:00:00 | 00:00:00 | |
| BIOWL9-15 | 2026-08-31 00:34:56 | 47.15389 | 8.03052 | 326° | 9km/h | 29031m | 5.6m/s | -46.9°C | 0.6% | -1.0hPa | 2.5V | 00:00:00 | 00:00:00 | 00:00:00 | |
| HASLITAL | 2026-08-31 00:34:55 | 47.15391 | 8.03050 | 338° | 11km/h | 29037m | 6.0m/s | -46.9°C | 0.7% | 0hPa | 2.5V | 00:00:00 | 00:00:00 | 00:00:00 | |
| IW2NTF | 2026-08-31 00:34:54 | 47.15376 | 8.03054 | 347° | 15km/h | 28996m | 6.2m/s | -47.1°C | 2.9% | 0hPa | 2.5V | 08:30:00 | 02:00:37 | 00:00:00 | |
| BIOWL1-15 | 2026-08-31 00:34:54 | 47.15387 | 8.03054 | 332° | 7km/h | 29025m | 6.4m/s | -47°C | 0% | 0hPa | 2.6V | 18:12:15 | 02:00:42 | 00:00:00 | |
| DM0DOS-11 | 2026-08-31 00:34:51 | 47.15379 | 8.03054 | 355° | 11km/h | 29002m | 6.5m/s | -47.1°C | 2.9% | 0hPa | 2.5V | 08:30:00 | 02:00:38 | 00:00:00 | |
| DB0ND-19 | 2026-08-31 00:34:49 | 47.15375 | 8.03054 | 347° | 15km/h | 28996m | 6.2m/s | -47.1°C | 0.6% | -1.0hPa | 2.5V | 00:00:00 | 00:00:00 | 00:00:00 | |
| BIOWL1-15 | 2026-08-31 00:34:46 | 47.15351 | 8.03052 | 17° | 22km/h | 28968m | 5m/s | -47.3°C | 0% | 0hPa | 2.5V | 18:12:15 | 02:00:32 | 00:00:00 | |
| IW2NTF | 2026-08-31 00:34:44 | 47.15328 | 8.03055 | 339° | 16km/h | 28939m | 5.5m/s | -47.4°C | 3% | 0hPa | 2.5V | 08:30:00 | 02:00:27 | 00:00:00 | |
| DM0DOS-11 | 2026-08-31 00:34:41 | 47.15332 | 8.03053 | 336° | 18km/h | 28944m | 5.1m/s | -47.4°C | 3% | 0hPa | 2.5V | 08:30:00 | 02:00:28 | 00:00:00 | |
| DO3MHA-11 | 2026-08-31 00:34:40 | 47.15332 | 8.03053 | 337° | 18km/h | 28945m | 5.0m/s | -47.4°C | 3.0% | 0hPa | 2.6V | 00:00:00 | 02:00:28 | 00:00:00 | |
| DF7PN | 2026-08-31 00:34:39 | 47.15324 | 8.03057 | 349° | 15km/h | 28933m | 6.6m/s | -47.4°C | 0.6% | -1.0hPa | 2.6V | 00:00:00 | 00:00:00 | 00:00:00 | |
| DO3MHA-12 | 2026-08-31 00:34:38 | 47.15324 | 8.03057 | 350° | 18km/h | 28933m | 6.5m/s | -47.3°C | 3.0% | 0hPa | 2.6V | 00:00:00 | 02:00:26 | 00:00:00 | |
| DL1ZP-14 | 2026-08-31 00:34:37 | 47.15321 | 8.03057 | 359° | 15km/h | 28927m | 5.5m/s | -47.4°C | 0.7% | -1.0hPa | 2.6V | 00:00:00 | 00:00:00 | 00:00:00 | |
| IW2NTF | 2026-08-31 00:34:35 | 47.15284 | 8.03073 | 354° | 15km/h | 28881m | 6.4m/s | -47.3°C | 3% | 0hPa | 2.5V | 08:30:00 | 02:00:17 | 00:00:00 | |
| BIOWL1-15 | 2026-08-31 00:34:33 | 47.15293 | 8.03069 | 333° | 20km/h | 28894m | 5.3m/s | -47.3°C | 0% | 0hPa | 2.6V | 18:12:15 | 02:00:19 | 00:00:00 | |
| DM0DOS-11 | 2026-08-31 00:34:31 | 47.15288 | 8.03072 | 340° | 18km/h | 28888m | 6.7m/s | -47.3°C | 3% | 0hPa | 2.5V | 08:30:00 | 02:00:18 | 00:00:00 | |
| DO3MHA-11 | 2026-08-31 00:34:30 | 47.15288 | 8.03071 | 341° | 20km/h | 28888m | 6.7m/s | -47.3°C | 3.0% | 0hPa | 2.5V | 00:00:00 | 02:00:18 | 00:00:00 | |
| DF3TZ-5 | 2026-08-31 00:34:29 | 47.15284 | 8.03073 | 354° | 15km/h | 28881m | 6.4m/s | -47.3°C | 0.6% | -1.0hPa | 2.5V | 00:00:00 | 00:00:00 | 00:00:00 | |
| DO3MHA-12 | 2026-08-31 00:34:28 | 47.15280 | 8.03073 | 4° | 20km/h | 28876m | 5.1m/s | -47.2°C | 3.0% | 0hPa | 2.5V | 00:00:00 | 02:00:16 | 00:00:00 | |
| DL6DJ-15 | 2026-08-31 00:34:26 | 47.15268 | 8.03075 | 341° | 20km/h | 28859m | 6.6m/s | -47.3°C | 0.6% | -1.0hPa | 2.5V | 00:00:00 | 00:00:00 | 00:00:00 | |
| IW2NTF | 2026-08-31 00:34:24 | 47.15235 | 8.03092 | 0° | 18km/h | 28825m | 5.1m/s | -47.1°C | 2.9% | 0hPa | 2.5V | 08:30:00 | 02:00:07 | 00:00:00 | |
| BIOWL1-15 | 2026-08-31 00:34:24 | 47.15251 | 8.03087 | 336° | 26km/h | 28843m | 5.1m/s | -47.2°C | 0% | 0hPa | 2.5V | 18:12:15 | 02:00:10 | 00:00:00 | |
| DM0DOS-11 | 2026-08-31 00:34:21 | 47.15240 | 8.03091 | 353° | 20km/h | 28831m | 5.9m/s | -47.1°C | 2.9% | 0hPa | 2.6V | 08:30:00 | 02:00:08 | 00:00:00 | |
| DK5PH-5 | 2026-08-31 00:34:21 | 47.15245 | 8.03090 | 344° | 18km/h | 28837m | 6.1m/s | -47.1°C | 2.9% | 0hPa | 2.6V | 00:00:00 | 02:00:09 | 00:00:00 | |
| DO3MHA-11 | 2026-08-31 00:34:20 | 47.15240 | 8.03091 | 354° | 18km/h | 28831m | 5.9m/s | -47.1°C | 2.9% | 0hPa | 2.6V | 00:00:00 | 02:00:08 | 00:00:00 | |
| DO3MHA-12 | 2026-08-31 00:34:18 | 47.15230 | 8.03092 | 357° | 18km/h | 28821m | 4.8m/s | -47.1°C | 2.9% | 0hPa | 2.6V | 00:00:00 | 02:00:06 | 00:00:00 | |
| IW2NTF | 2026-08-31 00:34:14 | 47.15197 | 8.03124 | 323° | 26km/h | 28768m | 6.8m/s | -47.3°C | 2.9% | 0hPa | 2.6V | 08:30:00 | 01:59:57 | 00:00:00 | |
| BIOWL1-15 | 2026-08-31 00:34:12 | 47.15209 | 8.03111 | 324° | 16km/h | 28784m | 5.6m/s | -47.3°C | 0% | 0hPa | 2.5V | 18:12:15 | 02:00:00 | 00:00:00 | |
| DM0DOS-11 | 2026-08-31 00:34:10 | 47.15175 | 8.03147 | 332° | 20km/h | 28746m | 5.8m/s | -47.5°C | 2.9% | 0hPa | 2.5V | 08:30:00 | 01:59:53 | 00:00:00 | |
| DO3MHA-11 | 2026-08-31 00:34:10 | 47.15201 | 8.03119 | 326° | 18km/h | 28775m | 5.4m/s | -47.3°C | 2.9% | 0hPa | 2.5V | 00:00:00 | 01:59:58 | 00:00:00 | |
| DF7PN | 2026-08-31 00:34:08 | 47.15186 | 8.03136 | 321° | 27km/h | 28757m | 4.8m/s | -47.4°C | 0.6% | -1.0hPa | 2.5V | 00:00:00 | 00:00:00 | 00:00:00 | |
| DL1ZP-14 | 2026-08-31 00:34:06 | 47.15180 | 8.03142 | 325° | 26km/h | 28752m | 4.6m/s | -47.4°C | 0.6% | -1.0hPa | 2.5V | 00:00:00 | 00:00:00 | 00:00:00 | |
| IW2NTF | 2026-08-31 00:34:04 | 47.15161 | 8.03159 | 284° | 16km/h | 28712m | 5.8m/s | -47.7°C | 3% | 0hPa | 2.6V | 08:30:00 | 01:59:47 | 00:00:00 | |
| BIOWL1-15 | 2026-08-31 00:34:01 | 47.15162 | 8.03154 | 299° | 13km/h | 28719m | 6.3m/s | -47.7°C | 0% | 0hPa | 2.5V | 18:12:15 | 01:59:48 | 00:00:00 | |
| DM0DOS-11 | 2026-08-31 00:34:00 | 47.15160 | 8.03189 | 269° | 20km/h | 28689m | 5.2m/s | -47.8°C | 3% | 0hPa | 2.5V | 08:30:00 | 01:59:43 | 00:00:00 | |
| BIOWL1-15 | 2026-08-31 00:33:51 | 47.15154 | 8.03219 | 304° | 20km/h | 28667m | 4.7m/s | -47.7°C | 0% | 0hPa | 2.5V | 18:12:15 | 01:59:39 | 00:00:00 | |
| DB0ND-19 | 2026-08-31 00:33:47 | 47.15145 | 8.03229 | 359° | 4km/h | 28644m | 4.5m/s | -47.5°C | 0.6% | -1.0hPa | 2.5V | 00:00:00 | 00:00:00 | 00:00:00 | |
| IW2NTF | 2026-08-31 00:33:45 | 47.15137 | 8.03261 | 304° | 13km/h | 28599m | 4.9m/s | -47.6°C | 3% | 0hPa | 2.5V | 08:30:00 | 01:59:27 | 00:00:00 | |
| BIOWL1-15 | 2026-08-31 00:33:41 | 47.15120 | 8.03281 | 340° | 22km/h | 28573m | 4.6m/s | -47.7°C | 0% | 0hPa | 2.5V | 18:12:15 | 01:59:22 | 00:00:00 | |
| DO3MHA-11 | 2026-08-31 00:33:40 | 47.15138 | 8.03256 | 298° | 18km/h | 28605m | 5.3m/s | -47.5°C | 2.9% | 0hPa | 2.5V | 00:00:00 | 01:59:28 | 00:00:00 | |
| DM0DOS-11 | 2026-08-31 00:33:38 | 47.15110 | 8.03282 | 11° | 22km/h | 28561m | 6.8m/s | -47.8°C | 2.9% | 0hPa | 2.5V | 08:30:00 | 01:59:20 | 00:00:00 | |
| DO3MHA-12 | 2026-08-31 00:33:38 | 47.15134 | 8.03264 | 310° | 15km/h | 28595m | 4.6m/s | -47.5°C | 2.9% | 0hPa | 2.6V | 00:00:00 | 01:59:26 | 00:00:00 | |
| DF7PN | 2026-08-31 00:33:37 | 47.15129 | 8.03273 | 317° | 18km/h | 28584m | 6.2m/s | -47.6°C | 0.6% | -1.0hPa | 2.6V | 00:00:00 | 00:00:00 | 00:00:00 | |
| DL1ZP-14 | 2026-08-31 00:33:35 | 47.15125 | 8.03277 | 325° | 20km/h | 28578m | 5.1m/s | -47.6°C | 0.6% | -1.0hPa | 2.6V | 00:00:00 | 00:00:00 | 00:00:00 | |
| IW2NTF | 2026-08-31 00:33:34 | 47.15098 | 8.03274 | 30° | 11km/h | 28546m | 5.2m/s | -47.8°C | 3% | 0hPa | 2.5V | 08:30:00 | 01:59:17 | 00:00:00 | |
| BIOWL1-15 | 2026-08-31 00:33:29 | 47.15098 | 8.03274 | 31° | 11km/h | 28546m | 5.2m/s | -47.8°C | 0% | 0hPa | 2.5V | 18:12:15 | 01:59:17 | 00:00:00 | |
| DB0UT-7 | 2026-08-31 00:33:28 | 47.15096 | 8.03273 | 357° | 13km/h | 28540m | 6.3m/s | -47.8°C | 3.0% | 0hPa | 2.5V | 00:00:00 | 01:59:16 | 00:00:00 | |
| DM0DOS-11 | 2026-08-31 00:33:27 | 47.15083 | 8.03296 | 346° | 13km/h | 28501m | 5.2m/s | -47.9°C | 3% | 0hPa | 2.5V | 08:30:00 | 01:59:09 | 00:00:00 | |
| BIOWL1-15 | 2026-08-31 00:33:19 | 47.15076 | 8.03299 | 335° | 15km/h | 28490m | 6m/s | -48°C | 0% | 0hPa | 2.6V | 18:12:15 | 01:59:07 | 00:00:00 | |
| DB0ND-19 | 2026-08-31 00:33:16 | 47.15068 | 8.03311 | 297° | 13km/h | 28473m | 4.8m/s | -48.0°C | 0.6% | -1.0hPa | 2.5V | 00:00:00 | 00:00:00 | 00:00:00 | |
| BIOWL7-15 | 2026-08-31 00:33:15 | 47.15067 | 8.03315 | 292° | 11km/h | 28468m | 5.1m/s | -48.0°C | 0% | 0hPa | 2.5V | 00:00:00 | 00:00:00 | 00:00:00 | |
| DM0DOS-11 | 2026-08-31 00:33:11 | 47.15070 | 8.03323 | 220° | 11km/h | 28438m | 6.3m/s | -48.1°C | 3% | 0hPa | 2.5V | 08:30:00 | 01:58:58 | 00:00:00 | |
| BIOWL1-15 | 2026-08-31 00:33:09 | 47.15070 | 8.03352 | 333° | 16km/h | 28403m | 5.7m/s | -48.2°C | 0% | 0hPa | 2.5V | 18:12:15 | 01:58:52 | 00:00:00 | |
| DF7PN | 2026-08-31 00:33:06 | 47.15073 | 8.03349 | 312° | 13km/h | 28410m | 6.4m/s | -48.2°C | 0.7% | -1.0hPa | 2.5V | 00:00:00 | 00:00:00 | 00:00:00 | |
| IW2NTF | 2026-08-31 00:33:04 | 47.15052 | 8.03365 | 327° | 9km/h | 28376m | 5.3m/s | -48.3°C | 3.1% | 0hPa | 2.5V | 08:30:00 | 01:58:47 | 00:00:00 | |
| DL1ZP-14 | 2026-08-31 00:33:04 | 47.15070 | 8.03352 | 332° | 15km/h | 28404m | 5.7m/s | -48.2°C | 0.7% | -1.0hPa | 2.5V | 00:00:00 | 00:00:00 | 00:00:00 | |
| DM0DOS-11 | 2026-08-31 00:33:01 | 47.15054 | 8.03363 | 327° | 13km/h | 28381m | 4.2m/s | -48.3°C | 3.1% | 0hPa | 2.5V | 08:30:00 | 01:58:48 | 00:00:00 | |
| DF3TZ-5 | 2026-08-31 00:32:56 | 47.15049 | 8.03369 | 273° | 4km/h | 28360m | 4.7m/s | -48.4°C | 0.7% | -1.0hPa | 2.5V | 00:00:00 | 00:00:00 | 00:00:00 | |
| IW2NTF | 2026-08-31 00:32:54 | 47.15042 | 8.03405 | 324° | 9km/h | 28320m | 6.1m/s | -48.4°C | 3.1% | 0hPa | 2.5V | 08:30:00 | 01:58:37 | 00:00:00 | |
| BIOWL1-15 | 2026-08-31 00:32:54 | 47.15048 | 8.03376 | 274° | 15km/h | 28349m | 6.7m/s | -48.4°C | 0% | 0hPa | 2.5V | 18:12:15 | 01:58:42 | 00:00:00 | |
| DL6DJ-15 | 2026-08-31 00:32:53 | 47.15047 | 8.03389 | 284° | 20km/h | 28337m | 4.6m/s | -48.4°C | 0.7% | -1.0hPa | 2.5V | 00:00:00 | 00:00:00 | 00:00:00 | |
| DM0DOS-11 | 2026-08-31 00:32:51 | 47.15044 | 8.03402 | 301° | 15km/h | 28327m | 6.4m/s | -48.4°C | 3.1% | 0hPa | 2.5V | 08:30:00 | 01:58:38 | 00:00:00 | |
| BIOWL9-15 | 2026-08-31 00:32:51 | 47.15045 | 8.03397 | 290° | 18km/h | 28332m | 4.7m/s | -48.4°C | 0.7% | -1.0hPa | 2.5V | 00:00:00 | 00:00:00 | 00:00:00 | |
| BIOWL1-15 | 2026-08-31 00:32:46 | 47.15037 | 8.03425 | 253° | 11km/h | 28263m | 5m/s | -48.4°C | 0% | 0hPa | 2.5V | 18:12:15 | 01:58:27 | 00:00:00 | |
| DB0ND-19 | 2026-08-31 00:32:45 | 47.15035 | 8.03410 | 281° | 7km/h | 28292m | 5.4m/s | -48.4°C | 0.7% | -1.0hPa | 2.5V | 00:00:00 | 00:00:00 | 00:00:00 | |
| IW2NTF | 2026-08-31 00:32:44 | 47.15038 | 8.03425 | 252° | 11km/h | 28263m | 5m/s | -48.4°C | 3.1% | 0hPa | 2.5V | 08:30:00 | 01:58:27 | 00:00:00 | |
| DM0DOS-11 | 2026-08-31 00:32:41 | 47.15036 | 8.03421 | 246° | 9km/h | 28268m | 5.1m/s | -48.4°C | 3.1% | 0hPa | 2.6V | 08:30:00 | 01:58:28 | 00:00:00 | |
| DB0NH | 2026-08-31 00:32:38 | 47.15038 | 8.03430 | 260° | 11km/h | 28258m | 6.6m/s | -48.4°C | 3.1% | 0hPa | 2.5V | 00:00:00 | 01:58:26 | 00:00:00 | |
| IW2NTF | 2026-08-31 00:32:35 | 47.15026 | 8.03436 | 35° | 7km/h | 28209m | 5.9m/s | -48.4°C | 3.1% | 0hPa | 2.6V | 08:30:00 | 01:58:17 | 00:00:00 | |
| DL1ZP-14 | 2026-08-31 00:32:33 | 47.15034 | 8.03450 | 22° | 7km/h | 28230m | 7.0m/s | -48.4°C | 0.7% | -1.0hPa | 2.5V | 00:00:00 | 00:00:00 | 00:00:00 | |
| DM0DOS-11 | 2026-08-31 00:32:31 | 47.15028 | 8.03439 | 53° | 13km/h | 28214m | 4.5m/s | -48.4°C | 3.1% | 0hPa | 2.5V | 08:30:00 | 01:58:18 | 00:00:00 | |
| BIOWL1-15 | 2026-08-31 00:32:31 | 47.15030 | 8.03443 | 57° | 15km/h | 28218m | 4.2m/s | -48.4°C | 0% | 0hPa | 2.5V | 18:12:15 | 01:58:19 | 00:00:00 | |
| HASLITAL | 2026-08-31 00:32:30 | 47.15030 | 8.03443 | 58° | 15km/h | 28219m | 4.2m/s | -48.4°C | 0.8% | 0hPa | 2.6V | 00:00:00 | 00:00:00 | 00:00:00 | |
| DO3MHA-11 | 2026-08-31 00:32:28 | 47.15025 | 8.03436 | 329° | 9km/h | 28203m | 6.0m/s | -48.3°C | 3.1% | 0hPa | 2.6V | 00:00:00 | 01:58:16 | 00:00:00 | |
| DH7VM-15 | 2026-08-31 00:32:26 | 47.15025 | 8.03438 | 275° | 9km/h | 28198m | 5.3m/s | -48.4°C | 0.7% | 0hPa | 2.5V | 00:00:00 | 00:00:00 | 00:00:00 | |
| DF3TZ-5 | 2026-08-31 00:32:25 | 47.15026 | 8.03445 | 240° | 11km/h | 28186m | 6.6m/s | -48.4°C | 0.7% | -1.0hPa | 2.5V | 00:00:00 | 00:00:00 | 00:00:00 | |
| IW2NTF | 2026-08-31 00:32:24 | 47.15031 | 8.03462 | 305° | 9km/h | 28153m | 5m/s | -48.5°C | 3.1% | 0hPa | 2.5V | 08:30:00 | 01:58:07 | 00:00:00 | |
| DM0DOS-11 | 2026-08-31 00:32:21 | 47.15032 | 8.03459 | 286° | 7km/h | 28159m | 5.9m/s | -48.5°C | 3.1% | 0hPa | 2.5V | 08:30:00 | 01:58:08 | 00:00:00 | |
| BIOWL1-15 | 2026-08-31 00:32:20 | 47.15032 | 8.03459 | 286° | 7km/h | 28159m | 5.9m/s | -48.5°C | 0% | 0hPa | 2.5V | 18:12:15 | 01:58:08 | 00:00:00 | |
| DO3MHA-11 | 2026-08-31 00:32:18 | 47.15029 | 8.03464 | 330° | 11km/h | 28149m | 4.5m/s | -48.4°C | 3.1% | 0hPa | 2.5V | 00:00:00 | 01:58:06 | 00:00:00 | |
| DO3MHA-12 | 2026-08-31 00:32:16 | 47.15026 | 8.03462 | 59° | 11km/h | 28138m | 6.8m/s | -48.4°C | 3.1% | 0hPa | 2.5V | 00:00:00 | 01:58:04 | 00:00:00 | |
| DM0DOS-11 | 2026-08-31 00:32:15 | 47.15019 | 8.03440 | 325° | 9km/h | 28105m | 5.4m/s | -48.4°C | 3.1% | 0hPa | 2.5V | 08:30:00 | 01:57:58 | 00:00:00 | |
| DB0ND-19 | 2026-08-31 00:32:14 | 47.15024 | 8.03447 | 77° | 15km/h | 28122m | 4.5m/s | -48.4°C | 0.7% | -1.0hPa | 2.5V | 00:00:00 | 00:00:00 | 00:00:00 | |
| IW2NTF | 2026-08-31 00:32:13 | 47.15017 | 8.03443 | 303° | 13km/h | 28099m | 5.3m/s | -48.4°C | 3.1% | 0hPa | 2.5V | 08:30:00 | 01:57:57 | 00:00:00 | |
| BIOWL1-15 | 2026-08-31 00:32:10 | 47.15014 | 8.03455 | 282° | 9km/h | 28082m | 5m/s | -48.4°C | 0% | 0hPa | 2.6V | 18:12:15 | 01:57:54 | 00:00:00 | |
| HASLITAL | 2026-08-31 00:32:09 | 47.15019 | 8.03440 | 327° | 9km/h | 28105m | 5.4m/s | -48.4°C | 0.7% | 0hPa | 2.6V | 00:00:00 | 00:00:00 | 00:00:00 | |
| DO3MHA-11 | 2026-08-31 00:32:08 | 47.15016 | 8.03447 | 294° | 7km/h | 28094m | 6.1m/s | -48.4°C | 3.1% | 0hPa | 2.6V | 00:00:00 | 01:57:56 | 00:00:00 | |
| DM0DOS-11 | 2026-08-31 00:32:04 | 47.15007 | 8.03463 | 41° | 5km/h | 28050m | 6.1m/s | -48.4°C | 3.1% | 0hPa | 2.6V | 08:30:00 | 01:57:48 | 00:00:00 | |
| IW2NTF | 2026-08-31 00:32:03 | 47.15007 | 8.03461 | 83° | 5km/h | 28043m | 6.3m/s | -48.3°C | 3.1% | 0hPa | 2.5V | 08:30:00 | 01:57:47 | 00:00:00 | |
| BIOWL1-15 | 2026-08-31 00:32:00 | 47.15007 | 8.03459 | 107° | 5km/h | 28038m | 4.7m/s | -48.3°C | 0% | 0hPa | 2.5V | 18:12:15 | 01:57:46 | 00:00:00 | |
| DO3MHA-11 | 2026-08-31 00:31:58 | 47.15007 | 8.03459 | 108° | 7km/h | 28038m | 4.6m/s | -48.3°C | 3.1% | 0hPa | 2.5V | 00:00:00 | 01:57:46 | 08:30:00 | |
| DM0DOS-11 | 2026-08-31 00:31:54 | 47.15003 | 8.03478 | 247° | 0km/h | 27995m | 5.7m/s | -48.2°C | 3% | 0hPa | 2.6V | 08:30:00 | 01:57:38 | 00:00:00 | |
| IW2NTF | 2026-08-31 00:31:53 | 47.15003 | 8.03477 | 134° | 4km/h | 27990m | 5.1m/s | -48.2°C | 3% | 0hPa | 2.6V | 08:30:00 | 01:57:37 | 00:00:00 | |
| BIOWL1-15 | 2026-08-31 00:31:48 | 47.15004 | 8.03476 | 133° | 4km/h | 27985m | 4.6m/s | -48.2°C | 0% | 0hPa | 2.5V | 18:12:15 | 01:57:36 | 00:00:00 | |
| DO3MHA-11 | 2026-08-31 00:31:48 | 47.15004 | 8.03476 | 133° | 5km/h | 27985m | 4.5m/s | -48.2°C | 3.1% | 0hPa | 2.6V | 00:00:00 | 01:57:36 | 00:00:00 | |
| IW2NTF | 2026-08-31 00:31:44 | 47.14995 | 8.03487 | 306° | 7km/h | 27934m | 5.9m/s | -48.5°C | 3.1% | 0hPa | 2.6V | 08:30:00 | 01:57:27 | 00:00:00 | |
| DM0DOS-11 | 2026-08-31 00:31:43 | 47.14996 | 8.03485 | 324° | 5km/h | 27940m | 5.1m/s | -48.5°C | 3.1% | 0hPa | 2.5V | 08:30:00 | 01:57:28 | 00:00:00 | |
| BIOWL1-15 | 2026-08-31 00:31:39 | 47.14993 | 8.03494 | 281° | 11km/h | 27923m | 4.5m/s | -48.5°C | 0% | 0hPa | 2.5V | 18:12:15 | 01:57:25 | 00:00:00 | |
| DO3MHA-11 | 2026-08-31 00:31:38 | 47.14994 | 8.03490 | 293° | 9km/h | 27929m | 5.9m/s | -48.5°C | 3.1% | 0hPa | 2.5V | 00:00:00 | 01:57:26 | 00:00:00 | |
| DM0DOS-11 | 2026-08-31 00:31:33 | 47.15001 | 8.03507 | 253° | 9km/h | 27886m | 5.8m/s | -48.6°C | 3.2% | 0hPa | 2.5V | 08:30:00 | 01:57:18 | 00:00:00 | |
| BIOWL1-15 | 2026-08-31 00:31:26 | 47.15000 | 8.03523 | 272° | 7km/h | 27866m | 6.2m/s | -48.7°C | 0% | 0hPa | 2.5V | 18:12:15 | 01:57:14 | 00:00:00 | |
| IW2NTF | 2026-08-31 00:31:23 | 47.15018 | 8.03536 | 199° | 16km/h | 27827m | 4.9m/s | -48.6°C | 3.1% | 0hPa | 2.5V | 08:30:00 | 01:57:07 | 00:00:00 | |
| DM0DOS-11 | 2026-08-31 00:31:21 | 47.15014 | 8.03533 | 206° | 18km/h | 27832m | 4.3m/s | -48.6°C | 3.1% | 0hPa | 2.5V | 08:30:00 | 01:57:08 | 00:00:00 | |
| BIOWL1-15 | 2026-08-31 00:31:14 | 47.15027 | 8.03538 | 324° | 5km/h | 27800m | 6.4m/s | -48.7°C | 0% | 0hPa | 2.5V | 18:12:15 | 01:57:02 | 00:00:00 | |
| IW2NTF | 2026-08-31 00:31:13 | 47.15018 | 8.03540 | 83° | 4km/h | 27772m | 4.9m/s | -48.6°C | 3.2% | 0hPa | 2.5V | 08:30:00 | 01:56:57 | 00:00:00 | |
| DH7VM-15 | 2026-08-31 00:31:11 | 47.15023 | 8.03541 | 341° | 11km/h | 27789m | 4.4m/s | -48.7°C | 0.7% | 0hPa | 2.6V | 00:00:00 | 00:00:00 | 00:00:00 | |
| DM0DOS-11 | 2026-08-31 00:31:08 | 47.15026 | 8.03542 | 202° | 9km/h | 27745m | 5.2m/s | -48.6°C | 3.2% | 0hPa | 2.6V | 08:30:00 | 01:56:52 | 00:00:00 | |
| BIOWL1-15 | 2026-08-31 00:31:04 | 47.15029 | 8.03542 | 128° | 4km/h | 27734m | 5.3m/s | -48.7°C | 0% | 0hPa | 2.5V | 18:12:15 | 01:56:50 | 00:00:00 | |
| IW2NTF | 2026-08-31 00:31:02 | 47.15025 | 8.03540 | 355° | 11km/h | 27718m | 6.9m/s | -48.7°C | 3.1% | 0hPa | 2.6V | 08:30:00 | 01:56:47 | 00:00:00 | |
| DF7PN | 2026-08-31 00:31:01 | 47.15029 | 8.03541 | 51° | 4km/h | 27729m | 4.3m/s | -48.7°C | 0.7% | -1.0hPa | 2.6V | 00:00:00 | 00:00:00 | 00:00:00 | |
| DL1ZP-14 | 2026-08-31 00:31:00 | 47.15025 | 8.03540 | 355° | 11km/h | 27718m | 6.9m/s | -48.7°C | 0.7% | -1.0hPa | 2.6V | 00:00:00 | 00:00:00 | 00:00:00 | |
| DO3MHA-11 | 2026-08-31 00:30:58 | 47.15022 | 8.03540 | 346° | 9km/h | 27712m | 5.5m/s | -48.6°C | 3.1% | 0hPa | 2.5V | 00:00:00 | 01:56:46 | 00:00:00 | |
| IW2NTF | 2026-08-31 00:30:53 | 47.15018 | 8.03540 | 199° | 9km/h | 27663m | 4.4m/s | -48.7°C | 3.1% | 0hPa | 2.6V | 08:30:00 | 01:56:37 | 00:00:00 | |
| DM0DOS-11 | 2026-08-31 00:30:53 | 47.15016 | 8.03539 | 201° | 9km/h | 27668m | 5m/s | -48.7°C | 3.1% | 0hPa | 2.5V | 08:30:00 | 01:56:38 | 00:00:00 | |
| BIOWL1-15 | 2026-08-31 00:30:52 | 47.15016 | 8.03539 | 202° | 9km/h | 27668m | 5m/s | -48.7°C | 0% | 0hPa | 2.5V | 18:12:15 | 01:56:38 | 00:00:00 | |
| DL6DJ-15 | 2026-08-31 00:30:49 | 47.15020 | 8.03540 | 180° | 5km/h | 27658m | 6.1m/s | -48.7°C | 0.7% | -1.0hPa | 2.5V | 00:00:00 | 00:00:00 | 00:00:00 | |
| BIOWL9-15 | 2026-08-31 00:30:47 | 47.15021 | 8.03540 | 127° | 4km/h | 27653m | 5.6m/s | -48.7°C | 0.7% | -1.0hPa | 2.5V | 00:00:00 | 00:00:00 | 00:00:00 | |
| HASLITAL | 2026-08-31 00:30:46 | 47.15021 | 8.03540 | 128° | 4km/h | 27653m | 5.6m/s | -48.7°C | 0.8% | 0hPa | 2.5V | 00:00:00 | 00:00:00 | 00:00:00 | |
| IW2NTF | 2026-08-31 00:30:43 | 47.15007 | 8.03527 | 79° | 7km/h | 27609m | 4m/s | -48.9°C | 3.1% | 0hPa | 2.5V | 08:30:00 | 01:56:27 | 00:00:00 | |
| BIOWL1-15 | 2026-08-31 00:30:42 | 47.15008 | 8.03525 | 101° | 5km/h | 27605m | 4.2m/s | -48.9°C | 0% | 0hPa | 2.5V | 18:12:15 | 01:56:26 | 00:00:00 | |
| DM0DOS-11 | 2026-08-31 00:30:41 | 47.15009 | 8.03530 | 55° | 9km/h | 27614m | 5.7m/s | -48.8°C | 3.1% | 0hPa | 2.5V | 08:30:00 | 01:56:28 | 00:00:00 | |
| DB0ND-19 | 2026-08-31 00:30:41 | 47.15008 | 8.03530 | 55° | 9km/h | 27614m | 5.7m/s | -48.8°C | 0.7% | -1.0hPa | 2.5V | 00:00:00 | 00:00:00 | 00:00:00 | |
| DM0DOS-11 | 2026-08-31 00:30:34 | 47.15008 | 8.03527 | 38° | 11km/h | 27562m | 4m/s | -49.4°C | 3.2% | 0hPa | 2.5V | 08:30:00 | 01:56:18 | 00:00:00 | |
| IW2NTF | 2026-08-31 00:30:34 | 47.15005 | 8.03525 | 23° | 11km/h | 27557m | 5.7m/s | -49.4°C | 3.2% | 0hPa | 2.5V | 08:30:00 | 01:56:17 | 00:00:00 | |
| BIOWL1-15 | 2026-08-31 00:30:30 | 47.14967 | 8.03535 | 280° | 13km/h | 27462m | 5.5m/s | -49.8°C | 0% | 0hPa | 2.5V | 18:12:15 | 01:55:59 | 00:00:00 | |
| DL1ZP-14 | 2026-08-31 00:30:29 | 47.15003 | 8.03524 | 6° | 11km/h | 27551m | 6.0m/s | -49.4°C | 0.7% | -1.0hPa | 2.5V | 00:00:00 | 00:00:00 | 00:00:00 | |
| DB0UT-7 | 2026-08-31 00:30:28 | 47.15003 | 8.03524 | 7° | 13km/h | 27552m | 6.0m/s | -49.4°C | 3.2% | 0hPa | 2.5V | 00:00:00 | 01:56:16 | 00:00:00 | |
| HASLITAL | 2026-08-31 00:30:25 | 47.14996 | 8.03524 | 357° | 13km/h | 27541m | 4.7m/s | -49.5°C | 0.8% | 0hPa | 2.5V | 00:00:00 | 00:00:00 | 00:00:00 | |
| IW2NTF | 2026-08-31 00:30:24 | 47.14975 | 8.03523 | 334° | 15km/h | 27504m | 4.7m/s | -49.7°C | 3.3% | 0hPa | 2.5V | 08:30:00 | 01:56:07 | 00:00:00 | |
| DK5PH-5 | 2026-08-31 00:30:21 | 47.14982 | 8.03520 | 359° | 13km/h | 27516m | 6.0m/s | -49.6°C | 3.2% | 0hPa | 2.6V | 00:00:00 | 01:56:09 | 08:30:00 | |
| BIOWL9-15 | 2026-08-31 00:30:17 | 47.14967 | 8.03527 | 30° | 0km/h | 27483m | 4.8m/s | -49.8°C | 0.7% | -1.0hPa | 2.6V | 00:00:00 | 00:00:00 | 00:00:00 | |
| DB0NH | 2026-08-31 00:30:14 | 47.14967 | 8.03527 | 229° | 15km/h | 27479m | 4.5m/s | -49.8°C | 3.3% | 0hPa | 2.6V | 00:00:00 | 01:56:02 | 00:00:00 | |
| DM0DOS-11 | 2026-08-31 00:30:11 | 47.14965 | 8.03545 | 297° | 13km/h | 27452m | 5.5m/s | -49.8°C | 3.3% | 0hPa | 2.6V | 08:30:00 | 01:55:57 | 00:00:00 | |
| BIOWL1-15 | 2026-08-31 00:30:09 | 47.14965 | 8.03545 | 298° | 13km/h | 27452m | 5.5m/s | -49.8°C | 0% | 0hPa | 2.6V | 18:12:15 | 01:55:57 | 00:00:00 | |
| DH7VM-15 | 2026-08-31 00:30:07 | 47.14963 | 8.03548 | 317° | 13km/h | 27447m | 5.8m/s | -49.8°C | 0.8% | 0hPa | 2.5V | 00:00:00 | 00:00:00 | 00:00:00 | |
| HASLITAL | 2026-08-31 00:30:04 | 47.14953 | 8.03555 | 343° | 20km/h | 27431m | 6.4m/s | -49.8°C | 0.8% | 0hPa | 2.5V | 00:00:00 | 00:00:00 | 00:00:00 | |
| IW2NTF | 2026-08-31 00:30:03 | 47.14930 | 8.03567 | 306° | 5km/h | 27399m | 4.3m/s | -49.8°C | 3.3% | 0hPa | 2.5V | 08:30:00 | 01:55:47 | 00:00:00 | |
| BIOWL1-15 | 2026-08-31 00:29:58 | 47.14925 | 8.03588 | 297° | 24km/h | 27378m | 5m/s | -49.9°C | 0.1% | 0hPa | 2.5V | 18:12:15 | 01:55:43 | 00:00:00 | |
| DB0UT-7 | 2026-08-31 00:29:58 | 47.14929 | 8.03570 | 290° | 16km/h | 27395m | 4.6m/s | -49.8°C | 3.3% | 0hPa | 2.5V | 00:00:00 | 00:00:00 | 00:00:00 | |
| IW2NTF | 2026-08-31 00:29:54 | 47.14906 | 8.03616 | 332° | 16km/h | 27348m | 6.1m/s | -50°C | 3.3% | 0hPa | 2.5V | 08:30:00 | 01:55:37 | 00:00:00 | |
| DM0DOS-11 | 2026-08-31 00:29:51 | 47.14902 | 8.03619 | 329° | 18km/h | 27341m | 5.6m/s | -50°C | 3.3% | 0hPa | 2.5V | 08:30:00 | 01:55:36 | 00:00:00 | |
| BIOWL1-15 | 2026-08-31 00:29:50 | 47.14903 | 8.03619 | 330° | 18km/h | 27341m | 5.6m/s | -50°C | 0% | 0hPa | 2.5V | 18:12:15 | 01:55:36 | 00:00:00 | |
| DF3TZ-5 | 2026-08-31 00:29:50 | 47.14906 | 8.03616 | 332° | 15km/h | 27348m | 6.1m/s | -50.0°C | 0.7% | -1.0hPa | 2.5V | 00:00:00 | 00:00:00 | 00:00:00 | |
| DL6DJ-15 | 2026-08-31 00:29:46 | 47.14889 | 8.03631 | 329° | 11km/h | 27320m | 5.3m/s | -50.0°C | 0.7% | -1.0hPa | 2.5V | 00:00:00 | 00:00:00 | 00:00:00 | |
| BIOWL9-15 | 2026-08-31 00:29:45 | 47.14889 | 8.03631 | 329° | 11km/h | 27320m | 5.3m/s | 0°C | -1.0% | -1.0hPa | 2.5V | 00:00:00 | 00:00:00 | 00:00:00 | |
| DB0NH | 2026-08-31 00:29:44 | 47.14889 | 8.03631 | 330° | 13km/h | 27320m | 5.3m/s | -49.9°C | 3.3% | 0hPa | 2.5V | 00:00:00 | 01:55:32 | 00:00:00 | |
| IW2NTF | 2026-08-31 00:29:43 | 47.14870 | 8.03654 | 320° | 24km/h | 27294m | 4.3m/s | -50.2°C | 3.3% | 0hPa | 2.5V | 08:30:00 | 01:55:27 | 00:00:00 | |
| BIOWL1-15 | 2026-08-31 00:29:37 | 47.14844 | 8.03676 | 314° | 11km/h | 27252m | 5m/s | -50.4°C | 0.1% | 0hPa | 2.5V | 18:12:15 | 01:55:19 | 00:00:00 | |
| IW2NTF | 2026-08-31 00:29:31 | 47.14840 | 8.03683 | 302° | 7km/h | 27236m | 4.4m/s | -50.5°C | 3.4% | 0hPa | 2.5V | 08:30:00 | 01:55:16 | 00:00:00 | |
| DM0DOS-11 | 2026-08-31 00:29:31 | 47.14842 | 8.03679 | 306° | 9km/h | 27246m | 6.1m/s | -50.5°C | 3.4% | 0hPa | 2.6V | 08:30:00 | 01:55:18 | 00:00:00 | |
| DB0UT-7 | 2026-08-31 00:29:28 | 47.14840 | 8.03683 | 303° | 16km/h | 27236m | 4.4m/s | -50.4°C | 3.4% | 0hPa | 2.5V | 00:00:00 | 01:55:16 | 00:00:00 | |
| DL1ZP-14 | 2026-08-31 00:29:27 | 47.14837 | 8.03690 | 313° | 15km/h | 27225m | 6.4m/s | -50.5°C | 0.8% | -1.0hPa | 2.5V | 00:00:00 | 00:00:00 | 00:00:00 | |
| HASLITAL | 2026-08-31 00:29:23 | 47.14830 | 8.03699 | 322° | 20km/h | 27214m | 4.6m/s | -50.5°C | 0.9% | 0hPa | 2.5V | 00:00:00 | 00:00:00 | 00:00:00 | |
| DM0DOS-11 | 2026-08-31 00:29:21 | 47.14817 | 8.03713 | 319° | 13km/h | 27193m | 4.3m/s | -50.5°C | 3.4% | 0hPa | 2.5V | 08:30:00 | 01:55:08 | 00:00:00 | |
| IW2NTF | 2026-08-31 00:29:21 | 47.14812 | 8.03721 | 310° | 18km/h | 27182m | 6.1m/s | -50.6°C | 3.4% | 0hPa | 2.6V | 08:30:00 | 01:55:06 | 00:00:00 | |
| BIOWL1-15 | 2026-08-31 00:29:20 | 47.14817 | 8.03713 | 320° | 13km/h | 27193m | 4.3m/s | -50.5°C | 0.2% | 0hPa | 2.5V | 18:12:15 | 01:55:08 | 00:00:00 | |
| DF3TZ-5 | 2026-08-31 00:29:19 | 47.14812 | 8.03721 | 310° | 16km/h | 27183m | 6.1m/s | -50.6°C | 0.8% | -1.0hPa | 2.6V | 00:00:00 | 00:00:00 | 00:00:00 | |
| DB0NH | 2026-08-31 00:29:12 | 47.14799 | 8.03752 | 301° | 16km/h | 27151m | 4.4m/s | -50.5°C | 3.4% | 0hPa | 2.6V | 00:00:00 | 01:55:00 | 00:00:00 | |
| IW2NTF | 2026-08-31 00:29:11 | 47.14788 | 8.03773 | 310° | 20km/h | 27129m | 5.4m/s | -50.5°C | 3.4% | 0hPa | 2.6V | 08:30:00 | 01:54:56 | 00:00:00 | |
| BIOWL1-15 | 2026-08-31 00:29:10 | 47.14794 | 8.03762 | 308° | 20km/h | 27139m | 5.8m/s | -50.5°C | 0.1% | 0hPa | 2.5V | 18:12:15 | 01:54:58 | 00:00:00 | |
| DB0ND-19 | 2026-08-31 00:29:08 | 47.14785 | 8.03779 | 310° | 18km/h | 27123m | 6.5m/s | -50.6°C | 0.8% | -1.0hPa | 2.5V | 00:00:00 | 00:00:00 | 00:00:00 | |
| HASLITAL | 2026-08-31 00:29:03 | 47.14777 | 8.03795 | 303° | 20km/h | 27107m | 5.3m/s | -50.7°C | 0.9% | 0hPa | 2.5V | 00:00:00 | 00:00:00 | 00:00:00 | |
| LOEBOVI | 2026-08-31 00:29:01 | 47.14771 | 8.03808 | 303° | 24km/h | 27096m | 5.4m/s | -50.7°C | 0.8% | 0hPa | 2.5V | 00:00:00 | 00:00:00 | 00:00:00 | |
| IW2NTF | 2026-08-31 00:29:00 | 47.14762 | 8.03833 | 282° | 11km/h | 27074m | 5.5m/s | -50.7°C | 3.4% | 0hPa | 2.5V | 08:30:00 | 01:54:46 | 00:00:00 | |
| BIOWL1-15 | 2026-08-31 00:29:00 | 47.14760 | 8.03851 | 287° | 18km/h | 27053m | 5.2m/s | -50.7°C | 0.1% | 0hPa | 2.5V | 18:12:15 | 01:54:42 | 00:00:00 | |
| DM0DOS-11 | 2026-08-31 00:28:58 | 47.14761 | 8.03845 | 283° | 15km/h | 27059m | 5.9m/s | -50.7°C | 3.4% | 0hPa | 2.6V | 08:30:00 | 01:54:43 | 00:00:00 | |
| BIOWL1-15 | 2026-08-31 00:28:49 | 47.14752 | 8.03894 | 290° | 22km/h | 27022m | 5.3m/s | -50.8°C | 0.2% | 0hPa | 2.5V | 18:12:15 | 01:54:36 | 00:00:00 | |
| DM0DOS-11 | 2026-08-31 00:28:48 | 47.14745 | 8.03918 | 291° | 22km/h | 27006m | 4.2m/s | -50.8°C | 3.5% | 0hPa | 2.6V | 08:30:00 | 01:54:33 | 00:00:00 | |
| DF3TZ-5 | 2026-08-31 00:28:48 | 47.14745 | 8.03918 | 291° | 22km/h | 27006m | 4.2m/s | -50.8°C | 0.8% | -1.0hPa | 2.6V | 00:00:00 | 00:00:00 | 00:00:00 | |
| DL6DJ-15 | 2026-08-31 00:28:44 | 47.14743 | 8.03926 | 283° | 18km/h | 27001m | 5.5m/s | -50.8°C | 0.8% | -1.0hPa | 2.6V | 00:00:00 | 00:00:00 | 00:00:00 | |
| DB0NH | 2026-08-31 00:28:42 | 47.14743 | 8.03937 | 248° | 11km/h | 26990m | 5.5m/s | -50.8°C | 3.5% | 0hPa | 2.6V | 00:00:00 | 01:54:30 | 00:00:00 | |
| IW2NTF | 2026-08-31 00:28:39 | 47.14746 | 8.03950 | 280° | 7km/h | 26967m | 4.8m/s | -50.8°C | 3.5% | 0hPa | 2.6V | 08:30:00 | 01:54:26 | 00:00:00 | |
| DM0DOS-11 | 2026-08-31 00:28:38 | 47.14745 | 8.03959 | 297° | 11km/h | 26951m | 4.8m/s | -50.8°C | 3.5% | 0hPa | 2.5V | 08:30:00 | 01:54:23 | 00:00:00 | |
| BIOWL1-15 | 2026-08-31 00:28:38 | 47.14740 | 8.03969 | 303° | 22km/h | 26940m | 7m/s | -50.8°C | 0.1% | 0hPa | 2.6V | 18:12:15 | 01:54:21 | 00:00:00 | |
| DB0ND-19 | 2026-08-31 00:28:37 | 47.14745 | 8.03959 | 297° | 9km/h | 26951m | 4.8m/s | -50.8°C | 0.8% | -1.0hPa | 2.6V | 00:00:00 | 00:00:00 | 00:00:00 | |
| IW2NTF | 2026-08-31 00:28:29 | 47.14728 | 8.04005 | 261° | 11km/h | 26912m | 5.7m/s | -50.7°C | 3.5% | 0hPa | 2.6V | 08:30:00 | 01:54:16 | 00:00:00 | |
| BIOWL1-15 | 2026-08-31 00:28:24 | 47.14731 | 8.04025 | 296° | 15km/h | 26881m | 5.1m/s | -50.7°C | 0.2% | 0hPa | 2.6V | 18:12:15 | 01:54:10 | 00:00:00 | |
| DK5PH-5 | 2026-08-31 00:28:22 | 47.14729 | 8.04030 | 300° | 13km/h | 26876m | 6.2m/s | -50.7°C | 3.5% | 0hPa | 2.5V | 00:00:00 | 01:54:09 | 00:00:00 | |
| IW2NTF | 2026-08-31 00:28:19 | 47.14722 | 8.04048 | 306° | 22km/h | 26858m | 5.5m/s | -50.7°C | 3.5% | 0hPa | 2.5V | 08:30:00 | 01:54:06 | 00:00:00 | |
| DF3TZ-5 | 2026-08-31 00:28:16 | 47.14685 | 8.04148 | 343° | 15km/h | 26697m | 4.9m/s | -50.6°C | 0.8% | -1.0hPa | 2.6V | 00:00:00 | 00:00:00 | 00:00:00 | |
| BIOWL1-15 | 2026-08-31 00:28:14 | 47.14694 | 8.04145 | 168° | 11km/h | 26664m | 5m/s | -50.7°C | 0.2% | 0hPa | 2.6V | 18:12:15 | 01:53:30 | 00:00:00 | |
| IW2NTF | 2026-08-31 00:28:14 | 47.14682 | 8.04149 | 141° | 4km/h | 26686m | 6.3m/s | -50.6°C | 3.4% | 0hPa | 2.5V | 08:30:00 | 01:53:34 | 00:00:00 | |
| DL6DJ-15 | 2026-08-31 00:28:13 | 47.14708 | 8.04072 | 286° | 2km/h | 26831m | 6.7m/s | -50.7°C | -1.0% | -1.0hPa | 2.5V | 00:00:00 | 00:00:00 | 00:00:00 | |
| DB0ND-19 | 2026-08-31 00:28:09 | 47.14704 | 8.04093 | 281° | 16km/h | 26786m | 6.5m/s | -50.7°C | 0.8% | -1.0hPa | 2.5V | 00:00:00 | 00:00:00 | 00:00:00 | |
| IW2NTF | 2026-08-31 00:28:03 | 47.14687 | 8.04147 | 171° | 15km/h | 26674m | 5.4m/s | -50.6°C | 3.4% | 0hPa | 2.5V | 08:30:00 | 01:53:32 | 00:00:00 | |
| IW2NTF | 2026-08-31 00:27:52 | 47.14694 | 8.04145 | 168° | 11km/h | 26664m | 5m/s | -50.6°C | 3.5% | 0hPa | 2.6V | 08:30:00 | 01:53:30 | 00:00:00 | |
| BIOWL1-15 | 2026-08-31 00:27:35 | 47.14679 | 8.04148 | 80° | 9km/h | 26604m | 5.6m/s | -50.7°C | 0.2% | 0hPa | 2.6V | 18:12:15 | 01:53:19 | 00:00:00 | |
| IW2NTF | 2026-08-31 00:27:33 | 47.14680 | 8.04150 | 51° | 5km/h | 26610m | 6.4m/s | -50.7°C | 3.5% | 0hPa | 2.6V | 08:30:00 | 01:53:20 | 00:00:00 | |
| DM0DOS-11 | 2026-08-31 00:27:31 | 47.14679 | 8.04144 | 91° | 11km/h | 26598m | 4.7m/s | -50.6°C | 3.5% | 0hPa | 2.5V | 08:30:00 | 01:53:18 | 00:00:00 | |
| IW2NTF | 2026-08-31 00:27:27 | 47.14663 | 8.04153 | 342° | 26km/h | 26554m | 4.2m/s | -50.5°C | 3.5% | 0hPa | 2.5V | 08:30:00 | 01:53:10 | 00:00:00 | |
| BIOWL1-15 | 2026-08-31 00:27:23 | 47.14648 | 8.04164 | 18° | 4km/h | 26511m | 5.7m/s | -50.4°C | 0.1% | 0hPa | 2.6V | 18:12:15 | 01:53:02 | 00:00:00 | |
| DM0DOS-11 | 2026-08-31 00:27:21 | 47.14653 | 8.04158 | 338° | 16km/h | 26544m | 6.2m/s | -50.5°C | 3.5% | 0hPa | 2.6V | 08:30:00 | 01:53:08 | 00:00:00 | |
| DK5PH-5 | 2026-08-31 00:27:21 | 47.14658 | 8.04156 | 343° | 15km/h | 26550m | 4.8m/s | -50.5°C | 3.5% | 0hPa | 2.5V | 00:00:00 | 01:53:09 | 00:00:00 | |
| HASLITAL | 2026-08-31 00:27:18 | 47.14650 | 8.04161 | 325° | 11km/h | 26538m | 5.6m/s | -50.5°C | 0.9% | 0hPa | 2.5V | 00:00:00 | 00:00:00 | 00:00:00 | |
| IW2NTF | 2026-08-31 00:27:13 | 47.14645 | 8.04165 | 334° | 7km/h | 26500m | 4.9m/s | -50.4°C | 3.4% | 0hPa | 2.5V | 08:30:00 | 01:53:00 | 00:00:00 | |
| DL6DJ-15 | 2026-08-31 00:27:11 | 47.14642 | 8.04170 | 297° | 13km/h | 26489m | 6.3m/s | 0°C | -1.0% | -1.0hPa | 2.6V | 00:00:00 | 00:00:00 | 00:00:00 | |
| BIOWL9-15 | 2026-08-31 00:27:10 | 47.14640 | 8.04176 | 295° | 16km/h | 26483m | 5.5m/s | -50.4°C | 0.8% | -1.0hPa | 2.6V | 00:00:00 | 00:00:00 | 00:00:00 | |
| IW2NTF | 2026-08-31 00:27:07 | 47.14617 | 8.04210 | 315° | 5km/h | 26442m | 5.2m/s | -50.5°C | 3.4% | 0hPa | 2.6V | 08:30:00 | 01:52:50 | 00:00:00 | |
| DM0DOS-11 | 2026-08-31 00:27:07 | 47.14621 | 8.04205 | 323° | 16km/h | 26454m | 6.1m/s | -50.4°C | 3.4% | 0hPa | 2.5V | 08:30:00 | 01:52:52 | 00:00:00 | |
| BIOWL1-15 | 2026-08-31 00:27:06 | 47.14630 | 8.04195 | 317° | 24km/h | 26465m | 5.4m/s | -50.4°C | 0.1% | 0hPa | 2.5V | 18:12:15 | 01:52:54 | 00:00:00 | |
| DB0ND-19 | 2026-08-31 00:27:03 | 47.14619 | 8.04208 | 321° | 11km/h | 26448m | 6.4m/s | -50.4°C | 0.8% | -1.0hPa | 2.5V | 00:00:00 | 00:00:00 | 00:00:00 | |
| DB0UT-7 | 2026-08-31 00:26:58 | 47.14611 | 8.04218 | 316° | 24km/h | 26421m | 5.6m/s | -50.5°C | 3.4% | 0hPa | 2.5V | 00:00:00 | 00:00:00 | 00:00:00 | |
| DM0DOS-11 | 2026-08-31 00:26:57 | 47.14601 | 8.04244 | 291° | 26km/h | 26397m | 5m/s | -50.5°C | 3.4% | 0hPa | 2.5V | 08:30:00 | 01:52:42 | 00:00:00 | |
| BIOWL1-15 | 2026-08-31 00:26:56 | 47.14606 | 8.04228 | 299° | 20km/h | 26409m | 6.4m/s | -50.5°C | 0.1% | 0hPa | 2.5V | 18:12:15 | 01:52:44 | 00:00:00 | |
| IW2NTF | 2026-08-31 00:26:53 | 47.14595 | 8.04262 | 301° | 29km/h | 26386m | 6.7m/s | -50.5°C | 3.4% | 0hPa | 2.6V | 08:30:00 | 01:52:40 | 00:00:00 | |
| DB0NH | 2026-08-31 00:26:53 | 47.14599 | 8.04253 | 296° | 24km/h | 26392m | 5.5m/s | 0°C | 0% | 0hPa | 2.5V | 00:00:00 | 01:52:41 | 08:30:00 | |
| DK5PH-5 | 2026-08-31 00:26:51 | 47.14591 | 8.04271 | 308° | 26km/h | 26380m | 5.5m/s | -50.4°C | 3.4% | 0hPa | 2.5V | 00:00:00 | 01:52:39 | 00:00:00 | |
| IW2NTF | 2026-08-31 00:26:47 | 47.14568 | 8.04328 | 283° | 26km/h | 26328m | 6.5m/s | -50.5°C | 3.4% | 0hPa | 2.5V | 08:30:00 | 01:52:30 | 00:00:00 | |
| BIOWL1-15 | 2026-08-31 00:26:46 | 47.14552 | 8.04394 | 310° | 31km/h | 26294m | 5.2m/s | -50.6°C | 0.1% | 0hPa | 2.5V | 18:12:15 | 01:52:24 | 00:00:00 | |
| DH7VM-15 | 2026-08-31 00:26:45 | 47.14575 | 8.04302 | 298° | 13km/h | 26351m | 5.0m/s | -50.5°C | 0.8% | 0hPa | 2.6V | 00:00:00 | 00:00:00 | 00:00:00 | |
| DF3TZ-5 | 2026-08-31 00:26:43 | 47.14565 | 8.04349 | 279° | 31km/h | 26316m | 4.6m/s | -50.6°C | 0.8% | -1.0hPa | 2.6V | 00:00:00 | 00:00:00 | 00:00:00 | |
| BIOWL9-15 | 2026-08-31 00:26:38 | 47.14561 | 8.04373 | 292° | 33km/h | 26306m | 6.6m/s | -50.6°C | 0.8% | -1.0hPa | 2.6V | 00:00:00 | 00:00:00 | 00:00:00 | |
| DM0DOS-11 | 2026-08-31 00:26:37 | 47.14544 | 8.04408 | 309° | 20km/h | 26282m | 6.6m/s | -50.7°C | 3.4% | 0hPa | 2.6V | 08:30:00 | 01:52:22 | 00:00:00 | |
| HASLITAL | 2026-08-31 00:26:36 | 47.14556 | 8.04384 | 304° | 33km/h | 26300m | 5.8m/s | -50.6°C | 0.9% | 0hPa | 2.5V | 00:00:00 | 00:00:00 | 00:00:00 | |
| BIOWL7-15 | 2026-08-31 00:26:34 | 47.14547 | 8.04401 | 313° | 26km/h | 26289m | 5.8m/s | -50.7°C | 0% | 0hPa | 2.5V | 00:00:00 | 00:00:00 | 00:00:00 | |
| IW2NTF | 2026-08-31 00:26:33 | 47.14539 | 8.04418 | 298° | 15km/h | 26271m | 4.8m/s | -50.7°C | 3.4% | 0hPa | 2.5V | 08:30:00 | 01:52:20 | 00:00:00 | |
| BIOWL1-15 | 2026-08-31 00:26:30 | 47.14533 | 8.04438 | 288° | 24km/h | 26255m | 4.9m/s | -50.8°C | 0.1% | 0hPa | 2.6V | 18:12:15 | 01:52:17 | 00:00:00 | |
| DB0UT-7 | 2026-08-31 00:26:28 | 47.14531 | 8.04447 | 282° | 26km/h | 26250m | 5.3m/s | -50.8°C | 3.4% | 0hPa | 2.6V | 00:00:00 | 01:52:16 | 00:00:00 | |
| IW2NTF | 2026-08-31 00:26:27 | 47.14527 | 8.04517 | 290° | 29km/h | 26215m | 5.9m/s | -51°C | 3.4% | 0hPa | 2.5V | 08:30:00 | 01:52:10 | 00:00:00 | |
| DM0DOS-11 | 2026-08-31 00:26:27 | 47.14530 | 8.04494 | 273° | 33km/h | 26227m | 4.6m/s | -51°C | 3.4% | 0hPa | 2.6V | 08:30:00 | 01:52:12 | 00:00:00 | |
| BIOWL1-15 | 2026-08-31 00:26:19 | 47.14523 | 8.04560 | 245° | 18km/h | 26182m | 5.3m/s | -51.1°C | 0.2% | 0hPa | 2.5V | 18:12:15 | 01:52:04 | 00:00:00 | |
| HASLITAL | 2026-08-31 00:26:15 | 47.14523 | 8.04560 | 246° | 18km/h | 26182m | 5.3m/s | -51.1°C | 0.9% | 0hPa | 2.6V | 00:00:00 | 00:00:00 | 00:00:00 | |
| IW2NTF | 2026-08-31 00:26:13 | 47.14529 | 8.04590 | 253° | 27km/h | 26159m | 5.7m/s | -51.2°C | 3.5% | 0hPa | 2.6V | 08:30:00 | 01:52:00 | 00:00:00 | |
| DM0DOS-11 | 2026-08-31 00:26:11 | 47.14536 | 8.04622 | 255° | 31km/h | 26142m | 4.8m/s | -51.3°C | 3.5% | 0hPa | 2.5V | 08:30:00 | 01:51:57 | 00:00:00 | |
| BIOWL1-15 | 2026-08-31 00:26:08 | 47.14538 | 8.04633 | 263° | 29km/h | 26137m | 6m/s | -51.3°C | 0.2% | 0hPa | 2.5V | 18:12:15 | 01:51:56 | 00:00:00 | |
| BIOWL9-15 | 2026-08-31 00:26:07 | 47.14538 | 8.04643 | 271° | 27km/h | 26131m | 6.3m/s | -51.3°C | 0.8% | -1.0hPa | 2.5V | 00:00:00 | 00:00:00 | 00:00:00 | |
| DB0NH | 2026-08-31 00:26:05 | 47.14537 | 8.04663 | 274° | 18km/h | 26120m | 4.5m/s | 0°C | 0% | 0hPa | 2.5V | 00:00:00 | 01:51:53 | 00:00:00 | |
| IW2NTF | 2026-08-31 00:26:03 | 47.14541 | 8.04685 | 233° | 20km/h | 26103m | 5.5m/s | -51.3°C | 3.5% | 0hPa | 2.5V | 08:30:00 | 01:51:50 | 00:00:00 | |
| BIOWL1-15 | 2026-08-31 00:25:57 | 47.14564 | 8.04739 | 253° | 29km/h | 26052m | 5.6m/s | -51.4°C | 0.2% | 0hPa | 2.5V | 18:12:15 | 01:51:41 | 00:00:00 | |
| HASLITAL | 2026-08-31 00:25:54 | 47.14558 | 8.04721 | 242° | 24km/h | 26064m | 6.2m/s | -51.3°C | 0.9% | 0hPa | 2.5V | 00:00:00 | 00:00:00 | 00:00:00 | |
| IW2NTF | 2026-08-31 00:25:53 | 47.14565 | 8.04750 | 260° | 29km/h | 26046m | 6.6m/s | -51.4°C | 3.6% | 0hPa | 2.5V | 08:30:00 | 01:51:40 | 00:00:00 | |
| DF7PN | 2026-08-31 00:25:51 | 47.14567 | 8.04771 | 267° | 24km/h | 26035m | 4.0m/s | -51.4°C | 0.8% | -1.0hPa | 2.6V | 00:00:00 | 00:00:00 | 00:00:00 | |
| DL1ZP-14 | 2026-08-31 00:25:49 | 47.14567 | 8.04780 | 259° | 22km/h | 26031m | 5.1m/s | -51.4°C | 0.8% | -1.0hPa | 2.6V | 00:00:00 | 00:00:00 | 00:00:00 | |
| BIOWL1-15 | 2026-08-31 00:25:45 | 47.14580 | 8.04802 | 231° | 5km/h | 25996m | 5m/s | -51.4°C | 0.3% | 0hPa | 2.6V | 18:12:15 | 01:51:31 | 00:00:00 | |
| IW2NTF | 2026-08-31 00:25:43 | 47.14581 | 8.04803 | 249° | 5km/h | 25992m | 4.8m/s | -51.4°C | 3.6% | 0hPa | 2.5V | 08:30:00 | 01:51:30 | 00:00:00 | |
| BIOWL1-15 | 2026-08-31 00:25:37 | 47.14581 | 8.04851 | 242° | 11km/h | 25942m | 6.2m/s | -51.4°C | 0.2% | 0hPa | 2.6V | 18:12:15 | 01:51:21 | 00:00:00 | |
| IW2NTF | 2026-08-31 00:25:33 | 47.14583 | 8.04854 | 217° | 11km/h | 25936m | 4.8m/s | -51.4°C | 3.6% | 0hPa | 2.6V | 08:30:00 | 01:51:20 | 00:00:00 | |
| BIOWL1-15 | 2026-08-31 00:25:22 | 47.14583 | 8.04906 | 312° | 20km/h | 25873m | 4m/s | -51.3°C | 0.2% | 0hPa | 2.6V | 18:12:15 | 01:51:08 | 00:00:00 | |
| DK5PH-5 | 2026-08-31 00:25:21 | 47.14586 | 8.04901 | 309° | 13km/h | 25878m | 5.5m/s | -51.2°C | 3.6% | 0hPa | 2.5V | 00:00:00 | 01:51:09 | 00:00:00 | |
| DF7PN | 2026-08-31 00:25:20 | 47.14580 | 8.04911 | 310° | 13km/h | 25869m | 4.9m/s | -51.2°C | 0.8% | -1.0hPa | 2.5V | 00:00:00 | 00:00:00 | 00:00:00 | |
| DL1ZP-14 | 2026-08-31 00:25:18 | 47.14578 | 8.04914 | 294° | 7km/h | 25863m | 6.5m/s | -51.2°C | 0.8% | -1.0hPa | 2.5V | 00:00:00 | 00:00:00 | 00:00:00 | |
| IW2NTF | 2026-08-31 00:25:13 | 47.14582 | 8.04924 | 298° | 13km/h | 25831m | 5.8m/s | -51.2°C | 3.5% | 0hPa | 2.5V | 08:30:00 | 01:51:00 | 00:00:00 | |
| BIOWL1-15 | 2026-08-31 00:25:09 | 47.14573 | 8.04957 | 286° | 18km/h | 25803m | 5m/s | -51.2°C | 0.2% | 0hPa | 2.5V | 18:12:15 | 01:50:55 | 00:00:00 | |
| IW2NTF | 2026-08-31 00:25:07 | 47.14570 | 8.04971 | 194° | 5km/h | 25775m | 6m/s | -51.2°C | 3.6% | 0hPa | 2.5V | 08:30:00 | 01:50:50 | 00:00:00 | |
| DM0DOS-11 | 2026-08-31 00:25:06 | 47.14572 | 8.04972 | 199° | 9km/h | 25770m | 4.6m/s | -51.2°C | 3.6% | 0hPa | 2.5V | 08:30:00 | 01:50:49 | 00:00:00 | |
| BIOWL1-15 | 2026-08-31 00:24:58 | 47.14574 | 8.04981 | 291° | 15km/h | 25755m | 6.8m/s | -51.2°C | 0.2% | 0hPa | 2.6V | 18:12:15 | 01:50:46 | 00:00:00 | |
| DB0UT-7 | 2026-08-31 00:24:58 | 47.14574 | 8.04981 | 291° | 18km/h | 25756m | 6.8m/s | -51.1°C | 3.5% | 0hPa | 2.6V | 00:00:00 | 00:00:00 | 00:00:00 | |
| DM0DOS-11 | 2026-08-31 00:24:53 | 47.14563 | 8.05026 | 214° | 5km/h | 25713m | 5.7m/s | -51.1°C | 3.5% | 0hPa | 2.5V | 08:30:00 | 01:50:38 | 00:00:00 | |
| IW2NTF | 2026-08-31 00:24:51 | 47.14563 | 8.05028 | 290° | 4km/h | 25701m | 4.9m/s | -51.2°C | 3.5% | 0hPa | 2.5V | 08:30:00 | 01:50:36 | 00:00:00 | |
| BIOWL1-15 | 2026-08-31 00:24:48 | 47.14563 | 8.05028 | 291° | 4km/h | 25702m | 4.9m/s | -51.2°C | 0.2% | 0hPa | 2.5V | 18:12:15 | 01:50:36 | 00:00:00 | |
| DL1ZP-14 | 2026-08-31 00:24:47 | 47.14563 | 8.05030 | 287° | 7km/h | 25697m | 4.0m/s | -51.3°C | 0.8% | -1.0hPa | 2.6V | 00:00:00 | 00:00:00 | 00:00:00 | |
| DH7VM-15 | 2026-08-31 00:24:45 | 47.14562 | 8.05033 | 275° | 13km/h | 25693m | 5.2m/s | -51.3°C | 0.9% | 0hPa | 2.5V | 00:00:00 | 00:00:00 | 00:00:00 | |
| DM0DOS-11 | 2026-08-31 00:24:42 | 47.14565 | 8.05081 | 274° | 18km/h | 25660m | 5.2m/s | -51.3°C | 3.6% | 0hPa | 2.5V | 08:30:00 | 01:50:28 | 00:00:00 | |
| IW2NTF | 2026-08-31 00:24:41 | 47.14565 | 8.05093 | 262° | 16km/h | 25650m | 5m/s | -51.3°C | 3.6% | 0hPa | 2.5V | 08:30:00 | 01:50:26 | 00:00:00 | |
| BIOWL1-15 | 2026-08-31 00:24:38 | 47.14565 | 8.05093 | 263° | 16km/h | 25650m | 5m/s | -51.3°C | 0.2% | 0hPa | 2.5V | 18:12:15 | 01:50:26 | 00:00:00 | |
| IW2NTF | 2026-08-31 00:24:34 | 47.14585 | 8.05161 | 254° | 26km/h | 25596m | 4.6m/s | -51.2°C | 3.5% | 0hPa | 2.5V | 08:30:00 | 01:50:16 | 00:00:00 | |
| DM0DOS-11 | 2026-08-31 00:24:32 | 47.14581 | 8.05144 | 248° | 22km/h | 25607m | 6.2m/s | -51.2°C | 3.5% | 0hPa | 2.6V | 08:30:00 | 01:50:18 | 00:00:00 | |
| BIOWL1-15 | 2026-08-31 00:24:28 | 47.14585 | 8.05161 | 255° | 26km/h | 25596m | 4.6m/s | -51.2°C | 0.2% | 0hPa | 2.5V | 18:12:15 | 01:50:16 | 00:00:00 | |
| DB0UT-7 | 2026-08-31 00:24:28 | 47.14585 | 8.05161 | 255° | 15km/h | 25596m | 4.5m/s | -51.2°C | 3.5% | 0hPa | 2.5V | 00:00:00 | 01:50:16 | 00:00:00 | |
| DH7VM-15 | 2026-08-31 00:24:24 | 47.14586 | 8.05185 | 283° | 18km/h | 25580m | 6.0m/s | -51.3°C | 0.9% | 0hPa | 2.5V | 00:00:00 | 00:00:00 | 00:00:00 | |
| DM0DOS-11 | 2026-08-31 00:24:22 | 47.14587 | 8.05209 | 231° | 11km/h | 25553m | 5.2m/s | -51.4°C | 3.5% | 0hPa | 2.5V | 08:30:00 | 01:50:08 | 00:00:00 | |
| DK5PH-5 | 2026-08-31 00:24:21 | 47.14586 | 8.05205 | 244° | 15km/h | 25558m | 4.5m/s | -51.3°C | 3.5% | 0hPa | 2.5V | 00:00:00 | 01:50:09 | 00:00:00 | |
| IW2NTF | 2026-08-31 00:24:19 | 47.14591 | 8.05215 | 219° | 11km/h | 25542m | 5.2m/s | -51.5°C | 3.5% | 0hPa | 2.6V | 08:30:00 | 01:50:06 | 00:00:00 | |
| BIOWL1-15 | 2026-08-31 00:24:18 | 47.14591 | 8.05215 | 219° | 11km/h | 25542m | 5.2m/s | -51.5°C | 0.2% | 0hPa | 2.6V | 18:12:15 | 01:50:06 | 00:00:00 | |
| BIOWL1-15 | 2026-08-31 00:24:09 | 47.14595 | 8.05269 | 270° | 13km/h | 25485m | 5.1m/s | -51.9°C | 0.3% | 0hPa | 2.6V | 18:12:15 | 01:49:55 | 00:00:00 | |
| IW2NTF | 2026-08-31 00:24:07 | 47.14595 | 8.05273 | 244° | 13km/h | 25480m | 4.5m/s | -51.9°C | 3.7% | 0hPa | 2.5V | 08:30:00 | 01:49:54 | 00:00:00 | |
| BIOWL9-15 | 2026-08-31 00:24:03 | 47.14603 | 8.05280 | 193° | 13km/h | 25464m | 5.6m/s | -51.9°C | 0.8% | -1.0hPa | 2.6V | 00:00:00 | 00:00:00 | 00:00:00 | |
| DM0DOS-11 | 2026-08-31 00:24:01 | 47.14618 | 8.05297 | 332° | 9km/h | 25426m | 5.9m/s | -52.1°C | 3.7% | 0hPa | 2.6V | 08:30:00 | 01:49:44 | 00:00:00 | |
| BIOWL1-15 | 2026-08-31 00:23:59 | 47.14619 | 8.05295 | 285° | 5km/h | 25433m | 6.7m/s | -52.1°C | 0.3% | 0hPa | 2.5V | 18:12:15 | 01:49:45 | 00:00:00 | |
| DB0ND-19 | 2026-08-31 00:23:57 | 47.14613 | 8.05300 | 324° | 9km/h | 25417m | 4.3m/s | -52.1°C | 0.9% | -1.0hPa | 2.5V | 00:00:00 | 00:00:00 | 00:00:00 | |
| DK5PH-5 | 2026-08-31 00:23:51 | 47.14612 | 8.05311 | 234° | 13km/h | 25401m | 4.5m/s | -52.1°C | 3.8% | 0hPa | 2.5V | 00:00:00 | 01:49:39 | 00:00:00 | |
| DB0NH | 2026-08-31 00:23:50 | 47.14614 | 8.05315 | 214° | 15km/h | 25396m | 5.0m/s | 0°C | 0% | 0hPa | 2.5V | 00:00:00 | 01:49:38 | 00:00:00 | |
| DM0DOS-11 | 2026-08-31 00:23:48 | 47.14632 | 8.05318 | 176° | 18km/h | 25374m | 5.2m/s | 0°C | 0% | 0hPa | 2.5V | 08:30:00 | 01:49:34 | 00:00:00 | |
| BIOWL1-15 | 2026-08-31 00:23:46 | 47.14632 | 8.05318 | 176° | 18km/h | 25374m | 5.2m/s | -52.1°C | 0.4% | 0hPa | 2.5V | 18:12:15 | 01:49:34 | 00:00:00 | |
| DL1ZP-14 | 2026-08-31 00:23:45 | 47.14640 | 8.05319 | 193° | 11km/h | 25364m | 4.8m/s | -52.0°C | 0.9% | -1.0hPa | 2.6V | 00:00:00 | 00:00:00 | 00:00:00 | |
| IW2NTF | 2026-08-31 00:23:41 | 47.14637 | 8.05331 | 241° | 11km/h | 25323m | 4.5m/s | -51.8°C | 3.6% | 0hPa | 2.5V | 08:30:00 | 01:49:24 | 00:00:00 | |
| BIOWL1-15 | 2026-08-31 00:23:36 | 47.14642 | 8.05336 | 190° | 13km/h | 25313m | 6.1m/s | -51.7°C | 0.3% | 0hPa | 2.5V | 18:12:15 | 01:49:22 | 00:00:00 | |
| DM0DOS-11 | 2026-08-31 00:23:36 | 47.14639 | 8.05334 | 216° | 13km/h | 25318m | 4.8m/s | -51.7°C | 3.6% | 0hPa | 2.5V | 08:30:00 | 01:49:23 | 00:00:00 | |
| BIOWL9-15 | 2026-08-31 00:23:32 | 47.14649 | 8.05333 | 154° | 20km/h | 25302m | 4.9m/s | -51.6°C | 0.8% | -1.0hPa | 2.5V | 00:00:00 | 00:00:00 | 00:00:00 | |
| DM0DOS-11 | 2026-08-31 00:23:31 | 47.14669 | 8.05312 | 39° | 11km/h | 25265m | 6.1m/s | -51.5°C | 3.5% | 0hPa | 2.5V | 08:30:00 | 01:49:13 | 00:00:00 | |
| IW2NTF | 2026-08-31 00:23:29 | 47.14671 | 8.05314 | 75° | 7km/h | 25272m | 6.6m/s | -51.5°C | 3.6% | 0hPa | 2.5V | 08:30:00 | 01:49:14 | 00:00:00 | |
| BIOWL1-15 | 2026-08-31 00:23:26 | 47.14670 | 8.05314 | 76° | 7km/h | 25272m | 6.6m/s | -51.5°C | 0.3% | 0hPa | 2.5V | 18:12:15 | 01:49:14 | 00:00:00 | |
| IW2NTF | 2026-08-31 00:23:21 | 47.14668 | 8.05299 | 124° | 16km/h | 25218m | 5.3m/s | -51.8°C | 3.6% | 0hPa | 2.6V | 08:30:00 | 01:49:04 | 00:00:00 | |
| BIOWL1-15 | 2026-08-31 00:23:16 | 47.14651 | 8.05265 | 42° | 15km/h | 25166m | 5.8m/s | -52.1°C | 0.3% | 0hPa | 2.5V | 18:12:15 | 01:48:54 | 00:00:00 | |
| DB0NH | 2026-08-31 00:23:15 | 47.14670 | 8.05295 | 120° | 15km/h | 25213m | 4.6m/s | 0°C | 0% | 0hPa | 2.5V | 00:00:00 | 01:49:03 | 00:00:00 | |
| DL1ZP-14 | 2026-08-31 00:23:14 | 47.14672 | 8.05287 | 105° | 7km/h | 25203m | 5.7m/s | -52.0°C | 0.8% | -1.0hPa | 2.5V | 00:00:00 | 00:00:00 | 00:00:00 | |
| DH7VM-15 | 2026-08-31 00:23:12 | 47.14672 | 8.05287 | 106° | 7km/h | 25203m | 5.7m/s | -52.0°C | 0.9% | 0hPa | 2.5V | 00:00:00 | 00:00:00 | 00:00:00 | |
| IW2NTF | 2026-08-31 00:23:11 | 47.14651 | 8.05265 | 42° | 15km/h | 25165m | 5.8m/s | -52.1°C | 3.7% | 0hPa | 2.5V | 08:30:00 | 01:48:54 | 00:00:00 | |
| DK5PH-5 | 2026-08-31 00:23:11 | 47.14671 | 8.05283 | 28° | 11km/h | 25193m | 4.6m/s | -51.9°C | 3.7% | 0hPa | 2.5V | 00:00:00 | 01:48:59 | 00:00:00 | |
| HASLITAL | 2026-08-31 00:23:09 | 47.14668 | 8.05281 | 27° | 16km/h | 25187m | 6.3m/s | -52.0°C | 1.0% | 0hPa | 2.5V | 00:00:00 | 00:00:00 | 00:00:00 | |
| DF3TZ-5 | 2026-08-31 00:23:06 | 47.14651 | 8.05265 | 42° | 15km/h | 25166m | 5.8m/s | -52.1°C | 0.9% | -1.0hPa | 2.5V | 00:00:00 | 00:00:00 | 00:00:00 | |
| DL6DJ-15 | 2026-08-31 00:23:02 | 47.14646 | 8.05244 | 81° | 9km/h | 25139m | 4.0m/s | 0°C | -1.0% | -1.0hPa | 2.5V | 00:00:00 | 00:00:00 | 00:00:00 | |
| IW2NTF | 2026-08-31 00:23:01 | 47.14638 | 8.05236 | 15° | 15km/h | 25113m | 6.5m/s | -52.1°C | 3.7% | 0hPa | 2.5V | 08:30:00 | 01:48:44 | 00:00:00 | |
| BIOWL1-15 | 2026-08-31 00:22:57 | 47.14641 | 8.05237 | 9° | 11km/h | 25119m | 5m/s | -52.2°C | 0.3% | 0hPa | 2.5V | 18:12:15 | 01:48:45 | 00:00:00 | |
| DB0ND-19 | 2026-08-31 00:22:55 | 47.14634 | 8.05234 | 18° | 18km/h | 25107m | 5.1m/s | -52.1°C | 0.9% | -1.0hPa | 2.5V | 00:00:00 | 00:00:00 | 00:00:00 | |
| IW2NTF | 2026-08-31 00:22:50 | 47.14614 | 8.05223 | 52° | 5km/h | 25061m | 4m/s | -52°C | 3.7% | 0hPa | 2.5V | 08:30:00 | 01:48:34 | 00:00:00 | |
| BIOWL1-15 | 2026-08-31 00:22:46 | 47.14596 | 8.05225 | 24° | 16km/h | 25025m | 4.9m/s | -52°C | 0.3% | 0hPa | 2.5V | 18:12:15 | 01:48:27 | 00:00:00 | |
| DF7PN | 2026-08-31 00:22:44 | 47.14612 | 8.05222 | 332° | 5km/h | 25051m | 5.7m/s | -52.0°C | 0.9% | -1.0hPa | 2.6V | 00:00:00 | 00:00:00 | 00:00:00 | |
| DL1ZP-14 | 2026-08-31 00:22:42 | 47.14607 | 8.05226 | 337° | 13km/h | 25041m | 4.6m/s | -52.0°C | 0.9% | -1.0hPa | 2.6V | 00:00:00 | 00:00:00 | 00:00:00 | |
| DB0NH | 2026-08-31 00:22:41 | 47.14603 | 8.05227 | 353° | 13km/h | 25036m | 5.3m/s | 0°C | 0% | 0hPa | 2.6V | 00:00:00 | 01:48:29 | 00:00:00 | |
| IW2NTF | 2026-08-31 00:22:40 | 47.14587 | 8.05219 | 19° | 7km/h | 25009m | 5m/s | -52°C | 3.7% | 0hPa | 2.6V | 08:30:00 | 01:48:24 | 00:00:00 | |
| BIOWL1-15 | 2026-08-31 00:22:32 | 47.14579 | 8.05218 | 342° | 13km/h | 24988m | 4.7m/s | -51.9°C | 0.3% | 0hPa | 2.5V | 18:12:15 | 01:48:20 | 00:00:00 | |
| IW2NTF | 2026-08-31 00:22:30 | 47.14557 | 8.05239 | 350° | 20km/h | 24957m | 6.2m/s | -51.9°C | 3.6% | 0hPa | 2.5V | 08:30:00 | 01:48:14 | 00:00:00 | |
| BIOWL1-15 | 2026-08-31 00:22:22 | 47.14541 | 8.05236 | 9° | 7km/h | 24937m | 5.5m/s | -52°C | 0.3% | 0hPa | 2.5V | 18:12:15 | 01:48:10 | 00:00:00 | |
| IW2NTF | 2026-08-31 00:22:20 | 47.14531 | 8.05263 | 295° | 24km/h | 24900m | 6.1m/s | -52.1°C | 3.7% | 0hPa | 2.5V | 08:30:00 | 01:48:03 | 00:00:00 | |
| BIOWL1-15 | 2026-08-31 00:22:12 | 47.14523 | 8.05285 | 313° | 20km/h | 24886m | 4.9m/s | -52.1°C | 0.3% | 0hPa | 2.5V | 18:12:15 | 01:48:00 | 00:00:00 | |
| DK5PH-5 | 2026-08-31 00:22:11 | 47.14519 | 8.05289 | 331° | 18km/h | 24881m | 6.1m/s | -52.0°C | 3.7% | 0hPa | 2.5V | 00:00:00 | 01:47:59 | 00:00:00 | |
| IW2NTF | 2026-08-31 00:22:10 | 47.14505 | 8.05298 | 284° | 13km/h | 24850m | 4m/s | -51.9°C | 3.7% | 0hPa | 2.5V | 08:30:00 | 01:47:53 | 00:00:00 | |
| BIOWL1-15 | 2026-08-31 00:22:01 | 47.14497 | 8.05322 | 299° | 24km/h | 24830m | 4.6m/s | -52°C | 0.3% | 0hPa | 2.6V | 18:12:15 | 01:47:49 | 00:00:00 | |
| DL6DJ-15 | 2026-08-31 00:22:00 | 47.14494 | 8.05330 | 295° | 24km/h | 24825m | 5.8m/s | 0°C | -1.0% | -1.0hPa | 2.5V | 00:00:00 | 00:00:00 | 00:00:00 | |
| IW2NTF | 2026-08-31 00:21:58 | 47.14484 | 8.05362 | 313° | 11km/h | 24799m | 4.7m/s | -52.1°C | 3.7% | 0hPa | 2.5V | 08:30:00 | 01:47:43 | 00:00:00 | |
| DB0UT-7 | 2026-08-31 00:21:58 | 47.14490 | 8.05346 | 288° | 20km/h | 24815m | 4.1m/s | -52.0°C | 3.7% | 0hPa | 2.5V | 00:00:00 | 00:00:00 | 00:00:00 | |
| DM0DOS-11 | 2026-08-31 00:21:55 | 47.14480 | 8.05373 | 279° | 15km/h | 24784m | 5.5m/s | -52.1°C | 3.7% | 0hPa | 2.5V | 08:30:00 | 01:47:40 | 00:00:00 | |
| BIOWL1-15 | 2026-08-31 00:21:52 | 47.14477 | 8.05406 | 281° | 29km/h | 24763m | 4.3m/s | -52.2°C | 0.3% | 0hPa | 2.5V | 18:12:15 | 01:47:36 | 00:00:00 | |
| IW2NTF | 2026-08-31 00:21:50 | 47.14476 | 8.05441 | 266° | 31km/h | 24748m | 4.6m/s | -52.1°C | 3.8% | 0hPa | 2.6V | 08:30:00 | 01:47:33 | 00:00:00 | |
| HASLITAL | 2026-08-31 00:21:46 | 47.14476 | 8.05417 | 277° | 31km/h | 24759m | 4.5m/s | -52.2°C | 1.0% | 0hPa | 2.5V | 00:00:00 | 00:00:00 | 00:00:00 | |
| DM0DOS-11 | 2026-08-31 00:21:44 | 47.14478 | 8.05467 | 264° | 15km/h | 24732m | 5.8m/s | -52.1°C | 3.7% | 0hPa | 2.5V | 08:30:00 | 01:47:30 | 00:00:00 | |
| BIOWL1-15 | 2026-08-31 00:21:38 | 47.14487 | 8.05530 | 269° | 24km/h | 24685m | 3.9m/s | -51.9°C | 0.3% | 0hPa | 2.5V | 18:12:15 | 01:47:20 | 00:00:00 | |
| IW2NTF | 2026-08-31 00:21:36 | 47.14487 | 8.05503 | 261° | 24km/h | 24699m | 5.8m/s | -52°C | 3.7% | 0hPa | 2.5V | 08:30:00 | 01:47:23 | 00:00:00 | |
| DM0DOS-11 | 2026-08-31 00:21:32 | 47.14487 | 8.05530 | 269° | 24km/h | 24685m | 3.9m/s | -51.9°C | 3.7% | 0hPa | 2.5V | 08:30:00 | 01:47:20 | 00:00:00 | |
| IW2NTF | 2026-08-31 00:21:30 | 47.14501 | 8.05580 | 274° | 11km/h | 24651m | 5.2m/s | -51.9°C | 3.7% | 0hPa | 2.5V | 08:30:00 | 01:47:13 | 00:00:00 | |
| DB0UT-7 | 2026-08-31 00:21:28 | 47.14496 | 8.05563 | 235° | 13km/h | 24667m | 4.0m/s | -51.8°C | 3.7% | 0hPa | 2.6V | 00:00:00 | 01:47:16 | 00:00:00 | |
| DM0DOS-11 | 2026-08-31 00:21:27 | 47.14499 | 8.05591 | 272° | 9km/h | 24637m | 5.6m/s | -51.8°C | 3.6% | 0hPa | 2.6V | 08:30:00 | 01:47:10 | 00:00:00 | |
| BIOWL1-15 | 2026-08-31 00:21:23 | 47.14500 | 8.05588 | 289° | 9km/h | 24642m | 4.4m/s | -51.9°C | 0.3% | 0hPa | 2.5V | 18:12:15 | 01:47:11 | 00:00:00 | |
| DB0ND-19 | 2026-08-31 00:21:22 | 47.14499 | 8.05591 | 272° | 7km/h | 24637m | 5.6m/s | -51.8°C | 0.9% | -1.0hPa | 2.5V | 00:00:00 | 00:00:00 | 00:00:00 | |
| IW2NTF | 2026-08-31 00:21:20 | 47.14510 | 8.05618 | 225° | 16km/h | 24603m | 5.9m/s | -51.9°C | 3.6% | 0hPa | 2.5V | 08:30:00 | 01:47:03 | 00:00:00 | |
| DM0DOS-11 | 2026-08-31 00:21:15 | 47.14521 | 8.05635 | 245° | 13km/h | 24581m | 5.3m/s | -52°C | 3.7% | 0hPa | 2.6V | 08:30:00 | 01:46:59 | 00:00:00 | |
| BIOWL1-15 | 2026-08-31 00:21:12 | 47.14534 | 8.05674 | 247° | 9km/h | 24537m | 4.7m/s | -52°C | 0.3% | 0hPa | 2.5V | 18:12:15 | 01:46:50 | 00:00:00 | |
| DK5PH-5 | 2026-08-31 00:21:11 | 47.14521 | 8.05635 | 246° | 13km/h | 24581m | 5.3m/s | -52.0°C | 3.7% | 0hPa | 2.6V | 00:00:00 | 01:46:59 | 08:30:00 | |
| IW2NTF | 2026-08-31 00:21:10 | 47.14530 | 8.05662 | 236° | 15km/h | 24553m | 4.3m/s | -52.1°C | 3.7% | 0hPa | 2.6V | 08:30:00 | 01:46:53 | 00:00:00 | |
| DL1ZP-14 | 2026-08-31 00:21:09 | 47.14523 | 8.05644 | 258° | 11km/h | 24572m | 4.4m/s | -52.1°C | 0.9% | -1.0hPa | 2.5V | 00:00:00 | 00:00:00 | 00:00:00 | |
| HASLITAL | 2026-08-31 00:21:06 | 47.14525 | 8.05653 | 240° | 15km/h | 24563m | 4.9m/s | -52.1°C | 1.0% | 0hPa | 2.6V | 00:00:00 | 00:00:00 | 00:00:00 | |
| DM0DOS-11 | 2026-08-31 00:21:03 | 47.14537 | 8.05680 | 221° | 13km/h | 24528m | 5.8m/s | -52°C | 3.7% | 0hPa | 2.6V | 08:30:00 | 01:46:48 | 00:00:00 | |
| DH7VM-15 | 2026-08-31 00:21:01 | 47.14534 | 8.05674 | 248° | 9km/h | 24538m | 4.7m/s | -52.0°C | 1.0% | 0hPa | 2.5V | 00:00:00 | 00:00:00 | 00:00:00 | |
| IW2NTF | 2026-08-31 00:21:00 | 47.14551 | 8.05692 | 228° | 7km/h | 24503m | 5.3m/s | -52.2°C | 3.7% | 0hPa | 2.5V | 08:30:00 | 01:46:43 | 00:00:00 | |
| DB0UT-7 | 2026-08-31 00:20:58 | 47.14543 | 8.05686 | 206° | 11km/h | 24518m | 3.7m/s | -52.1°C | 3.7% | 0hPa | 2.5V | 00:00:00 | 00:00:00 | 00:00:00 | |
| DM0DOS-11 | 2026-08-31 00:20:52 | 47.14554 | 8.05710 | 277° | 13km/h | 24478m | 5.6m/s | -52.3°C | 3.7% | 0hPa | 2.5V | 08:30:00 | 01:46:38 | 00:00:00 | |
| BIOWL1-15 | 2026-08-31 00:20:51 | 47.14553 | 8.05718 | 281° | 11km/h | 24467m | 4.3m/s | -52.3°C | 0.3% | 0hPa | 2.6V | 18:12:15 | 01:46:36 | 00:00:00 | |
| IW2NTF | 2026-08-31 00:20:50 | 47.14556 | 8.05728 | 210° | 15km/h | 24452m | 5m/s | -52.4°C | 3.7% | 0hPa | 2.5V | 08:30:00 | 01:46:33 | 00:00:00 | |
| HASLITAL | 2026-08-31 00:20:45 | 47.14554 | 8.05725 | 234° | 11km/h | 24457m | 6.1m/s | -52.3°C | 1.0% | 0hPa | 2.5V | 00:00:00 | 00:00:00 | 00:00:00 | |
| DM0DOS-11 | 2026-08-31 00:20:41 | 47.14569 | 8.05731 | 151° | 2km/h | 24428m | 4.3m/s | -52.6°C | 3.8% | 0hPa | 2.5V | 08:30:00 | 01:46:28 | 00:00:00 | |
| BIOWL1-15 | 2026-08-31 00:20:40 | 47.14569 | 8.05733 | 296° | 7km/h | 24418m | 5.2m/s | -52.7°C | 0.4% | 0hPa | 2.5V | 18:12:15 | 01:46:26 | 00:00:00 | |
| DF7PN | 2026-08-31 00:20:40 | 47.14569 | 8.05731 | 151° | 0km/h | 24428m | 4.3m/s | -52.6°C | 0.9% | -1.0hPa | 2.5V | 00:00:00 | 00:00:00 | 00:00:00 | |
| IW2NTF | 2026-08-31 00:20:38 | 47.14558 | 8.05749 | 320° | 13km/h | 24394m | 3.7m/s | -52.8°C | 3.8% | 0hPa | 2.5V | 08:30:00 | 01:46:21 | 00:00:00 | |
| DL1ZP-14 | 2026-08-31 00:20:38 | 47.14569 | 8.05733 | 295° | 5km/h | 24418m | 5.2m/s | -52.7°C | 0.9% | -1.0hPa | 2.5V | 00:00:00 | 00:00:00 | 00:00:00 | |
| BIOWL1-15 | 2026-08-31 00:20:27 | 47.14537 | 8.05798 | 261° | 13km/h | 24304m | 4.4m/s | -53.1°C | 0.4% | 0hPa | 2.5V | 18:12:15 | 01:46:03 | 00:00:00 | |
| BIOWL9-15 | 2026-08-31 00:20:27 | 47.14558 | 8.05765 | 333° | 4km/h | 24359m | 4.5m/s | -53.1°C | 0.9% | -1.0hPa | 2.6V | 00:00:00 | 00:00:00 | 00:00:00 | |
| IW2NTF | 2026-08-31 00:20:24 | 47.14544 | 8.05779 | 321° | 16km/h | 24324m | 4.8m/s | -53.1°C | 3.9% | 0hPa | 2.6V | 08:30:00 | 01:46:07 | 00:00:00 | |
| DM0DOS-11 | 2026-08-31 00:20:23 | 47.14547 | 8.05776 | 322° | 15km/h | 24330m | 6m/s | -53.1°C | 3.9% | 0hPa | 2.6V | 08:30:00 | 01:46:08 | 00:00:00 | |
| DB0ND-19 | 2026-08-31 00:20:20 | 47.14547 | 8.05776 | 322° | 13km/h | 24330m | 6.0m/s | -53.1°C | 0.9% | -1.0hPa | 2.6V | 00:00:00 | 00:00:00 | 00:00:00 | |
| BIOWL1-15 | 2026-08-31 00:20:11 | 47.14535 | 8.05849 | 268° | 18km/h | 24241m | 5.5m/s | -53.3°C | 0.4% | 0hPa | 2.6V | 18:12:15 | 01:45:50 | 00:00:00 | |
| DK5PH-5 | 2026-08-31 00:20:11 | 47.14539 | 8.05810 | 265° | 11km/h | 24285m | 4.3m/s | -53.2°C | 3.9% | 0hPa | 2.5V | 00:00:00 | 01:45:59 | 00:00:00 | |
| DF7PN | 2026-08-31 00:20:09 | 47.14540 | 8.05815 | 250° | 7km/h | 24271m | 4.8m/s | -53.2°C | 0.9% | -1.0hPa | 2.5V | 00:00:00 | 00:00:00 | 00:00:00 | |
| IW2NTF | 2026-08-31 00:20:08 | 47.14539 | 8.05828 | 292° | 18km/h | 24255m | 5.1m/s | -53.2°C | 3.8% | 0hPa | 2.5V | 08:30:00 | 01:45:53 | 00:00:00 | |
| DL1ZP-14 | 2026-08-31 00:20:07 | 47.14541 | 8.05818 | 270° | 9km/h | 24266m | 4.5m/s | -53.2°C | 0.9% | -1.0hPa | 2.6V | 00:00:00 | 00:00:00 | 00:00:00 | |
| DM0DOS-11 | 2026-08-31 00:20:05 | 47.14537 | 8.05835 | 289° | 20km/h | 24250m | 3.9m/s | -53.2°C | 3.8% | 0hPa | 2.5V | 08:30:00 | 01:45:52 | 00:00:00 | |
| BIOWL1-15 | 2026-08-31 00:20:03 | 47.14540 | 8.05861 | 203° | 11km/h | 24226m | 5.8m/s | -53.4°C | 0.4% | 0hPa | 2.5V | 18:12:15 | 01:45:47 | 00:00:00 | |
| DM0DOS-11 | 2026-08-31 00:20:00 | 47.14553 | 8.05859 | 186° | 11km/h | 24200m | 4.1m/s | -53.4°C | 3.9% | 0hPa | 2.5V | 08:30:00 | 01:45:42 | 00:00:00 | |
| BIOWL9-15 | 2026-08-31 00:19:55 | 47.14554 | 8.05859 | 186° | 11km/h | 24200m | 4.1m/s | -53.4°C | 0.9% | -1.0hPa | 2.5V | 00:00:00 | 00:00:00 | 00:00:00 | |
| BIOWL1-15 | 2026-08-31 00:19:49 | 47.14563 | 8.05873 | 113° | 13km/h | 24139m | 5.1m/s | -53.8°C | 0.5% | 0hPa | 2.5V | 18:12:15 | 01:45:30 | 00:00:00 | |
| BIOWL1-15 | 2026-08-31 00:19:31 | 47.14566 | 8.05848 | 70° | 7km/h | 24083m | 6m/s | -53.9°C | 0.5% | 0hPa | 2.5V | 18:12:15 | 01:45:19 | 00:00:00 | |
| DF3TZ-5 | 2026-08-31 00:19:29 | 47.14563 | 8.05839 | 65° | 7km/h | 24068m | 5.1m/s | -53.8°C | 1.0% | -1.0hPa | 2.5V | 00:00:00 | 00:00:00 | 00:00:00 | |
| DB0UT-7 | 2026-08-31 00:19:28 | 47.14563 | 8.05839 | 66° | 13km/h | 24068m | 5.0m/s | -53.8°C | 4.1% | 0hPa | 2.5V | 00:00:00 | 01:45:16 | 00:00:00 | |
| IW2NTF | 2026-08-31 00:19:26 | 47.14550 | 8.05826 | 359° | 15km/h | 24033m | 4.6m/s | -53.7°C | 4% | 0hPa | 2.5V | 08:30:00 | 01:45:09 | 00:00:00 | |
| BIOWL1-15 | 2026-08-31 00:19:20 | 47.14547 | 8.05827 | 353° | 11km/h | 24027m | 5.9m/s | -53.7°C | 0.5% | 0hPa | 2.5V | 18:12:15 | 01:45:08 | 00:00:00 | |
| BIOWL1-15 | 2026-08-31 00:19:09 | 47.14524 | 8.05810 | 40° | 13km/h | 23972m | 6m/s | -53.6°C | 0.5% | 0hPa | 2.5V | 18:12:15 | 01:44:57 | 00:00:00 | |
| IW2NTF | 2026-08-31 00:19:09 | 47.14508 | 8.05805 | 349° | 18km/h | 23951m | 4.8m/s | -53.5°C | 3.9% | 0hPa | 2.6V | 08:30:00 | 01:44:53 | 00:00:00 | |
| DF7PN | 2026-08-31 00:19:07 | 47.14513 | 8.05804 | 0° | 16km/h | 23956m | 6.1m/s | -53.5°C | 1.0% | -1.0hPa | 2.6V | 00:00:00 | 00:00:00 | 00:00:00 | |
| DL1ZP-14 | 2026-08-31 00:19:05 | 47.14508 | 8.05805 | 349° | 16km/h | 23951m | 4.8m/s | -53.5°C | 0.9% | -1.0hPa | 2.6V | 00:00:00 | 00:00:00 | 00:00:00 | |
| HASLITAL | 2026-08-31 00:19:02 | 47.14499 | 8.05807 | 351° | 20km/h | 23941m | 6.2m/s | -53.5°C | 1.1% | 0hPa | 2.5V | 00:00:00 | 00:00:00 | 00:00:00 | |
| IW2NTF | 2026-08-31 00:19:00 | 47.14472 | 8.05803 | 28° | 18km/h | 23899m | 5.3m/s | -53.5°C | 3.9% | 0hPa | 2.5V | 08:30:00 | 01:44:43 | 00:00:00 | |
| BIOWL1-15 | 2026-08-31 00:18:58 | 47.14480 | 8.05810 | 13° | 9km/h | 23914m | 4m/s | -53.5°C | 0.4% | 0hPa | 2.5V | 18:12:15 | 01:44:46 | 00:00:00 | |
| BIOWL1-15 | 2026-08-31 00:18:47 | 47.14435 | 8.05825 | 319° | 26km/h | 23859m | 4.9m/s | -53.6°C | 0.5% | 0hPa | 2.6V | 18:12:15 | 01:44:35 | 00:00:00 | |
| DB0ND-19 | 2026-08-31 00:18:47 | 47.14435 | 8.05825 | 318° | 26km/h | 23859m | 4.9m/s | -53.6°C | 1.0% | -1.0hPa | 2.6V | 00:00:00 | 00:00:00 | 00:00:00 | |
| BIOWL1-15 | 2026-08-31 00:18:37 | 47.14384 | 8.05857 | 317° | 26km/h | 23802m | 4.7m/s | -53.8°C | 0.5% | 0hPa | 2.6V | 18:12:15 | 01:44:24 | 00:00:00 | |
| DF7PN | 2026-08-31 00:18:36 | 47.14379 | 8.05864 | 317° | 27km/h | 23797m | 6.1m/s | -53.8°C | 1.0% | -1.0hPa | 2.6V | 00:00:00 | 00:00:00 | 00:00:00 | |
| DM0DOS-11 | 2026-08-31 00:18:32 | 47.14360 | 8.05891 | 308° | 22km/h | 23776m | 6m/s | -53.8°C | 4% | 0hPa | 2.6V | 08:30:00 | 01:44:19 | 00:00:00 | |
| DB0UT-7 | 2026-08-31 00:18:28 | 47.14350 | 8.05906 | 332° | 18km/h | 23760m | 6.1m/s | -53.7°C | 4.0% | 0hPa | 2.5V | 00:00:00 | 01:44:16 | 00:00:00 | |
| DM0DOS-11 | 2026-08-31 00:18:27 | 47.14318 | 8.05933 | 317° | 22km/h | 23724m | 5.6m/s | -53.8°C | 4.1% | 0hPa | 2.5V | 08:30:00 | 01:44:09 | 00:00:00 | |
| BIOWL1-15 | 2026-08-31 00:18:26 | 47.14326 | 8.05922 | 321° | 22km/h | 23734m | 4.6m/s | -53.7°C | 0.5% | 0hPa | 2.5V | 18:12:15 | 01:44:11 | 00:00:00 | |
| BIOWL1-15 | 2026-08-31 00:18:15 | 47.14287 | 8.05998 | 336° | 20km/h | 23680m | 4.4m/s | -53.8°C | 0.6% | 0hPa | 2.5V | 18:12:15 | 01:44:00 | 00:00:00 | |
| DK5PH-5 | 2026-08-31 00:18:11 | 47.14283 | 8.06000 | 340° | 15km/h | 23676m | 5.2m/s | -53.7°C | 4.0% | 0hPa | 2.5V | 00:00:00 | 01:43:59 | 00:00:00 | |
| DM0DOS-11 | 2026-08-31 00:18:08 | 47.14271 | 8.06028 | 268° | 18km/h | 23634m | 5.5m/s | -53.6°C | 3.9% | 0hPa | 2.5V | 08:30:00 | 01:43:51 | 00:00:00 | |
| BIOWL1-15 | 2026-08-31 00:18:02 | 47.14269 | 8.06048 | 300° | 18km/h | 23620m | 5.9m/s | -53.7°C | 0.5% | 0hPa | 2.5V | 18:12:15 | 01:43:48 | 00:00:00 | |
| HASLITAL | 2026-08-31 00:18:01 | 47.14271 | 8.06035 | 273° | 18km/h | 23629m | 3.8m/s | -53.6°C | 1.1% | 0hPa | 2.5V | 00:00:00 | 00:00:00 | 00:00:00 | |
| DM0DOS-11 | 2026-08-31 00:17:58 | 47.14253 | 8.06077 | 275° | 13km/h | 23585m | 4.9m/s | -53.9°C | 4% | 0hPa | 2.5V | 08:30:00 | 01:43:41 | 00:00:00 | |
| BIOWL1-15 | 2026-08-31 00:17:49 | 47.14246 | 8.06123 | 310° | 18km/h | 23545m | 6m/s | -54°C | 0.6% | 0hPa | 2.6V | 18:12:15 | 01:43:33 | 00:00:00 | |
| DM0DOS-11 | 2026-08-31 00:17:48 | 47.14239 | 8.06131 | 332° | 16km/h | 23535m | 4.6m/s | -54°C | 4.1% | 0hPa | 2.5V | 08:30:00 | 01:43:31 | 00:00:00 | |
| DB0ND-19 | 2026-08-31 00:17:45 | 47.14246 | 8.06123 | 310° | 16km/h | 23546m | 6.0m/s | -54.0°C | 1.0% | -1.0hPa | 2.6V | 00:00:00 | 00:00:00 | 00:00:00 | |
| DK5PH-5 | 2026-08-31 00:17:41 | 47.14233 | 8.06136 | 318° | 11km/h | 23525m | 5.6m/s | -53.9°C | 4.0% | 0hPa | 2.6V | 00:00:00 | 01:43:29 | 00:00:00 | |
| HASLITAL | 2026-08-31 00:17:40 | 47.14233 | 8.06136 | 319° | 9km/h | 23525m | 5.6m/s | -54.0°C | 1.1% | 0hPa | 2.6V | 00:00:00 | 00:00:00 | 00:00:00 | |
| DM0DOS-11 | 2026-08-31 00:17:38 | 47.14230 | 8.06160 | 258° | 7km/h | 23486m | 4.2m/s | -54°C | 4.1% | 0hPa | 2.6V | 08:30:00 | 01:43:21 | 00:00:00 | |
| BIOWL1-15 | 2026-08-31 00:17:36 | 47.14230 | 8.06157 | 262° | 9km/h | 23491m | 5.8m/s | -54°C | 0.5% | 0hPa | 2.6V | 18:12:15 | 01:43:22 | 00:00:00 | |
| DF7PN | 2026-08-31 00:17:34 | 47.14230 | 8.06160 | 258° | 5km/h | 23486m | 4.3m/s | -54.0°C | 1.0% | -1.0hPa | 2.5V | 00:00:00 | 00:00:00 | 00:00:00 | |
| DL1ZP-14 | 2026-08-31 00:17:32 | 47.14229 | 8.06163 | 347° | 5km/h | 23478m | 5.6m/s | -54.1°C | 1.0% | -1.0hPa | 2.5V | 00:00:00 | 00:00:00 | 00:00:00 | |
| DM0DOS-11 | 2026-08-31 00:17:28 | 47.14215 | 8.06175 | 281° | 16km/h | 23439m | 4.7m/s | -54.2°C | 4% | 0hPa | 2.5V | 08:30:00 | 01:43:11 | 00:00:00 | |
| BIOWL1-15 | 2026-08-31 00:17:23 | 47.14215 | 8.06175 | 281° | 16km/h | 23439m | 4.7m/s | -54.2°C | 0.5% | 0hPa | 2.5V | 18:12:15 | 01:43:11 | 00:00:00 | |
| BIOWL9-15 | 2026-08-31 00:17:20 | 47.14206 | 8.06192 | 343° | 11km/h | 23421m | 4.8m/s | -54.3°C | 1.0% | -1.0hPa | 2.5V | 00:00:00 | 00:00:00 | 00:00:00 | |
| DM0DOS-11 | 2026-08-31 00:17:14 | 47.14179 | 8.06194 | 332° | 9km/h | 23375m | 3.7m/s | -54.3°C | 4% | 0hPa | 2.5V | 08:30:00 | 01:42:57 | 00:00:00 | |
| BIOWL1-15 | 2026-08-31 00:17:13 | 47.14173 | 8.06196 | 354° | 15km/h | 23365m | 5.6m/s | -54.3°C | 0.5% | 0hPa | 2.5V | 18:12:15 | 01:42:55 | 00:00:00 | |
| DK5PH-5 | 2026-08-31 00:17:11 | 47.14183 | 8.06190 | 331° | 20km/h | 23384m | 5.1m/s | -54.2°C | 4.0% | 0hPa | 2.6V | 00:00:00 | 01:42:59 | 00:00:00 | |
| DF7PN | 2026-08-31 00:17:02 | 47.14153 | 8.06196 | 351° | 18km/h | 23340m | 4.4m/s | -54.4°C | 1.0% | -1.0hPa | 2.6V | 00:00:00 | 00:00:00 | 00:00:00 | |
| DM0DOS-11 | 2026-08-31 00:17:01 | 47.14135 | 8.06202 | 343° | 26km/h | 23325m | 3.9m/s | -54.5°C | 4.1% | 0hPa | 2.6V | 08:30:00 | 01:42:47 | 00:00:00 | |
| BIOWL1-15 | 2026-08-31 00:17:01 | 47.14147 | 8.06197 | 348° | 22km/h | 23335m | 5.9m/s | -54.4°C | 0.5% | 0hPa | 2.5V | 18:12:15 | 01:42:49 | 00:00:00 | |
| DL1ZP-14 | 2026-08-31 00:17:01 | 47.14141 | 8.06200 | 344° | 26km/h | 23329m | 4.9m/s | -54.4°C | 1.0% | -1.0hPa | 2.6V | 00:00:00 | 00:00:00 | 00:00:00 | |
| DF3TZ-5 | 2026-08-31 00:16:53 | 47.14076 | 8.06213 | 352° | 24km/h | 23274m | 4.1m/s | -54.9°C | 1.1% | -1.0hPa | 2.5V | 00:00:00 | 00:00:00 | 00:00:00 | |
| DM0DOS-11 | 2026-08-31 00:16:51 | 47.14082 | 8.06212 | 355° | 22km/h | 23278m | 4.4m/s | -54.9°C | 4.2% | 0hPa | 2.5V | 08:30:00 | 01:42:37 | 00:00:00 | |
| BIOWL1-15 | 2026-08-31 00:16:50 | 47.14088 | 8.06211 | 359° | 22km/h | 23282m | 5.3m/s | -54.9°C | 0.6% | 0hPa | 2.5V | 18:12:15 | 01:42:38 | 00:00:00 | |
| DL6DJ-15 | 2026-08-31 00:16:49 | 47.14076 | 8.06213 | 352° | 24km/h | 23274m | 4.1m/s | 0°C | -1.0% | -1.0hPa | 2.5V | 00:00:00 | 00:00:00 | 00:00:00 | |
| BIOWL9-15 | 2026-08-31 00:16:48 | 47.14076 | 8.06213 | 352° | 24km/h | 23274m | 4.1m/s | -54.9°C | 1.1% | -1.0hPa | 2.5V | 00:00:00 | 00:00:00 | 00:00:00 | |
| DH7VM-15 | 2026-08-31 00:16:45 | 47.14062 | 8.06216 | 349° | 31km/h | 23264m | 4.9m/s | -55.1°C | 1.2% | 0hPa | 2.5V | 00:00:00 | 00:00:00 | 00:00:00 | |
| DM0DOS-11 | 2026-08-31 00:16:41 | 47.14021 | 8.06236 | 348° | 22km/h | 23229m | 5.1m/s | -55.2°C | 4.3% | 0hPa | 2.5V | 08:30:00 | 01:42:27 | 00:00:00 | |
| BIOWL1-15 | 2026-08-31 00:16:39 | 47.14015 | 8.06238 | 351° | 24km/h | 23225m | 3.9m/s | -55.3°C | 0.7% | 0hPa | 2.5V | 18:12:15 | 01:42:26 | 00:00:00 | |
| BIOWL1-15 | 2026-08-31 00:16:33 | 47.13956 | 8.06272 | 333° | 29km/h | 23183m | 5.4m/s | -55.3°C | 0.7% | 0hPa | 2.5V | 18:12:15 | 01:42:17 | 00:00:00 | |
| BIOWL1-15 | 2026-08-31 00:16:18 | 47.13905 | 8.06332 | 318° | 26km/h | 23132m | 5.3m/s | -55.2°C | 0.7% | 0hPa | 2.5V | 18:12:15 | 01:42:06 | 00:00:00 | |
| DM0DOS-11 | 2026-08-31 00:16:17 | 47.13876 | 8.06373 | 312° | 22km/h | 23105m | 4.4m/s | -55.2°C | 4.3% | 0hPa | 2.5V | 08:30:00 | 01:42:00 | 00:00:00 | |
| BIOWL1-15 | 2026-08-31 00:16:07 | 47.13858 | 8.06397 | 309° | 15km/h | 23080m | 5.2m/s | -55.2°C | 0.7% | 0hPa | 2.6V | 18:12:15 | 01:41:55 | 00:00:00 | |
| DO3MHA-11 | 2026-08-31 00:16:06 | 47.13856 | 8.06401 | 305° | 18km/h | 23076m | 3.8m/s | -55.1°C | 4.3% | 0hPa | 2.5V | 00:00:00 | 01:41:54 | 00:00:00 | |
| DM0DOS-11 | 2026-08-31 00:16:04 | 47.13834 | 8.06438 | 307° | 22km/h | 23048m | 4.6m/s | -55.2°C | 4.3% | 0hPa | 2.5V | 08:30:00 | 01:41:48 | 00:00:00 | |
| BIOWL1-15 | 2026-08-31 00:15:56 | 47.13816 | 8.06475 | 301° | 26km/h | 23023m | 5.5m/s | -55.2°C | 0.7% | 0hPa | 2.5V | 18:12:15 | 01:41:43 | 00:00:00 | |
| DM0DOS-11 | 2026-08-31 00:15:54 | 47.13802 | 8.06511 | 305° | 24km/h | 22999m | 4.6m/s | -55.2°C | 4.3% | 0hPa | 2.6V | 08:30:00 | 01:41:38 | 00:00:00 | |
| DF3TZ-5 | 2026-08-31 00:15:51 | 47.13805 | 8.06504 | 302° | 22km/h | 23004m | 5.4m/s | -55.2°C | 1.1% | -1.0hPa | 2.6V | 00:00:00 | 00:00:00 | 00:00:00 | |
| BIOWL1-15 | 2026-08-31 00:15:46 | 47.13776 | 8.06593 | 288° | 20km/h | 22952m | 4.3m/s | -55.5°C | 0.7% | 0hPa | 2.6V | 18:12:15 | 01:41:28 | 00:00:00 | |
| BIOWL9-15 | 2026-08-31 00:15:46 | 47.13791 | 8.06540 | 291° | 22km/h | 22980m | 4.0m/s | -55.3°C | 1.1% | -1.0hPa | 2.5V | 00:00:00 | 00:00:00 | 00:00:00 | |
| IW2NTF | 2026-08-31 00:15:44 | 47.13783 | 8.06567 | 294° | 27km/h | 22966m | 3.5m/s | -55.4°C | 4.3% | 0hPa | 2.5V | 08:30:00 | 01:41:31 | 00:00:00 | |
| DM0DOS-11 | 2026-08-31 00:15:41 | 47.13776 | 8.06593 | 287° | 20km/h | 22951m | 4.3m/s | -55.4°C | 4.4% | 0hPa | 2.6V | 08:30:00 | 01:41:28 | 00:00:00 | |
| DK5PH-5 | 2026-08-31 00:15:41 | 47.13777 | 8.06585 | 289° | 11km/h | 22957m | 5.4m/s | -55.4°C | 4.3% | 0hPa | 2.6V | 00:00:00 | 01:41:29 | 00:00:00 | |
| DH7VM-15 | 2026-08-31 00:15:40 | 47.13777 | 8.06585 | 289° | 24km/h | 22957m | 5.5m/s | -55.4°C | 1.2% | 0hPa | 2.6V | 00:00:00 | 00:00:00 | 00:00:00 | |
| IW2NTF | 2026-08-31 00:15:35 | 47.13763 | 8.06623 | 279° | 9km/h | 22917m | 4m/s | -55.5°C | 4.4% | 0hPa | 2.6V | 08:30:00 | 01:41:21 | 00:00:00 | |
| DM0DOS-11 | 2026-08-31 00:15:34 | 47.13761 | 8.06635 | 287° | 15km/h | 22903m | 4.8m/s | -55.6°C | 4.4% | 0hPa | 2.5V | 08:30:00 | 01:41:18 | 00:00:00 | |
| BIOWL1-15 | 2026-08-31 00:15:32 | 47.13761 | 8.06635 | 287° | 15km/h | 22903m | 4.8m/s | -55.6°C | 0.7% | 0hPa | 2.5V | 18:12:15 | 01:41:18 | 00:00:00 | |
| DF7PN | 2026-08-31 00:15:29 | 47.13760 | 8.06640 | 286° | 13km/h | 22899m | 4.4m/s | -55.7°C | 1.1% | -1.0hPa | 2.5V | 00:00:00 | 00:00:00 | 00:00:00 | |
| DB0UT-7 | 2026-08-31 00:15:28 | 47.13759 | 8.06645 | 283° | 11km/h | 22894m | 5.5m/s | -55.6°C | 4.4% | 0hPa | 2.5V | 00:00:00 | 01:41:16 | 00:00:00 | |
| DL1ZP-14 | 2026-08-31 00:15:27 | 47.13758 | 8.06650 | 281° | 11km/h | 22889m | 4.4m/s | -55.6°C | 1.1% | -1.0hPa | 2.5V | 00:00:00 | 00:00:00 | 00:00:00 | |
| DO3MHA-11 | 2026-08-31 00:15:26 | 47.13758 | 8.06653 | 285° | 11km/h | 22884m | 4.3m/s | -55.5°C | 4.3% | 0hPa | 2.6V | 00:00:00 | 01:41:14 | 00:00:00 | |
| IW2NTF | 2026-08-31 00:15:25 | 47.13754 | 8.06667 | 294° | 13km/h | 22869m | 4.5m/s | -55.5°C | 4.3% | 0hPa | 2.6V | 08:30:00 | 01:41:11 | 00:00:00 | |
| DM0DOS-11 | 2026-08-31 00:15:21 | 47.13753 | 8.06674 | 242° | 2km/h | 22853m | 4.4m/s | -55.6°C | 4.4% | 0hPa | 2.5V | 08:30:00 | 01:41:08 | 00:00:00 | |
| BIOWL1-15 | 2026-08-31 00:15:20 | 47.13748 | 8.06687 | 319° | 9km/h | 22818m | 4.1m/s | -55.7°C | 0.7% | 0hPa | 2.5V | 18:12:15 | 01:41:01 | 00:00:00 | |
| DO3MHA-11 | 2026-08-31 00:15:16 | 47.13752 | 8.06680 | 299° | 9km/h | 22834m | 4.4m/s | -55.5°C | 4.4% | 0hPa | 2.6V | 00:00:00 | 01:41:04 | 00:00:00 | |
| BIOWL9-15 | 2026-08-31 00:15:15 | 47.13751 | 8.06683 | 309° | 7km/h | 22829m | 5.8m/s | -55.6°C | 1.1% | -1.0hPa | 2.6V | 00:00:00 | 00:00:00 | 00:00:00 | |
| IW2NTF | 2026-08-31 00:15:14 | 47.13746 | 8.06690 | 314° | 13km/h | 22814m | 5.2m/s | -55.6°C | 4.4% | 0hPa | 2.6V | 08:30:00 | 01:41:00 | 00:00:00 | |
| DM0DOS-11 | 2026-08-31 00:15:11 | 47.13736 | 8.06712 | 291° | 11km/h | 22788m | 4.7m/s | -55.7°C | 4.4% | 0hPa | 2.5V | 08:30:00 | 01:40:55 | 00:00:00 | |
| BIOWL1-15 | 2026-08-31 00:15:10 | 47.13734 | 8.06724 | 279° | 15km/h | 22773m | 5m/s | -55.7°C | 0.8% | 0hPa | 2.5V | 18:12:15 | 01:40:52 | 00:00:00 | |
| LOEBOVI | 2026-08-31 00:15:07 | 47.13737 | 8.06708 | 299° | 13km/h | 22794m | 5.5m/s | -55.7°C | 1.3% | 0hPa | 2.5V | 00:00:00 | 00:00:00 | 00:00:00 | |
| IW2NTF | 2026-08-31 00:15:05 | 47.13732 | 8.06738 | 298° | 11km/h | 22758m | 5.6m/s | -55.6°C | 4.4% | 0hPa | 2.5V | 08:30:00 | 01:40:49 | 00:00:00 | |
| DM0DOS-11 | 2026-08-31 00:15:00 | 47.13723 | 8.06754 | 305° | 18km/h | 22737m | 4.1m/s | -55.5°C | 4.3% | 0hPa | 2.5V | 08:30:00 | 01:40:45 | 00:00:00 | |
| BIOWL1-15 | 2026-08-31 00:14:57 | 47.13719 | 8.06764 | 293° | 13km/h | 22728m | 6m/s | -55.5°C | 0.7% | 0hPa | 2.6V | 18:12:15 | 01:40:43 | 00:00:00 | |
| DO3MHA-11 | 2026-08-31 00:14:56 | 47.13721 | 8.06759 | 300° | 7km/h | 22734m | 3.7m/s | -55.4°C | 4.3% | 0hPa | 2.5V | 00:00:00 | 01:40:44 | 00:00:00 | |
| IW2NTF | 2026-08-31 00:14:54 | 47.13719 | 8.06783 | 288° | 9km/h | 22698m | 3.9m/s | -55.6°C | 4.3% | 0hPa | 2.6V | 08:30:00 | 01:40:37 | 00:00:00 | |
| DF3TZ-5 | 2026-08-31 00:14:49 | 47.13718 | 8.06786 | 304° | 5km/h | 22694m | 5.0m/s | -55.5°C | 1.1% | -1.0hPa | 2.5V | 00:00:00 | 00:00:00 | 00:00:00 | |
| BIOWL1-15 | 2026-08-31 00:14:44 | 47.13712 | 8.06786 | 358° | 11km/h | 22673m | 6m/s | -55.5°C | 0.6% | 0hPa | 2.5V | 18:12:15 | 01:40:32 | 00:00:00 | |
| DO3MHA-11 | 2026-08-31 00:14:44 | 47.13712 | 8.06786 | 359° | 9km/h | 22673m | 6.0m/s | -55.5°C | 4.3% | 0hPa | 2.5V | 00:00:00 | 01:40:32 | 00:00:00 | |
| DM0DOS-11 | 2026-08-31 00:14:40 | 47.13686 | 8.06793 | 346° | 7km/h | 22623m | 5.8m/s | -55.7°C | 4.4% | 0hPa | 2.5V | 08:30:00 | 01:40:22 | 00:00:00 | |
| BIOWL1-15 | 2026-08-31 00:14:34 | 47.13685 | 8.06793 | 350° | 5km/h | 22617m | 4.7m/s | -55.8°C | 0.7% | 0hPa | 2.5V | 18:12:15 | 01:40:21 | 00:00:00 | |
| HASLITAL | 2026-08-31 00:14:33 | 47.13686 | 8.06793 | 347° | 7km/h | 22623m | 5.8m/s | -55.7°C | 1.3% | 0hPa | 2.5V | 00:00:00 | 00:00:00 | 00:00:00 | |
| DO3MHA-11 | 2026-08-31 00:14:32 | 47.13683 | 8.06794 | 336° | 7km/h | 22613m | 4.5m/s | -55.8°C | 4.4% | 0hPa | 2.5V | 00:00:00 | 01:40:20 | 00:00:00 | |
| DB0UT-7 | 2026-08-31 00:14:28 | 47.13677 | 8.06804 | 318° | 11km/h | 22594m | 4.6m/s | -55.8°C | 4.5% | 0hPa | 2.5V | 00:00:00 | 01:40:16 | 08:30:00 | |
| IW2NTF | 2026-08-31 00:14:27 | 47.13669 | 8.06806 | 354° | 7km/h | 22573m | 5.7m/s | -55.9°C | 4.4% | 0hPa | 2.5V | 08:30:00 | 01:40:12 | 00:00:00 | |
| DF7PN | 2026-08-31 00:14:27 | 47.13675 | 8.06806 | 336° | 7km/h | 22589m | 5.5m/s | -55.9°C | 1.1% | -1.0hPa | 2.6V | 00:00:00 | 00:00:00 | 00:00:00 | |
| DL1ZP-14 | 2026-08-31 00:14:25 | 47.13671 | 8.06806 | 5° | 7km/h | 22579m | 4.8m/s | -55.9°C | 1.2% | -1.0hPa | 2.6V | 00:00:00 | 00:00:00 | 00:00:00 | |
| DM0DOS-11 | 2026-08-31 00:14:24 | 47.13665 | 8.06808 | 338° | 9km/h | 22563m | 4.1m/s | -55.9°C | 4.4% | 0hPa | 2.5V | 08:30:00 | 01:40:10 | 00:00:00 | |
| BIOWL1-15 | 2026-08-31 00:14:22 | 47.13652 | 8.06809 | 348° | 16km/h | 22539m | 6.1m/s | -56°C | 0.7% | 0hPa | 2.5V | 18:12:15 | 01:40:05 | 00:00:00 | |
| IW2NTF | 2026-08-31 00:14:19 | 47.13639 | 8.06816 | 340° | 18km/h | 22523m | 5.6m/s | -56°C | 4.5% | 0hPa | 2.6V | 08:30:00 | 01:40:02 | 00:00:00 | |
| DM0DOS-11 | 2026-08-31 00:14:14 | 47.13631 | 8.06819 | 338° | 11km/h | 22513m | 4.6m/s | -56°C | 4.5% | 0hPa | 2.5V | 08:30:00 | 01:40:00 | 00:00:00 | |
| BIOWL1-15 | 2026-08-31 00:14:06 | 47.13623 | 8.06830 | 347° | 7km/h | 22481m | 4.6m/s | -56.1°C | 0.8% | 0hPa | 2.5V | 18:12:15 | 01:39:54 | 00:00:00 | |
| DM0DOS-11 | 2026-08-31 00:14:04 | 47.13614 | 8.06840 | 315° | 16km/h | 22460m | 4.7m/s | -56.1°C | 4.6% | 0hPa | 2.5V | 08:30:00 | 01:39:50 | 00:00:00 | |
| IW2NTF | 2026-08-31 00:14:02 | 47.13609 | 8.06862 | 239° | 13km/h | 22429m | 4.7m/s | -55.9°C | 4.5% | 0hPa | 2.5V | 08:30:00 | 01:39:44 | 00:00:00 | |
| BIOWL1-15 | 2026-08-31 00:13:56 | 47.13609 | 8.06862 | 239° | 13km/h | 22429m | 4.7m/s | -55.9°C | 0.8% | 0hPa | 2.5V | 18:12:15 | 01:39:44 | 00:00:00 | |
| DM0DOS-11 | 2026-08-31 00:13:54 | 47.13615 | 8.06868 | 192° | 2km/h | 22409m | 4m/s | -55.9°C | 4.5% | 0hPa | 2.6V | 08:30:00 | 01:39:40 | 00:00:00 | |
| DL1ZP-14 | 2026-08-31 00:13:54 | 47.13613 | 8.06868 | 200° | 7km/h | 22419m | 6.2m/s | -55.9°C | 1.2% | -1.0hPa | 2.5V | 00:00:00 | 00:00:00 | 00:00:00 | |
| HASLITAL | 2026-08-31 00:13:53 | 47.13612 | 8.06868 | 202° | 7km/h | 22419m | 6.2m/s | -55.9°C | 1.3% | 0hPa | 2.6V | 00:00:00 | 00:00:00 | 00:00:00 | |
| IW2NTF | 2026-08-31 00:13:51 | 47.13605 | 8.06892 | 304° | 16km/h | 22380m | 5.4m/s | -55.9°C | 4.5% | 0hPa | 2.6V | 08:30:00 | 01:39:34 | 00:00:00 | |
| BIOWL1-15 | 2026-08-31 00:13:46 | 47.13605 | 8.06892 | 305° | 16km/h | 22380m | 5.4m/s | -55.9°C | 0.8% | 0hPa | 2.6V | 18:12:15 | 01:39:34 | 00:00:00 | |
| LOEBOVI | 2026-08-31 00:13:43 | 47.13601 | 8.06901 | 298° | 13km/h | 22370m | 4.6m/s | -55.9°C | 1.3% | 0hPa | 2.6V | 00:00:00 | 00:00:00 | 00:00:00 | |
| BIOWL9-15 | 2026-08-31 00:13:42 | 47.13600 | 8.06909 | 263° | 11km/h | 22359m | 5.2m/s | -55.8°C | 1.2% | -1.0hPa | 2.6V | 00:00:00 | 00:00:00 | 00:00:00 | |
| DK5PH-5 | 2026-08-31 00:13:40 | 47.13602 | 8.06917 | 223° | 16km/h | 22349m | 6.0m/s | -55.7°C | 4.4% | 0hPa | 2.6V | 00:00:00 | 01:39:28 | 00:00:00 | |
| IW2NTF | 2026-08-31 00:13:39 | 47.13613 | 8.06941 | 273° | 20km/h | 22318m | 5.1m/s | -55.6°C | 4.5% | 0hPa | 2.5V | 08:30:00 | 01:39:22 | 00:00:00 | |
| BIOWL1-15 | 2026-08-31 00:13:35 | 47.13613 | 8.06934 | 262° | 18km/h | 22323m | 5.2m/s | -55.7°C | 0.8% | 0hPa | 2.6V | 18:12:15 | 01:39:23 | 00:00:00 | |
| DM0DOS-11 | 2026-08-31 00:13:34 | 47.13610 | 8.06966 | 267° | 18km/h | 22298m | 5.1m/s | -55.5°C | 4.4% | 0hPa | 2.6V | 08:30:00 | 01:39:18 | 00:00:00 | |
| HASLITAL | 2026-08-31 00:13:32 | 47.13612 | 8.06948 | 283° | 18km/h | 22312m | 5.9m/s | -55.6°C | 1.3% | 0hPa | 2.6V | 00:00:00 | 00:00:00 | 00:00:00 | |
| IW2NTF | 2026-08-31 00:13:29 | 47.13626 | 8.07002 | 224° | 18km/h | 22267m | 3.7m/s | -55.3°C | 4.3% | 0hPa | 2.6V | 08:30:00 | 01:39:12 | 00:00:00 | |
| BIOWL1-15 | 2026-08-31 00:13:25 | 47.13623 | 8.06997 | 221° | 18km/h | 22271m | 4.5m/s | -55.3°C | 0.7% | 0hPa | 2.5V | 18:12:15 | 01:39:13 | 00:00:00 | |
| DM0DOS-11 | 2026-08-31 00:13:24 | 47.13635 | 8.07027 | 261° | 16km/h | 22246m | 4.5m/s | -55.3°C | 4.4% | 0hPa | 2.5V | 08:30:00 | 01:39:08 | 00:00:00 | |
| BIOWL1-15 | 2026-08-31 00:13:16 | 47.13638 | 8.07055 | 246° | 18km/h | 22216m | 4.8m/s | -55.4°C | 0.7% | 0hPa | 2.5V | 18:12:15 | 01:39:02 | 00:00:00 | |
| IW2NTF | 2026-08-31 00:13:15 | 47.13638 | 8.07055 | 245° | 18km/h | 22216m | 4.8m/s | -55.4°C | 4.5% | 0hPa | 2.5V | 08:30:00 | 01:39:02 | 00:00:00 | |
| BIOWL9-15 | 2026-08-31 00:13:11 | 47.13645 | 8.07073 | 233° | 16km/h | 22201m | 5.5m/s | -55.2°C | 1.2% | -1.0hPa | 2.6V | 00:00:00 | 00:00:00 | 00:00:00 | |
| DK5PH-5 | 2026-08-31 00:13:10 | 47.13648 | 8.07078 | 231° | 11km/h | 22196m | 4.4m/s | -55.1°C | 4.5% | 0hPa | 2.6V | 00:00:00 | 01:38:58 | 00:00:00 | |
| DM0DOS-11 | 2026-08-31 00:13:04 | 47.13662 | 8.07113 | 225° | 11km/h | 22153m | 4.5m/s | -54.9°C | 4.3% | 0hPa | 2.6V | 08:30:00 | 01:38:50 | 00:00:00 | |
| BIOWL1-15 | 2026-08-31 00:13:04 | 47.13664 | 8.07116 | 227° | 11km/h | 22147m | 5.9m/s | -54.9°C | 0.7% | 0hPa | 2.6V | 18:12:15 | 01:38:49 | 00:00:00 | |
| DB0UT-7 | 2026-08-31 00:12:58 | 47.13671 | 8.07125 | 219° | 7km/h | 22131m | 5.9m/s | -54.8°C | 4.3% | 0hPa | 2.5V | 00:00:00 | 00:00:00 | 00:00:00 | |
| DM0DOS-11 | 2026-08-31 00:12:55 | 47.13681 | 8.07145 | 244° | 13km/h | 22094m | 5.4m/s | -54.6°C | 4.2% | 0hPa | 2.5V | 08:30:00 | 01:38:40 | 00:00:00 | |
| BIOWL1-15 | 2026-08-31 00:12:54 | 47.13681 | 8.07149 | 232° | 9km/h | 22087m | 5.5m/s | -54.6°C | 0.6% | 0hPa | 2.5V | 18:12:15 | 01:38:39 | 00:00:00 | |
| DL1ZP-14 | 2026-08-31 00:12:52 | 47.13681 | 8.07145 | 244° | 11km/h | 22094m | 5.4m/s | -54.7°C | 1.1% | -1.0hPa | 2.5V | 00:00:00 | 00:00:00 | 00:00:00 | |
| HASLITAL | 2026-08-31 00:12:50 | 47.13681 | 8.07149 | 233° | 9km/h | 22087m | 5.5m/s | -54.6°C | 1.2% | 0hPa | 2.5V | 00:00:00 | 00:00:00 | 00:00:00 | |
| BIOWL7-15 | 2026-08-31 00:12:45 | 47.13688 | 8.07157 | 198° | 7km/h | 22080m | 4.0m/s | 0°C | 0% | 0hPa | 2.5V | 00:00:00 | 00:00:00 | 00:00:00 | |
| DM0DOS-11 | 2026-08-31 00:12:43 | 47.13693 | 8.07157 | 211° | 4km/h | 22060m | 4.5m/s | -54.5°C | 4.2% | 0hPa | 2.5V | 08:30:00 | 01:38:30 | 00:00:00 | |
| BIOWL1-15 | 2026-08-31 00:12:41 | 47.13693 | 8.07158 | 249° | 5km/h | 22055m | 5.7m/s | -54.5°C | 0.7% | 0hPa | 2.5V | 18:12:15 | 01:38:29 | 00:00:00 | |
| DO3MHA-11 | 2026-08-31 00:12:41 | 47.13693 | 8.07158 | 249° | 7km/h | 22055m | 5.6m/s | -54.5°C | 4.3% | 0hPa | 2.5V | 00:00:00 | 01:38:29 | 00:00:00 | |
| DK5PH-5 | 2026-08-31 00:12:40 | 47.13694 | 8.07160 | 260° | 5km/h | 22050m | 4.3m/s | -54.4°C | 4.3% | 0hPa | 2.6V | 00:00:00 | 01:38:28 | 00:00:00 | |
| DM0DOS-11 | 2026-08-31 00:12:34 | 47.13700 | 8.07177 | 202° | 9km/h | 22011m | 4.5m/s | -54.4°C | 4.2% | 0hPa | 2.6V | 08:30:00 | 01:38:20 | 00:00:00 | |
| BIOWL1-15 | 2026-08-31 00:12:33 | 47.13702 | 8.07178 | 194° | 7km/h | 22006m | 5.5m/s | -54.4°C | 0.6% | 0hPa | 2.5V | 18:12:15 | 01:38:19 | 00:00:00 | |
| DO3MHA-11 | 2026-08-31 00:12:31 | 47.13702 | 8.07178 | 195° | 5km/h | 22007m | 5.5m/s | -54.3°C | 4.2% | 0hPa | 2.6V | 00:00:00 | 01:38:19 | 00:00:00 | |
| HASLITAL | 2026-08-31 00:12:29 | 47.13703 | 8.07178 | 175° | 4km/h | 22001m | 5.1m/s | -54.4°C | 1.2% | 0hPa | 2.6V | 00:00:00 | 00:00:00 | 00:00:00 | |
| DB0UT-7 | 2026-08-31 00:12:28 | 47.13703 | 8.07178 | 302° | 5km/h | 21992m | 4.9m/s | -54.3°C | 4.2% | 0hPa | 2.6V | 00:00:00 | 01:38:16 | 00:00:00 | |
| DH7VM-15 | 2026-08-31 00:12:27 | 47.13703 | 8.07178 | 302° | 4km/h | 21992m | 5.0m/s | -54.3°C | 1.2% | 0hPa | 2.6V | 00:00:00 | 00:00:00 | 00:00:00 | |
| DM0DOS-11 | 2026-08-31 00:12:24 | 47.13699 | 8.07191 | 242° | 4km/h | 21963m | 4.5m/s | -54.3°C | 4.1% | 0hPa | 2.6V | 08:30:00 | 01:38:10 | 00:00:00 | |
| BIOWL1-15 | 2026-08-31 00:12:20 | 47.13702 | 8.07193 | 202° | 9km/h | 21952m | 4.8m/s | -54.2°C | 0.6% | 0hPa | 2.5V | 18:12:15 | 01:38:08 | 00:00:00 | |
| LOEBOVI | 2026-08-31 00:12:20 | 47.13700 | 8.07192 | 217° | 5km/h | 21958m | 6.0m/s | -54.3°C | 1.2% | 0hPa | 2.5V | 00:00:00 | 00:00:00 | 00:00:00 | |
| DM0DOS-11 | 2026-08-31 00:12:15 | 47.13704 | 8.07198 | 315° | 5km/h | 21900m | 5.2m/s | -54.3°C | 4.2% | 0hPa | 2.5V | 08:30:00 | 01:37:57 | 00:00:00 | |
| BIOWL1-15 | 2026-08-31 00:12:09 | 47.13704 | 8.07198 | 316° | 5km/h | 21900m | 5.2m/s | -54.3°C | 0.6% | 0hPa | 2.5V | 18:12:15 | 01:37:57 | 00:00:00 | |
| BIOWL9-15 | 2026-08-31 00:12:09 | 47.13704 | 8.07198 | 315° | 5km/h | 21900m | 5.2m/s | -54.3°C | 1.1% | -1.0hPa | 2.6V | 00:00:00 | 00:00:00 | 00:00:00 | |
| HASLITAL | 2026-08-31 00:12:08 | 47.13704 | 8.07198 | 317° | 5km/h | 21900m | 5.2m/s | -54.3°C | 1.3% | 0hPa | 2.6V | 00:00:00 | 00:00:00 | 00:00:00 | |
| DB0ND-19 | 2026-08-31 00:12:03 | 47.13706 | 8.07199 | 153° | 0km/h | 21861m | 4.5m/s | -54.3°C | 1.1% | -1.0hPa | 2.6V | 00:00:00 | 00:00:00 | 00:00:00 | |
| DM0DOS-11 | 2026-08-31 00:12:02 | 47.13706 | 8.07199 | 61° | 0km/h | 21852m | 5.3m/s | -54.4°C | 4.1% | 0hPa | 2.6V | 08:30:00 | 01:37:47 | 00:00:00 | |
| BIOWL1-15 | 2026-08-31 00:11:58 | 47.13705 | 8.07199 | 53° | 2km/h | 21847m | 5m/s | -54.4°C | 0.6% | 0hPa | 2.6V | 18:12:15 | 01:37:46 | 00:00:00 | |
| DB0UT-7 | 2026-08-31 00:11:58 | 47.13705 | 8.07199 | 53° | 5km/h | 21847m | 5.0m/s | -54.3°C | 4.2% | 0hPa | 2.5V | 00:00:00 | 00:00:00 | 00:00:00 | |
| DM0DOS-11 | 2026-08-31 00:11:52 | 47.13708 | 8.07213 | 218° | 0km/h | 21804m | 5.3m/s | -54.5°C | 4.2% | 0hPa | 2.5V | 08:30:00 | 01:37:37 | 00:00:00 | |
| DF7PN | 2026-08-31 00:11:52 | 47.13708 | 8.07211 | 239° | 2km/h | 21814m | 4.4m/s | -54.4°C | 1.1% | -1.0hPa | 2.5V | 00:00:00 | 00:00:00 | 00:00:00 | |
| DL1ZP-14 | 2026-08-31 00:11:50 | 47.13709 | 8.07213 | 218° | 0km/h | 21804m | 5.3m/s | -54.5°C | 1.1% | -1.0hPa | 2.5V | 00:00:00 | 00:00:00 | 00:00:00 | |
| BIOWL1-15 | 2026-08-31 00:11:46 | 47.13711 | 8.07219 | 233° | 13km/h | 21763m | 4.8m/s | -54.6°C | 0.6% | 0hPa | 2.5V | 18:12:15 | 01:37:28 | 00:00:00 | |
| DF3TZ-5 | 2026-08-31 00:11:43 | 47.13708 | 8.07211 | 244° | 9km/h | 21772m | 4.2m/s | -54.6°C | 1.1% | -1.0hPa | 2.5V | 00:00:00 | 00:00:00 | 00:00:00 | |
| DM0DOS-11 | 2026-08-31 00:11:42 | 47.13713 | 8.07222 | 231° | 9km/h | 21758m | 4.7m/s | -54.5°C | 4.2% | 0hPa | 2.5V | 08:30:00 | 01:37:27 | 00:00:00 | |
| BIOWL1-15 | 2026-08-31 00:11:33 | 47.13711 | 8.07235 | 175° | 5km/h | 21723m | 3.9m/s | -54.6°C | 0.6% | 0hPa | 2.6V | 18:12:15 | 01:37:19 | 00:00:00 | |
| DM0DOS-11 | 2026-08-31 00:11:32 | 47.13714 | 8.07236 | 210° | 7km/h | 21714m | 4.9m/s | -54.6°C | 4.2% | 0hPa | 2.5V | 08:30:00 | 01:37:17 | 00:00:00 | |
| DO3MHA-11 | 2026-08-31 00:11:31 | 47.13711 | 8.07235 | 175° | 5km/h | 21723m | 3.9m/s | -54.6°C | 4.2% | 0hPa | 2.5V | 00:00:00 | 01:37:19 | 00:00:00 | |
| DB0UT-7 | 2026-08-31 00:11:28 | 47.13716 | 8.07238 | 223° | 9km/h | 21709m | 4.1m/s | -54.5°C | 4.2% | 0hPa | 2.5V | 00:00:00 | 01:37:16 | 00:00:00 | |
| HASLITAL | 2026-08-31 00:11:26 | 47.13717 | 8.07239 | 221° | 5km/h | 21705m | 4.5m/s | -54.6°C | 1.2% | 0hPa | 2.6V | 00:00:00 | 00:00:00 | 00:00:00 | |
| DH7VM-15 | 2026-08-31 00:11:23 | 47.13719 | 8.07238 | 81° | 5km/h | 21690m | 4.1m/s | -54.5°C | 1.2% | 0hPa | 2.6V | 00:00:00 | 00:00:00 | 00:00:00 | |
| DM0DOS-11 | 2026-08-31 00:11:22 | 47.13710 | 8.07227 | 46° | 13km/h | 21666m | 5.7m/s | -54.3°C | 4.1% | 0hPa | 2.6V | 08:30:00 | 01:37:07 | 00:00:00 | |
| BIOWL1-15 | 2026-08-31 00:11:20 | 47.13706 | 8.07216 | 76° | 7km/h | 21653m | 5m/s | -54.3°C | 0.5% | 0hPa | 2.5V | 18:12:15 | 01:37:04 | 00:00:00 | |
| BIOWL1-15 | 2026-08-31 00:11:10 | 47.13704 | 8.07205 | 46° | 13km/h | 21620m | 4.2m/s | -54.5°C | 0.6% | 0hPa | 2.6V | 18:12:15 | 01:36:57 | 00:00:00 | |
| DM0DOS-11 | 2026-08-31 00:11:09 | 47.13688 | 8.07192 | 43° | 13km/h | 21597m | 4.8m/s | -54.6°C | 4.2% | 0hPa | 2.5V | 08:30:00 | 01:36:52 | 00:00:00 | |
| BIOWL9-15 | 2026-08-31 00:11:07 | 47.13694 | 8.07197 | 22° | 15km/h | 21607m | 4.0m/s | -54.6°C | 1.1% | -1.0hPa | 2.5V | 00:00:00 | 00:00:00 | 00:00:00 | |
| HASLITAL | 2026-08-31 00:11:05 | 47.13694 | 8.07197 | 24° | 16km/h | 21607m | 4.0m/s | -54.6°C | 1.2% | 0hPa | 2.5V | 00:00:00 | 00:00:00 | 00:00:00 | |
| DO3MHA-12 | 2026-08-31 00:11:01 | 47.13682 | 8.07184 | 32° | 20km/h | 21584m | 5.2m/s | -54.7°C | 4.2% | 0hPa | 2.5V | 00:00:00 | 01:36:49 | 00:00:00 | |
| DM0DOS-11 | 2026-08-31 00:10:59 | 47.13657 | 8.07157 | 35° | 27km/h | 21551m | 5.5m/s | -54.6°C | 4.3% | 0hPa | 2.5V | 08:30:00 | 01:36:42 | 00:00:00 | |
| BIOWL1-15 | 2026-08-31 00:10:58 | 47.13673 | 8.07178 | 31° | 16km/h | 21570m | 4.4m/s | -54.7°C | 0.6% | 0hPa | 2.5V | 18:12:15 | 01:36:46 | 00:00:00 | |
| BIOWL1-15 | 2026-08-31 00:10:54 | 47.13627 | 8.07133 | 17° | 15km/h | 21522m | 5.2m/s | -54.6°C | 0.6% | 0hPa | 2.5V | 18:12:15 | 01:36:36 | 00:00:00 | |
| DF7PN | 2026-08-31 00:10:50 | 47.13631 | 8.07135 | 27° | 15km/h | 21527m | 4.2m/s | -54.6°C | 1.1% | -1.0hPa | 2.5V | 00:00:00 | 00:00:00 | 00:00:00 | |
| DM0DOS-11 | 2026-08-31 00:10:49 | 47.13614 | 8.07131 | 18° | 15km/h | 21503m | 5.6m/s | -54.7°C | 4.2% | 0hPa | 2.5V | 08:30:00 | 01:36:32 | 00:00:00 | |
| DL1ZP-14 | 2026-08-31 00:10:48 | 47.13624 | 8.07132 | 1° | 13km/h | 21517m | 5.3m/s | -54.6°C | 1.1% | -1.0hPa | 2.5V | 00:00:00 | 00:00:00 | 00:00:00 | |
| BIOWL1-15 | 2026-08-31 00:10:37 | 47.13573 | 8.07106 | 16° | 29km/h | 21471m | 4.8m/s | -54.6°C | 0.7% | 0hPa | 2.5V | 18:12:15 | 01:36:25 | 00:00:00 | |
| DM0DOS-11 | 2026-08-31 00:10:34 | 47.13553 | 8.07097 | 17° | 26km/h | 21458m | 3.9m/s | -54.5°C | 4.3% | 0hPa | 2.6V | 08:30:00 | 01:36:22 | 00:00:00 | |
| OE9MKV-15 | 2026-08-31 00:10:33 | 47.13547 | 8.07094 | 14° | 15km/h | 21454m | 5.3m/s | -54.4°C | 4.3% | 0hPa | 2.6V | 00:00:00 | 01:36:21 | 00:00:00 | |
| DO3MHA-12 | 2026-08-31 00:10:31 | 47.13534 | 8.07091 | 7° | 20km/h | 21443m | 4.5m/s | -54.3°C | 4.3% | 0hPa | 2.6V | 00:00:00 | 01:36:19 | 00:00:00 | |
| DB0ND-19 | 2026-08-31 00:10:30 | 47.13528 | 8.07090 | 11° | 24km/h | 21438m | 4.6m/s | -54.3°C | 1.1% | -1.0hPa | 2.6V | 00:00:00 | 00:00:00 | 00:00:00 | |
| DM0DOS-11 | 2026-08-31 00:10:29 | 47.13500 | 8.07080 | 354° | 16km/h | 21408m | 3.6m/s | -54.1°C | 4.2% | 0hPa | 2.6V | 08:30:00 | 01:36:12 | 00:00:00 | |
| BIOWL1-15 | 2026-08-31 00:10:27 | 47.13504 | 8.07079 | 1° | 16km/h | 21413m | 5.1m/s | -54.1°C | 0.6% | 0hPa | 2.5V | 18:12:15 | 01:36:13 | 00:00:00 | |
| DK5PH-5 | 2026-08-31 00:10:25 | 47.13504 | 8.07079 | 2° | 16km/h | 21413m | 5.1m/s | -54.1°C | 4.2% | 0hPa | 2.5V | 00:00:00 | 01:36:13 | 00:00:00 | |
| HASLITAL | 2026-08-31 00:10:23 | 47.13500 | 8.07080 | 355° | 16km/h | 21409m | 3.6m/s | -54.1°C | 1.2% | 0hPa | 2.5V | 00:00:00 | 00:00:00 | 00:00:00 | |
| DO3MHA-11 | 2026-08-31 00:10:21 | 47.13487 | 8.07078 | 16° | 20km/h | 21395m | 4.6m/s | -54.0°C | 4.1% | 0hPa | 2.5V | 00:00:00 | 01:36:09 | 00:00:00 | |
| IW2NTF | 2026-08-31 00:10:20 | 47.13456 | 8.07075 | 2° | 26km/h | 21366m | 5.4m/s | -54.1°C | 4.1% | 0hPa | 2.5V | 08:30:00 | 01:36:03 | 00:00:00 | |
| BIOWL1-15 | 2026-08-31 00:10:14 | 47.13423 | 8.07072 | 346° | 11km/h | 21317m | 5.5m/s | -54.1°C | 0.6% | 0hPa | 2.5V | 18:12:15 | 01:35:53 | 00:00:00 | |
| DO3MHA-11 | 2026-08-31 00:10:11 | 47.13436 | 8.07073 | 360° | 11km/h | 21347m | 5.4m/s | -54.0°C | 4.1% | 0hPa | 2.6V | 00:00:00 | 01:35:59 | 00:00:00 | |
| DF3TZ-5 | 2026-08-31 00:10:10 | 47.13430 | 8.07072 | 12° | 7km/h | 21331m | 5.0m/s | -54.2°C | 1.1% | -1.0hPa | 2.6V | 00:00:00 | 00:00:00 | 00:00:00 | |
| BIOWL9-15 | 2026-08-31 00:10:05 | 47.13420 | 8.07074 | 345° | 15km/h | 21313m | 4.5m/s | -54.1°C | 1.1% | -1.0hPa | 2.6V | 00:00:00 | 00:00:00 | 00:00:00 | |
| IW2NTF | 2026-08-31 00:10:03 | 47.13406 | 8.07075 | 4° | 22km/h | 21297m | 4.2m/s | -54°C | 4.1% | 0hPa | 2.6V | 08:30:00 | 01:35:49 | 00:00:00 | |
| BIOWL1-15 | 2026-08-31 00:10:00 | 47.13392 | 8.07073 | 4° | 13km/h | 21284m | 4.8m/s | -53.9°C | 0.6% | 0hPa | 2.5V | 18:12:15 | 01:35:46 | 00:00:00 | |
| DB0ND-19 | 2026-08-31 00:09:59 | 47.13355 | 8.07078 | 12° | 9km/h | 21224m | 5.5m/s | -54.2°C | 1.1% | -1.0hPa | 2.5V | 00:00:00 | 00:00:00 | 00:00:00 | |
| DB0UT-7 | 2026-08-31 00:09:58 | 47.13392 | 8.07073 | 5° | 11km/h | 21284m | 4.8m/s | -53.8°C | 4.1% | 0hPa | 2.5V | 00:00:00 | 00:00:00 | 08:30:00 | |
| DK5PH-5 | 2026-08-31 00:09:55 | 47.13385 | 8.07071 | 10° | 7km/h | 21269m | 5.4m/s | -53.8°C | 4.0% | 0hPa | 2.5V | 00:00:00 | 01:35:43 | 00:00:00 | |
| IW2NTF | 2026-08-31 00:09:53 | 47.13375 | 8.07075 | 335° | 15km/h | 21249m | 3.9m/s | -53.8°C | 4% | 0hPa | 2.5V | 08:30:00 | 01:35:39 | 00:00:00 | |
| BIOWL1-15 | 2026-08-31 00:09:48 | 47.13362 | 8.07079 | 359° | 16km/h | 21235m | 4.4m/s | -54°C | 0.5% | 0hPa | 2.5V | 18:12:15 | 01:35:36 | 00:00:00 | |
| DF7PN | 2026-08-31 00:09:47 | 47.13358 | 8.07079 | 4° | 13km/h | 21230m | 5.0m/s | -54.1°C | 1.1% | -1.0hPa | 2.6V | 00:00:00 | 00:00:00 | 00:00:00 | |
| DL1ZP-14 | 2026-08-31 00:09:45 | 47.13353 | 8.07077 | 23° | 4km/h | 21219m | 5.1m/s | -54.2°C | 1.1% | -1.0hPa | 2.6V | 00:00:00 | 00:00:00 | 00:00:00 | |
| DM0DOS-11 | 2026-08-31 00:09:44 | 47.13353 | 8.07075 | 72° | 4km/h | 21210m | 5.1m/s | -54.2°C | 4% | 0hPa | 2.6V | 08:30:00 | 01:35:31 | 00:00:00 | |
| IW2NTF | 2026-08-31 00:09:43 | 47.13345 | 8.07079 | 307° | 15km/h | 21185m | 5.1m/s | -54.4°C | 4.1% | 0hPa | 2.6V | 08:30:00 | 01:35:26 | 00:00:00 | |
| BIOWL1-15 | 2026-08-31 00:09:42 | 47.13346 | 8.07079 | 308° | 15km/h | 21186m | 5.1m/s | -54.4°C | 0.6% | 0hPa | 2.6V | 18:12:15 | 01:35:26 | 00:00:00 | |
| DO3MHA-11 | 2026-08-31 00:09:41 | 47.13351 | 8.07073 | 9° | 13km/h | 21201m | 4.4m/s | -54.2°C | 4.1% | 0hPa | 2.5V | 00:00:00 | 01:35:29 | 00:00:00 | |
| DF3TZ-5 | 2026-08-31 00:09:39 | 47.13346 | 8.07079 | 307° | 13km/h | 21186m | 5.1m/s | -54.4°C | 1.1% | -1.0hPa | 2.5V | 00:00:00 | 00:00:00 | 00:00:00 | |
| OE9MKV-15 | 2026-08-31 00:09:37 | 47.13340 | 8.07088 | 318° | 13km/h | 21177m | 5.4m/s | -54.4°C | 4.2% | 0hPa | 2.5V | 00:00:00 | 01:35:24 | 00:00:00 | |
| DM0DOS-11 | 2026-08-31 00:09:34 | 47.13329 | 8.07100 | 328° | 13km/h | 21162m | 5.6m/s | -54.4°C | 4.2% | 0hPa | 2.7V | 08:30:00 | 01:35:21 | 00:00:00 | |
| BIOWL9-15 | 2026-08-31 00:09:34 | 47.13329 | 8.07100 | 328° | 13km/h | 21162m | 5.6m/s | -54.4°C | 1.1% | -1.0hPa | 2.6V | 00:00:00 | 00:00:00 | 00:00:00 | |
| DO3MHA-11 | 2026-08-31 00:09:31 | 47.13326 | 8.07102 | 356° | 9km/h | 21152m | 4.5m/s | -54.4°C | 4.2% | 0hPa | 2.6V | 00:00:00 | 01:35:19 | 00:00:00 | |
| DM0DOS-11 | 2026-08-31 00:09:28 | 47.13313 | 8.07097 | 330° | 15km/h | 21113m | 6m/s | -54.4°C | 4.1% | 0hPa | 2.6V | 08:30:00 | 01:35:11 | 00:00:00 | |
| BIOWL1-15 | 2026-08-31 00:09:27 | 47.13321 | 8.07095 | 45° | 7km/h | 21132m | 4.1m/s | -54.4°C | 0.6% | 0hPa | 2.6V | 18:12:15 | 01:35:15 | 00:00:00 | |
| BIOWL1-15 | 2026-08-31 00:09:16 | 47.13289 | 8.07124 | 342° | 9km/h | 21080m | 5.8m/s | -54.6°C | 0.6% | 0hPa | 2.7V | 18:12:15 | 01:35:04 | 00:00:00 | |
| DL1ZP-14 | 2026-08-31 00:09:14 | 47.13285 | 8.07122 | 48° | 11km/h | 21069m | 4.6m/s | -54.6°C | 1.1% | -1.0hPa | 2.5V | 00:00:00 | 00:00:00 | 00:00:00 | |
| DM0DOS-11 | 2026-08-31 00:09:12 | 47.13282 | 8.07111 | 77° | 11km/h | 21053m | 4.3m/s | -54.5°C | 4.2% | 0hPa | 2.7V | 08:30:00 | 01:34:59 | 00:00:00 | |
| BIOWL1-15 | 2026-08-31 00:09:05 | 47.13270 | 8.07108 | 339° | 7km/h | 21025m | 5m/s | -54.4°C | 0.6% | 0hPa | 2.7V | 18:12:15 | 01:34:53 | 00:00:00 | |
| DM0DOS-11 | 2026-08-31 00:09:02 | 47.13263 | 8.07100 | 59° | 15km/h | 21006m | 4.6m/s | -54.5°C | 4.1% | 0hPa | 2.5V | 08:30:00 | 01:34:49 | 00:00:00 | |
| BIOWL1-15 | 2026-08-31 00:08:54 | 47.13245 | 8.07074 | 359° | 5km/h | 20955m | 4.7m/s | -54.7°C | 0.6% | 0hPa | 2.5V | 18:12:15 | 01:34:38 | 00:00:00 | |
| DM0DOS-11 | 2026-08-31 00:08:52 | 47.13247 | 8.07075 | 7° | 7km/h | 20960m | 4.9m/s | -54.6°C | 4.2% | 0hPa | 2.5V | 08:30:00 | 01:34:39 | 00:00:00 | |
| DF7PN | 2026-08-31 00:08:45 | 47.13236 | 8.07078 | 338° | 7km/h | 20933m | 3.8m/s | -54.7°C | 1.1% | -1.0hPa | 2.7V | 00:00:00 | 00:00:00 | 00:00:00 | |
| BIOWL1-15 | 2026-08-31 00:08:43 | 47.13233 | 8.07080 | 308° | 4km/h | 20923m | 5.3m/s | -54.8°C | 0.7% | 0hPa | 2.7V | 18:12:15 | 01:34:31 | 00:00:00 | |
| DM0DOS-11 | 2026-08-31 00:08:42 | 47.13232 | 8.07082 | 322° | 2km/h | 20913m | 5.3m/s | -54.9°C | 4.3% | 0hPa | 2.5V | 08:30:00 | 01:34:29 | 00:00:00 | |
| BIOWL1-15 | 2026-08-31 00:08:33 | 47.13226 | 8.07086 | 319° | 11km/h | 20874m | 4.5m/s | 0°C | 0% | 0hPa | 2.5V | 18:12:15 | 01:34:21 | 00:00:00 | |
| DM0DOS-11 | 2026-08-31 00:08:32 | 47.13223 | 8.07092 | 297° | 11km/h | 20865m | 5.3m/s | -54.9°C | 4.4% | 0hPa | 2.6V | 08:30:00 | 01:34:19 | 00:00:00 | |
| BIOWL1-15 | 2026-08-31 00:08:25 | 47.13226 | 8.07106 | 204° | 5km/h | 20827m | 4.1m/s | 0°C | 0% | 0hPa | 2.5V | 18:12:15 | 01:34:11 | 00:00:00 | |
| DM0DOS-11 | 2026-08-31 00:08:22 | 47.13227 | 8.07107 | 342° | 4km/h | 20817m | 5.1m/s | -54.5°C | 4.2% | 0hPa | 2.6V | 08:30:00 | 01:34:09 | 00:00:00 | |
| DO3MHA-11 | 2026-08-31 00:08:21 | 47.13227 | 8.07107 | 343° | 5km/h | 20817m | 5.1m/s | -54.5°C | 4.2% | 0hPa | 2.5V | 00:00:00 | 01:34:09 | 00:00:00 | |
| HASLITAL | 2026-08-31 00:08:20 | 47.13227 | 8.07107 | 344° | 4km/h | 20817m | 5.1m/s | -54.6°C | 1.3% | 0hPa | 2.5V | 00:00:00 | 00:00:00 | 00:00:00 | |
| DF7PN | 2026-08-31 00:08:14 | 47.13220 | 8.07108 | 45° | 4km/h | 20784m | 5.5m/s | -54.4°C | 1.1% | -1.0hPa | 2.5V | 00:00:00 | 00:00:00 | 00:00:00 | |
| DM0DOS-11 | 2026-08-31 00:08:13 | 47.13217 | 8.07102 | 83° | 5km/h | 20770m | 4.8m/s | -54.4°C | 4.1% | 0hPa | 2.5V | 08:30:00 | 01:33:59 | 00:00:00 | |
| DL1ZP-14 | 2026-08-31 00:08:12 | 47.13218 | 8.07105 | 65° | 5km/h | 20775m | 3.6m/s | -54.4°C | 1.1% | -1.0hPa | 2.5V | 00:00:00 | 00:00:00 | 00:00:00 | |
| DO3MHA-11 | 2026-08-31 00:08:11 | 47.13217 | 8.07102 | 84° | 5km/h | 20770m | 4.7m/s | -54.4°C | 4.1% | 0hPa | 2.5V | 00:00:00 | 01:33:59 | 00:00:00 | |
| LOEBOVI | 2026-08-31 00:08:10 | 47.13217 | 8.07102 | 85° | 5km/h | 20770m | 4.8m/s | -54.4°C | 1.2% | 0hPa | 2.5V | 00:00:00 | 00:00:00 | 00:00:00 | |
| OE9MKV-15 | 2026-08-31 00:08:07 | 47.13220 | 8.07095 | 100° | 16km/h | 20751m | 5.3m/s | -54.3°C | 4.2% | 0hPa | 2.5V | 00:00:00 | 01:33:55 | 08:30:00 | |
| DF3TZ-5 | 2026-08-31 00:08:06 | 47.13219 | 8.07091 | 69° | 5km/h | 20742m | 3.9m/s | -54.4°C | 1.1% | -1.0hPa | 2.6V | 00:00:00 | 00:00:00 | 00:00:00 | |
| IW2NTF | 2026-08-31 00:08:04 | 47.13217 | 8.07074 | 53° | 9km/h | 20714m | 4.8m/s | -54.3°C | 4.1% | 0hPa | 2.6V | 08:30:00 | 01:33:47 | 00:00:00 | |
| DM0DOS-11 | 2026-08-31 00:08:02 | 47.13218 | 8.07080 | 81° | 7km/h | 20724m | 4.7m/s | -54.3°C | 4.1% | 0hPa | 2.5V | 08:30:00 | 01:33:49 | 00:00:00 | |
| BIOWL9-15 | 2026-08-31 00:08:00 | 47.13218 | 8.07077 | 64° | 7km/h | 20719m | 5.7m/s | -54.3°C | 1.1% | -1.0hPa | 2.5V | 00:00:00 | 00:00:00 | 00:00:00 | |
| DB0ND-19 | 2026-08-31 00:07:55 | 47.13215 | 8.07030 | 80° | 16km/h | 20673m | 4.1m/s | -54.5°C | 1.2% | -1.0hPa | 2.5V | 00:00:00 | 00:00:00 | 00:00:00 | |
| DM0DOS-11 | 2026-08-31 00:07:52 | 47.13216 | 8.07036 | 80° | 18km/h | 20677m | 4.2m/s | -54.5°C | 4.2% | 0hPa | 2.5V | 08:30:00 | 01:33:39 | 00:00:00 | |
| DO3MHA-12 | 2026-08-31 00:07:51 | 47.13215 | 8.07036 | 81° | 18km/h | 20678m | 4.2m/s | -54.5°C | 4.2% | 0hPa | 2.5V | 00:00:00 | 01:33:39 | 00:00:00 | |
| BIOWL7-15 | 2026-08-31 00:07:50 | 47.13216 | 8.07036 | 81° | 18km/h | 20678m | 4.2m/s | 0°C | 0% | 0hPa | 2.7V | 00:00:00 | 00:00:00 | 00:00:00 | |
| IW2NTF | 2026-08-31 00:07:46 | 47.13213 | 8.06956 | 89° | 31km/h | 20625m | 4.3m/s | -54.4°C | 4.1% | 0hPa | 2.7V | 08:30:00 | 01:33:28 | 00:00:00 | |
| DM0DOS-11 | 2026-08-31 00:07:42 | 47.13213 | 8.06967 | 92° | 27km/h | 20629m | 3.8m/s | -54.4°C | 4.1% | 0hPa | 2.7V | 08:30:00 | 01:33:29 | 00:00:00 | |
| DO3MHA-11 | 2026-08-31 00:07:41 | 47.13212 | 8.06967 | 93° | 27km/h | 20629m | 3.7m/s | -54.4°C | 4.1% | 0hPa | 2.7V | 00:00:00 | 01:33:29 | 08:30:00 | |
| HASLITAL | 2026-08-31 00:07:38 | 47.13212 | 8.06945 | 86° | 31km/h | 20621m | 5.1m/s | -54.4°C | 1.2% | 0hPa | 2.5V | 00:00:00 | 00:00:00 | 00:00:00 | |
| OE9MKV-15 | 2026-08-31 00:07:37 | 47.13209 | 8.06910 | 82° | 24km/h | 20607m | 4.9m/s | -54.4°C | 4.1% | 0hPa | 2.5V | 00:00:00 | 01:33:24 | 00:00:00 | |
| DF3TZ-5 | 2026-08-31 00:07:34 | 47.13206 | 8.06891 | 70° | 24km/h | 20598m | 4.7m/s | -54.5°C | 1.1% | -1.0hPa | 2.5V | 00:00:00 | 00:00:00 | 00:00:00 | |
| IW2NTF | 2026-08-31 00:07:33 | 47.13193 | 8.06849 | 70° | 18km/h | 20570m | 3.8m/s | -54.8°C | 4.3% | 0hPa | 2.5V | 08:30:00 | 01:33:16 | 00:00:00 | |
| DM0DOS-11 | 2026-08-31 00:07:32 | 47.13198 | 8.06868 | 63° | 20km/h | 20584m | 5.1m/s | -54.6°C | 4.2% | 0hPa | 2.6V | 08:30:00 | 01:33:19 | 00:00:00 | |
| DK5PH-5 | 2026-08-31 00:07:32 | 47.13201 | 8.06875 | 60° | 22km/h | 20589m | 3.7m/s | -54.5°C | 4.2% | 0hPa | 2.7V | 00:00:00 | 01:33:20 | 00:00:00 | |
| DO3MHA-11 | 2026-08-31 00:07:31 | 47.13198 | 8.06868 | 64° | 24km/h | 20584m | 5.0m/s | -54.6°C | 4.2% | 0hPa | 2.7V | 00:00:00 | 01:33:19 | 00:00:00 | |
| BIOWL9-15 | 2026-08-31 00:07:29 | 47.13195 | 8.06855 | 72° | 16km/h | 20574m | 4.3m/s | -54.7°C | -1.0% | -1.0hPa | 2.7V | 00:00:00 | 00:00:00 | 00:00:00 | |
| DB0UT-7 | 2026-08-31 00:07:28 | 47.13193 | 8.06849 | 71° | 22km/h | 20570m | 3.8m/s | -54.7°C | 4.3% | 0hPa | 2.7V | 00:00:00 | 01:33:16 | 00:00:00 | |
| IW2NTF | 2026-08-31 00:07:24 | 47.13164 | 8.06753 | 56° | 29km/h | 20526m | 3.9m/s | -55°C | 4.3% | 0hPa | 2.7V | 08:30:00 | 01:33:06 | 00:00:00 | |
| DM0DOS-11 | 2026-08-31 00:07:22 | 47.13176 | 8.06785 | 68° | 35km/h | 20539m | 4.7m/s | -55.1°C | 4.3% | 0hPa | 2.6V | 08:30:00 | 01:33:09 | 00:00:00 | |
| DO3MHA-11 | 2026-08-31 00:07:21 | 47.13176 | 8.06785 | 69° | 26km/h | 20539m | 4.7m/s | -55.0°C | 4.3% | 0hPa | 2.7V | 00:00:00 | 01:33:09 | 00:00:00 | |
| HASLITAL | 2026-08-31 00:07:18 | 47.13164 | 8.06753 | 57° | 29km/h | 20526m | 3.9m/s | -55.0°C | 1.3% | 0hPa | 2.7V | 00:00:00 | 00:00:00 | 00:00:00 | |
| IW2NTF | 2026-08-31 00:07:13 | 47.13123 | 8.06693 | 44° | 20km/h | 20476m | 4.5m/s | -54.7°C | 4.2% | 0hPa | 2.7V | 08:30:00 | 01:32:55 | 00:00:00 | |
| DM0DOS-11 | 2026-08-31 00:07:12 | 47.13135 | 8.06710 | 40° | 22km/h | 20490m | 4.5m/s | -54.8°C | 4.3% | 0hPa | 2.5V | 08:30:00 | 01:32:58 | 00:00:00 | |
| DF7PN | 2026-08-31 00:07:12 | 47.13144 | 8.06719 | 32° | 20km/h | 20498m | 4.6m/s | -54.9°C | 1.2% | -1.0hPa | 2.5V | 00:00:00 | 00:00:00 | 00:00:00 | |
| DO3MHA-11 | 2026-08-31 00:07:11 | 47.13139 | 8.06714 | 35° | 18km/h | 20494m | 3.7m/s | -54.8°C | 4.3% | 0hPa | 2.5V | 00:00:00 | 01:32:59 | 00:00:00 | |
| DL1ZP-14 | 2026-08-31 00:07:10 | 47.13135 | 8.06710 | 40° | 22km/h | 20490m | 4.5m/s | -54.8°C | 1.2% | -1.0hPa | 2.5V | 00:00:00 | 00:00:00 | 00:00:00 | |
| OE9MKV-15 | 2026-08-31 00:07:07 | 47.13123 | 8.06693 | 45° | 16km/h | 20476m | 4.4m/s | -54.7°C | 4.2% | 0hPa | 2.5V | 00:00:00 | 01:32:55 | 00:00:00 | |
| DM0DOS-11 | 2026-08-31 00:07:02 | 47.13100 | 8.06669 | 23° | 15km/h | 20444m | 5.2m/s | -54.6°C | 4.2% | 0hPa | 2.5V | 08:30:00 | 01:32:48 | 00:00:00 | |
| DK5PH-5 | 2026-08-31 00:07:02 | 47.13105 | 8.06674 | 35° | 15km/h | 20452m | 4.0m/s | -54.6°C | 4.3% | 0hPa | 2.7V | 00:00:00 | 01:32:50 | 00:00:00 | |
| IW2NTF | 2026-08-31 00:07:01 | 47.13083 | 8.06657 | 37° | 18km/h | 20426m | 5.2m/s | -54.5°C | 4.2% | 0hPa | 2.7V | 08:30:00 | 01:32:44 | 00:00:00 | |
| BIOWL9-15 | 2026-08-31 00:06:58 | 47.13092 | 8.06664 | 23° | 20km/h | 20434m | 4.1m/s | -54.6°C | -1.0% | -1.0hPa | 2.7V | 00:00:00 | 00:00:00 | 00:00:00 | |
| DB0ND-19 | 2026-08-31 00:06:53 | 47.13074 | 8.06642 | 54° | 16km/h | 20412m | 5.1m/s | -54.5°C | 1.1% | -1.0hPa | 2.7V | 00:00:00 | 00:00:00 | 00:00:00 | |
| DM0DOS-11 | 2026-08-31 00:06:52 | 47.13067 | 8.06629 | 49° | 11km/h | 20399m | 5.1m/s | -54.5°C | 4.1% | 0hPa | 2.7V | 08:30:00 | 01:32:38 | 00:00:00 | |
| DO3MHA-11 | 2026-08-31 00:06:51 | 47.13069 | 8.06632 | 50° | 13km/h | 20403m | 3.7m/s | -54.4°C | 4.1% | 0hPa | 2.7V | 00:00:00 | 01:32:39 | 00:00:00 | |
| LOEBOVI | 2026-08-31 00:06:47 | 47.13064 | 8.06625 | 19° | 5km/h | 20390m | 3.6m/s | -54.6°C | 1.3% | 0hPa | 2.7V | 00:00:00 | 00:00:00 | 00:00:00 | |
| IW2NTF | 2026-08-31 00:06:45 | 47.13052 | 8.06621 | 25° | 18km/h | 20373m | 3.2m/s | -54.8°C | 4.1% | 0hPa | 2.7V | 08:30:00 | 01:32:32 | 00:00:00 | |
| DM0DOS-11 | 2026-08-31 00:06:42 | 47.13040 | 8.06603 | 61° | 15km/h | 20356m | 3.3m/s | -55.1°C | 4.2% | 0hPa | 2.7V | 08:30:00 | 01:32:28 | 00:00:00 | |
| DH7VM-15 | 2026-08-31 00:06:41 | 47.13042 | 8.06608 | 62° | 16km/h | 20360m | 4.2m/s | -55.1°C | 1.3% | 0hPa | 2.7V | 00:00:00 | 00:00:00 | 00:00:00 | |
| DL1ZP-14 | 2026-08-31 00:06:39 | 47.13038 | 8.06598 | 53° | 13km/h | 20353m | 4.0m/s | -55.2°C | 1.2% | -1.0hPa | 2.7V | 00:00:00 | 00:00:00 | 00:00:00 | |
| OE9MKV-15 | 2026-08-31 00:06:37 | 47.13033 | 8.06592 | 24° | 7km/h | 20344m | 4.2m/s | -55.2°C | 4.3% | 0hPa | 2.5V | 00:00:00 | 01:32:25 | 00:00:00 | |
| HASLITAL | 2026-08-31 00:06:36 | 47.13033 | 8.06592 | 25° | 15km/h | 20344m | 4.2m/s | -55.3°C | 1.3% | 0hPa | 2.6V | 00:00:00 | 00:00:00 | 00:00:00 | |
| DM0DOS-11 | 2026-08-31 00:06:32 | 47.13013 | 8.06591 | 354° | 13km/h | 20312m | 4.3m/s | -55.5°C | 4.4% | 0hPa | 2.6V | 08:30:00 | 01:32:18 | 00:00:00 | |
| DK5PH-5 | 2026-08-31 00:06:32 | 47.13019 | 8.06590 | 354° | 7km/h | 20322m | 4.0m/s | -55.5°C | 4.4% | 0hPa | 2.5V | 00:00:00 | 01:32:20 | 08:30:00 | |
| DO3MHA-12 | 2026-08-31 00:06:31 | 47.13016 | 8.06590 | 355° | 7km/h | 20317m | 5.4m/s | -55.5°C | 4.4% | 0hPa | 2.6V | 00:00:00 | 01:32:19 | 00:00:00 | |
| DB0UT-7 | 2026-08-31 00:06:28 | 47.13008 | 8.06591 | 360° | 7km/h | 20304m | 5.2m/s | -55.4°C | 4.3% | 0hPa | 2.6V | 00:00:00 | 01:32:16 | 00:00:00 | |
| BIOWL9-15 | 2026-08-31 00:06:27 | 47.13007 | 8.06591 | 10° | 5km/h | 20298m | 5.0m/s | 0°C | -1.0% | -1.0hPa | 2.6V | 00:00:00 | 00:00:00 | 00:00:00 | |
| DM0DOS-11 | 2026-08-31 00:06:22 | 47.13000 | 8.06593 | 300° | 2km/h | 20266m | 4.7m/s | -55.6°C | 4.4% | 0hPa | 2.6V | 08:30:00 | 01:32:08 | 00:00:00 | |
| DO3MHA-11 | 2026-08-31 00:06:21 | 47.13000 | 8.06592 | 310° | 4km/h | 20272m | 5.1m/s | -55.5°C | 4.3% | 0hPa | 2.5V | 00:00:00 | 01:32:09 | 00:00:00 | |
| HASLITAL | 2026-08-31 00:06:16 | 47.12998 | 8.06593 | 8° | 4km/h | 20252m | 3.9m/s | -55.6°C | 1.4% | 0hPa | 2.5V | 00:00:00 | 00:00:00 | 00:00:00 | |
| IW2NTF | 2026-08-31 00:06:14 | 47.12986 | 8.06592 | 28° | 13km/h | 20216m | 5.2m/s | -55.5°C | 4.3% | 0hPa | 2.5V | 08:30:00 | 01:31:57 | 00:00:00 | |
| DM0DOS-11 | 2026-08-31 00:06:12 | 47.12989 | 8.06594 | 16° | 13km/h | 20221m | 3.8m/s | -55.5°C | 4.4% | 0hPa | 2.5V | 08:30:00 | 01:31:58 | 00:00:00 | |
| DO3MHA-12 | 2026-08-31 00:06:11 | 47.12992 | 8.06595 | 5° | 13km/h | 20226m | 4.6m/s | -55.5°C | 4.4% | 0hPa | 2.6V | 00:00:00 | 01:31:59 | 00:00:00 | |
| DF7PN | 2026-08-31 00:06:10 | 47.12989 | 8.06594 | 16° | 11km/h | 20221m | 3.8m/s | -55.5°C | 1.2% | -1.0hPa | 2.6V | 00:00:00 | 00:00:00 | 00:00:00 | |
| DL1ZP-14 | 2026-08-31 00:06:08 | 47.12984 | 8.06590 | 44° | 11km/h | 20212m | 4.8m/s | -55.5°C | 1.2% | -1.0hPa | 2.6V | 00:00:00 | 00:00:00 | 00:00:00 | |
| OE9MKV-15 | 2026-08-31 00:06:07 | 47.12982 | 8.06586 | 56° | 11km/h | 20207m | 4.0m/s | -55.4°C | 4.3% | 0hPa | 2.7V | 00:00:00 | 01:31:55 | 00:00:00 | |
| DM0DOS-11 | 2026-08-31 00:06:01 | 47.12966 | 8.06573 | 341° | 9km/h | 20176m | 3.8m/s | -55.6°C | 4.3% | 0hPa | 2.7V | 08:30:00 | 01:31:48 | 00:00:00 | |
| DO3MHA-11 | 2026-08-31 00:06:01 | 47.12968 | 8.06572 | 346° | 13km/h | 20180m | 4.1m/s | -55.5°C | 4.3% | 0hPa | 2.7V | 00:00:00 | 01:31:49 | 00:00:00 | |
| DK5PH-5 | 2026-08-31 00:06:00 | 47.12966 | 8.06573 | 342° | 9km/h | 20176m | 3.8m/s | -55.6°C | 4.3% | 0hPa | 2.7V | 00:00:00 | 01:31:48 | 00:00:00 | |
| DB0UT-7 | 2026-08-31 00:05:58 | 47.12960 | 8.06574 | 7° | 9km/h | 20167m | 3.7m/s | -55.5°C | 4.3% | 0hPa | 2.7V | 00:00:00 | 00:00:00 | 00:00:00 | |
| HASLITAL | 2026-08-31 00:05:55 | 47.12955 | 8.06570 | 47° | 11km/h | 20159m | 5.6m/s | -55.6°C | 1.3% | 0hPa | 2.7V | 00:00:00 | 00:00:00 | 00:00:00 | |
| DM0DOS-11 | 2026-08-31 00:05:52 | 47.12947 | 8.06541 | 58° | 7km/h | 20132m | 3.6m/s | -55.7°C | 4.2% | 0hPa | 2.7V | 08:30:00 | 01:31:38 | 00:00:00 | |
| DO3MHA-11 | 2026-08-31 00:05:51 | 47.12949 | 8.06544 | 65° | 5km/h | 20136m | 3.6m/s | -55.7°C | 4.3% | 0hPa | 2.6V | 00:00:00 | 01:31:39 | 00:00:00 | |
| DM0DOS-11 | 2026-08-31 00:05:44 | 47.12939 | 8.06526 | 46° | 16km/h | 20087m | 5m/s | -56.2°C | 4.5% | 0hPa | 2.6V | 08:30:00 | 01:31:28 | 00:00:00 | |
| DO3MHA-11 | 2026-08-31 00:05:41 | 47.12941 | 8.06530 | 54° | 11km/h | 20092m | 4.0m/s | -56.2°C | 4.5% | 0hPa | 2.6V | 00:00:00 | 01:31:29 | 00:00:00 | |
| DF7PN | 2026-08-31 00:05:39 | 47.12936 | 8.06521 | 37° | 16km/h | 20082m | 5.5m/s | -56.3°C | 1.2% | -1.0hPa | 2.6V | 00:00:00 | 00:00:00 | 00:00:00 | |
| OE9MKV-15 | 2026-08-31 00:05:37 | 47.12927 | 8.06512 | 41° | 13km/h | 20068m | 5.3m/s | -56.2°C | 4.5% | 0hPa | 2.6V | 00:00:00 | 01:31:24 | 00:00:00 | |
| HASLITAL | 2026-08-31 00:05:35 | 47.12927 | 8.06512 | 42° | 9km/h | 20068m | 5.4m/s | -56.3°C | 1.4% | 0hPa | 2.6V | 00:00:00 | 00:00:00 | 00:00:00 | |
| DM0DOS-11 | 2026-08-31 00:05:33 | 47.12920 | 8.06505 | 37° | 9km/h | 20041m | 3.5m/s | -56.4°C | 4.5% | 0hPa | 2.6V | 08:30:00 | 01:31:18 | 00:00:00 | |
| DO3MHA-11 | 2026-08-31 00:05:31 | 47.12922 | 8.06506 | 23° | 15km/h | 20045m | 3.7m/s | -56.3°C | 4.5% | 0hPa | 2.7V | 00:00:00 | 01:31:19 | 00:00:00 | |
| DK5PH-5 | 2026-08-31 00:05:30 | 47.12920 | 8.06505 | 38° | 13km/h | 20041m | 3.5m/s | -56.4°C | 4.5% | 0hPa | 2.7V | 00:00:00 | 01:31:18 | 00:00:00 | |
| DB0UT-7 | 2026-08-31 00:05:28 | 47.12917 | 8.06498 | 65° | 11km/h | 20031m | 4.7m/s | -56.5°C | 4.6% | 0hPa | 2.7V | 00:00:00 | 01:31:16 | 08:30:00 | |
| LOEBOVI | 2026-08-31 00:05:23 | 47.12907 | 8.06482 | 27° | 18km/h | 20013m | 4.4m/s | -56.5°C | 1.4% | 0hPa | 2.5V | 00:00:00 | 00:00:00 | 00:00:00 | |
| DM0DOS-11 | 2026-08-31 00:05:22 | 47.12891 | 8.06473 | 13° | 15km/h | 19994m | 4.2m/s | -56.5°C | 4.6% | 0hPa | 2.5V | 08:30:00 | 01:31:08 | 00:00:00 | |
| DO3MHA-11 | 2026-08-31 00:05:21 | 47.12895 | 8.06475 | 20° | 13km/h | 19999m | 4.4m/s | -56.4°C | 4.6% | 0hPa | 2.7V | 00:00:00 | 01:31:09 | 00:00:00 | |
| DB0ND-19 | 2026-08-31 00:05:20 | 47.12892 | 8.06473 | 13° | 13km/h | 19994m | 4.2m/s | -56.5°C | 1.3% | -1.0hPa | 2.7V | 00:00:00 | 00:00:00 | 00:00:00 | |
| DO3MHA-12 | 2026-08-31 00:05:17 | 47.12882 | 8.06471 | 21° | 11km/h | 19981m | 3.7m/s | -56.3°C | 4.6% | 0hPa | 2.7V | 00:00:00 | 01:31:05 | 00:00:00 | |
| DH7VM-15 | 2026-08-31 00:05:16 | 47.12881 | 8.06470 | 21° | 11km/h | 19981m | 3.7m/s | -56.4°C | 1.4% | 0hPa | 2.5V | 00:00:00 | 00:00:00 | 00:00:00 | |
| HASLITAL | 2026-08-31 00:05:14 | 47.12878 | 8.06466 | 72° | 11km/h | 19970m | 5.2m/s | -56.3°C | 1.4% | 0hPa | 2.5V | 00:00:00 | 00:00:00 | 00:00:00 | |
| DM0DOS-11 | 2026-08-31 00:05:13 | 47.12868 | 8.06440 | 47° | 13km/h | 19944m | 4.2m/s | -56.2°C | 4.5% | 0hPa | 2.5V | 08:30:00 | 01:30:57 | 00:00:00 | |
| DO3MHA-11 | 2026-08-31 00:05:11 | 47.12873 | 8.06447 | 51° | 11km/h | 19952m | 4.5m/s | -56.2°C | 4.5% | 0hPa | 2.7V | 00:00:00 | 01:30:59 | 00:00:00 | |
| DF7PN | 2026-08-31 00:05:08 | 47.12865 | 8.06432 | 68° | 11km/h | 19935m | 4.8m/s | -56.3°C | 1.2% | -1.0hPa | 2.7V | 00:00:00 | 00:00:00 | 00:00:00 | |
| DM0DOS-11 | 2026-08-31 00:05:07 | 47.12861 | 8.06418 | 115° | 2km/h | 19896m | 4.5m/s | -56.1°C | 4.5% | 0hPa | 2.7V | 00:00:00 | 01:30:47 | 00:00:00 | |
| DF3TZ-5 | 2026-08-31 00:04:59 | 47.12861 | 8.06418 | 115° | 2km/h | 19896m | 4.5m/s | -56.1°C | 1.2% | -1.0hPa | 2.7V | 00:00:00 | 00:00:00 | 00:00:00 | |
| DB0UT-7 | 2026-08-31 00:04:58 | 47.12861 | 8.06417 | 76° | 15km/h | 19891m | 5.5m/s | -56.0°C | 4.6% | 0hPa | 2.7V | 00:00:00 | 00:00:00 | 00:00:00 | |
| HASLITAL | 2026-08-31 00:04:54 | 47.12858 | 8.06404 | 85° | 15km/h | 19871m | 4.5m/s | -56.0°C | 1.4% | 0hPa | 2.7V | 00:00:00 | 00:00:00 | 00:00:00 | |
| DM0DOS-11 | 2026-08-31 00:04:53 | 47.12851 | 8.06376 | 58° | 15km/h | 19848m | 4.2m/s | -55.9°C | 4.5% | 0hPa | 2.7V | 00:00:00 | 01:30:37 | 00:00:00 | |
| DB0ND-19 | 2026-08-31 00:04:49 | 47.12850 | 8.06376 | 58° | 13km/h | 19848m | 4.3m/s | -55.9°C | 1.2% | -1.0hPa | 2.6V | 00:00:00 | 00:00:00 | 00:00:00 | |
| DM0DOS-11 | 2026-08-31 00:04:44 | 47.12836 | 8.06325 | 67° | 18km/h | 19800m | 4.3m/s | -56.2°C | 4.6% | 0hPa | 2.6V | 00:00:00 | 01:30:27 | 00:00:00 | |
| DF7PN | 2026-08-31 00:04:38 | 47.12829 | 8.06309 | 57° | 15km/h | 19787m | 3.5m/s | -56.1°C | 1.3% | -1.0hPa | 2.6V | 00:00:00 | 00:00:00 | 00:00:00 | |
| DM0DOS-11 | 2026-08-31 00:04:36 | 47.12823 | 8.06270 | 64° | 20km/h | 19753m | 3.6m/s | -55.9°C | 4.6% | 0hPa | 2.6V | 00:00:00 | 01:30:17 | 00:00:00 | |
| HASLITAL | 2026-08-31 00:04:35 | 47.12827 | 8.06299 | 85° | 15km/h | 19777m | 5.4m/s | -56.0°C | 1.5% | 0hPa | 2.7V | 00:00:00 | 00:00:00 | 00:00:00 | |
| IW2NTF | 2026-08-31 00:04:31 | 47.12818 | 8.06249 | 74° | 18km/h | 19739m | 5m/s | -55.7°C | 4.5% | 0hPa | 2.7V | 08:30:00 | 01:30:14 | 00:00:00 | |
| DO3MHA-11 | 2026-08-31 00:04:30 | 47.12825 | 8.06276 | 71° | 18km/h | 19757m | 4.8m/s | -55.8°C | 4.6% | 0hPa | 2.6V | 00:00:00 | 01:30:18 | 00:00:00 | |
| DB0UT-7 | 2026-08-31 00:04:28 | 47.12821 | 8.06263 | 66° | 15km/h | 19750m | 4.1m/s | -55.8°C | 4.5% | 0hPa | 2.6V | 00:00:00 | 01:30:16 | 00:00:00 | |
| DM0DOS-11 | 2026-08-31 00:04:25 | 47.12806 | 8.06216 | 77° | 15km/h | 19706m | 5.2m/s | 0°C | 0% | 0hPa | 2.6V | 00:00:00 | 01:30:07 | 00:00:00 | |
| DO3MHA-11 | 2026-08-31 00:04:16 | 47.12805 | 8.06197 | 88° | 13km/h | 19693m | 5.3m/s | -55.3°C | 4.4% | 0hPa | 2.6V | 00:00:00 | 01:30:04 | 00:00:00 | |
| HASLITAL | 2026-08-31 00:04:12 | 47.12805 | 8.06175 | 93° | 18km/h | 19678m | 5.6m/s | -55.2°C | 1.4% | 0hPa | 2.6V | 00:00:00 | 00:00:00 | 00:00:00 | |
| DM0DOS-11 | 2026-08-31 00:04:11 | 47.12799 | 8.06154 | 66° | 4km/h | 19644m | 4.5m/s | 0°C | 0% | 0hPa | 2.6V | 00:00:00 | 01:29:54 | 00:00:00 | |
| OE9MKV-15 | 2026-08-31 00:04:07 | 47.12799 | 8.06154 | 67° | 13km/h | 19644m | 4.5m/s | -54.8°C | 4.4% | 0hPa | 2.6V | 00:00:00 | 01:29:54 | 00:00:00 | |
| DF7PN | 2026-08-31 00:04:06 | 47.12799 | 8.06152 | 80° | 7km/h | 19640m | 3.7m/s | -54.9°C | 1.2% | -1.0hPa | 2.6V | 00:00:00 | 00:00:00 | 00:00:00 | |
| DL1ZP-14 | 2026-08-31 00:04:04 | 47.12798 | 8.06144 | 80° | 15km/h | 19630m | 4.7m/s | -54.8°C | 1.2% | -1.0hPa | 2.6V | 00:00:00 | 00:00:00 | 00:00:00 | |
| DF3TZ-5 | 2026-08-31 00:03:57 | 47.12803 | 8.06111 | 112° | 7km/h | 19605m | 4.5m/s | -54.5°C | 1.2% | -1.0hPa | 2.7V | 00:00:00 | 00:00:00 | 00:00:00 | |
| DO3MHA-11 | 2026-08-31 00:03:56 | 47.12803 | 8.06108 | 86° | 11km/h | 19600m | 4.7m/s | -54.5°C | 4.2% | 0hPa | 2.7V | 00:00:00 | 01:29:44 | 00:00:00 | |
| DM0DOS-11 | 2026-08-31 00:03:55 | 47.12800 | 8.06082 | 101° | 11km/h | 19566m | 3.5m/s | 0°C | 0% | 0hPa | 2.7V | 00:00:00 | 01:29:37 | 00:00:00 | |
| DB0ND-19 | 2026-08-31 00:03:47 | 47.12806 | 8.06058 | 112° | 18km/h | 19548m | 4.1m/s | -54.2°C | 1.1% | -1.0hPa | 2.6V | 00:00:00 | 00:00:00 | 00:00:00 | |
| DO3MHA-11 | 2026-08-31 00:03:46 | 47.12804 | 8.06065 | 112° | 13km/h | 19553m | 4.5m/s | -54.2°C | 4.1% | 0hPa | 2.6V | 00:00:00 | 01:29:34 | 00:00:00 | |
| DM0DOS-11 | 2026-08-31 00:03:44 | 47.12811 | 8.06030 | 104° | 11km/h | 19521m | 4.7m/s | 0°C | 0% | 0hPa | 2.6V | 00:00:00 | 01:29:27 | 00:00:00 | |
| OE9MKV-15 | 2026-08-31 00:03:37 | 47.12813 | 8.06023 | 111° | 15km/h | 19512m | 3.1m/s | -54.2°C | 4.1% | 0hPa | 2.7V | 00:00:00 | 01:29:25 | 08:30:00 | |
| DO3MHA-11 | 2026-08-31 00:03:36 | 47.12814 | 8.06019 | 110° | 16km/h | 19509m | 3.5m/s | -54.2°C | 4.0% | 0hPa | 2.6V | 00:00:00 | 01:29:24 | 00:00:00 | |
| DF7PN | 2026-08-31 00:03:35 | 47.12817 | 8.06008 | 112° | 20km/h | 19499m | 4.5m/s | -54.4°C | 1.1% | -1.0hPa | 2.6V | 00:00:00 | 00:00:00 | 00:00:00 | |
| HASLITAL | 2026-08-31 00:03:33 | 47.12821 | 8.05993 | 120° | 22km/h | 19491m | 4.4m/s | -54.4°C | 1.3% | 0hPa | 2.6V | 00:00:00 | 00:00:00 | 00:00:00 | |
| DB0UT-7 | 2026-08-31 00:03:31 | 47.12831 | 8.05975 | 121° | 16km/h | 19474m | 4.6m/s | -54.4°C | 4.1% | 0hPa | 2.6V | 00:00:00 | 01:29:16 | 00:00:00 | |
| DF3TZ-5 | 2026-08-31 00:03:27 | 47.12832 | 8.05968 | 77° | 11km/h | 19465m | 4.6m/s | -54.6°C | 1.2% | -1.0hPa | 2.6V | 00:00:00 | 00:00:00 | 00:00:00 | |
| DO3MHA-11 | 2026-08-31 00:03:26 | 47.12832 | 8.05968 | 78° | 13km/h | 19465m | 4.5m/s | -54.5°C | 4.2% | 0hPa | 2.6V | 00:00:00 | 01:29:14 | 00:00:00 | |
| DO3MHA-12 | 2026-08-31 00:03:22 | 47.12828 | 8.05956 | 79° | 15km/h | 19447m | 3.9m/s | -54.6°C | 4.1% | 0hPa | 2.6V | 00:00:00 | 01:29:10 | 00:00:00 | |
| DO3MHA-11 | 2026-08-31 00:03:18 | 47.12831 | 8.05924 | 96° | 15km/h | 19419m | 3.9m/s | -54.7°C | 4.2% | 0hPa | 2.6V | 00:00:00 | 01:29:04 | 00:00:00 | |
| DK5PH-5 | 2026-08-31 00:03:15 | 47.12829 | 8.05907 | 67° | 24km/h | 19404m | 4.4m/s | -54.8°C | 4.2% | 0hPa | 2.6V | 00:00:00 | 01:29:01 | 00:00:00 | |
| DO3MHA-12 | 2026-08-31 00:03:14 | 47.12827 | 8.05903 | 60° | 16km/h | 19400m | 5.1m/s | -54.8°C | 4.1% | 0hPa | 2.6V | 00:00:00 | 01:29:00 | 00:00:00 | |
| HASLITAL | 2026-08-31 00:03:12 | 47.12826 | 8.05899 | 55° | 11km/h | 19395m | 3.8m/s | -54.9°C | 1.4% | 0hPa | 2.6V | 00:00:00 | 00:00:00 | 00:00:00 | |
| OE9MKV-15 | 2026-08-31 00:03:08 | 47.12819 | 8.05881 | 77° | 26km/h | 19378m | 3.8m/s | -55.0°C | 4.3% | 0hPa | 2.6V | 00:00:00 | 01:28:55 | 00:00:00 | |
| DO3MHA-11 | 2026-08-31 00:03:06 | 47.12818 | 8.05875 | 89° | 24km/h | 19373m | 5.2m/s | -55.0°C | 4.3% | 0hPa | 2.6V | 00:00:00 | 01:28:54 | 08:30:00 | |
| DF7PN | 2026-08-31 00:03:04 | 47.12821 | 8.05850 | 100° | 26km/h | 19360m | 4.7m/s | -55.1°C | 1.2% | -1.0hPa | 2.6V | 00:00:00 | 00:00:00 | 00:00:00 | |
| DO3MHA-11 | 2026-08-31 00:02:55 | 47.12801 | 8.05399 | 91° | 24km/h | 19157m | 4.6m/s | -54.8°C | 4.2% | 0hPa | 2.6V | 00:00:00 | 01:28:04 | 00:00:00 | |
| DB0ND-19 | 2026-08-31 00:02:54 | 47.12792 | 8.05249 | 68° | 27km/h | 19080m | 4.4m/s | -55.0°C | 1.2% | -1.0hPa | 2.6V | 00:00:00 | 00:00:00 | 00:00:00 | |
| DK5PH-5 | 2026-08-31 00:02:50 | 47.12800 | 8.05374 | 82° | 27km/h | 19143m | 4.8m/s | -54.8°C | 4.2% | 0hPa | 2.6V | 00:00:00 | 01:28:01 | 00:00:00 | |
| DO3MHA-12 | 2026-08-31 00:02:48 | 47.12799 | 8.05366 | 79° | 26km/h | 19138m | 4.6m/s | -54.8°C | 4.2% | 0hPa | 2.6V | 00:00:00 | 01:28:00 | 00:00:00 | |
| HASLITAL | 2026-08-31 00:02:43 | 47.12797 | 8.05340 | 93° | 24km/h | 19125m | 4.9m/s | -55.0°C | 1.4% | 0hPa | 2.6V | 00:00:00 | 00:00:00 | 00:00:00 | |
| OE9MKV-15 | 2026-08-31 00:02:39 | 47.12799 | 8.05321 | 95° | 27km/h | 19116m | 5.0m/s | -55.0°C | 4.3% | 0hPa | 2.6V | 00:00:00 | 01:27:55 | 00:00:00 | |
| DO3MHA-11 | 2026-08-31 00:02:37 | 47.12799 | 8.05310 | 91° | 26km/h | 19112m | 4.5m/s | -55.0°C | 4.3% | 0hPa | 2.6V | 00:00:00 | 01:27:54 | 00:00:00 | |
| DO3MHA-12 | 2026-08-31 00:02:34 | 47.12797 | 8.05274 | 81° | 26km/h | 19095m | 3.7m/s | -54.9°C | 4.3% | 0hPa | 2.6V | 00:00:00 | 01:27:50 | 00:00:00 | |
| DF7PN | 2026-08-31 00:02:33 | 47.12796 | 8.05266 | 73° | 22km/h | 19090m | 4.5m/s | -55.0°C | 1.2% | -1.0hPa | 2.7V | 00:00:00 | 00:00:00 | 00:00:00 | |
| DL1ZP-14 | 2026-08-31 00:02:30 | 47.12792 | 8.05249 | 68° | 27km/h | 19080m | 4.4m/s | -55.0°C | 1.2% | -1.0hPa | 2.7V | 00:00:00 | 00:00:00 | 00:00:00 | |
| DB0UT-7 | 2026-08-31 00:02:27 | 47.12789 | 8.05239 | 70° | 31km/h | 19077m | 3.7m/s | -54.9°C | 4.3% | 0hPa | 2.7V | 00:00:00 | 00:00:00 | 00:00:00 | |
| DO3MHA-11 | 2026-08-31 00:02:23 | 47.12786 | 8.05221 | 78° | 26km/h | 19067m | 4.4m/s | -54.9°C | 4.3% | 0hPa | 2.7V | 00:00:00 | 01:27:44 | 00:00:00 | |
| DF3TZ-5 | 2026-08-31 00:02:21 | 47.12769 | 8.05112 | 77° | 35km/h | 19017m | 4.0m/s | -55.0°C | 1.2% | -1.0hPa | 2.7V | 00:00:00 | 00:00:00 | 00:00:00 | |
| DO3MHA-12 | 2026-08-31 00:02:19 | 47.12781 | 8.05184 | 78° | 29km/h | 19049m | 3.6m/s | -54.9°C | 4.3% | 0hPa | 2.7V | 00:00:00 | 01:27:40 | 00:00:00 | |
| HASLITAL | 2026-08-31 00:02:14 | 47.12777 | 8.05157 | 78° | 26km/h | 19035m | 4.0m/s | -54.9°C | 1.4% | 0hPa | 2.7V | 00:00:00 | 00:00:00 | 00:00:00 | |
| DO3MHA-11 | 2026-08-31 00:02:11 | 47.12771 | 8.05125 | 75° | 31km/h | 19021m | 3.7m/s | -54.9°C | 4.2% | 0hPa | 2.7V | 00:00:00 | 01:27:34 | 00:00:00 | |
| DB0ND-19 | 2026-08-31 00:02:08 | 47.12717 | 8.04819 | 57° | 33km/h | 18903m | 4.4m/s | -55.0°C | 1.2% | -1.0hPa | 2.7V | 00:00:00 | 00:00:00 | 00:00:00 | |
| DK5PH-5 | 2026-08-31 00:02:06 | 47.12766 | 8.05087 | 86° | 29km/h | 19008m | 4.1m/s | -55.1°C | 4.3% | 0hPa | 2.7V | 00:00:00 | 01:27:31 | 00:00:00 | |
| DO3MHA-12 | 2026-08-31 00:02:05 | 47.12766 | 8.05076 | 86° | 31km/h | 19004m | 3.6m/s | -55.1°C | 4.3% | 0hPa | 2.7V | 00:00:00 | 01:27:30 | 00:00:00 | |
| OE9MKV-15 | 2026-08-31 00:01:57 | 47.12760 | 8.05024 | 83° | 33km/h | 18982m | 4.5m/s | -55.3°C | 4.4% | 0hPa | 2.7V | 00:00:00 | 01:27:25 | 00:00:00 | |
| DO3MHA-11 | 2026-08-31 00:01:53 | 47.12759 | 8.05014 | 80° | 37km/h | 18977m | 3.9m/s | -55.3°C | 4.4% | 0hPa | 2.7V | 00:00:00 | 01:27:24 | 08:30:00 | |
| DO3MHA-12 | 2026-08-31 00:01:50 | 47.12749 | 8.04962 | 73° | 35km/h | 18959m | 4.3m/s | -55.3°C | 4.4% | 0hPa | 2.6V | 00:00:00 | 01:27:20 | 00:00:00 | |
| DF7PN | 2026-08-31 00:01:47 | 47.12744 | 8.04935 | 78° | 37km/h | 18949m | 4.1m/s | -55.3°C | 1.2% | -1.0hPa | 2.6V | 00:00:00 | 00:00:00 | 00:00:00 | |
| DB0UT-7 | 2026-08-31 00:01:42 | 47.12740 | 8.04909 | 79° | 29km/h | 18940m | 5.4m/s | -55.2°C | 4.4% | 0hPa | 2.6V | 00:00:00 | 01:27:16 | 00:00:00 | |
| DO3MHA-11 | 2026-08-31 00:01:37 | 47.12736 | 8.04884 | 76° | 33km/h | 18931m | 3.9m/s | -55.2°C | 4.4% | 0hPa | 2.6V | 00:00:00 | 01:27:14 | 00:00:00 | |
| DF3TZ-5 | 2026-08-31 00:01:34 | 47.12717 | 8.04819 | 57° | 33km/h | 18903m | 4.4m/s | -55.0°C | 1.2% | -1.0hPa | 2.6V | 00:00:00 | 00:00:00 | 00:00:00 | |
| DO3MHA-12 | 2026-08-31 00:01:33 | 47.12725 | 8.04841 | 62° | 33km/h | 18912m | 5.4m/s | -55.0°C | 4.4% | 0hPa | 2.6V | 00:00:00 | 01:27:10 | 00:00:00 | |
| DO3MHA-11 | 2026-08-31 00:01:25 | 47.12700 | 8.04775 | 64° | 29km/h | 18885m | 5.2m/s | -55.0°C | 4.3% | 0hPa | 2.6V | 00:00:00 | 01:27:04 | 00:00:00 | |
| LOEBOVI | 2026-08-31 00:01:23 | 47.12692 | 8.04753 | 70° | 33km/h | 18875m | 5.1m/s | -55.1°C | 1.4% | 0hPa | 2.6V | 00:00:00 | 00:00:00 | 00:00:00 | |
| DB0ND-19 | 2026-08-31 00:01:21 | 47.12604 | 8.04516 | 63° | 29km/h | 18746m | 4.0m/s | -55.3°C | 1.2% | -1.0hPa | 2.6V | 00:00:00 | 00:00:00 | 00:00:00 | |
| DK5PH-5 | 2026-08-31 00:01:15 | 47.12679 | 8.04694 | 63° | 26km/h | 18847m | 5.3m/s | -55.0°C | 4.2% | 0hPa | 2.6V | 00:00:00 | 01:26:56 | 00:00:00 | |
| OE9MKV-15 | 2026-08-31 00:01:13 | 47.12677 | 8.04687 | 56° | 26km/h | 18842m | 4.3m/s | -55.1°C | 4.2% | 0hPa | 2.6V | 00:00:00 | 01:26:55 | 00:00:00 | |
| DO3MHA-11 | 2026-08-31 00:01:12 | 47.12673 | 8.04681 | 52° | 27km/h | 18838m | 4.2m/s | -55.1°C | 4.3% | 0hPa | 2.6V | 00:00:00 | 01:26:54 | 00:00:00 | |
| DH7VM-15 | 2026-08-31 00:01:11 | 47.12670 | 8.04674 | 52° | 26km/h | 18833m | 5.3m/s | -55.2°C | 1.4% | 0hPa | 2.6V | 00:00:00 | 00:00:00 | 00:00:00 | |
| DO3MHA-12 | 2026-08-31 00:01:10 | 47.12658 | 8.04649 | 65° | 26km/h | 18818m | 5.0m/s | -55.1°C | 4.4% | 0hPa | 2.6V | 00:00:00 | 01:26:50 | 08:30:00 | |
| DF7PN | 2026-08-31 00:01:07 | 47.12653 | 8.04621 | 75° | 27km/h | 18806m | 4.7m/s | -55.1°C | 1.2% | -1.0hPa | 2.7V | 00:00:00 | 00:00:00 | 00:00:00 | |
| DB0UT-7 | 2026-08-31 00:01:04 | 47.12650 | 8.04610 | 71° | 26km/h | 18801m | 4.9m/s | -55.1°C | 4.4% | 0hPa | 2.7V | 00:00:00 | 00:00:00 | 08:30:00 | |
| DO3MHA-11 | 2026-08-31 00:01:00 | 47.12644 | 8.04591 | 60° | 26km/h | 18792m | 4.0m/s | -55.0°C | 4.3% | 0hPa | 2.6V | 00:00:00 | 01:26:44 | 00:00:00 | |
| DO3MHA-12 | 2026-08-31 00:00:55 | 47.12630 | 8.04566 | 40° | 29km/h | 18774m | 4.2m/s | -55.0°C | 4.3% | 0hPa | 2.6V | 00:00:00 | 01:26:40 | 00:00:00 | |
| DF3TZ-5 | 2026-08-31 00:00:54 | 47.12616 | 8.04546 | 51° | 29km/h | 18760m | 4.0m/s | -55.2°C | 1.2% | -1.0hPa | 2.6V | 00:00:00 | 00:00:00 | 00:00:00 | |
| IW2NTF | 2026-08-31 00:00:49 | 47.12593 | 8.04487 | 58° | 27km/h | 18732m | 4.5m/s | -55.6°C | 4.5% | 0hPa | 2.6V | 08:30:00 | 01:26:31 | 00:00:00 | |
| HASLITAL | 2026-08-31 00:00:48 | 47.12611 | 8.04536 | 58° | 31km/h | 18755m | 5.0m/s | -55.2°C | 1.4% | 0hPa | 2.6V | 00:00:00 | 00:00:00 | 00:00:00 | |
| DO3MHA-11 | 2026-08-31 00:00:46 | 47.12604 | 8.04516 | 64° | 26km/h | 18746m | 4.0m/s | -55.3°C | 4.3% | 0hPa | 2.6V | 00:00:00 | 01:26:34 | 00:00:00 | |
| DB0ND-19 | 2026-08-31 00:00:44 | 47.12584 | 8.04463 | 64° | 22km/h | 18719m | 3.9m/s | -55.7°C | 1.3% | -1.0hPa | 2.6V | 00:00:00 | 00:00:00 | 00:00:00 | |
| DK5PH-5 | 2026-08-31 00:00:42 | 47.12578 | 8.04449 | 49° | 22km/h | 18712m | 5.0m/s | -55.5°C | 4.5% | 0hPa | 2.6V | 00:00:00 | 01:26:26 | 08:30:00 | |
| OE9MKV-15 | 2026-08-31 00:00:41 | 47.12574 | 8.04444 | 37° | 22km/h | 18706m | 5.2m/s | -55.5°C | 4.5% | 0hPa | 2.6V | 00:00:00 | 01:26:25 | 00:00:00 | |
| DO3MHA-11 | 2026-08-31 00:00:40 | 47.12569 | 8.04439 | 31° | 24km/h | 18701m | 4.8m/s | -55.4°C | 4.5% | 0hPa | 2.7V | 00:00:00 | 01:26:24 | 00:00:00 | |
| DO3MHA-12 | 2026-08-31 00:00:34 | 47.12549 | 8.04417 | 43° | 24km/h | 18683m | 4.3m/s | -55.3°C | 4.4% | 0hPa | 2.6V | 00:00:00 | 01:26:20 | 00:00:00 | |
| DB0UT-7 | 2026-08-31 00:00:32 | 47.12532 | 8.04395 | 49° | 22km/h | 18664m | 5.0m/s | -55.1°C | 4.3% | 0hPa | 2.6V | 00:00:00 | 01:26:16 | 00:00:00 | |
| DL1ZP-14 | 2026-08-31 00:00:30 | 47.12525 | 8.04382 | 45° | 24km/h | 18654m | 4.3m/s | -55.2°C | 1.2% | -1.0hPa | 2.6V | 00:00:00 | 00:00:00 | 00:00:00 | |
| DO3MHA-11 | 2026-08-31 00:00:29 | 47.12525 | 8.04382 | 46° | 22km/h | 18654m | 4.2m/s | -55.2°C | 4.4% | 0hPa | 2.6V | 00:00:00 | 01:26:14 | 00:00:00 | |
| DO3MHA-12 | 2026-08-31 00:00:27 | 47.12503 | 8.04360 | 31° | 18km/h | 18635m | 4.7m/s | -55.1°C | 4.4% | 0hPa | 2.6V | 00:00:00 | 01:26:10 | 00:00:00 | |
| DF3TZ-5 | 2026-08-31 00:00:25 | 47.12482 | 8.04337 | 35° | 16km/h | 18610m | 4.9m/s | -55.0°C | 1.2% | -1.0hPa | 2.6V | 00:00:00 | 00:00:00 | 00:00:00 | |
| DO3MHA-11 | 2026-08-31 00:00:19 | 47.12479 | 8.04334 | 40° | 20km/h | 18606m | 3.8m/s | -55.0°C | 4.4% | 0hPa | 2.6V | 00:00:00 | 01:26:04 | 00:00:00 | |
| DO3MHA-12 | 2026-08-31 00:00:13 | 47.12469 | 8.04315 | 53° | 24km/h | 18588m | 3.8m/s | -54.9°C | 4.4% | 0hPa | 2.6V | 00:00:00 | 01:26:00 | 00:00:00 | |
| DB0ND-19 | 2026-08-31 00:00:12 | 47.12392 | 8.04144 | 61° | 27km/h | 18481m | 4.5m/s | -54.6°C | 1.3% | -1.0hPa | 2.6V | 00:00:00 | 00:00:00 | 00:00:00 | |
| OE9MKV-15 | 2026-08-31 00:00:10 | 47.12447 | 8.04286 | 47° | 29km/h | 18564m | 5.5m/s | -54.9°C | 4.3% | 0hPa | 2.6V | 00:00:00 | 01:25:55 | 00:00:00 | |
| DO3MHA-11 | 2026-08-31 00:00:08 | 47.12443 | 8.04279 | 52° | 24km/h | 18559m | 4.4m/s | -54.8°C | 4.4% | 0hPa | 2.6V | 00:00:00 | 01:25:54 | 08:30:00 | |
| HASLITAL | 2026-08-31 00:00:07 | 47.12443 | 8.04279 | 53° | 27km/h | 18559m | 4.4m/s | -54.9°C | 1.5% | 0hPa | 2.6V | 00:00:00 | 00:00:00 | 00:00:00 | |
| DB0UT-7 | 2026-08-30 23:59:58 | 47.12419 | 8.04217 | 71° | 35km/h | 18521m | 5.6m/s | -54.7°C | 4.3% | 0hPa | 2.6V | 00:00:00 | 00:00:00 | 00:00:00 | |
| DF7PN | 2026-08-30 23:59:57 | 47.12417 | 8.04209 | 62° | 22km/h | 18515m | 5.1m/s | -54.7°C | 1.2% | -1.0hPa | 2.6V | 00:00:00 | 00:00:00 | 00:00:00 | |
| DO3MHA-11 | 2026-08-30 23:59:56 | 47.12414 | 8.04201 | 57° | 31km/h | 18511m | 3.8m/s | -54.6°C | 4.3% | 0hPa | 2.6V | 00:00:00 | 01:25:44 | 00:00:00 | |
| DL1ZP-14 | 2026-08-30 23:59:55 | 47.12407 | 8.04184 | 58° | 29km/h | 18501m | 5.7m/s | -54.7°C | 1.3% | -1.0hPa | 2.6V | 00:00:00 | 00:00:00 | 00:00:00 | |
| DO3MHA-12 | 2026-08-30 23:59:52 | 47.12399 | 8.04164 | 62° | 31km/h | 18491m | 4.5m/s | -54.6°C | 4.3% | 0hPa | 2.7V | 00:00:00 | 01:25:40 | 00:00:00 | |
| LOEBOVI | 2026-08-30 23:59:50 | 47.12395 | 8.04154 | 62° | 29km/h | 18486m | 5.9m/s | -54.6°C | 0% | 0hPa | 2.7V | 00:00:00 | 00:00:00 | 00:00:00 | |
| DF3TZ-5 | 2026-08-30 23:59:49 | 47.12385 | 8.04124 | 68° | 31km/h | 18472m | 5.5m/s | -54.6°C | 1.2% | -1.0hPa | 2.7V | 00:00:00 | 00:00:00 | 00:00:00 | |
| DO3MHA-11 | 2026-08-30 23:59:46 | 47.12380 | 8.04099 | 74° | 33km/h | 18463m | 3.7m/s | -54.6°C | 4.2% | 0hPa | 2.7V | 00:00:00 | 01:25:34 | 00:00:00 | |
| HASLITAL | 2026-08-30 23:59:44 | 47.12377 | 8.04087 | 73° | 33km/h | 18458m | 5.1m/s | -54.7°C | 1.4% | 0hPa | 2.7V | 00:00:00 | 00:00:00 | 00:00:00 | |
| DO3MHA-12 | 2026-08-30 23:59:42 | 47.12368 | 8.04055 | 64° | 37km/h | 18444m | 4.5m/s | -54.9°C | 4.2% | 0hPa | 2.7V | 00:00:00 | 01:25:30 | 00:00:00 | |
| DB0ND-19 | 2026-08-30 23:59:39 | 47.12353 | 8.04011 | 64° | 33km/h | 18425m | 5.4m/s | -55.0°C | 1.3% | -1.0hPa | 2.7V | 00:00:00 | 00:00:00 | 00:00:00 | |
| DK5PH-5 | 2026-08-30 23:59:38 | 47.12353 | 8.04011 | 65° | 44km/h | 18425m | 5.3m/s | -55.0°C | 4.3% | 0hPa | 2.7V | 00:00:00 | 01:25:26 | 00:00:00 | |
| OE9MKV-15 | 2026-08-30 23:59:37 | 47.12349 | 8.03999 | 65° | 46km/h | 18420m | 3.7m/s | -55.0°C | 4.3% | 0hPa | 2.7V | 00:00:00 | 01:25:25 | 00:00:00 | |
| DO3MHA-11 | 2026-08-30 23:59:36 | 47.12345 | 8.03987 | 66° | 44km/h | 18416m | 4.7m/s | -55.0°C | 4.3% | 0hPa | 2.7V | 00:00:00 | 01:25:24 | 00:00:00 | |
| DO3MHA-12 | 2026-08-30 23:59:32 | 47.12327 | 8.03929 | 62° | 44km/h | 18396m | 4.8m/s | -54.9°C | 4.3% | 0hPa | 2.6V | 00:00:00 | 01:25:20 | 08:30:00 | |
| DB0UT-7 | 2026-08-30 23:59:28 | 47.12301 | 8.03877 | 52° | 46km/h | 18379m | 3.4m/s | -54.8°C | 4.2% | 0hPa | 2.6V | 00:00:00 | 01:25:16 | 00:00:00 | |
| DO3MHA-11 | 2026-08-30 23:59:26 | 47.12288 | 8.03851 | 58° | 44km/h | 18370m | 4.5m/s | -54.8°C | 4.2% | 0hPa | 2.6V | 00:00:00 | 01:25:14 | 00:00:00 | |
| DL1ZP-14 | 2026-08-30 23:59:24 | 47.12275 | 8.03809 | 69° | 44km/h | 18356m | 4.9m/s | -55.1°C | 1.3% | -1.0hPa | 2.6V | 00:00:00 | 00:00:00 | 00:00:00 | |
| HASLITAL | 2026-08-30 23:59:23 | 47.12279 | 8.03823 | 68° | 42km/h | 18361m | 4.8m/s | -55.0°C | 1.4% | 0hPa | 2.6V | 00:00:00 | 00:00:00 | 00:00:00 | |
| DO3MHA-12 | 2026-08-30 23:59:22 | 47.12271 | 8.03793 | 72° | 47km/h | 18352m | 3.9m/s | -55.2°C | 4.3% | 0hPa | 2.6V | 00:00:00 | 01:25:10 | 00:00:00 | |
| DF3TZ-5 | 2026-08-30 23:59:18 | 47.12204 | 8.03570 | 66° | 46km/h | 18291m | 5.3m/s | -55.7°C | 1.3% | -1.0hPa | 2.6V | 00:00:00 | 00:00:00 | 00:00:00 | |
| DO3MHA-11 | 2026-08-30 23:59:16 | 47.12246 | 8.03699 | 64° | 47km/h | 18325m | 4.3m/s | -55.5°C | 4.4% | 0hPa | 2.6V | 00:00:00 | 01:25:04 | 00:00:00 | |
| DO3MHA-12 | 2026-08-30 23:59:12 | 47.12224 | 8.03634 | 65° | 47km/h | 18308m | 3.5m/s | -55.5°C | 4.5% | 0hPa | 2.6V | 00:00:00 | 01:25:00 | 00:00:00 | |
| IW2NTF | 2026-08-30 23:59:09 | 47.12190 | 8.03524 | 66° | 47km/h | 18278m | 4.7m/s | -55.8°C | 4.5% | 0hPa | 2.6V | 08:30:00 | 01:24:53 | 00:00:00 | |
| DK5PH-5 | 2026-08-30 23:59:08 | 47.12203 | 8.03570 | 67° | 46km/h | 18291m | 5.2m/s | -55.6°C | 4.4% | 0hPa | 2.7V | 00:00:00 | 01:24:56 | 00:00:00 | |
| DO3MHA-11 | 2026-08-30 23:59:06 | 47.12195 | 8.03540 | 67° | 47km/h | 18282m | 3.2m/s | -55.7°C | 4.5% | 0hPa | 2.6V | 00:00:00 | 01:24:54 | 00:00:00 | |
| DO3MHA-12 | 2026-08-30 23:59:02 | 47.12174 | 8.03475 | 63° | 49km/h | 18265m | 5.0m/s | -55.9°C | 4.5% | 0hPa | 2.7V | 00:00:00 | 01:24:50 | 00:00:00 | |
| IW2NTF | 2026-08-30 23:58:59 | 47.12127 | 8.03370 | 55° | 47km/h | 18233m | 4.5m/s | -56.1°C | 4.6% | 0hPa | 2.6V | 08:30:00 | 01:24:43 | 00:00:00 | |
| DF7PN | 2026-08-30 23:58:55 | 47.12127 | 8.03370 | 55° | 47km/h | 18233m | 4.5m/s | -56.1°C | 1.4% | -1.0hPa | 2.7V | 00:00:00 | 00:00:00 | 00:00:00 | |
| DL1ZP-14 | 2026-08-30 23:58:53 | 47.12106 | 8.03324 | 55° | 51km/h | 18221m | 3.4m/s | -56.1°C | 1.4% | -1.0hPa | 2.7V | 00:00:00 | 00:00:00 | 00:00:00 | |
| DO3MHA-12 | 2026-08-30 23:58:52 | 47.12106 | 8.03324 | 56° | 49km/h | 18221m | 3.4m/s | -56.0°C | 4.6% | 0hPa | 2.6V | 00:00:00 | 01:24:40 | 00:00:00 | |
| DO3MHA-11 | 2026-08-30 23:58:46 | 47.12057 | 8.03241 | 47° | 46km/h | 18197m | 4.4m/s | -56.2°C | 4.6% | 0hPa | 2.6V | 00:00:00 | 01:24:34 | 00:00:00 | |
| DO3MHA-12 | 2026-08-30 23:58:43 | 47.12025 | 8.03190 | 52° | 44km/h | 18180m | 3.8m/s | -56.1°C | 4.5% | 0hPa | 2.6V | 00:00:00 | 01:24:30 | 00:00:00 | |
| DB0ND-19 | 2026-08-30 23:58:37 | 47.11978 | 8.03081 | 49° | 40km/h | 18146m | 4.5m/s | -56.2°C | 1.4% | -1.0hPa | 2.6V | 00:00:00 | 00:00:00 | 00:00:00 | |
| DO3MHA-12 | 2026-08-30 23:58:32 | 47.11964 | 8.03056 | 52° | 37km/h | 18137m | 4.2m/s | -56.1°C | 4.6% | 0hPa | 2.6V | 00:00:00 | 01:24:20 | 00:00:00 | |
| DH7VM-15 | 2026-08-30 23:58:29 | 47.11951 | 8.03031 | 54° | 38km/h | 18129m | 4.3m/s | -56.2°C | 1.5% | 0hPa | 2.6V | 00:00:00 | 00:00:00 | 00:00:00 | |
| LOEBOVI | 2026-08-30 23:58:28 | 47.11940 | 8.03010 | 60° | 31km/h | 18120m | 4.3m/s | 0°C | 0% | 0hPa | 2.6V | 00:00:00 | 00:00:00 | 00:00:00 | |
| DO3MHA-11 | 2026-08-30 23:58:26 | 47.11933 | 8.02989 | 69° | 35km/h | 18111m | 5.2m/s | -56.2°C | 4.6% | 0hPa | 2.6V | 00:00:00 | 01:24:14 | 00:00:00 | |
| DF7PN | 2026-08-30 23:58:24 | 47.11928 | 8.02964 | 74° | 35km/h | 18102m | 3.8m/s | -56.4°C | 1.4% | -1.0hPa | 2.6V | 00:00:00 | 00:00:00 | 00:00:00 | |
| DO3MHA-12 | 2026-08-30 23:58:22 | 47.11923 | 8.02939 | 73° | 33km/h | 18093m | 3.9m/s | -56.4°C | 4.7% | 0hPa | 2.6V | 00:00:00 | 01:24:10 | 00:00:00 | |
| HASLITAL | 2026-08-30 23:58:21 | 47.11923 | 8.02939 | 74° | 33km/h | 18093m | 4.0m/s | -56.4°C | 1.6% | 0hPa | 2.6V | 00:00:00 | 00:00:00 | 00:00:00 | |
| DO3MHA-11 | 2026-08-30 23:58:16 | 47.11903 | 8.02870 | 72° | 38km/h | 18068m | 4.1m/s | -56.4°C | 4.6% | 0hPa | 2.6V | 00:00:00 | 01:24:04 | 00:00:00 | |
| DO3MHA-12 | 2026-08-30 23:58:12 | 47.11896 | 8.02823 | 78° | 42km/h | 18053m | 4.6m/s | -56.3°C | 4.6% | 0hPa | 2.6V | 00:00:00 | 01:24:00 | 00:00:00 | |
| OE9MKV-15 | 2026-08-30 23:58:07 | 47.11883 | 8.02746 | 73° | 42km/h | 18031m | 4.9m/s | -56.4°C | 4.7% | 0hPa | 2.6V | 00:00:00 | 01:23:55 | 00:00:00 | |
| DB0ND-19 | 2026-08-30 23:58:06 | 47.11858 | 8.02635 | 74° | 40km/h | 17998m | 4.1m/s | -56.4°C | 1.4% | -1.0hPa | 2.6V | 00:00:00 | 00:00:00 | 00:00:00 | |
| DF7PN | 2026-08-30 23:57:53 | 47.11837 | 8.02540 | 66° | 47km/h | 17974m | 4.2m/s | -56.3°C | 1.4% | -1.0hPa | 2.6V | 00:00:00 | 00:00:00 | 00:00:00 | |
| DL1ZP-14 | 2026-08-30 23:57:51 | 47.11824 | 8.02494 | 66° | 40km/h | 17962m | 4.1m/s | -56.4°C | 1.4% | -1.0hPa | 2.6V | 00:00:00 | 00:00:00 | 00:00:00 | |
| DO3MHA-11 | 2026-08-30 23:57:46 | 47.11809 | 8.02444 | 72° | 42km/h | 17944m | 4.9m/s | -56.3°C | 4.7% | 0hPa | 2.6V | 00:00:00 | 01:23:34 | 00:00:00 | |
| DO3MHA-12 | 2026-08-30 23:57:42 | 47.11796 | 8.02392 | 66° | 44km/h | 17927m | 4.1m/s | -56.2°C | 4.7% | 0hPa | 2.6V | 00:00:00 | 01:23:30 | 00:00:00 | |
| HASLITAL | 2026-08-30 23:57:40 | 47.11792 | 8.02378 | 66° | 44km/h | 17923m | 5.2m/s | -56.2°C | 1.6% | 0hPa | 2.6V | 00:00:00 | 00:00:00 | 00:00:00 | |
| OE9MKV-15 | 2026-08-30 23:57:37 | 47.11768 | 8.02318 | 55° | 42km/h | 17904m | 3.6m/s | -56.1°C | 4.7% | 0hPa | 2.6V | 00:00:00 | 01:23:25 | 00:00:00 | |
| DB0ND-19 | 2026-08-30 23:57:35 | 47.11751 | 8.02279 | 66° | 38km/h | 17892m | 4.6m/s | -56.1°C | 1.4% | -1.0hPa | 2.6V | 00:00:00 | 00:00:00 | 00:00:00 | |
| DK5PH-5 | 2026-08-30 23:57:32 | 47.11745 | 8.02251 | 74° | 40km/h | 17885m | 3.6m/s | -56.0°C | 4.6% | 0hPa | 2.6V | 00:00:00 | 01:23:20 | 00:00:00 | |
| DB0UT-7 | 2026-08-30 23:57:28 | 47.11729 | 8.02193 | 64° | 40km/h | 17868m | 4.0m/s | -56.0°C | 4.6% | 0hPa | 2.7V | 00:00:00 | 01:23:16 | 00:00:00 | |
| DO3MHA-11 | 2026-08-30 23:57:26 | 47.11719 | 8.02166 | 62° | 42km/h | 17858m | 4.5m/s | -55.9°C | 4.6% | 0hPa | 2.7V | 00:00:00 | 01:23:14 | 00:00:00 | |
| DH7VM-15 | 2026-08-30 23:57:24 | 47.11714 | 8.02153 | 62° | 40km/h | 17854m | 3.5m/s | -56.0°C | 0% | 0hPa | 2.7V | 00:00:00 | 00:00:00 | 00:00:00 | |
| DO3MHA-12 | 2026-08-30 23:57:22 | 47.11698 | 8.02113 | 62° | 42km/h | 17842m | 4.0m/s | -55.9°C | 4.5% | 0hPa | 2.7V | 00:00:00 | 01:23:10 | 00:00:00 | |
| HASLITAL | 2026-08-30 23:57:20 | 47.11693 | 8.02099 | 65° | 42km/h | 17837m | 5.4m/s | -56.0°C | 1.6% | 0hPa | 2.7V | 00:00:00 | 00:00:00 | 00:00:00 | |
| DL1ZP-14 | 2026-08-30 23:57:19 | 47.11685 | 8.02072 | 64° | 40km/h | 17828m | 3.9m/s | -56.1°C | 1.4% | -1.0hPa | 2.7V | 00:00:00 | 00:00:00 | 00:00:00 | |
| DO3MHA-11 | 2026-08-30 23:57:16 | 47.11670 | 8.02029 | 61° | 40km/h | 17816m | 2.9m/s | -56.1°C | 4.6% | 0hPa | 2.6V | 00:00:00 | 01:23:04 | 00:00:00 | |
| DO3MHA-12 | 2026-08-30 23:57:13 | 47.11650 | 8.01975 | 61° | 38km/h | 17799m | 3.9m/s | -56.1°C | 4.7% | 0hPa | 2.6V | 00:00:00 | 01:23:00 | 00:00:00 | |
| OE9MKV-15 | 2026-08-30 23:57:07 | 47.11622 | 8.01918 | 55° | 42km/h | 17776m | 3.9m/s | -56.1°C | 4.6% | 0hPa | 2.6V | 00:00:00 | 01:22:55 | 00:00:00 | |
| DO3MHA-11 | 2026-08-30 23:57:06 | 47.11617 | 8.01907 | 58° | 38km/h | 17772m | 3.5m/s | -56.1°C | 4.6% | 0hPa | 2.6V | 00:00:00 | 01:22:54 | 08:30:00 | |
| DB0ND-19 | 2026-08-30 23:57:04 | 47.11593 | 8.01845 | 67° | 37km/h | 17750m | 5.5m/s | -56.0°C | 1.4% | -1.0hPa | 2.6V | 00:00:00 | 00:00:00 | 00:00:00 | |
| DF7PN | 2026-08-30 23:56:51 | 47.11546 | 8.01693 | 67° | 40km/h | 17702m | 4.9m/s | -56.4°C | 1.4% | -1.0hPa | 2.6V | 00:00:00 | 00:00:00 | 00:00:00 | |
| DL1ZP-14 | 2026-08-30 23:56:48 | 47.11537 | 8.01664 | 66° | 44km/h | 17693m | 3.7m/s | -56.6°C | 1.4% | -1.0hPa | 2.6V | 00:00:00 | 00:00:00 | 00:00:00 | |
| DO3MHA-11 | 2026-08-30 23:56:46 | 47.11529 | 8.01634 | 71° | 47km/h | 17684m | 4.4m/s | -56.6°C | 4.7% | 0hPa | 2.7V | 00:00:00 | 01:22:34 | 00:00:00 | |
| DO3MHA-12 | 2026-08-30 23:56:42 | 47.11511 | 8.01572 | 66° | 51km/h | 17666m | 4.9m/s | -56.7°C | 4.6% | 0hPa | 2.7V | 00:00:00 | 01:22:30 | 00:00:00 | |
| HASLITAL | 2026-08-30 23:56:38 | 47.11497 | 8.01525 | 66° | 49km/h | 17652m | 4.7m/s | -56.8°C | 1.7% | 0hPa | 2.7V | 00:00:00 | 00:00:00 | 00:00:00 | |
| OE9MKV-15 | 2026-08-30 23:56:37 | 47.11486 | 8.01490 | 64° | 60km/h | 17642m | 3.6m/s | -56.8°C | 4.7% | 0hPa | 2.7V | 00:00:00 | 01:22:25 | 00:00:00 | |
| DO3MHA-11 | 2026-08-30 23:56:36 | 47.11480 | 8.01472 | 66° | 58km/h | 17638m | 3.7m/s | -56.8°C | 4.7% | 0hPa | 2.7V | 00:00:00 | 01:22:24 | 00:00:00 | |
| DB0ND-19 | 2026-08-30 23:56:33 | 47.11459 | 8.01393 | 69° | 58km/h | 17619m | 5.6m/s | -57.1°C | 1.5% | -1.0hPa | 2.6V | 00:00:00 | 00:00:00 | 00:00:00 | |
| DO3MHA-12 | 2026-08-30 23:56:32 | 47.11459 | 8.01393 | 70° | 60km/h | 17619m | 5.5m/s | -57.1°C | 4.8% | 0hPa | 2.6V | 00:00:00 | 01:22:20 | 08:30:00 | |
| DB0UT-7 | 2026-08-30 23:56:28 | 47.11437 | 8.01308 | 70° | 60km/h | 17599m | 4.5m/s | -57.2°C | 4.9% | 0hPa | 2.6V | 00:00:00 | 01:22:16 | 08:30:00 | |
| DO3MHA-11 | 2026-08-30 23:56:26 | 47.11425 | 8.01268 | 64° | 62km/h | 17590m | 5.6m/s | -57.2°C | 4.9% | 0hPa | 2.6V | 00:00:00 | 01:22:14 | 00:00:00 | |
| DO3MHA-12 | 2026-08-30 23:56:22 | 47.11395 | 8.01190 | 61° | 64km/h | 17571m | 4.4m/s | -57.5°C | 5.1% | 0hPa | 2.6V | 00:00:00 | 01:22:10 | 00:00:00 | |
| DF7PN | 2026-08-30 23:56:20 | 47.11370 | 8.01129 | 58° | 64km/h | 17556m | 4.8m/s | -57.6°C | 1.5% | -1.0hPa | 2.6V | 00:00:00 | 00:00:00 | 00:00:00 | |
| DL1ZP-14 | 2026-08-30 23:56:17 | 47.11353 | 8.01087 | 61° | 66km/h | 17546m | 5.5m/s | -57.5°C | 1.5% | -1.0hPa | 2.6V | 00:00:00 | 00:00:00 | 00:00:00 | |
| DO3MHA-11 | 2026-08-30 23:56:16 | 47.11345 | 8.01065 | 63° | 60km/h | 17542m | 3.9m/s | -57.5°C | 5.0% | 0hPa | 2.6V | 00:00:00 | 01:22:04 | 00:00:00 | |
| DO3MHA-12 | 2026-08-30 23:56:12 | 47.11312 | 8.00986 | 54° | 58km/h | 17524m | 4.6m/s | -57.4°C | 5.0% | 0hPa | 2.6V | 00:00:00 | 01:22:00 | 00:00:00 | |
| DF3TZ-5 | 2026-08-30 23:56:11 | 47.11303 | 8.00969 | 55° | 57km/h | 17518m | 5.5m/s | 0°C | -1.0% | -1.0hPa | 2.6V | 00:00:00 | 00:00:00 | 00:00:00 | |
| DO3MHA-11 | 2026-08-30 23:56:06 | 47.11261 | 8.00880 | 56° | 53km/h | 17496m | 4.2m/s | -57.2°C | 5.0% | 0hPa | 2.6V | 00:00:00 | 01:21:54 | 00:00:00 | |
| DB0ND-19 | 2026-08-30 23:56:01 | 47.11214 | 8.00780 | 48° | 51km/h | 17468m | 4.5m/s | -57.1°C | 1.6% | -1.0hPa | 2.7V | 00:00:00 | 00:00:00 | 00:00:00 | |
| DF7PN | 2026-08-30 23:55:49 | 47.11118 | 8.00606 | 49° | 53km/h | 17412m | 4.1m/s | -56.8°C | 1.5% | -1.0hPa | 2.7V | 00:00:00 | 00:00:00 | 00:00:00 | |
| DO3MHA-11 | 2026-08-30 23:55:46 | 47.11100 | 8.00575 | 50° | 47km/h | 17404m | 5.2m/s | -56.7°C | 4.9% | 0hPa | 2.7V | 00:00:00 | 01:21:34 | 00:00:00 | |
| DO3MHA-12 | 2026-08-30 23:55:42 | 47.11067 | 8.00519 | 46° | 46km/h | 17386m | 4.6m/s | -56.6°C | 4.8% | 0hPa | 2.7V | 00:00:00 | 01:21:30 | 00:00:00 | |
| DF3TZ-5 | 2026-08-30 23:55:40 | 47.11044 | 8.00484 | 47° | 40km/h | 17371m | 4.5m/s | 0°C | -1.0% | -1.0hPa | 2.7V | 00:00:00 | 00:00:00 | 00:00:00 | |
| DO3MHA-11 | 2026-08-30 23:55:36 | 47.11022 | 8.00448 | 47° | 47km/h | 17358m | 4.0m/s | -56.5°C | 4.9% | 0hPa | 2.7V | 00:00:00 | 01:21:24 | 08:30:00 | |
| HASLITAL | 2026-08-30 23:55:35 | 47.11022 | 8.00449 | 47° | 46km/h | 17358m | 4.0m/s | -56.5°C | 1.7% | 0hPa | 2.7V | 00:00:00 | 00:00:00 | 00:00:00 | |
| DK5PH-5 | 2026-08-30 23:55:32 | 47.10989 | 8.00398 | 45° | 46km/h | 17340m | 4.3m/s | -56.3°C | 4.8% | 0hPa | 2.7V | 00:00:00 | 01:21:20 | 00:00:00 | |
| DB0ND-19 | 2026-08-30 23:55:30 | 47.10962 | 8.00365 | 38° | 47km/h | 17328m | 3.4m/s | -56.3°C | 1.5% | -1.0hPa | 2.7V | 00:00:00 | 00:00:00 | 00:00:00 | |
| DB0UT-7 | 2026-08-30 23:55:28 | 47.10953 | 8.00353 | 41° | 46km/h | 17324m | 4.6m/s | -56.2°C | 4.7% | 0hPa | 2.7V | 00:00:00 | 01:21:16 | 00:00:00 | |
| DO3MHA-11 | 2026-08-30 23:55:26 | 47.10936 | 8.00330 | 43° | 47km/h | 17314m | 4.1m/s | -56.2°C | 4.8% | 0hPa | 2.7V | 00:00:00 | 01:21:14 | 00:00:00 | |
| DO3MHA-12 | 2026-08-30 23:55:22 | 47.10900 | 8.00283 | 46° | 47km/h | 17298m | 3.9m/s | -56.1°C | 4.7% | 0hPa | 2.7V | 00:00:00 | 01:21:10 | 00:00:00 | |
| DF7PN | 2026-08-30 23:55:18 | 47.10859 | 8.00221 | 39° | 44km/h | 17276m | 4.1m/s | -56.0°C | 1.5% | -1.0hPa | 2.7V | 00:00:00 | 00:00:00 | 00:00:00 | |
| DO3MHA-11 | 2026-08-30 23:55:16 | 47.10850 | 8.00210 | 39° | 47km/h | 17272m | 4.1m/s | -55.9°C | 4.7% | 0hPa | 2.7V | 00:00:00 | 01:21:04 | 00:00:00 | |
| DL1ZP-14 | 2026-08-30 23:55:15 | 47.10841 | 8.00199 | 38° | 47km/h | 17268m | 3.9m/s | -56.0°C | 1.5% | -1.0hPa | 2.7V | 00:00:00 | 00:00:00 | 00:00:00 | |
| DO3MHA-12 | 2026-08-30 23:55:12 | 47.10813 | 8.00164 | 44° | 82km/h | 17254m | 4.5m/s | -55.8°C | 4.7% | 0hPa | 2.6V | 00:00:00 | 01:21:00 | 00:00:00 | |
| DO3MHA-11 | 2026-08-30 23:55:06 | 47.10758 | 8.00098 | 34° | 42km/h | 17229m | 5.0m/s | -55.7°C | 4.5% | 0hPa | 2.6V | 00:00:00 | 01:20:54 | 00:00:00 | |
| DB0ND-19 | 2026-08-30 23:54:59 | 47.10703 | 8.00029 | 48° | 42km/h | 17197m | 3.7m/s | -55.8°C | 1.4% | -1.0hPa | 2.6V | 00:00:00 | 00:00:00 | 00:00:00 | |
| DF7PN | 2026-08-30 23:54:47 | 47.10595 | 7.99901 | 42° | 35km/h | 17139m | 3.7m/s | -57.0°C | 1.6% | -1.0hPa | 2.6V | 00:00:00 | 00:00:00 | 00:00:00 | |
| DO3MHA-11 | 2026-08-30 23:54:46 | 47.10595 | 7.99901 | 43° | 44km/h | 17139m | 3.7m/s | -57.0°C | 4.9% | 0hPa | 2.6V | 00:00:00 | 01:20:34 | 00:00:00 | |
| DL1ZP-14 | 2026-08-30 23:54:44 | 47.10580 | 7.99883 | 38° | 42km/h | 17129m | 4.8m/s | -57.0°C | 1.6% | -1.0hPa | 2.6V | 00:00:00 | 00:00:00 | 00:00:00 | |
| OE9MKV-15 | 2026-08-30 23:54:36 | 47.10492 | 7.99805 | 34° | 40km/h | 17088m | 4.8m/s | -56.9°C | 4.9% | 0hPa | 2.6V | 00:00:00 | 01:20:23 | 08:30:00 | |
| HASLITAL | 2026-08-30 23:54:34 | 47.10492 | 7.99805 | 34° | 44km/h | 17088m | 4.9m/s | -56.9°C | 1.8% | 0hPa | 2.7V | 00:00:00 | 00:00:00 | 00:00:00 | |
| DK5PH-5 | 2026-08-30 23:54:32 | 47.10467 | 7.99778 | 35° | 38km/h | 17074m | 4.7m/s | -56.9°C | 5.0% | 0hPa | 2.7V | 00:00:00 | 01:20:20 | 00:00:00 | |
| DB0ND-19 | 2026-08-30 23:54:29 | 47.10432 | 7.99743 | 35° | 42km/h | 17056m | 4.5m/s | -57.0°C | 1.6% | -1.0hPa | 2.6V | 00:00:00 | 00:00:00 | 00:00:00 | |
| DB0UT-7 | 2026-08-30 23:54:28 | 47.10432 | 7.99743 | 36° | 37km/h | 17056m | 4.4m/s | -57.0°C | 4.9% | 0hPa | 2.6V | 00:00:00 | 01:20:16 | 00:00:00 | |
| DO3MHA-11 | 2026-08-30 23:54:26 | 47.10414 | 7.99726 | 30° | 40km/h | 17047m | 5.1m/s | -57.0°C | 5.0% | 0hPa | 2.6V | 00:00:00 | 01:20:14 | 00:00:00 | |
| LOEBOVI | 2026-08-30 23:54:17 | 47.10348 | 7.99662 | 39° | 40km/h | 17011m | 5.1m/s | 0°C | 0% | 0hPa | 2.6V | 00:00:00 | 00:00:00 | 00:00:00 | |
| DO3MHA-11 | 2026-08-30 23:54:16 | 47.10331 | 7.99644 | 37° | 38km/h | 17002m | 4.0m/s | -57.2°C | 5.1% | 0hPa | 2.6V | 00:00:00 | 01:20:04 | 00:00:00 | |
| DF7PN | 2026-08-30 23:54:15 | 47.10323 | 7.99635 | 37° | 40km/h | 16997m | 5.2m/s | -57.2°C | 1.7% | -1.0hPa | 2.6V | 00:00:00 | 00:00:00 | 00:00:00 | |
| DL1ZP-14 | 2026-08-30 23:54:13 | 47.10307 | 7.99615 | 39° | 40km/h | 16987m | 4.2m/s | -57.2°C | 1.7% | -1.0hPa | 2.6V | 00:00:00 | 00:00:00 | 00:00:00 | |
| DO3MHA-11 | 2026-08-30 23:54:06 | 47.10260 | 7.99556 | 47° | 31km/h | 16954m | 4.5m/s | -56.9°C | 5.1% | 0hPa | 2.7V | 00:00:00 | 01:19:54 | 08:30:00 | |
| OE9MKV-15 | 2026-08-30 23:54:05 | 47.10255 | 7.99548 | 41° | 29km/h | 16949m | 5.6m/s | -56.9°C | 5.1% | 0hPa | 2.6V | 00:00:00 | 01:19:53 | 00:00:00 | |
| DB0ND-19 | 2026-08-30 23:53:57 | 47.10209 | 7.99487 | 40° | 33km/h | 16913m | 4.8m/s | -56.7°C | 1.7% | -1.0hPa | 2.6V | 00:00:00 | 00:00:00 | 00:00:00 | |
| DO3MHA-11 | 2026-08-30 23:53:56 | 47.10202 | 7.99479 | 35° | 26km/h | 16909m | 3.9m/s | -56.7°C | 5.1% | 0hPa | 2.6V | 00:00:00 | 01:19:44 | 00:00:00 | |
| HASLITAL | 2026-08-30 23:53:53 | 47.10188 | 7.99466 | 33° | 31km/h | 16901m | 5.0m/s | -56.6°C | 1.9% | 0hPa | 2.6V | 00:00:00 | 00:00:00 | 00:00:00 | |
| DH7VM-15 | 2026-08-30 23:53:49 | 47.10164 | 7.99447 | 20° | 24km/h | 16883m | 5.3m/s | -56.5°C | 0% | 0hPa | 2.6V | 00:00:00 | 00:00:00 | 00:00:00 | |
| DO3MHA-11 | 2026-08-30 23:53:46 | 47.10146 | 7.99440 | 28° | 29km/h | 16865m | 3.3m/s | -56.3°C | 4.9% | 0hPa | 2.6V | 00:00:00 | 01:19:34 | 00:00:00 | |
| DF7PN | 2026-08-30 23:53:44 | 47.10138 | 7.99431 | 39° | 24km/h | 16856m | 5.9m/s | -56.3°C | 1.7% | -1.0hPa | 2.6V | 00:00:00 | 00:00:00 | 00:00:00 | |
| DL1ZP-14 | 2026-08-30 23:53:42 | 47.10126 | 7.99416 | 39° | 38km/h | 16847m | 3.6m/s | -56.3°C | 1.7% | -1.0hPa | 2.6V | 00:00:00 | 00:00:00 | 00:00:00 | |
| DO3MHA-11 | 2026-08-30 23:53:36 | 47.10086 | 7.99375 | 35° | 24km/h | 16821m | 4.6m/s | -56.3°C | 4.8% | 0hPa | 2.6V | 00:00:00 | 01:19:24 | 00:00:00 | |
| OE9MKV-15 | 2026-08-30 23:53:35 | 47.10080 | 7.99369 | 37° | 29km/h | 16815m | 6.1m/s | 0°C | 0% | 0hPa | 2.7V | 00:00:00 | 01:19:23 | 00:00:00 | |
| HASLITAL | 2026-08-30 23:53:33 | 47.10070 | 7.99357 | 44° | 27km/h | 16804m | 4.3m/s | -56.5°C | 1.9% | 0hPa | 2.7V | 00:00:00 | 00:00:00 | 00:00:00 | |
| DK5PH-5 | 2026-08-30 23:53:31 | 47.10060 | 7.99343 | 46° | 29km/h | 16795m | 5.5m/s | -56.6°C | 4.9% | 0hPa | 2.7V | 00:00:00 | 01:19:19 | 00:00:00 | |
| DB0UT-7 | 2026-08-30 23:53:28 | 47.10049 | 7.99326 | 45° | 31km/h | 16782m | 4.4m/s | -56.6°C | 4.8% | 0hPa | 2.7V | 00:00:00 | 01:19:16 | 00:00:00 | |
| DO3MHA-11 | 2026-08-30 23:53:26 | 47.10041 | 7.99314 | 48° | 40km/h | 16773m | 3.7m/s | -56.8°C | 5.0% | 0hPa | 2.7V | 00:00:00 | 01:19:14 | 00:00:00 | |
| DF7PN | 2026-08-30 23:53:13 | 47.10002 | 7.99194 | 70° | 35km/h | 16716m | 4.8m/s | -57.2°C | 1.8% | -1.0hPa | 2.7V | 00:00:00 | 00:00:00 | 00:00:00 | |
| HASLITAL | 2026-08-30 23:53:12 | 47.10002 | 7.99194 | 71° | 35km/h | 16716m | 4.8m/s | -57.2°C | 2.0% | 0hPa | 2.7V | 00:00:00 | 00:00:00 | 00:00:00 | |
| DL1ZP-14 | 2026-08-30 23:53:11 | 47.09996 | 7.99170 | 72° | 33km/h | 16707m | 5.1m/s | -57.2°C | 1.8% | -1.0hPa | 2.7V | 00:00:00 | 00:00:00 | 00:00:00 | |
| OE9MKV-15 | 2026-08-30 23:53:05 | 47.09982 | 7.99096 | 80° | 35km/h | 16680m | 4.7m/s | 0°C | 0% | 0hPa | 2.7V | 00:00:00 | 01:18:53 | 00:00:00 | |
| DK5PH-5 | 2026-08-30 23:53:01 | 47.09973 | 7.99047 | 66° | 35km/h | 16663m | 4.6m/s | -57.8°C | 5.5% | 0hPa | 2.7V | 00:00:00 | 01:18:49 | 00:00:00 | |
| DB0UT-7 | 2026-08-30 23:52:58 | 47.09960 | 7.99012 | 61° | 35km/h | 16649m | 3.7m/s | -57.7°C | 5.4% | 0hPa | 2.7V | 00:00:00 | 00:00:00 | 00:00:00 | |
| LOEBOVI | 2026-08-30 23:52:55 | 47.09946 | 7.98979 | 59° | 37km/h | 16636m | 3.5m/s | 0°C | 0% | 0hPa | 2.7V | 00:00:00 | 00:00:00 | 00:00:00 | |
| HASLITAL | 2026-08-30 23:52:51 | 47.09934 | 7.98945 | 67° | 33km/h | 16624m | 4.2m/s | -57.6°C | 2.2% | 0hPa | 2.7V | 00:00:00 | 00:00:00 | 00:00:00 | |
| DF7PN | 2026-08-30 23:52:42 | 47.09901 | 7.98823 | 70° | 37km/h | 16581m | 3.7m/s | -57.4°C | 1.9% | -1.0hPa | 2.7V | 00:00:00 | 00:00:00 | 00:00:00 | |
| DL1ZP-14 | 2026-08-30 23:52:40 | 47.09895 | 7.98796 | 72° | 38km/h | 16572m | 4.0m/s | -57.4°C | 1.9% | -1.0hPa | 2.7V | 00:00:00 | 00:00:00 | 00:00:00 | |
| OE9MKV-15 | 2026-08-30 23:52:35 | 47.09878 | 7.98736 | 64° | 53km/h | 16552m | 3.1m/s | 0°C | 0% | 0hPa | 2.7V | 00:00:00 | 01:18:23 | 00:00:00 | |
| DF3TZ-5 | 2026-08-30 23:52:34 | 47.09875 | 7.98726 | 65° | 29km/h | 16548m | 4.9m/s | 0°C | -1.0% | -1.0hPa | 2.7V | 00:00:00 | 00:00:00 | 00:00:00 | |
| DK5PH-5 | 2026-08-30 23:52:31 | 47.09868 | 7.98690 | 79° | 37km/h | 16535m | 5.1m/s | -57.3°C | 5.4% | 0hPa | 2.7V | 00:00:00 | 01:18:19 | 00:00:00 | |
| DB0UT-7 | 2026-08-30 23:52:28 | 47.09864 | 7.98644 | 87° | 47km/h | 16520m | 5.5m/s | -57.2°C | 5.5% | 0hPa | 2.7V | 00:00:00 | 01:18:16 | 00:00:00 | |
| DH7VM-15 | 2026-08-30 23:52:26 | 47.09863 | 7.98609 | 89° | 46km/h | 16512m | 5.2m/s | -57.2°C | 0% | 0hPa | 2.7V | 00:00:00 | 00:00:00 | 00:00:00 | |
| DB0ND-19 | 2026-08-30 23:52:24 | 47.09862 | 7.98580 | 89° | 33km/h | 16502m | 2.6m/s | -57.3°C | 2.0% | -1.0hPa | 2.7V | 00:00:00 | 00:00:00 | 00:00:00 | |
| DF7PN | 2026-08-30 23:52:11 | 47.09852 | 7.98389 | 95° | 51km/h | 16435m | 5.7m/s | -57.0°C | 1.9% | -1.0hPa | 2.7V | 00:00:00 | 00:00:00 | 00:00:00 | |
| HASLITAL | 2026-08-30 23:52:10 | 47.09852 | 7.98389 | 96° | 51km/h | 16435m | 5.7m/s | -57.0°C | 2.2% | 0hPa | 2.7V | 00:00:00 | 00:00:00 | 00:00:00 | |
| DL1ZP-14 | 2026-08-30 23:52:09 | 47.09853 | 7.98334 | 88° | 49km/h | 16419m | 5.4m/s | -56.9°C | 0% | -1.0hPa | 2.7V | 00:00:00 | 00:00:00 | 00:00:00 | |
| DB0ND-19 | 2026-08-30 23:51:53 | 47.09840 | 7.98018 | 96° | 57km/h | 16344m | 4.4m/s | -56.7°C | 2.1% | -1.0hPa | 2.6V | 00:00:00 | 00:00:00 | 00:00:00 | |
| HASLITAL | 2026-08-30 23:51:50 | 47.09842 | 7.97976 | 89° | 55km/h | 16335m | 6.1m/s | -56.7°C | 2.2% | 0hPa | 2.6V | 00:00:00 | 00:00:00 | 00:00:00 | |
| OE9MKV-15 | 2026-08-30 23:51:44 | 47.09822 | 7.97813 | 89° | 80km/h | 16300m | 5.8m/s | 0°C | 0% | 0hPa | 2.6V | 00:00:00 | 01:17:32 | 00:00:00 | |
| DF7PN | 2026-08-30 23:51:40 | 47.09820 | 7.97710 | 85° | 68km/h | 16279m | 4.6m/s | -56.8°C | 2.1% | -1.0hPa | 2.6V | 00:00:00 | 00:00:00 | 00:00:00 | |
| LOEBOVI | 2026-08-30 23:51:36 | 47.09816 | 7.97629 | 87° | 78km/h | 16266m | 5.6m/s | 0°C | 0% | 0hPa | 2.6V | 00:00:00 | 00:00:00 | 00:00:00 | |
| DK5PH-5 | 2026-08-30 23:51:31 | 47.09801 | 7.97460 | 82° | 86km/h | 16240m | 4.8m/s | -56.6°C | 5.3% | 0hPa | 2.6V | 00:00:00 | 01:17:19 | 08:30:00 | |
| HASLITAL | 2026-08-30 23:51:29 | 47.09799 | 7.97433 | 85° | 75km/h | 16235m | 5.3m/s | -56.7°C | 2.3% | 0hPa | 2.6V | 00:00:00 | 00:00:00 | 00:00:00 | |
| DB0UT-7 | 2026-08-30 23:51:28 | 47.09796 | 7.97376 | 89° | 89km/h | 16226m | 3.8m/s | -56.8°C | 5.3% | 0hPa | 2.6V | 00:00:00 | 01:17:16 | 00:00:00 | |
| DB0ND-19 | 2026-08-30 23:51:22 | 47.09787 | 7.97202 | 81° | 84km/h | 16202m | 4.4m/s | -57.1°C | 2.2% | -1.0hPa | 2.6V | 00:00:00 | 00:00:00 | 00:00:00 | |
| DH7VM-15 | 2026-08-30 23:51:13 | 47.09755 | 7.96952 | 76° | 88km/h | 16167m | 4.1m/s | -57.6°C | 0% | 0hPa | 2.6V | 00:00:00 | 00:00:00 | 00:00:00 | |
| OE9MKV-15 | 2026-08-30 23:51:11 | 47.09738 | 7.96857 | 77° | 93km/h | 16154m | 3.3m/s | 0°C | 0% | 0hPa | 2.6V | 00:00:00 | 01:16:59 | 00:00:00 | |
| DF7PN | 2026-08-30 23:51:09 | 47.09728 | 7.96791 | 76° | 93km/h | 16146m | 5.1m/s | -58.0°C | 2.4% | -1.0hPa | 2.6V | 00:00:00 | 00:00:00 | 00:00:00 | |
| HASLITAL | 2026-08-30 23:51:08 | 47.09728 | 7.96791 | 77° | 95km/h | 16147m | 5.1m/s | -58.0°C | 2.6% | 0hPa | 2.6V | 00:00:00 | 00:00:00 | 00:00:00 | |
| DL1ZP-14 | 2026-08-30 23:51:07 | 47.09710 | 7.96686 | 76° | 97km/h | 16135m | 4.0m/s | -58.0°C | 2.4% | -1.0hPa | 2.6V | 00:00:00 | 00:00:00 | 00:00:00 | |
| DB0ND-19 | 2026-08-30 23:50:51 | 47.09604 | 7.96178 | 70° | 95km/h | 16077m | 4.0m/s | -58.4°C | 2.5% | -1.0hPa | 2.6V | 00:00:00 | 00:00:00 | 00:00:00 | |
| HASLITAL | 2026-08-30 23:50:47 | 47.09577 | 7.96075 | 69° | 97km/h | 16065m | 4.3m/s | -58.4°C | 2.7% | 0hPa | 2.6V | 00:00:00 | 00:00:00 | 00:00:00 | |
| OE9MKV-15 | 2026-08-30 23:50:39 | 47.09490 | 7.95799 | 64° | 93km/h | 16029m | 3.1m/s | 0°C | 0% | 0hPa | 2.6V | 00:00:00 | 01:16:27 | 00:00:00 | |
| DF7PN | 2026-08-30 23:50:38 | 47.09480 | 7.95770 | 62° | 89km/h | 16025m | 4.7m/s | -58.6°C | 2.6% | -1.0hPa | 2.6V | 00:00:00 | 00:00:00 | 00:00:00 | |
| DL1ZP-14 | 2026-08-30 23:50:36 | 47.09447 | 7.95677 | 63° | 95km/h | 16014m | 4.3m/s | -58.7°C | 2.7% | -1.0hPa | 2.6V | 00:00:00 | 00:00:00 | 00:00:00 | |
| DK5PH-5 | 2026-08-30 23:50:31 | 47.09402 | 7.95550 | 61° | 93km/h | 15997m | 4.1m/s | -58.5°C | 6.5% | 0hPa | 2.6V | 00:00:00 | 01:16:19 | 00:00:00 | |
| DB0UT-7 | 2026-08-30 23:50:28 | 47.09365 | 7.95458 | 60° | 91km/h | 15985m | 4.8m/s | -58.6°C | 6.4% | 0hPa | 2.6V | 00:00:00 | 01:16:16 | 00:00:00 | |
| IW2NTF | 2026-08-30 23:50:27 | 47.09308 | 7.95308 | 61° | 95km/h | 15963m | 4.9m/s | -58.5°C | 6.4% | 0hPa | 2.6V | 08:30:00 | 01:16:11 | 00:00:00 | |
| HASLITAL | 2026-08-30 23:50:26 | 47.09353 | 7.95429 | 61° | 91km/h | 15980m | 3.9m/s | -58.6°C | 3.0% | 0hPa | 2.6V | 00:00:00 | 00:00:00 | 00:00:00 | |
| DB0ND-19 | 2026-08-30 23:50:20 | 47.09256 | 7.95181 | 56° | 104km/h | 15946m | 4.5m/s | -58.5°C | 2.7% | -1.0hPa | 2.6V | 00:00:00 | 00:00:00 | 00:00:00 | |
| OE9MKV-15 | 2026-08-30 23:50:09 | 47.09142 | 7.94896 | 62° | 69km/h | 15900m | 4.7m/s | 0°C | 0% | 0hPa | 2.6V | 00:00:00 | 01:15:57 | 00:00:00 | |
| DF7PN | 2026-08-30 23:50:07 | 47.09120 | 7.94837 | 61° | 89km/h | 15888m | 5.9m/s | -58.5°C | 2.7% | -1.0hPa | 2.6V | 00:00:00 | 00:00:00 | 00:00:00 | |
| HASLITAL | 2026-08-30 23:50:06 | 47.09121 | 7.94837 | 63° | 89km/h | 15888m | 5.9m/s | -58.5°C | 3.0% | 0hPa | 2.6V | 00:00:00 | 00:00:00 | 00:00:00 | |
| DL1ZP-14 | 2026-08-30 23:50:04 | 47.09088 | 7.94751 | 59° | 89km/h | 15873m | 5.2m/s | -58.5°C | 2.8% | -1.0hPa | 2.6V | 00:00:00 | 00:00:00 | 00:00:00 | |
| DB0ND-19 | 2026-08-30 23:49:49 | 47.08924 | 7.94381 | 53° | 71km/h | 15803m | 5.2m/s | -58.1°C | 2.8% | -1.0hPa | 2.6V | 00:00:00 | 00:00:00 | 00:00:00 | |
| DF7PN | 2026-08-30 23:49:36 | 47.08776 | 7.94060 | 50° | 68km/h | 15741m | 4.3m/s | -57.8°C | 2.8% | -1.0hPa | 2.6V | 00:00:00 | 00:00:00 | 00:00:00 | |
| DL1ZP-14 | 2026-08-30 23:49:33 | 47.08745 | 7.94002 | 54° | 64km/h | 15727m | 5.0m/s | -57.7°C | 2.8% | -1.0hPa | 2.6V | 00:00:00 | 00:00:00 | 00:00:00 | |
| DK5PH-5 | 2026-08-30 23:49:31 | 47.08735 | 7.93982 | 57° | 66km/h | 15723m | 3.7m/s | -57.7°C | 6.4% | 0hPa | 2.7V | 00:00:00 | 01:15:19 | 00:00:00 | |
| DB0UT-7 | 2026-08-30 23:49:28 | 47.08706 | 7.93916 | 59° | 66km/h | 15710m | 2.9m/s | -57.7°C | 6.5% | 0hPa | 2.7V | 00:00:00 | 01:15:16 | 00:00:00 | |
| HASLITAL | 2026-08-30 23:49:25 | 47.08688 | 7.93870 | 60° | 71km/h | 15701m | 4.3m/s | -57.6°C | 3.0% | 0hPa | 2.7V | 00:00:00 | 00:00:00 | 00:00:00 | |
| DB0ND-19 | 2026-08-30 23:49:18 | 47.08605 | 7.93710 | 58° | 62km/h | 15668m | 4.1m/s | -57.5°C | 2.9% | -1.0hPa | 2.7V | 00:00:00 | 00:00:00 | 00:00:00 | |
| DO3MHA-11 | 2026-08-30 23:49:08 | 47.08511 | 7.93514 | 52° | 60km/h | 15626m | 3.4m/s | -57.4°C | 6.5% | 0hPa | 2.7V | 00:00:00 | 01:14:56 | 00:00:00 | |
| DF7PN | 2026-08-30 23:49:05 | 47.08472 | 7.93443 | 50° | 58km/h | 15610m | 3.2m/s | -57.4°C | 2.9% | -1.0hPa | 2.7V | 00:00:00 | 00:00:00 | 00:00:00 | |
| DL1ZP-14 | 2026-08-30 23:49:02 | 47.08452 | 7.93408 | 51° | 60km/h | 15602m | 3.6m/s | -57.4°C | 2.9% | -1.0hPa | 2.7V | 00:00:00 | 00:00:00 | 00:00:00 | |
| DK5PH-5 | 2026-08-30 23:49:01 | 47.08443 | 7.93390 | 54° | 60km/h | 15598m | 3.5m/s | -57.4°C | 6.5% | 0hPa | 2.6V | 00:00:00 | 01:14:49 | 00:00:00 | |
| DB0UT-7 | 2026-08-30 23:48:58 | 47.08417 | 7.93336 | 57° | 60km/h | 15587m | 3.7m/s | -57.4°C | 6.5% | 0hPa | 2.6V | 00:00:00 | 00:00:00 | 00:00:00 | |
| DO3MHA-11 | 2026-08-30 23:48:57 | 47.08408 | 7.93317 | 55° | 60km/h | 15583m | 4.4m/s | -57.3°C | 6.5% | 0hPa | 2.6V | 00:00:00 | 01:14:45 | 00:00:00 | |
| DH7VM-15 | 2026-08-30 23:48:56 | 47.08408 | 7.93317 | 56° | 62km/h | 15583m | 4.5m/s | -57.4°C | 0% | 0hPa | 2.6V | 00:00:00 | 00:00:00 | 00:00:00 | |
| DO3MHA-11 | 2026-08-30 23:48:47 | 47.08321 | 7.93130 | 57° | 62km/h | 15544m | 4.7m/s | -57.3°C | 6.5% | 0hPa | 2.6V | 00:00:00 | 01:14:35 | 00:00:00 | |
| HASLITAL | 2026-08-30 23:48:45 | 47.08312 | 7.93110 | 59° | 64km/h | 15539m | 4.1m/s | -57.3°C | 3.1% | 0hPa | 2.6V | 00:00:00 | 00:00:00 | 00:00:00 | |
| DO3MHA-11 | 2026-08-30 23:48:37 | 47.08242 | 7.92932 | 59° | 58km/h | 15502m | 4.4m/s | -57.1°C | 6.5% | 0hPa | 2.6V | 00:00:00 | 01:14:25 | 08:30:00 | |
| DF7PN | 2026-08-30 23:48:34 | 47.08214 | 7.92859 | 62° | 57km/h | 15486m | 3.1m/s | -57.1°C | 2.9% | -1.0hPa | 2.7V | 00:00:00 | 00:00:00 | 00:00:00 | |
| DK5PH-5 | 2026-08-30 23:48:31 | 47.08201 | 7.92819 | 65° | 58km/h | 15477m | 4.2m/s | -56.9°C | 6.4% | 0hPa | 2.7V | 00:00:00 | 01:14:19 | 00:00:00 | |
| DB0UT-7 | 2026-08-30 23:48:28 | 47.08181 | 7.92757 | 64° | 60km/h | 15465m | 3.7m/s | -56.8°C | 6.4% | 0hPa | 2.6V | 00:00:00 | 01:14:16 | 00:00:00 | |
| HASLITAL | 2026-08-30 23:48:25 | 47.08168 | 7.92719 | 63° | 58km/h | 15457m | 4.2m/s | -56.9°C | 3.2% | 0hPa | 2.6V | 00:00:00 | 00:00:00 | 00:00:00 | |
| OE9MKV-15 | 2026-08-30 23:48:17 | 47.08102 | 7.92555 | 56° | 62km/h | 15420m | 4.6m/s | 0°C | 0% | 0hPa | 2.6V | 00:00:00 | 01:14:05 | 00:00:00 | |
| DB0ND-19 | 2026-08-30 23:48:16 | 47.08084 | 7.92517 | 56° | 62km/h | 15412m | 3.6m/s | -57.0°C | 2.9% | -1.0hPa | 2.6V | 00:00:00 | 00:00:00 | 00:00:00 | |
| DO3MHA-11 | 2026-08-30 23:48:07 | 47.08021 | 7.92366 | 63° | 71km/h | 15378m | 5.0m/s | -57.2°C | 6.7% | 0hPa | 2.6V | 00:00:00 | 01:13:55 | 00:00:00 | |
| HASLITAL | 2026-08-30 23:48:04 | 47.08007 | 7.92326 | 64° | 62km/h | 15370m | 4.3m/s | -57.2°C | 3.3% | 0hPa | 2.6V | 00:00:00 | 00:00:00 | 00:00:00 | |
| DF7PN | 2026-08-30 23:48:03 | 47.07984 | 7.92263 | 60° | 66km/h | 15357m | 3.4m/s | -57.5°C | 3.2% | -1.0hPa | 2.6V | 00:00:00 | 00:00:00 | 00:00:00 | |
| DL1ZP-14 | 2026-08-30 23:48:00 | 47.07959 | 7.92198 | 60° | 68km/h | 15343m | 4.2m/s | -57.4°C | 3.1% | -1.0hPa | 2.6V | 00:00:00 | 00:00:00 | 00:00:00 | |
| DB0UT-7 | 2026-08-30 23:47:58 | 47.07950 | 7.92177 | 59° | 71km/h | 15338m | 5.4m/s | -57.3°C | 6.7% | 0hPa | 2.7V | 00:00:00 | 00:00:00 | 00:00:00 | |
| IW2NTF | 2026-08-30 23:47:51 | 47.07903 | 7.92000 | 74° | 64km/h | 15299m | 5.4m/s | -57.3°C | 6.8% | 0hPa | 2.7V | 08:30:00 | 01:13:38 | 00:00:00 | |
| HASLITAL | 2026-08-30 23:47:43 | 47.07866 | 7.91850 | 69° | 75km/h | 15269m | 5.8m/s | -57.2°C | 3.3% | 0hPa | 2.7V | 00:00:00 | 00:00:00 | 00:00:00 | |
| IW2NTF | 2026-08-30 23:47:41 | 47.07837 | 7.91748 | 69° | 77km/h | 15248m | 4.8m/s | -57°C | 6.6% | 0hPa | 2.7V | 08:30:00 | 01:13:28 | 00:00:00 | |
| DH7VM-15 | 2026-08-30 23:47:37 | 47.07824 | 7.91695 | 73° | 73km/h | 15239m | 4.5m/s | -57.0°C | 0% | 0hPa | 2.7V | 00:00:00 | 00:00:00 | 00:00:00 | |
| IW2NTF | 2026-08-30 23:47:31 | 47.07786 | 7.91485 | 73° | 75km/h | 15203m | 4m/s | -57.2°C | 6.5% | 0hPa | 2.7V | 08:30:00 | 01:13:18 | 00:00:00 | |
| DK5PH-5 | 2026-08-30 23:47:31 | 47.07791 | 7.91512 | 75° | 80km/h | 15208m | 4.8m/s | -57.1°C | 6.5% | 0hPa | 2.6V | 00:00:00 | 01:13:19 | 00:00:00 | |
| DL1ZP-14 | 2026-08-30 23:47:29 | 47.07781 | 7.91458 | 73° | 75km/h | 15199m | 4.4m/s | -57.3°C | 3.1% | -1.0hPa | 2.6V | 00:00:00 | 00:00:00 | 00:00:00 | |
| DB0UT-7 | 2026-08-30 23:47:28 | 47.07775 | 7.91432 | 74° | 82km/h | 15194m | 5.0m/s | -57.5°C | 6.8% | 0hPa | 2.6V | 00:00:00 | 01:13:16 | 08:30:00 | |
| HASLITAL | 2026-08-30 23:47:23 | 47.07755 | 7.91326 | 77° | 73km/h | 15177m | 3.4m/s | -57.6°C | 3.4% | 0hPa | 2.7V | 00:00:00 | 00:00:00 | 00:00:00 | |
| IW2NTF | 2026-08-30 23:47:21 | 47.07736 | 7.91215 | 73° | 80km/h | 15158m | 5.2m/s | -57.9°C | 7% | 0hPa | 2.7V | 08:30:00 | 01:13:08 | 00:00:00 | |
| IW2NTF | 2026-08-30 23:47:11 | 47.07679 | 7.90915 | 78° | 86km/h | 15116m | 4.6m/s | -58°C | 7.1% | 0hPa | 2.7V | 08:30:00 | 01:12:58 | 00:00:00 | |
| HASLITAL | 2026-08-30 23:47:03 | 47.07648 | 7.90728 | 77° | 88km/h | 15091m | 4.2m/s | -57.8°C | 3.5% | 0hPa | 2.6V | 00:00:00 | 00:00:00 | 00:00:00 | |
| IW2NTF | 2026-08-30 23:47:02 | 47.07618 | 7.90542 | 76° | 88km/h | 15066m | 3.6m/s | -57.6°C | 6.8% | 0hPa | 2.6V | 08:30:00 | 01:12:46 | 00:00:00 | |
| DF7PN | 2026-08-30 23:47:00 | 47.07628 | 7.90604 | 77° | 84km/h | 15074m | 3.7m/s | -57.6°C | 3.2% | -1.0hPa | 2.6V | 00:00:00 | 00:00:00 | 00:00:00 | |
| DL1ZP-14 | 2026-08-30 23:46:58 | 47.07618 | 7.90542 | 76° | 88km/h | 15066m | 3.6m/s | -57.6°C | 3.2% | -1.0hPa | 2.6V | 00:00:00 | 00:00:00 | 00:00:00 | |
| DF3TZ-5 | 2026-08-30 23:46:52 | 47.07579 | 7.90318 | 76° | 91km/h | 15038m | 3.6m/s | -57.7°C | 3.1% | -1.0hPa | 2.7V | 00:00:00 | 00:00:00 | 00:00:00 | |
| DO3MHA-11 | 2026-08-30 23:46:44 | 47.07549 | 7.90102 | 82° | 84km/h | 15009m | 3.4m/s | -57.9°C | 6.9% | 0hPa | 2.7V | 00:00:00 | 01:12:32 | 00:00:00 | |
| DB0ND-19 | 2026-08-30 23:46:43 | 47.07546 | 7.90072 | 80° | 82km/h | 15005m | 4.6m/s | -57.9°C | 3.3% | -1.0hPa | 2.7V | 00:00:00 | 00:00:00 | 00:00:00 | |
| HASLITAL | 2026-08-30 23:46:42 | 47.07546 | 7.90071 | 82° | 84km/h | 15005m | 4.6m/s | -57.9°C | 3.6% | 0hPa | 2.7V | 00:00:00 | 00:00:00 | 00:00:00 | |
| IW2NTF | 2026-08-30 23:46:41 | 47.07535 | 7.89979 | 79° | 86km/h | 14993m | 4.5m/s | -57.9°C | 6.9% | 0hPa | 2.7V | 08:30:00 | 01:12:28 | 00:00:00 | |
| IW2NTF | 2026-08-30 23:46:35 | 47.07486 | 7.89680 | 77° | 84km/h | 14954m | 3.1m/s | -58.6°C | 7.6% | 0hPa | 2.7V | 08:30:00 | 01:12:18 | 00:00:00 | |
| DK5PH-5 | 2026-08-30 23:46:31 | 47.07490 | 7.89709 | 76° | 86km/h | 14957m | 3.6m/s | -58.6°C | 7.6% | 0hPa | 2.6V | 00:00:00 | 01:12:19 | 00:00:00 | |
| DF7PN | 2026-08-30 23:46:30 | 47.07481 | 7.89649 | 78° | 86km/h | 14950m | 4.8m/s | -58.6°C | 3.7% | -1.0hPa | 2.6V | 00:00:00 | 00:00:00 | 00:00:00 | |
| DB0UT-7 | 2026-08-30 23:46:28 | 47.07477 | 7.89617 | 80° | 86km/h | 14946m | 3.7m/s | -58.5°C | 7.6% | 0hPa | 2.6V | 00:00:00 | 01:12:16 | 00:00:00 | |
| DO3MHA-11 | 2026-08-30 23:46:27 | 47.07473 | 7.89583 | 81° | 91km/h | 14942m | 3.8m/s | -58.5°C | 7.6% | 0hPa | 2.6V | 00:00:00 | 01:12:15 | 00:00:00 | |
| IW2NTF | 2026-08-30 23:46:25 | 47.07438 | 7.89357 | 71° | 84km/h | 14913m | 4.6m/s | -58.4°C | 7.8% | 0hPa | 2.7V | 08:30:00 | 01:12:08 | 00:00:00 | |
| DH7VM-15 | 2026-08-30 23:46:23 | 47.07461 | 7.89484 | 80° | 89km/h | 14929m | 3.7m/s | -58.5°C | 0% | 0hPa | 2.8V | 00:00:00 | 00:00:00 | 00:00:00 | |
| HASLITAL | 2026-08-30 23:46:21 | 47.07450 | 7.89418 | 76° | 89km/h | 14921m | 3.8m/s | -58.5°C | 4.1% | 0hPa | 2.8V | 00:00:00 | 00:00:00 | 00:00:00 | |
| IW2NTF | 2026-08-30 23:46:15 | 47.07378 | 7.89059 | 74° | 89km/h | 14874m | 3.7m/s | -58.4°C | 7.9% | 0hPa | 2.8V | 08:30:00 | 01:11:58 | 00:00:00 | |
| DB0ND-19 | 2026-08-30 23:46:12 | 47.07372 | 7.89027 | 76° | 88km/h | 14869m | 4.5m/s | -58.5°C | -1.0% | -1.0hPa | 2.8V | 00:00:00 | 00:00:00 | 00:00:00 | |
| IW2NTF | 2026-08-30 23:46:05 | 47.07328 | 7.88760 | 76° | 82km/h | 14834m | 4.6m/s | -58.5°C | 8.2% | 0hPa | 2.8V | 08:30:00 | 01:11:48 | 00:00:00 | |
| DO3MHA-11 | 2026-08-30 23:46:03 | 47.07341 | 7.88847 | 78° | 82km/h | 14846m | 4.9m/s | -58.4°C | 8.2% | 0hPa | 2.8V | 00:00:00 | 01:11:51 | 00:00:00 | |
| DF7PN | 2026-08-30 23:45:58 | 47.07318 | 7.88700 | 76° | 84km/h | 14827m | 3.2m/s | -58.6°C | 4.3% | -1.0hPa | 2.8V | 00:00:00 | 00:00:00 | 00:00:00 | |
| DL1ZP-14 | 2026-08-30 23:45:56 | 47.07305 | 7.88607 | 80° | 82km/h | 14814m | 3.7m/s | -58.8°C | 4.5% | -1.0hPa | 2.8V | 00:00:00 | 00:00:00 | 00:00:00 | |
| IW2NTF | 2026-08-30 23:45:55 | 47.07288 | 7.88456 | 80° | 84km/h | 14795m | 4.3m/s | -59°C | 8.6% | 0hPa | 2.7V | 08:30:00 | 01:11:38 | 00:00:00 | |
| DO3MHA-11 | 2026-08-30 23:45:52 | 47.07295 | 7.88517 | 81° | 84km/h | 14804m | 2.9m/s | -58.9°C | 8.6% | 0hPa | 2.7V | 00:00:00 | 01:11:40 | 00:00:00 | |
| IW2NTF | 2026-08-30 23:45:43 | 47.07246 | 7.88147 | 80° | 84km/h | 14755m | 3.3m/s | -59.4°C | 9.2% | 0hPa | 2.7V | 08:30:00 | 01:11:28 | 00:00:00 | |
| DO3MHA-11 | 2026-08-30 23:45:41 | 47.07250 | 7.88177 | 80° | 91km/h | 14759m | 3.8m/s | -59.3°C | 9.1% | 0hPa | 2.7V | 00:00:00 | 01:11:29 | 08:30:00 | |
| HASLITAL | 2026-08-30 23:45:40 | 47.07250 | 7.88177 | 81° | 84km/h | 14759m | 3.8m/s | -59.4°C | 5.2% | 0hPa | 2.6V | 00:00:00 | 00:00:00 | 00:00:00 | |
| DO3MHA-11 | 2026-08-30 23:45:31 | 47.07208 | 7.87845 | 80° | 93km/h | 14720m | 4.4m/s | -59.6°C | 9.7% | 0hPa | 2.6V | 00:00:00 | 01:11:19 | 00:00:00 | |
| IW2NTF | 2026-08-30 23:45:29 | 47.07196 | 7.87747 | 81° | 89km/h | 14709m | 3.9m/s | -59.6°C | 9.9% | 0hPa | 2.6V | 08:30:00 | 01:11:16 | 00:00:00 | |
| DB0UT-7 | 2026-08-30 23:45:28 | 47.07196 | 7.87747 | 82° | 99km/h | 14709m | 3.9m/s | -59.6°C | 9.9% | 0hPa | 2.6V | 00:00:00 | 01:11:16 | 00:00:00 | |
| DF7PN | 2026-08-30 23:45:27 | 47.07193 | 7.87713 | 82° | 89km/h | 14705m | 4.3m/s | -59.7°C | 5.6% | -1.0hPa | 2.6V | 00:00:00 | 00:00:00 | 00:00:00 | |
| DL1ZP-14 | 2026-08-30 23:45:25 | 47.07182 | 7.87610 | 79° | 95km/h | 14694m | 4.2m/s | -59.7°C | 5.8% | -1.0hPa | 2.6V | 00:00:00 | 00:00:00 | 00:00:00 | |
| IW2NTF | 2026-08-30 23:45:23 | 47.07150 | 7.87398 | 78° | 99km/h | 14669m | 4.4m/s | -59.9°C | 10.6% | 0hPa | 2.8V | 08:30:00 | 01:11:06 | 00:00:00 | |
| DO3MHA-11 | 2026-08-30 23:45:21 | 47.07166 | 7.87505 | 77° | 99km/h | 14682m | 4.8m/s | -59.7°C | 10.3% | 0hPa | 2.7V | 00:00:00 | 01:11:09 | 00:00:00 | |
| HASLITAL | 2026-08-30 23:45:19 | 47.07160 | 7.87469 | 79° | 100km/h | 14677m | 4.1m/s | -59.8°C | 6.2% | 0hPa | 2.7V | 00:00:00 | 00:00:00 | 00:00:00 | |
| DO3MHA-11 | 2026-08-30 23:45:11 | 47.07118 | 7.87148 | 81° | 102km/h | 14643m | 3.2m/s | -60.1°C | 11.2% | 0hPa | 2.7V | 00:00:00 | 01:10:59 | 00:00:00 | |
| IW2NTF | 2026-08-30 23:45:07 | 47.07098 | 7.86963 | 80° | 102km/h | 14622m | 5m/s | -60.2°C | 11.6% | 0hPa | 2.6V | 08:30:00 | 01:10:54 | 00:00:00 | |
| DK5PH-5 | 2026-08-30 23:45:01 | 47.07076 | 7.86775 | 80° | 106km/h | 14602m | 4.9m/s | -60.2°C | 12.1% | 0hPa | 2.8V | 00:00:00 | 01:10:49 | 00:00:00 | |
| IW2NTF | 2026-08-30 23:44:59 | 47.07047 | 7.86589 | 76° | 104km/h | 14580m | 3.6m/s | -60.5°C | 12.6% | 0hPa | 2.8V | 08:30:00 | 01:10:44 | 00:00:00 | |
| DF7PN | 2026-08-30 23:44:56 | 47.07047 | 7.86589 | 76° | 104km/h | 14580m | 3.6m/s | -60.5°C | 7.6% | -1.0hPa | 2.6V | 00:00:00 | 00:00:00 | 00:00:00 | |
| DL1ZP-14 | 2026-08-30 23:44:54 | 47.07028 | 7.86478 | 75° | 102km/h | 14568m | 4.2m/s | -60.6°C | 7.8% | -1.0hPa | 2.6V | 00:00:00 | 00:00:00 | 00:00:00 | |
| IW2NTF | 2026-08-30 23:44:49 | 47.06984 | 7.86219 | 73° | 104km/h | 14539m | 5.1m/s | -60.5°C | 13% | 0hPa | 2.7V | 08:30:00 | 01:10:34 | 00:00:00 | |
| DF3TZ-5 | 2026-08-30 23:44:48 | 47.06998 | 7.86292 | 75° | 100km/h | 14547m | 3.7m/s | -60.5°C | 8.0% | -1.0hPa | 2.7V | 00:00:00 | 00:00:00 | 00:00:00 | |
| HASLITAL | 2026-08-30 23:44:38 | 47.06929 | 7.85956 | 73° | 110km/h | 14508m | 4.7m/s | -60.7°C | 8.6% | 0hPa | 2.7V | 00:00:00 | 00:00:00 | 00:00:00 | |
| IW2NTF | 2026-08-30 23:44:37 | 47.06902 | 7.85840 | 68° | 111km/h | 14494m | 4.7m/s | -61°C | 13.9% | 0hPa | 2.7V | 08:30:00 | 01:10:24 | 00:00:00 | |
| DO3MHA-11 | 2026-08-30 23:44:30 | 47.06845 | 7.85619 | 68° | 111km/h | 14468m | 5.1m/s | -61.3°C | 14.4% | 0hPa | 2.8V | 00:00:00 | 01:10:18 | 00:00:00 | |
| IW2NTF | 2026-08-30 23:44:27 | 47.06797 | 7.85472 | 64° | 115km/h | 14450m | 4.8m/s | -61.5°C | 15.1% | 0hPa | 2.8V | 08:30:00 | 01:10:14 | 00:00:00 | |
| DF7PN | 2026-08-30 23:44:25 | 47.06784 | 7.85434 | 65° | 115km/h | 14446m | 3.6m/s | -61.4°C | 9.6% | -1.0hPa | 2.7V | 00:00:00 | 00:00:00 | 00:00:00 | |
| DO3MHA-11 | 2026-08-30 23:44:20 | 47.06728 | 7.85243 | 69° | 115km/h | 14426m | 5.2m/s | -61.4°C | 15.1% | 0hPa | 2.7V | 00:00:00 | 01:10:08 | 00:00:00 | |
| IW2NTF | 2026-08-30 23:44:17 | 47.06686 | 7.85093 | 65° | 111km/h | 14409m | 3.7m/s | -61.5°C | 15.4% | 0hPa | 2.7V | 08:30:00 | 01:10:04 | 00:00:00 | |
| IW2NTF | 2026-08-30 23:44:08 | 47.06569 | 7.84708 | 65° | 110km/h | 14369m | 4.5m/s | -61.8°C | 16.2% | 0hPa | 2.8V | 08:30:00 | 01:09:54 | 00:00:00 | |
| DK5PH-5 | 2026-08-30 23:44:01 | 47.06512 | 7.84523 | 65° | 110km/h | 14349m | 4.0m/s | -61.6°C | 16.3% | 0hPa | 2.7V | 00:00:00 | 01:09:49 | 00:00:00 | |
| DO3MHA-11 | 2026-08-30 23:43:59 | 47.06487 | 7.84449 | 62° | 115km/h | 14341m | 3.3m/s | -61.6°C | 16.5% | 0hPa | 2.7V | 00:00:00 | 01:09:47 | 00:00:00 | |
| IW2NTF | 2026-08-30 23:43:58 | 47.06445 | 7.84336 | 62° | 119km/h | 14328m | 3.7m/s | -61.6°C | 16.6% | 0hPa | 2.7V | 08:30:00 | 01:09:44 | 00:00:00 | |
| DF7PN | 2026-08-30 23:43:54 | 47.06418 | 7.84259 | 62° | 115km/h | 14320m | 4.4m/s | -61.6°C | 10.8% | -1.0hPa | 2.8V | 00:00:00 | 00:00:00 | 00:00:00 | |
| DL1ZP-14 | 2026-08-30 23:43:52 | 47.06378 | 7.84148 | 63° | 110km/h | 14309m | 4.6m/s | -61.6°C | 11.0% | -1.0hPa | 2.8V | 00:00:00 | 00:00:00 | 00:00:00 | |
| DO3MHA-11 | 2026-08-30 23:43:49 | 47.06354 | 7.84076 | 65° | 108km/h | 14301m | 3.6m/s | -61.6°C | 17.0% | 0hPa | 2.7V | 00:00:00 | 01:09:37 | 08:30:00 | |
| IW2NTF | 2026-08-30 23:43:47 | 47.06319 | 7.83971 | 64° | 104km/h | 14288m | 3.5m/s | -61.6°C | 17% | 0hPa | 2.7V | 08:30:00 | 01:09:34 | 00:00:00 | |
| DF3TZ-5 | 2026-08-30 23:43:46 | 47.06319 | 7.83971 | 64° | 104km/h | 14288m | 3.5m/s | -61.6°C | 11.1% | -1.0hPa | 2.8V | 00:00:00 | 00:00:00 | 00:00:00 | |
| DO3MHA-12 | 2026-08-30 23:43:41 | 47.06260 | 7.83789 | 64° | 108km/h | 14268m | 4.1m/s | -61.4°C | 16.8% | 0hPa | 2.8V | 00:00:00 | 01:09:29 | 00:00:00 | |
| DO3MHA-11 | 2026-08-30 23:43:39 | 47.06235 | 7.83716 | 64° | 106km/h | 14260m | 3.8m/s | -61.4°C | 17.1% | 0hPa | 2.8V | 00:00:00 | 01:09:27 | 00:00:00 | |
| IW2NTF | 2026-08-30 23:43:37 | 47.06202 | 7.83604 | 68° | 108km/h | 14248m | 3.5m/s | -61.6°C | 18% | 0hPa | 2.8V | 08:30:00 | 01:09:24 | 00:00:00 | |
| HASLITAL | 2026-08-30 23:43:35 | 47.06201 | 7.83604 | 69° | 108km/h | 14248m | 3.5m/s | -61.6°C | 12.3% | 0hPa | 2.8V | 00:00:00 | 00:00:00 | 00:00:00 | |
| DK5PH-5 | 2026-08-30 23:43:31 | 47.06152 | 7.83423 | 70° | 106km/h | 14227m | 4.4m/s | -61.7°C | 18.5% | 0hPa | 2.8V | 00:00:00 | 01:09:19 | 00:00:00 | |
| DO3MHA-12 | 2026-08-30 23:43:30 | 47.06143 | 7.83388 | 69° | 102km/h | 14223m | 3.5m/s | -61.8°C | 18.5% | 0hPa | 2.8V | 00:00:00 | 01:09:18 | 00:00:00 | |
| DO3MHA-11 | 2026-08-30 23:43:29 | 47.06134 | 7.83354 | 68° | 102km/h | 14218m | 5.3m/s | -61.8°C | 18.5% | 0hPa | 2.8V | 00:00:00 | 01:09:17 | 00:00:00 | |
| IW2NTF | 2026-08-30 23:43:27 | 47.06104 | 7.83254 | 66° | 100km/h | 14205m | 4.9m/s | -61.9°C | 18.8% | 0hPa | 2.8V | 08:30:00 | 01:09:14 | 00:00:00 | |
| DF7PN | 2026-08-30 23:43:23 | 47.06073 | 7.83149 | 66° | 104km/h | 14192m | 4.5m/s | -62.1°C | 12.6% | -1.0hPa | 2.7V | 00:00:00 | 00:00:00 | 00:00:00 | |
| IW2NTF | 2026-08-30 23:43:21 | 47.06002 | 7.82896 | 66° | 102km/h | 14161m | 3.9m/s | -62°C | 19% | 0hPa | 2.7V | 08:30:00 | 01:09:04 | 00:00:00 | |
| DO3MHA-12 | 2026-08-30 23:43:20 | 47.06042 | 7.83040 | 69° | 104km/h | 14178m | 4.0m/s | -62.0°C | 19.2% | 0hPa | 2.7V | 00:00:00 | 01:09:08 | 00:00:00 | |
| DO3MHA-11 | 2026-08-30 23:43:19 | 47.06032 | 7.83003 | 69° | 104km/h | 14174m | 4.2m/s | -62.0°C | 19.1% | 0hPa | 2.7V | 00:00:00 | 01:09:07 | 00:00:00 | |
| HASLITAL | 2026-08-30 23:43:14 | 47.05992 | 7.82861 | 69° | 102km/h | 14156m | 5.6m/s | -62.0°C | 13.1% | 0hPa | 2.8V | 00:00:00 | 00:00:00 | 00:00:00 | |
| IW2NTF | 2026-08-30 23:43:10 | 47.05896 | 7.82538 | 66° | 106km/h | 14116m | 3.8m/s | -61.8°C | 19.4% | 0hPa | 2.8V | 08:30:00 | 01:08:54 | 00:00:00 | |
| DO3MHA-11 | 2026-08-30 23:43:09 | 47.05928 | 7.82648 | 67° | 106km/h | 14129m | 3.8m/s | -61.8°C | 19.3% | 0hPa | 2.8V | 00:00:00 | 01:08:57 | 00:00:00 | |
| DO3MHA-11 | 2026-08-30 23:42:59 | 47.05827 | 7.82282 | 71° | 108km/h | 14084m | 5.0m/s | -61.8°C | 20.3% | 0hPa | 2.8V | 00:00:00 | 01:08:47 | 00:00:00 | |
| IW2NTF | 2026-08-30 23:42:58 | 47.05800 | 7.82169 | 70° | 106km/h | 14070m | 4.5m/s | -61.8°C | 20.7% | 0hPa | 2.8V | 08:30:00 | 01:08:44 | 00:00:00 | |
| DF7PN | 2026-08-30 23:42:52 | 47.05762 | 7.82018 | 69° | 108km/h | 14051m | 5.4m/s | -61.8°C | 14.3% | -1.0hPa | 2.7V | 00:00:00 | 00:00:00 | 00:00:00 | |
| IW2NTF | 2026-08-30 23:42:51 | 47.05706 | 7.81787 | 71° | 111km/h | 14023m | 4.8m/s | -61.7°C | 20.6% | 0hPa | 2.7V | 08:30:00 | 01:08:34 | 00:00:00 | |
| DL1ZP-14 | 2026-08-30 23:42:49 | 47.05733 | 7.81905 | 70° | 111km/h | 14037m | 5.5m/s | -61.8°C | 14.2% | -1.0hPa | 2.7V | 00:00:00 | 00:00:00 | 00:00:00 | |
| DH7VM-15 | 2026-08-30 23:42:43 | 47.05687 | 7.81709 | 72° | 111km/h | 14015m | 4.4m/s | -61.7°C | 0% | 0hPa | 2.8V | 00:00:00 | 00:00:00 | 00:00:00 | |
| DO3MHA-11 | 2026-08-30 23:42:39 | 47.05638 | 7.81515 | 68° | 111km/h | 13992m | 3.9m/s | -61.5°C | 20.9% | 0hPa | 2.8V | 00:00:00 | 01:08:27 | 00:00:00 | |
| IW2NTF | 2026-08-30 23:42:38 | 47.05605 | 7.81404 | 65° | 110km/h | 13977m | 4.6m/s | -61.5°C | 21% | 0hPa | 2.8V | 08:30:00 | 01:08:24 | 00:00:00 | |
| HASLITAL | 2026-08-30 23:42:34 | 47.05593 | 7.81367 | 66° | 110km/h | 13973m | 5.1m/s | -61.5°C | 15.0% | 0hPa | 2.7V | 00:00:00 | 00:00:00 | 00:00:00 | |
| IW2NTF | 2026-08-30 23:42:31 | 47.05493 | 7.81023 | 67° | 111km/h | 13931m | 5.4m/s | -61.4°C | 21.2% | 0hPa | 2.7V | 08:30:00 | 01:08:14 | 00:00:00 | |
| DK7TD | 2026-08-30 23:42:27 | 47.05493 | 7.81023 | 67° | 111km/h | 13931m | 5.4m/s | 0°C | 0% | 0hPa | 2.7V | 18:12:15 | 01:08:14 | 00:00:00 | |
| DO3MHA-11 | 2026-08-30 23:42:19 | 47.05408 | 7.80762 | 64° | 113km/h | 13899m | 4.8m/s | -61.4°C | 21.7% | 0hPa | 2.7V | 00:00:00 | 01:08:07 | 08:30:00 | |
| IW2NTF | 2026-08-30 23:42:17 | 47.05370 | 7.80649 | 65° | 115km/h | 13885m | 5.5m/s | -61.5°C | 21.8% | 0hPa | 2.8V | 08:30:00 | 01:08:04 | 00:00:00 | |
| DK7TD | 2026-08-30 23:42:15 | 47.05358 | 7.80610 | 66° | 115km/h | 13880m | 5.3m/s | 0°C | 0% | 0hPa | 2.7V | 18:12:15 | 01:08:03 | 00:00:00 | |
| DF3TZ-5 | 2026-08-30 23:42:13 | 47.05335 | 7.80532 | 66° | 111km/h | 13870m | 5.4m/s | 0°C | -1.0% | -1.0hPa | 2.8V | 00:00:00 | 00:00:00 | 00:00:00 | |
| IW2NTF | 2026-08-30 23:42:11 | 47.05251 | 7.80266 | 62° | 113km/h | 13837m | 4.3m/s | -61.3°C | 22.2% | 0hPa | 2.8V | 08:30:00 | 01:07:54 | 00:00:00 | |
| DK7TD | 2026-08-30 23:42:04 | 47.05225 | 7.80191 | 63° | 115km/h | 13828m | 5.7m/s | 0°C | 0% | 0hPa | 2.7V | 18:12:15 | 01:07:52 | 00:00:00 | |
| DB0ND-19 | 2026-08-30 23:42:04 | 47.05162 | 7.79996 | 65° | 113km/h | 13803m | 3.2m/s | -61.1°C | -1.0% | -1.0hPa | 2.7V | 00:00:00 | 00:00:00 | 00:00:00 | |
| DO3MHA-11 | 2026-08-30 23:41:59 | 47.05162 | 7.79996 | 66° | 113km/h | 13803m | 3.1m/s | -61.0°C | 22.2% | 0hPa | 2.7V | 00:00:00 | 01:07:47 | 00:00:00 | |
| IW2NTF | 2026-08-30 23:41:57 | 47.05128 | 7.79879 | 68° | 113km/h | 13788m | 4.8m/s | -61°C | 22% | 0hPa | 2.7V | 08:30:00 | 01:07:44 | 00:00:00 | |
| DK7TD | 2026-08-30 23:41:53 | 47.05081 | 7.79728 | 62° | 113km/h | 13769m | 4.2m/s | 0°C | 0% | 0hPa | 2.7V | 18:12:15 | 01:07:40 | 00:00:00 | |
| HASLITAL | 2026-08-30 23:41:52 | 47.05094 | 7.79765 | 65° | 111km/h | 13774m | 4.4m/s | -61.0°C | 15.5% | 0hPa | 2.7V | 00:00:00 | 00:00:00 | 00:00:00 | |
| IW2NTF | 2026-08-30 23:41:51 | 47.05007 | 7.79495 | 67° | 115km/h | 13740m | 4.4m/s | -60.8°C | 21.5% | 0hPa | 2.7V | 08:30:00 | 01:07:34 | 00:00:00 | |
| DF7PN | 2026-08-30 23:41:50 | 47.05042 | 7.79613 | 65° | 117km/h | 13755m | 4.6m/s | -61.0°C | -1.0% | -1.0hPa | 2.8V | 00:00:00 | 00:00:00 | 00:00:00 | |
| DL1ZP-14 | 2026-08-30 23:41:47 | 47.05018 | 7.79535 | 67° | 115km/h | 13745m | 4.7m/s | -60.9°C | 15.1% | -1.0hPa | 2.8V | 00:00:00 | 00:00:00 | 00:00:00 | |
| DO3MHA-12 | 2026-08-30 23:41:46 | 47.05006 | 7.79495 | 68° | 117km/h | 13741m | 4.4m/s | -60.8°C | 21.5% | 0hPa | 2.8V | 00:00:00 | 01:07:34 | 00:00:00 | |
| DF3TZ-5 | 2026-08-30 23:41:42 | 47.04962 | 7.79335 | 68° | 117km/h | 13720m | 5.6m/s | 0°C | -1.0% | -1.0hPa | 2.8V | 00:00:00 | 00:00:00 | 00:00:00 | |
| DO3MHA-11 | 2026-08-30 23:41:39 | 47.04930 | 7.79213 | 71° | 117km/h | 13707m | 5.4m/s | -60.6°C | 21.6% | 0hPa | 2.8V | 00:00:00 | 01:07:27 | 00:00:00 | |
| IW2NTF | 2026-08-30 23:41:37 | 47.04900 | 7.79090 | 70° | 115km/h | 13693m | 5.2m/s | -60.6°C | 21.7% | 0hPa | 2.8V | 08:30:00 | 01:07:24 | 00:00:00 | |
| DO3MHA-12 | 2026-08-30 23:41:36 | 47.04900 | 7.79090 | 71° | 119km/h | 13693m | 5.2m/s | -60.6°C | 21.7% | 0hPa | 2.8V | 00:00:00 | 01:07:24 | 00:00:00 | |
| HASLITAL | 2026-08-30 23:41:32 | 47.04870 | 7.78969 | 70° | 117km/h | 13679m | 5.3m/s | -60.6°C | 15.7% | 0hPa | 2.8V | 00:00:00 | 00:00:00 | 00:00:00 | |
| IW2NTF | 2026-08-30 23:41:31 | 47.04796 | 7.78679 | 71° | 120km/h | 13645m | 5.4m/s | -60.6°C | 22.2% | 0hPa | 2.8V | 08:30:00 | 01:07:14 | 00:00:00 | |
| DO3MHA-11 | 2026-08-30 23:41:29 | 47.04827 | 7.78806 | 70° | 120km/h | 13660m | 4.8m/s | -60.5°C | 21.8% | 0hPa | 2.7V | 00:00:00 | 01:07:17 | 00:00:00 | |
| DB0UT-7 | 2026-08-30 23:41:28 | 47.04817 | 7.78764 | 70° | 120km/h | 13654m | 5.1m/s | -60.5°C | 22.0% | 0hPa | 2.7V | 00:00:00 | 01:07:16 | 00:00:00 | |
| DO3MHA-12 | 2026-08-30 23:41:26 | 47.04796 | 7.78679 | 72° | 122km/h | 13645m | 5.3m/s | -60.5°C | 22.2% | 0hPa | 2.7V | 00:00:00 | 01:07:14 | 08:30:00 | |
| DH7VM-15 | 2026-08-30 23:41:20 | 47.04734 | 7.78425 | 70° | 120km/h | 13616m | 5.1m/s | -60.4°C | 0% | 0hPa | 2.7V | 00:00:00 | 00:00:00 | 00:00:00 | |
| DO3MHA-11 | 2026-08-30 23:41:19 | 47.04723 | 7.78383 | 69° | 120km/h | 13611m | 4.4m/s | -60.4°C | 22.1% | 0hPa | 2.7V | 00:00:00 | 01:07:07 | 00:00:00 | |
| IW2NTF | 2026-08-30 23:41:17 | 47.04688 | 7.78258 | 67° | 122km/h | 13597m | 3.8m/s | -60.4°C | 22.3% | 0hPa | 2.8V | 08:30:00 | 01:07:04 | 00:00:00 | |
| DO3MHA-12 | 2026-08-30 23:41:16 | 47.04688 | 7.78258 | 68° | 120km/h | 13597m | 3.7m/s | -60.3°C | 22.3% | 0hPa | 2.7V | 00:00:00 | 01:07:04 | 00:00:00 | |
| IW2NTF | 2026-08-30 23:41:11 | 47.04581 | 7.77843 | 66° | 122km/h | 13551m | 5.3m/s | -60.2°C | 22% | 0hPa | 2.7V | 08:30:00 | 01:06:54 | 00:00:00 | |
| DO3MHA-11 | 2026-08-30 23:41:09 | 47.04615 | 7.77967 | 71° | 119km/h | 13565m | 5.2m/s | -60.2°C | 22.1% | 0hPa | 2.7V | 00:00:00 | 01:06:57 | 00:00:00 | |
| DO3MHA-12 | 2026-08-30 23:41:06 | 47.04581 | 7.77843 | 67° | 117km/h | 13551m | 5.2m/s | -60.2°C | 22.0% | 0hPa | 2.7V | 00:00:00 | 01:06:54 | 00:00:00 | |
| DB0ND-19 | 2026-08-30 23:41:02 | 47.04523 | 7.77639 | 70° | 113km/h | 13529m | 4.5m/s | -60.1°C | -1.0% | -1.0hPa | 2.7V | 00:00:00 | 00:00:00 | 00:00:00 | |
| DO3MHA-11 | 2026-08-30 23:40:59 | 47.04504 | 7.77559 | 72° | 119km/h | 13520m | 4.2m/s | -60.0°C | 21.8% | 0hPa | 2.7V | 00:00:00 | 01:06:47 | 00:00:00 | |
| IW2NTF | 2026-08-30 23:40:57 | 47.04477 | 7.77439 | 70° | 115km/h | 13507m | 3.6m/s | -60°C | 21.8% | 0hPa | 2.7V | 08:30:00 | 01:06:44 | 00:00:00 | |
| DO3MHA-12 | 2026-08-30 23:40:56 | 47.04477 | 7.77439 | 71° | 119km/h | 13507m | 3.5m/s | -60.0°C | 21.8% | 0hPa | 2.7V | 00:00:00 | 01:06:44 | 00:00:00 | |
| IW2NTF | 2026-08-30 23:40:51 | 47.04369 | 7.77028 | 68° | 115km/h | 13465m | 4.6m/s | -59.8°C | 21% | 0hPa | 2.7V | 08:30:00 | 01:06:34 | 00:00:00 | |
| DF7PN | 2026-08-30 23:40:48 | 47.04369 | 7.77028 | 68° | 115km/h | 13465m | 4.6m/s | -59.8°C | -1.0% | -1.0hPa | 2.7V | 00:00:00 | 00:00:00 | 00:00:00 | |
| DL1ZP-14 | 2026-08-30 23:40:45 | 47.04359 | 7.76989 | 68° | 113km/h | 13461m | 3.7m/s | -59.8°C | 14.9% | -1.0hPa | 2.7V | 00:00:00 | 00:00:00 | 00:00:00 | |
| DO3MHA-11 | 2026-08-30 23:40:39 | 47.04302 | 7.76744 | 72° | 120km/h | 13435m | 3.6m/s | -59.8°C | 20.8% | 0hPa | 2.7V | 00:00:00 | 01:06:27 | 00:00:00 | |
| IW2NTF | 2026-08-30 23:40:37 | 47.04274 | 7.76616 | 72° | 120km/h | 13422m | 3.6m/s | -59.8°C | 20.5% | 0hPa | 2.7V | 08:30:00 | 01:06:24 | 00:00:00 | |
| DK7TD | 2026-08-30 23:40:36 | 47.04274 | 7.76616 | 73° | 120km/h | 13422m | 3.6m/s | 0°C | 0% | 0hPa | 2.7V | 18:12:15 | 01:06:24 | 00:00:00 | |
| DO3MHA-12 | 2026-08-30 23:40:36 | 47.04274 | 7.76616 | 73° | 117km/h | 13422m | 3.6m/s | -59.7°C | 20.5% | 0hPa | 2.7V | 00:00:00 | 01:06:24 | 00:00:00 | |
| DK5PH-5 | 2026-08-30 23:40:31 | 47.04226 | 7.76404 | 72° | 120km/h | 13401m | 3.6m/s | -59.6°C | 20.2% | 0hPa | 2.7V | 00:00:00 | 01:06:19 | 00:00:00 | |
| DB0ND-19 | 2026-08-30 23:40:30 | 47.04206 | 7.76322 | 69° | 115km/h | 13392m | 5.2m/s | 0°C | -1.0% | -1.0hPa | 2.7V | 00:00:00 | 00:00:00 | 00:00:00 | |
| DO3MHA-11 | 2026-08-30 23:40:29 | 47.04206 | 7.76322 | 70° | 115km/h | 13393m | 5.1m/s | -59.6°C | 20.0% | 0hPa | 2.7V | 00:00:00 | 01:06:17 | 00:00:00 | |
| HASLITAL | 2026-08-30 23:40:28 | 47.04206 | 7.76322 | 70° | 117km/h | 13393m | 5.2m/s | -59.6°C | 14.4% | 0hPa | 2.7V | 00:00:00 | 00:00:00 | 00:00:00 | |
| IW2NTF | 2026-08-30 23:40:27 | 47.04176 | 7.76203 | 72° | 113km/h | 13380m | 4.8m/s | -59.6°C | 20% | 0hPa | 2.7V | 08:30:00 | 01:06:14 | 00:00:00 | |
| DK7TD | 2026-08-30 23:40:24 | 47.04160 | 7.76121 | 76° | 115km/h | 13372m | 3.9m/s | 0°C | 0% | 0hPa | 2.8V | 18:12:15 | 01:06:12 | 00:00:00 | |
| DO3MHA-11 | 2026-08-30 23:40:19 | 47.04123 | 7.75914 | 74° | 117km/h | 13352m | 4.0m/s | -59.7°C | 20.8% | 0hPa | 2.7V | 00:00:00 | 01:06:07 | 00:00:00 | |
| IW2NTF | 2026-08-30 23:40:18 | 47.04086 | 7.75748 | 70° | 119km/h | 13334m | 5m/s | -59.7°C | 21.1% | 0hPa | 2.7V | 08:30:00 | 01:06:03 | 00:00:00 | |
| DO3MHA-12 | 2026-08-30 23:40:15 | 47.04086 | 7.75748 | 71° | 115km/h | 13334m | 5.0m/s | -59.7°C | 21.1% | 0hPa | 2.7V | 00:00:00 | 01:06:03 | 00:00:00 | |
| DL1ZP-14 | 2026-08-30 23:40:14 | 47.04076 | 7.75707 | 70° | 115km/h | 13330m | 4.2m/s | -59.7°C | 15.1% | -1.0hPa | 2.7V | 00:00:00 | 00:00:00 | 00:00:00 | |
| DO3MHA-11 | 2026-08-30 23:40:09 | 47.04032 | 7.75501 | 74° | 113km/h | 13309m | 4.7m/s | -59.6°C | 21.6% | 0hPa | 2.8V | 00:00:00 | 01:05:57 | 00:00:00 | |
| HASLITAL | 2026-08-30 23:40:08 | 47.04032 | 7.75501 | 75° | 115km/h | 13309m | 4.7m/s | -59.7°C | 15.7% | 0hPa | 2.8V | 00:00:00 | 00:00:00 | 00:00:00 | |
| IW2NTF | 2026-08-30 23:40:07 | 47.03999 | 7.75339 | 73° | 115km/h | 13293m | 3.3m/s | -59.6°C | 21.7% | 0hPa | 2.8V | 08:30:00 | 01:05:53 | 00:00:00 | |
| DK7TD | 2026-08-30 23:40:05 | 47.03999 | 7.75339 | 73° | 115km/h | 13293m | 3.3m/s | 0°C | 0% | 0hPa | 2.8V | 18:12:15 | 01:05:53 | 00:00:00 | |
| DO3MHA-12 | 2026-08-30 23:40:05 | 47.03999 | 7.75339 | 74° | 113km/h | 13293m | 3.3m/s | -59.6°C | 21.7% | 0hPa | 2.7V | 00:00:00 | 01:05:53 | 00:00:00 | |
| DB0ND-19 | 2026-08-30 23:40:00 | 47.03946 | 7.75098 | 72° | 113km/h | 13268m | 4.0m/s | 0°C | -1.0% | -1.0hPa | 2.7V | 00:00:00 | 00:00:00 | 00:00:00 | |
| DO3MHA-11 | 2026-08-30 23:39:59 | 47.03946 | 7.75098 | 73° | 115km/h | 13268m | 3.9m/s | -59.4°C | 21.6% | 0hPa | 2.7V | 00:00:00 | 01:05:47 | 00:00:00 | |
| DB0UT-7 | 2026-08-30 23:39:58 | 47.03938 | 7.75058 | 74° | 117km/h | 13264m | 5.0m/s | -59.4°C | 21.8% | 0hPa | 2.7V | 00:00:00 | 00:00:00 | 00:00:00 | |
| IW2NTF | 2026-08-30 23:39:57 | 47.03914 | 7.74938 | 73° | 113km/h | 13251m | 4.5m/s | -59.3°C | 21.8% | 0hPa | 2.8V | 08:30:00 | 01:05:43 | 00:00:00 | |
| DH7VM-15 | 2026-08-30 23:39:55 | 47.03922 | 7.74978 | 75° | 113km/h | 13256m | 3.6m/s | -59.4°C | 0% | 0hPa | 2.7V | 00:00:00 | 00:00:00 | 00:00:00 | |
| DO3MHA-11 | 2026-08-30 23:39:49 | 47.03865 | 7.74691 | 75° | 117km/h | 13227m | 4.4m/s | -59.1°C | 22.1% | 0hPa | 2.7V | 00:00:00 | 01:05:37 | 00:00:00 | |
| IW2NTF | 2026-08-30 23:39:47 | 47.03835 | 7.74521 | 76° | 115km/h | 13211m | 3.4m/s | -59°C | 22.3% | 0hPa | 2.8V | 08:30:00 | 01:05:33 | 00:00:00 | |
| DO3MHA-12 | 2026-08-30 23:39:44 | 47.03828 | 7.74480 | 76° | 115km/h | 13207m | 3.3m/s | -59.0°C | 22.2% | 0hPa | 2.7V | 00:00:00 | 01:05:32 | 00:00:00 | |
| DL1ZP-14 | 2026-08-30 23:39:43 | 47.03821 | 7.74439 | 74° | 115km/h | 13203m | 4.7m/s | -59.0°C | 16.1% | -1.0hPa | 2.7V | 00:00:00 | 00:00:00 | 00:00:00 | |
| DO3MHA-11 | 2026-08-30 23:39:39 | 47.03786 | 7.74275 | 72° | 120km/h | 13187m | 3.8m/s | -58.9°C | 22.3% | 0hPa | 2.7V | 00:00:00 | 01:05:27 | 00:00:00 | |
| IW2NTF | 2026-08-30 23:39:37 | 47.03753 | 7.74107 | 75° | 122km/h | 13170m | 4m/s | -58.8°C | 22% | 0hPa | 2.7V | 08:30:00 | 01:05:23 | 00:00:00 | |
| DO3MHA-12 | 2026-08-30 23:39:34 | 47.03745 | 7.74062 | 78° | 119km/h | 13166m | 5.3m/s | -58.7°C | 21.9% | 0hPa | 2.8V | 00:00:00 | 01:05:22 | 00:00:00 | |
| DO3MHA-11 | 2026-08-30 23:39:29 | 47.03712 | 7.73843 | 76° | 119km/h | 13145m | 3.7m/s | -58.5°C | 21.9% | 0hPa | 2.8V | 00:00:00 | 01:05:17 | 00:00:00 | |
| DB0UT-7 | 2026-08-30 23:39:28 | 47.03705 | 7.73801 | 75° | 119km/h | 13141m | 4.0m/s | -58.5°C | 21.9% | 0hPa | 2.8V | 00:00:00 | 01:05:16 | 00:00:00 | |
| IW2NTF | 2026-08-30 23:39:27 | 47.03680 | 7.73676 | 72° | 119km/h | 13129m | 4.1m/s | -58.5°C | 21.9% | 0hPa | 2.8V | 08:30:00 | 01:05:13 | 00:00:00 | |
| HASLITAL | 2026-08-30 23:39:26 | 47.03696 | 7.73759 | 75° | 117km/h | 13137m | 3.6m/s | -58.5°C | 16.2% | 0hPa | 2.7V | 00:00:00 | 00:00:00 | 00:00:00 | |
| DO3MHA-12 | 2026-08-30 23:39:20 | 47.03638 | 7.73466 | 76° | 120km/h | 13108m | 4.1m/s | -58.3°C | 22.4% | 0hPa | 2.7V | 00:00:00 | 01:05:08 | 00:00:00 | |
| DO3MHA-11 | 2026-08-30 23:39:19 | 47.03630 | 7.73423 | 76° | 119km/h | 13104m | 3.3m/s | -58.3°C | 22.4% | 0hPa | 2.7V | 00:00:00 | 01:05:07 | 08:30:00 | |
| IW2NTF | 2026-08-30 23:39:17 | 47.03602 | 7.73254 | 75° | 119km/h | 13088m | 4.5m/s | -58.2°C | 22.6% | 0hPa | 2.7V | 08:30:00 | 01:05:03 | 00:00:00 | |
| DL1ZP-14 | 2026-08-30 23:39:12 | 47.03569 | 7.73086 | 74° | 119km/h | 13073m | 3.1m/s | -58.1°C | 16.9% | -1.0hPa | 2.8V | 00:00:00 | 00:00:00 | 00:00:00 | |
| DO3MHA-11 | 2026-08-30 23:39:09 | 47.03552 | 7.72999 | 75° | 119km/h | 13066m | 3.7m/s | -58.0°C | 23.0% | 0hPa | 2.7V | 00:00:00 | 01:04:57 | 00:00:00 | |
| IW2NTF | 2026-08-30 23:39:07 | 47.03519 | 7.72828 | 73° | 117km/h | 13051m | 3.5m/s | -58°C | 23.3% | 0hPa | 2.7V | 08:30:00 | 01:04:53 | 00:00:00 | |
| HASLITAL | 2026-08-30 23:39:05 | 47.03527 | 7.72870 | 75° | 119km/h | 13055m | 4.3m/s | -58.0°C | 17.5% | 0hPa | 2.8V | 00:00:00 | 00:00:00 | 00:00:00 | |
| DO3MHA-11 | 2026-08-30 23:38:59 | 47.03470 | 7.72578 | 76° | 119km/h | 13027m | 3.4m/s | -57.8°C | 23.9% | 0hPa | 2.8V | 00:00:00 | 01:04:47 | 00:00:00 | |
| DB0UT-7 | 2026-08-30 23:38:58 | 47.03463 | 7.72536 | 77° | 122km/h | 13023m | 4.5m/s | -57.7°C | 23.9% | 0hPa | 2.8V | 00:00:00 | 00:00:00 | 00:00:00 | |
| IW2NTF | 2026-08-30 23:38:57 | 47.03442 | 7.72406 | 75° | 119km/h | 13011m | 4.8m/s | -57.7°C | 24% | 0hPa | 2.8V | 08:30:00 | 01:04:43 | 00:00:00 | |
| DO3MHA-11 | 2026-08-30 23:38:49 | 47.03390 | 7.72153 | 73° | 122km/h | 12986m | 5.0m/s | -57.6°C | 24.8% | 0hPa | 2.7V | 00:00:00 | 01:04:37 | 00:00:00 | |
| IW2NTF | 2026-08-30 23:38:47 | 47.03358 | 7.71981 | 75° | 126km/h | 12970m | 2.9m/s | -57.6°C | 25.4% | 0hPa | 2.7V | 08:30:00 | 01:04:33 | 00:00:00 | |
| HASLITAL | 2026-08-30 23:38:44 | 47.03358 | 7.71980 | 77° | 126km/h | 12970m | 2.9m/s | -57.6°C | 19.4% | 0hPa | 2.7V | 00:00:00 | 00:00:00 | 00:00:00 | |
| DL1ZP-14 | 2026-08-30 23:38:41 | 47.03315 | 7.71761 | 71° | 122km/h | 12952m | 4.1m/s | -57.7°C | 19.5% | -1.0hPa | 2.7V | 00:00:00 | 00:00:00 | 00:00:00 | |
| DO3MHA-11 | 2026-08-30 23:38:39 | 47.03305 | 7.71718 | 72° | 124km/h | 12948m | 3.3m/s | -57.6°C | 26.0% | 0hPa | 2.7V | 00:00:00 | 01:04:27 | 00:00:00 | |
| IW2NTF | 2026-08-30 23:38:37 | 47.03270 | 7.71546 | 75° | 122km/h | 12933m | 3.5m/s | -57.7°C | 26.5% | 0hPa | 2.7V | 08:30:00 | 01:04:23 | 00:00:00 | |
| DK5PH-5 | 2026-08-30 23:38:32 | 47.03246 | 7.71410 | 76° | 130km/h | 12922m | 3.5m/s | -57.7°C | 26.9% | 0hPa | 2.7V | 00:00:00 | 01:04:20 | 00:00:00 | |
| DO3MHA-11 | 2026-08-30 23:38:29 | 47.03221 | 7.71275 | 74° | 122km/h | 12910m | 3.4m/s | -57.6°C | 27.4% | 0hPa | 2.7V | 00:00:00 | 01:04:17 | 00:00:00 | |
| DB0UT-7 | 2026-08-30 23:38:28 | 47.03211 | 7.71231 | 72° | 130km/h | 12906m | 4.4m/s | -57.6°C | 27.3% | 0hPa | 2.7V | 00:00:00 | 01:04:16 | 08:30:00 | |
| IW2NTF | 2026-08-30 23:38:27 | 47.03183 | 7.71101 | 73° | 119km/h | 12895m | 4.2m/s | -57.6°C | 27.1% | 0hPa | 2.8V | 08:30:00 | 01:04:13 | 00:00:00 | |
| DB0ND-19 | 2026-08-30 23:38:26 | 47.03192 | 7.71144 | 72° | 120km/h | 12899m | 3.9m/s | 0°C | -1.0% | -1.0hPa | 2.7V | 00:00:00 | 00:00:00 | 00:00:00 | |
| HASLITAL | 2026-08-30 23:38:25 | 47.03182 | 7.71101 | 75° | 119km/h | 12895m | 4.2m/s | -57.6°C | 21.0% | 0hPa | 2.7V | 00:00:00 | 00:00:00 | 00:00:00 | |
| DO3MHA-11 | 2026-08-30 23:38:19 | 47.03136 | 7.70839 | 75° | 131km/h | 12872m | 4.2m/s | -57.6°C | 27.9% | 0hPa | 2.7V | 00:00:00 | 01:04:07 | 00:00:00 | |
| IW2NTF | 2026-08-30 23:38:17 | 47.03102 | 7.70651 | 74° | 133km/h | 12855m | 3.5m/s | -57.8°C | 28.5% | 0hPa | 2.7V | 08:30:00 | 01:04:03 | 00:00:00 | |
| DO3MHA-12 | 2026-08-30 23:38:12 | 47.03073 | 7.70511 | 73° | 128km/h | 12843m | 3.9m/s | -57.8°C | 28.9% | 0hPa | 2.7V | 00:00:00 | 01:04:00 | 00:00:00 | |
| DL1ZP-14 | 2026-08-30 23:38:10 | 47.03045 | 7.70375 | 74° | 126km/h | 12831m | 3.0m/s | -57.9°C | -1.0% | -1.0hPa | 2.7V | 00:00:00 | 00:00:00 | 00:00:00 | |
| DO3MHA-11 | 2026-08-30 23:38:09 | 47.03045 | 7.70375 | 75° | 133km/h | 12831m | 2.9m/s | -57.9°C | 29.3% | 0hPa | 2.7V | 00:00:00 | 01:03:57 | 00:00:00 | |
| IW2NTF | 2026-08-30 23:38:07 | 47.03009 | 7.70194 | 72° | 131km/h | 12816m | 3.5m/s | -57.8°C | 29.3% | 0hPa | 2.7V | 08:30:00 | 01:03:53 | 00:00:00 | |
| HASLITAL | 2026-08-30 23:38:04 | 47.03009 | 7.70194 | 73° | 131km/h | 12817m | 3.5m/s | -57.8°C | 22.9% | 0hPa | 2.8V | 00:00:00 | 00:00:00 | 00:00:00 | |
| DO3MHA-12 | 2026-08-30 23:38:02 | 47.02979 | 7.70050 | 73° | 137km/h | 12803m | 4.4m/s | -57.8°C | 29.5% | 0hPa | 2.8V | 00:00:00 | 01:03:50 | 00:00:00 | |
| DO3MHA-11 | 2026-08-30 23:37:59 | 47.02947 | 7.69900 | 73° | 137km/h | 12790m | 4.9m/s | -57.8°C | 29.8% | 0hPa | 2.8V | 00:00:00 | 01:03:47 | 00:00:00 | |
| DB0UT-7 | 2026-08-30 23:37:58 | 47.02936 | 7.69850 | 74° | 135km/h | 12786m | 3.8m/s | -57.7°C | 30.0% | 0hPa | 2.8V | 00:00:00 | 00:00:00 | 00:00:00 | |
| IW2NTF | 2026-08-30 23:37:57 | 47.02906 | 7.69703 | 72° | 135km/h | 12774m | 3.9m/s | -57.8°C | 30.2% | 0hPa | 2.8V | 08:30:00 | 01:03:43 | 00:00:00 | |
| DO3MHA-12 | 2026-08-30 23:37:50 | 47.02857 | 7.69467 | 73° | 137km/h | 12754m | 4.0m/s | -57.7°C | 30.0% | 0hPa | 2.7V | 00:00:00 | 01:03:38 | 00:00:00 | |
| DO3MHA-11 | 2026-08-30 23:37:49 | 47.02847 | 7.69419 | 73° | 137km/h | 12750m | 3.9m/s | -57.6°C | 29.8% | 0hPa | 2.7V | 00:00:00 | 01:03:37 | 08:30:00 | |
| IW2NTF | 2026-08-30 23:37:47 | 47.02808 | 7.69226 | 73° | 137km/h | 12733m | 3.5m/s | -57.7°C | 30.1% | 0hPa | 2.7V | 08:30:00 | 01:03:33 | 00:00:00 | |
| HASLITAL | 2026-08-30 23:37:43 | 47.02798 | 7.69177 | 75° | 137km/h | 12730m | 3.2m/s | -57.7°C | 23.4% | 0hPa | 2.7V | 00:00:00 | 00:00:00 | 00:00:00 | |
| DO3MHA-12 | 2026-08-30 23:37:40 | 47.02762 | 7.68981 | 75° | 135km/h | 12714m | 3.7m/s | -57.5°C | 30.8% | 0hPa | 2.7V | 00:00:00 | 01:03:28 | 00:00:00 | |
| DO3MHA-11 | 2026-08-30 23:37:39 | 47.02753 | 7.68932 | 75° | 135km/h | 12710m | 3.6m/s | -57.5°C | 30.9% | 0hPa | 2.7V | 00:00:00 | 01:03:27 | 00:00:00 | |
| IW2NTF | 2026-08-30 23:37:37 | 47.02717 | 7.68739 | 73° | 133km/h | 12695m | 4.3m/s | -57.5°C | 31.2% | 0hPa | 2.7V | 08:30:00 | 01:03:23 | 00:00:00 | |
| DK7TD | 2026-08-30 23:37:31 | 47.02679 | 7.68549 | 75° | 135km/h | 12680m | 4.2m/s | 0°C | 0% | 0hPa | 2.8V | 18:12:15 | 01:03:19 | 00:00:00 | |
| DO3MHA-12 | 2026-08-30 23:37:30 | 47.02670 | 7.68501 | 77° | 137km/h | 12676m | 4.1m/s | -57.4°C | 30.7% | 0hPa | 2.7V | 00:00:00 | 01:03:18 | 00:00:00 | |
| DO3MHA-11 | 2026-08-30 23:37:29 | 47.02662 | 7.68452 | 77° | 137km/h | 12672m | 4.2m/s | -57.4°C | 30.5% | 0hPa | 2.7V | 00:00:00 | 01:03:17 | 00:00:00 | |
| DB0UT-7 | 2026-08-30 23:37:28 | 47.02655 | 7.68403 | 77° | 141km/h | 12668m | 4.3m/s | -57.4°C | 30.4% | 0hPa | 2.7V | 00:00:00 | 01:03:16 | 00:00:00 | |
| IW2NTF | 2026-08-30 23:37:27 | 47.02629 | 7.68258 | 74° | 137km/h | 12654m | 4.5m/s | -57.4°C | 31% | 0hPa | 2.7V | 08:30:00 | 01:03:13 | 00:00:00 | |
| HASLITAL | 2026-08-30 23:37:22 | 47.02610 | 7.68160 | 75° | 137km/h | 12645m | 5.8m/s | -57.4°C | 24.3% | 0hPa | 2.7V | 00:00:00 | 00:00:00 | 00:00:00 | |
| DO3MHA-12 | 2026-08-30 23:37:20 | 47.02582 | 7.68012 | 75° | 141km/h | 12633m | 5.0m/s | -57.3°C | 31.4% | 0hPa | 2.7V | 00:00:00 | 01:03:08 | 08:30:00 | |
| DO3MHA-11 | 2026-08-30 23:37:19 | 47.02572 | 7.67962 | 75° | 141km/h | 12628m | 3.6m/s | -57.3°C | 31.8% | 0hPa | 2.7V | 00:00:00 | 01:03:07 | 00:00:00 | |
| IW2NTF | 2026-08-30 23:37:17 | 47.02533 | 7.67757 | 74° | 144km/h | 12613m | 4m/s | -57.2°C | 31.5% | 0hPa | 2.8V | 08:30:00 | 01:03:03 | 00:00:00 | |
| DO3MHA-11 | 2026-08-30 23:37:10 | 47.02474 | 7.67465 | 75° | 142km/h | 12590m | 3.8m/s | -57.0°C | 32.0% | 0hPa | 2.7V | 00:00:00 | 01:02:57 | 00:00:00 | |
| IW2NTF | 2026-08-30 23:37:07 | 47.02435 | 7.67264 | 74° | 148km/h | 12573m | 4.6m/s | -57°C | 31.7% | 0hPa | 2.7V | 08:30:00 | 01:02:53 | 00:00:00 | |
| DK5PH-5 | 2026-08-30 23:37:02 | 47.02404 | 7.67108 | 75° | 141km/h | 12560m | 5.2m/s | 0°C | 0% | 0hPa | 2.7V | 00:00:00 | 01:02:50 | 00:00:00 | |
| DO3MHA-12 | 2026-08-30 23:37:00 | 47.02384 | 7.67007 | 74° | 141km/h | 12550m | 5.1m/s | -56.9°C | 32.2% | 0hPa | 2.7V | 00:00:00 | 01:02:48 | 00:00:00 | |
| DO3MHA-11 | 2026-08-30 23:36:59 | 47.02374 | 7.66956 | 75° | 141km/h | 12545m | 5.6m/s | -56.9°C | 32.3% | 0hPa | 2.7V | 00:00:00 | 01:02:47 | 00:00:00 | |
| DB0UT-7 | 2026-08-30 23:36:58 | 47.02364 | 7.66907 | 74° | 139km/h | 12541m | 2.5m/s | -56.9°C | 32.7% | 0hPa | 2.7V | 00:00:00 | 00:00:00 | 00:00:00 | |
| IW2NTF | 2026-08-30 23:36:57 | 47.02334 | 7.66758 | 73° | 142km/h | 12527m | 4.5m/s | -56.9°C | 32.5% | 0hPa | 2.8V | 08:30:00 | 01:02:43 | 00:00:00 | |
| DO3MHA-12 | 2026-08-30 23:36:50 | 47.02284 | 7.66508 | 74° | 135km/h | 12504m | 4.1m/s | -56.8°C | 32.9% | 0hPa | 2.7V | 00:00:00 | 01:02:38 | 00:00:00 | |
| DO3MHA-11 | 2026-08-30 23:36:49 | 47.02274 | 7.66460 | 73° | 135km/h | 12500m | 3.8m/s | -56.8°C | 33.1% | 0hPa | 2.7V | 00:00:00 | 01:02:37 | 00:00:00 | |
| IW2NTF | 2026-08-30 23:36:47 | 47.02231 | 7.66264 | 72° | 137km/h | 12481m | 4.3m/s | -56.9°C | 33.6% | 0hPa | 2.7V | 08:30:00 | 01:02:33 | 00:00:00 | |
| HASLITAL | 2026-08-30 23:36:42 | 47.02212 | 7.66168 | 75° | 133km/h | 12473m | 5.4m/s | -56.8°C | 26.5% | 0hPa | 2.8V | 00:00:00 | 00:00:00 | 00:00:00 | |
| DO3MHA-12 | 2026-08-30 23:36:40 | 47.02184 | 7.66029 | 74° | 139km/h | 12457m | 6.2m/s | -56.6°C | 33.1% | 0hPa | 2.8V | 00:00:00 | 01:02:28 | 00:00:00 | |
| DO3MHA-11 | 2026-08-30 23:36:39 | 47.02175 | 7.65982 | 73° | 141km/h | 12452m | 5.0m/s | -56.6°C | 33.4% | 0hPa | 2.8V | 00:00:00 | 01:02:27 | 00:00:00 | |
| IW2NTF | 2026-08-30 23:36:37 | 47.02129 | 7.65786 | 69° | 144km/h | 12433m | 7m/s | -56.5°C | 33.1% | 0hPa | 2.8V | 08:30:00 | 01:02:23 | 00:00:00 | |
| DK5PH-5 | 2026-08-30 23:36:32 | 47.02095 | 7.65636 | 75° | 144km/h | 12419m | 5.2m/s | 0°C | 0% | 0hPa | 2.8V | 00:00:00 | 01:02:20 | 00:00:00 | |
| DO3MHA-12 | 2026-08-30 23:36:30 | 47.02077 | 7.65535 | 77° | 139km/h | 12407m | 5.6m/s | -56.4°C | 32.7% | 0hPa | 2.8V | 00:00:00 | 01:02:18 | 00:00:00 | |
| DO3MHA-11 | 2026-08-30 23:36:29 | 47.02069 | 7.65485 | 77° | 139km/h | 12401m | 6.2m/s | -56.3°C | 32.4% | 0hPa | 2.8V | 00:00:00 | 01:02:17 | 00:00:00 | |
| DB0UT-7 | 2026-08-30 23:36:28 | 47.02060 | 7.65434 | 75° | 144km/h | 12396m | 3.8m/s | -56.3°C | 32.7% | 0hPa | 2.8V | 00:00:00 | 01:02:16 | 00:00:00 | |
| IW2NTF | 2026-08-30 23:36:27 | 47.02031 | 7.65287 | 71° | 137km/h | 12379m | 5.3m/s | -56.3°C | 32.2% | 0hPa | 2.8V | 08:30:00 | 01:02:13 | 00:00:00 | |
| HASLITAL | 2026-08-30 23:36:21 | 47.01999 | 7.65143 | 73° | 135km/h | 12364m | 6.8m/s | -56.2°C | 25.6% | 0hPa | 2.7V | 00:00:00 | 00:00:00 | 00:00:00 | |
| DO3MHA-12 | 2026-08-30 23:36:20 | 47.01979 | 7.65045 | 74° | 144km/h | 12352m | 6.5m/s | -56.1°C | 32.3% | 0hPa | 2.7V | 00:00:00 | 01:02:08 | 00:00:00 | |
| DO3MHA-11 | 2026-08-30 23:36:19 | 47.01969 | 7.64995 | 75° | 144km/h | 12347m | 4.8m/s | -56.1°C | 32.0% | 0hPa | 2.7V | 00:00:00 | 01:02:07 | 08:30:00 | |
| IW2NTF | 2026-08-30 23:36:15 | 47.01932 | 7.64786 | 76° | 144km/h | 12324m | 7.9m/s | -56°C | 31.8% | 0hPa | 2.8V | 08:30:00 | 01:02:03 | 00:00:00 | |
| DO3MHA-12 | 2026-08-30 23:36:10 | 47.01884 | 7.64533 | 75° | 148km/h | 12297m | 7.3m/s | -56.0°C | 31.5% | 0hPa | 2.8V | 00:00:00 | 01:01:58 | 00:00:00 | |
| DO3MHA-11 | 2026-08-30 23:36:09 | 47.01875 | 7.64482 | 76° | 150km/h | 12291m | 2.9m/s | -56.0°C | 31.9% | 0hPa | 2.8V | 00:00:00 | 01:01:57 | 00:00:00 | |
| IW2NTF | 2026-08-30 23:36:06 | 47.01843 | 7.64269 | 78° | 148km/h | 12267m | 6.3m/s | -56°C | 31.6% | 0hPa | 2.8V | 08:30:00 | 01:01:53 | 00:00:00 | |
| DO3MHA-12 | 2026-08-30 23:36:00 | 47.01798 | 7.63996 | 75° | 159km/h | 12240m | 6.8m/s | -55.9°C | 32.1% | 0hPa | 2.8V | 00:00:00 | 01:01:48 | 00:00:00 | |
| DO3MHA-11 | 2026-08-30 23:35:59 | 47.01787 | 7.63940 | 75° | 159km/h | 12234m | 4.0m/s | -55.8°C | 32.4% | 0hPa | 2.8V | 00:00:00 | 01:01:47 | 00:00:00 | |
| DB0UT-7 | 2026-08-30 23:35:58 | 47.01777 | 7.63885 | 75° | 157km/h | 12229m | 7.6m/s | -55.8°C | 32.6% | 0hPa | 2.8V | 00:00:00 | 00:00:00 | 00:00:00 | |
| IW2NTF | 2026-08-30 23:35:57 | 47.01746 | 7.63718 | 75° | 159km/h | 12211m | 6.1m/s | -55.8°C | 32.6% | 0hPa | 2.8V | 08:30:00 | 01:01:43 | 00:00:00 | |
| DK5PH-5 | 2026-08-30 23:35:57 | 47.01766 | 7.63830 | 75° | 157km/h | 12223m | 3.9m/s | 0°C | 0% | 0hPa | 2.8V | 00:00:00 | 01:01:45 | 00:00:00 | |
| IW2NTF | 2026-08-30 23:35:50 | 47.01646 | 7.63145 | 76° | 155km/h | 12154m | 4.9m/s | -55.9°C | 34.5% | 0hPa | 2.8V | 08:30:00 | 01:01:33 | 00:00:00 | |
| DO3MHA-12 | 2026-08-30 23:35:50 | 47.01694 | 7.63430 | 76° | 157km/h | 12182m | 5.3m/s | -55.7°C | 33.4% | 0hPa | 2.7V | 00:00:00 | 01:01:38 | 08:30:00 | |
| DO3MHA-11 | 2026-08-30 23:35:49 | 47.01684 | 7.63372 | 77° | 157km/h | 12177m | 5.0m/s | -55.8°C | 33.8% | 0hPa | 2.7V | 00:00:00 | 01:01:37 | 00:00:00 | |
| DH7VM-15 | 2026-08-30 23:35:44 | 47.01646 | 7.63145 | 77° | 155km/h | 12154m | 4.9m/s | -55.9°C | 0% | 0hPa | 2.7V | 00:00:00 | 00:00:00 | 00:00:00 | |
| DO3MHA-12 | 2026-08-30 23:35:40 | 47.01598 | 7.62869 | 76° | 157km/h | 12130m | 4.5m/s | -55.7°C | 34.9% | 0hPa | 2.7V | 00:00:00 | 01:01:28 | 00:00:00 | |
| DO3MHA-11 | 2026-08-30 23:35:39 | 47.01588 | 7.62812 | 77° | 159km/h | 12126m | 3.7m/s | -55.7°C | 34.8% | 0hPa | 2.7V | 00:00:00 | 01:01:27 | 00:00:00 | |
| IW2NTF | 2026-08-30 23:35:35 | 47.01556 | 7.62582 | 78° | 157km/h | 12105m | 6.6m/s | -55.6°C | 34.6% | 0hPa | 2.7V | 08:30:00 | 01:01:23 | 00:00:00 | |
| DO3MHA-11 | 2026-08-30 23:35:29 | 47.01495 | 7.62243 | 77° | 162km/h | 12072m | 4.4m/s | -55.3°C | 33.8% | 0hPa | 2.7V | 00:00:00 | 01:01:17 | 00:00:00 | |
| DO3MHA-12 | 2026-08-30 23:35:28 | 47.01486 | 7.62187 | 77° | 162km/h | 12066m | 7.4m/s | -55.3°C | 33.7% | 0hPa | 2.7V | 00:00:00 | 01:01:16 | 00:00:00 | |
| IW2NTF | 2026-08-30 23:35:25 | 47.01461 | 7.62015 | 78° | 161km/h | 12048m | 7.4m/s | -55.2°C | 33.8% | 0hPa | 2.7V | 08:30:00 | 01:01:13 | 00:00:00 | |
| HASLITAL | 2026-08-30 23:35:20 | 47.01429 | 7.61776 | 79° | 166km/h | 12025m | 2.8m/s | -55.0°C | 28.2% | 0hPa | 2.7V | 00:00:00 | 00:00:00 | 00:00:00 | |
| DO3MHA-11 | 2026-08-30 23:35:19 | 47.01411 | 7.61655 | 77° | 159km/h | 12015m | 4.8m/s | -54.9°C | 34.2% | 0hPa | 2.7V | 00:00:00 | 01:01:07 | 00:00:00 | |
| DO3MHA-12 | 2026-08-30 23:35:18 | 47.01401 | 7.61596 | 76° | 159km/h | 12010m | 3.7m/s | -54.9°C | 34.3% | 0hPa | 2.7V | 00:00:00 | 01:01:06 | 00:00:00 | |
| IW2NTF | 2026-08-30 23:35:15 | 47.01373 | 7.61425 | 78° | 155km/h | 11994m | 4.5m/s | -54.8°C | 34.2% | 0hPa | 2.8V | 08:30:00 | 01:01:03 | 00:00:00 | |
| DO3MHA-11 | 2026-08-30 23:35:09 | 47.01324 | 7.61084 | 77° | 173km/h | 11964m | 5.0m/s | -54.5°C | 33.0% | 0hPa | 2.8V | 00:00:00 | 01:00:57 | 00:00:00 | |
| DO3MHA-12 | 2026-08-30 23:35:08 | 47.01314 | 7.61025 | 77° | 173km/h | 11959m | 4.6m/s | -54.5°C | 33.1% | 0hPa | 2.8V | 00:00:00 | 01:00:56 | 00:00:00 | |
| IW2NTF | 2026-08-30 23:35:05 | 47.01288 | 7.60845 | 78° | 170km/h | 11948m | 11.9m/s | -54.4°C | 32.3% | 0hPa | 2.8V | 08:30:00 | 01:00:53 | 00:00:00 | |
| IW2NTF | 2026-08-30 23:35:00 | 47.01208 | 7.60241 | 75° | 164km/h | 11889m | 3.1m/s | -54°C | 32.5% | 0hPa | 2.8V | 08:30:00 | 01:00:43 | 00:00:00 | |
| DO3MHA-11 | 2026-08-30 23:34:59 | 47.01241 | 7.60480 | 82° | 162km/h | 11908m | 2.7m/s | -54.1°C | 32.2% | 0hPa | 2.7V | 00:00:00 | 01:00:47 | 00:00:00 | |
| DO3MHA-12 | 2026-08-30 23:34:58 | 47.01234 | 7.60421 | 80° | 164km/h | 11904m | 4.1m/s | -54.1°C | 32.3% | 0hPa | 2.7V | 00:00:00 | 01:00:46 | 00:00:00 | |
| DO3MHA-11 | 2026-08-30 23:34:49 | 47.01149 | 7.59890 | 80° | 164km/h | 11861m | 3.2m/s | -53.8°C | 32.1% | 0hPa | 2.7V | 00:00:00 | 01:00:37 | 08:30:00 | |
| DO3MHA-12 | 2026-08-30 23:34:48 | 47.01142 | 7.59831 | 80° | 164km/h | 11857m | 6.4m/s | -53.8°C | 31.9% | 0hPa | 2.7V | 00:00:00 | 01:00:36 | 00:00:00 | |
| IW2NTF | 2026-08-30 23:34:45 | 47.01116 | 7.59654 | 77° | 164km/h | 11842m | 6.3m/s | -53.7°C | 31.7% | 0hPa | 2.8V | 08:30:00 | 01:00:33 | 00:00:00 | |
| DO3MHA-11 | 2026-08-30 23:34:39 | 47.01058 | 7.59296 | 77° | 162km/h | 11810m | 6.7m/s | -53.5°C | 32.0% | 0hPa | 2.7V | 00:00:00 | 01:00:27 | 00:00:00 | |
| DO3MHA-12 | 2026-08-30 23:34:38 | 47.01049 | 7.59235 | 78° | 162km/h | 11805m | 3.0m/s | -53.5°C | 32.7% | 0hPa | 2.7V | 00:00:00 | 01:00:26 | 00:00:00 | |
| IW2NTF | 2026-08-30 23:34:37 | 47.01020 | 7.59058 | 76° | 159km/h | 11791m | 3.4m/s | -53.4°C | 32.8% | 0hPa | 2.7V | 08:30:00 | 01:00:23 | 00:00:00 | |
| IW2NTF | 2026-08-30 23:34:31 | 47.00922 | 7.58479 | 76° | 164km/h | 11736m | 8.5m/s | -53°C | 31.7% | 0hPa | 2.8V | 08:30:00 | 01:00:13 | 00:00:00 | |
| DO3MHA-11 | 2026-08-30 23:34:29 | 47.00963 | 7.58713 | 76° | 162km/h | 11760m | 7.0m/s | -53.2°C | 31.5% | 0hPa | 2.8V | 00:00:00 | 01:00:17 | 00:00:00 | |
| DB0UT-7 | 2026-08-30 23:34:28 | 47.00953 | 7.58654 | 76° | 161km/h | 11755m | 4.0m/s | -53.1°C | 31.7% | 0hPa | 2.8V | 00:00:00 | 01:00:16 | 00:00:00 | |
| DH7VM-15 | 2026-08-30 23:34:24 | 47.00922 | 7.58479 | 77° | 164km/h | 11736m | 8.5m/s | 0°C | 0% | 0hPa | 2.8V | 00:00:00 | 00:00:00 | 00:00:00 | |
| IW2NTF | 2026-08-30 23:34:20 | 47.00830 | 7.57904 | 76° | 161km/h | 11677m | 5.2m/s | -52.7°C | 31.4% | 0hPa | 2.8V | 08:30:00 | 01:00:03 | 00:00:00 | |
| DO3MHA-11 | 2026-08-30 23:34:19 | 47.00867 | 7.58132 | 77° | 159km/h | 11701m | 3.6m/s | -52.8°C | 31.8% | 0hPa | 2.7V | 00:00:00 | 01:00:07 | 00:00:00 | |
| DO3MHA-12 | 2026-08-30 23:34:18 | 47.00858 | 7.58076 | 77° | 159km/h | 11695m | 6.7m/s | -52.7°C | 31.7% | 0hPa | 2.7V | 00:00:00 | 01:00:06 | 08:30:00 | |
| IW2NTF | 2026-08-30 23:34:10 | 47.00731 | 7.57329 | 74° | 164km/h | 11621m | 4.2m/s | -52.2°C | 31.4% | 0hPa | 2.8V | 08:30:00 | 00:59:53 | 00:00:00 | |
| DO3MHA-11 | 2026-08-30 23:34:09 | 47.00774 | 7.57559 | 76° | 162km/h | 11644m | 8.0m/s | -52.4°C | 31.4% | 0hPa | 2.7V | 00:00:00 | 00:59:57 | 00:00:00 | |
| Es werden nur die letzten 3500 von 3713 Frames angezeigt. GPX/KML und Diagramme bleiben verfügbar. | |||||||||||||||